<?xml version="1.0" encoding="UTF-8" standalone="no" ?>
<gpx xmlns="http://www.topografix.com/GPX/1/1" xmlns:xsi="http://www.w3.org/2001/XMLSchema-instance" xsi:schemaLocation="http://www.topografix.com/GPX/1/1 http://www.topografix.com/GPX/1/1/gpx.xsd" version="1.1" creator="VisuGPX - https://www.visugpx.com">
  <metadata>
    <name>3 bosses à l\'envers avec option double single d\'enfer</name>
    <desc><![CDATA[Les 3 bosses à l'envers ]]></desc>
  </metadata>
  <trk>
    <name><![CDATA[Rue Antoine Coysevox]]></name>
    <desc><![CDATA[Les 3 bosses à l'envers ]]></desc>
    <trkseg>
      <trkpt lat="47.51815" lon="6.77476">
        <ele>411.8</ele>
        <time>2014-05-18T07:13:53.000Z</time>
      </trkpt>
      <trkpt lat="47.51817" lon="6.77477">
        <ele>413.9</ele>
        <time>2014-05-18T07:13:54.000Z</time>
      </trkpt>
      <trkpt lat="47.51819" lon="6.7748">
        <ele>419.1</ele>
        <time>2014-05-18T07:13:55.000Z</time>
      </trkpt>
      <trkpt lat="47.51819" lon="6.77481">
        <ele>421.9</ele>
        <time>2014-05-18T07:14:08.000Z</time>
      </trkpt>
      <trkpt lat="47.51815" lon="6.77488">
        <ele>406.7</ele>
        <time>2014-05-18T07:14:09.000Z</time>
      </trkpt>
      <trkpt lat="47.51813" lon="6.77482">
        <ele>397</ele>
        <time>2014-05-18T07:14:25.000Z</time>
      </trkpt>
      <trkpt lat="47.51812" lon="6.77482">
        <ele>396.9</ele>
        <time>2014-05-18T07:14:26.000Z</time>
      </trkpt>
      <trkpt lat="47.51812" lon="6.77489">
        <ele>398</ele>
        <time>2014-05-18T07:15:06.000Z</time>
      </trkpt>
      <trkpt lat="47.5181" lon="6.77491">
        <ele>396.1</ele>
        <time>2014-05-18T07:15:07.000Z</time>
      </trkpt>
      <trkpt lat="47.51806" lon="6.77493">
        <ele>396.3</ele>
        <time>2014-05-18T07:15:08.000Z</time>
      </trkpt>
      <trkpt lat="47.51802" lon="6.77493">
        <ele>395.9</ele>
        <time>2014-05-18T07:15:09.000Z</time>
      </trkpt>
      <trkpt lat="47.51799" lon="6.77493">
        <ele>395.7</ele>
        <time>2014-05-18T07:15:10.000Z</time>
      </trkpt>
      <trkpt lat="47.51795" lon="6.77492">
        <ele>394.2</ele>
        <time>2014-05-18T07:15:11.000Z</time>
      </trkpt>
      <trkpt lat="47.51791" lon="6.77491">
        <ele>394.1</ele>
        <time>2014-05-18T07:15:12.000Z</time>
      </trkpt>
      <trkpt lat="47.51788" lon="6.77489">
        <ele>394</ele>
        <time>2014-05-18T07:15:13.000Z</time>
      </trkpt>
      <trkpt lat="47.51784" lon="6.77487">
        <ele>395.6</ele>
        <time>2014-05-18T07:15:14.000Z</time>
      </trkpt>
      <trkpt lat="47.51781" lon="6.77485">
        <ele>396.4</ele>
        <time>2014-05-18T07:15:15.000Z</time>
      </trkpt>
      <trkpt lat="47.51777" lon="6.77483">
        <ele>397</ele>
        <time>2014-05-18T07:15:16.000Z</time>
      </trkpt>
      <trkpt lat="47.51773" lon="6.77482">
        <ele>396.6</ele>
        <time>2014-05-18T07:15:17.000Z</time>
      </trkpt>
      <trkpt lat="47.51769" lon="6.7748">
        <ele>396.3</ele>
        <time>2014-05-18T07:15:18.000Z</time>
      </trkpt>
      <trkpt lat="47.51764" lon="6.77479">
        <ele>397.3</ele>
        <time>2014-05-18T07:15:19.000Z</time>
      </trkpt>
      <trkpt lat="47.51759" lon="6.77478">
        <ele>396.5</ele>
        <time>2014-05-18T07:15:20.000Z</time>
      </trkpt>
      <trkpt lat="47.51754" lon="6.77478">
        <ele>395.8</ele>
        <time>2014-05-18T07:15:21.000Z</time>
      </trkpt>
      <trkpt lat="47.51749" lon="6.77477">
        <ele>396.1</ele>
        <time>2014-05-18T07:15:22.000Z</time>
      </trkpt>
      <trkpt lat="47.51745" lon="6.77475">
        <ele>395.6</ele>
        <time>2014-05-18T07:15:23.000Z</time>
      </trkpt>
      <trkpt lat="47.5174" lon="6.77474">
        <ele>394.7</ele>
        <time>2014-05-18T07:15:24.000Z</time>
      </trkpt>
      <trkpt lat="47.51736" lon="6.77474">
        <ele>394</ele>
        <time>2014-05-18T07:15:25.000Z</time>
      </trkpt>
      <trkpt lat="47.51731" lon="6.77474">
        <ele>393</ele>
        <time>2014-05-18T07:15:26.000Z</time>
      </trkpt>
      <trkpt lat="47.51727" lon="6.77476">
        <ele>392.2</ele>
        <time>2014-05-18T07:15:27.000Z</time>
      </trkpt>
      <trkpt lat="47.51724" lon="6.7748">
        <ele>391.3</ele>
        <time>2014-05-18T07:15:28.000Z</time>
      </trkpt>
      <trkpt lat="47.51721" lon="6.77485">
        <ele>390.5</ele>
        <time>2014-05-18T07:15:29.000Z</time>
      </trkpt>
      <trkpt lat="47.51719" lon="6.77491">
        <ele>389.5</ele>
        <time>2014-05-18T07:15:30.000Z</time>
      </trkpt>
      <trkpt lat="47.51722" lon="6.77504">
        <ele>389.9</ele>
        <time>2014-05-18T07:15:31.000Z</time>
      </trkpt>
      <trkpt lat="47.51721" lon="6.77512">
        <ele>389.3</ele>
        <time>2014-05-18T07:15:32.000Z</time>
      </trkpt>
      <trkpt lat="47.51721" lon="6.77519">
        <ele>389.1</ele>
        <time>2014-05-18T07:15:33.000Z</time>
      </trkpt>
      <trkpt lat="47.5172" lon="6.77527">
        <ele>388.9</ele>
        <time>2014-05-18T07:15:34.000Z</time>
      </trkpt>
      <trkpt lat="47.51719" lon="6.77534">
        <ele>388.6</ele>
        <time>2014-05-18T07:15:35.000Z</time>
      </trkpt>
      <trkpt lat="47.51718" lon="6.77541">
        <ele>389.2</ele>
        <time>2014-05-18T07:15:36.000Z</time>
      </trkpt>
      <trkpt lat="47.51717" lon="6.77546">
        <ele>389.4</ele>
        <time>2014-05-18T07:15:37.000Z</time>
      </trkpt>
      <trkpt lat="47.51714" lon="6.77548">
        <ele>389.2</ele>
        <time>2014-05-18T07:15:38.000Z</time>
      </trkpt>
      <trkpt lat="47.51711" lon="6.77548">
        <ele>389.6</ele>
        <time>2014-05-18T07:15:39.000Z</time>
      </trkpt>
      <trkpt lat="47.51708" lon="6.77547">
        <ele>389.4</ele>
        <time>2014-05-18T07:15:40.000Z</time>
      </trkpt>
      <trkpt lat="47.51704" lon="6.77544">
        <ele>388.1</ele>
        <time>2014-05-18T07:15:41.000Z</time>
      </trkpt>
      <trkpt lat="47.517" lon="6.77542">
        <ele>387.5</ele>
        <time>2014-05-18T07:15:42.000Z</time>
      </trkpt>
      <trkpt lat="47.51698" lon="6.77538">
        <ele>385</ele>
        <time>2014-05-18T07:15:43.000Z</time>
      </trkpt>
      <trkpt lat="47.51694" lon="6.77534">
        <ele>384.8</ele>
        <time>2014-05-18T07:15:44.000Z</time>
      </trkpt>
      <trkpt lat="47.5169" lon="6.7753">
        <ele>384.4</ele>
        <time>2014-05-18T07:15:45.000Z</time>
      </trkpt>
      <trkpt lat="47.51685" lon="6.77525">
        <ele>384.1</ele>
        <time>2014-05-18T07:15:46.000Z</time>
      </trkpt>
      <trkpt lat="47.51681" lon="6.77521">
        <ele>383.8</ele>
        <time>2014-05-18T07:15:47.000Z</time>
      </trkpt>
      <trkpt lat="47.51642" lon="6.77475">
        <ele>383.8</ele>
        <time>2014-05-18T07:15:55.000Z</time>
      </trkpt>
      <trkpt lat="47.51637" lon="6.77469">
        <ele>383.6</ele>
        <time>2014-05-18T07:15:56.000Z</time>
      </trkpt>
      <trkpt lat="47.51632" lon="6.77464">
        <ele>383.6</ele>
        <time>2014-05-18T07:15:57.000Z</time>
      </trkpt>
      <trkpt lat="47.51628" lon="6.77458">
        <ele>383.5</ele>
        <time>2014-05-18T07:15:57.998Z</time>
      </trkpt>
      <trkpt lat="47.51623" lon="6.77452">
        <ele>383.6</ele>
        <time>2014-05-18T07:15:59.000Z</time>
      </trkpt>
      <trkpt lat="47.51618" lon="6.77446">
        <ele>383.3</ele>
        <time>2014-05-18T07:16:00.000Z</time>
      </trkpt>
      <trkpt lat="47.51613" lon="6.77439">
        <ele>383.1</ele>
        <time>2014-05-18T07:16:01.000Z</time>
      </trkpt>
      <trkpt lat="47.51607" lon="6.77433">
        <ele>382.3</ele>
        <time>2014-05-18T07:16:02.000Z</time>
      </trkpt>
      <trkpt lat="47.51602" lon="6.77426">
        <ele>382.5</ele>
        <time>2014-05-18T07:16:03.000Z</time>
      </trkpt>
      <trkpt lat="47.51597" lon="6.77419">
        <ele>382.1</ele>
        <time>2014-05-18T07:16:04.000Z</time>
      </trkpt>
      <trkpt lat="47.51591" lon="6.77412">
        <ele>381.5</ele>
        <time>2014-05-18T07:16:05.000Z</time>
      </trkpt>
      <trkpt lat="47.51586" lon="6.77405">
        <ele>381.8</ele>
        <time>2014-05-18T07:16:06.000Z</time>
      </trkpt>
      <trkpt lat="47.5158" lon="6.77399">
        <ele>381.5</ele>
        <time>2014-05-18T07:16:07.000Z</time>
      </trkpt>
      <trkpt lat="47.51574" lon="6.77392">
        <ele>381.6</ele>
        <time>2014-05-18T07:16:08.000Z</time>
      </trkpt>
      <trkpt lat="47.51569" lon="6.77385">
        <ele>381</ele>
        <time>2014-05-18T07:16:09.000Z</time>
      </trkpt>
      <trkpt lat="47.51563" lon="6.77379">
        <ele>380.1</ele>
        <time>2014-05-18T07:16:10.000Z</time>
      </trkpt>
      <trkpt lat="47.51557" lon="6.77372">
        <ele>379.4</ele>
        <time>2014-05-18T07:16:11.000Z</time>
      </trkpt>
      <trkpt lat="47.51551" lon="6.77364">
        <ele>379.6</ele>
        <time>2014-05-18T07:16:12.000Z</time>
      </trkpt>
      <trkpt lat="47.51545" lon="6.77356">
        <ele>379.4</ele>
        <time>2014-05-18T07:16:13.000Z</time>
      </trkpt>
      <trkpt lat="47.51538" lon="6.77349">
        <ele>379.1</ele>
        <time>2014-05-18T07:16:14.000Z</time>
      </trkpt>
      <trkpt lat="47.51531" lon="6.7734">
        <ele>378.3</ele>
        <time>2014-05-18T07:16:15.000Z</time>
      </trkpt>
      <trkpt lat="47.51525" lon="6.77332">
        <ele>377.3</ele>
        <time>2014-05-18T07:16:16.000Z</time>
      </trkpt>
      <trkpt lat="47.51518" lon="6.77324">
        <ele>376.1</ele>
        <time>2014-05-18T07:16:17.000Z</time>
      </trkpt>
      <trkpt lat="47.51511" lon="6.77317">
        <ele>375.5</ele>
        <time>2014-05-18T07:16:18.000Z</time>
      </trkpt>
      <trkpt lat="47.51504" lon="6.77308">
        <ele>375.2</ele>
        <time>2014-05-18T07:16:19.000Z</time>
      </trkpt>
      <trkpt lat="47.51499" lon="6.77299">
        <ele>374.4</ele>
        <time>2014-05-18T07:16:20.000Z</time>
      </trkpt>
      <trkpt lat="47.51493" lon="6.77289">
        <ele>374.2</ele>
        <time>2014-05-18T07:16:21.000Z</time>
      </trkpt>
      <trkpt lat="47.51491" lon="6.77278">
        <ele>374.1</ele>
        <time>2014-05-18T07:16:22.000Z</time>
      </trkpt>
      <trkpt lat="47.51489" lon="6.77267">
        <ele>373.8</ele>
        <time>2014-05-18T07:16:23.000Z</time>
      </trkpt>
      <trkpt lat="47.51488" lon="6.77255">
        <ele>374.2</ele>
        <time>2014-05-18T07:16:24.000Z</time>
      </trkpt>
      <trkpt lat="47.51487" lon="6.77246">
        <ele>374.2</ele>
        <time>2014-05-18T07:16:25.000Z</time>
      </trkpt>
      <trkpt lat="47.51486" lon="6.77235">
        <ele>374.5</ele>
        <time>2014-05-18T07:16:26.000Z</time>
      </trkpt>
      <trkpt lat="47.51485" lon="6.77225">
        <ele>374.7</ele>
        <time>2014-05-18T07:16:27.000Z</time>
      </trkpt>
      <trkpt lat="47.51485" lon="6.77216">
        <ele>375.1</ele>
        <time>2014-05-18T07:16:28.000Z</time>
      </trkpt>
      <trkpt lat="47.51482" lon="6.77207">
        <ele>374.9</ele>
        <time>2014-05-18T07:16:29.000Z</time>
      </trkpt>
      <trkpt lat="47.51477" lon="6.772">
        <ele>374.8</ele>
        <time>2014-05-18T07:16:30.000Z</time>
      </trkpt>
      <trkpt lat="47.51471" lon="6.77197">
        <ele>374</ele>
        <time>2014-05-18T07:16:31.000Z</time>
      </trkpt>
      <trkpt lat="47.51464" lon="6.77198">
        <ele>373</ele>
        <time>2014-05-18T07:16:32.000Z</time>
      </trkpt>
      <trkpt lat="47.51458" lon="6.772">
        <ele>372.4</ele>
        <time>2014-05-18T07:16:33.000Z</time>
      </trkpt>
      <trkpt lat="47.5145" lon="6.77204">
        <ele>371.3</ele>
        <time>2014-05-18T07:16:34.000Z</time>
      </trkpt>
      <trkpt lat="47.51442" lon="6.77207">
        <ele>370.9</ele>
        <time>2014-05-18T07:16:35.000Z</time>
      </trkpt>
      <trkpt lat="47.51435" lon="6.77211">
        <ele>370.6</ele>
        <time>2014-05-18T07:16:36.000Z</time>
      </trkpt>
      <trkpt lat="47.51428" lon="6.77215">
        <ele>370.2</ele>
        <time>2014-05-18T07:16:37.000Z</time>
      </trkpt>
      <trkpt lat="47.51422" lon="6.77219">
        <ele>370.5</ele>
        <time>2014-05-18T07:16:38.000Z</time>
      </trkpt>
      <trkpt lat="47.51416" lon="6.77222">
        <ele>370.8</ele>
        <time>2014-05-18T07:16:39.000Z</time>
      </trkpt>
      <trkpt lat="47.51409" lon="6.77225">
        <ele>371.2</ele>
        <time>2014-05-18T07:16:40.000Z</time>
      </trkpt>
      <trkpt lat="47.51404" lon="6.77228">
        <ele>371.5</ele>
        <time>2014-05-18T07:16:41.000Z</time>
      </trkpt>
      <trkpt lat="47.51398" lon="6.77232">
        <ele>371.8</ele>
        <time>2014-05-18T07:16:42.000Z</time>
      </trkpt>
      <trkpt lat="47.51393" lon="6.77235">
        <ele>372.1</ele>
        <time>2014-05-18T07:16:43.000Z</time>
      </trkpt>
      <trkpt lat="47.51388" lon="6.77238">
        <ele>372.1</ele>
        <time>2014-05-18T07:16:44.000Z</time>
      </trkpt>
      <trkpt lat="47.51384" lon="6.77242">
        <ele>372.6</ele>
        <time>2014-05-18T07:16:45.000Z</time>
      </trkpt>
      <trkpt lat="47.51379" lon="6.77246">
        <ele>373.1</ele>
        <time>2014-05-18T07:16:46.000Z</time>
      </trkpt>
      <trkpt lat="47.51375" lon="6.7725">
        <ele>373.9</ele>
        <time>2014-05-18T07:16:47.000Z</time>
      </trkpt>
      <trkpt lat="47.51346" lon="6.77276">
        <ele>376</ele>
        <time>2014-05-18T07:16:55.000Z</time>
      </trkpt>
      <trkpt lat="47.51344" lon="6.77278">
        <ele>376.5</ele>
        <time>2014-05-18T07:16:56.000Z</time>
      </trkpt>
      <trkpt lat="47.51341" lon="6.7728">
        <ele>376.4</ele>
        <time>2014-05-18T07:16:57.000Z</time>
      </trkpt>
      <trkpt lat="47.51337" lon="6.77281">
        <ele>377.7</ele>
        <time>2014-05-18T07:16:58.000Z</time>
      </trkpt>
      <trkpt lat="47.51334" lon="6.77283">
        <ele>377</ele>
        <time>2014-05-18T07:16:59.000Z</time>
      </trkpt>
      <trkpt lat="47.51329" lon="6.77283">
        <ele>377.9</ele>
        <time>2014-05-18T07:17:00.000Z</time>
      </trkpt>
      <trkpt lat="47.51325" lon="6.77282">
        <ele>378.6</ele>
        <time>2014-05-18T07:17:01.000Z</time>
      </trkpt>
      <trkpt lat="47.51321" lon="6.77282">
        <ele>379</ele>
        <time>2014-05-18T07:17:02.000Z</time>
      </trkpt>
      <trkpt lat="47.51318" lon="6.77282">
        <ele>379.6</ele>
        <time>2014-05-18T07:17:03.000Z</time>
      </trkpt>
      <trkpt lat="47.51314" lon="6.77281">
        <ele>379.5</ele>
        <time>2014-05-18T07:17:04.000Z</time>
      </trkpt>
      <trkpt lat="47.51311" lon="6.7728">
        <ele>379.2</ele>
        <time>2014-05-18T07:17:05.000Z</time>
      </trkpt>
      <trkpt lat="47.51308" lon="6.77278">
        <ele>378.9</ele>
        <time>2014-05-18T07:17:06.000Z</time>
      </trkpt>
      <trkpt lat="47.51305" lon="6.77277">
        <ele>378.9</ele>
        <time>2014-05-18T07:17:07.000Z</time>
      </trkpt>
      <trkpt lat="47.51301" lon="6.77275">
        <ele>378.4</ele>
        <time>2014-05-18T07:17:08.000Z</time>
      </trkpt>
      <trkpt lat="47.51297" lon="6.77273">
        <ele>378.2</ele>
        <time>2014-05-18T07:17:09.000Z</time>
      </trkpt>
      <trkpt lat="47.51293" lon="6.77272">
        <ele>377.6</ele>
        <time>2014-05-18T07:17:10.000Z</time>
      </trkpt>
      <trkpt lat="47.5129" lon="6.7727">
        <ele>378.2</ele>
        <time>2014-05-18T07:17:11.000Z</time>
      </trkpt>
      <trkpt lat="47.51286" lon="6.77268">
        <ele>378.1</ele>
        <time>2014-05-18T07:17:12.000Z</time>
      </trkpt>
      <trkpt lat="47.51283" lon="6.77265">
        <ele>377.8</ele>
        <time>2014-05-18T07:17:13.000Z</time>
      </trkpt>
      <trkpt lat="47.51279" lon="6.77263">
        <ele>377.4</ele>
        <time>2014-05-18T07:17:14.000Z</time>
      </trkpt>
      <trkpt lat="47.51276" lon="6.7726">
        <ele>378.5</ele>
        <time>2014-05-18T07:17:15.000Z</time>
      </trkpt>
      <trkpt lat="47.51272" lon="6.77256">
        <ele>379.7</ele>
        <time>2014-05-18T07:17:16.000Z</time>
      </trkpt>
      <trkpt lat="47.51268" lon="6.77253">
        <ele>380</ele>
        <time>2014-05-18T07:17:17.000Z</time>
      </trkpt>
      <trkpt lat="47.51265" lon="6.77249">
        <ele>379.8</ele>
        <time>2014-05-18T07:17:18.000Z</time>
      </trkpt>
      <trkpt lat="47.51262" lon="6.77244">
        <ele>380.2</ele>
        <time>2014-05-18T07:17:19.000Z</time>
      </trkpt>
      <trkpt lat="47.51259" lon="6.77239">
        <ele>380</ele>
        <time>2014-05-18T07:17:20.000Z</time>
      </trkpt>
      <trkpt lat="47.51256" lon="6.77234">
        <ele>380.1</ele>
        <time>2014-05-18T07:17:21.000Z</time>
      </trkpt>
      <trkpt lat="47.51252" lon="6.77227">
        <ele>380.3</ele>
        <time>2014-05-18T07:17:22.000Z</time>
      </trkpt>
      <trkpt lat="47.51249" lon="6.77221">
        <ele>380.4</ele>
        <time>2014-05-18T07:17:23.000Z</time>
      </trkpt>
      <trkpt lat="47.51246" lon="6.77214">
        <ele>380.2</ele>
        <time>2014-05-18T07:17:24.000Z</time>
      </trkpt>
      <trkpt lat="47.51243" lon="6.77209">
        <ele>379.2</ele>
        <time>2014-05-18T07:17:25.000Z</time>
      </trkpt>
      <trkpt lat="47.5124" lon="6.77202">
        <ele>378.3</ele>
        <time>2014-05-18T07:17:26.000Z</time>
      </trkpt>
      <trkpt lat="47.51237" lon="6.77197">
        <ele>378.1</ele>
        <time>2014-05-18T07:17:27.000Z</time>
      </trkpt>
      <trkpt lat="47.51233" lon="6.7719">
        <ele>378.2</ele>
        <time>2014-05-18T07:17:28.000Z</time>
      </trkpt>
      <trkpt lat="47.5123" lon="6.77183">
        <ele>378.5</ele>
        <time>2014-05-18T07:17:29.000Z</time>
      </trkpt>
      <trkpt lat="47.51226" lon="6.77176">
        <ele>379.1</ele>
        <time>2014-05-18T07:17:30.000Z</time>
      </trkpt>
      <trkpt lat="47.51223" lon="6.7717">
        <ele>378.9</ele>
        <time>2014-05-18T07:17:31.000Z</time>
      </trkpt>
      <trkpt lat="47.5122" lon="6.77164">
        <ele>378.9</ele>
        <time>2014-05-18T07:17:32.000Z</time>
      </trkpt>
      <trkpt lat="47.51216" lon="6.77158">
        <ele>378.8</ele>
        <time>2014-05-18T07:17:33.000Z</time>
      </trkpt>
      <trkpt lat="47.51212" lon="6.77152">
        <ele>377.8</ele>
        <time>2014-05-18T07:17:34.000Z</time>
      </trkpt>
      <trkpt lat="47.51209" lon="6.77146">
        <ele>377.9</ele>
        <time>2014-05-18T07:17:35.000Z</time>
      </trkpt>
      <trkpt lat="47.51205" lon="6.77139">
        <ele>377.8</ele>
        <time>2014-05-18T07:17:36.000Z</time>
      </trkpt>
      <trkpt lat="47.51201" lon="6.77131">
        <ele>377.4</ele>
        <time>2014-05-18T07:17:37.000Z</time>
      </trkpt>
      <trkpt lat="47.51197" lon="6.77124">
        <ele>377</ele>
        <time>2014-05-18T07:17:38.000Z</time>
      </trkpt>
      <trkpt lat="47.51193" lon="6.77117">
        <ele>376.3</ele>
        <time>2014-05-18T07:17:39.000Z</time>
      </trkpt>
      <trkpt lat="47.51189" lon="6.7711">
        <ele>375.8</ele>
        <time>2014-05-18T07:17:40.000Z</time>
      </trkpt>
      <trkpt lat="47.51185" lon="6.77103">
        <ele>375.1</ele>
        <time>2014-05-18T07:17:41.000Z</time>
      </trkpt>
      <trkpt lat="47.51181" lon="6.77096">
        <ele>374.3</ele>
        <time>2014-05-18T07:17:42.000Z</time>
      </trkpt>
      <trkpt lat="47.51177" lon="6.77089">
        <ele>372.9</ele>
        <time>2014-05-18T07:17:43.000Z</time>
      </trkpt>
      <trkpt lat="47.51173" lon="6.77081">
        <ele>372.3</ele>
        <time>2014-05-18T07:17:44.000Z</time>
      </trkpt>
      <trkpt lat="47.51168" lon="6.77075">
        <ele>371.9</ele>
        <time>2014-05-18T07:17:45.000Z</time>
      </trkpt>
      <trkpt lat="47.51163" lon="6.77068">
        <ele>372.2</ele>
        <time>2014-05-18T07:17:46.000Z</time>
      </trkpt>
      <trkpt lat="47.51157" lon="6.77062">
        <ele>371.9</ele>
        <time>2014-05-18T07:17:47.000Z</time>
      </trkpt>
      <trkpt lat="47.51117" lon="6.77029">
        <ele>371.2</ele>
        <time>2014-05-18T07:17:55.000Z</time>
      </trkpt>
      <trkpt lat="47.5111" lon="6.7702">
        <ele>372.6</ele>
        <time>2014-05-18T07:17:56.000Z</time>
      </trkpt>
      <trkpt lat="47.51104" lon="6.77014">
        <ele>372.6</ele>
        <time>2014-05-18T07:17:57.000Z</time>
      </trkpt>
      <trkpt lat="47.51098" lon="6.77007">
        <ele>372.8</ele>
        <time>2014-05-18T07:17:58.000Z</time>
      </trkpt>
      <trkpt lat="47.51091" lon="6.77002">
        <ele>372.8</ele>
        <time>2014-05-18T07:17:59.000Z</time>
      </trkpt>
      <trkpt lat="47.51086" lon="6.76997">
        <ele>372.9</ele>
        <time>2014-05-18T07:18:00.000Z</time>
      </trkpt>
      <trkpt lat="47.51079" lon="6.7699">
        <ele>373.2</ele>
        <time>2014-05-18T07:18:01.000Z</time>
      </trkpt>
      <trkpt lat="47.51072" lon="6.76985">
        <ele>374.4</ele>
        <time>2014-05-18T07:18:02.000Z</time>
      </trkpt>
      <trkpt lat="47.51067" lon="6.76979">
        <ele>374.7</ele>
        <time>2014-05-18T07:18:03.000Z</time>
      </trkpt>
      <trkpt lat="47.51061" lon="6.76976">
        <ele>373.8</ele>
        <time>2014-05-18T07:18:04.000Z</time>
      </trkpt>
      <trkpt lat="47.51056" lon="6.76972">
        <ele>373.5</ele>
        <time>2014-05-18T07:18:05.000Z</time>
      </trkpt>
      <trkpt lat="47.51053" lon="6.76969">
        <ele>374.3</ele>
        <time>2014-05-18T07:18:06.000Z</time>
      </trkpt>
      <trkpt lat="47.51046" lon="6.76964">
        <ele>373.8</ele>
        <time>2014-05-18T07:18:07.000Z</time>
      </trkpt>
      <trkpt lat="47.51041" lon="6.76958">
        <ele>374.4</ele>
        <time>2014-05-18T07:18:08.000Z</time>
      </trkpt>
      <trkpt lat="47.51036" lon="6.76954">
        <ele>374.9</ele>
        <time>2014-05-18T07:18:09.000Z</time>
      </trkpt>
      <trkpt lat="47.51032" lon="6.76952">
        <ele>372.5</ele>
        <time>2014-05-18T07:18:10.000Z</time>
      </trkpt>
      <trkpt lat="47.51028" lon="6.76948">
        <ele>373.3</ele>
        <time>2014-05-18T07:18:11.000Z</time>
      </trkpt>
      <trkpt lat="47.51023" lon="6.76945">
        <ele>372.2</ele>
        <time>2014-05-18T07:18:12.000Z</time>
      </trkpt>
      <trkpt lat="47.51018" lon="6.76941">
        <ele>372.6</ele>
        <time>2014-05-18T07:18:13.000Z</time>
      </trkpt>
      <trkpt lat="47.51014" lon="6.76937">
        <ele>372.9</ele>
        <time>2014-05-18T07:18:14.000Z</time>
      </trkpt>
      <trkpt lat="47.5101" lon="6.76933">
        <ele>374</ele>
        <time>2014-05-18T07:18:15.000Z</time>
      </trkpt>
      <trkpt lat="47.51005" lon="6.76929">
        <ele>375.4</ele>
        <time>2014-05-18T07:18:16.000Z</time>
      </trkpt>
      <trkpt lat="47.51003" lon="6.76922">
        <ele>375.4</ele>
        <time>2014-05-18T07:18:17.000Z</time>
      </trkpt>
      <trkpt lat="47.50998" lon="6.76916">
        <ele>374.6</ele>
        <time>2014-05-18T07:18:18.000Z</time>
      </trkpt>
      <trkpt lat="47.50995" lon="6.76909">
        <ele>374.4</ele>
        <time>2014-05-18T07:18:19.000Z</time>
      </trkpt>
      <trkpt lat="47.50989" lon="6.76903">
        <ele>375.5</ele>
        <time>2014-05-18T07:18:20.000Z</time>
      </trkpt>
      <trkpt lat="47.50983" lon="6.76901">
        <ele>376.2</ele>
        <time>2014-05-18T07:18:21.000Z</time>
      </trkpt>
      <trkpt lat="47.50977" lon="6.76901">
        <ele>376.2</ele>
        <time>2014-05-18T07:18:22.000Z</time>
      </trkpt>
      <trkpt lat="47.5097" lon="6.76905">
        <ele>373.2</ele>
        <time>2014-05-18T07:18:23.000Z</time>
      </trkpt>
      <trkpt lat="47.50965" lon="6.76899">
        <ele>373</ele>
        <time>2014-05-18T07:18:24.000Z</time>
      </trkpt>
      <trkpt lat="47.50961" lon="6.76896">
        <ele>373.9</ele>
        <time>2014-05-18T07:18:25.000Z</time>
      </trkpt>
      <trkpt lat="47.50957" lon="6.76893">
        <ele>374.3</ele>
        <time>2014-05-18T07:18:26.000Z</time>
      </trkpt>
      <trkpt lat="47.50954" lon="6.76889">
        <ele>373.7</ele>
        <time>2014-05-18T07:18:27.000Z</time>
      </trkpt>
      <trkpt lat="47.5095" lon="6.76886">
        <ele>375.5</ele>
        <time>2014-05-18T07:18:28.000Z</time>
      </trkpt>
      <trkpt lat="47.50946" lon="6.76881">
        <ele>375.7</ele>
        <time>2014-05-18T07:18:29.000Z</time>
      </trkpt>
      <trkpt lat="47.50942" lon="6.76877">
        <ele>376.2</ele>
        <time>2014-05-18T07:18:30.000Z</time>
      </trkpt>
      <trkpt lat="47.50939" lon="6.76873">
        <ele>376.4</ele>
        <time>2014-05-18T07:18:31.000Z</time>
      </trkpt>
      <trkpt lat="47.50935" lon="6.76867">
        <ele>377.1</ele>
        <time>2014-05-18T07:18:32.000Z</time>
      </trkpt>
      <trkpt lat="47.50932" lon="6.76862">
        <ele>378.7</ele>
        <time>2014-05-18T07:18:33.000Z</time>
      </trkpt>
      <trkpt lat="47.50928" lon="6.76856">
        <ele>378.7</ele>
        <time>2014-05-18T07:18:34.000Z</time>
      </trkpt>
      <trkpt lat="47.50926" lon="6.76851">
        <ele>380.1</ele>
        <time>2014-05-18T07:18:35.000Z</time>
      </trkpt>
      <trkpt lat="47.50922" lon="6.76845">
        <ele>380.3</ele>
        <time>2014-05-18T07:18:36.000Z</time>
      </trkpt>
      <trkpt lat="47.5092" lon="6.76839">
        <ele>379.2</ele>
        <time>2014-05-18T07:18:37.000Z</time>
      </trkpt>
      <trkpt lat="47.50918" lon="6.76833">
        <ele>379</ele>
        <time>2014-05-18T07:18:38.000Z</time>
      </trkpt>
      <trkpt lat="47.50916" lon="6.76826">
        <ele>378.8</ele>
        <time>2014-05-18T07:18:39.000Z</time>
      </trkpt>
      <trkpt lat="47.50914" lon="6.76821">
        <ele>378.6</ele>
        <time>2014-05-18T07:18:40.000Z</time>
      </trkpt>
      <trkpt lat="47.50912" lon="6.76816">
        <ele>379.6</ele>
        <time>2014-05-18T07:18:41.000Z</time>
      </trkpt>
      <trkpt lat="47.50909" lon="6.7681">
        <ele>380.2</ele>
        <time>2014-05-18T07:18:42.000Z</time>
      </trkpt>
      <trkpt lat="47.50906" lon="6.76803">
        <ele>381.3</ele>
        <time>2014-05-18T07:18:43.000Z</time>
      </trkpt>
      <trkpt lat="47.50903" lon="6.76797">
        <ele>382.5</ele>
        <time>2014-05-18T07:18:44.000Z</time>
      </trkpt>
      <trkpt lat="47.509" lon="6.7679">
        <ele>382</ele>
        <time>2014-05-18T07:18:45.000Z</time>
      </trkpt>
      <trkpt lat="47.509" lon="6.76786">
        <ele>381</ele>
        <time>2014-05-18T07:18:46.000Z</time>
      </trkpt>
      <trkpt lat="47.50898" lon="6.76781">
        <ele>380.7</ele>
        <time>2014-05-18T07:18:47.000Z</time>
      </trkpt>
      <trkpt lat="47.50887" lon="6.76745">
        <ele>378.4</ele>
        <time>2014-05-18T07:18:55.000Z</time>
      </trkpt>
      <trkpt lat="47.50885" lon="6.76739">
        <ele>378.4</ele>
        <time>2014-05-18T07:18:56.000Z</time>
      </trkpt>
      <trkpt lat="47.50883" lon="6.76733">
        <ele>379.2</ele>
        <time>2014-05-18T07:18:57.000Z</time>
      </trkpt>
      <trkpt lat="47.50881" lon="6.76727">
        <ele>379.7</ele>
        <time>2014-05-18T07:18:58.000Z</time>
      </trkpt>
      <trkpt lat="47.5088" lon="6.76722">
        <ele>378.3</ele>
        <time>2014-05-18T07:18:59.000Z</time>
      </trkpt>
      <trkpt lat="47.50878" lon="6.76717">
        <ele>379.6</ele>
        <time>2014-05-18T07:19:00.000Z</time>
      </trkpt>
      <trkpt lat="47.50875" lon="6.76709">
        <ele>380.3</ele>
        <time>2014-05-18T07:19:01.000Z</time>
      </trkpt>
      <trkpt lat="47.50874" lon="6.76704">
        <ele>380.7</ele>
        <time>2014-05-18T07:19:02.000Z</time>
      </trkpt>
      <trkpt lat="47.50871" lon="6.76697">
        <ele>381.7</ele>
        <time>2014-05-18T07:19:03.000Z</time>
      </trkpt>
      <trkpt lat="47.50868" lon="6.76691">
        <ele>382.1</ele>
        <time>2014-05-18T07:19:04.000Z</time>
      </trkpt>
      <trkpt lat="47.50866" lon="6.76685">
        <ele>382.3</ele>
        <time>2014-05-18T07:19:05.000Z</time>
      </trkpt>
      <trkpt lat="47.50863" lon="6.7668">
        <ele>382.1</ele>
        <time>2014-05-18T07:19:06.000Z</time>
      </trkpt>
      <trkpt lat="47.5086" lon="6.76673">
        <ele>383.7</ele>
        <time>2014-05-18T07:19:07.000Z</time>
      </trkpt>
      <trkpt lat="47.50858" lon="6.76668">
        <ele>384.2</ele>
        <time>2014-05-18T07:19:08.000Z</time>
      </trkpt>
      <trkpt lat="47.50855" lon="6.76663">
        <ele>385.1</ele>
        <time>2014-05-18T07:19:09.000Z</time>
      </trkpt>
      <trkpt lat="47.50853" lon="6.76658">
        <ele>386</ele>
        <time>2014-05-18T07:19:10.000Z</time>
      </trkpt>
      <trkpt lat="47.50851" lon="6.76654">
        <ele>385.5</ele>
        <time>2014-05-18T07:19:11.000Z</time>
      </trkpt>
      <trkpt lat="47.50849" lon="6.76648">
        <ele>385.4</ele>
        <time>2014-05-18T07:19:12.000Z</time>
      </trkpt>
      <trkpt lat="47.50847" lon="6.76643">
        <ele>385.8</ele>
        <time>2014-05-18T07:19:13.000Z</time>
      </trkpt>
      <trkpt lat="47.50844" lon="6.76639">
        <ele>385.9</ele>
        <time>2014-05-18T07:19:14.000Z</time>
      </trkpt>
      <trkpt lat="47.50842" lon="6.76634">
        <ele>386.9</ele>
        <time>2014-05-18T07:19:15.000Z</time>
      </trkpt>
      <trkpt lat="47.50839" lon="6.7663">
        <ele>387</ele>
        <time>2014-05-18T07:19:16.000Z</time>
      </trkpt>
      <trkpt lat="47.50837" lon="6.76627">
        <ele>388.3</ele>
        <time>2014-05-18T07:19:17.000Z</time>
      </trkpt>
      <trkpt lat="47.50835" lon="6.76623">
        <ele>388.2</ele>
        <time>2014-05-18T07:19:18.000Z</time>
      </trkpt>
      <trkpt lat="47.50834" lon="6.76619">
        <ele>389.5</ele>
        <time>2014-05-18T07:19:19.000Z</time>
      </trkpt>
      <trkpt lat="47.50832" lon="6.76614">
        <ele>389.4</ele>
        <time>2014-05-18T07:19:20.000Z</time>
      </trkpt>
      <trkpt lat="47.50831" lon="6.76609">
        <ele>389.8</ele>
        <time>2014-05-18T07:19:21.000Z</time>
      </trkpt>
      <trkpt lat="47.5083" lon="6.76604">
        <ele>391.6</ele>
        <time>2014-05-18T07:19:22.000Z</time>
      </trkpt>
      <trkpt lat="47.50829" lon="6.766">
        <ele>392.1</ele>
        <time>2014-05-18T07:19:23.000Z</time>
      </trkpt>
      <trkpt lat="47.50827" lon="6.76597">
        <ele>392.7</ele>
        <time>2014-05-18T07:19:24.000Z</time>
      </trkpt>
      <trkpt lat="47.50824" lon="6.76595">
        <ele>394.1</ele>
        <time>2014-05-18T07:19:26.000Z</time>
      </trkpt>
      <trkpt lat="47.50822" lon="6.76596">
        <ele>394.8</ele>
        <time>2014-05-18T07:19:27.000Z</time>
      </trkpt>
      <trkpt lat="47.50818" lon="6.76596">
        <ele>391.4</ele>
        <time>2014-05-18T07:19:30.000Z</time>
      </trkpt>
      <trkpt lat="47.50816" lon="6.76594">
        <ele>391.6</ele>
        <time>2014-05-18T07:19:31.000Z</time>
      </trkpt>
      <trkpt lat="47.50815" lon="6.76591">
        <ele>394.4</ele>
        <time>2014-05-18T07:19:32.000Z</time>
      </trkpt>
      <trkpt lat="47.50813" lon="6.76588">
        <ele>395.1</ele>
        <time>2014-05-18T07:19:33.000Z</time>
      </trkpt>
      <trkpt lat="47.5081" lon="6.76585">
        <ele>390.6</ele>
        <time>2014-05-18T07:19:35.000Z</time>
      </trkpt>
      <trkpt lat="47.50808" lon="6.76585">
        <ele>389.5</ele>
        <time>2014-05-18T07:19:36.000Z</time>
      </trkpt>
      <trkpt lat="47.50805" lon="6.76584">
        <ele>390.1</ele>
        <time>2014-05-18T07:19:38.000Z</time>
      </trkpt>
      <trkpt lat="47.50803" lon="6.76583">
        <ele>390</ele>
        <time>2014-05-18T07:19:39.000Z</time>
      </trkpt>
      <trkpt lat="47.50799" lon="6.76584">
        <ele>389.6</ele>
        <time>2014-05-18T07:19:41.000Z</time>
      </trkpt>
      <trkpt lat="47.50796" lon="6.76585">
        <ele>389.4</ele>
        <time>2014-05-18T07:19:42.000Z</time>
      </trkpt>
      <trkpt lat="47.50793" lon="6.76586">
        <ele>389.1</ele>
        <time>2014-05-18T07:19:43.000Z</time>
      </trkpt>
      <trkpt lat="47.50789" lon="6.76587">
        <ele>389.5</ele>
        <time>2014-05-18T07:19:44.000Z</time>
      </trkpt>
      <trkpt lat="47.50785" lon="6.76589">
        <ele>389.8</ele>
        <time>2014-05-18T07:19:45.000Z</time>
      </trkpt>
      <trkpt lat="47.50781" lon="6.7659">
        <ele>390.4</ele>
        <time>2014-05-18T07:19:46.000Z</time>
      </trkpt>
      <trkpt lat="47.50778" lon="6.76592">
        <ele>390.5</ele>
        <time>2014-05-18T07:19:47.000Z</time>
      </trkpt>
      <trkpt lat="47.50768" lon="6.76596">
        <ele>390</ele>
        <time>2014-05-18T07:19:50.000Z</time>
      </trkpt>
      <trkpt lat="47.50765" lon="6.76598">
        <ele>390.4</ele>
        <time>2014-05-18T07:19:51.000Z</time>
      </trkpt>
      <trkpt lat="47.50761" lon="6.766">
        <ele>389.8</ele>
        <time>2014-05-18T07:19:52.000Z</time>
      </trkpt>
      <trkpt lat="47.50758" lon="6.766">
        <ele>389.2</ele>
        <time>2014-05-18T07:19:53.000Z</time>
      </trkpt>
      <trkpt lat="47.50755" lon="6.76601">
        <ele>390.2</ele>
        <time>2014-05-18T07:19:54.000Z</time>
      </trkpt>
      <trkpt lat="47.50751" lon="6.76602">
        <ele>390.3</ele>
        <time>2014-05-18T07:19:55.000Z</time>
      </trkpt>
      <trkpt lat="47.50747" lon="6.76602">
        <ele>390.8</ele>
        <time>2014-05-18T07:19:56.000Z</time>
      </trkpt>
      <trkpt lat="47.50744" lon="6.76601">
        <ele>391.2</ele>
        <time>2014-05-18T07:19:57.000Z</time>
      </trkpt>
      <trkpt lat="47.5074" lon="6.766">
        <ele>392.2</ele>
        <time>2014-05-18T07:19:58.000Z</time>
      </trkpt>
      <trkpt lat="47.50736" lon="6.76599">
        <ele>391.9</ele>
        <time>2014-05-18T07:19:59.000Z</time>
      </trkpt>
      <trkpt lat="47.50733" lon="6.76599">
        <ele>391.6</ele>
        <time>2014-05-18T07:20:00.000Z</time>
      </trkpt>
      <trkpt lat="47.50729" lon="6.76598">
        <ele>391.9</ele>
        <time>2014-05-18T07:20:01.000Z</time>
      </trkpt>
      <trkpt lat="47.50726" lon="6.76597">
        <ele>391.4</ele>
        <time>2014-05-18T07:20:02.000Z</time>
      </trkpt>
      <trkpt lat="47.50722" lon="6.76596">
        <ele>391.5</ele>
        <time>2014-05-18T07:20:03.000Z</time>
      </trkpt>
      <trkpt lat="47.50719" lon="6.76595">
        <ele>392.7</ele>
        <time>2014-05-18T07:20:04.000Z</time>
      </trkpt>
      <trkpt lat="47.50715" lon="6.76594">
        <ele>393.5</ele>
        <time>2014-05-18T07:20:05.000Z</time>
      </trkpt>
      <trkpt lat="47.50711" lon="6.76593">
        <ele>393.5</ele>
        <time>2014-05-18T07:20:06.000Z</time>
      </trkpt>
      <trkpt lat="47.50708" lon="6.76592">
        <ele>391.9</ele>
        <time>2014-05-18T07:20:07.000Z</time>
      </trkpt>
      <trkpt lat="47.50704" lon="6.76592">
        <ele>391.3</ele>
        <time>2014-05-18T07:20:08.000Z</time>
      </trkpt>
      <trkpt lat="47.50701" lon="6.76592">
        <ele>391.2</ele>
        <time>2014-05-18T07:20:09.000Z</time>
      </trkpt>
      <trkpt lat="47.50698" lon="6.76592">
        <ele>390.9</ele>
        <time>2014-05-18T07:20:10.000Z</time>
      </trkpt>
      <trkpt lat="47.50695" lon="6.76592">
        <ele>390.9</ele>
        <time>2014-05-18T07:20:11.000Z</time>
      </trkpt>
      <trkpt lat="47.50692" lon="6.76592">
        <ele>391</ele>
        <time>2014-05-18T07:20:12.000Z</time>
      </trkpt>
      <trkpt lat="47.50688" lon="6.76593">
        <ele>391</ele>
        <time>2014-05-18T07:20:13.000Z</time>
      </trkpt>
      <trkpt lat="47.50685" lon="6.76593">
        <ele>391.1</ele>
        <time>2014-05-18T07:20:14.000Z</time>
      </trkpt>
      <trkpt lat="47.50682" lon="6.76594">
        <ele>391.6</ele>
        <time>2014-05-18T07:20:15.000Z</time>
      </trkpt>
      <trkpt lat="47.50678" lon="6.76595">
        <ele>392.5</ele>
        <time>2014-05-18T07:20:16.000Z</time>
      </trkpt>
      <trkpt lat="47.50675" lon="6.76596">
        <ele>392.6</ele>
        <time>2014-05-18T07:20:17.000Z</time>
      </trkpt>
      <trkpt lat="47.50672" lon="6.76597">
        <ele>392</ele>
        <time>2014-05-18T07:20:18.000Z</time>
      </trkpt>
      <trkpt lat="47.50669" lon="6.76598">
        <ele>392.2</ele>
        <time>2014-05-18T07:20:19.000Z</time>
      </trkpt>
      <trkpt lat="47.50666" lon="6.76599">
        <ele>392.8</ele>
        <time>2014-05-18T07:20:20.000Z</time>
      </trkpt>
      <trkpt lat="47.50664" lon="6.766">
        <ele>392.3</ele>
        <time>2014-05-18T07:20:21.000Z</time>
      </trkpt>
      <trkpt lat="47.50661" lon="6.766">
        <ele>392.2</ele>
        <time>2014-05-18T07:20:22.000Z</time>
      </trkpt>
      <trkpt lat="47.50657" lon="6.766">
        <ele>387.7</ele>
        <time>2014-05-18T07:20:24.000Z</time>
      </trkpt>
      <trkpt lat="47.50655" lon="6.766">
        <ele>388.6</ele>
        <time>2014-05-18T07:20:25.000Z</time>
      </trkpt>
      <trkpt lat="47.50652" lon="6.76601">
        <ele>387.5</ele>
        <time>2014-05-18T07:20:26.000Z</time>
      </trkpt>
      <trkpt lat="47.5065" lon="6.76602">
        <ele>387.5</ele>
        <time>2014-05-18T07:20:27.000Z</time>
      </trkpt>
      <trkpt lat="47.50647" lon="6.76604">
        <ele>388.7</ele>
        <time>2014-05-18T07:20:28.000Z</time>
      </trkpt>
      <trkpt lat="47.50644" lon="6.76606">
        <ele>388</ele>
        <time>2014-05-18T07:20:29.000Z</time>
      </trkpt>
      <trkpt lat="47.50641" lon="6.76609">
        <ele>387.6</ele>
        <time>2014-05-18T07:20:30.000Z</time>
      </trkpt>
      <trkpt lat="47.50638" lon="6.76611">
        <ele>387.1</ele>
        <time>2014-05-18T07:20:31.000Z</time>
      </trkpt>
      <trkpt lat="47.50635" lon="6.76614">
        <ele>387.3</ele>
        <time>2014-05-18T07:20:32.000Z</time>
      </trkpt>
      <trkpt lat="47.50632" lon="6.76616">
        <ele>388.3</ele>
        <time>2014-05-18T07:20:33.000Z</time>
      </trkpt>
      <trkpt lat="47.50628" lon="6.76618">
        <ele>387.3</ele>
        <time>2014-05-18T07:20:34.000Z</time>
      </trkpt>
      <trkpt lat="47.50624" lon="6.7662">
        <ele>388</ele>
        <time>2014-05-18T07:20:35.000Z</time>
      </trkpt>
      <trkpt lat="47.50621" lon="6.76622">
        <ele>388.7</ele>
        <time>2014-05-18T07:20:36.000Z</time>
      </trkpt>
      <trkpt lat="47.50617" lon="6.76624">
        <ele>388.5</ele>
        <time>2014-05-18T07:20:37.000Z</time>
      </trkpt>
      <trkpt lat="47.50614" lon="6.76626">
        <ele>388.5</ele>
        <time>2014-05-18T07:20:38.000Z</time>
      </trkpt>
      <trkpt lat="47.5061" lon="6.76627">
        <ele>389.2</ele>
        <time>2014-05-18T07:20:39.000Z</time>
      </trkpt>
      <trkpt lat="47.50607" lon="6.76628">
        <ele>389.7</ele>
        <time>2014-05-18T07:20:39.999Z</time>
      </trkpt>
      <trkpt lat="47.50603" lon="6.7663">
        <ele>390.9</ele>
        <time>2014-05-18T07:20:41.000Z</time>
      </trkpt>
      <trkpt lat="47.506" lon="6.76631">
        <ele>391.4</ele>
        <time>2014-05-18T07:20:42.000Z</time>
      </trkpt>
      <trkpt lat="47.50597" lon="6.76632">
        <ele>391.2</ele>
        <time>2014-05-18T07:20:43.000Z</time>
      </trkpt>
      <trkpt lat="47.50594" lon="6.76633">
        <ele>392.1</ele>
        <time>2014-05-18T07:20:44.000Z</time>
      </trkpt>
      <trkpt lat="47.50591" lon="6.76634">
        <ele>393.3</ele>
        <time>2014-05-18T07:20:45.000Z</time>
      </trkpt>
      <trkpt lat="47.50587" lon="6.76634">
        <ele>394.4</ele>
        <time>2014-05-18T07:20:46.000Z</time>
      </trkpt>
      <trkpt lat="47.50584" lon="6.76633">
        <ele>395.1</ele>
        <time>2014-05-18T07:20:47.000Z</time>
      </trkpt>
      <trkpt lat="47.5056" lon="6.76635">
        <ele>397.3</ele>
        <time>2014-05-18T07:20:55.000Z</time>
      </trkpt>
      <trkpt lat="47.50558" lon="6.76635">
        <ele>397.4</ele>
        <time>2014-05-18T07:20:56.000Z</time>
      </trkpt>
      <trkpt lat="47.50555" lon="6.76635">
        <ele>397.4</ele>
        <time>2014-05-18T07:20:57.000Z</time>
      </trkpt>
      <trkpt lat="47.50552" lon="6.76636">
        <ele>397.8</ele>
        <time>2014-05-18T07:20:58.000Z</time>
      </trkpt>
      <trkpt lat="47.50549" lon="6.76637">
        <ele>397.6</ele>
        <time>2014-05-18T07:20:59.000Z</time>
      </trkpt>
      <trkpt lat="47.50545" lon="6.76638">
        <ele>398.3</ele>
        <time>2014-05-18T07:21:00.000Z</time>
      </trkpt>
      <trkpt lat="47.50541" lon="6.76639">
        <ele>398.9</ele>
        <time>2014-05-18T07:21:01.000Z</time>
      </trkpt>
      <trkpt lat="47.50537" lon="6.76641">
        <ele>398.8</ele>
        <time>2014-05-18T07:21:02.000Z</time>
      </trkpt>
      <trkpt lat="47.50532" lon="6.76643">
        <ele>399.1</ele>
        <time>2014-05-18T07:21:03.000Z</time>
      </trkpt>
      <trkpt lat="47.50527" lon="6.76646">
        <ele>399.8</ele>
        <time>2014-05-18T07:21:04.000Z</time>
      </trkpt>
      <trkpt lat="47.50522" lon="6.76648">
        <ele>400.1</ele>
        <time>2014-05-18T07:21:05.000Z</time>
      </trkpt>
      <trkpt lat="47.50518" lon="6.76649">
        <ele>400.9</ele>
        <time>2014-05-18T07:21:06.000Z</time>
      </trkpt>
      <trkpt lat="47.50505" lon="6.76656">
        <ele>400.7</ele>
        <time>2014-05-18T07:21:07.000Z</time>
      </trkpt>
      <trkpt lat="47.50499" lon="6.76657">
        <ele>398.7</ele>
        <time>2014-05-18T07:21:08.000Z</time>
      </trkpt>
      <trkpt lat="47.50495" lon="6.76658">
        <ele>397.6</ele>
        <time>2014-05-18T07:21:09.000Z</time>
      </trkpt>
      <trkpt lat="47.50491" lon="6.7666">
        <ele>397.2</ele>
        <time>2014-05-18T07:21:10.000Z</time>
      </trkpt>
      <trkpt lat="47.50485" lon="6.76661">
        <ele>397.5</ele>
        <time>2014-05-18T07:21:11.000Z</time>
      </trkpt>
      <trkpt lat="47.50481" lon="6.76663">
        <ele>397.3</ele>
        <time>2014-05-18T07:21:12.000Z</time>
      </trkpt>
      <trkpt lat="47.50476" lon="6.76665">
        <ele>397.1</ele>
        <time>2014-05-18T07:21:13.000Z</time>
      </trkpt>
      <trkpt lat="47.5047" lon="6.76667">
        <ele>397.6</ele>
        <time>2014-05-18T07:21:14.000Z</time>
      </trkpt>
      <trkpt lat="47.50465" lon="6.76669">
        <ele>397.3</ele>
        <time>2014-05-18T07:21:15.000Z</time>
      </trkpt>
      <trkpt lat="47.5046" lon="6.76672">
        <ele>397.7</ele>
        <time>2014-05-18T07:21:16.000Z</time>
      </trkpt>
      <trkpt lat="47.50455" lon="6.76675">
        <ele>397.2</ele>
        <time>2014-05-18T07:21:17.000Z</time>
      </trkpt>
      <trkpt lat="47.5045" lon="6.76677">
        <ele>396.9</ele>
        <time>2014-05-18T07:21:18.000Z</time>
      </trkpt>
      <trkpt lat="47.50445" lon="6.76679">
        <ele>396.7</ele>
        <time>2014-05-18T07:21:19.000Z</time>
      </trkpt>
      <trkpt lat="47.5044" lon="6.76681">
        <ele>396.8</ele>
        <time>2014-05-18T07:21:20.000Z</time>
      </trkpt>
      <trkpt lat="47.50436" lon="6.76684">
        <ele>396.3</ele>
        <time>2014-05-18T07:21:21.000Z</time>
      </trkpt>
      <trkpt lat="47.50431" lon="6.76685">
        <ele>396.3</ele>
        <time>2014-05-18T07:21:22.000Z</time>
      </trkpt>
      <trkpt lat="47.50426" lon="6.76687">
        <ele>396</ele>
        <time>2014-05-18T07:21:23.000Z</time>
      </trkpt>
      <trkpt lat="47.50423" lon="6.76689">
        <ele>395.5</ele>
        <time>2014-05-18T07:21:24.000Z</time>
      </trkpt>
      <trkpt lat="47.50418" lon="6.76689">
        <ele>396</ele>
        <time>2014-05-18T07:21:25.000Z</time>
      </trkpt>
      <trkpt lat="47.50414" lon="6.76692">
        <ele>396.5</ele>
        <time>2014-05-18T07:21:26.000Z</time>
      </trkpt>
      <trkpt lat="47.5041" lon="6.76695">
        <ele>396</ele>
        <time>2014-05-18T07:21:27.000Z</time>
      </trkpt>
      <trkpt lat="47.50406" lon="6.76696">
        <ele>395.9</ele>
        <time>2014-05-18T07:21:28.000Z</time>
      </trkpt>
      <trkpt lat="47.50402" lon="6.76699">
        <ele>395.8</ele>
        <time>2014-05-18T07:21:29.000Z</time>
      </trkpt>
      <trkpt lat="47.50399" lon="6.76701">
        <ele>395.5</ele>
        <time>2014-05-18T07:21:30.000Z</time>
      </trkpt>
      <trkpt lat="47.50397" lon="6.76703">
        <ele>394.7</ele>
        <time>2014-05-18T07:21:31.000Z</time>
      </trkpt>
      <trkpt lat="47.50394" lon="6.76705">
        <ele>394.5</ele>
        <time>2014-05-18T07:21:32.000Z</time>
      </trkpt>
      <trkpt lat="47.50391" lon="6.76708">
        <ele>394.6</ele>
        <time>2014-05-18T07:21:33.000Z</time>
      </trkpt>
      <trkpt lat="47.50388" lon="6.7671">
        <ele>395.4</ele>
        <time>2014-05-18T07:21:34.000Z</time>
      </trkpt>
      <trkpt lat="47.50385" lon="6.76712">
        <ele>395</ele>
        <time>2014-05-18T07:21:35.000Z</time>
      </trkpt>
      <trkpt lat="47.50381" lon="6.76715">
        <ele>395.5</ele>
        <time>2014-05-18T07:21:36.000Z</time>
      </trkpt>
      <trkpt lat="47.50377" lon="6.76716">
        <ele>395.1</ele>
        <time>2014-05-18T07:21:37.000Z</time>
      </trkpt>
      <trkpt lat="47.50373" lon="6.76717">
        <ele>394.7</ele>
        <time>2014-05-18T07:21:38.000Z</time>
      </trkpt>
      <trkpt lat="47.50369" lon="6.76718">
        <ele>394.8</ele>
        <time>2014-05-18T07:21:39.000Z</time>
      </trkpt>
      <trkpt lat="47.50365" lon="6.76719">
        <ele>395.3</ele>
        <time>2014-05-18T07:21:40.000Z</time>
      </trkpt>
      <trkpt lat="47.50361" lon="6.76721">
        <ele>396</ele>
        <time>2014-05-18T07:21:41.000Z</time>
      </trkpt>
      <trkpt lat="47.50357" lon="6.76722">
        <ele>396.9</ele>
        <time>2014-05-18T07:21:42.000Z</time>
      </trkpt>
      <trkpt lat="47.50352" lon="6.76725">
        <ele>397</ele>
        <time>2014-05-18T07:21:43.000Z</time>
      </trkpt>
      <trkpt lat="47.50348" lon="6.76728">
        <ele>397.2</ele>
        <time>2014-05-18T07:21:44.000Z</time>
      </trkpt>
      <trkpt lat="47.50344" lon="6.76731">
        <ele>397.3</ele>
        <time>2014-05-18T07:21:45.000Z</time>
      </trkpt>
      <trkpt lat="47.5034" lon="6.76732">
        <ele>396.5</ele>
        <time>2014-05-18T07:21:46.000Z</time>
      </trkpt>
      <trkpt lat="47.50337" lon="6.76733">
        <ele>395.4</ele>
        <time>2014-05-18T07:21:47.000Z</time>
      </trkpt>
      <trkpt lat="47.50299" lon="6.7675">
        <ele>392.8</ele>
        <time>2014-05-18T07:21:55.000Z</time>
      </trkpt>
      <trkpt lat="47.50293" lon="6.76749">
        <ele>392.3</ele>
        <time>2014-05-18T07:21:56.000Z</time>
      </trkpt>
      <trkpt lat="47.50289" lon="6.76751">
        <ele>393.2</ele>
        <time>2014-05-18T07:21:57.000Z</time>
      </trkpt>
      <trkpt lat="47.50285" lon="6.7675">
        <ele>393</ele>
        <time>2014-05-18T07:21:58.000Z</time>
      </trkpt>
      <trkpt lat="47.50281" lon="6.7675">
        <ele>393.3</ele>
        <time>2014-05-18T07:21:59.000Z</time>
      </trkpt>
      <trkpt lat="47.50277" lon="6.76751">
        <ele>392.9</ele>
        <time>2014-05-18T07:22:00.000Z</time>
      </trkpt>
      <trkpt lat="47.50273" lon="6.76752">
        <ele>391.4</ele>
        <time>2014-05-18T07:22:01.000Z</time>
      </trkpt>
      <trkpt lat="47.50269" lon="6.76753">
        <ele>390.2</ele>
        <time>2014-05-18T07:22:02.000Z</time>
      </trkpt>
      <trkpt lat="47.50263" lon="6.76755">
        <ele>393.2</ele>
        <time>2014-05-18T07:22:03.000Z</time>
      </trkpt>
      <trkpt lat="47.50259" lon="6.76756">
        <ele>393.7</ele>
        <time>2014-05-18T07:22:04.000Z</time>
      </trkpt>
      <trkpt lat="47.50255" lon="6.76757">
        <ele>394.9</ele>
        <time>2014-05-18T07:22:05.000Z</time>
      </trkpt>
      <trkpt lat="47.50251" lon="6.76756">
        <ele>395.1</ele>
        <time>2014-05-18T07:22:06.000Z</time>
      </trkpt>
      <trkpt lat="47.50249" lon="6.76755">
        <ele>392.4</ele>
        <time>2014-05-18T07:22:07.000Z</time>
      </trkpt>
      <trkpt lat="47.50247" lon="6.76754">
        <ele>391.1</ele>
        <time>2014-05-18T07:22:08.000Z</time>
      </trkpt>
      <trkpt lat="47.50245" lon="6.76751">
        <ele>391.5</ele>
        <time>2014-05-18T07:22:09.000Z</time>
      </trkpt>
      <trkpt lat="47.50243" lon="6.76747">
        <ele>392</ele>
        <time>2014-05-18T07:22:10.000Z</time>
      </trkpt>
      <trkpt lat="47.50242" lon="6.76736">
        <ele>395.9</ele>
        <time>2014-05-18T07:22:11.000Z</time>
      </trkpt>
      <trkpt lat="47.50239" lon="6.76731">
        <ele>396.6</ele>
        <time>2014-05-18T07:22:12.000Z</time>
      </trkpt>
      <trkpt lat="47.50238" lon="6.76727">
        <ele>396.1</ele>
        <time>2014-05-18T07:22:13.000Z</time>
      </trkpt>
      <trkpt lat="47.50236" lon="6.76724">
        <ele>394.7</ele>
        <time>2014-05-18T07:22:14.000Z</time>
      </trkpt>
      <trkpt lat="47.50234" lon="6.7672">
        <ele>395.6</ele>
        <time>2014-05-18T07:22:15.000Z</time>
      </trkpt>
      <trkpt lat="47.50232" lon="6.76715">
        <ele>395.5</ele>
        <time>2014-05-18T07:22:16.000Z</time>
      </trkpt>
      <trkpt lat="47.5023" lon="6.76709">
        <ele>396.3</ele>
        <time>2014-05-18T07:22:17.000Z</time>
      </trkpt>
      <trkpt lat="47.50228" lon="6.76705">
        <ele>395.5</ele>
        <time>2014-05-18T07:22:18.000Z</time>
      </trkpt>
      <trkpt lat="47.50226" lon="6.76699">
        <ele>395.9</ele>
        <time>2014-05-18T07:22:19.000Z</time>
      </trkpt>
      <trkpt lat="47.50224" lon="6.76693">
        <ele>396</ele>
        <time>2014-05-18T07:22:20.000Z</time>
      </trkpt>
      <trkpt lat="47.50222" lon="6.76688">
        <ele>396.6</ele>
        <time>2014-05-18T07:22:21.000Z</time>
      </trkpt>
      <trkpt lat="47.50221" lon="6.76683">
        <ele>395.7</ele>
        <time>2014-05-18T07:22:22.000Z</time>
      </trkpt>
      <trkpt lat="47.5022" lon="6.76677">
        <ele>395.6</ele>
        <time>2014-05-18T07:22:23.000Z</time>
      </trkpt>
      <trkpt lat="47.50217" lon="6.76671">
        <ele>396.2</ele>
        <time>2014-05-18T07:22:24.000Z</time>
      </trkpt>
      <trkpt lat="47.50216" lon="6.76666">
        <ele>396.4</ele>
        <time>2014-05-18T07:22:25.000Z</time>
      </trkpt>
      <trkpt lat="47.50214" lon="6.76661">
        <ele>394.9</ele>
        <time>2014-05-18T07:22:26.000Z</time>
      </trkpt>
      <trkpt lat="47.50212" lon="6.76656">
        <ele>394.3</ele>
        <time>2014-05-18T07:22:27.000Z</time>
      </trkpt>
      <trkpt lat="47.5021" lon="6.7665">
        <ele>394.5</ele>
        <time>2014-05-18T07:22:28.000Z</time>
      </trkpt>
      <trkpt lat="47.50209" lon="6.76643">
        <ele>395.2</ele>
        <time>2014-05-18T07:22:29.000Z</time>
      </trkpt>
      <trkpt lat="47.50207" lon="6.76636">
        <ele>395.6</ele>
        <time>2014-05-18T07:22:30.000Z</time>
      </trkpt>
      <trkpt lat="47.50206" lon="6.76628">
        <ele>395.8</ele>
        <time>2014-05-18T07:22:31.000Z</time>
      </trkpt>
      <trkpt lat="47.50205" lon="6.7662">
        <ele>395.6</ele>
        <time>2014-05-18T07:22:32.000Z</time>
      </trkpt>
      <trkpt lat="47.50203" lon="6.76612">
        <ele>396.3</ele>
        <time>2014-05-18T07:22:33.000Z</time>
      </trkpt>
      <trkpt lat="47.50201" lon="6.76606">
        <ele>397.3</ele>
        <time>2014-05-18T07:22:34.000Z</time>
      </trkpt>
      <trkpt lat="47.50201" lon="6.76601">
        <ele>398.2</ele>
        <time>2014-05-18T07:22:37.000Z</time>
      </trkpt>
      <trkpt lat="47.50201" lon="6.76599">
        <ele>398</ele>
        <time>2014-05-18T07:22:38.000Z</time>
      </trkpt>
      <trkpt lat="47.50198" lon="6.76594">
        <ele>398.6</ele>
        <time>2014-05-18T07:22:40.000Z</time>
      </trkpt>
      <trkpt lat="47.50198" lon="6.7659">
        <ele>398</ele>
        <time>2014-05-18T07:22:41.000Z</time>
      </trkpt>
      <trkpt lat="47.50197" lon="6.76582">
        <ele>397.2</ele>
        <time>2014-05-18T07:22:42.000Z</time>
      </trkpt>
      <trkpt lat="47.50197" lon="6.76578">
        <ele>397.7</ele>
        <time>2014-05-18T07:22:43.000Z</time>
      </trkpt>
      <trkpt lat="47.50198" lon="6.76574">
        <ele>398.9</ele>
        <time>2014-05-18T07:22:44.000Z</time>
      </trkpt>
      <trkpt lat="47.50199" lon="6.7657">
        <ele>400.1</ele>
        <time>2014-05-18T07:22:45.000Z</time>
      </trkpt>
      <trkpt lat="47.50201" lon="6.76567">
        <ele>399.5</ele>
        <time>2014-05-18T07:22:46.000Z</time>
      </trkpt>
      <trkpt lat="47.50205" lon="6.76564">
        <ele>399.1</ele>
        <time>2014-05-18T07:22:47.000Z</time>
      </trkpt>
      <trkpt lat="47.50213" lon="6.7656">
        <ele>398</ele>
        <time>2014-05-18T07:22:50.000Z</time>
      </trkpt>
      <trkpt lat="47.50217" lon="6.76557">
        <ele>399.6</ele>
        <time>2014-05-18T07:22:51.000Z</time>
      </trkpt>
      <trkpt lat="47.50216" lon="6.76552">
        <ele>391.9</ele>
        <time>2014-05-18T07:22:52.000Z</time>
      </trkpt>
      <trkpt lat="47.50215" lon="6.76546">
        <ele>389</ele>
        <time>2014-05-18T07:22:53.000Z</time>
      </trkpt>
      <trkpt lat="47.50213" lon="6.76541">
        <ele>386.8</ele>
        <time>2014-05-18T07:22:54.000Z</time>
      </trkpt>
      <trkpt lat="47.50212" lon="6.76536">
        <ele>385</ele>
        <time>2014-05-18T07:22:55.000Z</time>
      </trkpt>
      <trkpt lat="47.50208" lon="6.76512">
        <ele>389.7</ele>
        <time>2014-05-18T07:22:56.000Z</time>
      </trkpt>
      <trkpt lat="47.50207" lon="6.76504">
        <ele>389.6</ele>
        <time>2014-05-18T07:22:57.000Z</time>
      </trkpt>
      <trkpt lat="47.50205" lon="6.76495">
        <ele>389.4</ele>
        <time>2014-05-18T07:22:58.000Z</time>
      </trkpt>
      <trkpt lat="47.50196" lon="6.7648">
        <ele>391.9</ele>
        <time>2014-05-18T07:22:59.000Z</time>
      </trkpt>
      <trkpt lat="47.50193" lon="6.76468">
        <ele>393.3</ele>
        <time>2014-05-18T07:23:00.000Z</time>
      </trkpt>
      <trkpt lat="47.50189" lon="6.76458">
        <ele>392.6</ele>
        <time>2014-05-18T07:23:01.000Z</time>
      </trkpt>
      <trkpt lat="47.50191" lon="6.76445">
        <ele>396.2</ele>
        <time>2014-05-18T07:23:02.000Z</time>
      </trkpt>
      <trkpt lat="47.50188" lon="6.7643">
        <ele>397.2</ele>
        <time>2014-05-18T07:23:03.000Z</time>
      </trkpt>
      <trkpt lat="47.50185" lon="6.76418">
        <ele>396.9</ele>
        <time>2014-05-18T07:23:04.000Z</time>
      </trkpt>
      <trkpt lat="47.50185" lon="6.76408">
        <ele>397.6</ele>
        <time>2014-05-18T07:23:05.000Z</time>
      </trkpt>
      <trkpt lat="47.50182" lon="6.76394">
        <ele>397.7</ele>
        <time>2014-05-18T07:23:06.000Z</time>
      </trkpt>
      <trkpt lat="47.5018" lon="6.76388">
        <ele>397.3</ele>
        <time>2014-05-18T07:23:07.000Z</time>
      </trkpt>
      <trkpt lat="47.50174" lon="6.76379">
        <ele>398</ele>
        <time>2014-05-18T07:23:08.000Z</time>
      </trkpt>
      <trkpt lat="47.50173" lon="6.76371">
        <ele>398.3</ele>
        <time>2014-05-18T07:23:09.000Z</time>
      </trkpt>
      <trkpt lat="47.50166" lon="6.76356">
        <ele>399.2</ele>
        <time>2014-05-18T07:23:10.000Z</time>
      </trkpt>
      <trkpt lat="47.50164" lon="6.76344">
        <ele>400</ele>
        <time>2014-05-18T07:23:11.000Z</time>
      </trkpt>
      <trkpt lat="47.50161" lon="6.76338">
        <ele>398.8</ele>
        <time>2014-05-18T07:23:12.000Z</time>
      </trkpt>
      <trkpt lat="47.50156" lon="6.76329">
        <ele>398.9</ele>
        <time>2014-05-18T07:23:13.001Z</time>
      </trkpt>
      <trkpt lat="47.50157" lon="6.76321">
        <ele>397.8</ele>
        <time>2014-05-18T07:23:14.001Z</time>
      </trkpt>
      <trkpt lat="47.50153" lon="6.76309">
        <ele>398.3</ele>
        <time>2014-05-18T07:23:15.000Z</time>
      </trkpt>
      <trkpt lat="47.50153" lon="6.763">
        <ele>400.1</ele>
        <time>2014-05-18T07:23:16.000Z</time>
      </trkpt>
      <trkpt lat="47.50148" lon="6.76287">
        <ele>400.5</ele>
        <time>2014-05-18T07:23:17.000Z</time>
      </trkpt>
      <trkpt lat="47.50144" lon="6.76275">
        <ele>400.3</ele>
        <time>2014-05-18T07:23:18.000Z</time>
      </trkpt>
      <trkpt lat="47.50141" lon="6.76266">
        <ele>400</ele>
        <time>2014-05-18T07:23:19.000Z</time>
      </trkpt>
      <trkpt lat="47.50139" lon="6.7626">
        <ele>400</ele>
        <time>2014-05-18T07:23:20.001Z</time>
      </trkpt>
      <trkpt lat="47.50141" lon="6.7624">
        <ele>400.5</ele>
        <time>2014-05-18T07:23:21.000Z</time>
      </trkpt>
      <trkpt lat="47.50139" lon="6.76228">
        <ele>400.2</ele>
        <time>2014-05-18T07:23:22.000Z</time>
      </trkpt>
      <trkpt lat="47.50136" lon="6.76218">
        <ele>400.1</ele>
        <time>2014-05-18T07:23:23.000Z</time>
      </trkpt>
      <trkpt lat="47.50134" lon="6.76208">
        <ele>400.3</ele>
        <time>2014-05-18T07:23:23.999Z</time>
      </trkpt>
      <trkpt lat="47.50133" lon="6.76197">
        <ele>402</ele>
        <time>2014-05-18T07:23:25.000Z</time>
      </trkpt>
      <trkpt lat="47.50137" lon="6.76193">
        <ele>401.3</ele>
        <time>2014-05-18T07:23:26.000Z</time>
      </trkpt>
      <trkpt lat="47.50129" lon="6.76175">
        <ele>404.7</ele>
        <time>2014-05-18T07:23:27.000Z</time>
      </trkpt>
      <trkpt lat="47.50127" lon="6.76161">
        <ele>405.4</ele>
        <time>2014-05-18T07:23:28.000Z</time>
      </trkpt>
      <trkpt lat="47.50123" lon="6.76151">
        <ele>406</ele>
        <time>2014-05-18T07:23:29.000Z</time>
      </trkpt>
      <trkpt lat="47.50119" lon="6.76139">
        <ele>405.5</ele>
        <time>2014-05-18T07:23:30.000Z</time>
      </trkpt>
      <trkpt lat="47.50115" lon="6.7613">
        <ele>405.8</ele>
        <time>2014-05-18T07:23:31.000Z</time>
      </trkpt>
      <trkpt lat="47.50116" lon="6.76118">
        <ele>404.4</ele>
        <time>2014-05-18T07:23:32.000Z</time>
      </trkpt>
      <trkpt lat="47.50111" lon="6.76108">
        <ele>402.5</ele>
        <time>2014-05-18T07:23:33.000Z</time>
      </trkpt>
      <trkpt lat="47.50109" lon="6.76099">
        <ele>402.1</ele>
        <time>2014-05-18T07:23:34.000Z</time>
      </trkpt>
      <trkpt lat="47.50107" lon="6.76084">
        <ele>402.2</ele>
        <time>2014-05-18T07:23:35.000Z</time>
      </trkpt>
      <trkpt lat="47.50106" lon="6.76068">
        <ele>401.3</ele>
        <time>2014-05-18T07:23:36.000Z</time>
      </trkpt>
      <trkpt lat="47.50106" lon="6.76057">
        <ele>399.4</ele>
        <time>2014-05-18T07:23:37.000Z</time>
      </trkpt>
      <trkpt lat="47.50104" lon="6.76041">
        <ele>399.2</ele>
        <time>2014-05-18T07:23:38.000Z</time>
      </trkpt>
      <trkpt lat="47.50103" lon="6.76028">
        <ele>398.5</ele>
        <time>2014-05-18T07:23:39.000Z</time>
      </trkpt>
      <trkpt lat="47.50102" lon="6.76016">
        <ele>397.5</ele>
        <time>2014-05-18T07:23:40.000Z</time>
      </trkpt>
      <trkpt lat="47.50099" lon="6.76005">
        <ele>394.7</ele>
        <time>2014-05-18T07:23:41.000Z</time>
      </trkpt>
      <trkpt lat="47.50097" lon="6.75994">
        <ele>393.1</ele>
        <time>2014-05-18T07:23:42.000Z</time>
      </trkpt>
      <trkpt lat="47.50093" lon="6.75984">
        <ele>392.7</ele>
        <time>2014-05-18T07:23:43.000Z</time>
      </trkpt>
      <trkpt lat="47.50087" lon="6.75974">
        <ele>392.5</ele>
        <time>2014-05-18T07:23:44.000Z</time>
      </trkpt>
      <trkpt lat="47.5008" lon="6.75966">
        <ele>388.8</ele>
        <time>2014-05-18T07:23:45.000Z</time>
      </trkpt>
      <trkpt lat="47.50075" lon="6.75955">
        <ele>388.4</ele>
        <time>2014-05-18T07:23:46.000Z</time>
      </trkpt>
      <trkpt lat="47.50071" lon="6.75944">
        <ele>390.6</ele>
        <time>2014-05-18T07:23:47.000Z</time>
      </trkpt>
      <trkpt lat="47.50038" lon="6.75887">
        <ele>389.5</ele>
        <time>2014-05-18T07:23:55.000Z</time>
      </trkpt>
      <trkpt lat="47.50028" lon="6.75881">
        <ele>389.5</ele>
        <time>2014-05-18T07:23:56.000Z</time>
      </trkpt>
      <trkpt lat="47.50022" lon="6.75865">
        <ele>390.3</ele>
        <time>2014-05-18T07:23:57.000Z</time>
      </trkpt>
      <trkpt lat="47.50016" lon="6.75851">
        <ele>390.8</ele>
        <time>2014-05-18T07:23:58.000Z</time>
      </trkpt>
      <trkpt lat="47.50009" lon="6.75846">
        <ele>390.6</ele>
        <time>2014-05-18T07:23:59.000Z</time>
      </trkpt>
      <trkpt lat="47.50004" lon="6.75832">
        <ele>389.6</ele>
        <time>2014-05-18T07:24:00.000Z</time>
      </trkpt>
      <trkpt lat="47.49999" lon="6.75826">
        <ele>389.5</ele>
        <time>2014-05-18T07:24:01.000Z</time>
      </trkpt>
      <trkpt lat="47.49994" lon="6.75817">
        <ele>389.4</ele>
        <time>2014-05-18T07:24:02.001Z</time>
      </trkpt>
      <trkpt lat="47.49988" lon="6.75806">
        <ele>387.1</ele>
        <time>2014-05-18T07:24:03.000Z</time>
      </trkpt>
      <trkpt lat="47.49983" lon="6.75797">
        <ele>385.7</ele>
        <time>2014-05-18T07:24:03.998Z</time>
      </trkpt>
      <trkpt lat="47.49978" lon="6.75782">
        <ele>384.1</ele>
        <time>2014-05-18T07:24:05.000Z</time>
      </trkpt>
      <trkpt lat="47.49971" lon="6.75771">
        <ele>382.9</ele>
        <time>2014-05-18T07:24:06.000Z</time>
      </trkpt>
      <trkpt lat="47.49962" lon="6.75764">
        <ele>381.3</ele>
        <time>2014-05-18T07:24:07.000Z</time>
      </trkpt>
      <trkpt lat="47.49955" lon="6.75756">
        <ele>381</ele>
        <time>2014-05-18T07:24:08.000Z</time>
      </trkpt>
      <trkpt lat="47.49955" lon="6.75751">
        <ele>379.7</ele>
        <time>2014-05-18T07:24:09.000Z</time>
      </trkpt>
      <trkpt lat="47.49954" lon="6.75746">
        <ele>379.1</ele>
        <time>2014-05-18T07:24:10.000Z</time>
      </trkpt>
      <trkpt lat="47.49952" lon="6.7574">
        <ele>379</ele>
        <time>2014-05-18T07:24:11.000Z</time>
      </trkpt>
      <trkpt lat="47.49949" lon="6.75736">
        <ele>378.5</ele>
        <time>2014-05-18T07:24:12.000Z</time>
      </trkpt>
      <trkpt lat="47.4994" lon="6.75732">
        <ele>373.6</ele>
        <time>2014-05-18T07:24:13.000Z</time>
      </trkpt>
      <trkpt lat="47.49931" lon="6.75723">
        <ele>374</ele>
        <time>2014-05-18T07:24:14.000Z</time>
      </trkpt>
      <trkpt lat="47.49927" lon="6.75721">
        <ele>375.5</ele>
        <time>2014-05-18T07:24:15.000Z</time>
      </trkpt>
      <trkpt lat="47.49922" lon="6.75718">
        <ele>377.7</ele>
        <time>2014-05-18T07:24:15.999Z</time>
      </trkpt>
      <trkpt lat="47.49913" lon="6.75718">
        <ele>375.2</ele>
        <time>2014-05-18T07:24:17.000Z</time>
      </trkpt>
      <trkpt lat="47.49907" lon="6.75718">
        <ele>375.2</ele>
        <time>2014-05-18T07:24:17.999Z</time>
      </trkpt>
      <trkpt lat="47.49905" lon="6.75715">
        <ele>375.3</ele>
        <time>2014-05-18T07:24:19.000Z</time>
      </trkpt>
      <trkpt lat="47.499" lon="6.75714">
        <ele>375.2</ele>
        <time>2014-05-18T07:24:19.999Z</time>
      </trkpt>
      <trkpt lat="47.49893" lon="6.75713">
        <ele>373.3</ele>
        <time>2014-05-18T07:24:21.001Z</time>
      </trkpt>
      <trkpt lat="47.49887" lon="6.75712">
        <ele>373.8</ele>
        <time>2014-05-18T07:24:22.000Z</time>
      </trkpt>
      <trkpt lat="47.49882" lon="6.75711">
        <ele>373.8</ele>
        <time>2014-05-18T07:24:23.000Z</time>
      </trkpt>
      <trkpt lat="47.49876" lon="6.75713">
        <ele>374.6</ele>
        <time>2014-05-18T07:24:24.000Z</time>
      </trkpt>
      <trkpt lat="47.4986" lon="6.75722">
        <ele>372.2</ele>
        <time>2014-05-18T07:24:25.000Z</time>
      </trkpt>
      <trkpt lat="47.49843" lon="6.75729">
        <ele>364</ele>
        <time>2014-05-18T07:24:26.000Z</time>
      </trkpt>
      <trkpt lat="47.49831" lon="6.75733">
        <ele>364.1</ele>
        <time>2014-05-18T07:24:27.000Z</time>
      </trkpt>
      <trkpt lat="47.49821" lon="6.75735">
        <ele>364.4</ele>
        <time>2014-05-18T07:24:28.000Z</time>
      </trkpt>
      <trkpt lat="47.49806" lon="6.75741">
        <ele>362.7</ele>
        <time>2014-05-18T07:24:29.000Z</time>
      </trkpt>
      <trkpt lat="47.49791" lon="6.75749">
        <ele>363.2</ele>
        <time>2014-05-18T07:24:30.000Z</time>
      </trkpt>
      <trkpt lat="47.49779" lon="6.75751">
        <ele>362.8</ele>
        <time>2014-05-18T07:24:31.000Z</time>
      </trkpt>
      <trkpt lat="47.4977" lon="6.75752">
        <ele>360.9</ele>
        <time>2014-05-18T07:24:32.000Z</time>
      </trkpt>
      <trkpt lat="47.49761" lon="6.75754">
        <ele>360.7</ele>
        <time>2014-05-18T07:24:33.000Z</time>
      </trkpt>
      <trkpt lat="47.49754" lon="6.75758">
        <ele>359.5</ele>
        <time>2014-05-18T07:24:34.000Z</time>
      </trkpt>
      <trkpt lat="47.49744" lon="6.75759">
        <ele>357.7</ele>
        <time>2014-05-18T07:24:35.000Z</time>
      </trkpt>
      <trkpt lat="47.49736" lon="6.75762">
        <ele>353.2</ele>
        <time>2014-05-18T07:24:36.000Z</time>
      </trkpt>
      <trkpt lat="47.4973" lon="6.75766">
        <ele>350.6</ele>
        <time>2014-05-18T07:24:37.000Z</time>
      </trkpt>
      <trkpt lat="47.49723" lon="6.75766">
        <ele>350.5</ele>
        <time>2014-05-18T07:24:38.000Z</time>
      </trkpt>
      <trkpt lat="47.49714" lon="6.7577">
        <ele>350.3</ele>
        <time>2014-05-18T07:24:39.000Z</time>
      </trkpt>
      <trkpt lat="47.49703" lon="6.75774">
        <ele>348.1</ele>
        <time>2014-05-18T07:24:40.000Z</time>
      </trkpt>
      <trkpt lat="47.49694" lon="6.75777">
        <ele>348</ele>
        <time>2014-05-18T07:24:41.000Z</time>
      </trkpt>
      <trkpt lat="47.49687" lon="6.75779">
        <ele>347.8</ele>
        <time>2014-05-18T07:24:42.000Z</time>
      </trkpt>
      <trkpt lat="47.49679" lon="6.7578">
        <ele>347.9</ele>
        <time>2014-05-18T07:24:43.000Z</time>
      </trkpt>
      <trkpt lat="47.4967" lon="6.75786">
        <ele>348.6</ele>
        <time>2014-05-18T07:24:44.000Z</time>
      </trkpt>
      <trkpt lat="47.49669" lon="6.7579">
        <ele>348.2</ele>
        <time>2014-05-18T07:24:45.000Z</time>
      </trkpt>
      <trkpt lat="47.49664" lon="6.75792">
        <ele>348.1</ele>
        <time>2014-05-18T07:24:46.000Z</time>
      </trkpt>
      <trkpt lat="47.4966" lon="6.75784">
        <ele>347.9</ele>
        <time>2014-05-18T07:24:47.000Z</time>
      </trkpt>
      <trkpt lat="47.49607" lon="6.75775">
        <ele>335.5</ele>
        <time>2014-05-18T07:24:55.000Z</time>
      </trkpt>
      <trkpt lat="47.49593" lon="6.75771">
        <ele>331.9</ele>
        <time>2014-05-18T07:24:56.000Z</time>
      </trkpt>
      <trkpt lat="47.4958" lon="6.75772">
        <ele>330.8</ele>
        <time>2014-05-18T07:24:57.000Z</time>
      </trkpt>
      <trkpt lat="47.49573" lon="6.7577">
        <ele>328.8</ele>
        <time>2014-05-18T07:24:58.000Z</time>
      </trkpt>
      <trkpt lat="47.49563" lon="6.75766">
        <ele>330.8</ele>
        <time>2014-05-18T07:24:59.000Z</time>
      </trkpt>
      <trkpt lat="47.49563" lon="6.75761">
        <ele>326.3</ele>
        <time>2014-05-18T07:25:03.000Z</time>
      </trkpt>
      <trkpt lat="47.49565" lon="6.75755">
        <ele>326.8</ele>
        <time>2014-05-18T07:25:04.000Z</time>
      </trkpt>
      <trkpt lat="47.4957" lon="6.75751">
        <ele>328.5</ele>
        <time>2014-05-18T07:25:05.000Z</time>
      </trkpt>
      <trkpt lat="47.49575" lon="6.75748">
        <ele>329.5</ele>
        <time>2014-05-18T07:25:06.000Z</time>
      </trkpt>
      <trkpt lat="47.49579" lon="6.75745">
        <ele>330</ele>
        <time>2014-05-18T07:25:07.000Z</time>
      </trkpt>
      <trkpt lat="47.49584" lon="6.7574">
        <ele>329.9</ele>
        <time>2014-05-18T07:25:08.000Z</time>
      </trkpt>
      <trkpt lat="47.49589" lon="6.75732">
        <ele>329.3</ele>
        <time>2014-05-18T07:25:09.000Z</time>
      </trkpt>
      <trkpt lat="47.49592" lon="6.75724">
        <ele>329.2</ele>
        <time>2014-05-18T07:25:10.000Z</time>
      </trkpt>
      <trkpt lat="47.49596" lon="6.75714">
        <ele>328.2</ele>
        <time>2014-05-18T07:25:11.000Z</time>
      </trkpt>
      <trkpt lat="47.49598" lon="6.75706">
        <ele>327.1</ele>
        <time>2014-05-18T07:25:12.000Z</time>
      </trkpt>
      <trkpt lat="47.49599" lon="6.75699">
        <ele>325</ele>
        <time>2014-05-18T07:25:13.000Z</time>
      </trkpt>
      <trkpt lat="47.49595" lon="6.75688">
        <ele>327</ele>
        <time>2014-05-18T07:25:14.000Z</time>
      </trkpt>
      <trkpt lat="47.4959" lon="6.75681">
        <ele>326.6</ele>
        <time>2014-05-18T07:25:15.000Z</time>
      </trkpt>
      <trkpt lat="47.49586" lon="6.75674">
        <ele>326.2</ele>
        <time>2014-05-18T07:25:16.000Z</time>
      </trkpt>
      <trkpt lat="47.49581" lon="6.75671">
        <ele>324.4</ele>
        <time>2014-05-18T07:25:17.000Z</time>
      </trkpt>
      <trkpt lat="47.49574" lon="6.7567">
        <ele>325.3</ele>
        <time>2014-05-18T07:25:18.000Z</time>
      </trkpt>
      <trkpt lat="47.49571" lon="6.75675">
        <ele>324.4</ele>
        <time>2014-05-18T07:25:19.000Z</time>
      </trkpt>
      <trkpt lat="47.49565" lon="6.75683">
        <ele>324.1</ele>
        <time>2014-05-18T07:25:20.000Z</time>
      </trkpt>
      <trkpt lat="47.4956" lon="6.7569">
        <ele>323.8</ele>
        <time>2014-05-18T07:25:21.000Z</time>
      </trkpt>
      <trkpt lat="47.49555" lon="6.75696">
        <ele>323.4</ele>
        <time>2014-05-18T07:25:22.000Z</time>
      </trkpt>
      <trkpt lat="47.49549" lon="6.75702">
        <ele>323.4</ele>
        <time>2014-05-18T07:25:23.000Z</time>
      </trkpt>
      <trkpt lat="47.49545" lon="6.75709">
        <ele>322.7</ele>
        <time>2014-05-18T07:25:24.000Z</time>
      </trkpt>
      <trkpt lat="47.4954" lon="6.75713">
        <ele>321.6</ele>
        <time>2014-05-18T07:25:25.000Z</time>
      </trkpt>
      <trkpt lat="47.49534" lon="6.75719">
        <ele>321.2</ele>
        <time>2014-05-18T07:25:26.000Z</time>
      </trkpt>
      <trkpt lat="47.49529" lon="6.75724">
        <ele>321.9</ele>
        <time>2014-05-18T07:25:27.000Z</time>
      </trkpt>
      <trkpt lat="47.49523" lon="6.75728">
        <ele>322.3</ele>
        <time>2014-05-18T07:25:27.999Z</time>
      </trkpt>
      <trkpt lat="47.49517" lon="6.7573">
        <ele>322.1</ele>
        <time>2014-05-18T07:25:28.999Z</time>
      </trkpt>
      <trkpt lat="47.4951" lon="6.75734">
        <ele>322.1</ele>
        <time>2014-05-18T07:25:30.000Z</time>
      </trkpt>
      <trkpt lat="47.49504" lon="6.75737">
        <ele>321.7</ele>
        <time>2014-05-18T07:25:31.000Z</time>
      </trkpt>
      <trkpt lat="47.49499" lon="6.75739">
        <ele>320.8</ele>
        <time>2014-05-18T07:25:32.000Z</time>
      </trkpt>
      <trkpt lat="47.49492" lon="6.75741">
        <ele>319.5</ele>
        <time>2014-05-18T07:25:33.000Z</time>
      </trkpt>
      <trkpt lat="47.49487" lon="6.75738">
        <ele>319.7</ele>
        <time>2014-05-18T07:25:34.000Z</time>
      </trkpt>
      <trkpt lat="47.49484" lon="6.7573">
        <ele>320.5</ele>
        <time>2014-05-18T07:25:35.000Z</time>
      </trkpt>
      <trkpt lat="47.49481" lon="6.75722">
        <ele>320.9</ele>
        <time>2014-05-18T07:25:36.000Z</time>
      </trkpt>
      <trkpt lat="47.49479" lon="6.75713">
        <ele>321.5</ele>
        <time>2014-05-18T07:25:37.000Z</time>
      </trkpt>
      <trkpt lat="47.49476" lon="6.75704">
        <ele>321.8</ele>
        <time>2014-05-18T07:25:38.000Z</time>
      </trkpt>
      <trkpt lat="47.49474" lon="6.75697">
        <ele>322.1</ele>
        <time>2014-05-18T07:25:39.000Z</time>
      </trkpt>
      <trkpt lat="47.49468" lon="6.75697">
        <ele>321.6</ele>
        <time>2014-05-18T07:25:40.000Z</time>
      </trkpt>
      <trkpt lat="47.49464" lon="6.75695">
        <ele>321.3</ele>
        <time>2014-05-18T07:25:41.000Z</time>
      </trkpt>
      <trkpt lat="47.49459" lon="6.75698">
        <ele>321.5</ele>
        <time>2014-05-18T07:25:42.000Z</time>
      </trkpt>
      <trkpt lat="47.49454" lon="6.757">
        <ele>322.5</ele>
        <time>2014-05-18T07:25:43.000Z</time>
      </trkpt>
      <trkpt lat="47.49449" lon="6.75699">
        <ele>322.7</ele>
        <time>2014-05-18T07:25:44.000Z</time>
      </trkpt>
      <trkpt lat="47.49445" lon="6.75696">
        <ele>322.4</ele>
        <time>2014-05-18T07:25:45.000Z</time>
      </trkpt>
      <trkpt lat="47.49436" lon="6.75684">
        <ele>321.7</ele>
        <time>2014-05-18T07:25:48.000Z</time>
      </trkpt>
      <trkpt lat="47.49436" lon="6.75676">
        <ele>322.1</ele>
        <time>2014-05-18T07:25:49.000Z</time>
      </trkpt>
      <trkpt lat="47.49435" lon="6.75672">
        <ele>322.3</ele>
        <time>2014-05-18T07:25:50.000Z</time>
      </trkpt>
      <trkpt lat="47.4943" lon="6.75674">
        <ele>321.7</ele>
        <time>2014-05-18T07:25:51.000Z</time>
      </trkpt>
      <trkpt lat="47.49425" lon="6.75675">
        <ele>321.5</ele>
        <time>2014-05-18T07:25:52.000Z</time>
      </trkpt>
      <trkpt lat="47.4942" lon="6.75679">
        <ele>322.4</ele>
        <time>2014-05-18T07:25:53.000Z</time>
      </trkpt>
      <trkpt lat="47.49416" lon="6.75683">
        <ele>322.8</ele>
        <time>2014-05-18T07:25:54.000Z</time>
      </trkpt>
      <trkpt lat="47.49413" lon="6.75685">
        <ele>324.2</ele>
        <time>2014-05-18T07:25:55.000Z</time>
      </trkpt>
      <trkpt lat="47.49408" lon="6.75688">
        <ele>324.5</ele>
        <time>2014-05-18T07:25:56.000Z</time>
      </trkpt>
      <trkpt lat="47.49402" lon="6.75693">
        <ele>325.3</ele>
        <time>2014-05-18T07:25:57.000Z</time>
      </trkpt>
      <trkpt lat="47.49396" lon="6.75696">
        <ele>323.6</ele>
        <time>2014-05-18T07:25:58.000Z</time>
      </trkpt>
      <trkpt lat="47.49391" lon="6.757">
        <ele>323.5</ele>
        <time>2014-05-18T07:25:59.000Z</time>
      </trkpt>
      <trkpt lat="47.49387" lon="6.75704">
        <ele>323.6</ele>
        <time>2014-05-18T07:26:00.000Z</time>
      </trkpt>
      <trkpt lat="47.49383" lon="6.75709">
        <ele>323.5</ele>
        <time>2014-05-18T07:26:01.001Z</time>
      </trkpt>
      <trkpt lat="47.49379" lon="6.75711">
        <ele>323.2</ele>
        <time>2014-05-18T07:26:02.000Z</time>
      </trkpt>
      <trkpt lat="47.49376" lon="6.75711">
        <ele>324.2</ele>
        <time>2014-05-18T07:26:03.000Z</time>
      </trkpt>
      <trkpt lat="47.49374" lon="6.75712">
        <ele>324.2</ele>
        <time>2014-05-18T07:26:04.000Z</time>
      </trkpt>
      <trkpt lat="47.49371" lon="6.75716">
        <ele>327</ele>
        <time>2014-05-18T07:26:05.000Z</time>
      </trkpt>
      <trkpt lat="47.49368" lon="6.75718">
        <ele>326.2</ele>
        <time>2014-05-18T07:26:06.000Z</time>
      </trkpt>
      <trkpt lat="47.49366" lon="6.7572">
        <ele>325.8</ele>
        <time>2014-05-18T07:26:07.000Z</time>
      </trkpt>
      <trkpt lat="47.49362" lon="6.75723">
        <ele>325.3</ele>
        <time>2014-05-18T07:26:12.000Z</time>
      </trkpt>
      <trkpt lat="47.49362" lon="6.75724">
        <ele>325</ele>
        <time>2014-05-18T07:26:13.000Z</time>
      </trkpt>
      <trkpt lat="47.49359" lon="6.75725">
        <ele>325.1</ele>
        <time>2014-05-18T07:26:15.000Z</time>
      </trkpt>
      <trkpt lat="47.49356" lon="6.75727">
        <ele>320.7</ele>
        <time>2014-05-18T07:26:16.001Z</time>
      </trkpt>
      <trkpt lat="47.49339" lon="6.75733">
        <ele>318.8</ele>
        <time>2014-05-18T07:26:17.000Z</time>
      </trkpt>
      <trkpt lat="47.49333" lon="6.75738">
        <ele>319.1</ele>
        <time>2014-05-18T07:26:18.000Z</time>
      </trkpt>
      <trkpt lat="47.49326" lon="6.75743">
        <ele>319.6</ele>
        <time>2014-05-18T07:26:19.000Z</time>
      </trkpt>
      <trkpt lat="47.4932" lon="6.75749">
        <ele>319.5</ele>
        <time>2014-05-18T07:26:20.000Z</time>
      </trkpt>
      <trkpt lat="47.49313" lon="6.75755">
        <ele>320.1</ele>
        <time>2014-05-18T07:26:21.000Z</time>
      </trkpt>
      <trkpt lat="47.49306" lon="6.75762">
        <ele>319.7</ele>
        <time>2014-05-18T07:26:22.000Z</time>
      </trkpt>
      <trkpt lat="47.49303" lon="6.75769">
        <ele>318.8</ele>
        <time>2014-05-18T07:26:23.000Z</time>
      </trkpt>
      <trkpt lat="47.49304" lon="6.75773">
        <ele>318.1</ele>
        <time>2014-05-18T07:26:24.000Z</time>
      </trkpt>
      <trkpt lat="47.49298" lon="6.75777">
        <ele>314.9</ele>
        <time>2014-05-18T07:26:25.000Z</time>
      </trkpt>
      <trkpt lat="47.49295" lon="6.7578">
        <ele>314.1</ele>
        <time>2014-05-18T07:26:26.000Z</time>
      </trkpt>
      <trkpt lat="47.49289" lon="6.75787">
        <ele>314.1</ele>
        <time>2014-05-18T07:26:27.000Z</time>
      </trkpt>
      <trkpt lat="47.49287" lon="6.75794">
        <ele>314</ele>
        <time>2014-05-18T07:26:28.000Z</time>
      </trkpt>
      <trkpt lat="47.49283" lon="6.75801">
        <ele>313.9</ele>
        <time>2014-05-18T07:26:29.000Z</time>
      </trkpt>
      <trkpt lat="47.49278" lon="6.75809">
        <ele>313.4</ele>
        <time>2014-05-18T07:26:30.000Z</time>
      </trkpt>
      <trkpt lat="47.49274" lon="6.75813">
        <ele>314</ele>
        <time>2014-05-18T07:26:31.000Z</time>
      </trkpt>
      <trkpt lat="47.49268" lon="6.75817">
        <ele>313.4</ele>
        <time>2014-05-18T07:26:32.000Z</time>
      </trkpt>
      <trkpt lat="47.49265" lon="6.75827">
        <ele>316.3</ele>
        <time>2014-05-18T07:26:33.000Z</time>
      </trkpt>
      <trkpt lat="47.49261" lon="6.75836">
        <ele>317.8</ele>
        <time>2014-05-18T07:26:33.998Z</time>
      </trkpt>
      <trkpt lat="47.49258" lon="6.75843">
        <ele>317.7</ele>
        <time>2014-05-18T07:26:35.001Z</time>
      </trkpt>
      <trkpt lat="47.49254" lon="6.75851">
        <ele>317.2</ele>
        <time>2014-05-18T07:26:36.000Z</time>
      </trkpt>
      <trkpt lat="47.4925" lon="6.75859">
        <ele>317.2</ele>
        <time>2014-05-18T07:26:37.000Z</time>
      </trkpt>
      <trkpt lat="47.49243" lon="6.75874">
        <ele>317.3</ele>
        <time>2014-05-18T07:26:37.999Z</time>
      </trkpt>
      <trkpt lat="47.49238" lon="6.75878">
        <ele>317.8</ele>
        <time>2014-05-18T07:26:39.000Z</time>
      </trkpt>
      <trkpt lat="47.49239" lon="6.75884">
        <ele>316.8</ele>
        <time>2014-05-18T07:26:40.000Z</time>
      </trkpt>
      <trkpt lat="47.49236" lon="6.7589">
        <ele>316.3</ele>
        <time>2014-05-18T07:26:41.000Z</time>
      </trkpt>
      <trkpt lat="47.49234" lon="6.75896">
        <ele>316.3</ele>
        <time>2014-05-18T07:26:42.001Z</time>
      </trkpt>
      <trkpt lat="47.49225" lon="6.75903">
        <ele>315.6</ele>
        <time>2014-05-18T07:26:43.000Z</time>
      </trkpt>
      <trkpt lat="47.49224" lon="6.75911">
        <ele>311.2</ele>
        <time>2014-05-18T07:26:44.000Z</time>
      </trkpt>
      <trkpt lat="47.49221" lon="6.75919">
        <ele>311.8</ele>
        <time>2014-05-18T07:26:45.000Z</time>
      </trkpt>
      <trkpt lat="47.49217" lon="6.75925">
        <ele>311.2</ele>
        <time>2014-05-18T07:26:46.000Z</time>
      </trkpt>
      <trkpt lat="47.49189" lon="6.75978">
        <ele>308.5</ele>
        <time>2014-05-18T07:26:54.000Z</time>
      </trkpt>
      <trkpt lat="47.49186" lon="6.75991">
        <ele>309.4</ele>
        <time>2014-05-18T07:26:55.000Z</time>
      </trkpt>
      <trkpt lat="47.49181" lon="6.76001">
        <ele>309.6</ele>
        <time>2014-05-18T07:26:56.000Z</time>
      </trkpt>
      <trkpt lat="47.49178" lon="6.7601">
        <ele>309.8</ele>
        <time>2014-05-18T07:26:57.000Z</time>
      </trkpt>
      <trkpt lat="47.49175" lon="6.7602">
        <ele>311.5</ele>
        <time>2014-05-18T07:26:58.000Z</time>
      </trkpt>
      <trkpt lat="47.49172" lon="6.76027">
        <ele>311.1</ele>
        <time>2014-05-18T07:26:59.000Z</time>
      </trkpt>
      <trkpt lat="47.49168" lon="6.76038">
        <ele>312.7</ele>
        <time>2014-05-18T07:27:00.000Z</time>
      </trkpt>
      <trkpt lat="47.49165" lon="6.76045">
        <ele>312.9</ele>
        <time>2014-05-18T07:27:01.000Z</time>
      </trkpt>
      <trkpt lat="47.49161" lon="6.76055">
        <ele>313.4</ele>
        <time>2014-05-18T07:27:02.000Z</time>
      </trkpt>
      <trkpt lat="47.4916" lon="6.76067">
        <ele>312.5</ele>
        <time>2014-05-18T07:27:03.000Z</time>
      </trkpt>
      <trkpt lat="47.49157" lon="6.76076">
        <ele>313.1</ele>
        <time>2014-05-18T07:27:04.000Z</time>
      </trkpt>
      <trkpt lat="47.49157" lon="6.76081">
        <ele>313.3</ele>
        <time>2014-05-18T07:27:05.000Z</time>
      </trkpt>
      <trkpt lat="47.49156" lon="6.76088">
        <ele>313.5</ele>
        <time>2014-05-18T07:27:06.000Z</time>
      </trkpt>
      <trkpt lat="47.49153" lon="6.76095">
        <ele>312.5</ele>
        <time>2014-05-18T07:27:07.000Z</time>
      </trkpt>
      <trkpt lat="47.49151" lon="6.76102">
        <ele>312.5</ele>
        <time>2014-05-18T07:27:08.000Z</time>
      </trkpt>
      <trkpt lat="47.49149" lon="6.76114">
        <ele>312.7</ele>
        <time>2014-05-18T07:27:09.000Z</time>
      </trkpt>
      <trkpt lat="47.49149" lon="6.76122">
        <ele>314.3</ele>
        <time>2014-05-18T07:27:10.000Z</time>
      </trkpt>
      <trkpt lat="47.49147" lon="6.76132">
        <ele>313</ele>
        <time>2014-05-18T07:27:11.000Z</time>
      </trkpt>
      <trkpt lat="47.49146" lon="6.7614">
        <ele>312.4</ele>
        <time>2014-05-18T07:27:12.000Z</time>
      </trkpt>
      <trkpt lat="47.49145" lon="6.7615">
        <ele>314.5</ele>
        <time>2014-05-18T07:27:13.000Z</time>
      </trkpt>
      <trkpt lat="47.49143" lon="6.76158">
        <ele>314.3</ele>
        <time>2014-05-18T07:27:14.000Z</time>
      </trkpt>
      <trkpt lat="47.49142" lon="6.76167">
        <ele>313.9</ele>
        <time>2014-05-18T07:27:15.000Z</time>
      </trkpt>
      <trkpt lat="47.49139" lon="6.76179">
        <ele>313.1</ele>
        <time>2014-05-18T07:27:16.000Z</time>
      </trkpt>
      <trkpt lat="47.49138" lon="6.76188">
        <ele>314</ele>
        <time>2014-05-18T07:27:17.000Z</time>
      </trkpt>
      <trkpt lat="47.49137" lon="6.76197">
        <ele>313.9</ele>
        <time>2014-05-18T07:27:18.000Z</time>
      </trkpt>
      <trkpt lat="47.4914" lon="6.76202">
        <ele>312.3</ele>
        <time>2014-05-18T07:27:19.000Z</time>
      </trkpt>
      <trkpt lat="47.49142" lon="6.76208">
        <ele>309.7</ele>
        <time>2014-05-18T07:27:20.000Z</time>
      </trkpt>
      <trkpt lat="47.49143" lon="6.76212">
        <ele>310.8</ele>
        <time>2014-05-18T07:27:21.001Z</time>
      </trkpt>
      <trkpt lat="47.49145" lon="6.76217">
        <ele>311.6</ele>
        <time>2014-05-18T07:27:22.000Z</time>
      </trkpt>
      <trkpt lat="47.49149" lon="6.76221">
        <ele>311.4</ele>
        <time>2014-05-18T07:27:23.000Z</time>
      </trkpt>
      <trkpt lat="47.49149" lon="6.76228">
        <ele>311.6</ele>
        <time>2014-05-18T07:27:24.000Z</time>
      </trkpt>
      <trkpt lat="47.49147" lon="6.76233">
        <ele>312.2</ele>
        <time>2014-05-18T07:27:25.000Z</time>
      </trkpt>
      <trkpt lat="47.49147" lon="6.76239">
        <ele>312.6</ele>
        <time>2014-05-18T07:27:26.000Z</time>
      </trkpt>
      <trkpt lat="47.4915" lon="6.76245">
        <ele>311</ele>
        <time>2014-05-18T07:27:27.000Z</time>
      </trkpt>
      <trkpt lat="47.4915" lon="6.76251">
        <ele>309.7</ele>
        <time>2014-05-18T07:27:28.000Z</time>
      </trkpt>
      <trkpt lat="47.49151" lon="6.76256">
        <ele>309</ele>
        <time>2014-05-18T07:27:29.000Z</time>
      </trkpt>
      <trkpt lat="47.49152" lon="6.76261">
        <ele>308.2</ele>
        <time>2014-05-18T07:27:30.000Z</time>
      </trkpt>
      <trkpt lat="47.49152" lon="6.76266">
        <ele>306.5</ele>
        <time>2014-05-18T07:27:31.000Z</time>
      </trkpt>
      <trkpt lat="47.49153" lon="6.7627">
        <ele>305.5</ele>
        <time>2014-05-18T07:27:32.000Z</time>
      </trkpt>
      <trkpt lat="47.49154" lon="6.76275">
        <ele>305.1</ele>
        <time>2014-05-18T07:27:33.000Z</time>
      </trkpt>
      <trkpt lat="47.49156" lon="6.76279">
        <ele>304.9</ele>
        <time>2014-05-18T07:27:34.000Z</time>
      </trkpt>
      <trkpt lat="47.49157" lon="6.76284">
        <ele>303.5</ele>
        <time>2014-05-18T07:27:35.000Z</time>
      </trkpt>
      <trkpt lat="47.49159" lon="6.76288">
        <ele>299.2</ele>
        <time>2014-05-18T07:27:36.000Z</time>
      </trkpt>
      <trkpt lat="47.49161" lon="6.76292">
        <ele>296.5</ele>
        <time>2014-05-18T07:27:37.000Z</time>
      </trkpt>
      <trkpt lat="47.49163" lon="6.76297">
        <ele>295.3</ele>
        <time>2014-05-18T07:27:38.000Z</time>
      </trkpt>
      <trkpt lat="47.49164" lon="6.76301">
        <ele>294.6</ele>
        <time>2014-05-18T07:27:39.000Z</time>
      </trkpt>
      <trkpt lat="47.49165" lon="6.76306">
        <ele>292.6</ele>
        <time>2014-05-18T07:27:40.000Z</time>
      </trkpt>
      <trkpt lat="47.49165" lon="6.76311">
        <ele>290.1</ele>
        <time>2014-05-18T07:27:41.000Z</time>
      </trkpt>
      <trkpt lat="47.49166" lon="6.76317">
        <ele>288</ele>
        <time>2014-05-18T07:27:42.000Z</time>
      </trkpt>
      <trkpt lat="47.49167" lon="6.76323">
        <ele>286</ele>
        <time>2014-05-18T07:27:43.000Z</time>
      </trkpt>
      <trkpt lat="47.49168" lon="6.7633">
        <ele>284.6</ele>
        <time>2014-05-18T07:27:44.000Z</time>
      </trkpt>
      <trkpt lat="47.49168" lon="6.76337">
        <ele>283.1</ele>
        <time>2014-05-18T07:27:45.000Z</time>
      </trkpt>
      <trkpt lat="47.49167" lon="6.76362">
        <ele>275.7</ele>
        <time>2014-05-18T07:27:49.000Z</time>
      </trkpt>
      <trkpt lat="47.49166" lon="6.76368">
        <ele>273.7</ele>
        <time>2014-05-18T07:27:50.000Z</time>
      </trkpt>
      <trkpt lat="47.49165" lon="6.76375">
        <ele>273.7</ele>
        <time>2014-05-18T07:27:51.000Z</time>
      </trkpt>
      <trkpt lat="47.49163" lon="6.76383">
        <ele>273.7</ele>
        <time>2014-05-18T07:27:52.000Z</time>
      </trkpt>
      <trkpt lat="47.49161" lon="6.76391">
        <ele>271.1</ele>
        <time>2014-05-18T07:27:53.000Z</time>
      </trkpt>
      <trkpt lat="47.49159" lon="6.764">
        <ele>269</ele>
        <time>2014-05-18T07:27:54.000Z</time>
      </trkpt>
      <trkpt lat="47.49157" lon="6.76409">
        <ele>268.3</ele>
        <time>2014-05-18T07:27:55.000Z</time>
      </trkpt>
      <trkpt lat="47.49156" lon="6.76418">
        <ele>267.8</ele>
        <time>2014-05-18T07:27:56.000Z</time>
      </trkpt>
      <trkpt lat="47.49156" lon="6.76428">
        <ele>269.7</ele>
        <time>2014-05-18T07:27:57.000Z</time>
      </trkpt>
      <trkpt lat="47.49155" lon="6.76438">
        <ele>270.6</ele>
        <time>2014-05-18T07:27:58.000Z</time>
      </trkpt>
      <trkpt lat="47.49156" lon="6.76447">
        <ele>271.5</ele>
        <time>2014-05-18T07:27:59.000Z</time>
      </trkpt>
      <trkpt lat="47.4916" lon="6.76463">
        <ele>273.1</ele>
        <time>2014-05-18T07:28:00.000Z</time>
      </trkpt>
      <trkpt lat="47.49162" lon="6.76467">
        <ele>274.6</ele>
        <time>2014-05-18T07:28:01.000Z</time>
      </trkpt>
      <trkpt lat="47.49166" lon="6.76472">
        <ele>277.9</ele>
        <time>2014-05-18T07:28:02.000Z</time>
      </trkpt>
      <trkpt lat="47.4917" lon="6.76475">
        <ele>281.8</ele>
        <time>2014-05-18T07:28:03.000Z</time>
      </trkpt>
      <trkpt lat="47.49172" lon="6.76478">
        <ele>285.2</ele>
        <time>2014-05-18T07:28:04.000Z</time>
      </trkpt>
      <trkpt lat="47.49175" lon="6.7648">
        <ele>289.6</ele>
        <time>2014-05-18T07:28:05.000Z</time>
      </trkpt>
      <trkpt lat="47.49178" lon="6.76484">
        <ele>295.7</ele>
        <time>2014-05-18T07:28:07.000Z</time>
      </trkpt>
      <trkpt lat="47.49179" lon="6.76485">
        <ele>296.7</ele>
        <time>2014-05-18T07:28:08.000Z</time>
      </trkpt>
      <trkpt lat="47.49181" lon="6.76489">
        <ele>298.2</ele>
        <time>2014-05-18T07:28:11.000Z</time>
      </trkpt>
      <trkpt lat="47.49182" lon="6.7649">
        <ele>300.2</ele>
        <time>2014-05-18T07:28:12.000Z</time>
      </trkpt>
      <trkpt lat="47.49186" lon="6.76489">
        <ele>308.4</ele>
        <time>2014-05-18T07:28:15.000Z</time>
      </trkpt>
      <trkpt lat="47.49187" lon="6.76489">
        <ele>310.6</ele>
        <time>2014-05-18T07:28:16.000Z</time>
      </trkpt>
      <trkpt lat="47.49191" lon="6.76487">
        <ele>314.1</ele>
        <time>2014-05-18T07:28:19.000Z</time>
      </trkpt>
      <trkpt lat="47.49191" lon="6.76486">
        <ele>315.2</ele>
        <time>2014-05-18T07:28:20.000Z</time>
      </trkpt>
      <trkpt lat="47.49192" lon="6.76481">
        <ele>315</ele>
        <time>2014-05-18T07:28:23.000Z</time>
      </trkpt>
      <trkpt lat="47.49193" lon="6.76479">
        <ele>316</ele>
        <time>2014-05-18T07:28:24.000Z</time>
      </trkpt>
      <trkpt lat="47.49188" lon="6.7648">
        <ele>311</ele>
        <time>2014-05-18T07:28:29.000Z</time>
      </trkpt>
      <trkpt lat="47.49186" lon="6.76482">
        <ele>309.7</ele>
        <time>2014-05-18T07:28:30.000Z</time>
      </trkpt>
      <trkpt lat="47.49184" lon="6.76484">
        <ele>308.4</ele>
        <time>2014-05-18T07:28:31.000Z</time>
      </trkpt>
      <trkpt lat="47.49182" lon="6.76486">
        <ele>307</ele>
        <time>2014-05-18T07:28:32.000Z</time>
      </trkpt>
      <trkpt lat="47.49178" lon="6.76489">
        <ele>307.4</ele>
        <time>2014-05-18T07:28:36.000Z</time>
      </trkpt>
      <trkpt lat="47.49177" lon="6.76488">
        <ele>309.1</ele>
        <time>2014-05-18T07:28:37.000Z</time>
      </trkpt>
      <trkpt lat="47.49173" lon="6.76485">
        <ele>313.8</ele>
        <time>2014-05-18T07:29:05.000Z</time>
      </trkpt>
      <trkpt lat="47.49173" lon="6.76484">
        <ele>314.3</ele>
        <time>2014-05-18T07:29:06.000Z</time>
      </trkpt>
      <trkpt lat="47.49177" lon="6.76481">
        <ele>319.1</ele>
        <time>2014-05-18T07:30:50.000Z</time>
      </trkpt>
      <trkpt lat="47.49177" lon="6.76481">
        <ele>319.4</ele>
        <time>2014-05-18T07:30:51.000Z</time>
      </trkpt>
      <trkpt lat="47.49175" lon="6.76487">
        <ele>317.9</ele>
        <time>2014-05-18T07:32:22.000Z</time>
      </trkpt>
      <trkpt lat="47.49175" lon="6.76487">
        <ele>318.1</ele>
        <time>2014-05-18T07:32:23.000Z</time>
      </trkpt>
      <trkpt lat="47.49179" lon="6.76485">
        <ele>321.9</ele>
        <time>2014-05-18T07:33:13.000Z</time>
      </trkpt>
      <trkpt lat="47.49179" lon="6.76485">
        <ele>321.7</ele>
        <time>2014-05-18T07:33:14.000Z</time>
      </trkpt>
      <trkpt lat="47.49181" lon="6.76489">
        <ele>319.7</ele>
        <time>2014-05-18T07:33:18.000Z</time>
      </trkpt>
      <trkpt lat="47.49182" lon="6.76491">
        <ele>320</ele>
        <time>2014-05-18T07:33:19.000Z</time>
      </trkpt>
      <trkpt lat="47.49183" lon="6.76496">
        <ele>316</ele>
        <time>2014-05-18T07:33:21.000Z</time>
      </trkpt>
      <trkpt lat="47.49184" lon="6.76499">
        <ele>316.2</ele>
        <time>2014-05-18T07:33:22.000Z</time>
      </trkpt>
      <trkpt lat="47.49183" lon="6.76504">
        <ele>314.1</ele>
        <time>2014-05-18T07:33:24.000Z</time>
      </trkpt>
      <trkpt lat="47.49181" lon="6.76505">
        <ele>314.6</ele>
        <time>2014-05-18T07:33:25.000Z</time>
      </trkpt>
      <trkpt lat="47.49178" lon="6.76506">
        <ele>314.5</ele>
        <time>2014-05-18T07:33:26.000Z</time>
      </trkpt>
      <trkpt lat="47.49176" lon="6.76509">
        <ele>313.7</ele>
        <time>2014-05-18T07:33:27.000Z</time>
      </trkpt>
      <trkpt lat="47.49174" lon="6.76512">
        <ele>313.2</ele>
        <time>2014-05-18T07:33:28.000Z</time>
      </trkpt>
      <trkpt lat="47.49172" lon="6.76514">
        <ele>313.7</ele>
        <time>2014-05-18T07:33:29.000Z</time>
      </trkpt>
      <trkpt lat="47.4917" lon="6.76515">
        <ele>313</ele>
        <time>2014-05-18T07:33:30.000Z</time>
      </trkpt>
      <trkpt lat="47.49168" lon="6.76517">
        <ele>312.2</ele>
        <time>2014-05-18T07:33:31.000Z</time>
      </trkpt>
      <trkpt lat="47.49165" lon="6.76519">
        <ele>311.8</ele>
        <time>2014-05-18T07:33:32.000Z</time>
      </trkpt>
      <trkpt lat="47.49162" lon="6.76521">
        <ele>311.8</ele>
        <time>2014-05-18T07:33:33.000Z</time>
      </trkpt>
      <trkpt lat="47.49159" lon="6.76523">
        <ele>311.9</ele>
        <time>2014-05-18T07:33:34.000Z</time>
      </trkpt>
      <trkpt lat="47.49155" lon="6.76526">
        <ele>312.1</ele>
        <time>2014-05-18T07:33:35.000Z</time>
      </trkpt>
      <trkpt lat="47.49151" lon="6.76528">
        <ele>312</ele>
        <time>2014-05-18T07:33:36.000Z</time>
      </trkpt>
      <trkpt lat="47.49147" lon="6.7653">
        <ele>311.5</ele>
        <time>2014-05-18T07:33:37.000Z</time>
      </trkpt>
      <trkpt lat="47.49144" lon="6.76531">
        <ele>311.4</ele>
        <time>2014-05-18T07:33:38.000Z</time>
      </trkpt>
      <trkpt lat="47.4914" lon="6.76531">
        <ele>312</ele>
        <time>2014-05-18T07:33:39.000Z</time>
      </trkpt>
      <trkpt lat="47.49136" lon="6.76531">
        <ele>311.9</ele>
        <time>2014-05-18T07:33:40.000Z</time>
      </trkpt>
      <trkpt lat="47.49133" lon="6.76531">
        <ele>310.8</ele>
        <time>2014-05-18T07:33:41.000Z</time>
      </trkpt>
      <trkpt lat="47.4913" lon="6.76532">
        <ele>310.5</ele>
        <time>2014-05-18T07:33:42.000Z</time>
      </trkpt>
      <trkpt lat="47.49127" lon="6.76534">
        <ele>310.6</ele>
        <time>2014-05-18T07:33:43.000Z</time>
      </trkpt>
      <trkpt lat="47.49126" lon="6.76538">
        <ele>311</ele>
        <time>2014-05-18T07:33:44.000Z</time>
      </trkpt>
      <trkpt lat="47.49125" lon="6.76543">
        <ele>311.3</ele>
        <time>2014-05-18T07:33:45.000Z</time>
      </trkpt>
      <trkpt lat="47.49125" lon="6.76549">
        <ele>310.8</ele>
        <time>2014-05-18T07:33:46.000Z</time>
      </trkpt>
      <trkpt lat="47.49132" lon="6.76602">
        <ele>311.2</ele>
        <time>2014-05-18T07:33:54.000Z</time>
      </trkpt>
      <trkpt lat="47.49133" lon="6.76609">
        <ele>311.8</ele>
        <time>2014-05-18T07:33:55.000Z</time>
      </trkpt>
      <trkpt lat="47.49134" lon="6.76616">
        <ele>312.3</ele>
        <time>2014-05-18T07:33:56.000Z</time>
      </trkpt>
      <trkpt lat="47.49136" lon="6.76624">
        <ele>312</ele>
        <time>2014-05-18T07:33:57.000Z</time>
      </trkpt>
      <trkpt lat="47.49137" lon="6.76632">
        <ele>311.4</ele>
        <time>2014-05-18T07:33:58.000Z</time>
      </trkpt>
      <trkpt lat="47.49138" lon="6.7664">
        <ele>311.4</ele>
        <time>2014-05-18T07:33:59.000Z</time>
      </trkpt>
      <trkpt lat="47.49139" lon="6.76649">
        <ele>311.4</ele>
        <time>2014-05-18T07:34:00.000Z</time>
      </trkpt>
      <trkpt lat="47.4914" lon="6.76656">
        <ele>311.7</ele>
        <time>2014-05-18T07:34:01.000Z</time>
      </trkpt>
      <trkpt lat="47.49142" lon="6.76663">
        <ele>312.4</ele>
        <time>2014-05-18T07:34:02.000Z</time>
      </trkpt>
      <trkpt lat="47.49142" lon="6.76671">
        <ele>312.3</ele>
        <time>2014-05-18T07:34:03.000Z</time>
      </trkpt>
      <trkpt lat="47.49143" lon="6.76678">
        <ele>312.4</ele>
        <time>2014-05-18T07:34:04.000Z</time>
      </trkpt>
      <trkpt lat="47.49144" lon="6.76686">
        <ele>313.3</ele>
        <time>2014-05-18T07:34:05.000Z</time>
      </trkpt>
      <trkpt lat="47.49145" lon="6.76694">
        <ele>312.8</ele>
        <time>2014-05-18T07:34:06.000Z</time>
      </trkpt>
      <trkpt lat="47.49146" lon="6.76701">
        <ele>312.9</ele>
        <time>2014-05-18T07:34:07.000Z</time>
      </trkpt>
      <trkpt lat="47.49147" lon="6.76708">
        <ele>313.5</ele>
        <time>2014-05-18T07:34:08.000Z</time>
      </trkpt>
      <trkpt lat="47.49148" lon="6.76715">
        <ele>313.2</ele>
        <time>2014-05-18T07:34:09.000Z</time>
      </trkpt>
      <trkpt lat="47.49149" lon="6.76722">
        <ele>313.8</ele>
        <time>2014-05-18T07:34:10.000Z</time>
      </trkpt>
      <trkpt lat="47.4915" lon="6.7673">
        <ele>313.3</ele>
        <time>2014-05-18T07:34:11.000Z</time>
      </trkpt>
      <trkpt lat="47.49149" lon="6.76737">
        <ele>312.2</ele>
        <time>2014-05-18T07:34:12.000Z</time>
      </trkpt>
      <trkpt lat="47.4915" lon="6.76743">
        <ele>313</ele>
        <time>2014-05-18T07:34:13.000Z</time>
      </trkpt>
      <trkpt lat="47.49152" lon="6.7675">
        <ele>312</ele>
        <time>2014-05-18T07:34:14.000Z</time>
      </trkpt>
      <trkpt lat="47.49153" lon="6.76757">
        <ele>311.2</ele>
        <time>2014-05-18T07:34:15.000Z</time>
      </trkpt>
      <trkpt lat="47.49154" lon="6.76764">
        <ele>311.4</ele>
        <time>2014-05-18T07:34:16.000Z</time>
      </trkpt>
      <trkpt lat="47.49154" lon="6.76771">
        <ele>311.4</ele>
        <time>2014-05-18T07:34:17.000Z</time>
      </trkpt>
      <trkpt lat="47.49153" lon="6.76778">
        <ele>311.6</ele>
        <time>2014-05-18T07:34:18.000Z</time>
      </trkpt>
      <trkpt lat="47.49153" lon="6.76784">
        <ele>310.6</ele>
        <time>2014-05-18T07:34:19.000Z</time>
      </trkpt>
      <trkpt lat="47.49154" lon="6.76791">
        <ele>310.6</ele>
        <time>2014-05-18T07:34:20.000Z</time>
      </trkpt>
      <trkpt lat="47.49155" lon="6.76798">
        <ele>310.9</ele>
        <time>2014-05-18T07:34:21.000Z</time>
      </trkpt>
      <trkpt lat="47.49155" lon="6.76807">
        <ele>312.3</ele>
        <time>2014-05-18T07:34:22.000Z</time>
      </trkpt>
      <trkpt lat="47.49154" lon="6.76814">
        <ele>311.2</ele>
        <time>2014-05-18T07:34:23.000Z</time>
      </trkpt>
      <trkpt lat="47.49154" lon="6.76821">
        <ele>310.1</ele>
        <time>2014-05-18T07:34:24.000Z</time>
      </trkpt>
      <trkpt lat="47.49155" lon="6.76829">
        <ele>309.7</ele>
        <time>2014-05-18T07:34:25.000Z</time>
      </trkpt>
      <trkpt lat="47.49156" lon="6.76837">
        <ele>310.9</ele>
        <time>2014-05-18T07:34:26.000Z</time>
      </trkpt>
      <trkpt lat="47.49156" lon="6.76844">
        <ele>310.8</ele>
        <time>2014-05-18T07:34:27.000Z</time>
      </trkpt>
      <trkpt lat="47.49155" lon="6.76852">
        <ele>311.5</ele>
        <time>2014-05-18T07:34:28.000Z</time>
      </trkpt>
      <trkpt lat="47.49154" lon="6.7686">
        <ele>311.6</ele>
        <time>2014-05-18T07:34:29.000Z</time>
      </trkpt>
      <trkpt lat="47.49154" lon="6.76868">
        <ele>310.5</ele>
        <time>2014-05-18T07:34:30.000Z</time>
      </trkpt>
      <trkpt lat="47.49153" lon="6.76876">
        <ele>312.1</ele>
        <time>2014-05-18T07:34:31.000Z</time>
      </trkpt>
      <trkpt lat="47.49154" lon="6.76883">
        <ele>312.9</ele>
        <time>2014-05-18T07:34:32.000Z</time>
      </trkpt>
      <trkpt lat="47.49154" lon="6.7689">
        <ele>314.1</ele>
        <time>2014-05-18T07:34:33.000Z</time>
      </trkpt>
      <trkpt lat="47.49154" lon="6.76897">
        <ele>315.1</ele>
        <time>2014-05-18T07:34:34.000Z</time>
      </trkpt>
      <trkpt lat="47.49154" lon="6.76904">
        <ele>314.3</ele>
        <time>2014-05-18T07:34:35.000Z</time>
      </trkpt>
      <trkpt lat="47.49154" lon="6.76911">
        <ele>314</ele>
        <time>2014-05-18T07:34:36.000Z</time>
      </trkpt>
      <trkpt lat="47.49154" lon="6.76919">
        <ele>314.9</ele>
        <time>2014-05-18T07:34:37.000Z</time>
      </trkpt>
      <trkpt lat="47.49153" lon="6.76926">
        <ele>314.6</ele>
        <time>2014-05-18T07:34:38.000Z</time>
      </trkpt>
      <trkpt lat="47.49154" lon="6.76933">
        <ele>314.9</ele>
        <time>2014-05-18T07:34:39.000Z</time>
      </trkpt>
      <trkpt lat="47.49155" lon="6.76941">
        <ele>315.6</ele>
        <time>2014-05-18T07:34:40.000Z</time>
      </trkpt>
      <trkpt lat="47.49154" lon="6.76948">
        <ele>315.7</ele>
        <time>2014-05-18T07:34:41.000Z</time>
      </trkpt>
      <trkpt lat="47.49154" lon="6.76956">
        <ele>315.9</ele>
        <time>2014-05-18T07:34:42.000Z</time>
      </trkpt>
      <trkpt lat="47.49154" lon="6.76961">
        <ele>316.9</ele>
        <time>2014-05-18T07:34:43.000Z</time>
      </trkpt>
      <trkpt lat="47.49151" lon="6.76967">
        <ele>318.5</ele>
        <time>2014-05-18T07:34:44.000Z</time>
      </trkpt>
      <trkpt lat="47.49152" lon="6.76975">
        <ele>318.3</ele>
        <time>2014-05-18T07:34:45.000Z</time>
      </trkpt>
      <trkpt lat="47.49151" lon="6.76982">
        <ele>316.3</ele>
        <time>2014-05-18T07:34:46.000Z</time>
      </trkpt>
      <trkpt lat="47.49168" lon="6.77031">
        <ele>314.3</ele>
        <time>2014-05-18T07:34:54.000Z</time>
      </trkpt>
      <trkpt lat="47.49169" lon="6.77039">
        <ele>314.5</ele>
        <time>2014-05-18T07:34:55.000Z</time>
      </trkpt>
      <trkpt lat="47.4917" lon="6.77047">
        <ele>315.4</ele>
        <time>2014-05-18T07:34:56.000Z</time>
      </trkpt>
      <trkpt lat="47.49171" lon="6.77053">
        <ele>316</ele>
        <time>2014-05-18T07:34:57.000Z</time>
      </trkpt>
      <trkpt lat="47.49172" lon="6.77061">
        <ele>315.9</ele>
        <time>2014-05-18T07:34:58.000Z</time>
      </trkpt>
      <trkpt lat="47.49174" lon="6.77068">
        <ele>314.6</ele>
        <time>2014-05-18T07:34:59.000Z</time>
      </trkpt>
      <trkpt lat="47.49175" lon="6.77075">
        <ele>314.7</ele>
        <time>2014-05-18T07:35:00.000Z</time>
      </trkpt>
      <trkpt lat="47.49176" lon="6.77082">
        <ele>315.2</ele>
        <time>2014-05-18T07:35:01.000Z</time>
      </trkpt>
      <trkpt lat="47.49178" lon="6.77087">
        <ele>316.2</ele>
        <time>2014-05-18T07:35:02.000Z</time>
      </trkpt>
      <trkpt lat="47.49179" lon="6.77094">
        <ele>315.8</ele>
        <time>2014-05-18T07:35:03.000Z</time>
      </trkpt>
      <trkpt lat="47.49181" lon="6.771">
        <ele>315.8</ele>
        <time>2014-05-18T07:35:04.000Z</time>
      </trkpt>
      <trkpt lat="47.49182" lon="6.77105">
        <ele>316.3</ele>
        <time>2014-05-18T07:35:05.000Z</time>
      </trkpt>
      <trkpt lat="47.49184" lon="6.77109">
        <ele>316.6</ele>
        <time>2014-05-18T07:35:06.000Z</time>
      </trkpt>
      <trkpt lat="47.49183" lon="6.77116">
        <ele>314.3</ele>
        <time>2014-05-18T07:35:07.000Z</time>
      </trkpt>
      <trkpt lat="47.49182" lon="6.77121">
        <ele>313.6</ele>
        <time>2014-05-18T07:35:08.000Z</time>
      </trkpt>
      <trkpt lat="47.49182" lon="6.77124">
        <ele>313</ele>
        <time>2014-05-18T07:35:09.000Z</time>
      </trkpt>
      <trkpt lat="47.49184" lon="6.7713">
        <ele>314</ele>
        <time>2014-05-18T07:35:12.000Z</time>
      </trkpt>
      <trkpt lat="47.49184" lon="6.77132">
        <ele>315.1</ele>
        <time>2014-05-18T07:35:13.000Z</time>
      </trkpt>
      <trkpt lat="47.49185" lon="6.77135">
        <ele>315.1</ele>
        <time>2014-05-18T07:35:14.000Z</time>
      </trkpt>
      <trkpt lat="47.49186" lon="6.77138">
        <ele>314.7</ele>
        <time>2014-05-18T07:35:15.000Z</time>
      </trkpt>
      <trkpt lat="47.49187" lon="6.77143">
        <ele>314.2</ele>
        <time>2014-05-18T07:35:16.000Z</time>
      </trkpt>
      <trkpt lat="47.49188" lon="6.77148">
        <ele>314.7</ele>
        <time>2014-05-18T07:35:17.000Z</time>
      </trkpt>
      <trkpt lat="47.49189" lon="6.77154">
        <ele>314.5</ele>
        <time>2014-05-18T07:35:18.000Z</time>
      </trkpt>
      <trkpt lat="47.49189" lon="6.77164">
        <ele>311.3</ele>
        <time>2014-05-18T07:35:19.000Z</time>
      </trkpt>
      <trkpt lat="47.49189" lon="6.77171">
        <ele>310.6</ele>
        <time>2014-05-18T07:35:20.000Z</time>
      </trkpt>
      <trkpt lat="47.49189" lon="6.77178">
        <ele>310.4</ele>
        <time>2014-05-18T07:35:21.000Z</time>
      </trkpt>
      <trkpt lat="47.49189" lon="6.77185">
        <ele>310.8</ele>
        <time>2014-05-18T07:35:22.000Z</time>
      </trkpt>
      <trkpt lat="47.49188" lon="6.77192">
        <ele>311.5</ele>
        <time>2014-05-18T07:35:23.000Z</time>
      </trkpt>
      <trkpt lat="47.49187" lon="6.77198">
        <ele>311.4</ele>
        <time>2014-05-18T07:35:24.000Z</time>
      </trkpt>
      <trkpt lat="47.49187" lon="6.77204">
        <ele>312.2</ele>
        <time>2014-05-18T07:35:25.000Z</time>
      </trkpt>
      <trkpt lat="47.49187" lon="6.7721">
        <ele>311.2</ele>
        <time>2014-05-18T07:35:26.000Z</time>
      </trkpt>
      <trkpt lat="47.49188" lon="6.77217">
        <ele>311</ele>
        <time>2014-05-18T07:35:27.000Z</time>
      </trkpt>
      <trkpt lat="47.49188" lon="6.77225">
        <ele>306.5</ele>
        <time>2014-05-18T07:35:28.000Z</time>
      </trkpt>
      <trkpt lat="47.49188" lon="6.77231">
        <ele>305.5</ele>
        <time>2014-05-18T07:35:29.000Z</time>
      </trkpt>
      <trkpt lat="47.49189" lon="6.77236">
        <ele>305.6</ele>
        <time>2014-05-18T07:35:30.000Z</time>
      </trkpt>
      <trkpt lat="47.4919" lon="6.77241">
        <ele>306.2</ele>
        <time>2014-05-18T07:35:31.000Z</time>
      </trkpt>
      <trkpt lat="47.49191" lon="6.77246">
        <ele>305.6</ele>
        <time>2014-05-18T07:35:32.000Z</time>
      </trkpt>
      <trkpt lat="47.49191" lon="6.77253">
        <ele>305.6</ele>
        <time>2014-05-18T07:35:33.000Z</time>
      </trkpt>
      <trkpt lat="47.49191" lon="6.77259">
        <ele>305.5</ele>
        <time>2014-05-18T07:35:34.000Z</time>
      </trkpt>
      <trkpt lat="47.4919" lon="6.77267">
        <ele>305.7</ele>
        <time>2014-05-18T07:35:35.000Z</time>
      </trkpt>
      <trkpt lat="47.4919" lon="6.77274">
        <ele>305.2</ele>
        <time>2014-05-18T07:35:36.000Z</time>
      </trkpt>
      <trkpt lat="47.49189" lon="6.77282">
        <ele>305.8</ele>
        <time>2014-05-18T07:35:37.000Z</time>
      </trkpt>
      <trkpt lat="47.49189" lon="6.7729">
        <ele>305.9</ele>
        <time>2014-05-18T07:35:38.000Z</time>
      </trkpt>
      <trkpt lat="47.49188" lon="6.77298">
        <ele>306</ele>
        <time>2014-05-18T07:35:39.000Z</time>
      </trkpt>
      <trkpt lat="47.49188" lon="6.77307">
        <ele>305.4</ele>
        <time>2014-05-18T07:35:40.000Z</time>
      </trkpt>
      <trkpt lat="47.49188" lon="6.77316">
        <ele>305.3</ele>
        <time>2014-05-18T07:35:41.000Z</time>
      </trkpt>
      <trkpt lat="47.49187" lon="6.77324">
        <ele>305.6</ele>
        <time>2014-05-18T07:35:42.000Z</time>
      </trkpt>
      <trkpt lat="47.49184" lon="6.7733">
        <ele>306.3</ele>
        <time>2014-05-18T07:35:43.000Z</time>
      </trkpt>
      <trkpt lat="47.49182" lon="6.77334">
        <ele>307.1</ele>
        <time>2014-05-18T07:35:44.000Z</time>
      </trkpt>
      <trkpt lat="47.4918" lon="6.77335">
        <ele>307</ele>
        <time>2014-05-18T07:35:45.000Z</time>
      </trkpt>
      <trkpt lat="47.49177" lon="6.77335">
        <ele>306.9</ele>
        <time>2014-05-18T07:35:46.000Z</time>
      </trkpt>
      <trkpt lat="47.49137" lon="6.77334">
        <ele>310.4</ele>
        <time>2014-05-18T07:35:54.000Z</time>
      </trkpt>
      <trkpt lat="47.4913" lon="6.77335">
        <ele>310.7</ele>
        <time>2014-05-18T07:35:55.000Z</time>
      </trkpt>
      <trkpt lat="47.49125" lon="6.77333">
        <ele>310.1</ele>
        <time>2014-05-18T07:35:56.000Z</time>
      </trkpt>
      <trkpt lat="47.49119" lon="6.77334">
        <ele>310</ele>
        <time>2014-05-18T07:35:57.000Z</time>
      </trkpt>
      <trkpt lat="47.49112" lon="6.77334">
        <ele>308.9</ele>
        <time>2014-05-18T07:35:58.000Z</time>
      </trkpt>
      <trkpt lat="47.49105" lon="6.77336">
        <ele>307.6</ele>
        <time>2014-05-18T07:35:59.000Z</time>
      </trkpt>
      <trkpt lat="47.491" lon="6.77337">
        <ele>308</ele>
        <time>2014-05-18T07:36:00.000Z</time>
      </trkpt>
      <trkpt lat="47.49095" lon="6.77336">
        <ele>308.5</ele>
        <time>2014-05-18T07:36:01.000Z</time>
      </trkpt>
      <trkpt lat="47.49092" lon="6.77334">
        <ele>310.7</ele>
        <time>2014-05-18T07:36:02.000Z</time>
      </trkpt>
      <trkpt lat="47.49086" lon="6.77334">
        <ele>310.8</ele>
        <time>2014-05-18T07:36:03.000Z</time>
      </trkpt>
      <trkpt lat="47.4908" lon="6.77334">
        <ele>311.3</ele>
        <time>2014-05-18T07:36:04.000Z</time>
      </trkpt>
      <trkpt lat="47.49075" lon="6.77333">
        <ele>311.5</ele>
        <time>2014-05-18T07:36:05.000Z</time>
      </trkpt>
      <trkpt lat="47.49069" lon="6.77331">
        <ele>311.9</ele>
        <time>2014-05-18T07:36:06.000Z</time>
      </trkpt>
      <trkpt lat="47.49063" lon="6.7733">
        <ele>312.7</ele>
        <time>2014-05-18T07:36:07.000Z</time>
      </trkpt>
      <trkpt lat="47.49057" lon="6.77329">
        <ele>312.7</ele>
        <time>2014-05-18T07:36:08.000Z</time>
      </trkpt>
      <trkpt lat="47.49052" lon="6.77329">
        <ele>314.2</ele>
        <time>2014-05-18T07:36:09.000Z</time>
      </trkpt>
      <trkpt lat="47.49046" lon="6.77328">
        <ele>314.9</ele>
        <time>2014-05-18T07:36:10.000Z</time>
      </trkpt>
      <trkpt lat="47.4904" lon="6.77327">
        <ele>315.4</ele>
        <time>2014-05-18T07:36:11.000Z</time>
      </trkpt>
      <trkpt lat="47.49035" lon="6.77327">
        <ele>316.3</ele>
        <time>2014-05-18T07:36:12.000Z</time>
      </trkpt>
      <trkpt lat="47.49029" lon="6.77327">
        <ele>314.9</ele>
        <time>2014-05-18T07:36:13.000Z</time>
      </trkpt>
      <trkpt lat="47.49024" lon="6.77326">
        <ele>315.3</ele>
        <time>2014-05-18T07:36:14.000Z</time>
      </trkpt>
      <trkpt lat="47.49018" lon="6.77325">
        <ele>315.6</ele>
        <time>2014-05-18T07:36:15.000Z</time>
      </trkpt>
      <trkpt lat="47.49011" lon="6.77325">
        <ele>315.5</ele>
        <time>2014-05-18T07:36:16.000Z</time>
      </trkpt>
      <trkpt lat="47.49006" lon="6.77326">
        <ele>315.6</ele>
        <time>2014-05-18T07:36:17.000Z</time>
      </trkpt>
      <trkpt lat="47.49" lon="6.77325">
        <ele>315.5</ele>
        <time>2014-05-18T07:36:18.000Z</time>
      </trkpt>
      <trkpt lat="47.48995" lon="6.77324">
        <ele>316</ele>
        <time>2014-05-18T07:36:19.000Z</time>
      </trkpt>
      <trkpt lat="47.48988" lon="6.77324">
        <ele>315.1</ele>
        <time>2014-05-18T07:36:20.000Z</time>
      </trkpt>
      <trkpt lat="47.48983" lon="6.77324">
        <ele>314.9</ele>
        <time>2014-05-18T07:36:21.000Z</time>
      </trkpt>
      <trkpt lat="47.48977" lon="6.77323">
        <ele>314.5</ele>
        <time>2014-05-18T07:36:22.000Z</time>
      </trkpt>
      <trkpt lat="47.48971" lon="6.77323">
        <ele>309</ele>
        <time>2014-05-18T07:36:23.000Z</time>
      </trkpt>
      <trkpt lat="47.48965" lon="6.77321">
        <ele>307.4</ele>
        <time>2014-05-18T07:36:24.000Z</time>
      </trkpt>
      <trkpt lat="47.4896" lon="6.77321">
        <ele>307.3</ele>
        <time>2014-05-18T07:36:25.000Z</time>
      </trkpt>
      <trkpt lat="47.48953" lon="6.7732">
        <ele>307.3</ele>
        <time>2014-05-18T07:36:26.000Z</time>
      </trkpt>
      <trkpt lat="47.48947" lon="6.77319">
        <ele>306.8</ele>
        <time>2014-05-18T07:36:27.000Z</time>
      </trkpt>
      <trkpt lat="47.48942" lon="6.77318">
        <ele>307.2</ele>
        <time>2014-05-18T07:36:28.000Z</time>
      </trkpt>
      <trkpt lat="47.48937" lon="6.77315">
        <ele>307.1</ele>
        <time>2014-05-18T07:36:29.000Z</time>
      </trkpt>
      <trkpt lat="47.48931" lon="6.77312">
        <ele>307.3</ele>
        <time>2014-05-18T07:36:30.000Z</time>
      </trkpt>
      <trkpt lat="47.48926" lon="6.77309">
        <ele>307.3</ele>
        <time>2014-05-18T07:36:31.000Z</time>
      </trkpt>
      <trkpt lat="47.48921" lon="6.77307">
        <ele>307</ele>
        <time>2014-05-18T07:36:32.000Z</time>
      </trkpt>
      <trkpt lat="47.48916" lon="6.77304">
        <ele>307.1</ele>
        <time>2014-05-18T07:36:33.000Z</time>
      </trkpt>
      <trkpt lat="47.4891" lon="6.77302">
        <ele>307</ele>
        <time>2014-05-18T07:36:34.000Z</time>
      </trkpt>
      <trkpt lat="47.48904" lon="6.77301">
        <ele>306.6</ele>
        <time>2014-05-18T07:36:35.000Z</time>
      </trkpt>
      <trkpt lat="47.48899" lon="6.77299">
        <ele>306.3</ele>
        <time>2014-05-18T07:36:36.000Z</time>
      </trkpt>
      <trkpt lat="47.48894" lon="6.77298">
        <ele>306.3</ele>
        <time>2014-05-18T07:36:37.000Z</time>
      </trkpt>
      <trkpt lat="47.48887" lon="6.77297">
        <ele>305.9</ele>
        <time>2014-05-18T07:36:38.000Z</time>
      </trkpt>
      <trkpt lat="47.48882" lon="6.77295">
        <ele>305.5</ele>
        <time>2014-05-18T07:36:39.000Z</time>
      </trkpt>
      <trkpt lat="47.48875" lon="6.77294">
        <ele>305.9</ele>
        <time>2014-05-18T07:36:40.000Z</time>
      </trkpt>
      <trkpt lat="47.48869" lon="6.77292">
        <ele>305.8</ele>
        <time>2014-05-18T07:36:41.000Z</time>
      </trkpt>
      <trkpt lat="47.48863" lon="6.77288">
        <ele>306.6</ele>
        <time>2014-05-18T07:36:42.000Z</time>
      </trkpt>
      <trkpt lat="47.48857" lon="6.77283">
        <ele>306.5</ele>
        <time>2014-05-18T07:36:43.000Z</time>
      </trkpt>
      <trkpt lat="47.48851" lon="6.77282">
        <ele>306.5</ele>
        <time>2014-05-18T07:36:44.000Z</time>
      </trkpt>
      <trkpt lat="47.48846" lon="6.77277">
        <ele>305.9</ele>
        <time>2014-05-18T07:36:45.000Z</time>
      </trkpt>
      <trkpt lat="47.4884" lon="6.77274">
        <ele>305.6</ele>
        <time>2014-05-18T07:36:46.000Z</time>
      </trkpt>
      <trkpt lat="47.48797" lon="6.77242">
        <ele>307.1</ele>
        <time>2014-05-18T07:36:54.000Z</time>
      </trkpt>
      <trkpt lat="47.48791" lon="6.77238">
        <ele>307.6</ele>
        <time>2014-05-18T07:36:55.000Z</time>
      </trkpt>
      <trkpt lat="47.48786" lon="6.77233">
        <ele>307.6</ele>
        <time>2014-05-18T07:36:56.000Z</time>
      </trkpt>
      <trkpt lat="47.48781" lon="6.77228">
        <ele>307.5</ele>
        <time>2014-05-18T07:36:57.000Z</time>
      </trkpt>
      <trkpt lat="47.48776" lon="6.77224">
        <ele>307.1</ele>
        <time>2014-05-18T07:36:58.000Z</time>
      </trkpt>
      <trkpt lat="47.4877" lon="6.77219">
        <ele>306.5</ele>
        <time>2014-05-18T07:36:59.000Z</time>
      </trkpt>
      <trkpt lat="47.48765" lon="6.77215">
        <ele>307.3</ele>
        <time>2014-05-18T07:37:00.000Z</time>
      </trkpt>
      <trkpt lat="47.4876" lon="6.77211">
        <ele>307.8</ele>
        <time>2014-05-18T07:37:01.000Z</time>
      </trkpt>
      <trkpt lat="47.48755" lon="6.77208">
        <ele>307.9</ele>
        <time>2014-05-18T07:37:02.000Z</time>
      </trkpt>
      <trkpt lat="47.48749" lon="6.77204">
        <ele>308.2</ele>
        <time>2014-05-18T07:37:03.000Z</time>
      </trkpt>
      <trkpt lat="47.48744" lon="6.772">
        <ele>308.1</ele>
        <time>2014-05-18T07:37:04.000Z</time>
      </trkpt>
      <trkpt lat="47.48738" lon="6.77196">
        <ele>309</ele>
        <time>2014-05-18T07:37:05.000Z</time>
      </trkpt>
      <trkpt lat="47.48733" lon="6.77192">
        <ele>309.2</ele>
        <time>2014-05-18T07:37:06.000Z</time>
      </trkpt>
      <trkpt lat="47.48728" lon="6.77187">
        <ele>308.7</ele>
        <time>2014-05-18T07:37:07.000Z</time>
      </trkpt>
      <trkpt lat="47.48722" lon="6.77184">
        <ele>308.8</ele>
        <time>2014-05-18T07:37:08.000Z</time>
      </trkpt>
      <trkpt lat="47.48716" lon="6.7718">
        <ele>309.7</ele>
        <time>2014-05-18T07:37:09.000Z</time>
      </trkpt>
      <trkpt lat="47.4871" lon="6.77176">
        <ele>309.1</ele>
        <time>2014-05-18T07:37:10.000Z</time>
      </trkpt>
      <trkpt lat="47.48705" lon="6.77172">
        <ele>308.4</ele>
        <time>2014-05-18T07:37:11.000Z</time>
      </trkpt>
      <trkpt lat="47.48699" lon="6.77167">
        <ele>308.7</ele>
        <time>2014-05-18T07:37:12.000Z</time>
      </trkpt>
      <trkpt lat="47.48694" lon="6.77163">
        <ele>309.3</ele>
        <time>2014-05-18T07:37:13.000Z</time>
      </trkpt>
      <trkpt lat="47.4869" lon="6.77158">
        <ele>309.2</ele>
        <time>2014-05-18T07:37:14.000Z</time>
      </trkpt>
      <trkpt lat="47.48684" lon="6.77153">
        <ele>308.6</ele>
        <time>2014-05-18T07:37:15.000Z</time>
      </trkpt>
      <trkpt lat="47.4868" lon="6.77148">
        <ele>308.2</ele>
        <time>2014-05-18T07:37:16.000Z</time>
      </trkpt>
      <trkpt lat="47.48674" lon="6.77142">
        <ele>307.5</ele>
        <time>2014-05-18T07:37:17.000Z</time>
      </trkpt>
      <trkpt lat="47.4867" lon="6.77136">
        <ele>307.9</ele>
        <time>2014-05-18T07:37:18.000Z</time>
      </trkpt>
      <trkpt lat="47.48665" lon="6.77129">
        <ele>308.2</ele>
        <time>2014-05-18T07:37:19.000Z</time>
      </trkpt>
      <trkpt lat="47.4866" lon="6.77124">
        <ele>308.4</ele>
        <time>2014-05-18T07:37:20.000Z</time>
      </trkpt>
      <trkpt lat="47.48655" lon="6.77119">
        <ele>308.6</ele>
        <time>2014-05-18T07:37:21.000Z</time>
      </trkpt>
      <trkpt lat="47.4865" lon="6.77111">
        <ele>308.4</ele>
        <time>2014-05-18T07:37:22.000Z</time>
      </trkpt>
      <trkpt lat="47.48645" lon="6.77106">
        <ele>309.1</ele>
        <time>2014-05-18T07:37:23.000Z</time>
      </trkpt>
      <trkpt lat="47.48641" lon="6.77102">
        <ele>309.9</ele>
        <time>2014-05-18T07:37:24.000Z</time>
      </trkpt>
      <trkpt lat="47.48636" lon="6.77098">
        <ele>311.1</ele>
        <time>2014-05-18T07:37:25.000Z</time>
      </trkpt>
      <trkpt lat="47.48631" lon="6.77094">
        <ele>311.7</ele>
        <time>2014-05-18T07:37:26.000Z</time>
      </trkpt>
      <trkpt lat="47.48626" lon="6.7709">
        <ele>313.5</ele>
        <time>2014-05-18T07:37:27.000Z</time>
      </trkpt>
      <trkpt lat="47.48621" lon="6.77088">
        <ele>314.6</ele>
        <time>2014-05-18T07:37:28.000Z</time>
      </trkpt>
      <trkpt lat="47.48617" lon="6.77086">
        <ele>314.3</ele>
        <time>2014-05-18T07:37:29.000Z</time>
      </trkpt>
      <trkpt lat="47.48611" lon="6.77082">
        <ele>314</ele>
        <time>2014-05-18T07:37:30.000Z</time>
      </trkpt>
      <trkpt lat="47.48607" lon="6.77077">
        <ele>313.9</ele>
        <time>2014-05-18T07:37:31.000Z</time>
      </trkpt>
      <trkpt lat="47.48602" lon="6.77074">
        <ele>313.8</ele>
        <time>2014-05-18T07:37:32.000Z</time>
      </trkpt>
      <trkpt lat="47.48597" lon="6.7707">
        <ele>312.8</ele>
        <time>2014-05-18T07:37:33.000Z</time>
      </trkpt>
      <trkpt lat="47.48592" lon="6.77067">
        <ele>311.6</ele>
        <time>2014-05-18T07:37:34.000Z</time>
      </trkpt>
      <trkpt lat="47.48587" lon="6.77063">
        <ele>311.1</ele>
        <time>2014-05-18T07:37:35.000Z</time>
      </trkpt>
      <trkpt lat="47.48582" lon="6.7706">
        <ele>310.8</ele>
        <time>2014-05-18T07:37:36.000Z</time>
      </trkpt>
      <trkpt lat="47.48577" lon="6.77057">
        <ele>310</ele>
        <time>2014-05-18T07:37:37.000Z</time>
      </trkpt>
      <trkpt lat="47.48571" lon="6.77053">
        <ele>310.5</ele>
        <time>2014-05-18T07:37:38.000Z</time>
      </trkpt>
      <trkpt lat="47.48565" lon="6.77051">
        <ele>311</ele>
        <time>2014-05-18T07:37:39.000Z</time>
      </trkpt>
      <trkpt lat="47.48561" lon="6.7705">
        <ele>312</ele>
        <time>2014-05-18T07:37:40.000Z</time>
      </trkpt>
      <trkpt lat="47.48555" lon="6.77046">
        <ele>312.3</ele>
        <time>2014-05-18T07:37:41.000Z</time>
      </trkpt>
      <trkpt lat="47.48547" lon="6.7704">
        <ele>313.5</ele>
        <time>2014-05-18T07:37:42.000Z</time>
      </trkpt>
      <trkpt lat="47.48541" lon="6.77036">
        <ele>315.1</ele>
        <time>2014-05-18T07:37:43.000Z</time>
      </trkpt>
      <trkpt lat="47.48534" lon="6.77032">
        <ele>314.2</ele>
        <time>2014-05-18T07:37:44.000Z</time>
      </trkpt>
      <trkpt lat="47.48529" lon="6.77027">
        <ele>314.7</ele>
        <time>2014-05-18T07:37:45.000Z</time>
      </trkpt>
      <trkpt lat="47.48522" lon="6.7702">
        <ele>315.1</ele>
        <time>2014-05-18T07:37:46.000Z</time>
      </trkpt>
      <trkpt lat="47.48506" lon="6.77008">
        <ele>316.5</ele>
        <time>2014-05-18T07:37:49.000Z</time>
      </trkpt>
      <trkpt lat="47.485" lon="6.77005">
        <ele>317.4</ele>
        <time>2014-05-18T07:37:50.000Z</time>
      </trkpt>
      <trkpt lat="47.48494" lon="6.76999">
        <ele>318.2</ele>
        <time>2014-05-18T07:37:51.000Z</time>
      </trkpt>
      <trkpt lat="47.48487" lon="6.76994">
        <ele>318.9</ele>
        <time>2014-05-18T07:37:52.000Z</time>
      </trkpt>
      <trkpt lat="47.48481" lon="6.7699">
        <ele>317.7</ele>
        <time>2014-05-18T07:37:53.000Z</time>
      </trkpt>
      <trkpt lat="47.48475" lon="6.76988">
        <ele>318</ele>
        <time>2014-05-18T07:37:54.000Z</time>
      </trkpt>
      <trkpt lat="47.48467" lon="6.76984">
        <ele>317.1</ele>
        <time>2014-05-18T07:37:55.000Z</time>
      </trkpt>
      <trkpt lat="47.48461" lon="6.76981">
        <ele>316.7</ele>
        <time>2014-05-18T07:37:56.000Z</time>
      </trkpt>
      <trkpt lat="47.48454" lon="6.76975">
        <ele>315.8</ele>
        <time>2014-05-18T07:37:57.000Z</time>
      </trkpt>
      <trkpt lat="47.48448" lon="6.7697">
        <ele>316.1</ele>
        <time>2014-05-18T07:37:58.000Z</time>
      </trkpt>
      <trkpt lat="47.48441" lon="6.76966">
        <ele>314.2</ele>
        <time>2014-05-18T07:37:59.000Z</time>
      </trkpt>
      <trkpt lat="47.48435" lon="6.76963">
        <ele>313.5</ele>
        <time>2014-05-18T07:38:00.000Z</time>
      </trkpt>
      <trkpt lat="47.48428" lon="6.76959">
        <ele>313.3</ele>
        <time>2014-05-18T07:38:01.000Z</time>
      </trkpt>
      <trkpt lat="47.48421" lon="6.76958">
        <ele>311.6</ele>
        <time>2014-05-18T07:38:02.000Z</time>
      </trkpt>
      <trkpt lat="47.48414" lon="6.76956">
        <ele>311.8</ele>
        <time>2014-05-18T07:38:03.000Z</time>
      </trkpt>
      <trkpt lat="47.48408" lon="6.76953">
        <ele>311.8</ele>
        <time>2014-05-18T07:38:04.000Z</time>
      </trkpt>
      <trkpt lat="47.48401" lon="6.76949">
        <ele>312</ele>
        <time>2014-05-18T07:38:05.000Z</time>
      </trkpt>
      <trkpt lat="47.48395" lon="6.76945">
        <ele>312.4</ele>
        <time>2014-05-18T07:38:06.000Z</time>
      </trkpt>
      <trkpt lat="47.48389" lon="6.76941">
        <ele>313.4</ele>
        <time>2014-05-18T07:38:07.000Z</time>
      </trkpt>
      <trkpt lat="47.48383" lon="6.76937">
        <ele>312.8</ele>
        <time>2014-05-18T07:38:08.000Z</time>
      </trkpt>
      <trkpt lat="47.48377" lon="6.76934">
        <ele>311.7</ele>
        <time>2014-05-18T07:38:09.000Z</time>
      </trkpt>
      <trkpt lat="47.4837" lon="6.7693">
        <ele>311.3</ele>
        <time>2014-05-18T07:38:10.000Z</time>
      </trkpt>
      <trkpt lat="47.48365" lon="6.76926">
        <ele>311.7</ele>
        <time>2014-05-18T07:38:11.000Z</time>
      </trkpt>
      <trkpt lat="47.48358" lon="6.76922">
        <ele>312.6</ele>
        <time>2014-05-18T07:38:12.000Z</time>
      </trkpt>
      <trkpt lat="47.48353" lon="6.76919">
        <ele>312.6</ele>
        <time>2014-05-18T07:38:13.000Z</time>
      </trkpt>
      <trkpt lat="47.48347" lon="6.76915">
        <ele>312.7</ele>
        <time>2014-05-18T07:38:14.000Z</time>
      </trkpt>
      <trkpt lat="47.4834" lon="6.7691">
        <ele>312.3</ele>
        <time>2014-05-18T07:38:15.000Z</time>
      </trkpt>
      <trkpt lat="47.48335" lon="6.76905">
        <ele>312.7</ele>
        <time>2014-05-18T07:38:16.000Z</time>
      </trkpt>
      <trkpt lat="47.48329" lon="6.76901">
        <ele>312.9</ele>
        <time>2014-05-18T07:38:17.000Z</time>
      </trkpt>
      <trkpt lat="47.48324" lon="6.76896">
        <ele>312.5</ele>
        <time>2014-05-18T07:38:18.000Z</time>
      </trkpt>
      <trkpt lat="47.48317" lon="6.76892">
        <ele>312.3</ele>
        <time>2014-05-18T07:38:19.000Z</time>
      </trkpt>
      <trkpt lat="47.48312" lon="6.76887">
        <ele>312.3</ele>
        <time>2014-05-18T07:38:20.000Z</time>
      </trkpt>
      <trkpt lat="47.48306" lon="6.76883">
        <ele>310.9</ele>
        <time>2014-05-18T07:38:21.000Z</time>
      </trkpt>
      <trkpt lat="47.483" lon="6.76877">
        <ele>311.1</ele>
        <time>2014-05-18T07:38:22.000Z</time>
      </trkpt>
      <trkpt lat="47.48295" lon="6.76872">
        <ele>312.3</ele>
        <time>2014-05-18T07:38:23.000Z</time>
      </trkpt>
      <trkpt lat="47.4829" lon="6.76866">
        <ele>312.2</ele>
        <time>2014-05-18T07:38:24.000Z</time>
      </trkpt>
      <trkpt lat="47.48285" lon="6.76859">
        <ele>311.8</ele>
        <time>2014-05-18T07:38:25.000Z</time>
      </trkpt>
      <trkpt lat="47.48281" lon="6.76853">
        <ele>311.5</ele>
        <time>2014-05-18T07:38:26.000Z</time>
      </trkpt>
      <trkpt lat="47.48277" lon="6.76846">
        <ele>312</ele>
        <time>2014-05-18T07:38:27.000Z</time>
      </trkpt>
      <trkpt lat="47.48272" lon="6.7684">
        <ele>311.6</ele>
        <time>2014-05-18T07:38:28.000Z</time>
      </trkpt>
      <trkpt lat="47.48267" lon="6.76834">
        <ele>311.7</ele>
        <time>2014-05-18T07:38:29.000Z</time>
      </trkpt>
      <trkpt lat="47.48263" lon="6.76827">
        <ele>311.2</ele>
        <time>2014-05-18T07:38:30.001Z</time>
      </trkpt>
      <trkpt lat="47.48259" lon="6.76821">
        <ele>311.3</ele>
        <time>2014-05-18T07:38:31.001Z</time>
      </trkpt>
      <trkpt lat="47.48255" lon="6.76816">
        <ele>311.5</ele>
        <time>2014-05-18T07:38:32.000Z</time>
      </trkpt>
      <trkpt lat="47.4825" lon="6.7681">
        <ele>311.6</ele>
        <time>2014-05-18T07:38:33.000Z</time>
      </trkpt>
      <trkpt lat="47.48244" lon="6.76806">
        <ele>312</ele>
        <time>2014-05-18T07:38:34.000Z</time>
      </trkpt>
      <trkpt lat="47.48238" lon="6.76802">
        <ele>312.1</ele>
        <time>2014-05-18T07:38:35.000Z</time>
      </trkpt>
      <trkpt lat="47.48232" lon="6.76799">
        <ele>311.8</ele>
        <time>2014-05-18T07:38:36.000Z</time>
      </trkpt>
      <trkpt lat="47.48225" lon="6.76797">
        <ele>311.8</ele>
        <time>2014-05-18T07:38:37.000Z</time>
      </trkpt>
      <trkpt lat="47.48219" lon="6.76795">
        <ele>312</ele>
        <time>2014-05-18T07:38:38.000Z</time>
      </trkpt>
      <trkpt lat="47.48213" lon="6.76792">
        <ele>312.1</ele>
        <time>2014-05-18T07:38:39.000Z</time>
      </trkpt>
      <trkpt lat="47.48207" lon="6.7679">
        <ele>311.9</ele>
        <time>2014-05-18T07:38:40.000Z</time>
      </trkpt>
      <trkpt lat="47.48201" lon="6.76788">
        <ele>312</ele>
        <time>2014-05-18T07:38:41.000Z</time>
      </trkpt>
      <trkpt lat="47.48195" lon="6.76785">
        <ele>312.1</ele>
        <time>2014-05-18T07:38:41.998Z</time>
      </trkpt>
      <trkpt lat="47.48188" lon="6.76781">
        <ele>312.1</ele>
        <time>2014-05-18T07:38:43.000Z</time>
      </trkpt>
      <trkpt lat="47.48183" lon="6.76776">
        <ele>312.2</ele>
        <time>2014-05-18T07:38:44.000Z</time>
      </trkpt>
      <trkpt lat="47.48178" lon="6.7677">
        <ele>312.8</ele>
        <time>2014-05-18T07:38:45.000Z</time>
      </trkpt>
      <trkpt lat="47.48159" lon="6.76744">
        <ele>313.4</ele>
        <time>2014-05-18T07:38:49.000Z</time>
      </trkpt>
      <trkpt lat="47.48155" lon="6.76736">
        <ele>313.1</ele>
        <time>2014-05-18T07:38:50.000Z</time>
      </trkpt>
      <trkpt lat="47.48152" lon="6.76729">
        <ele>312.6</ele>
        <time>2014-05-18T07:38:51.000Z</time>
      </trkpt>
      <trkpt lat="47.48148" lon="6.76721">
        <ele>311.7</ele>
        <time>2014-05-18T07:38:52.000Z</time>
      </trkpt>
      <trkpt lat="47.48145" lon="6.76713">
        <ele>311.7</ele>
        <time>2014-05-18T07:38:53.000Z</time>
      </trkpt>
      <trkpt lat="47.48141" lon="6.76705">
        <ele>312.3</ele>
        <time>2014-05-18T07:38:54.000Z</time>
      </trkpt>
      <trkpt lat="47.48137" lon="6.76697">
        <ele>312.3</ele>
        <time>2014-05-18T07:38:55.000Z</time>
      </trkpt>
      <trkpt lat="47.48133" lon="6.76691">
        <ele>311.9</ele>
        <time>2014-05-18T07:38:56.000Z</time>
      </trkpt>
      <trkpt lat="47.48129" lon="6.76684">
        <ele>313.1</ele>
        <time>2014-05-18T07:38:57.000Z</time>
      </trkpt>
      <trkpt lat="47.48126" lon="6.76678">
        <ele>313.5</ele>
        <time>2014-05-18T07:38:58.000Z</time>
      </trkpt>
      <trkpt lat="47.48122" lon="6.76671">
        <ele>314</ele>
        <time>2014-05-18T07:38:59.000Z</time>
      </trkpt>
      <trkpt lat="47.48119" lon="6.76664">
        <ele>313.6</ele>
        <time>2014-05-18T07:39:00.000Z</time>
      </trkpt>
      <trkpt lat="47.48116" lon="6.76657">
        <ele>314.5</ele>
        <time>2014-05-18T07:39:01.000Z</time>
      </trkpt>
      <trkpt lat="47.48113" lon="6.76653">
        <ele>314.3</ele>
        <time>2014-05-18T07:39:02.000Z</time>
      </trkpt>
      <trkpt lat="47.4811" lon="6.76646">
        <ele>313.6</ele>
        <time>2014-05-18T07:39:03.000Z</time>
      </trkpt>
      <trkpt lat="47.48106" lon="6.7664">
        <ele>313.4</ele>
        <time>2014-05-18T07:39:04.000Z</time>
      </trkpt>
      <trkpt lat="47.48104" lon="6.76634">
        <ele>313</ele>
        <time>2014-05-18T07:39:05.000Z</time>
      </trkpt>
      <trkpt lat="47.48103" lon="6.76626">
        <ele>312.8</ele>
        <time>2014-05-18T07:39:06.000Z</time>
      </trkpt>
      <trkpt lat="47.48101" lon="6.76619">
        <ele>312.5</ele>
        <time>2014-05-18T07:39:07.000Z</time>
      </trkpt>
      <trkpt lat="47.481" lon="6.76612">
        <ele>313.8</ele>
        <time>2014-05-18T07:39:08.000Z</time>
      </trkpt>
      <trkpt lat="47.48102" lon="6.76602">
        <ele>314.8</ele>
        <time>2014-05-18T07:39:09.000Z</time>
      </trkpt>
      <trkpt lat="47.48105" lon="6.76595">
        <ele>317.6</ele>
        <time>2014-05-18T07:39:10.000Z</time>
      </trkpt>
      <trkpt lat="47.48108" lon="6.76589">
        <ele>317.6</ele>
        <time>2014-05-18T07:39:11.000Z</time>
      </trkpt>
      <trkpt lat="47.48111" lon="6.76583">
        <ele>318</ele>
        <time>2014-05-18T07:39:12.000Z</time>
      </trkpt>
      <trkpt lat="47.48116" lon="6.76576">
        <ele>316.7</ele>
        <time>2014-05-18T07:39:13.000Z</time>
      </trkpt>
      <trkpt lat="47.4812" lon="6.76569">
        <ele>316.6</ele>
        <time>2014-05-18T07:39:14.000Z</time>
      </trkpt>
      <trkpt lat="47.48123" lon="6.76562">
        <ele>316.6</ele>
        <time>2014-05-18T07:39:15.000Z</time>
      </trkpt>
      <trkpt lat="47.48125" lon="6.76555">
        <ele>317.2</ele>
        <time>2014-05-18T07:39:16.000Z</time>
      </trkpt>
      <trkpt lat="47.48125" lon="6.76548">
        <ele>317.7</ele>
        <time>2014-05-18T07:39:17.000Z</time>
      </trkpt>
      <trkpt lat="47.48125" lon="6.76542">
        <ele>318.1</ele>
        <time>2014-05-18T07:39:18.000Z</time>
      </trkpt>
      <trkpt lat="47.48123" lon="6.76539">
        <ele>317.8</ele>
        <time>2014-05-18T07:39:19.000Z</time>
      </trkpt>
      <trkpt lat="47.48121" lon="6.76534">
        <ele>317.7</ele>
        <time>2014-05-18T07:39:20.000Z</time>
      </trkpt>
      <trkpt lat="47.48119" lon="6.76529">
        <ele>318.2</ele>
        <time>2014-05-18T07:39:21.000Z</time>
      </trkpt>
      <trkpt lat="47.48119" lon="6.76525">
        <ele>319.2</ele>
        <time>2014-05-18T07:39:22.000Z</time>
      </trkpt>
      <trkpt lat="47.48117" lon="6.76522">
        <ele>317.8</ele>
        <time>2014-05-18T07:39:23.000Z</time>
      </trkpt>
      <trkpt lat="47.48115" lon="6.76517">
        <ele>317.4</ele>
        <time>2014-05-18T07:39:24.000Z</time>
      </trkpt>
      <trkpt lat="47.48112" lon="6.76517">
        <ele>316.4</ele>
        <time>2014-05-18T07:39:25.000Z</time>
      </trkpt>
      <trkpt lat="47.48106" lon="6.76518">
        <ele>315.7</ele>
        <time>2014-05-18T07:39:26.000Z</time>
      </trkpt>
      <trkpt lat="47.48103" lon="6.76519">
        <ele>316.4</ele>
        <time>2014-05-18T07:39:27.000Z</time>
      </trkpt>
      <trkpt lat="47.48101" lon="6.7652">
        <ele>316.6</ele>
        <time>2014-05-18T07:39:28.000Z</time>
      </trkpt>
      <trkpt lat="47.48098" lon="6.76523">
        <ele>316</ele>
        <time>2014-05-18T07:39:29.000Z</time>
      </trkpt>
      <trkpt lat="47.48094" lon="6.76527">
        <ele>316.1</ele>
        <time>2014-05-18T07:39:30.000Z</time>
      </trkpt>
      <trkpt lat="47.48091" lon="6.76531">
        <ele>315.6</ele>
        <time>2014-05-18T07:39:31.000Z</time>
      </trkpt>
      <trkpt lat="47.48087" lon="6.76535">
        <ele>315.8</ele>
        <time>2014-05-18T07:39:32.000Z</time>
      </trkpt>
      <trkpt lat="47.48083" lon="6.76539">
        <ele>316.3</ele>
        <time>2014-05-18T07:39:33.000Z</time>
      </trkpt>
      <trkpt lat="47.48079" lon="6.76543">
        <ele>318.7</ele>
        <time>2014-05-18T07:39:34.000Z</time>
      </trkpt>
      <trkpt lat="47.48076" lon="6.76547">
        <ele>319.9</ele>
        <time>2014-05-18T07:39:35.000Z</time>
      </trkpt>
      <trkpt lat="47.48071" lon="6.7655">
        <ele>320.2</ele>
        <time>2014-05-18T07:39:36.000Z</time>
      </trkpt>
      <trkpt lat="47.48067" lon="6.76553">
        <ele>320.6</ele>
        <time>2014-05-18T07:39:37.000Z</time>
      </trkpt>
      <trkpt lat="47.48063" lon="6.76557">
        <ele>319.9</ele>
        <time>2014-05-18T07:39:38.000Z</time>
      </trkpt>
      <trkpt lat="47.48059" lon="6.76561">
        <ele>319.8</ele>
        <time>2014-05-18T07:39:39.000Z</time>
      </trkpt>
      <trkpt lat="47.48054" lon="6.76564">
        <ele>319.8</ele>
        <time>2014-05-18T07:39:40.000Z</time>
      </trkpt>
      <trkpt lat="47.48051" lon="6.76568">
        <ele>320.2</ele>
        <time>2014-05-18T07:39:41.000Z</time>
      </trkpt>
      <trkpt lat="47.48047" lon="6.76572">
        <ele>320.2</ele>
        <time>2014-05-18T07:39:42.000Z</time>
      </trkpt>
      <trkpt lat="47.48043" lon="6.76576">
        <ele>320.2</ele>
        <time>2014-05-18T07:39:43.000Z</time>
      </trkpt>
      <trkpt lat="47.48038" lon="6.7658">
        <ele>319.9</ele>
        <time>2014-05-18T07:39:44.000Z</time>
      </trkpt>
      <trkpt lat="47.48034" lon="6.76583">
        <ele>319</ele>
        <time>2014-05-18T07:39:45.000Z</time>
      </trkpt>
      <trkpt lat="47.47998" lon="6.76606">
        <ele>318</ele>
        <time>2014-05-18T07:39:54.000Z</time>
      </trkpt>
      <trkpt lat="47.47993" lon="6.76609">
        <ele>318.1</ele>
        <time>2014-05-18T07:39:55.000Z</time>
      </trkpt>
      <trkpt lat="47.4799" lon="6.7661">
        <ele>319</ele>
        <time>2014-05-18T07:39:56.000Z</time>
      </trkpt>
      <trkpt lat="47.47986" lon="6.76612">
        <ele>318.8</ele>
        <time>2014-05-18T07:39:57.000Z</time>
      </trkpt>
      <trkpt lat="47.47984" lon="6.76614">
        <ele>318.7</ele>
        <time>2014-05-18T07:39:58.000Z</time>
      </trkpt>
      <trkpt lat="47.47981" lon="6.76615">
        <ele>319.1</ele>
        <time>2014-05-18T07:39:59.000Z</time>
      </trkpt>
      <trkpt lat="47.47978" lon="6.76616">
        <ele>318.6</ele>
        <time>2014-05-18T07:40:00.000Z</time>
      </trkpt>
      <trkpt lat="47.47975" lon="6.76617">
        <ele>319.2</ele>
        <time>2014-05-18T07:40:01.000Z</time>
      </trkpt>
      <trkpt lat="47.47973" lon="6.76619">
        <ele>319.4</ele>
        <time>2014-05-18T07:40:02.000Z</time>
      </trkpt>
      <trkpt lat="47.47971" lon="6.7662">
        <ele>319.8</ele>
        <time>2014-05-18T07:40:03.000Z</time>
      </trkpt>
      <trkpt lat="47.47968" lon="6.76622">
        <ele>319.4</ele>
        <time>2014-05-18T07:40:06.000Z</time>
      </trkpt>
      <trkpt lat="47.47965" lon="6.76621">
        <ele>319.5</ele>
        <time>2014-05-18T07:40:07.000Z</time>
      </trkpt>
      <trkpt lat="47.47962" lon="6.76618">
        <ele>319.8</ele>
        <time>2014-05-18T07:40:08.000Z</time>
      </trkpt>
      <trkpt lat="47.47957" lon="6.76611">
        <ele>320</ele>
        <time>2014-05-18T07:40:09.000Z</time>
      </trkpt>
      <trkpt lat="47.47955" lon="6.76604">
        <ele>319.6</ele>
        <time>2014-05-18T07:40:10.000Z</time>
      </trkpt>
      <trkpt lat="47.47952" lon="6.76595">
        <ele>318.2</ele>
        <time>2014-05-18T07:40:11.000Z</time>
      </trkpt>
      <trkpt lat="47.4795" lon="6.76586">
        <ele>316.9</ele>
        <time>2014-05-18T07:40:12.000Z</time>
      </trkpt>
      <trkpt lat="47.47948" lon="6.76576">
        <ele>316.5</ele>
        <time>2014-05-18T07:40:13.000Z</time>
      </trkpt>
      <trkpt lat="47.47945" lon="6.76566">
        <ele>316.5</ele>
        <time>2014-05-18T07:40:14.000Z</time>
      </trkpt>
      <trkpt lat="47.47943" lon="6.76556">
        <ele>316.1</ele>
        <time>2014-05-18T07:40:15.000Z</time>
      </trkpt>
      <trkpt lat="47.47941" lon="6.76548">
        <ele>315.9</ele>
        <time>2014-05-18T07:40:16.000Z</time>
      </trkpt>
      <trkpt lat="47.4794" lon="6.7654">
        <ele>317</ele>
        <time>2014-05-18T07:40:17.000Z</time>
      </trkpt>
      <trkpt lat="47.47937" lon="6.76532">
        <ele>316.9</ele>
        <time>2014-05-18T07:40:18.000Z</time>
      </trkpt>
      <trkpt lat="47.47935" lon="6.76524">
        <ele>317.1</ele>
        <time>2014-05-18T07:40:19.000Z</time>
      </trkpt>
      <trkpt lat="47.47934" lon="6.76514">
        <ele>317</ele>
        <time>2014-05-18T07:40:20.000Z</time>
      </trkpt>
      <trkpt lat="47.47933" lon="6.76506">
        <ele>317.4</ele>
        <time>2014-05-18T07:40:21.000Z</time>
      </trkpt>
      <trkpt lat="47.47931" lon="6.76497">
        <ele>317.1</ele>
        <time>2014-05-18T07:40:22.000Z</time>
      </trkpt>
      <trkpt lat="47.47928" lon="6.76489">
        <ele>315.6</ele>
        <time>2014-05-18T07:40:23.000Z</time>
      </trkpt>
      <trkpt lat="47.47926" lon="6.76481">
        <ele>315.4</ele>
        <time>2014-05-18T07:40:24.000Z</time>
      </trkpt>
      <trkpt lat="47.47925" lon="6.76473">
        <ele>315.3</ele>
        <time>2014-05-18T07:40:25.000Z</time>
      </trkpt>
      <trkpt lat="47.47923" lon="6.76465">
        <ele>314.8</ele>
        <time>2014-05-18T07:40:26.000Z</time>
      </trkpt>
      <trkpt lat="47.4792" lon="6.76457">
        <ele>313.6</ele>
        <time>2014-05-18T07:40:27.000Z</time>
      </trkpt>
      <trkpt lat="47.47918" lon="6.7645">
        <ele>314</ele>
        <time>2014-05-18T07:40:28.000Z</time>
      </trkpt>
      <trkpt lat="47.47917" lon="6.76444">
        <ele>314.3</ele>
        <time>2014-05-18T07:40:29.000Z</time>
      </trkpt>
      <trkpt lat="47.47917" lon="6.76439">
        <ele>314.2</ele>
        <time>2014-05-18T07:40:30.000Z</time>
      </trkpt>
      <trkpt lat="47.47916" lon="6.76433">
        <ele>313.6</ele>
        <time>2014-05-18T07:40:31.000Z</time>
      </trkpt>
      <trkpt lat="47.47914" lon="6.76429">
        <ele>313.9</ele>
        <time>2014-05-18T07:40:32.000Z</time>
      </trkpt>
      <trkpt lat="47.47911" lon="6.76423">
        <ele>312.8</ele>
        <time>2014-05-18T07:40:33.000Z</time>
      </trkpt>
      <trkpt lat="47.47908" lon="6.76417">
        <ele>311.7</ele>
        <time>2014-05-18T07:40:34.000Z</time>
      </trkpt>
      <trkpt lat="47.47906" lon="6.7641">
        <ele>311.8</ele>
        <time>2014-05-18T07:40:35.000Z</time>
      </trkpt>
      <trkpt lat="47.47904" lon="6.76403">
        <ele>311.8</ele>
        <time>2014-05-18T07:40:36.000Z</time>
      </trkpt>
      <trkpt lat="47.479" lon="6.76396">
        <ele>312.1</ele>
        <time>2014-05-18T07:40:37.000Z</time>
      </trkpt>
      <trkpt lat="47.47897" lon="6.76388">
        <ele>312.5</ele>
        <time>2014-05-18T07:40:38.000Z</time>
      </trkpt>
      <trkpt lat="47.47893" lon="6.76382">
        <ele>312.2</ele>
        <time>2014-05-18T07:40:39.000Z</time>
      </trkpt>
      <trkpt lat="47.47889" lon="6.76376">
        <ele>312</ele>
        <time>2014-05-18T07:40:40.000Z</time>
      </trkpt>
      <trkpt lat="47.47886" lon="6.76369">
        <ele>311.5</ele>
        <time>2014-05-18T07:40:41.000Z</time>
      </trkpt>
      <trkpt lat="47.47883" lon="6.76362">
        <ele>311.6</ele>
        <time>2014-05-18T07:40:42.000Z</time>
      </trkpt>
      <trkpt lat="47.47881" lon="6.76356">
        <ele>313</ele>
        <time>2014-05-18T07:40:43.000Z</time>
      </trkpt>
      <trkpt lat="47.47877" lon="6.7635">
        <ele>312.9</ele>
        <time>2014-05-18T07:40:44.000Z</time>
      </trkpt>
      <trkpt lat="47.47874" lon="6.76343">
        <ele>312.6</ele>
        <time>2014-05-18T07:40:45.000Z</time>
      </trkpt>
      <trkpt lat="47.4787" lon="6.76337">
        <ele>311.9</ele>
        <time>2014-05-18T07:40:46.000Z</time>
      </trkpt>
      <trkpt lat="47.47843" lon="6.76292">
        <ele>311.1</ele>
        <time>2014-05-18T07:40:54.000Z</time>
      </trkpt>
      <trkpt lat="47.47837" lon="6.76287">
        <ele>311.1</ele>
        <time>2014-05-18T07:40:55.000Z</time>
      </trkpt>
      <trkpt lat="47.47832" lon="6.76284">
        <ele>310.1</ele>
        <time>2014-05-18T07:40:56.000Z</time>
      </trkpt>
      <trkpt lat="47.47827" lon="6.7628">
        <ele>311</ele>
        <time>2014-05-18T07:40:57.000Z</time>
      </trkpt>
      <trkpt lat="47.47821" lon="6.76275">
        <ele>311.5</ele>
        <time>2014-05-18T07:40:58.000Z</time>
      </trkpt>
      <trkpt lat="47.47816" lon="6.76272">
        <ele>311.2</ele>
        <time>2014-05-18T07:40:59.000Z</time>
      </trkpt>
      <trkpt lat="47.47812" lon="6.76271">
        <ele>311.3</ele>
        <time>2014-05-18T07:41:00.000Z</time>
      </trkpt>
      <trkpt lat="47.47806" lon="6.76267">
        <ele>310.7</ele>
        <time>2014-05-18T07:41:01.000Z</time>
      </trkpt>
      <trkpt lat="47.478" lon="6.76263">
        <ele>311.2</ele>
        <time>2014-05-18T07:41:02.000Z</time>
      </trkpt>
      <trkpt lat="47.47795" lon="6.7626">
        <ele>311.3</ele>
        <time>2014-05-18T07:41:03.000Z</time>
      </trkpt>
      <trkpt lat="47.4779" lon="6.76256">
        <ele>311.6</ele>
        <time>2014-05-18T07:41:04.000Z</time>
      </trkpt>
      <trkpt lat="47.47784" lon="6.76251">
        <ele>310.8</ele>
        <time>2014-05-18T07:41:05.000Z</time>
      </trkpt>
      <trkpt lat="47.4778" lon="6.76245">
        <ele>311.3</ele>
        <time>2014-05-18T07:41:06.000Z</time>
      </trkpt>
      <trkpt lat="47.47777" lon="6.76238">
        <ele>311.6</ele>
        <time>2014-05-18T07:41:07.000Z</time>
      </trkpt>
      <trkpt lat="47.47773" lon="6.76232">
        <ele>310.5</ele>
        <time>2014-05-18T07:41:08.000Z</time>
      </trkpt>
      <trkpt lat="47.47768" lon="6.76226">
        <ele>309.8</ele>
        <time>2014-05-18T07:41:09.000Z</time>
      </trkpt>
      <trkpt lat="47.47764" lon="6.76221">
        <ele>310</ele>
        <time>2014-05-18T07:41:10.000Z</time>
      </trkpt>
      <trkpt lat="47.4776" lon="6.76213">
        <ele>310.1</ele>
        <time>2014-05-18T07:41:11.000Z</time>
      </trkpt>
      <trkpt lat="47.47756" lon="6.76208">
        <ele>310</ele>
        <time>2014-05-18T07:41:12.000Z</time>
      </trkpt>
      <trkpt lat="47.47753" lon="6.76201">
        <ele>309.9</ele>
        <time>2014-05-18T07:41:13.000Z</time>
      </trkpt>
      <trkpt lat="47.47749" lon="6.76195">
        <ele>310.6</ele>
        <time>2014-05-18T07:41:14.000Z</time>
      </trkpt>
      <trkpt lat="47.47745" lon="6.7619">
        <ele>311</ele>
        <time>2014-05-18T07:41:15.000Z</time>
      </trkpt>
      <trkpt lat="47.47742" lon="6.76186">
        <ele>310</ele>
        <time>2014-05-18T07:41:16.000Z</time>
      </trkpt>
      <trkpt lat="47.47739" lon="6.7618">
        <ele>310.3</ele>
        <time>2014-05-18T07:41:17.000Z</time>
      </trkpt>
      <trkpt lat="47.47735" lon="6.76174">
        <ele>310.4</ele>
        <time>2014-05-18T07:41:18.000Z</time>
      </trkpt>
      <trkpt lat="47.47732" lon="6.76169">
        <ele>309.8</ele>
        <time>2014-05-18T07:41:19.000Z</time>
      </trkpt>
      <trkpt lat="47.47729" lon="6.76163">
        <ele>310.6</ele>
        <time>2014-05-18T07:41:20.000Z</time>
      </trkpt>
      <trkpt lat="47.47726" lon="6.76156">
        <ele>311.5</ele>
        <time>2014-05-18T07:41:21.000Z</time>
      </trkpt>
      <trkpt lat="47.47722" lon="6.7615">
        <ele>311.9</ele>
        <time>2014-05-18T07:41:22.000Z</time>
      </trkpt>
      <trkpt lat="47.47719" lon="6.76144">
        <ele>311.5</ele>
        <time>2014-05-18T07:41:23.000Z</time>
      </trkpt>
      <trkpt lat="47.47715" lon="6.76139">
        <ele>311.8</ele>
        <time>2014-05-18T07:41:24.000Z</time>
      </trkpt>
      <trkpt lat="47.47712" lon="6.76132">
        <ele>311.6</ele>
        <time>2014-05-18T07:41:25.000Z</time>
      </trkpt>
      <trkpt lat="47.47709" lon="6.76127">
        <ele>309.7</ele>
        <time>2014-05-18T07:41:26.000Z</time>
      </trkpt>
      <trkpt lat="47.47706" lon="6.76122">
        <ele>308.3</ele>
        <time>2014-05-18T07:41:27.000Z</time>
      </trkpt>
      <trkpt lat="47.47703" lon="6.76116">
        <ele>308.8</ele>
        <time>2014-05-18T07:41:28.000Z</time>
      </trkpt>
      <trkpt lat="47.47699" lon="6.76109">
        <ele>309.7</ele>
        <time>2014-05-18T07:41:29.000Z</time>
      </trkpt>
      <trkpt lat="47.47696" lon="6.76101">
        <ele>310.3</ele>
        <time>2014-05-18T07:41:30.000Z</time>
      </trkpt>
      <trkpt lat="47.47694" lon="6.76097">
        <ele>310.9</ele>
        <time>2014-05-18T07:41:31.000Z</time>
      </trkpt>
      <trkpt lat="47.4769" lon="6.7609">
        <ele>310.5</ele>
        <time>2014-05-18T07:41:32.000Z</time>
      </trkpt>
      <trkpt lat="47.47685" lon="6.76085">
        <ele>309.3</ele>
        <time>2014-05-18T07:41:33.000Z</time>
      </trkpt>
      <trkpt lat="47.47681" lon="6.76081">
        <ele>309.6</ele>
        <time>2014-05-18T07:41:34.000Z</time>
      </trkpt>
      <trkpt lat="47.47678" lon="6.76075">
        <ele>308.9</ele>
        <time>2014-05-18T07:41:35.000Z</time>
      </trkpt>
      <trkpt lat="47.47674" lon="6.7607">
        <ele>307.3</ele>
        <time>2014-05-18T07:41:36.000Z</time>
      </trkpt>
      <trkpt lat="47.47672" lon="6.76063">
        <ele>307.7</ele>
        <time>2014-05-18T07:41:37.000Z</time>
      </trkpt>
      <trkpt lat="47.4767" lon="6.76055">
        <ele>307.6</ele>
        <time>2014-05-18T07:41:38.000Z</time>
      </trkpt>
      <trkpt lat="47.47668" lon="6.76046">
        <ele>308.9</ele>
        <time>2014-05-18T07:41:39.000Z</time>
      </trkpt>
      <trkpt lat="47.47667" lon="6.76037">
        <ele>309.2</ele>
        <time>2014-05-18T07:41:40.000Z</time>
      </trkpt>
      <trkpt lat="47.47666" lon="6.76032">
        <ele>310</ele>
        <time>2014-05-18T07:41:41.000Z</time>
      </trkpt>
      <trkpt lat="47.47664" lon="6.76023">
        <ele>311.6</ele>
        <time>2014-05-18T07:41:42.000Z</time>
      </trkpt>
      <trkpt lat="47.47667" lon="6.76012">
        <ele>311.9</ele>
        <time>2014-05-18T07:41:43.000Z</time>
      </trkpt>
      <trkpt lat="47.4767" lon="6.76002">
        <ele>312.6</ele>
        <time>2014-05-18T07:41:44.000Z</time>
      </trkpt>
      <trkpt lat="47.47674" lon="6.75995">
        <ele>311.7</ele>
        <time>2014-05-18T07:41:45.000Z</time>
      </trkpt>
      <trkpt lat="47.47678" lon="6.75987">
        <ele>312.7</ele>
        <time>2014-05-18T07:41:46.000Z</time>
      </trkpt>
      <trkpt lat="47.47698" lon="6.75924">
        <ele>314.2</ele>
        <time>2014-05-18T07:41:54.000Z</time>
      </trkpt>
      <trkpt lat="47.47698" lon="6.75915">
        <ele>314.5</ele>
        <time>2014-05-18T07:41:55.000Z</time>
      </trkpt>
      <trkpt lat="47.47699" lon="6.75905">
        <ele>313.9</ele>
        <time>2014-05-18T07:41:56.000Z</time>
      </trkpt>
      <trkpt lat="47.47699" lon="6.75896">
        <ele>313.7</ele>
        <time>2014-05-18T07:41:57.000Z</time>
      </trkpt>
      <trkpt lat="47.47699" lon="6.75887">
        <ele>312.9</ele>
        <time>2014-05-18T07:41:58.000Z</time>
      </trkpt>
      <trkpt lat="47.47697" lon="6.75876">
        <ele>313</ele>
        <time>2014-05-18T07:41:59.000Z</time>
      </trkpt>
      <trkpt lat="47.47698" lon="6.75865">
        <ele>313.3</ele>
        <time>2014-05-18T07:42:00.000Z</time>
      </trkpt>
      <trkpt lat="47.47697" lon="6.75857">
        <ele>313.6</ele>
        <time>2014-05-18T07:42:01.000Z</time>
      </trkpt>
      <trkpt lat="47.47698" lon="6.75847">
        <ele>314.5</ele>
        <time>2014-05-18T07:42:02.000Z</time>
      </trkpt>
      <trkpt lat="47.47699" lon="6.75839">
        <ele>315.5</ele>
        <time>2014-05-18T07:42:03.000Z</time>
      </trkpt>
      <trkpt lat="47.477" lon="6.7583">
        <ele>315.6</ele>
        <time>2014-05-18T07:42:04.000Z</time>
      </trkpt>
      <trkpt lat="47.47701" lon="6.75823">
        <ele>315.4</ele>
        <time>2014-05-18T07:42:05.000Z</time>
      </trkpt>
      <trkpt lat="47.47702" lon="6.75814">
        <ele>314.9</ele>
        <time>2014-05-18T07:42:06.000Z</time>
      </trkpt>
      <trkpt lat="47.47703" lon="6.75805">
        <ele>314.6</ele>
        <time>2014-05-18T07:42:07.000Z</time>
      </trkpt>
      <trkpt lat="47.47703" lon="6.75797">
        <ele>314.9</ele>
        <time>2014-05-18T07:42:08.000Z</time>
      </trkpt>
      <trkpt lat="47.47703" lon="6.7579">
        <ele>314.6</ele>
        <time>2014-05-18T07:42:09.000Z</time>
      </trkpt>
      <trkpt lat="47.47702" lon="6.75784">
        <ele>316.5</ele>
        <time>2014-05-18T07:42:10.000Z</time>
      </trkpt>
      <trkpt lat="47.47701" lon="6.75776">
        <ele>316.7</ele>
        <time>2014-05-18T07:42:11.000Z</time>
      </trkpt>
      <trkpt lat="47.47701" lon="6.7577">
        <ele>316.2</ele>
        <time>2014-05-18T07:42:12.000Z</time>
      </trkpt>
      <trkpt lat="47.47702" lon="6.75762">
        <ele>317.1</ele>
        <time>2014-05-18T07:42:13.000Z</time>
      </trkpt>
      <trkpt lat="47.47702" lon="6.75754">
        <ele>317.5</ele>
        <time>2014-05-18T07:42:14.000Z</time>
      </trkpt>
      <trkpt lat="47.47704" lon="6.75747">
        <ele>319.6</ele>
        <time>2014-05-18T07:42:15.000Z</time>
      </trkpt>
      <trkpt lat="47.47702" lon="6.75739">
        <ele>318.6</ele>
        <time>2014-05-18T07:42:16.000Z</time>
      </trkpt>
      <trkpt lat="47.47702" lon="6.75733">
        <ele>318</ele>
        <time>2014-05-18T07:42:17.000Z</time>
      </trkpt>
      <trkpt lat="47.47703" lon="6.75727">
        <ele>319.1</ele>
        <time>2014-05-18T07:42:18.000Z</time>
      </trkpt>
      <trkpt lat="47.47704" lon="6.7572">
        <ele>319.6</ele>
        <time>2014-05-18T07:42:19.000Z</time>
      </trkpt>
      <trkpt lat="47.47705" lon="6.75713">
        <ele>319.3</ele>
        <time>2014-05-18T07:42:20.000Z</time>
      </trkpt>
      <trkpt lat="47.47706" lon="6.75706">
        <ele>319.3</ele>
        <time>2014-05-18T07:42:21.000Z</time>
      </trkpt>
      <trkpt lat="47.47704" lon="6.75699">
        <ele>317.3</ele>
        <time>2014-05-18T07:42:22.000Z</time>
      </trkpt>
      <trkpt lat="47.47705" lon="6.7569">
        <ele>316.8</ele>
        <time>2014-05-18T07:42:23.000Z</time>
      </trkpt>
      <trkpt lat="47.47706" lon="6.75681">
        <ele>316</ele>
        <time>2014-05-18T07:42:24.000Z</time>
      </trkpt>
      <trkpt lat="47.47706" lon="6.75674">
        <ele>316.5</ele>
        <time>2014-05-18T07:42:25.000Z</time>
      </trkpt>
      <trkpt lat="47.47706" lon="6.75665">
        <ele>316.2</ele>
        <time>2014-05-18T07:42:26.000Z</time>
      </trkpt>
      <trkpt lat="47.47707" lon="6.75656">
        <ele>316.5</ele>
        <time>2014-05-18T07:42:27.000Z</time>
      </trkpt>
      <trkpt lat="47.47708" lon="6.75647">
        <ele>315.6</ele>
        <time>2014-05-18T07:42:28.000Z</time>
      </trkpt>
      <trkpt lat="47.47708" lon="6.75638">
        <ele>315.1</ele>
        <time>2014-05-18T07:42:29.000Z</time>
      </trkpt>
      <trkpt lat="47.47709" lon="6.75627">
        <ele>315</ele>
        <time>2014-05-18T07:42:30.000Z</time>
      </trkpt>
      <trkpt lat="47.4771" lon="6.75618">
        <ele>315.5</ele>
        <time>2014-05-18T07:42:31.000Z</time>
      </trkpt>
      <trkpt lat="47.47712" lon="6.75608">
        <ele>315.9</ele>
        <time>2014-05-18T07:42:32.000Z</time>
      </trkpt>
      <trkpt lat="47.4771" lon="6.75597">
        <ele>315</ele>
        <time>2014-05-18T07:42:33.000Z</time>
      </trkpt>
      <trkpt lat="47.47711" lon="6.75587">
        <ele>315.2</ele>
        <time>2014-05-18T07:42:34.000Z</time>
      </trkpt>
      <trkpt lat="47.47711" lon="6.75578">
        <ele>314.7</ele>
        <time>2014-05-18T07:42:35.000Z</time>
      </trkpt>
      <trkpt lat="47.47712" lon="6.75568">
        <ele>314</ele>
        <time>2014-05-18T07:42:36.000Z</time>
      </trkpt>
      <trkpt lat="47.47712" lon="6.75559">
        <ele>314.8</ele>
        <time>2014-05-18T07:42:37.000Z</time>
      </trkpt>
      <trkpt lat="47.47711" lon="6.75549">
        <ele>314.6</ele>
        <time>2014-05-18T07:42:38.000Z</time>
      </trkpt>
      <trkpt lat="47.47712" lon="6.75541">
        <ele>314.1</ele>
        <time>2014-05-18T07:42:39.000Z</time>
      </trkpt>
      <trkpt lat="47.47712" lon="6.75531">
        <ele>314.1</ele>
        <time>2014-05-18T07:42:40.000Z</time>
      </trkpt>
      <trkpt lat="47.47712" lon="6.75522">
        <ele>315</ele>
        <time>2014-05-18T07:42:41.000Z</time>
      </trkpt>
      <trkpt lat="47.47712" lon="6.75512">
        <ele>315.3</ele>
        <time>2014-05-18T07:42:42.000Z</time>
      </trkpt>
      <trkpt lat="47.47713" lon="6.75503">
        <ele>316.1</ele>
        <time>2014-05-18T07:42:43.000Z</time>
      </trkpt>
      <trkpt lat="47.47714" lon="6.75492">
        <ele>315.8</ele>
        <time>2014-05-18T07:42:44.000Z</time>
      </trkpt>
      <trkpt lat="47.47714" lon="6.75483">
        <ele>315.5</ele>
        <time>2014-05-18T07:42:45.000Z</time>
      </trkpt>
      <trkpt lat="47.47714" lon="6.75474">
        <ele>314.9</ele>
        <time>2014-05-18T07:42:46.000Z</time>
      </trkpt>
      <trkpt lat="47.47713" lon="6.754">
        <ele>315.5</ele>
        <time>2014-05-18T07:42:54.000Z</time>
      </trkpt>
      <trkpt lat="47.47713" lon="6.7539">
        <ele>314.8</ele>
        <time>2014-05-18T07:42:55.000Z</time>
      </trkpt>
      <trkpt lat="47.47713" lon="6.75382">
        <ele>315.2</ele>
        <time>2014-05-18T07:42:56.000Z</time>
      </trkpt>
      <trkpt lat="47.47714" lon="6.75373">
        <ele>315.7</ele>
        <time>2014-05-18T07:42:57.000Z</time>
      </trkpt>
      <trkpt lat="47.47714" lon="6.75362">
        <ele>315.3</ele>
        <time>2014-05-18T07:42:58.000Z</time>
      </trkpt>
      <trkpt lat="47.47713" lon="6.75353">
        <ele>314.3</ele>
        <time>2014-05-18T07:42:59.000Z</time>
      </trkpt>
      <trkpt lat="47.47714" lon="6.75343">
        <ele>313.2</ele>
        <time>2014-05-18T07:43:00.000Z</time>
      </trkpt>
      <trkpt lat="47.47714" lon="6.75334">
        <ele>312.9</ele>
        <time>2014-05-18T07:43:01.000Z</time>
      </trkpt>
      <trkpt lat="47.47715" lon="6.75325">
        <ele>313.1</ele>
        <time>2014-05-18T07:43:02.000Z</time>
      </trkpt>
      <trkpt lat="47.47716" lon="6.75316">
        <ele>313.6</ele>
        <time>2014-05-18T07:43:03.000Z</time>
      </trkpt>
      <trkpt lat="47.47716" lon="6.75307">
        <ele>313.6</ele>
        <time>2014-05-18T07:43:04.000Z</time>
      </trkpt>
      <trkpt lat="47.47717" lon="6.75299">
        <ele>314.5</ele>
        <time>2014-05-18T07:43:05.000Z</time>
      </trkpt>
      <trkpt lat="47.47718" lon="6.7529">
        <ele>314.9</ele>
        <time>2014-05-18T07:43:06.000Z</time>
      </trkpt>
      <trkpt lat="47.47718" lon="6.75281">
        <ele>315.8</ele>
        <time>2014-05-18T07:43:07.000Z</time>
      </trkpt>
      <trkpt lat="47.47718" lon="6.75273">
        <ele>315.7</ele>
        <time>2014-05-18T07:43:08.000Z</time>
      </trkpt>
      <trkpt lat="47.47718" lon="6.75262">
        <ele>314.3</ele>
        <time>2014-05-18T07:43:09.000Z</time>
      </trkpt>
      <trkpt lat="47.47719" lon="6.75254">
        <ele>313.9</ele>
        <time>2014-05-18T07:43:10.000Z</time>
      </trkpt>
      <trkpt lat="47.4772" lon="6.75245">
        <ele>315.3</ele>
        <time>2014-05-18T07:43:11.000Z</time>
      </trkpt>
      <trkpt lat="47.47719" lon="6.75236">
        <ele>314.9</ele>
        <time>2014-05-18T07:43:12.000Z</time>
      </trkpt>
      <trkpt lat="47.47719" lon="6.75226">
        <ele>314.8</ele>
        <time>2014-05-18T07:43:13.000Z</time>
      </trkpt>
      <trkpt lat="47.4772" lon="6.75217">
        <ele>314.6</ele>
        <time>2014-05-18T07:43:14.000Z</time>
      </trkpt>
      <trkpt lat="47.4772" lon="6.75209">
        <ele>314.4</ele>
        <time>2014-05-18T07:43:15.000Z</time>
      </trkpt>
      <trkpt lat="47.47721" lon="6.752">
        <ele>314.5</ele>
        <time>2014-05-18T07:43:16.000Z</time>
      </trkpt>
      <trkpt lat="47.4772" lon="6.7519">
        <ele>313.9</ele>
        <time>2014-05-18T07:43:17.000Z</time>
      </trkpt>
      <trkpt lat="47.47722" lon="6.75181">
        <ele>314.8</ele>
        <time>2014-05-18T07:43:18.000Z</time>
      </trkpt>
      <trkpt lat="47.47719" lon="6.75171">
        <ele>314.8</ele>
        <time>2014-05-18T07:43:19.000Z</time>
      </trkpt>
      <trkpt lat="47.47719" lon="6.75162">
        <ele>315.1</ele>
        <time>2014-05-18T07:43:20.000Z</time>
      </trkpt>
      <trkpt lat="47.4772" lon="6.75154">
        <ele>314.9</ele>
        <time>2014-05-18T07:43:21.000Z</time>
      </trkpt>
      <trkpt lat="47.4772" lon="6.75144">
        <ele>314</ele>
        <time>2014-05-18T07:43:22.000Z</time>
      </trkpt>
      <trkpt lat="47.47719" lon="6.75136">
        <ele>312.8</ele>
        <time>2014-05-18T07:43:23.000Z</time>
      </trkpt>
      <trkpt lat="47.4772" lon="6.75127">
        <ele>313.8</ele>
        <time>2014-05-18T07:43:24.000Z</time>
      </trkpt>
      <trkpt lat="47.47721" lon="6.75119">
        <ele>315.1</ele>
        <time>2014-05-18T07:43:25.000Z</time>
      </trkpt>
      <trkpt lat="47.47722" lon="6.75111">
        <ele>315.5</ele>
        <time>2014-05-18T07:43:26.000Z</time>
      </trkpt>
      <trkpt lat="47.47722" lon="6.75102">
        <ele>316.1</ele>
        <time>2014-05-18T07:43:27.000Z</time>
      </trkpt>
      <trkpt lat="47.47723" lon="6.75092">
        <ele>317</ele>
        <time>2014-05-18T07:43:28.000Z</time>
      </trkpt>
      <trkpt lat="47.47722" lon="6.75082">
        <ele>316.8</ele>
        <time>2014-05-18T07:43:29.000Z</time>
      </trkpt>
      <trkpt lat="47.47722" lon="6.75072">
        <ele>317</ele>
        <time>2014-05-18T07:43:30.000Z</time>
      </trkpt>
      <trkpt lat="47.47722" lon="6.75063">
        <ele>316.7</ele>
        <time>2014-05-18T07:43:31.000Z</time>
      </trkpt>
      <trkpt lat="47.47722" lon="6.75054">
        <ele>316.8</ele>
        <time>2014-05-18T07:43:32.000Z</time>
      </trkpt>
      <trkpt lat="47.47721" lon="6.75048">
        <ele>315.8</ele>
        <time>2014-05-18T07:43:33.000Z</time>
      </trkpt>
      <trkpt lat="47.47721" lon="6.75039">
        <ele>315.9</ele>
        <time>2014-05-18T07:43:34.000Z</time>
      </trkpt>
      <trkpt lat="47.47722" lon="6.75031">
        <ele>316.1</ele>
        <time>2014-05-18T07:43:35.000Z</time>
      </trkpt>
      <trkpt lat="47.47723" lon="6.75021">
        <ele>316.8</ele>
        <time>2014-05-18T07:43:36.000Z</time>
      </trkpt>
      <trkpt lat="47.47723" lon="6.7501">
        <ele>317.9</ele>
        <time>2014-05-18T07:43:37.000Z</time>
      </trkpt>
      <trkpt lat="47.47723" lon="6.74999">
        <ele>317.4</ele>
        <time>2014-05-18T07:43:38.000Z</time>
      </trkpt>
      <trkpt lat="47.47723" lon="6.7499">
        <ele>315.3</ele>
        <time>2014-05-18T07:43:39.000Z</time>
      </trkpt>
      <trkpt lat="47.47723" lon="6.74981">
        <ele>314.7</ele>
        <time>2014-05-18T07:43:40.000Z</time>
      </trkpt>
      <trkpt lat="47.47723" lon="6.74974">
        <ele>313.7</ele>
        <time>2014-05-18T07:43:41.000Z</time>
      </trkpt>
      <trkpt lat="47.47724" lon="6.74965">
        <ele>314.1</ele>
        <time>2014-05-18T07:43:42.000Z</time>
      </trkpt>
      <trkpt lat="47.47725" lon="6.74957">
        <ele>315.1</ele>
        <time>2014-05-18T07:43:43.000Z</time>
      </trkpt>
      <trkpt lat="47.47725" lon="6.74948">
        <ele>314.5</ele>
        <time>2014-05-18T07:43:44.000Z</time>
      </trkpt>
      <trkpt lat="47.47725" lon="6.7494">
        <ele>314.8</ele>
        <time>2014-05-18T07:43:45.000Z</time>
      </trkpt>
      <trkpt lat="47.47726" lon="6.7493">
        <ele>314.8</ele>
        <time>2014-05-18T07:43:46.000Z</time>
      </trkpt>
      <trkpt lat="47.47727" lon="6.74855">
        <ele>313.3</ele>
        <time>2014-05-18T07:43:54.000Z</time>
      </trkpt>
      <trkpt lat="47.47727" lon="6.74846">
        <ele>313.5</ele>
        <time>2014-05-18T07:43:55.000Z</time>
      </trkpt>
      <trkpt lat="47.47727" lon="6.74839">
        <ele>313.2</ele>
        <time>2014-05-18T07:43:56.000Z</time>
      </trkpt>
      <trkpt lat="47.47726" lon="6.7483">
        <ele>312.7</ele>
        <time>2014-05-18T07:43:57.000Z</time>
      </trkpt>
      <trkpt lat="47.47726" lon="6.74822">
        <ele>312.3</ele>
        <time>2014-05-18T07:43:58.000Z</time>
      </trkpt>
      <trkpt lat="47.47727" lon="6.74812">
        <ele>312.4</ele>
        <time>2014-05-18T07:43:59.000Z</time>
      </trkpt>
      <trkpt lat="47.47728" lon="6.74803">
        <ele>312.1</ele>
        <time>2014-05-18T07:44:00.000Z</time>
      </trkpt>
      <trkpt lat="47.47728" lon="6.74793">
        <ele>312</ele>
        <time>2014-05-18T07:44:01.000Z</time>
      </trkpt>
      <trkpt lat="47.47729" lon="6.74785">
        <ele>311.9</ele>
        <time>2014-05-18T07:44:02.000Z</time>
      </trkpt>
      <trkpt lat="47.47729" lon="6.74776">
        <ele>311.2</ele>
        <time>2014-05-18T07:44:03.000Z</time>
      </trkpt>
      <trkpt lat="47.47729" lon="6.74768">
        <ele>311.5</ele>
        <time>2014-05-18T07:44:04.000Z</time>
      </trkpt>
      <trkpt lat="47.4773" lon="6.74759">
        <ele>312</ele>
        <time>2014-05-18T07:44:05.000Z</time>
      </trkpt>
      <trkpt lat="47.4773" lon="6.7475">
        <ele>311.6</ele>
        <time>2014-05-18T07:44:06.000Z</time>
      </trkpt>
      <trkpt lat="47.4773" lon="6.74741">
        <ele>311.8</ele>
        <time>2014-05-18T07:44:07.000Z</time>
      </trkpt>
      <trkpt lat="47.4773" lon="6.74733">
        <ele>311.9</ele>
        <time>2014-05-18T07:44:08.000Z</time>
      </trkpt>
      <trkpt lat="47.47731" lon="6.74725">
        <ele>311.8</ele>
        <time>2014-05-18T07:44:09.000Z</time>
      </trkpt>
      <trkpt lat="47.47731" lon="6.74716">
        <ele>311.4</ele>
        <time>2014-05-18T07:44:10.000Z</time>
      </trkpt>
      <trkpt lat="47.47732" lon="6.74707">
        <ele>311.6</ele>
        <time>2014-05-18T07:44:11.000Z</time>
      </trkpt>
      <trkpt lat="47.47732" lon="6.74698">
        <ele>312</ele>
        <time>2014-05-18T07:44:12.000Z</time>
      </trkpt>
      <trkpt lat="47.47732" lon="6.7469">
        <ele>312.7</ele>
        <time>2014-05-18T07:44:13.000Z</time>
      </trkpt>
      <trkpt lat="47.47733" lon="6.74682">
        <ele>313</ele>
        <time>2014-05-18T07:44:14.000Z</time>
      </trkpt>
      <trkpt lat="47.47733" lon="6.74673">
        <ele>313.5</ele>
        <time>2014-05-18T07:44:15.000Z</time>
      </trkpt>
      <trkpt lat="47.47733" lon="6.74665">
        <ele>314</ele>
        <time>2014-05-18T07:44:16.000Z</time>
      </trkpt>
      <trkpt lat="47.47732" lon="6.74656">
        <ele>315</ele>
        <time>2014-05-18T07:44:17.000Z</time>
      </trkpt>
      <trkpt lat="47.47732" lon="6.74647">
        <ele>315.1</ele>
        <time>2014-05-18T07:44:18.000Z</time>
      </trkpt>
      <trkpt lat="47.47731" lon="6.74638">
        <ele>314.8</ele>
        <time>2014-05-18T07:44:19.000Z</time>
      </trkpt>
      <trkpt lat="47.47732" lon="6.7463">
        <ele>315.6</ele>
        <time>2014-05-18T07:44:20.000Z</time>
      </trkpt>
      <trkpt lat="47.47732" lon="6.74621">
        <ele>314.7</ele>
        <time>2014-05-18T07:44:21.000Z</time>
      </trkpt>
      <trkpt lat="47.4773" lon="6.74613">
        <ele>313.2</ele>
        <time>2014-05-18T07:44:22.000Z</time>
      </trkpt>
      <trkpt lat="47.47729" lon="6.74604">
        <ele>313.2</ele>
        <time>2014-05-18T07:44:23.000Z</time>
      </trkpt>
      <trkpt lat="47.47729" lon="6.74596">
        <ele>313.3</ele>
        <time>2014-05-18T07:44:24.000Z</time>
      </trkpt>
      <trkpt lat="47.47728" lon="6.74587">
        <ele>312.9</ele>
        <time>2014-05-18T07:44:25.000Z</time>
      </trkpt>
      <trkpt lat="47.47728" lon="6.74579">
        <ele>312.8</ele>
        <time>2014-05-18T07:44:26.000Z</time>
      </trkpt>
      <trkpt lat="47.47727" lon="6.7457">
        <ele>311.8</ele>
        <time>2014-05-18T07:44:27.000Z</time>
      </trkpt>
      <trkpt lat="47.47726" lon="6.74561">
        <ele>311.1</ele>
        <time>2014-05-18T07:44:28.000Z</time>
      </trkpt>
      <trkpt lat="47.47725" lon="6.74554">
        <ele>312.1</ele>
        <time>2014-05-18T07:44:29.000Z</time>
      </trkpt>
      <trkpt lat="47.47725" lon="6.74546">
        <ele>312.2</ele>
        <time>2014-05-18T07:44:30.000Z</time>
      </trkpt>
      <trkpt lat="47.47726" lon="6.74537">
        <ele>312.2</ele>
        <time>2014-05-18T07:44:31.000Z</time>
      </trkpt>
      <trkpt lat="47.47729" lon="6.74527">
        <ele>312.7</ele>
        <time>2014-05-18T07:44:32.000Z</time>
      </trkpt>
      <trkpt lat="47.47731" lon="6.74518">
        <ele>312.8</ele>
        <time>2014-05-18T07:44:33.000Z</time>
      </trkpt>
      <trkpt lat="47.47733" lon="6.74508">
        <ele>312.8</ele>
        <time>2014-05-18T07:44:34.000Z</time>
      </trkpt>
      <trkpt lat="47.47729" lon="6.745">
        <ele>312.7</ele>
        <time>2014-05-18T07:44:35.000Z</time>
      </trkpt>
      <trkpt lat="47.47726" lon="6.7449">
        <ele>312.9</ele>
        <time>2014-05-18T07:44:36.000Z</time>
      </trkpt>
      <trkpt lat="47.47724" lon="6.74481">
        <ele>312.7</ele>
        <time>2014-05-18T07:44:37.000Z</time>
      </trkpt>
      <trkpt lat="47.47723" lon="6.74472">
        <ele>313.3</ele>
        <time>2014-05-18T07:44:38.000Z</time>
      </trkpt>
      <trkpt lat="47.47722" lon="6.74463">
        <ele>312.8</ele>
        <time>2014-05-18T07:44:39.000Z</time>
      </trkpt>
      <trkpt lat="47.47721" lon="6.74455">
        <ele>312.3</ele>
        <time>2014-05-18T07:44:40.000Z</time>
      </trkpt>
      <trkpt lat="47.47721" lon="6.74446">
        <ele>311.7</ele>
        <time>2014-05-18T07:44:41.000Z</time>
      </trkpt>
      <trkpt lat="47.47721" lon="6.74437">
        <ele>311.8</ele>
        <time>2014-05-18T07:44:42.000Z</time>
      </trkpt>
      <trkpt lat="47.4772" lon="6.74427">
        <ele>311.9</ele>
        <time>2014-05-18T07:44:43.000Z</time>
      </trkpt>
      <trkpt lat="47.47718" lon="6.74418">
        <ele>311.6</ele>
        <time>2014-05-18T07:44:44.000Z</time>
      </trkpt>
      <trkpt lat="47.47717" lon="6.74409">
        <ele>310.8</ele>
        <time>2014-05-18T07:44:45.000Z</time>
      </trkpt>
      <trkpt lat="47.47713" lon="6.74342">
        <ele>310.8</ele>
        <time>2014-05-18T07:44:52.784Z</time>
      </trkpt>
      <trkpt lat="47.47712" lon="6.74333">
        <ele>311.8</ele>
        <time>2014-05-18T07:44:54.000Z</time>
      </trkpt>
      <trkpt lat="47.4771" lon="6.74325">
        <ele>312.2</ele>
        <time>2014-05-18T07:44:55.000Z</time>
      </trkpt>
      <trkpt lat="47.47708" lon="6.74314">
        <ele>311.5</ele>
        <time>2014-05-18T07:44:56.000Z</time>
      </trkpt>
      <trkpt lat="47.47706" lon="6.74305">
        <ele>312.2</ele>
        <time>2014-05-18T07:44:57.000Z</time>
      </trkpt>
      <trkpt lat="47.47704" lon="6.74296">
        <ele>312.4</ele>
        <time>2014-05-18T07:44:58.000Z</time>
      </trkpt>
      <trkpt lat="47.47702" lon="6.74287">
        <ele>312.2</ele>
        <time>2014-05-18T07:44:59.000Z</time>
      </trkpt>
      <trkpt lat="47.47701" lon="6.74278">
        <ele>312</ele>
        <time>2014-05-18T07:45:00.000Z</time>
      </trkpt>
      <trkpt lat="47.47699" lon="6.74269">
        <ele>312.1</ele>
        <time>2014-05-18T07:45:01.000Z</time>
      </trkpt>
      <trkpt lat="47.47698" lon="6.74259">
        <ele>312.2</ele>
        <time>2014-05-18T07:45:02.000Z</time>
      </trkpt>
      <trkpt lat="47.47696" lon="6.7425">
        <ele>311.2</ele>
        <time>2014-05-18T07:45:03.000Z</time>
      </trkpt>
      <trkpt lat="47.47695" lon="6.7424">
        <ele>311.5</ele>
        <time>2014-05-18T07:45:04.000Z</time>
      </trkpt>
      <trkpt lat="47.47694" lon="6.7423">
        <ele>311.3</ele>
        <time>2014-05-18T07:45:05.000Z</time>
      </trkpt>
      <trkpt lat="47.47692" lon="6.74222">
        <ele>311.2</ele>
        <time>2014-05-18T07:45:06.000Z</time>
      </trkpt>
      <trkpt lat="47.47691" lon="6.74213">
        <ele>311.6</ele>
        <time>2014-05-18T07:45:07.000Z</time>
      </trkpt>
      <trkpt lat="47.4769" lon="6.74203">
        <ele>311.5</ele>
        <time>2014-05-18T07:45:08.000Z</time>
      </trkpt>
      <trkpt lat="47.47688" lon="6.74195">
        <ele>311.1</ele>
        <time>2014-05-18T07:45:09.000Z</time>
      </trkpt>
      <trkpt lat="47.47686" lon="6.74187">
        <ele>311.2</ele>
        <time>2014-05-18T07:45:10.000Z</time>
      </trkpt>
      <trkpt lat="47.47685" lon="6.74179">
        <ele>311.4</ele>
        <time>2014-05-18T07:45:11.000Z</time>
      </trkpt>
      <trkpt lat="47.47683" lon="6.74169">
        <ele>311.3</ele>
        <time>2014-05-18T07:45:12.000Z</time>
      </trkpt>
      <trkpt lat="47.47681" lon="6.74161">
        <ele>311.1</ele>
        <time>2014-05-18T07:45:13.000Z</time>
      </trkpt>
      <trkpt lat="47.47679" lon="6.74153">
        <ele>311.1</ele>
        <time>2014-05-18T07:45:14.000Z</time>
      </trkpt>
      <trkpt lat="47.47677" lon="6.74145">
        <ele>311.1</ele>
        <time>2014-05-18T07:45:15.000Z</time>
      </trkpt>
      <trkpt lat="47.47675" lon="6.74138">
        <ele>311.4</ele>
        <time>2014-05-18T07:45:16.000Z</time>
      </trkpt>
      <trkpt lat="47.47673" lon="6.7413">
        <ele>311.2</ele>
        <time>2014-05-18T07:45:17.000Z</time>
      </trkpt>
      <trkpt lat="47.47672" lon="6.74121">
        <ele>311.1</ele>
        <time>2014-05-18T07:45:18.000Z</time>
      </trkpt>
      <trkpt lat="47.47669" lon="6.74117">
        <ele>311.1</ele>
        <time>2014-05-18T07:45:19.000Z</time>
      </trkpt>
      <trkpt lat="47.47666" lon="6.74114">
        <ele>311</ele>
        <time>2014-05-18T07:45:20.000Z</time>
      </trkpt>
      <trkpt lat="47.47663" lon="6.74112">
        <ele>310.2</ele>
        <time>2014-05-18T07:45:21.000Z</time>
      </trkpt>
      <trkpt lat="47.4766" lon="6.74108">
        <ele>311.1</ele>
        <time>2014-05-18T07:45:22.000Z</time>
      </trkpt>
      <trkpt lat="47.47657" lon="6.74101">
        <ele>311.2</ele>
        <time>2014-05-18T07:45:23.000Z</time>
      </trkpt>
      <trkpt lat="47.47654" lon="6.74095">
        <ele>311.1</ele>
        <time>2014-05-18T07:45:24.000Z</time>
      </trkpt>
      <trkpt lat="47.4765" lon="6.74087">
        <ele>310.1</ele>
        <time>2014-05-18T07:45:25.000Z</time>
      </trkpt>
      <trkpt lat="47.47644" lon="6.7408">
        <ele>310.3</ele>
        <time>2014-05-18T07:45:26.000Z</time>
      </trkpt>
      <trkpt lat="47.4764" lon="6.74074">
        <ele>310.8</ele>
        <time>2014-05-18T07:45:27.000Z</time>
      </trkpt>
      <trkpt lat="47.47636" lon="6.74067">
        <ele>310.6</ele>
        <time>2014-05-18T07:45:28.000Z</time>
      </trkpt>
      <trkpt lat="47.47631" lon="6.74063">
        <ele>310.3</ele>
        <time>2014-05-18T07:45:29.000Z</time>
      </trkpt>
      <trkpt lat="47.47626" lon="6.74061">
        <ele>311</ele>
        <time>2014-05-18T07:45:30.000Z</time>
      </trkpt>
      <trkpt lat="47.4762" lon="6.74061">
        <ele>310.8</ele>
        <time>2014-05-18T07:45:31.000Z</time>
      </trkpt>
      <trkpt lat="47.47614" lon="6.74063">
        <ele>310.3</ele>
        <time>2014-05-18T07:45:32.000Z</time>
      </trkpt>
      <trkpt lat="47.4761" lon="6.74065">
        <ele>310.6</ele>
        <time>2014-05-18T07:45:33.000Z</time>
      </trkpt>
      <trkpt lat="47.47605" lon="6.74068">
        <ele>309.7</ele>
        <time>2014-05-18T07:45:34.000Z</time>
      </trkpt>
      <trkpt lat="47.476" lon="6.7407">
        <ele>308.9</ele>
        <time>2014-05-18T07:45:35.000Z</time>
      </trkpt>
      <trkpt lat="47.47595" lon="6.74071">
        <ele>309.3</ele>
        <time>2014-05-18T07:45:36.000Z</time>
      </trkpt>
      <trkpt lat="47.47591" lon="6.74072">
        <ele>309</ele>
        <time>2014-05-18T07:45:37.000Z</time>
      </trkpt>
      <trkpt lat="47.47587" lon="6.74075">
        <ele>309</ele>
        <time>2014-05-18T07:45:38.000Z</time>
      </trkpt>
      <trkpt lat="47.47581" lon="6.74079">
        <ele>307.8</ele>
        <time>2014-05-18T07:45:39.000Z</time>
      </trkpt>
      <trkpt lat="47.47577" lon="6.74083">
        <ele>308.1</ele>
        <time>2014-05-18T07:45:40.000Z</time>
      </trkpt>
      <trkpt lat="47.47573" lon="6.74086">
        <ele>308.5</ele>
        <time>2014-05-18T07:45:41.000Z</time>
      </trkpt>
      <trkpt lat="47.47569" lon="6.74089">
        <ele>308.5</ele>
        <time>2014-05-18T07:45:42.000Z</time>
      </trkpt>
      <trkpt lat="47.47564" lon="6.74093">
        <ele>308.9</ele>
        <time>2014-05-18T07:45:43.000Z</time>
      </trkpt>
      <trkpt lat="47.47559" lon="6.74097">
        <ele>309.2</ele>
        <time>2014-05-18T07:45:44.000Z</time>
      </trkpt>
      <trkpt lat="47.47555" lon="6.74101">
        <ele>309.3</ele>
        <time>2014-05-18T07:45:45.000Z</time>
      </trkpt>
      <trkpt lat="47.47512" lon="6.74136">
        <ele>310.2</ele>
        <time>2014-05-18T07:45:54.000Z</time>
      </trkpt>
      <trkpt lat="47.47506" lon="6.74139">
        <ele>310.1</ele>
        <time>2014-05-18T07:45:55.000Z</time>
      </trkpt>
      <trkpt lat="47.47501" lon="6.74144">
        <ele>310.4</ele>
        <time>2014-05-18T07:45:56.000Z</time>
      </trkpt>
      <trkpt lat="47.47495" lon="6.74148">
        <ele>310.7</ele>
        <time>2014-05-18T07:45:57.000Z</time>
      </trkpt>
      <trkpt lat="47.47491" lon="6.74152">
        <ele>309.8</ele>
        <time>2014-05-18T07:45:58.000Z</time>
      </trkpt>
      <trkpt lat="47.47487" lon="6.74156">
        <ele>309.5</ele>
        <time>2014-05-18T07:45:59.000Z</time>
      </trkpt>
      <trkpt lat="47.47483" lon="6.7416">
        <ele>310.3</ele>
        <time>2014-05-18T07:46:00.000Z</time>
      </trkpt>
      <trkpt lat="47.47478" lon="6.74163">
        <ele>310.9</ele>
        <time>2014-05-18T07:46:01.000Z</time>
      </trkpt>
      <trkpt lat="47.47474" lon="6.74166">
        <ele>310.8</ele>
        <time>2014-05-18T07:46:02.000Z</time>
      </trkpt>
      <trkpt lat="47.4747" lon="6.74169">
        <ele>311.5</ele>
        <time>2014-05-18T07:46:03.000Z</time>
      </trkpt>
      <trkpt lat="47.47465" lon="6.74173">
        <ele>312</ele>
        <time>2014-05-18T07:46:04.000Z</time>
      </trkpt>
      <trkpt lat="47.47461" lon="6.74177">
        <ele>312.4</ele>
        <time>2014-05-18T07:46:05.000Z</time>
      </trkpt>
      <trkpt lat="47.47456" lon="6.7418">
        <ele>311.7</ele>
        <time>2014-05-18T07:46:06.000Z</time>
      </trkpt>
      <trkpt lat="47.47451" lon="6.74181">
        <ele>311.4</ele>
        <time>2014-05-18T07:46:07.000Z</time>
      </trkpt>
      <trkpt lat="47.47446" lon="6.74182">
        <ele>312.3</ele>
        <time>2014-05-18T07:46:08.000Z</time>
      </trkpt>
      <trkpt lat="47.4744" lon="6.74184">
        <ele>312.9</ele>
        <time>2014-05-18T07:46:09.000Z</time>
      </trkpt>
      <trkpt lat="47.47435" lon="6.74187">
        <ele>313.4</ele>
        <time>2014-05-18T07:46:10.000Z</time>
      </trkpt>
      <trkpt lat="47.4743" lon="6.74189">
        <ele>314.4</ele>
        <time>2014-05-18T07:46:11.000Z</time>
      </trkpt>
      <trkpt lat="47.47425" lon="6.74192">
        <ele>315.1</ele>
        <time>2014-05-18T07:46:12.000Z</time>
      </trkpt>
      <trkpt lat="47.4742" lon="6.74194">
        <ele>314.6</ele>
        <time>2014-05-18T07:46:13.000Z</time>
      </trkpt>
      <trkpt lat="47.47414" lon="6.74197">
        <ele>314.5</ele>
        <time>2014-05-18T07:46:14.000Z</time>
      </trkpt>
      <trkpt lat="47.47409" lon="6.74199">
        <ele>313.9</ele>
        <time>2014-05-18T07:46:15.000Z</time>
      </trkpt>
      <trkpt lat="47.47403" lon="6.74201">
        <ele>313.4</ele>
        <time>2014-05-18T07:46:16.000Z</time>
      </trkpt>
      <trkpt lat="47.47399" lon="6.74202">
        <ele>313.3</ele>
        <time>2014-05-18T07:46:17.000Z</time>
      </trkpt>
      <trkpt lat="47.47393" lon="6.74204">
        <ele>312.8</ele>
        <time>2014-05-18T07:46:18.000Z</time>
      </trkpt>
      <trkpt lat="47.47388" lon="6.74207">
        <ele>312.4</ele>
        <time>2014-05-18T07:46:19.000Z</time>
      </trkpt>
      <trkpt lat="47.47383" lon="6.74209">
        <ele>313.2</ele>
        <time>2014-05-18T07:46:20.000Z</time>
      </trkpt>
      <trkpt lat="47.47378" lon="6.74212">
        <ele>313.7</ele>
        <time>2014-05-18T07:46:21.000Z</time>
      </trkpt>
      <trkpt lat="47.47373" lon="6.74215">
        <ele>314.1</ele>
        <time>2014-05-18T07:46:22.000Z</time>
      </trkpt>
      <trkpt lat="47.47368" lon="6.74218">
        <ele>313.5</ele>
        <time>2014-05-18T07:46:23.000Z</time>
      </trkpt>
      <trkpt lat="47.47364" lon="6.7422">
        <ele>314.3</ele>
        <time>2014-05-18T07:46:24.000Z</time>
      </trkpt>
      <trkpt lat="47.47359" lon="6.74223">
        <ele>314.2</ele>
        <time>2014-05-18T07:46:25.000Z</time>
      </trkpt>
      <trkpt lat="47.47354" lon="6.74226">
        <ele>314.4</ele>
        <time>2014-05-18T07:46:26.000Z</time>
      </trkpt>
      <trkpt lat="47.47349" lon="6.74229">
        <ele>314.7</ele>
        <time>2014-05-18T07:46:27.000Z</time>
      </trkpt>
      <trkpt lat="47.47344" lon="6.74233">
        <ele>315.7</ele>
        <time>2014-05-18T07:46:28.000Z</time>
      </trkpt>
      <trkpt lat="47.47339" lon="6.74236">
        <ele>315.2</ele>
        <time>2014-05-18T07:46:29.000Z</time>
      </trkpt>
      <trkpt lat="47.47334" lon="6.7424">
        <ele>314.5</ele>
        <time>2014-05-18T07:46:30.000Z</time>
      </trkpt>
      <trkpt lat="47.4733" lon="6.74241">
        <ele>314.3</ele>
        <time>2014-05-18T07:46:31.000Z</time>
      </trkpt>
      <trkpt lat="47.47325" lon="6.74244">
        <ele>314.5</ele>
        <time>2014-05-18T07:46:32.000Z</time>
      </trkpt>
      <trkpt lat="47.4732" lon="6.74247">
        <ele>314.8</ele>
        <time>2014-05-18T07:46:33.000Z</time>
      </trkpt>
      <trkpt lat="47.47315" lon="6.74248">
        <ele>315.2</ele>
        <time>2014-05-18T07:46:34.000Z</time>
      </trkpt>
      <trkpt lat="47.4731" lon="6.7425">
        <ele>314.8</ele>
        <time>2014-05-18T07:46:35.000Z</time>
      </trkpt>
      <trkpt lat="47.47304" lon="6.74252">
        <ele>314.6</ele>
        <time>2014-05-18T07:46:36.000Z</time>
      </trkpt>
      <trkpt lat="47.473" lon="6.74253">
        <ele>315.3</ele>
        <time>2014-05-18T07:46:37.000Z</time>
      </trkpt>
      <trkpt lat="47.47295" lon="6.74254">
        <ele>315.4</ele>
        <time>2014-05-18T07:46:38.000Z</time>
      </trkpt>
      <trkpt lat="47.4729" lon="6.74256">
        <ele>315.8</ele>
        <time>2014-05-18T07:46:39.000Z</time>
      </trkpt>
      <trkpt lat="47.47285" lon="6.74258">
        <ele>315.3</ele>
        <time>2014-05-18T07:46:40.000Z</time>
      </trkpt>
      <trkpt lat="47.4728" lon="6.74259">
        <ele>314.6</ele>
        <time>2014-05-18T07:46:40.999Z</time>
      </trkpt>
      <trkpt lat="47.47275" lon="6.7426">
        <ele>315.4</ele>
        <time>2014-05-18T07:46:42.000Z</time>
      </trkpt>
      <trkpt lat="47.47271" lon="6.7426">
        <ele>314.8</ele>
        <time>2014-05-18T07:46:43.000Z</time>
      </trkpt>
      <trkpt lat="47.47267" lon="6.74261">
        <ele>316</ele>
        <time>2014-05-18T07:46:44.000Z</time>
      </trkpt>
      <trkpt lat="47.47263" lon="6.74263">
        <ele>316.8</ele>
        <time>2014-05-18T07:46:45.000Z</time>
      </trkpt>
      <trkpt lat="47.47249" lon="6.74319">
        <ele>319</ele>
        <time>2014-05-18T07:46:54.000Z</time>
      </trkpt>
      <trkpt lat="47.47246" lon="6.74326">
        <ele>319.4</ele>
        <time>2014-05-18T07:46:55.000Z</time>
      </trkpt>
      <trkpt lat="47.47244" lon="6.74331">
        <ele>320.5</ele>
        <time>2014-05-18T07:46:56.000Z</time>
      </trkpt>
      <trkpt lat="47.47242" lon="6.74335">
        <ele>320.6</ele>
        <time>2014-05-18T07:46:57.000Z</time>
      </trkpt>
      <trkpt lat="47.47239" lon="6.7434">
        <ele>321.2</ele>
        <time>2014-05-18T07:46:58.000Z</time>
      </trkpt>
      <trkpt lat="47.47238" lon="6.74344">
        <ele>319.6</ele>
        <time>2014-05-18T07:46:59.000Z</time>
      </trkpt>
      <trkpt lat="47.47233" lon="6.74348">
        <ele>318.7</ele>
        <time>2014-05-18T07:47:00.000Z</time>
      </trkpt>
      <trkpt lat="47.4723" lon="6.74352">
        <ele>318.4</ele>
        <time>2014-05-18T07:47:01.000Z</time>
      </trkpt>
      <trkpt lat="47.47227" lon="6.74354">
        <ele>318.1</ele>
        <time>2014-05-18T07:47:02.000Z</time>
      </trkpt>
      <trkpt lat="47.47225" lon="6.74355">
        <ele>317.9</ele>
        <time>2014-05-18T07:47:03.000Z</time>
      </trkpt>
      <trkpt lat="47.47221" lon="6.74356">
        <ele>317.3</ele>
        <time>2014-05-18T07:47:04.000Z</time>
      </trkpt>
      <trkpt lat="47.47219" lon="6.74356">
        <ele>317.1</ele>
        <time>2014-05-18T07:47:05.000Z</time>
      </trkpt>
      <trkpt lat="47.47216" lon="6.74357">
        <ele>317.7</ele>
        <time>2014-05-18T07:47:06.000Z</time>
      </trkpt>
      <trkpt lat="47.47214" lon="6.74358">
        <ele>319</ele>
        <time>2014-05-18T07:47:07.000Z</time>
      </trkpt>
      <trkpt lat="47.47211" lon="6.74359">
        <ele>320.3</ele>
        <time>2014-05-18T07:47:08.000Z</time>
      </trkpt>
      <trkpt lat="47.47208" lon="6.7436">
        <ele>320.5</ele>
        <time>2014-05-18T07:47:09.000Z</time>
      </trkpt>
      <trkpt lat="47.47206" lon="6.7436">
        <ele>319.7</ele>
        <time>2014-05-18T07:47:10.000Z</time>
      </trkpt>
      <trkpt lat="47.47203" lon="6.74361">
        <ele>320.7</ele>
        <time>2014-05-18T07:47:11.000Z</time>
      </trkpt>
      <trkpt lat="47.47201" lon="6.74361">
        <ele>320.7</ele>
        <time>2014-05-18T07:47:12.000Z</time>
      </trkpt>
      <trkpt lat="47.47198" lon="6.74361">
        <ele>321.8</ele>
        <time>2014-05-18T07:47:13.000Z</time>
      </trkpt>
      <trkpt lat="47.47195" lon="6.74362">
        <ele>322</ele>
        <time>2014-05-18T07:47:14.000Z</time>
      </trkpt>
      <trkpt lat="47.47193" lon="6.74362">
        <ele>322.2</ele>
        <time>2014-05-18T07:47:15.000Z</time>
      </trkpt>
      <trkpt lat="47.4719" lon="6.74363">
        <ele>322.1</ele>
        <time>2014-05-18T07:47:16.000Z</time>
      </trkpt>
      <trkpt lat="47.47187" lon="6.74363">
        <ele>321.2</ele>
        <time>2014-05-18T07:47:17.000Z</time>
      </trkpt>
      <trkpt lat="47.47185" lon="6.74362">
        <ele>321.3</ele>
        <time>2014-05-18T07:47:18.000Z</time>
      </trkpt>
      <trkpt lat="47.47182" lon="6.74362">
        <ele>321.6</ele>
        <time>2014-05-18T07:47:19.000Z</time>
      </trkpt>
      <trkpt lat="47.4718" lon="6.74362">
        <ele>322.4</ele>
        <time>2014-05-18T07:47:20.000Z</time>
      </trkpt>
      <trkpt lat="47.47178" lon="6.74361">
        <ele>322.9</ele>
        <time>2014-05-18T07:47:21.000Z</time>
      </trkpt>
      <trkpt lat="47.47175" lon="6.74361">
        <ele>322.7</ele>
        <time>2014-05-18T07:47:22.000Z</time>
      </trkpt>
      <trkpt lat="47.47173" lon="6.74361">
        <ele>321.3</ele>
        <time>2014-05-18T07:47:23.000Z</time>
      </trkpt>
      <trkpt lat="47.4717" lon="6.74362">
        <ele>320.9</ele>
        <time>2014-05-18T07:47:24.000Z</time>
      </trkpt>
      <trkpt lat="47.47168" lon="6.74362">
        <ele>320.5</ele>
        <time>2014-05-18T07:47:25.000Z</time>
      </trkpt>
      <trkpt lat="47.47165" lon="6.74362">
        <ele>319.9</ele>
        <time>2014-05-18T07:47:26.000Z</time>
      </trkpt>
      <trkpt lat="47.47162" lon="6.74363">
        <ele>319.9</ele>
        <time>2014-05-18T07:47:27.000Z</time>
      </trkpt>
      <trkpt lat="47.47159" lon="6.74364">
        <ele>320.4</ele>
        <time>2014-05-18T07:47:28.000Z</time>
      </trkpt>
      <trkpt lat="47.47157" lon="6.74364">
        <ele>320.7</ele>
        <time>2014-05-18T07:47:29.000Z</time>
      </trkpt>
      <trkpt lat="47.47154" lon="6.74366">
        <ele>320.4</ele>
        <time>2014-05-18T07:47:30.000Z</time>
      </trkpt>
      <trkpt lat="47.47151" lon="6.74366">
        <ele>320.5</ele>
        <time>2014-05-18T07:47:31.000Z</time>
      </trkpt>
      <trkpt lat="47.47149" lon="6.74367">
        <ele>320.7</ele>
        <time>2014-05-18T07:47:32.000Z</time>
      </trkpt>
      <trkpt lat="47.47146" lon="6.74368">
        <ele>320.6</ele>
        <time>2014-05-18T07:47:33.000Z</time>
      </trkpt>
      <trkpt lat="47.47144" lon="6.74369">
        <ele>321</ele>
        <time>2014-05-18T07:47:34.000Z</time>
      </trkpt>
      <trkpt lat="47.47141" lon="6.74369">
        <ele>321.2</ele>
        <time>2014-05-18T07:47:35.000Z</time>
      </trkpt>
      <trkpt lat="47.47139" lon="6.7437">
        <ele>320.9</ele>
        <time>2014-05-18T07:47:36.000Z</time>
      </trkpt>
      <trkpt lat="47.47137" lon="6.74371">
        <ele>321.3</ele>
        <time>2014-05-18T07:47:37.000Z</time>
      </trkpt>
      <trkpt lat="47.47134" lon="6.74371">
        <ele>322.3</ele>
        <time>2014-05-18T07:47:38.000Z</time>
      </trkpt>
      <trkpt lat="47.47132" lon="6.74371">
        <ele>323.2</ele>
        <time>2014-05-18T07:47:39.000Z</time>
      </trkpt>
      <trkpt lat="47.4713" lon="6.74371">
        <ele>323.1</ele>
        <time>2014-05-18T07:47:40.000Z</time>
      </trkpt>
      <trkpt lat="47.47125" lon="6.74372">
        <ele>324.3</ele>
        <time>2014-05-18T07:47:42.000Z</time>
      </trkpt>
      <trkpt lat="47.47123" lon="6.74372">
        <ele>325.2</ele>
        <time>2014-05-18T07:47:43.000Z</time>
      </trkpt>
      <trkpt lat="47.47119" lon="6.74373">
        <ele>325.8</ele>
        <time>2014-05-18T07:47:45.000Z</time>
      </trkpt>
      <trkpt lat="47.47117" lon="6.74373">
        <ele>325.9</ele>
        <time>2014-05-18T07:47:46.000Z</time>
      </trkpt>
      <trkpt lat="47.47111" lon="6.74374">
        <ele>328.3</ele>
        <time>2014-05-18T07:47:49.000Z</time>
      </trkpt>
      <trkpt lat="47.47107" lon="6.74376">
        <ele>328</ele>
        <time>2014-05-18T07:47:51.000Z</time>
      </trkpt>
      <trkpt lat="47.47106" lon="6.74377">
        <ele>327.4</ele>
        <time>2014-05-18T07:47:52.000Z</time>
      </trkpt>
      <trkpt lat="47.47102" lon="6.74379">
        <ele>326.8</ele>
        <time>2014-05-18T07:47:54.000Z</time>
      </trkpt>
      <trkpt lat="47.471" lon="6.7438">
        <ele>326.7</ele>
        <time>2014-05-18T07:47:55.000Z</time>
      </trkpt>
      <trkpt lat="47.47097" lon="6.74382">
        <ele>327.7</ele>
        <time>2014-05-18T07:47:57.000Z</time>
      </trkpt>
      <trkpt lat="47.47095" lon="6.74383">
        <ele>328.2</ele>
        <time>2014-05-18T07:47:58.000Z</time>
      </trkpt>
      <trkpt lat="47.47092" lon="6.74384">
        <ele>325.8</ele>
        <time>2014-05-18T07:48:00.000Z</time>
      </trkpt>
      <trkpt lat="47.4709" lon="6.74385">
        <ele>326</ele>
        <time>2014-05-18T07:48:01.000Z</time>
      </trkpt>
      <trkpt lat="47.47086" lon="6.74386">
        <ele>326.9</ele>
        <time>2014-05-18T07:48:03.000Z</time>
      </trkpt>
      <trkpt lat="47.47084" lon="6.74387">
        <ele>327.2</ele>
        <time>2014-05-18T07:48:04.000Z</time>
      </trkpt>
      <trkpt lat="47.47081" lon="6.74388">
        <ele>329</ele>
        <time>2014-05-18T07:48:06.000Z</time>
      </trkpt>
      <trkpt lat="47.47079" lon="6.74389">
        <ele>331</ele>
        <time>2014-05-18T07:48:07.000Z</time>
      </trkpt>
      <trkpt lat="47.47075" lon="6.7439">
        <ele>332.7</ele>
        <time>2014-05-18T07:48:09.000Z</time>
      </trkpt>
      <trkpt lat="47.47073" lon="6.74391">
        <ele>332.8</ele>
        <time>2014-05-18T07:48:10.000Z</time>
      </trkpt>
      <trkpt lat="47.4707" lon="6.74392">
        <ele>334.2</ele>
        <time>2014-05-18T07:48:12.000Z</time>
      </trkpt>
      <trkpt lat="47.47068" lon="6.74393">
        <ele>334.9</ele>
        <time>2014-05-18T07:48:13.000Z</time>
      </trkpt>
      <trkpt lat="47.47065" lon="6.74395">
        <ele>337.3</ele>
        <time>2014-05-18T07:48:15.000Z</time>
      </trkpt>
      <trkpt lat="47.47064" lon="6.74397">
        <ele>335.3</ele>
        <time>2014-05-18T07:48:16.000Z</time>
      </trkpt>
      <trkpt lat="47.4706" lon="6.744">
        <ele>335.2</ele>
        <time>2014-05-18T07:48:18.000Z</time>
      </trkpt>
      <trkpt lat="47.47058" lon="6.74402">
        <ele>336.3</ele>
        <time>2014-05-18T07:48:19.000Z</time>
      </trkpt>
      <trkpt lat="47.47056" lon="6.74404">
        <ele>336</ele>
        <time>2014-05-18T07:48:20.000Z</time>
      </trkpt>
      <trkpt lat="47.47054" lon="6.74405">
        <ele>334.9</ele>
        <time>2014-05-18T07:48:21.000Z</time>
      </trkpt>
      <trkpt lat="47.4705" lon="6.74407">
        <ele>334.9</ele>
        <time>2014-05-18T07:48:23.000Z</time>
      </trkpt>
      <trkpt lat="47.47048" lon="6.74409">
        <ele>335.1</ele>
        <time>2014-05-18T07:48:24.000Z</time>
      </trkpt>
      <trkpt lat="47.47045" lon="6.74412">
        <ele>335</ele>
        <time>2014-05-18T07:48:26.000Z</time>
      </trkpt>
      <trkpt lat="47.47043" lon="6.74414">
        <ele>335.5</ele>
        <time>2014-05-18T07:48:27.000Z</time>
      </trkpt>
      <trkpt lat="47.47041" lon="6.74417">
        <ele>336</ele>
        <time>2014-05-18T07:48:29.000Z</time>
      </trkpt>
      <trkpt lat="47.47039" lon="6.74418">
        <ele>335.6</ele>
        <time>2014-05-18T07:48:30.000Z</time>
      </trkpt>
      <trkpt lat="47.47037" lon="6.74422">
        <ele>333.9</ele>
        <time>2014-05-18T07:48:32.000Z</time>
      </trkpt>
      <trkpt lat="47.47035" lon="6.74423">
        <ele>332.8</ele>
        <time>2014-05-18T07:48:33.000Z</time>
      </trkpt>
      <trkpt lat="47.47032" lon="6.74427">
        <ele>333.9</ele>
        <time>2014-05-18T07:48:35.000Z</time>
      </trkpt>
      <trkpt lat="47.47031" lon="6.74429">
        <ele>334.1</ele>
        <time>2014-05-18T07:48:36.000Z</time>
      </trkpt>
      <trkpt lat="47.47027" lon="6.74433">
        <ele>333.5</ele>
        <time>2014-05-18T07:48:39.000Z</time>
      </trkpt>
      <trkpt lat="47.47027" lon="6.74433">
        <ele>332.7</ele>
        <time>2014-05-18T07:48:40.000Z</time>
      </trkpt>
      <trkpt lat="47.47023" lon="6.74437">
        <ele>330</ele>
        <time>2014-05-18T07:48:45.000Z</time>
      </trkpt>
      <trkpt lat="47.47015" lon="6.74453">
        <ele>331.1</ele>
        <time>2014-05-18T07:48:54.000Z</time>
      </trkpt>
      <trkpt lat="47.47013" lon="6.74455">
        <ele>331.5</ele>
        <time>2014-05-18T07:48:55.000Z</time>
      </trkpt>
      <trkpt lat="47.47011" lon="6.74458">
        <ele>334</ele>
        <time>2014-05-18T07:48:56.000Z</time>
      </trkpt>
      <trkpt lat="47.47009" lon="6.74464">
        <ele>336.3</ele>
        <time>2014-05-18T07:48:58.001Z</time>
      </trkpt>
      <trkpt lat="47.47007" lon="6.74466">
        <ele>334.8</ele>
        <time>2014-05-18T07:48:59.000Z</time>
      </trkpt>
      <trkpt lat="47.47004" lon="6.74469">
        <ele>335.2</ele>
        <time>2014-05-18T07:49:01.000Z</time>
      </trkpt>
      <trkpt lat="47.47003" lon="6.74471">
        <ele>335.9</ele>
        <time>2014-05-18T07:49:02.000Z</time>
      </trkpt>
      <trkpt lat="47.47" lon="6.74473">
        <ele>335.1</ele>
        <time>2014-05-18T07:49:04.000Z</time>
      </trkpt>
      <trkpt lat="47.46998" lon="6.74474">
        <ele>335</ele>
        <time>2014-05-18T07:49:05.000Z</time>
      </trkpt>
      <trkpt lat="47.46994" lon="6.74477">
        <ele>334.1</ele>
        <time>2014-05-18T07:49:07.000Z</time>
      </trkpt>
      <trkpt lat="47.46993" lon="6.74479">
        <ele>334.7</ele>
        <time>2014-05-18T07:49:08.000Z</time>
      </trkpt>
      <trkpt lat="47.4699" lon="6.74483">
        <ele>337.5</ele>
        <time>2014-05-18T07:49:10.000Z</time>
      </trkpt>
      <trkpt lat="47.46988" lon="6.74485">
        <ele>338.1</ele>
        <time>2014-05-18T07:49:11.000Z</time>
      </trkpt>
      <trkpt lat="47.46986" lon="6.74488">
        <ele>337.5</ele>
        <time>2014-05-18T07:49:12.999Z</time>
      </trkpt>
      <trkpt lat="47.46984" lon="6.74491">
        <ele>340.7</ele>
        <time>2014-05-18T07:49:14.000Z</time>
      </trkpt>
      <trkpt lat="47.46982" lon="6.74493">
        <ele>342</ele>
        <time>2014-05-18T07:49:15.000Z</time>
      </trkpt>
      <trkpt lat="47.4698" lon="6.74496">
        <ele>341.5</ele>
        <time>2014-05-18T07:49:16.000Z</time>
      </trkpt>
      <trkpt lat="47.46977" lon="6.745">
        <ele>342.5</ele>
        <time>2014-05-18T07:49:18.000Z</time>
      </trkpt>
      <trkpt lat="47.46975" lon="6.74501">
        <ele>342.3</ele>
        <time>2014-05-18T07:49:19.000Z</time>
      </trkpt>
      <trkpt lat="47.46972" lon="6.74503">
        <ele>341.4</ele>
        <time>2014-05-18T07:49:21.000Z</time>
      </trkpt>
      <trkpt lat="47.4697" lon="6.74503">
        <ele>340.8</ele>
        <time>2014-05-18T07:49:22.000Z</time>
      </trkpt>
      <trkpt lat="47.46967" lon="6.74505">
        <ele>341.5</ele>
        <time>2014-05-18T07:49:24.000Z</time>
      </trkpt>
      <trkpt lat="47.46965" lon="6.74505">
        <ele>342.4</ele>
        <time>2014-05-18T07:49:25.000Z</time>
      </trkpt>
      <trkpt lat="47.46961" lon="6.74507">
        <ele>343.8</ele>
        <time>2014-05-18T07:49:27.000Z</time>
      </trkpt>
      <trkpt lat="47.46959" lon="6.74507">
        <ele>344.8</ele>
        <time>2014-05-18T07:49:28.000Z</time>
      </trkpt>
      <trkpt lat="47.46956" lon="6.74509">
        <ele>346.6</ele>
        <time>2014-05-18T07:49:29.000Z</time>
      </trkpt>
      <trkpt lat="47.46954" lon="6.7451">
        <ele>347.9</ele>
        <time>2014-05-18T07:49:30.000Z</time>
      </trkpt>
      <trkpt lat="47.46952" lon="6.74512">
        <ele>349.1</ele>
        <time>2014-05-18T07:49:31.000Z</time>
      </trkpt>
      <trkpt lat="47.46949" lon="6.74514">
        <ele>349.1</ele>
        <time>2014-05-18T07:49:32.000Z</time>
      </trkpt>
      <trkpt lat="47.46947" lon="6.74516">
        <ele>349.3</ele>
        <time>2014-05-18T07:49:33.000Z</time>
      </trkpt>
      <trkpt lat="47.46944" lon="6.74519">
        <ele>348.6</ele>
        <time>2014-05-18T07:49:34.000Z</time>
      </trkpt>
      <trkpt lat="47.46942" lon="6.74521">
        <ele>349.1</ele>
        <time>2014-05-18T07:49:35.000Z</time>
      </trkpt>
      <trkpt lat="47.4694" lon="6.74523">
        <ele>350</ele>
        <time>2014-05-18T07:49:36.000Z</time>
      </trkpt>
      <trkpt lat="47.46938" lon="6.74525">
        <ele>350.6</ele>
        <time>2014-05-18T07:49:37.000Z</time>
      </trkpt>
      <trkpt lat="47.46936" lon="6.74527">
        <ele>350.1</ele>
        <time>2014-05-18T07:49:38.000Z</time>
      </trkpt>
      <trkpt lat="47.46933" lon="6.74531">
        <ele>350.8</ele>
        <time>2014-05-18T07:49:40.000Z</time>
      </trkpt>
      <trkpt lat="47.46931" lon="6.74532">
        <ele>351.2</ele>
        <time>2014-05-18T07:49:41.000Z</time>
      </trkpt>
      <trkpt lat="47.46927" lon="6.74532">
        <ele>350.3</ele>
        <time>2014-05-18T07:49:43.000Z</time>
      </trkpt>
      <trkpt lat="47.46925" lon="6.74531">
        <ele>350</ele>
        <time>2014-05-18T07:49:44.000Z</time>
      </trkpt>
      <trkpt lat="47.46922" lon="6.74526">
        <ele>350.5</ele>
        <time>2014-05-18T07:49:46.000Z</time>
      </trkpt>
      <trkpt lat="47.46917" lon="6.74501">
        <ele>351.3</ele>
        <time>2014-05-18T07:49:54.000Z</time>
      </trkpt>
      <trkpt lat="47.46914" lon="6.74496">
        <ele>350.8</ele>
        <time>2014-05-18T07:49:56.000Z</time>
      </trkpt>
      <trkpt lat="47.46913" lon="6.74494">
        <ele>350.2</ele>
        <time>2014-05-18T07:49:57.000Z</time>
      </trkpt>
      <trkpt lat="47.46911" lon="6.74488">
        <ele>350.8</ele>
        <time>2014-05-18T07:49:59.000Z</time>
      </trkpt>
      <trkpt lat="47.4691" lon="6.74485">
        <ele>350.3</ele>
        <time>2014-05-18T07:50:00.000Z</time>
      </trkpt>
      <trkpt lat="47.46908" lon="6.7448">
        <ele>351.8</ele>
        <time>2014-05-18T07:50:02.000Z</time>
      </trkpt>
      <trkpt lat="47.46907" lon="6.74477">
        <ele>352.5</ele>
        <time>2014-05-18T07:50:03.000Z</time>
      </trkpt>
      <trkpt lat="47.46906" lon="6.74471">
        <ele>352.4</ele>
        <time>2014-05-18T07:50:05.000Z</time>
      </trkpt>
      <trkpt lat="47.46905" lon="6.74468">
        <ele>352.3</ele>
        <time>2014-05-18T07:50:06.000Z</time>
      </trkpt>
      <trkpt lat="47.46905" lon="6.74465">
        <ele>352.7</ele>
        <time>2014-05-18T07:50:07.000Z</time>
      </trkpt>
      <trkpt lat="47.46904" lon="6.74461">
        <ele>353.7</ele>
        <time>2014-05-18T07:50:08.000Z</time>
      </trkpt>
      <trkpt lat="47.46903" lon="6.74458">
        <ele>354.2</ele>
        <time>2014-05-18T07:50:09.000Z</time>
      </trkpt>
      <trkpt lat="47.46902" lon="6.74454">
        <ele>354.3</ele>
        <time>2014-05-18T07:50:10.000Z</time>
      </trkpt>
      <trkpt lat="47.46901" lon="6.74451">
        <ele>354.6</ele>
        <time>2014-05-18T07:50:11.000Z</time>
      </trkpt>
      <trkpt lat="47.469" lon="6.74448">
        <ele>355.2</ele>
        <time>2014-05-18T07:50:12.000Z</time>
      </trkpt>
      <trkpt lat="47.46899" lon="6.74442">
        <ele>355.8</ele>
        <time>2014-05-18T07:50:14.000Z</time>
      </trkpt>
      <trkpt lat="47.46898" lon="6.74439">
        <ele>356.2</ele>
        <time>2014-05-18T07:50:15.000Z</time>
      </trkpt>
      <trkpt lat="47.46897" lon="6.74434">
        <ele>356.3</ele>
        <time>2014-05-18T07:50:17.000Z</time>
      </trkpt>
      <trkpt lat="47.46896" lon="6.74431">
        <ele>356.4</ele>
        <time>2014-05-18T07:50:18.000Z</time>
      </trkpt>
      <trkpt lat="47.46895" lon="6.74426">
        <ele>357</ele>
        <time>2014-05-18T07:50:20.000Z</time>
      </trkpt>
      <trkpt lat="47.46894" lon="6.74423">
        <ele>356.8</ele>
        <time>2014-05-18T07:50:21.000Z</time>
      </trkpt>
      <trkpt lat="47.46893" lon="6.74418">
        <ele>358</ele>
        <time>2014-05-18T07:50:23.000Z</time>
      </trkpt>
      <trkpt lat="47.46892" lon="6.74415">
        <ele>358.5</ele>
        <time>2014-05-18T07:50:24.000Z</time>
      </trkpt>
      <trkpt lat="47.46891" lon="6.74411">
        <ele>358.1</ele>
        <time>2014-05-18T07:50:26.000Z</time>
      </trkpt>
      <trkpt lat="47.46891" lon="6.74409">
        <ele>358.1</ele>
        <time>2014-05-18T07:50:27.000Z</time>
      </trkpt>
      <trkpt lat="47.4689" lon="6.74403">
        <ele>358.1</ele>
        <time>2014-05-18T07:50:29.000Z</time>
      </trkpt>
      <trkpt lat="47.4689" lon="6.744">
        <ele>358.6</ele>
        <time>2014-05-18T07:50:30.000Z</time>
      </trkpt>
      <trkpt lat="47.46889" lon="6.74394">
        <ele>358.6</ele>
        <time>2014-05-18T07:50:32.000Z</time>
      </trkpt>
      <trkpt lat="47.46889" lon="6.74392">
        <ele>358.9</ele>
        <time>2014-05-18T07:50:33.000Z</time>
      </trkpt>
      <trkpt lat="47.46888" lon="6.74386">
        <ele>361.3</ele>
        <time>2014-05-18T07:50:35.000Z</time>
      </trkpt>
      <trkpt lat="47.46888" lon="6.74384">
        <ele>361.1</ele>
        <time>2014-05-18T07:50:36.000Z</time>
      </trkpt>
      <trkpt lat="47.46888" lon="6.7438">
        <ele>361</ele>
        <time>2014-05-18T07:50:38.000Z</time>
      </trkpt>
      <trkpt lat="47.46888" lon="6.74377">
        <ele>360.6</ele>
        <time>2014-05-18T07:50:39.000Z</time>
      </trkpt>
      <trkpt lat="47.46888" lon="6.74371">
        <ele>360.4</ele>
        <time>2014-05-18T07:50:42.000Z</time>
      </trkpt>
      <trkpt lat="47.46888" lon="6.74368">
        <ele>360.6</ele>
        <time>2014-05-18T07:50:43.000Z</time>
      </trkpt>
      <trkpt lat="47.46889" lon="6.74363">
        <ele>360.8</ele>
        <time>2014-05-18T07:50:45.000Z</time>
      </trkpt>
      <trkpt lat="47.46889" lon="6.7436">
        <ele>361.7</ele>
        <time>2014-05-18T07:50:46.000Z</time>
      </trkpt>
      <trkpt lat="47.46892" lon="6.74338">
        <ele>361.8</ele>
        <time>2014-05-18T07:50:54.000Z</time>
      </trkpt>
      <trkpt lat="47.46893" lon="6.74333">
        <ele>363.5</ele>
        <time>2014-05-18T07:50:56.000Z</time>
      </trkpt>
      <trkpt lat="47.46894" lon="6.74331">
        <ele>365.6</ele>
        <time>2014-05-18T07:50:57.000Z</time>
      </trkpt>
      <trkpt lat="47.46895" lon="6.74325">
        <ele>363.1</ele>
        <time>2014-05-18T07:50:59.000Z</time>
      </trkpt>
      <trkpt lat="47.46895" lon="6.74322">
        <ele>362.6</ele>
        <time>2014-05-18T07:51:00.000Z</time>
      </trkpt>
      <trkpt lat="47.46895" lon="6.74315">
        <ele>365.4</ele>
        <time>2014-05-18T07:51:03.000Z</time>
      </trkpt>
      <trkpt lat="47.46895" lon="6.74314">
        <ele>365.9</ele>
        <time>2014-05-18T07:51:04.000Z</time>
      </trkpt>
      <trkpt lat="47.46895" lon="6.74309">
        <ele>365.3</ele>
        <time>2014-05-18T07:51:09.000Z</time>
      </trkpt>
      <trkpt lat="47.46896" lon="6.74307">
        <ele>365.4</ele>
        <time>2014-05-18T07:51:10.000Z</time>
      </trkpt>
      <trkpt lat="47.46898" lon="6.74304">
        <ele>366.8</ele>
        <time>2014-05-18T07:51:13.000Z</time>
      </trkpt>
      <trkpt lat="47.469" lon="6.74302">
        <ele>367</ele>
        <time>2014-05-18T07:51:14.000Z</time>
      </trkpt>
      <trkpt lat="47.46902" lon="6.74299">
        <ele>367.1</ele>
        <time>2014-05-18T07:51:16.000Z</time>
      </trkpt>
      <trkpt lat="47.46903" lon="6.74297">
        <ele>366.6</ele>
        <time>2014-05-18T07:51:17.000Z</time>
      </trkpt>
      <trkpt lat="47.46904" lon="6.74293">
        <ele>367.2</ele>
        <time>2014-05-18T07:51:19.000Z</time>
      </trkpt>
      <trkpt lat="47.46905" lon="6.74291">
        <ele>367.7</ele>
        <time>2014-05-18T07:51:20.000Z</time>
      </trkpt>
      <trkpt lat="47.46906" lon="6.74286">
        <ele>365.5</ele>
        <time>2014-05-18T07:51:22.000Z</time>
      </trkpt>
      <trkpt lat="47.46906" lon="6.74283">
        <ele>362.8</ele>
        <time>2014-05-18T07:51:23.000Z</time>
      </trkpt>
      <trkpt lat="47.46906" lon="6.74278">
        <ele>362.5</ele>
        <time>2014-05-18T07:51:25.000Z</time>
      </trkpt>
      <trkpt lat="47.46905" lon="6.74275">
        <ele>362.7</ele>
        <time>2014-05-18T07:51:26.000Z</time>
      </trkpt>
      <trkpt lat="47.46905" lon="6.7427">
        <ele>363.3</ele>
        <time>2014-05-18T07:51:28.000Z</time>
      </trkpt>
      <trkpt lat="47.46905" lon="6.74267">
        <ele>363.9</ele>
        <time>2014-05-18T07:51:29.000Z</time>
      </trkpt>
      <trkpt lat="47.46905" lon="6.74263">
        <ele>365</ele>
        <time>2014-05-18T07:51:31.000Z</time>
      </trkpt>
      <trkpt lat="47.46905" lon="6.7426">
        <ele>365.4</ele>
        <time>2014-05-18T07:51:32.000Z</time>
      </trkpt>
      <trkpt lat="47.46906" lon="6.74256">
        <ele>365.7</ele>
        <time>2014-05-18T07:51:34.000Z</time>
      </trkpt>
      <trkpt lat="47.46906" lon="6.74253">
        <ele>366.2</ele>
        <time>2014-05-18T07:51:35.000Z</time>
      </trkpt>
      <trkpt lat="47.46906" lon="6.74248">
        <ele>371.4</ele>
        <time>2014-05-18T07:51:37.000Z</time>
      </trkpt>
      <trkpt lat="47.46906" lon="6.74246">
        <ele>373.1</ele>
        <time>2014-05-18T07:51:38.000Z</time>
      </trkpt>
      <trkpt lat="47.46906" lon="6.74241">
        <ele>376.9</ele>
        <time>2014-05-18T07:51:40.000Z</time>
      </trkpt>
      <trkpt lat="47.46906" lon="6.74238">
        <ele>377.6</ele>
        <time>2014-05-18T07:51:41.000Z</time>
      </trkpt>
      <trkpt lat="47.46907" lon="6.74232">
        <ele>377.8</ele>
        <time>2014-05-18T07:51:43.000Z</time>
      </trkpt>
      <trkpt lat="47.46908" lon="6.7423">
        <ele>378.6</ele>
        <time>2014-05-18T07:51:44.000Z</time>
      </trkpt>
      <trkpt lat="47.46908" lon="6.74227">
        <ele>381.6</ele>
        <time>2014-05-18T07:51:45.000Z</time>
      </trkpt>
      <trkpt lat="47.46908" lon="6.74213">
        <ele>391.7</ele>
        <time>2014-05-18T07:51:54.000Z</time>
      </trkpt>
      <trkpt lat="47.46909" lon="6.74208">
        <ele>391.1</ele>
        <time>2014-05-18T07:51:56.000Z</time>
      </trkpt>
      <trkpt lat="47.46909" lon="6.74206">
        <ele>389.9</ele>
        <time>2014-05-18T07:51:57.000Z</time>
      </trkpt>
      <trkpt lat="47.4691" lon="6.74201">
        <ele>389.6</ele>
        <time>2014-05-18T07:51:59.000Z</time>
      </trkpt>
      <trkpt lat="47.4691" lon="6.74198">
        <ele>390.2</ele>
        <time>2014-05-18T07:52:00.000Z</time>
      </trkpt>
      <trkpt lat="47.4691" lon="6.74192">
        <ele>392.8</ele>
        <time>2014-05-18T07:52:02.000Z</time>
      </trkpt>
      <trkpt lat="47.4691" lon="6.74189">
        <ele>393.5</ele>
        <time>2014-05-18T07:52:03.000Z</time>
      </trkpt>
      <trkpt lat="47.4691" lon="6.74182">
        <ele>395.7</ele>
        <time>2014-05-18T07:52:05.000Z</time>
      </trkpt>
      <trkpt lat="47.4691" lon="6.74179">
        <ele>394.4</ele>
        <time>2014-05-18T07:52:06.000Z</time>
      </trkpt>
      <trkpt lat="47.4691" lon="6.74176">
        <ele>393.8</ele>
        <time>2014-05-18T07:52:07.000Z</time>
      </trkpt>
      <trkpt lat="47.46909" lon="6.74172">
        <ele>393.4</ele>
        <time>2014-05-18T07:52:08.000Z</time>
      </trkpt>
      <trkpt lat="47.46909" lon="6.74169">
        <ele>392.8</ele>
        <time>2014-05-18T07:52:09.000Z</time>
      </trkpt>
      <trkpt lat="47.46909" lon="6.74165">
        <ele>392.4</ele>
        <time>2014-05-18T07:52:10.000Z</time>
      </trkpt>
      <trkpt lat="47.46907" lon="6.74159">
        <ele>392.7</ele>
        <time>2014-05-18T07:52:12.000Z</time>
      </trkpt>
      <trkpt lat="47.46906" lon="6.74156">
        <ele>393.3</ele>
        <time>2014-05-18T07:52:13.000Z</time>
      </trkpt>
      <trkpt lat="47.46903" lon="6.74152">
        <ele>393.8</ele>
        <time>2014-05-18T07:52:15.000Z</time>
      </trkpt>
      <trkpt lat="47.46903" lon="6.74149">
        <ele>393.6</ele>
        <time>2014-05-18T07:52:16.000Z</time>
      </trkpt>
      <trkpt lat="47.469" lon="6.74145">
        <ele>395</ele>
        <time>2014-05-18T07:52:18.000Z</time>
      </trkpt>
      <trkpt lat="47.46899" lon="6.74142">
        <ele>396.9</ele>
        <time>2014-05-18T07:52:19.000Z</time>
      </trkpt>
      <trkpt lat="47.46898" lon="6.74137">
        <ele>396.1</ele>
        <time>2014-05-18T07:52:21.000Z</time>
      </trkpt>
      <trkpt lat="47.46897" lon="6.74134">
        <ele>394.6</ele>
        <time>2014-05-18T07:52:22.000Z</time>
      </trkpt>
      <trkpt lat="47.46896" lon="6.74128">
        <ele>401.7</ele>
        <time>2014-05-18T07:52:24.000Z</time>
      </trkpt>
      <trkpt lat="47.46896" lon="6.74126">
        <ele>402.2</ele>
        <time>2014-05-18T07:52:25.000Z</time>
      </trkpt>
      <trkpt lat="47.46894" lon="6.7412">
        <ele>401.7</ele>
        <time>2014-05-18T07:52:27.000Z</time>
      </trkpt>
      <trkpt lat="47.46894" lon="6.74118">
        <ele>401.1</ele>
        <time>2014-05-18T07:52:28.000Z</time>
      </trkpt>
      <trkpt lat="47.46895" lon="6.74114">
        <ele>396.7</ele>
        <time>2014-05-18T07:52:31.000Z</time>
      </trkpt>
      <trkpt lat="47.46895" lon="6.74111">
        <ele>396.7</ele>
        <time>2014-05-18T07:52:32.000Z</time>
      </trkpt>
      <trkpt lat="47.46895" lon="6.74105">
        <ele>397.9</ele>
        <time>2014-05-18T07:52:34.000Z</time>
      </trkpt>
      <trkpt lat="47.46895" lon="6.74101">
        <ele>396.8</ele>
        <time>2014-05-18T07:52:35.000Z</time>
      </trkpt>
      <trkpt lat="47.46895" lon="6.74098">
        <ele>395.7</ele>
        <time>2014-05-18T07:52:36.000Z</time>
      </trkpt>
      <trkpt lat="47.46895" lon="6.74095">
        <ele>396.1</ele>
        <time>2014-05-18T07:52:37.000Z</time>
      </trkpt>
      <trkpt lat="47.46896" lon="6.74089">
        <ele>398.8</ele>
        <time>2014-05-18T07:52:39.000Z</time>
      </trkpt>
      <trkpt lat="47.46895" lon="6.74087">
        <ele>399.3</ele>
        <time>2014-05-18T07:52:40.000Z</time>
      </trkpt>
      <trkpt lat="47.46893" lon="6.74081">
        <ele>393</ele>
        <time>2014-05-18T07:52:43.000Z</time>
      </trkpt>
      <trkpt lat="47.46893" lon="6.74079">
        <ele>393.2</ele>
        <time>2014-05-18T07:52:44.000Z</time>
      </trkpt>
      <trkpt lat="47.46893" lon="6.74076">
        <ele>394.8</ele>
        <time>2014-05-18T07:52:46.000Z</time>
      </trkpt>
      <trkpt lat="47.46891" lon="6.74066">
        <ele>397.7</ele>
        <time>2014-05-18T07:52:54.000Z</time>
      </trkpt>
      <trkpt lat="47.46892" lon="6.74061">
        <ele>396.8</ele>
        <time>2014-05-18T07:52:57.000Z</time>
      </trkpt>
      <trkpt lat="47.46892" lon="6.74059">
        <ele>396.3</ele>
        <time>2014-05-18T07:52:58.000Z</time>
      </trkpt>
      <trkpt lat="47.46893" lon="6.74056">
        <ele>397.6</ele>
        <time>2014-05-18T07:53:00.000Z</time>
      </trkpt>
      <trkpt lat="47.46893" lon="6.74052">
        <ele>400.6</ele>
        <time>2014-05-18T07:53:01.000Z</time>
      </trkpt>
      <trkpt lat="47.46893" lon="6.74049">
        <ele>401</ele>
        <time>2014-05-18T07:53:02.000Z</time>
      </trkpt>
      <trkpt lat="47.46892" lon="6.74046">
        <ele>399.1</ele>
        <time>2014-05-18T07:53:03.000Z</time>
      </trkpt>
      <trkpt lat="47.4689" lon="6.7404">
        <ele>398.2</ele>
        <time>2014-05-18T07:53:05.000Z</time>
      </trkpt>
      <trkpt lat="47.4689" lon="6.74038">
        <ele>397.9</ele>
        <time>2014-05-18T07:53:06.000Z</time>
      </trkpt>
      <trkpt lat="47.46888" lon="6.74034">
        <ele>397.3</ele>
        <time>2014-05-18T07:53:08.000Z</time>
      </trkpt>
      <trkpt lat="47.46888" lon="6.74031">
        <ele>398.8</ele>
        <time>2014-05-18T07:53:09.000Z</time>
      </trkpt>
      <trkpt lat="47.46886" lon="6.74026">
        <ele>400.1</ele>
        <time>2014-05-18T07:53:11.000Z</time>
      </trkpt>
      <trkpt lat="47.46885" lon="6.74023">
        <ele>400.8</ele>
        <time>2014-05-18T07:53:12.000Z</time>
      </trkpt>
      <trkpt lat="47.46883" lon="6.74017">
        <ele>400.3</ele>
        <time>2014-05-18T07:53:14.000Z</time>
      </trkpt>
      <trkpt lat="47.46883" lon="6.74014">
        <ele>401.5</ele>
        <time>2014-05-18T07:53:15.000Z</time>
      </trkpt>
      <trkpt lat="47.46882" lon="6.74008">
        <ele>402.2</ele>
        <time>2014-05-18T07:53:17.000Z</time>
      </trkpt>
      <trkpt lat="47.46882" lon="6.74005">
        <ele>402.8</ele>
        <time>2014-05-18T07:53:18.000Z</time>
      </trkpt>
      <trkpt lat="47.46881" lon="6.73999">
        <ele>401.4</ele>
        <time>2014-05-18T07:53:20.000Z</time>
      </trkpt>
      <trkpt lat="47.46881" lon="6.73996">
        <ele>401.3</ele>
        <time>2014-05-18T07:53:21.000Z</time>
      </trkpt>
      <trkpt lat="47.46878" lon="6.73992">
        <ele>402.3</ele>
        <time>2014-05-18T07:53:23.000Z</time>
      </trkpt>
      <trkpt lat="47.46877" lon="6.7399">
        <ele>402.7</ele>
        <time>2014-05-18T07:53:24.000Z</time>
      </trkpt>
      <trkpt lat="47.46875" lon="6.73986">
        <ele>403</ele>
        <time>2014-05-18T07:53:26.000Z</time>
      </trkpt>
      <trkpt lat="47.46873" lon="6.73984">
        <ele>403.1</ele>
        <time>2014-05-18T07:53:27.000Z</time>
      </trkpt>
      <trkpt lat="47.46872" lon="6.73979">
        <ele>399.5</ele>
        <time>2014-05-18T07:53:29.000Z</time>
      </trkpt>
      <trkpt lat="47.46871" lon="6.73976">
        <ele>398.1</ele>
        <time>2014-05-18T07:53:30.000Z</time>
      </trkpt>
      <trkpt lat="47.46869" lon="6.7397">
        <ele>398.2</ele>
        <time>2014-05-18T07:53:33.000Z</time>
      </trkpt>
      <trkpt lat="47.46868" lon="6.73967">
        <ele>398.9</ele>
        <time>2014-05-18T07:53:34.000Z</time>
      </trkpt>
      <trkpt lat="47.46868" lon="6.73964">
        <ele>399.4</ele>
        <time>2014-05-18T07:53:35.000Z</time>
      </trkpt>
      <trkpt lat="47.46867" lon="6.7396">
        <ele>400.5</ele>
        <time>2014-05-18T07:53:36.000Z</time>
      </trkpt>
      <trkpt lat="47.46866" lon="6.73957">
        <ele>400</ele>
        <time>2014-05-18T07:53:37.000Z</time>
      </trkpt>
      <trkpt lat="47.46865" lon="6.73953">
        <ele>400.5</ele>
        <time>2014-05-18T07:53:38.000Z</time>
      </trkpt>
      <trkpt lat="47.46863" lon="6.73948">
        <ele>401.5</ele>
        <time>2014-05-18T07:53:40.000Z</time>
      </trkpt>
      <trkpt lat="47.46863" lon="6.73945">
        <ele>401.5</ele>
        <time>2014-05-18T07:53:41.000Z</time>
      </trkpt>
      <trkpt lat="47.46862" lon="6.7394">
        <ele>400.8</ele>
        <time>2014-05-18T07:53:43.000Z</time>
      </trkpt>
      <trkpt lat="47.46861" lon="6.73938">
        <ele>401.8</ele>
        <time>2014-05-18T07:53:44.000Z</time>
      </trkpt>
      <trkpt lat="47.4686" lon="6.73934">
        <ele>400.9</ele>
        <time>2014-05-18T07:53:46.000Z</time>
      </trkpt>
      <trkpt lat="47.46849" lon="6.73912">
        <ele>406.8</ele>
        <time>2014-05-18T07:53:54.000Z</time>
      </trkpt>
      <trkpt lat="47.46849" lon="6.73906">
        <ele>407.2</ele>
        <time>2014-05-18T07:53:56.000Z</time>
      </trkpt>
      <trkpt lat="47.46849" lon="6.73904">
        <ele>407.3</ele>
        <time>2014-05-18T07:53:57.000Z</time>
      </trkpt>
      <trkpt lat="47.46847" lon="6.739">
        <ele>403.7</ele>
        <time>2014-05-18T07:54:00.000Z</time>
      </trkpt>
      <trkpt lat="47.46846" lon="6.73898">
        <ele>407.1</ele>
        <time>2014-05-18T07:54:01.000Z</time>
      </trkpt>
      <trkpt lat="47.46843" lon="6.73893">
        <ele>410.5</ele>
        <time>2014-05-18T07:54:03.000Z</time>
      </trkpt>
      <trkpt lat="47.46842" lon="6.7389">
        <ele>411.6</ele>
        <time>2014-05-18T07:54:04.000Z</time>
      </trkpt>
      <trkpt lat="47.46842" lon="6.73885">
        <ele>411.1</ele>
        <time>2014-05-18T07:54:06.000Z</time>
      </trkpt>
      <trkpt lat="47.46842" lon="6.73883">
        <ele>411.6</ele>
        <time>2014-05-18T07:54:07.000Z</time>
      </trkpt>
      <trkpt lat="47.46842" lon="6.73878">
        <ele>411.2</ele>
        <time>2014-05-18T07:54:10.000Z</time>
      </trkpt>
      <trkpt lat="47.46841" lon="6.73876">
        <ele>410.6</ele>
        <time>2014-05-18T07:54:11.000Z</time>
      </trkpt>
      <trkpt lat="47.46839" lon="6.73871">
        <ele>409.6</ele>
        <time>2014-05-18T07:54:22.999Z</time>
      </trkpt>
      <trkpt lat="47.46839" lon="6.73871">
        <ele>410</ele>
        <time>2014-05-18T07:54:24.000Z</time>
      </trkpt>
      <trkpt lat="47.4684" lon="6.73868">
        <ele>409.8</ele>
        <time>2014-05-18T07:56:45.000Z</time>
      </trkpt>
      <trkpt lat="47.46838" lon="6.73862">
        <ele>411.8</ele>
        <time>2014-05-18T07:56:54.000Z</time>
      </trkpt>
      <trkpt lat="47.46837" lon="6.73856">
        <ele>408.2</ele>
        <time>2014-05-18T07:56:56.000Z</time>
      </trkpt>
      <trkpt lat="47.46837" lon="6.73855">
        <ele>407.7</ele>
        <time>2014-05-18T07:56:57.000Z</time>
      </trkpt>
      <trkpt lat="47.46837" lon="6.7385">
        <ele>406.6</ele>
        <time>2014-05-18T07:56:59.000Z</time>
      </trkpt>
      <trkpt lat="47.46836" lon="6.73847">
        <ele>407.9</ele>
        <time>2014-05-18T07:57:00.000Z</time>
      </trkpt>
      <trkpt lat="47.46835" lon="6.73843">
        <ele>408.5</ele>
        <time>2014-05-18T07:57:01.000Z</time>
      </trkpt>
      <trkpt lat="47.46834" lon="6.73839">
        <ele>407.6</ele>
        <time>2014-05-18T07:57:02.000Z</time>
      </trkpt>
      <trkpt lat="47.46832" lon="6.73835">
        <ele>405.5</ele>
        <time>2014-05-18T07:57:03.000Z</time>
      </trkpt>
      <trkpt lat="47.46832" lon="6.7383">
        <ele>407.2</ele>
        <time>2014-05-18T07:57:04.000Z</time>
      </trkpt>
      <trkpt lat="47.46831" lon="6.73826">
        <ele>408.3</ele>
        <time>2014-05-18T07:57:05.000Z</time>
      </trkpt>
      <trkpt lat="47.4683" lon="6.73821">
        <ele>406.7</ele>
        <time>2014-05-18T07:57:06.000Z</time>
      </trkpt>
      <trkpt lat="47.4683" lon="6.73816">
        <ele>405.8</ele>
        <time>2014-05-18T07:57:07.000Z</time>
      </trkpt>
      <trkpt lat="47.46829" lon="6.7381">
        <ele>405.4</ele>
        <time>2014-05-18T07:57:08.000Z</time>
      </trkpt>
      <trkpt lat="47.46828" lon="6.73805">
        <ele>406</ele>
        <time>2014-05-18T07:57:09.000Z</time>
      </trkpt>
      <trkpt lat="47.46827" lon="6.73799">
        <ele>404.8</ele>
        <time>2014-05-18T07:57:10.000Z</time>
      </trkpt>
      <trkpt lat="47.46824" lon="6.73794">
        <ele>402.2</ele>
        <time>2014-05-18T07:57:11.000Z</time>
      </trkpt>
      <trkpt lat="47.46821" lon="6.73789">
        <ele>403.1</ele>
        <time>2014-05-18T07:57:12.000Z</time>
      </trkpt>
      <trkpt lat="47.46818" lon="6.73786">
        <ele>402.7</ele>
        <time>2014-05-18T07:57:13.000Z</time>
      </trkpt>
      <trkpt lat="47.46814" lon="6.73784">
        <ele>400.9</ele>
        <time>2014-05-18T07:57:14.000Z</time>
      </trkpt>
      <trkpt lat="47.46809" lon="6.73783">
        <ele>400.6</ele>
        <time>2014-05-18T07:57:15.000Z</time>
      </trkpt>
      <trkpt lat="47.46804" lon="6.73783">
        <ele>401.6</ele>
        <time>2014-05-18T07:57:16.000Z</time>
      </trkpt>
      <trkpt lat="47.468" lon="6.73783">
        <ele>401.7</ele>
        <time>2014-05-18T07:57:17.000Z</time>
      </trkpt>
      <trkpt lat="47.46795" lon="6.73783">
        <ele>399.7</ele>
        <time>2014-05-18T07:57:18.000Z</time>
      </trkpt>
      <trkpt lat="47.4679" lon="6.73782">
        <ele>400</ele>
        <time>2014-05-18T07:57:19.000Z</time>
      </trkpt>
      <trkpt lat="47.46786" lon="6.73782">
        <ele>400</ele>
        <time>2014-05-18T07:57:20.000Z</time>
      </trkpt>
      <trkpt lat="47.46783" lon="6.73781">
        <ele>400.4</ele>
        <time>2014-05-18T07:57:21.000Z</time>
      </trkpt>
      <trkpt lat="47.46779" lon="6.73781">
        <ele>400.4</ele>
        <time>2014-05-18T07:57:22.000Z</time>
      </trkpt>
      <trkpt lat="47.46776" lon="6.73781">
        <ele>398.1</ele>
        <time>2014-05-18T07:57:23.000Z</time>
      </trkpt>
      <trkpt lat="47.46768" lon="6.73784">
        <ele>397.1</ele>
        <time>2014-05-18T07:57:24.000Z</time>
      </trkpt>
      <trkpt lat="47.46764" lon="6.73787">
        <ele>397.7</ele>
        <time>2014-05-18T07:57:25.000Z</time>
      </trkpt>
      <trkpt lat="47.4676" lon="6.7379">
        <ele>397.7</ele>
        <time>2014-05-18T07:57:26.000Z</time>
      </trkpt>
      <trkpt lat="47.46754" lon="6.73793">
        <ele>397.8</ele>
        <time>2014-05-18T07:57:27.000Z</time>
      </trkpt>
      <trkpt lat="47.46747" lon="6.73797">
        <ele>397.4</ele>
        <time>2014-05-18T07:57:28.000Z</time>
      </trkpt>
      <trkpt lat="47.46741" lon="6.73801">
        <ele>396.9</ele>
        <time>2014-05-18T07:57:29.000Z</time>
      </trkpt>
      <trkpt lat="47.46735" lon="6.73806">
        <ele>397.9</ele>
        <time>2014-05-18T07:57:30.000Z</time>
      </trkpt>
      <trkpt lat="47.46731" lon="6.73809">
        <ele>398.3</ele>
        <time>2014-05-18T07:57:31.000Z</time>
      </trkpt>
      <trkpt lat="47.46727" lon="6.73815">
        <ele>397.6</ele>
        <time>2014-05-18T07:57:32.000Z</time>
      </trkpt>
      <trkpt lat="47.46721" lon="6.73821">
        <ele>400.3</ele>
        <time>2014-05-18T07:57:33.000Z</time>
      </trkpt>
      <trkpt lat="47.46715" lon="6.73826">
        <ele>401</ele>
        <time>2014-05-18T07:57:34.000Z</time>
      </trkpt>
      <trkpt lat="47.46712" lon="6.73831">
        <ele>401.3</ele>
        <time>2014-05-18T07:57:35.000Z</time>
      </trkpt>
      <trkpt lat="47.46709" lon="6.73839">
        <ele>402.1</ele>
        <time>2014-05-18T07:57:36.000Z</time>
      </trkpt>
      <trkpt lat="47.46707" lon="6.73845">
        <ele>402.7</ele>
        <time>2014-05-18T07:57:37.000Z</time>
      </trkpt>
      <trkpt lat="47.46703" lon="6.73852">
        <ele>402.9</ele>
        <time>2014-05-18T07:57:38.000Z</time>
      </trkpt>
      <trkpt lat="47.46698" lon="6.73858">
        <ele>402.8</ele>
        <time>2014-05-18T07:57:39.000Z</time>
      </trkpt>
      <trkpt lat="47.46691" lon="6.73862">
        <ele>402.9</ele>
        <time>2014-05-18T07:57:40.000Z</time>
      </trkpt>
      <trkpt lat="47.46686" lon="6.73864">
        <ele>404.3</ele>
        <time>2014-05-18T07:57:41.000Z</time>
      </trkpt>
      <trkpt lat="47.46681" lon="6.73864">
        <ele>404.9</ele>
        <time>2014-05-18T07:57:42.000Z</time>
      </trkpt>
      <trkpt lat="47.46676" lon="6.73861">
        <ele>405.6</ele>
        <time>2014-05-18T07:57:43.000Z</time>
      </trkpt>
      <trkpt lat="47.4667" lon="6.73857">
        <ele>403.6</ele>
        <time>2014-05-18T07:57:44.000Z</time>
      </trkpt>
      <trkpt lat="47.4667" lon="6.73844">
        <ele>403.4</ele>
        <time>2014-05-18T07:57:45.000Z</time>
      </trkpt>
      <trkpt lat="47.4667" lon="6.73834">
        <ele>403.4</ele>
        <time>2014-05-18T07:57:46.000Z</time>
      </trkpt>
      <trkpt lat="47.46651" lon="6.73789">
        <ele>400.9</ele>
        <time>2014-05-18T07:57:54.000Z</time>
      </trkpt>
      <trkpt lat="47.46648" lon="6.73784">
        <ele>401.6</ele>
        <time>2014-05-18T07:57:55.000Z</time>
      </trkpt>
      <trkpt lat="47.46643" lon="6.7378">
        <ele>401.9</ele>
        <time>2014-05-18T07:57:56.000Z</time>
      </trkpt>
      <trkpt lat="47.46641" lon="6.73771">
        <ele>399.6</ele>
        <time>2014-05-18T07:57:57.000Z</time>
      </trkpt>
      <trkpt lat="47.46639" lon="6.73766">
        <ele>399.3</ele>
        <time>2014-05-18T07:57:58.000Z</time>
      </trkpt>
      <trkpt lat="47.46634" lon="6.73761">
        <ele>399.6</ele>
        <time>2014-05-18T07:57:59.000Z</time>
      </trkpt>
      <trkpt lat="47.46632" lon="6.7376">
        <ele>401.2</ele>
        <time>2014-05-18T07:58:00.000Z</time>
      </trkpt>
      <trkpt lat="47.46629" lon="6.73758">
        <ele>402.7</ele>
        <time>2014-05-18T07:58:01.000Z</time>
      </trkpt>
      <trkpt lat="47.46626" lon="6.73756">
        <ele>403.5</ele>
        <time>2014-05-18T07:58:02.000Z</time>
      </trkpt>
      <trkpt lat="47.46622" lon="6.73753">
        <ele>404.5</ele>
        <time>2014-05-18T07:58:03.000Z</time>
      </trkpt>
      <trkpt lat="47.46619" lon="6.7375">
        <ele>404.4</ele>
        <time>2014-05-18T07:58:04.000Z</time>
      </trkpt>
      <trkpt lat="47.46617" lon="6.73748">
        <ele>404.3</ele>
        <time>2014-05-18T07:58:05.000Z</time>
      </trkpt>
      <trkpt lat="47.46615" lon="6.73746">
        <ele>404.8</ele>
        <time>2014-05-18T07:58:06.000Z</time>
      </trkpt>
      <trkpt lat="47.46612" lon="6.73744">
        <ele>405.1</ele>
        <time>2014-05-18T07:58:07.000Z</time>
      </trkpt>
      <trkpt lat="47.46609" lon="6.73741">
        <ele>403.3</ele>
        <time>2014-05-18T07:58:09.000Z</time>
      </trkpt>
      <trkpt lat="47.46607" lon="6.7374">
        <ele>401.9</ele>
        <time>2014-05-18T07:58:10.000Z</time>
      </trkpt>
      <trkpt lat="47.46604" lon="6.7374">
        <ele>402.4</ele>
        <time>2014-05-18T07:58:12.000Z</time>
      </trkpt>
      <trkpt lat="47.46601" lon="6.7374">
        <ele>403.4</ele>
        <time>2014-05-18T07:58:13.000Z</time>
      </trkpt>
      <trkpt lat="47.46599" lon="6.7374">
        <ele>404.3</ele>
        <time>2014-05-18T07:58:14.000Z</time>
      </trkpt>
      <trkpt lat="47.46596" lon="6.73741">
        <ele>404.6</ele>
        <time>2014-05-18T07:58:15.000Z</time>
      </trkpt>
      <trkpt lat="47.46593" lon="6.7374">
        <ele>405.1</ele>
        <time>2014-05-18T07:58:16.000Z</time>
      </trkpt>
      <trkpt lat="47.4659" lon="6.7374">
        <ele>405.3</ele>
        <time>2014-05-18T07:58:17.000Z</time>
      </trkpt>
      <trkpt lat="47.46586" lon="6.73739">
        <ele>405.1</ele>
        <time>2014-05-18T07:58:18.000Z</time>
      </trkpt>
      <trkpt lat="47.46583" lon="6.73738">
        <ele>405.2</ele>
        <time>2014-05-18T07:58:19.000Z</time>
      </trkpt>
      <trkpt lat="47.4658" lon="6.73737">
        <ele>406</ele>
        <time>2014-05-18T07:58:20.000Z</time>
      </trkpt>
      <trkpt lat="47.46577" lon="6.73737">
        <ele>405</ele>
        <time>2014-05-18T07:58:21.000Z</time>
      </trkpt>
      <trkpt lat="47.46575" lon="6.73736">
        <ele>406.4</ele>
        <time>2014-05-18T07:58:22.000Z</time>
      </trkpt>
      <trkpt lat="47.46572" lon="6.73735">
        <ele>406.7</ele>
        <time>2014-05-18T07:58:23.000Z</time>
      </trkpt>
      <trkpt lat="47.46569" lon="6.73733">
        <ele>405.4</ele>
        <time>2014-05-18T07:58:24.000Z</time>
      </trkpt>
      <trkpt lat="47.46566" lon="6.73732">
        <ele>405.9</ele>
        <time>2014-05-18T07:58:25.000Z</time>
      </trkpt>
      <trkpt lat="47.46563" lon="6.7373">
        <ele>405.6</ele>
        <time>2014-05-18T07:58:26.000Z</time>
      </trkpt>
      <trkpt lat="47.46559" lon="6.73729">
        <ele>405.9</ele>
        <time>2014-05-18T07:58:27.000Z</time>
      </trkpt>
      <trkpt lat="47.46556" lon="6.73728">
        <ele>406</ele>
        <time>2014-05-18T07:58:28.000Z</time>
      </trkpt>
      <trkpt lat="47.46554" lon="6.73727">
        <ele>405.8</ele>
        <time>2014-05-18T07:58:29.000Z</time>
      </trkpt>
      <trkpt lat="47.46551" lon="6.73725">
        <ele>406.1</ele>
        <time>2014-05-18T07:58:30.000Z</time>
      </trkpt>
      <trkpt lat="47.46547" lon="6.73724">
        <ele>406.1</ele>
        <time>2014-05-18T07:58:31.000Z</time>
      </trkpt>
      <trkpt lat="47.46544" lon="6.73722">
        <ele>405.4</ele>
        <time>2014-05-18T07:58:32.000Z</time>
      </trkpt>
      <trkpt lat="47.4654" lon="6.73721">
        <ele>405</ele>
        <time>2014-05-18T07:58:33.000Z</time>
      </trkpt>
      <trkpt lat="47.46536" lon="6.73719">
        <ele>406</ele>
        <time>2014-05-18T07:58:34.000Z</time>
      </trkpt>
      <trkpt lat="47.46533" lon="6.73717">
        <ele>406.6</ele>
        <time>2014-05-18T07:58:35.000Z</time>
      </trkpt>
      <trkpt lat="47.46529" lon="6.73717">
        <ele>406.4</ele>
        <time>2014-05-18T07:58:36.000Z</time>
      </trkpt>
      <trkpt lat="47.46526" lon="6.73716">
        <ele>407.2</ele>
        <time>2014-05-18T07:58:37.000Z</time>
      </trkpt>
      <trkpt lat="47.46522" lon="6.73715">
        <ele>408.1</ele>
        <time>2014-05-18T07:58:38.000Z</time>
      </trkpt>
      <trkpt lat="47.46518" lon="6.73714">
        <ele>408.1</ele>
        <time>2014-05-18T07:58:39.000Z</time>
      </trkpt>
      <trkpt lat="47.46514" lon="6.73713">
        <ele>408.6</ele>
        <time>2014-05-18T07:58:40.000Z</time>
      </trkpt>
      <trkpt lat="47.46511" lon="6.73712">
        <ele>405.6</ele>
        <time>2014-05-18T07:58:41.000Z</time>
      </trkpt>
      <trkpt lat="47.46507" lon="6.73711">
        <ele>404.2</ele>
        <time>2014-05-18T07:58:43.000Z</time>
      </trkpt>
      <trkpt lat="47.46505" lon="6.73711">
        <ele>406.3</ele>
        <time>2014-05-18T07:58:44.000Z</time>
      </trkpt>
      <trkpt lat="47.46502" lon="6.73712">
        <ele>405.9</ele>
        <time>2014-05-18T07:58:45.000Z</time>
      </trkpt>
      <trkpt lat="47.46499" lon="6.73712">
        <ele>406.4</ele>
        <time>2014-05-18T07:58:46.000Z</time>
      </trkpt>
      <trkpt lat="47.46491" lon="6.73714">
        <ele>407.5</ele>
        <time>2014-05-18T07:58:49.000Z</time>
      </trkpt>
      <trkpt lat="47.46488" lon="6.73714">
        <ele>408</ele>
        <time>2014-05-18T07:58:50.000Z</time>
      </trkpt>
      <trkpt lat="47.46486" lon="6.73715">
        <ele>407.7</ele>
        <time>2014-05-18T07:58:51.000Z</time>
      </trkpt>
      <trkpt lat="47.46483" lon="6.73719">
        <ele>406.8</ele>
        <time>2014-05-18T07:58:53.000Z</time>
      </trkpt>
      <trkpt lat="47.46482" lon="6.73721">
        <ele>406.7</ele>
        <time>2014-05-18T07:58:54.000Z</time>
      </trkpt>
      <trkpt lat="47.46479" lon="6.73724">
        <ele>407.9</ele>
        <time>2014-05-18T07:58:56.000Z</time>
      </trkpt>
      <trkpt lat="47.46477" lon="6.73726">
        <ele>408.6</ele>
        <time>2014-05-18T07:58:57.000Z</time>
      </trkpt>
      <trkpt lat="47.46473" lon="6.73729">
        <ele>409.9</ele>
        <time>2014-05-18T07:58:59.000Z</time>
      </trkpt>
      <trkpt lat="47.46472" lon="6.73731">
        <ele>409.2</ele>
        <time>2014-05-18T07:59:00.000Z</time>
      </trkpt>
      <trkpt lat="47.46469" lon="6.73736">
        <ele>403.3</ele>
        <time>2014-05-18T07:59:04.000Z</time>
      </trkpt>
      <trkpt lat="47.46469" lon="6.73737">
        <ele>402.7</ele>
        <time>2014-05-18T07:59:05.000Z</time>
      </trkpt>
      <trkpt lat="47.46466" lon="6.73741">
        <ele>402.4</ele>
        <time>2014-05-18T07:59:08.000Z</time>
      </trkpt>
      <trkpt lat="47.46465" lon="6.73743">
        <ele>401.4</ele>
        <time>2014-05-18T07:59:09.000Z</time>
      </trkpt>
      <trkpt lat="47.46461" lon="6.73745">
        <ele>401.6</ele>
        <time>2014-05-18T07:59:11.000Z</time>
      </trkpt>
      <trkpt lat="47.46459" lon="6.73746">
        <ele>401.4</ele>
        <time>2014-05-18T07:59:12.000Z</time>
      </trkpt>
      <trkpt lat="47.46455" lon="6.73747">
        <ele>402.9</ele>
        <time>2014-05-18T07:59:14.000Z</time>
      </trkpt>
      <trkpt lat="47.46453" lon="6.73748">
        <ele>403.3</ele>
        <time>2014-05-18T07:59:15.000Z</time>
      </trkpt>
      <trkpt lat="47.46449" lon="6.73747">
        <ele>404.7</ele>
        <time>2014-05-18T07:59:17.000Z</time>
      </trkpt>
      <trkpt lat="47.46447" lon="6.73747">
        <ele>405.5</ele>
        <time>2014-05-18T07:59:18.000Z</time>
      </trkpt>
      <trkpt lat="47.46445" lon="6.73747">
        <ele>405.6</ele>
        <time>2014-05-18T07:59:19.000Z</time>
      </trkpt>
      <trkpt lat="47.46442" lon="6.73747">
        <ele>406.2</ele>
        <time>2014-05-18T07:59:20.000Z</time>
      </trkpt>
      <trkpt lat="47.46438" lon="6.73746">
        <ele>408.4</ele>
        <time>2014-05-18T07:59:22.000Z</time>
      </trkpt>
      <trkpt lat="47.46436" lon="6.73745">
        <ele>408.1</ele>
        <time>2014-05-18T07:59:23.000Z</time>
      </trkpt>
      <trkpt lat="47.46433" lon="6.73744">
        <ele>408.4</ele>
        <time>2014-05-18T07:59:24.000Z</time>
      </trkpt>
      <trkpt lat="47.46431" lon="6.73743">
        <ele>408.5</ele>
        <time>2014-05-18T07:59:25.000Z</time>
      </trkpt>
      <trkpt lat="47.46426" lon="6.73742">
        <ele>409</ele>
        <time>2014-05-18T07:59:27.000Z</time>
      </trkpt>
      <trkpt lat="47.46425" lon="6.73741">
        <ele>409.2</ele>
        <time>2014-05-18T07:59:28.000Z</time>
      </trkpt>
      <trkpt lat="47.46421" lon="6.7374">
        <ele>411.3</ele>
        <time>2014-05-18T07:59:31.000Z</time>
      </trkpt>
      <trkpt lat="47.46419" lon="6.7374">
        <ele>411.4</ele>
        <time>2014-05-18T07:59:32.000Z</time>
      </trkpt>
      <trkpt lat="47.46415" lon="6.73741">
        <ele>413.2</ele>
        <time>2014-05-18T07:59:35.000Z</time>
      </trkpt>
      <trkpt lat="47.46413" lon="6.73742">
        <ele>414.9</ele>
        <time>2014-05-18T07:59:36.000Z</time>
      </trkpt>
      <trkpt lat="47.4641" lon="6.73743">
        <ele>416.3</ele>
        <time>2014-05-18T07:59:38.000Z</time>
      </trkpt>
      <trkpt lat="47.46408" lon="6.73743">
        <ele>417</ele>
        <time>2014-05-18T07:59:39.000Z</time>
      </trkpt>
      <trkpt lat="47.46404" lon="6.73743">
        <ele>416.4</ele>
        <time>2014-05-18T07:59:41.000Z</time>
      </trkpt>
      <trkpt lat="47.46402" lon="6.73743">
        <ele>416</ele>
        <time>2014-05-18T07:59:41.999Z</time>
      </trkpt>
      <trkpt lat="47.46399" lon="6.73743">
        <ele>417.6</ele>
        <time>2014-05-18T07:59:43.000Z</time>
      </trkpt>
      <trkpt lat="47.46396" lon="6.73744">
        <ele>416.3</ele>
        <time>2014-05-18T07:59:44.000Z</time>
      </trkpt>
      <trkpt lat="47.46392" lon="6.73744">
        <ele>413.4</ele>
        <time>2014-05-18T07:59:46.000Z</time>
      </trkpt>
      <trkpt lat="47.46377" lon="6.73741">
        <ele>414.9</ele>
        <time>2014-05-18T07:59:54.000Z</time>
      </trkpt>
      <trkpt lat="47.46375" lon="6.7374">
        <ele>415.9</ele>
        <time>2014-05-18T07:59:55.000Z</time>
      </trkpt>
      <trkpt lat="47.46372" lon="6.73739">
        <ele>417.1</ele>
        <time>2014-05-18T07:59:56.000Z</time>
      </trkpt>
      <trkpt lat="47.46368" lon="6.73737">
        <ele>417.9</ele>
        <time>2014-05-18T07:59:58.000Z</time>
      </trkpt>
      <trkpt lat="47.46366" lon="6.73736">
        <ele>418.4</ele>
        <time>2014-05-18T07:59:59.000Z</time>
      </trkpt>
      <trkpt lat="47.46363" lon="6.73735">
        <ele>416.5</ele>
        <time>2014-05-18T08:00:01.000Z</time>
      </trkpt>
      <trkpt lat="47.4636" lon="6.73734">
        <ele>416.3</ele>
        <time>2014-05-18T08:00:02.000Z</time>
      </trkpt>
      <trkpt lat="47.46356" lon="6.73733">
        <ele>416.4</ele>
        <time>2014-05-18T08:00:04.000Z</time>
      </trkpt>
      <trkpt lat="47.46354" lon="6.73732">
        <ele>415.1</ele>
        <time>2014-05-18T08:00:05.000Z</time>
      </trkpt>
      <trkpt lat="47.4635" lon="6.73731">
        <ele>416</ele>
        <time>2014-05-18T08:00:07.000Z</time>
      </trkpt>
      <trkpt lat="47.46348" lon="6.73731">
        <ele>415.2</ele>
        <time>2014-05-18T08:00:08.000Z</time>
      </trkpt>
      <trkpt lat="47.46344" lon="6.73728">
        <ele>414.9</ele>
        <time>2014-05-18T08:00:11.000Z</time>
      </trkpt>
      <trkpt lat="47.46343" lon="6.73727">
        <ele>416.4</ele>
        <time>2014-05-18T08:00:12.000Z</time>
      </trkpt>
      <trkpt lat="47.4634" lon="6.73724">
        <ele>417.9</ele>
        <time>2014-05-18T08:00:14.000Z</time>
      </trkpt>
      <trkpt lat="47.46339" lon="6.73723">
        <ele>417.9</ele>
        <time>2014-05-18T08:00:15.000Z</time>
      </trkpt>
      <trkpt lat="47.46335" lon="6.73722">
        <ele>419.3</ele>
        <time>2014-05-18T08:00:20.000Z</time>
      </trkpt>
      <trkpt lat="47.46334" lon="6.73722">
        <ele>420.2</ele>
        <time>2014-05-18T08:00:21.000Z</time>
      </trkpt>
      <trkpt lat="47.46331" lon="6.73718">
        <ele>419.5</ele>
        <time>2014-05-18T08:00:25.000Z</time>
      </trkpt>
      <trkpt lat="47.4633" lon="6.73717">
        <ele>419.3</ele>
        <time>2014-05-18T08:00:26.000Z</time>
      </trkpt>
      <trkpt lat="47.46328" lon="6.73713">
        <ele>419.7</ele>
        <time>2014-05-18T08:00:28.000Z</time>
      </trkpt>
      <trkpt lat="47.46327" lon="6.73711">
        <ele>420.3</ele>
        <time>2014-05-18T08:00:29.000Z</time>
      </trkpt>
      <trkpt lat="47.46323" lon="6.73709">
        <ele>420.3</ele>
        <time>2014-05-18T08:00:37.000Z</time>
      </trkpt>
      <trkpt lat="47.46322" lon="6.73711">
        <ele>420.2</ele>
        <time>2014-05-18T08:00:38.000Z</time>
      </trkpt>
      <trkpt lat="47.46318" lon="6.73715">
        <ele>421.6</ele>
        <time>2014-05-18T08:00:40.000Z</time>
      </trkpt>
      <trkpt lat="47.46316" lon="6.73717">
        <ele>421.7</ele>
        <time>2014-05-18T08:00:41.000Z</time>
      </trkpt>
      <trkpt lat="47.46312" lon="6.73718">
        <ele>422.7</ele>
        <time>2014-05-18T08:00:43.000Z</time>
      </trkpt>
      <trkpt lat="47.4631" lon="6.73718">
        <ele>422.7</ele>
        <time>2014-05-18T08:00:44.000Z</time>
      </trkpt>
      <trkpt lat="47.46308" lon="6.73718">
        <ele>423.2</ele>
        <time>2014-05-18T08:00:45.000Z</time>
      </trkpt>
      <trkpt lat="47.46305" lon="6.73718">
        <ele>423.4</ele>
        <time>2014-05-18T08:00:46.000Z</time>
      </trkpt>
      <trkpt lat="47.46284" lon="6.73715">
        <ele>423</ele>
        <time>2014-05-18T08:00:54.000Z</time>
      </trkpt>
      <trkpt lat="47.46281" lon="6.73714">
        <ele>423.4</ele>
        <time>2014-05-18T08:00:55.000Z</time>
      </trkpt>
      <trkpt lat="47.46277" lon="6.73714">
        <ele>423.7</ele>
        <time>2014-05-18T08:00:56.000Z</time>
      </trkpt>
      <trkpt lat="47.46273" lon="6.73714">
        <ele>423.8</ele>
        <time>2014-05-18T08:00:57.000Z</time>
      </trkpt>
      <trkpt lat="47.4627" lon="6.73713">
        <ele>423.8</ele>
        <time>2014-05-18T08:00:58.000Z</time>
      </trkpt>
      <trkpt lat="47.46266" lon="6.73713">
        <ele>423.7</ele>
        <time>2014-05-18T08:00:59.000Z</time>
      </trkpt>
      <trkpt lat="47.46262" lon="6.73713">
        <ele>424.2</ele>
        <time>2014-05-18T08:01:00.000Z</time>
      </trkpt>
      <trkpt lat="47.46259" lon="6.73713">
        <ele>424.4</ele>
        <time>2014-05-18T08:01:01.000Z</time>
      </trkpt>
      <trkpt lat="47.46255" lon="6.73713">
        <ele>424.3</ele>
        <time>2014-05-18T08:01:02.000Z</time>
      </trkpt>
      <trkpt lat="47.46251" lon="6.73713">
        <ele>424.5</ele>
        <time>2014-05-18T08:01:03.000Z</time>
      </trkpt>
      <trkpt lat="47.46248" lon="6.73713">
        <ele>422.8</ele>
        <time>2014-05-18T08:01:04.000Z</time>
      </trkpt>
      <trkpt lat="47.46244" lon="6.73713">
        <ele>422.3</ele>
        <time>2014-05-18T08:01:05.000Z</time>
      </trkpt>
      <trkpt lat="47.46241" lon="6.73712">
        <ele>422.7</ele>
        <time>2014-05-18T08:01:06.000Z</time>
      </trkpt>
      <trkpt lat="47.46237" lon="6.73712">
        <ele>423.2</ele>
        <time>2014-05-18T08:01:07.000Z</time>
      </trkpt>
      <trkpt lat="47.46234" lon="6.73712">
        <ele>423.1</ele>
        <time>2014-05-18T08:01:08.000Z</time>
      </trkpt>
      <trkpt lat="47.4623" lon="6.73712">
        <ele>423.3</ele>
        <time>2014-05-18T08:01:09.000Z</time>
      </trkpt>
      <trkpt lat="47.46227" lon="6.73712">
        <ele>423.4</ele>
        <time>2014-05-18T08:01:10.000Z</time>
      </trkpt>
      <trkpt lat="47.46223" lon="6.73712">
        <ele>423.7</ele>
        <time>2014-05-18T08:01:11.000Z</time>
      </trkpt>
      <trkpt lat="47.4622" lon="6.73712">
        <ele>424.6</ele>
        <time>2014-05-18T08:01:12.000Z</time>
      </trkpt>
      <trkpt lat="47.46216" lon="6.73712">
        <ele>425.5</ele>
        <time>2014-05-18T08:01:13.000Z</time>
      </trkpt>
      <trkpt lat="47.46212" lon="6.73712">
        <ele>425.6</ele>
        <time>2014-05-18T08:01:14.000Z</time>
      </trkpt>
      <trkpt lat="47.46209" lon="6.73712">
        <ele>425.8</ele>
        <time>2014-05-18T08:01:15.000Z</time>
      </trkpt>
      <trkpt lat="47.46205" lon="6.73712">
        <ele>426</ele>
        <time>2014-05-18T08:01:16.000Z</time>
      </trkpt>
      <trkpt lat="47.46201" lon="6.73712">
        <ele>426.5</ele>
        <time>2014-05-18T08:01:17.000Z</time>
      </trkpt>
      <trkpt lat="47.46198" lon="6.73712">
        <ele>426.7</ele>
        <time>2014-05-18T08:01:18.000Z</time>
      </trkpt>
      <trkpt lat="47.46194" lon="6.73711">
        <ele>427.1</ele>
        <time>2014-05-18T08:01:19.000Z</time>
      </trkpt>
      <trkpt lat="47.4619" lon="6.73711">
        <ele>427.1</ele>
        <time>2014-05-18T08:01:20.000Z</time>
      </trkpt>
      <trkpt lat="47.46187" lon="6.73711">
        <ele>427.3</ele>
        <time>2014-05-18T08:01:21.000Z</time>
      </trkpt>
      <trkpt lat="47.46183" lon="6.73711">
        <ele>427</ele>
        <time>2014-05-18T08:01:22.000Z</time>
      </trkpt>
      <trkpt lat="47.46179" lon="6.7371">
        <ele>426.3</ele>
        <time>2014-05-18T08:01:23.000Z</time>
      </trkpt>
      <trkpt lat="47.46175" lon="6.73709">
        <ele>426</ele>
        <time>2014-05-18T08:01:24.000Z</time>
      </trkpt>
      <trkpt lat="47.46171" lon="6.73708">
        <ele>426.4</ele>
        <time>2014-05-18T08:01:25.000Z</time>
      </trkpt>
      <trkpt lat="47.46167" lon="6.73707">
        <ele>426.8</ele>
        <time>2014-05-18T08:01:26.000Z</time>
      </trkpt>
      <trkpt lat="47.46164" lon="6.73705">
        <ele>426.1</ele>
        <time>2014-05-18T08:01:27.000Z</time>
      </trkpt>
      <trkpt lat="47.4616" lon="6.73703">
        <ele>426.3</ele>
        <time>2014-05-18T08:01:28.000Z</time>
      </trkpt>
      <trkpt lat="47.46157" lon="6.73701">
        <ele>427.1</ele>
        <time>2014-05-18T08:01:29.000Z</time>
      </trkpt>
      <trkpt lat="47.46155" lon="6.73698">
        <ele>427</ele>
        <time>2014-05-18T08:01:30.000Z</time>
      </trkpt>
      <trkpt lat="47.46152" lon="6.73696">
        <ele>427.7</ele>
        <time>2014-05-18T08:01:31.000Z</time>
      </trkpt>
      <trkpt lat="47.4615" lon="6.73693">
        <ele>427.1</ele>
        <time>2014-05-18T08:01:32.000Z</time>
      </trkpt>
      <trkpt lat="47.46148" lon="6.73691">
        <ele>427.2</ele>
        <time>2014-05-18T08:01:33.000Z</time>
      </trkpt>
      <trkpt lat="47.46147" lon="6.73689">
        <ele>427.2</ele>
        <time>2014-05-18T08:01:34.000Z</time>
      </trkpt>
      <trkpt lat="47.46145" lon="6.73686">
        <ele>427.4</ele>
        <time>2014-05-18T08:01:35.000Z</time>
      </trkpt>
      <trkpt lat="47.46143" lon="6.73684">
        <ele>428.6</ele>
        <time>2014-05-18T08:01:36.000Z</time>
      </trkpt>
      <trkpt lat="47.4614" lon="6.73682">
        <ele>430.1</ele>
        <time>2014-05-18T08:01:37.000Z</time>
      </trkpt>
      <trkpt lat="47.46138" lon="6.73679">
        <ele>429.8</ele>
        <time>2014-05-18T08:01:38.000Z</time>
      </trkpt>
      <trkpt lat="47.46135" lon="6.73678">
        <ele>428.3</ele>
        <time>2014-05-18T08:01:39.000Z</time>
      </trkpt>
      <trkpt lat="47.46132" lon="6.73676">
        <ele>428</ele>
        <time>2014-05-18T08:01:40.000Z</time>
      </trkpt>
      <trkpt lat="47.46129" lon="6.73674">
        <ele>428.1</ele>
        <time>2014-05-18T08:01:41.000Z</time>
      </trkpt>
      <trkpt lat="47.46127" lon="6.73672">
        <ele>428.3</ele>
        <time>2014-05-18T08:01:42.000Z</time>
      </trkpt>
      <trkpt lat="47.46124" lon="6.73671">
        <ele>427.8</ele>
        <time>2014-05-18T08:01:43.000Z</time>
      </trkpt>
      <trkpt lat="47.46122" lon="6.73669">
        <ele>428</ele>
        <time>2014-05-18T08:01:44.000Z</time>
      </trkpt>
      <trkpt lat="47.46119" lon="6.73668">
        <ele>428.3</ele>
        <time>2014-05-18T08:01:45.000Z</time>
      </trkpt>
      <trkpt lat="47.46117" lon="6.73667">
        <ele>430.4</ele>
        <time>2014-05-18T08:01:46.000Z</time>
      </trkpt>
      <trkpt lat="47.46096" lon="6.7365">
        <ele>431.3</ele>
        <time>2014-05-18T08:01:54.000Z</time>
      </trkpt>
      <trkpt lat="47.46093" lon="6.73648">
        <ele>431.6</ele>
        <time>2014-05-18T08:01:55.000Z</time>
      </trkpt>
      <trkpt lat="47.4609" lon="6.73645">
        <ele>429.9</ele>
        <time>2014-05-18T08:01:56.000Z</time>
      </trkpt>
      <trkpt lat="47.46088" lon="6.73643">
        <ele>429.2</ele>
        <time>2014-05-18T08:01:57.000Z</time>
      </trkpt>
      <trkpt lat="47.46085" lon="6.73641">
        <ele>429.4</ele>
        <time>2014-05-18T08:01:58.000Z</time>
      </trkpt>
      <trkpt lat="47.46082" lon="6.73639">
        <ele>429.6</ele>
        <time>2014-05-18T08:01:59.000Z</time>
      </trkpt>
      <trkpt lat="47.4608" lon="6.73637">
        <ele>429.7</ele>
        <time>2014-05-18T08:02:00.000Z</time>
      </trkpt>
      <trkpt lat="47.46078" lon="6.73635">
        <ele>430</ele>
        <time>2014-05-18T08:02:01.000Z</time>
      </trkpt>
      <trkpt lat="47.46075" lon="6.73633">
        <ele>430.1</ele>
        <time>2014-05-18T08:02:02.000Z</time>
      </trkpt>
      <trkpt lat="47.46073" lon="6.7363">
        <ele>430.4</ele>
        <time>2014-05-18T08:02:03.000Z</time>
      </trkpt>
      <trkpt lat="47.46071" lon="6.73628">
        <ele>431</ele>
        <time>2014-05-18T08:02:04.000Z</time>
      </trkpt>
      <trkpt lat="47.46068" lon="6.73626">
        <ele>431.8</ele>
        <time>2014-05-18T08:02:05.000Z</time>
      </trkpt>
      <trkpt lat="47.46066" lon="6.73624">
        <ele>431.2</ele>
        <time>2014-05-18T08:02:06.000Z</time>
      </trkpt>
      <trkpt lat="47.46064" lon="6.73622">
        <ele>430.9</ele>
        <time>2014-05-18T08:02:07.000Z</time>
      </trkpt>
      <trkpt lat="47.46062" lon="6.7362">
        <ele>431.5</ele>
        <time>2014-05-18T08:02:08.000Z</time>
      </trkpt>
      <trkpt lat="47.46059" lon="6.73618">
        <ele>432.6</ele>
        <time>2014-05-18T08:02:09.000Z</time>
      </trkpt>
      <trkpt lat="47.46057" lon="6.73617">
        <ele>432.4</ele>
        <time>2014-05-18T08:02:10.000Z</time>
      </trkpt>
      <trkpt lat="47.46055" lon="6.73616">
        <ele>431.6</ele>
        <time>2014-05-18T08:02:11.000Z</time>
      </trkpt>
      <trkpt lat="47.46053" lon="6.73615">
        <ele>430.5</ele>
        <time>2014-05-18T08:02:12.000Z</time>
      </trkpt>
      <trkpt lat="47.4605" lon="6.73614">
        <ele>430.1</ele>
        <time>2014-05-18T08:02:13.000Z</time>
      </trkpt>
      <trkpt lat="47.46048" lon="6.73613">
        <ele>430.1</ele>
        <time>2014-05-18T08:02:14.000Z</time>
      </trkpt>
      <trkpt lat="47.46045" lon="6.73612">
        <ele>430.9</ele>
        <time>2014-05-18T08:02:15.000Z</time>
      </trkpt>
      <trkpt lat="47.46043" lon="6.7361">
        <ele>432.4</ele>
        <time>2014-05-18T08:02:16.000Z</time>
      </trkpt>
      <trkpt lat="47.46039" lon="6.73609">
        <ele>434.3</ele>
        <time>2014-05-18T08:02:18.000Z</time>
      </trkpt>
      <trkpt lat="47.46037" lon="6.73609">
        <ele>434.9</ele>
        <time>2014-05-18T08:02:19.000Z</time>
      </trkpt>
      <trkpt lat="47.46033" lon="6.73609">
        <ele>435</ele>
        <time>2014-05-18T08:02:21.000Z</time>
      </trkpt>
      <trkpt lat="47.46031" lon="6.73609">
        <ele>434.3</ele>
        <time>2014-05-18T08:02:22.000Z</time>
      </trkpt>
      <trkpt lat="47.46027" lon="6.73609">
        <ele>434.2</ele>
        <time>2014-05-18T08:02:24.000Z</time>
      </trkpt>
      <trkpt lat="47.46025" lon="6.7361">
        <ele>435</ele>
        <time>2014-05-18T08:02:25.000Z</time>
      </trkpt>
      <trkpt lat="47.46022" lon="6.7361">
        <ele>435.6</ele>
        <time>2014-05-18T08:02:27.000Z</time>
      </trkpt>
      <trkpt lat="47.4602" lon="6.73611">
        <ele>435.9</ele>
        <time>2014-05-18T08:02:28.000Z</time>
      </trkpt>
      <trkpt lat="47.46017" lon="6.73612">
        <ele>435.2</ele>
        <time>2014-05-18T08:02:30.000Z</time>
      </trkpt>
      <trkpt lat="47.46016" lon="6.73613">
        <ele>435.2</ele>
        <time>2014-05-18T08:02:31.000Z</time>
      </trkpt>
      <trkpt lat="47.46013" lon="6.73615">
        <ele>436.1</ele>
        <time>2014-05-18T08:02:33.000Z</time>
      </trkpt>
      <trkpt lat="47.46011" lon="6.73615">
        <ele>436</ele>
        <time>2014-05-18T08:02:34.000Z</time>
      </trkpt>
      <trkpt lat="47.46009" lon="6.73615">
        <ele>436.2</ele>
        <time>2014-05-18T08:02:35.000Z</time>
      </trkpt>
      <trkpt lat="47.46006" lon="6.73615">
        <ele>436.1</ele>
        <time>2014-05-18T08:02:36.000Z</time>
      </trkpt>
      <trkpt lat="47.46004" lon="6.73615">
        <ele>437.1</ele>
        <time>2014-05-18T08:02:37.000Z</time>
      </trkpt>
      <trkpt lat="47.46002" lon="6.73615">
        <ele>437.3</ele>
        <time>2014-05-18T08:02:38.000Z</time>
      </trkpt>
      <trkpt lat="47.45998" lon="6.73615">
        <ele>438</ele>
        <time>2014-05-18T08:02:40.000Z</time>
      </trkpt>
      <trkpt lat="47.45996" lon="6.73614">
        <ele>438.4</ele>
        <time>2014-05-18T08:02:41.000Z</time>
      </trkpt>
      <trkpt lat="47.45992" lon="6.73614">
        <ele>439.6</ele>
        <time>2014-05-18T08:02:43.000Z</time>
      </trkpt>
      <trkpt lat="47.45989" lon="6.73614">
        <ele>440.2</ele>
        <time>2014-05-18T08:02:44.000Z</time>
      </trkpt>
      <trkpt lat="47.45985" lon="6.73615">
        <ele>441</ele>
        <time>2014-05-18T08:02:46.000Z</time>
      </trkpt>
      <trkpt lat="47.45963" lon="6.73619">
        <ele>442.7</ele>
        <time>2014-05-18T08:02:54.000Z</time>
      </trkpt>
      <trkpt lat="47.45961" lon="6.7362">
        <ele>443.1</ele>
        <time>2014-05-18T08:02:55.000Z</time>
      </trkpt>
      <trkpt lat="47.45957" lon="6.73622">
        <ele>443.1</ele>
        <time>2014-05-18T08:02:56.000Z</time>
      </trkpt>
      <trkpt lat="47.45954" lon="6.73625">
        <ele>443.8</ele>
        <time>2014-05-18T08:02:57.000Z</time>
      </trkpt>
      <trkpt lat="47.45952" lon="6.73627">
        <ele>444.9</ele>
        <time>2014-05-18T08:02:58.000Z</time>
      </trkpt>
      <trkpt lat="47.4595" lon="6.7363">
        <ele>444.4</ele>
        <time>2014-05-18T08:02:59.000Z</time>
      </trkpt>
      <trkpt lat="47.45947" lon="6.73632">
        <ele>443.6</ele>
        <time>2014-05-18T08:03:00.000Z</time>
      </trkpt>
      <trkpt lat="47.45945" lon="6.73635">
        <ele>445.4</ele>
        <time>2014-05-18T08:03:01.000Z</time>
      </trkpt>
      <trkpt lat="47.45942" lon="6.73637">
        <ele>446</ele>
        <time>2014-05-18T08:03:02.000Z</time>
      </trkpt>
      <trkpt lat="47.4594" lon="6.7364">
        <ele>444.9</ele>
        <time>2014-05-18T08:03:03.000Z</time>
      </trkpt>
      <trkpt lat="47.45937" lon="6.73642">
        <ele>444.3</ele>
        <time>2014-05-18T08:03:04.000Z</time>
      </trkpt>
      <trkpt lat="47.45935" lon="6.73644">
        <ele>444.2</ele>
        <time>2014-05-18T08:03:05.000Z</time>
      </trkpt>
      <trkpt lat="47.45932" lon="6.73646">
        <ele>444.3</ele>
        <time>2014-05-18T08:03:06.000Z</time>
      </trkpt>
      <trkpt lat="47.4593" lon="6.73648">
        <ele>443.9</ele>
        <time>2014-05-18T08:03:07.000Z</time>
      </trkpt>
      <trkpt lat="47.45928" lon="6.73649">
        <ele>444.3</ele>
        <time>2014-05-18T08:03:08.000Z</time>
      </trkpt>
      <trkpt lat="47.45925" lon="6.73651">
        <ele>445.4</ele>
        <time>2014-05-18T08:03:09.000Z</time>
      </trkpt>
      <trkpt lat="47.45923" lon="6.73652">
        <ele>445.5</ele>
        <time>2014-05-18T08:03:10.000Z</time>
      </trkpt>
      <trkpt lat="47.4592" lon="6.73653">
        <ele>444.5</ele>
        <time>2014-05-18T08:03:11.000Z</time>
      </trkpt>
      <trkpt lat="47.45918" lon="6.73654">
        <ele>444</ele>
        <time>2014-05-18T08:03:12.000Z</time>
      </trkpt>
      <trkpt lat="47.45914" lon="6.73655">
        <ele>444.9</ele>
        <time>2014-05-18T08:03:14.000Z</time>
      </trkpt>
      <trkpt lat="47.45912" lon="6.73655">
        <ele>444.3</ele>
        <time>2014-05-18T08:03:15.000Z</time>
      </trkpt>
      <trkpt lat="47.45908" lon="6.73655">
        <ele>444.8</ele>
        <time>2014-05-18T08:03:17.000Z</time>
      </trkpt>
      <trkpt lat="47.45907" lon="6.73656">
        <ele>443.6</ele>
        <time>2014-05-18T08:03:18.000Z</time>
      </trkpt>
      <trkpt lat="47.45902" lon="6.73656">
        <ele>443.8</ele>
        <time>2014-05-18T08:03:20.000Z</time>
      </trkpt>
      <trkpt lat="47.459" lon="6.73656">
        <ele>443.4</ele>
        <time>2014-05-18T08:03:21.000Z</time>
      </trkpt>
      <trkpt lat="47.45898" lon="6.73655">
        <ele>444</ele>
        <time>2014-05-18T08:03:22.000Z</time>
      </trkpt>
      <trkpt lat="47.45895" lon="6.73655">
        <ele>444.8</ele>
        <time>2014-05-18T08:03:23.000Z</time>
      </trkpt>
      <trkpt lat="47.45892" lon="6.73654">
        <ele>444.9</ele>
        <time>2014-05-18T08:03:24.000Z</time>
      </trkpt>
      <trkpt lat="47.4589" lon="6.73653">
        <ele>445.2</ele>
        <time>2014-05-18T08:03:25.000Z</time>
      </trkpt>
      <trkpt lat="47.45887" lon="6.73653">
        <ele>444.2</ele>
        <time>2014-05-18T08:03:26.000Z</time>
      </trkpt>
      <trkpt lat="47.45885" lon="6.73654">
        <ele>443.7</ele>
        <time>2014-05-18T08:03:27.000Z</time>
      </trkpt>
      <trkpt lat="47.45882" lon="6.73654">
        <ele>443.3</ele>
        <time>2014-05-18T08:03:28.000Z</time>
      </trkpt>
      <trkpt lat="47.45879" lon="6.73654">
        <ele>442.4</ele>
        <time>2014-05-18T08:03:29.000Z</time>
      </trkpt>
      <trkpt lat="47.45876" lon="6.73654">
        <ele>442.5</ele>
        <time>2014-05-18T08:03:30.000Z</time>
      </trkpt>
      <trkpt lat="47.45874" lon="6.73654">
        <ele>442.5</ele>
        <time>2014-05-18T08:03:31.000Z</time>
      </trkpt>
      <trkpt lat="47.4587" lon="6.73654">
        <ele>441.8</ele>
        <time>2014-05-18T08:03:33.000Z</time>
      </trkpt>
      <trkpt lat="47.45868" lon="6.73654">
        <ele>442.7</ele>
        <time>2014-05-18T08:03:34.000Z</time>
      </trkpt>
      <trkpt lat="47.45866" lon="6.73654">
        <ele>442.8</ele>
        <time>2014-05-18T08:03:35.000Z</time>
      </trkpt>
      <trkpt lat="47.45864" lon="6.73654">
        <ele>443.6</ele>
        <time>2014-05-18T08:03:36.000Z</time>
      </trkpt>
      <trkpt lat="47.45861" lon="6.73653">
        <ele>444</ele>
        <time>2014-05-18T08:03:37.000Z</time>
      </trkpt>
      <trkpt lat="47.45858" lon="6.73653">
        <ele>443.9</ele>
        <time>2014-05-18T08:03:38.000Z</time>
      </trkpt>
      <trkpt lat="47.45855" lon="6.73653">
        <ele>444.6</ele>
        <time>2014-05-18T08:03:39.000Z</time>
      </trkpt>
      <trkpt lat="47.45852" lon="6.73653">
        <ele>445.2</ele>
        <time>2014-05-18T08:03:40.000Z</time>
      </trkpt>
      <trkpt lat="47.45849" lon="6.73654">
        <ele>445.8</ele>
        <time>2014-05-18T08:03:41.000Z</time>
      </trkpt>
      <trkpt lat="47.45846" lon="6.73654">
        <ele>446.9</ele>
        <time>2014-05-18T08:03:42.000Z</time>
      </trkpt>
      <trkpt lat="47.45843" lon="6.73655">
        <ele>447.1</ele>
        <time>2014-05-18T08:03:43.000Z</time>
      </trkpt>
      <trkpt lat="47.4584" lon="6.73655">
        <ele>447.6</ele>
        <time>2014-05-18T08:03:44.000Z</time>
      </trkpt>
      <trkpt lat="47.45837" lon="6.73655">
        <ele>448.1</ele>
        <time>2014-05-18T08:03:45.000Z</time>
      </trkpt>
      <trkpt lat="47.45834" lon="6.73656">
        <ele>448.4</ele>
        <time>2014-05-18T08:03:46.000Z</time>
      </trkpt>
      <trkpt lat="47.45812" lon="6.73657">
        <ele>450.8</ele>
        <time>2014-05-18T08:03:54.000Z</time>
      </trkpt>
      <trkpt lat="47.45809" lon="6.73657">
        <ele>451.9</ele>
        <time>2014-05-18T08:03:55.000Z</time>
      </trkpt>
      <trkpt lat="47.45805" lon="6.73658">
        <ele>452.5</ele>
        <time>2014-05-18T08:03:56.000Z</time>
      </trkpt>
      <trkpt lat="47.45803" lon="6.73658">
        <ele>452.5</ele>
        <time>2014-05-18T08:03:57.000Z</time>
      </trkpt>
      <trkpt lat="47.458" lon="6.73659">
        <ele>452.9</ele>
        <time>2014-05-18T08:03:58.000Z</time>
      </trkpt>
      <trkpt lat="47.45797" lon="6.73659">
        <ele>454.4</ele>
        <time>2014-05-18T08:03:59.000Z</time>
      </trkpt>
      <trkpt lat="47.45794" lon="6.7366">
        <ele>453</ele>
        <time>2014-05-18T08:04:00.000Z</time>
      </trkpt>
      <trkpt lat="47.45791" lon="6.73661">
        <ele>452.9</ele>
        <time>2014-05-18T08:04:01.000Z</time>
      </trkpt>
      <trkpt lat="47.45789" lon="6.73662">
        <ele>453.2</ele>
        <time>2014-05-18T08:04:02.000Z</time>
      </trkpt>
      <trkpt lat="47.45787" lon="6.73662">
        <ele>453.8</ele>
        <time>2014-05-18T08:04:03.000Z</time>
      </trkpt>
      <trkpt lat="47.45784" lon="6.73663">
        <ele>453.9</ele>
        <time>2014-05-18T08:04:04.000Z</time>
      </trkpt>
      <trkpt lat="47.45782" lon="6.73663">
        <ele>454</ele>
        <time>2014-05-18T08:04:05.000Z</time>
      </trkpt>
      <trkpt lat="47.45779" lon="6.73664">
        <ele>454.8</ele>
        <time>2014-05-18T08:04:06.000Z</time>
      </trkpt>
      <trkpt lat="47.45776" lon="6.73664">
        <ele>455.4</ele>
        <time>2014-05-18T08:04:07.000Z</time>
      </trkpt>
      <trkpt lat="47.45774" lon="6.73664">
        <ele>456</ele>
        <time>2014-05-18T08:04:08.000Z</time>
      </trkpt>
      <trkpt lat="47.45771" lon="6.73665">
        <ele>456.6</ele>
        <time>2014-05-18T08:04:09.000Z</time>
      </trkpt>
      <trkpt lat="47.45769" lon="6.73665">
        <ele>457.6</ele>
        <time>2014-05-18T08:04:10.000Z</time>
      </trkpt>
      <trkpt lat="47.45765" lon="6.73665">
        <ele>456.3</ele>
        <time>2014-05-18T08:04:12.000Z</time>
      </trkpt>
      <trkpt lat="47.45762" lon="6.73665">
        <ele>455.9</ele>
        <time>2014-05-18T08:04:13.000Z</time>
      </trkpt>
      <trkpt lat="47.4576" lon="6.73665">
        <ele>455.9</ele>
        <time>2014-05-18T08:04:14.000Z</time>
      </trkpt>
      <trkpt lat="47.45757" lon="6.73665">
        <ele>456</ele>
        <time>2014-05-18T08:04:15.000Z</time>
      </trkpt>
      <trkpt lat="47.45755" lon="6.73665">
        <ele>453.6</ele>
        <time>2014-05-18T08:04:16.000Z</time>
      </trkpt>
      <trkpt lat="47.45752" lon="6.73665">
        <ele>453.4</ele>
        <time>2014-05-18T08:04:17.000Z</time>
      </trkpt>
      <trkpt lat="47.45749" lon="6.73665">
        <ele>452.5</ele>
        <time>2014-05-18T08:04:18.000Z</time>
      </trkpt>
      <trkpt lat="47.45747" lon="6.73665">
        <ele>452.9</ele>
        <time>2014-05-18T08:04:19.000Z</time>
      </trkpt>
      <trkpt lat="47.45744" lon="6.73665">
        <ele>453.5</ele>
        <time>2014-05-18T08:04:20.000Z</time>
      </trkpt>
      <trkpt lat="47.45741" lon="6.73664">
        <ele>453.3</ele>
        <time>2014-05-18T08:04:21.000Z</time>
      </trkpt>
      <trkpt lat="47.45738" lon="6.73664">
        <ele>454.2</ele>
        <time>2014-05-18T08:04:22.000Z</time>
      </trkpt>
      <trkpt lat="47.45736" lon="6.73664">
        <ele>454.7</ele>
        <time>2014-05-18T08:04:23.000Z</time>
      </trkpt>
      <trkpt lat="47.45733" lon="6.73663">
        <ele>455.7</ele>
        <time>2014-05-18T08:04:24.000Z</time>
      </trkpt>
      <trkpt lat="47.4573" lon="6.73663">
        <ele>456.5</ele>
        <time>2014-05-18T08:04:25.000Z</time>
      </trkpt>
      <trkpt lat="47.45727" lon="6.73663">
        <ele>456.1</ele>
        <time>2014-05-18T08:04:26.000Z</time>
      </trkpt>
      <trkpt lat="47.45725" lon="6.73663">
        <ele>455.9</ele>
        <time>2014-05-18T08:04:27.000Z</time>
      </trkpt>
      <trkpt lat="47.45722" lon="6.73663">
        <ele>455</ele>
        <time>2014-05-18T08:04:28.000Z</time>
      </trkpt>
      <trkpt lat="47.45719" lon="6.73664">
        <ele>455.2</ele>
        <time>2014-05-18T08:04:29.000Z</time>
      </trkpt>
      <trkpt lat="47.45717" lon="6.73664">
        <ele>455.5</ele>
        <time>2014-05-18T08:04:30.000Z</time>
      </trkpt>
      <trkpt lat="47.45714" lon="6.73664">
        <ele>455.8</ele>
        <time>2014-05-18T08:04:31.000Z</time>
      </trkpt>
      <trkpt lat="47.4571" lon="6.73664">
        <ele>454.4</ele>
        <time>2014-05-18T08:04:33.000Z</time>
      </trkpt>
      <trkpt lat="47.45707" lon="6.73665">
        <ele>453.7</ele>
        <time>2014-05-18T08:04:34.000Z</time>
      </trkpt>
      <trkpt lat="47.45704" lon="6.73665">
        <ele>454</ele>
        <time>2014-05-18T08:04:35.000Z</time>
      </trkpt>
      <trkpt lat="47.45702" lon="6.73666">
        <ele>452.5</ele>
        <time>2014-05-18T08:04:36.000Z</time>
      </trkpt>
      <trkpt lat="47.45699" lon="6.73667">
        <ele>451.7</ele>
        <time>2014-05-18T08:04:37.000Z</time>
      </trkpt>
      <trkpt lat="47.45696" lon="6.73667">
        <ele>451.5</ele>
        <time>2014-05-18T08:04:38.000Z</time>
      </trkpt>
      <trkpt lat="47.45693" lon="6.73668">
        <ele>451.5</ele>
        <time>2014-05-18T08:04:39.000Z</time>
      </trkpt>
      <trkpt lat="47.4569" lon="6.73668">
        <ele>451.6</ele>
        <time>2014-05-18T08:04:40.000Z</time>
      </trkpt>
      <trkpt lat="47.45687" lon="6.73668">
        <ele>451.7</ele>
        <time>2014-05-18T08:04:41.000Z</time>
      </trkpt>
      <trkpt lat="47.45685" lon="6.73669">
        <ele>452.2</ele>
        <time>2014-05-18T08:04:42.000Z</time>
      </trkpt>
      <trkpt lat="47.45682" lon="6.73669">
        <ele>452.2</ele>
        <time>2014-05-18T08:04:43.000Z</time>
      </trkpt>
      <trkpt lat="47.45678" lon="6.7367">
        <ele>453.4</ele>
        <time>2014-05-18T08:04:44.000Z</time>
      </trkpt>
      <trkpt lat="47.45674" lon="6.73671">
        <ele>454.5</ele>
        <time>2014-05-18T08:04:45.000Z</time>
      </trkpt>
      <trkpt lat="47.45671" lon="6.73672">
        <ele>454.5</ele>
        <time>2014-05-18T08:04:46.000Z</time>
      </trkpt>
      <trkpt lat="47.45667" lon="6.73672">
        <ele>454.6</ele>
        <time>2014-05-18T08:04:47.000Z</time>
      </trkpt>
      <trkpt lat="47.45638" lon="6.73676">
        <ele>456.4</ele>
        <time>2014-05-18T08:04:55.000Z</time>
      </trkpt>
      <trkpt lat="47.45635" lon="6.73675">
        <ele>456.9</ele>
        <time>2014-05-18T08:04:56.000Z</time>
      </trkpt>
      <trkpt lat="47.45633" lon="6.73676">
        <ele>457.1</ele>
        <time>2014-05-18T08:04:57.000Z</time>
      </trkpt>
      <trkpt lat="47.4563" lon="6.73676">
        <ele>457.8</ele>
        <time>2014-05-18T08:04:58.000Z</time>
      </trkpt>
      <trkpt lat="47.45627" lon="6.73677">
        <ele>457.3</ele>
        <time>2014-05-18T08:04:59.000Z</time>
      </trkpt>
      <trkpt lat="47.45625" lon="6.73678">
        <ele>456.3</ele>
        <time>2014-05-18T08:05:00.000Z</time>
      </trkpt>
      <trkpt lat="47.45622" lon="6.73678">
        <ele>454.7</ele>
        <time>2014-05-18T08:05:01.000Z</time>
      </trkpt>
      <trkpt lat="47.45619" lon="6.73678">
        <ele>453</ele>
        <time>2014-05-18T08:05:02.000Z</time>
      </trkpt>
      <trkpt lat="47.45615" lon="6.73677">
        <ele>452.2</ele>
        <time>2014-05-18T08:05:03.000Z</time>
      </trkpt>
      <trkpt lat="47.45612" lon="6.73677">
        <ele>451.8</ele>
        <time>2014-05-18T08:05:04.000Z</time>
      </trkpt>
      <trkpt lat="47.45609" lon="6.73677">
        <ele>452.5</ele>
        <time>2014-05-18T08:05:05.000Z</time>
      </trkpt>
      <trkpt lat="47.45605" lon="6.73677">
        <ele>452.3</ele>
        <time>2014-05-18T08:05:06.000Z</time>
      </trkpt>
      <trkpt lat="47.45601" lon="6.73676">
        <ele>453</ele>
        <time>2014-05-18T08:05:07.000Z</time>
      </trkpt>
      <trkpt lat="47.45597" lon="6.73675">
        <ele>452.9</ele>
        <time>2014-05-18T08:05:08.000Z</time>
      </trkpt>
      <trkpt lat="47.45593" lon="6.73674">
        <ele>453.9</ele>
        <time>2014-05-18T08:05:09.000Z</time>
      </trkpt>
      <trkpt lat="47.45589" lon="6.73674">
        <ele>454.7</ele>
        <time>2014-05-18T08:05:10.000Z</time>
      </trkpt>
      <trkpt lat="47.45585" lon="6.73674">
        <ele>454.8</ele>
        <time>2014-05-18T08:05:11.000Z</time>
      </trkpt>
      <trkpt lat="47.45581" lon="6.73674">
        <ele>454.9</ele>
        <time>2014-05-18T08:05:12.000Z</time>
      </trkpt>
      <trkpt lat="47.45577" lon="6.73674">
        <ele>455.4</ele>
        <time>2014-05-18T08:05:13.000Z</time>
      </trkpt>
      <trkpt lat="47.45573" lon="6.73675">
        <ele>456.7</ele>
        <time>2014-05-18T08:05:14.000Z</time>
      </trkpt>
      <trkpt lat="47.45569" lon="6.73676">
        <ele>456.8</ele>
        <time>2014-05-18T08:05:15.000Z</time>
      </trkpt>
      <trkpt lat="47.45565" lon="6.73676">
        <ele>456.3</ele>
        <time>2014-05-18T08:05:16.000Z</time>
      </trkpt>
      <trkpt lat="47.45561" lon="6.73676">
        <ele>454.6</ele>
        <time>2014-05-18T08:05:17.000Z</time>
      </trkpt>
      <trkpt lat="47.45557" lon="6.73676">
        <ele>454.4</ele>
        <time>2014-05-18T08:05:18.000Z</time>
      </trkpt>
      <trkpt lat="47.45554" lon="6.73675">
        <ele>453.2</ele>
        <time>2014-05-18T08:05:19.000Z</time>
      </trkpt>
      <trkpt lat="47.45548" lon="6.73673">
        <ele>449.2</ele>
        <time>2014-05-18T08:05:20.000Z</time>
      </trkpt>
      <trkpt lat="47.45543" lon="6.73671">
        <ele>449.2</ele>
        <time>2014-05-18T08:05:21.000Z</time>
      </trkpt>
      <trkpt lat="47.45539" lon="6.73668">
        <ele>449.2</ele>
        <time>2014-05-18T08:05:22.000Z</time>
      </trkpt>
      <trkpt lat="47.45535" lon="6.73669">
        <ele>448.9</ele>
        <time>2014-05-18T08:05:23.000Z</time>
      </trkpt>
      <trkpt lat="47.45532" lon="6.73667">
        <ele>448.6</ele>
        <time>2014-05-18T08:05:24.000Z</time>
      </trkpt>
      <trkpt lat="47.45528" lon="6.73665">
        <ele>448.2</ele>
        <time>2014-05-18T08:05:25.000Z</time>
      </trkpt>
      <trkpt lat="47.45523" lon="6.73661">
        <ele>448.4</ele>
        <time>2014-05-18T08:05:26.000Z</time>
      </trkpt>
      <trkpt lat="47.45519" lon="6.73659">
        <ele>449.1</ele>
        <time>2014-05-18T08:05:27.000Z</time>
      </trkpt>
      <trkpt lat="47.45514" lon="6.73658">
        <ele>449.4</ele>
        <time>2014-05-18T08:05:28.000Z</time>
      </trkpt>
      <trkpt lat="47.45502" lon="6.73642">
        <ele>454.1</ele>
        <time>2014-05-18T08:05:29.000Z</time>
      </trkpt>
      <trkpt lat="47.45496" lon="6.73636">
        <ele>455</ele>
        <time>2014-05-18T08:05:30.000Z</time>
      </trkpt>
      <trkpt lat="47.45488" lon="6.73629">
        <ele>454.8</ele>
        <time>2014-05-18T08:05:31.000Z</time>
      </trkpt>
      <trkpt lat="47.45486" lon="6.73626">
        <ele>454.1</ele>
        <time>2014-05-18T08:05:32.000Z</time>
      </trkpt>
      <trkpt lat="47.45486" lon="6.73619">
        <ele>454.1</ele>
        <time>2014-05-18T08:05:33.000Z</time>
      </trkpt>
      <trkpt lat="47.45484" lon="6.73613">
        <ele>453.7</ele>
        <time>2014-05-18T08:05:34.000Z</time>
      </trkpt>
      <trkpt lat="47.45483" lon="6.73609">
        <ele>454.4</ele>
        <time>2014-05-18T08:05:35.000Z</time>
      </trkpt>
      <trkpt lat="47.45484" lon="6.73606">
        <ele>454.8</ele>
        <time>2014-05-18T08:05:36.000Z</time>
      </trkpt>
      <trkpt lat="47.45483" lon="6.73601">
        <ele>455.5</ele>
        <time>2014-05-18T08:05:37.000Z</time>
      </trkpt>
      <trkpt lat="47.45483" lon="6.73598">
        <ele>456.5</ele>
        <time>2014-05-18T08:05:38.000Z</time>
      </trkpt>
      <trkpt lat="47.45483" lon="6.73594">
        <ele>457.1</ele>
        <time>2014-05-18T08:05:39.000Z</time>
      </trkpt>
      <trkpt lat="47.45481" lon="6.73588">
        <ele>457.3</ele>
        <time>2014-05-18T08:05:40.000Z</time>
      </trkpt>
      <trkpt lat="47.45481" lon="6.73583">
        <ele>457.8</ele>
        <time>2014-05-18T08:05:41.000Z</time>
      </trkpt>
      <trkpt lat="47.4548" lon="6.73578">
        <ele>457.9</ele>
        <time>2014-05-18T08:05:42.000Z</time>
      </trkpt>
      <trkpt lat="47.45479" lon="6.73572">
        <ele>458.6</ele>
        <time>2014-05-18T08:05:43.000Z</time>
      </trkpt>
      <trkpt lat="47.45477" lon="6.73564">
        <ele>459.4</ele>
        <time>2014-05-18T08:05:44.000Z</time>
      </trkpt>
      <trkpt lat="47.45475" lon="6.73557">
        <ele>458.4</ele>
        <time>2014-05-18T08:05:45.000Z</time>
      </trkpt>
      <trkpt lat="47.45473" lon="6.7355">
        <ele>458.3</ele>
        <time>2014-05-18T08:05:46.000Z</time>
      </trkpt>
      <trkpt lat="47.45462" lon="6.73509">
        <ele>450.6</ele>
        <time>2014-05-18T08:05:54.000Z</time>
      </trkpt>
      <trkpt lat="47.45463" lon="6.73504">
        <ele>452.5</ele>
        <time>2014-05-18T08:05:55.000Z</time>
      </trkpt>
      <trkpt lat="47.45465" lon="6.73497">
        <ele>453.4</ele>
        <time>2014-05-18T08:05:56.000Z</time>
      </trkpt>
      <trkpt lat="47.45466" lon="6.73491">
        <ele>452.9</ele>
        <time>2014-05-18T08:05:57.000Z</time>
      </trkpt>
      <trkpt lat="47.45467" lon="6.73486">
        <ele>453.5</ele>
        <time>2014-05-18T08:05:58.000Z</time>
      </trkpt>
      <trkpt lat="47.45469" lon="6.73481">
        <ele>454.5</ele>
        <time>2014-05-18T08:05:59.000Z</time>
      </trkpt>
      <trkpt lat="47.4547" lon="6.73475">
        <ele>454.9</ele>
        <time>2014-05-18T08:06:00.000Z</time>
      </trkpt>
      <trkpt lat="47.4547" lon="6.73469">
        <ele>456.2</ele>
        <time>2014-05-18T08:06:01.000Z</time>
      </trkpt>
      <trkpt lat="47.45471" lon="6.73462">
        <ele>456.8</ele>
        <time>2014-05-18T08:06:02.000Z</time>
      </trkpt>
      <trkpt lat="47.45471" lon="6.73455">
        <ele>455.4</ele>
        <time>2014-05-18T08:06:03.000Z</time>
      </trkpt>
      <trkpt lat="47.45469" lon="6.73432">
        <ele>454.6</ele>
        <time>2014-05-18T08:06:04.000Z</time>
      </trkpt>
      <trkpt lat="47.45469" lon="6.73423">
        <ele>455.7</ele>
        <time>2014-05-18T08:06:05.000Z</time>
      </trkpt>
      <trkpt lat="47.45469" lon="6.73412">
        <ele>456.8</ele>
        <time>2014-05-18T08:06:06.000Z</time>
      </trkpt>
      <trkpt lat="47.4547" lon="6.73406">
        <ele>457</ele>
        <time>2014-05-18T08:06:07.000Z</time>
      </trkpt>
      <trkpt lat="47.4547" lon="6.734">
        <ele>457.9</ele>
        <time>2014-05-18T08:06:08.000Z</time>
      </trkpt>
      <trkpt lat="47.4547" lon="6.73394">
        <ele>459.6</ele>
        <time>2014-05-18T08:06:09.000Z</time>
      </trkpt>
      <trkpt lat="47.45471" lon="6.73385">
        <ele>459.7</ele>
        <time>2014-05-18T08:06:10.000Z</time>
      </trkpt>
      <trkpt lat="47.45473" lon="6.73382">
        <ele>459.9</ele>
        <time>2014-05-18T08:06:11.000Z</time>
      </trkpt>
      <trkpt lat="47.45474" lon="6.73376">
        <ele>459.6</ele>
        <time>2014-05-18T08:06:12.000Z</time>
      </trkpt>
      <trkpt lat="47.45476" lon="6.73371">
        <ele>459.6</ele>
        <time>2014-05-18T08:06:14.000Z</time>
      </trkpt>
      <trkpt lat="47.45473" lon="6.73358">
        <ele>456.2</ele>
        <time>2014-05-18T08:06:15.000Z</time>
      </trkpt>
      <trkpt lat="47.45474" lon="6.73349">
        <ele>456.4</ele>
        <time>2014-05-18T08:06:16.000Z</time>
      </trkpt>
      <trkpt lat="47.45474" lon="6.73343">
        <ele>457.5</ele>
        <time>2014-05-18T08:06:17.000Z</time>
      </trkpt>
      <trkpt lat="47.45483" lon="6.73345">
        <ele>455.8</ele>
        <time>2014-05-18T08:06:18.000Z</time>
      </trkpt>
      <trkpt lat="47.45489" lon="6.73344">
        <ele>454.6</ele>
        <time>2014-05-18T08:06:19.000Z</time>
      </trkpt>
      <trkpt lat="47.45494" lon="6.7334">
        <ele>454.9</ele>
        <time>2014-05-18T08:06:20.000Z</time>
      </trkpt>
      <trkpt lat="47.45496" lon="6.73337">
        <ele>455.4</ele>
        <time>2014-05-18T08:06:21.000Z</time>
      </trkpt>
      <trkpt lat="47.455" lon="6.73331">
        <ele>456.2</ele>
        <time>2014-05-18T08:06:22.000Z</time>
      </trkpt>
      <trkpt lat="47.45504" lon="6.73328">
        <ele>456.9</ele>
        <time>2014-05-18T08:06:23.000Z</time>
      </trkpt>
      <trkpt lat="47.45507" lon="6.73321">
        <ele>457.1</ele>
        <time>2014-05-18T08:06:24.000Z</time>
      </trkpt>
      <trkpt lat="47.45509" lon="6.73316">
        <ele>457.6</ele>
        <time>2014-05-18T08:06:25.000Z</time>
      </trkpt>
      <trkpt lat="47.45513" lon="6.73311">
        <ele>457</ele>
        <time>2014-05-18T08:06:26.000Z</time>
      </trkpt>
      <trkpt lat="47.45515" lon="6.73307">
        <ele>456</ele>
        <time>2014-05-18T08:06:27.000Z</time>
      </trkpt>
      <trkpt lat="47.45517" lon="6.73305">
        <ele>454.3</ele>
        <time>2014-05-18T08:06:28.000Z</time>
      </trkpt>
      <trkpt lat="47.45519" lon="6.73303">
        <ele>453.3</ele>
        <time>2014-05-18T08:06:29.000Z</time>
      </trkpt>
      <trkpt lat="47.45521" lon="6.73302">
        <ele>453.7</ele>
        <time>2014-05-18T08:06:30.000Z</time>
      </trkpt>
      <trkpt lat="47.45526" lon="6.73301">
        <ele>452</ele>
        <time>2014-05-18T08:06:31.000Z</time>
      </trkpt>
      <trkpt lat="47.4553" lon="6.733">
        <ele>451.8</ele>
        <time>2014-05-18T08:06:32.000Z</time>
      </trkpt>
      <trkpt lat="47.45534" lon="6.73298">
        <ele>452.2</ele>
        <time>2014-05-18T08:06:33.000Z</time>
      </trkpt>
      <trkpt lat="47.45538" lon="6.73297">
        <ele>452.5</ele>
        <time>2014-05-18T08:06:34.000Z</time>
      </trkpt>
      <trkpt lat="47.45541" lon="6.73295">
        <ele>452.8</ele>
        <time>2014-05-18T08:06:35.000Z</time>
      </trkpt>
      <trkpt lat="47.45544" lon="6.73294">
        <ele>451.2</ele>
        <time>2014-05-18T08:06:36.000Z</time>
      </trkpt>
      <trkpt lat="47.45546" lon="6.73292">
        <ele>450.3</ele>
        <time>2014-05-18T08:06:37.000Z</time>
      </trkpt>
      <trkpt lat="47.45548" lon="6.7329">
        <ele>451.3</ele>
        <time>2014-05-18T08:06:38.000Z</time>
      </trkpt>
      <trkpt lat="47.4555" lon="6.73288">
        <ele>452</ele>
        <time>2014-05-18T08:06:39.000Z</time>
      </trkpt>
      <trkpt lat="47.45552" lon="6.73285">
        <ele>452.9</ele>
        <time>2014-05-18T08:06:40.000Z</time>
      </trkpt>
      <trkpt lat="47.45554" lon="6.73282">
        <ele>453.2</ele>
        <time>2014-05-18T08:06:41.000Z</time>
      </trkpt>
      <trkpt lat="47.45557" lon="6.73278">
        <ele>454.7</ele>
        <time>2014-05-18T08:06:42.000Z</time>
      </trkpt>
      <trkpt lat="47.4556" lon="6.73273">
        <ele>455.1</ele>
        <time>2014-05-18T08:06:43.000Z</time>
      </trkpt>
      <trkpt lat="47.45563" lon="6.73268">
        <ele>456.9</ele>
        <time>2014-05-18T08:06:44.000Z</time>
      </trkpt>
      <trkpt lat="47.45566" lon="6.73262">
        <ele>457.6</ele>
        <time>2014-05-18T08:06:45.000Z</time>
      </trkpt>
      <trkpt lat="47.45568" lon="6.73258">
        <ele>458.9</ele>
        <time>2014-05-18T08:06:46.000Z</time>
      </trkpt>
      <trkpt lat="47.45592" lon="6.73223">
        <ele>465.4</ele>
        <time>2014-05-18T08:06:54.000Z</time>
      </trkpt>
      <trkpt lat="47.45591" lon="6.73216">
        <ele>466.1</ele>
        <time>2014-05-18T08:06:55.000Z</time>
      </trkpt>
      <trkpt lat="47.45589" lon="6.7321">
        <ele>463.7</ele>
        <time>2014-05-18T08:06:56.000Z</time>
      </trkpt>
      <trkpt lat="47.45589" lon="6.73205">
        <ele>464.4</ele>
        <time>2014-05-18T08:06:57.000Z</time>
      </trkpt>
      <trkpt lat="47.45589" lon="6.73196">
        <ele>464.6</ele>
        <time>2014-05-18T08:06:58.000Z</time>
      </trkpt>
      <trkpt lat="47.4559" lon="6.73192">
        <ele>464.8</ele>
        <time>2014-05-18T08:06:59.000Z</time>
      </trkpt>
      <trkpt lat="47.45588" lon="6.73187">
        <ele>465.3</ele>
        <time>2014-05-18T08:07:00.000Z</time>
      </trkpt>
      <trkpt lat="47.45587" lon="6.73183">
        <ele>465</ele>
        <time>2014-05-18T08:07:01.000Z</time>
      </trkpt>
      <trkpt lat="47.45586" lon="6.73179">
        <ele>464.8</ele>
        <time>2014-05-18T08:07:02.000Z</time>
      </trkpt>
      <trkpt lat="47.45586" lon="6.73176">
        <ele>466.4</ele>
        <time>2014-05-18T08:07:03.000Z</time>
      </trkpt>
      <trkpt lat="47.45586" lon="6.73171">
        <ele>467.8</ele>
        <time>2014-05-18T08:07:04.000Z</time>
      </trkpt>
      <trkpt lat="47.45586" lon="6.73167">
        <ele>468.5</ele>
        <time>2014-05-18T08:07:05.000Z</time>
      </trkpt>
      <trkpt lat="47.45586" lon="6.73163">
        <ele>469.5</ele>
        <time>2014-05-18T08:07:06.000Z</time>
      </trkpt>
      <trkpt lat="47.45586" lon="6.73158">
        <ele>470.2</ele>
        <time>2014-05-18T08:07:07.000Z</time>
      </trkpt>
      <trkpt lat="47.45586" lon="6.73154">
        <ele>469.7</ele>
        <time>2014-05-18T08:07:08.000Z</time>
      </trkpt>
      <trkpt lat="47.45586" lon="6.73148">
        <ele>469.6</ele>
        <time>2014-05-18T08:07:09.000Z</time>
      </trkpt>
      <trkpt lat="47.45586" lon="6.73143">
        <ele>471.6</ele>
        <time>2014-05-18T08:07:10.000Z</time>
      </trkpt>
      <trkpt lat="47.45586" lon="6.73137">
        <ele>472.8</ele>
        <time>2014-05-18T08:07:11.000Z</time>
      </trkpt>
      <trkpt lat="47.45585" lon="6.73132">
        <ele>472.9</ele>
        <time>2014-05-18T08:07:12.000Z</time>
      </trkpt>
      <trkpt lat="47.45585" lon="6.73127">
        <ele>475.3</ele>
        <time>2014-05-18T08:07:13.000Z</time>
      </trkpt>
      <trkpt lat="47.45584" lon="6.73122">
        <ele>471</ele>
        <time>2014-05-18T08:07:14.000Z</time>
      </trkpt>
      <trkpt lat="47.45584" lon="6.73117">
        <ele>472</ele>
        <time>2014-05-18T08:07:15.000Z</time>
      </trkpt>
      <trkpt lat="47.45583" lon="6.73113">
        <ele>471.1</ele>
        <time>2014-05-18T08:07:16.000Z</time>
      </trkpt>
      <trkpt lat="47.45582" lon="6.73109">
        <ele>469.2</ele>
        <time>2014-05-18T08:07:17.000Z</time>
      </trkpt>
      <trkpt lat="47.45581" lon="6.73105">
        <ele>468.1</ele>
        <time>2014-05-18T08:07:18.000Z</time>
      </trkpt>
      <trkpt lat="47.45579" lon="6.73101">
        <ele>468.8</ele>
        <time>2014-05-18T08:07:19.000Z</time>
      </trkpt>
      <trkpt lat="47.45578" lon="6.73097">
        <ele>469.1</ele>
        <time>2014-05-18T08:07:20.000Z</time>
      </trkpt>
      <trkpt lat="47.45576" lon="6.73093">
        <ele>469.4</ele>
        <time>2014-05-18T08:07:21.000Z</time>
      </trkpt>
      <trkpt lat="47.45575" lon="6.73087">
        <ele>469.2</ele>
        <time>2014-05-18T08:07:22.000Z</time>
      </trkpt>
      <trkpt lat="47.45573" lon="6.73081">
        <ele>468</ele>
        <time>2014-05-18T08:07:23.000Z</time>
      </trkpt>
      <trkpt lat="47.45572" lon="6.73075">
        <ele>469.1</ele>
        <time>2014-05-18T08:07:24.000Z</time>
      </trkpt>
      <trkpt lat="47.45571" lon="6.7307">
        <ele>469.1</ele>
        <time>2014-05-18T08:07:25.000Z</time>
      </trkpt>
      <trkpt lat="47.45569" lon="6.73065">
        <ele>470.9</ele>
        <time>2014-05-18T08:07:26.000Z</time>
      </trkpt>
      <trkpt lat="47.45568" lon="6.7306">
        <ele>471.4</ele>
        <time>2014-05-18T08:07:27.000Z</time>
      </trkpt>
      <trkpt lat="47.45566" lon="6.73056">
        <ele>472.3</ele>
        <time>2014-05-18T08:07:28.000Z</time>
      </trkpt>
      <trkpt lat="47.45565" lon="6.73051">
        <ele>474.1</ele>
        <time>2014-05-18T08:07:29.000Z</time>
      </trkpt>
      <trkpt lat="47.45564" lon="6.73047">
        <ele>474.4</ele>
        <time>2014-05-18T08:07:30.001Z</time>
      </trkpt>
      <trkpt lat="47.45564" lon="6.73041">
        <ele>465.4</ele>
        <time>2014-05-18T08:07:31.000Z</time>
      </trkpt>
      <trkpt lat="47.45564" lon="6.73036">
        <ele>464</ele>
        <time>2014-05-18T08:07:32.000Z</time>
      </trkpt>
      <trkpt lat="47.4556" lon="6.73023">
        <ele>464.8</ele>
        <time>2014-05-18T08:07:33.000Z</time>
      </trkpt>
      <trkpt lat="47.45558" lon="6.73018">
        <ele>464.6</ele>
        <time>2014-05-18T08:07:34.000Z</time>
      </trkpt>
      <trkpt lat="47.45554" lon="6.73014">
        <ele>466.4</ele>
        <time>2014-05-18T08:07:35.000Z</time>
      </trkpt>
      <trkpt lat="47.45551" lon="6.73009">
        <ele>466.7</ele>
        <time>2014-05-18T08:07:36.000Z</time>
      </trkpt>
      <trkpt lat="47.45548" lon="6.73003">
        <ele>467.2</ele>
        <time>2014-05-18T08:07:37.000Z</time>
      </trkpt>
      <trkpt lat="47.45544" lon="6.73002">
        <ele>467.2</ele>
        <time>2014-05-18T08:07:38.000Z</time>
      </trkpt>
      <trkpt lat="47.45541" lon="6.72996">
        <ele>467.3</ele>
        <time>2014-05-18T08:07:39.000Z</time>
      </trkpt>
      <trkpt lat="47.45539" lon="6.72991">
        <ele>467.9</ele>
        <time>2014-05-18T08:07:40.000Z</time>
      </trkpt>
      <trkpt lat="47.45536" lon="6.72986">
        <ele>468.3</ele>
        <time>2014-05-18T08:07:41.000Z</time>
      </trkpt>
      <trkpt lat="47.45534" lon="6.72981">
        <ele>468.6</ele>
        <time>2014-05-18T08:07:42.000Z</time>
      </trkpt>
      <trkpt lat="47.45531" lon="6.72976">
        <ele>469.3</ele>
        <time>2014-05-18T08:07:43.000Z</time>
      </trkpt>
      <trkpt lat="47.45529" lon="6.72971">
        <ele>469.3</ele>
        <time>2014-05-18T08:07:44.000Z</time>
      </trkpt>
      <trkpt lat="47.45526" lon="6.72967">
        <ele>469.9</ele>
        <time>2014-05-18T08:07:45.000Z</time>
      </trkpt>
      <trkpt lat="47.45523" lon="6.72963">
        <ele>471.3</ele>
        <time>2014-05-18T08:07:46.000Z</time>
      </trkpt>
      <trkpt lat="47.45504" lon="6.72932">
        <ele>475.1</ele>
        <time>2014-05-18T08:07:54.000Z</time>
      </trkpt>
      <trkpt lat="47.45503" lon="6.72926">
        <ele>475.8</ele>
        <time>2014-05-18T08:07:55.000Z</time>
      </trkpt>
      <trkpt lat="47.45504" lon="6.72919">
        <ele>471.7</ele>
        <time>2014-05-18T08:07:56.000Z</time>
      </trkpt>
      <trkpt lat="47.45502" lon="6.72915">
        <ele>472.4</ele>
        <time>2014-05-18T08:07:57.000Z</time>
      </trkpt>
      <trkpt lat="47.45501" lon="6.72912">
        <ele>472.9</ele>
        <time>2014-05-18T08:07:58.000Z</time>
      </trkpt>
      <trkpt lat="47.45499" lon="6.72909">
        <ele>472.7</ele>
        <time>2014-05-18T08:07:59.000Z</time>
      </trkpt>
      <trkpt lat="47.45497" lon="6.72906">
        <ele>472.4</ele>
        <time>2014-05-18T08:08:00.000Z</time>
      </trkpt>
      <trkpt lat="47.45494" lon="6.72903">
        <ele>472.7</ele>
        <time>2014-05-18T08:08:01.000Z</time>
      </trkpt>
      <trkpt lat="47.45492" lon="6.729">
        <ele>473.2</ele>
        <time>2014-05-18T08:08:02.000Z</time>
      </trkpt>
      <trkpt lat="47.4549" lon="6.72895">
        <ele>471.9</ele>
        <time>2014-05-18T08:08:03.000Z</time>
      </trkpt>
      <trkpt lat="47.45488" lon="6.72892">
        <ele>470.4</ele>
        <time>2014-05-18T08:08:04.000Z</time>
      </trkpt>
      <trkpt lat="47.45487" lon="6.72887">
        <ele>471.2</ele>
        <time>2014-05-18T08:08:05.000Z</time>
      </trkpt>
      <trkpt lat="47.45486" lon="6.72883">
        <ele>472.3</ele>
        <time>2014-05-18T08:08:06.000Z</time>
      </trkpt>
      <trkpt lat="47.45486" lon="6.72878">
        <ele>473.1</ele>
        <time>2014-05-18T08:08:07.000Z</time>
      </trkpt>
      <trkpt lat="47.45486" lon="6.72872">
        <ele>473</ele>
        <time>2014-05-18T08:08:08.000Z</time>
      </trkpt>
      <trkpt lat="47.45486" lon="6.72866">
        <ele>474.7</ele>
        <time>2014-05-18T08:08:09.000Z</time>
      </trkpt>
      <trkpt lat="47.45485" lon="6.7286">
        <ele>475</ele>
        <time>2014-05-18T08:08:10.000Z</time>
      </trkpt>
      <trkpt lat="47.45484" lon="6.72854">
        <ele>473.8</ele>
        <time>2014-05-18T08:08:11.000Z</time>
      </trkpt>
      <trkpt lat="47.45482" lon="6.72849">
        <ele>473.8</ele>
        <time>2014-05-18T08:08:12.000Z</time>
      </trkpt>
      <trkpt lat="47.4548" lon="6.72843">
        <ele>473</ele>
        <time>2014-05-18T08:08:13.000Z</time>
      </trkpt>
      <trkpt lat="47.45479" lon="6.72837">
        <ele>473.2</ele>
        <time>2014-05-18T08:08:14.000Z</time>
      </trkpt>
      <trkpt lat="47.45477" lon="6.72831">
        <ele>473.7</ele>
        <time>2014-05-18T08:08:15.000Z</time>
      </trkpt>
      <trkpt lat="47.45475" lon="6.72825">
        <ele>474.1</ele>
        <time>2014-05-18T08:08:16.000Z</time>
      </trkpt>
      <trkpt lat="47.45473" lon="6.7282">
        <ele>473.9</ele>
        <time>2014-05-18T08:08:17.000Z</time>
      </trkpt>
      <trkpt lat="47.4547" lon="6.72815">
        <ele>474</ele>
        <time>2014-05-18T08:08:18.000Z</time>
      </trkpt>
      <trkpt lat="47.45468" lon="6.72811">
        <ele>474.6</ele>
        <time>2014-05-18T08:08:19.000Z</time>
      </trkpt>
      <trkpt lat="47.45466" lon="6.72806">
        <ele>475.6</ele>
        <time>2014-05-18T08:08:20.000Z</time>
      </trkpt>
      <trkpt lat="47.45463" lon="6.72802">
        <ele>474.5</ele>
        <time>2014-05-18T08:08:21.000Z</time>
      </trkpt>
      <trkpt lat="47.45462" lon="6.72797">
        <ele>473.7</ele>
        <time>2014-05-18T08:08:22.000Z</time>
      </trkpt>
      <trkpt lat="47.4546" lon="6.72793">
        <ele>475.3</ele>
        <time>2014-05-18T08:08:23.000Z</time>
      </trkpt>
      <trkpt lat="47.45459" lon="6.72789">
        <ele>476.4</ele>
        <time>2014-05-18T08:08:24.000Z</time>
      </trkpt>
      <trkpt lat="47.45458" lon="6.72785">
        <ele>475.5</ele>
        <time>2014-05-18T08:08:25.000Z</time>
      </trkpt>
      <trkpt lat="47.45457" lon="6.72782">
        <ele>477.4</ele>
        <time>2014-05-18T08:08:26.000Z</time>
      </trkpt>
      <trkpt lat="47.45455" lon="6.72779">
        <ele>476.4</ele>
        <time>2014-05-18T08:08:27.000Z</time>
      </trkpt>
      <trkpt lat="47.45452" lon="6.72776">
        <ele>478</ele>
        <time>2014-05-18T08:08:28.000Z</time>
      </trkpt>
      <trkpt lat="47.45449" lon="6.72773">
        <ele>477.1</ele>
        <time>2014-05-18T08:08:29.000Z</time>
      </trkpt>
      <trkpt lat="47.45447" lon="6.72771">
        <ele>474.4</ele>
        <time>2014-05-18T08:08:30.000Z</time>
      </trkpt>
      <trkpt lat="47.45444" lon="6.72767">
        <ele>474.3</ele>
        <time>2014-05-18T08:08:32.000Z</time>
      </trkpt>
      <trkpt lat="47.45443" lon="6.72765">
        <ele>472.4</ele>
        <time>2014-05-18T08:08:33.000Z</time>
      </trkpt>
      <trkpt lat="47.4544" lon="6.7276">
        <ele>471.2</ele>
        <time>2014-05-18T08:08:37.000Z</time>
      </trkpt>
      <trkpt lat="47.45441" lon="6.72758">
        <ele>470.9</ele>
        <time>2014-05-18T08:08:38.000Z</time>
      </trkpt>
      <trkpt lat="47.45442" lon="6.72753">
        <ele>469.9</ele>
        <time>2014-05-18T08:08:40.000Z</time>
      </trkpt>
      <trkpt lat="47.45443" lon="6.72751">
        <ele>470</ele>
        <time>2014-05-18T08:08:41.000Z</time>
      </trkpt>
      <trkpt lat="47.45447" lon="6.72748">
        <ele>467.6</ele>
        <time>2014-05-18T08:08:44.000Z</time>
      </trkpt>
      <trkpt lat="47.45447" lon="6.72747">
        <ele>468.8</ele>
        <time>2014-05-18T08:08:45.000Z</time>
      </trkpt>
      <trkpt lat="47.45448" lon="6.72746">
        <ele>469.3</ele>
        <time>2014-05-18T08:08:46.000Z</time>
      </trkpt>
      <trkpt lat="47.45454" lon="6.72726">
        <ele>463.8</ele>
        <time>2014-05-18T08:08:55.000Z</time>
      </trkpt>
      <trkpt lat="47.45451" lon="6.72728">
        <ele>465.5</ele>
        <time>2014-05-18T08:08:57.000Z</time>
      </trkpt>
      <trkpt lat="47.45448" lon="6.72732">
        <ele>465.7</ele>
        <time>2014-05-18T08:08:58.000Z</time>
      </trkpt>
      <trkpt lat="47.45445" lon="6.72728">
        <ele>464.6</ele>
        <time>2014-05-18T08:09:09.000Z</time>
      </trkpt>
      <trkpt lat="47.45441" lon="6.72726">
        <ele>464.4</ele>
        <time>2014-05-18T08:09:10.000Z</time>
      </trkpt>
      <trkpt lat="47.4543" lon="6.72727">
        <ele>465.1</ele>
        <time>2014-05-18T08:09:11.000Z</time>
      </trkpt>
      <trkpt lat="47.45426" lon="6.72727">
        <ele>464.2</ele>
        <time>2014-05-18T08:09:12.000Z</time>
      </trkpt>
      <trkpt lat="47.45421" lon="6.72726">
        <ele>463.5</ele>
        <time>2014-05-18T08:09:13.000Z</time>
      </trkpt>
      <trkpt lat="47.45417" lon="6.72725">
        <ele>463.1</ele>
        <time>2014-05-18T08:09:14.000Z</time>
      </trkpt>
      <trkpt lat="47.45413" lon="6.72723">
        <ele>462.6</ele>
        <time>2014-05-18T08:09:15.000Z</time>
      </trkpt>
      <trkpt lat="47.45409" lon="6.72721">
        <ele>462.2</ele>
        <time>2014-05-18T08:09:16.000Z</time>
      </trkpt>
      <trkpt lat="47.45403" lon="6.72718">
        <ele>461.9</ele>
        <time>2014-05-18T08:09:17.000Z</time>
      </trkpt>
      <trkpt lat="47.454" lon="6.72715">
        <ele>462.7</ele>
        <time>2014-05-18T08:09:18.000Z</time>
      </trkpt>
      <trkpt lat="47.45396" lon="6.7271">
        <ele>462.6</ele>
        <time>2014-05-18T08:09:19.000Z</time>
      </trkpt>
      <trkpt lat="47.45392" lon="6.72707">
        <ele>462.5</ele>
        <time>2014-05-18T08:09:20.000Z</time>
      </trkpt>
      <trkpt lat="47.45388" lon="6.72703">
        <ele>462.7</ele>
        <time>2014-05-18T08:09:21.000Z</time>
      </trkpt>
      <trkpt lat="47.45384" lon="6.72699">
        <ele>462.8</ele>
        <time>2014-05-18T08:09:22.000Z</time>
      </trkpt>
      <trkpt lat="47.45381" lon="6.72694">
        <ele>462.7</ele>
        <time>2014-05-18T08:09:23.000Z</time>
      </trkpt>
      <trkpt lat="47.45377" lon="6.72689">
        <ele>461.1</ele>
        <time>2014-05-18T08:09:24.000Z</time>
      </trkpt>
      <trkpt lat="47.45374" lon="6.72684">
        <ele>460.2</ele>
        <time>2014-05-18T08:09:25.000Z</time>
      </trkpt>
      <trkpt lat="47.4537" lon="6.7268">
        <ele>460.2</ele>
        <time>2014-05-18T08:09:26.000Z</time>
      </trkpt>
      <trkpt lat="47.45366" lon="6.72676">
        <ele>460.3</ele>
        <time>2014-05-18T08:09:27.000Z</time>
      </trkpt>
      <trkpt lat="47.45362" lon="6.7267">
        <ele>460.1</ele>
        <time>2014-05-18T08:09:28.000Z</time>
      </trkpt>
      <trkpt lat="47.45357" lon="6.72665">
        <ele>460.2</ele>
        <time>2014-05-18T08:09:29.000Z</time>
      </trkpt>
      <trkpt lat="47.45353" lon="6.7266">
        <ele>460.5</ele>
        <time>2014-05-18T08:09:30.000Z</time>
      </trkpt>
      <trkpt lat="47.45349" lon="6.72655">
        <ele>460.5</ele>
        <time>2014-05-18T08:09:31.000Z</time>
      </trkpt>
      <trkpt lat="47.45344" lon="6.7265">
        <ele>461</ele>
        <time>2014-05-18T08:09:32.000Z</time>
      </trkpt>
      <trkpt lat="47.4534" lon="6.72645">
        <ele>460.6</ele>
        <time>2014-05-18T08:09:33.000Z</time>
      </trkpt>
      <trkpt lat="47.45335" lon="6.7264">
        <ele>461.1</ele>
        <time>2014-05-18T08:09:34.000Z</time>
      </trkpt>
      <trkpt lat="47.45331" lon="6.72636">
        <ele>461.3</ele>
        <time>2014-05-18T08:09:35.000Z</time>
      </trkpt>
      <trkpt lat="47.45326" lon="6.72631">
        <ele>461.5</ele>
        <time>2014-05-18T08:09:36.000Z</time>
      </trkpt>
      <trkpt lat="47.45321" lon="6.72625">
        <ele>461.1</ele>
        <time>2014-05-18T08:09:37.000Z</time>
      </trkpt>
      <trkpt lat="47.45317" lon="6.7262">
        <ele>461.3</ele>
        <time>2014-05-18T08:09:38.000Z</time>
      </trkpt>
      <trkpt lat="47.45312" lon="6.72616">
        <ele>461.9</ele>
        <time>2014-05-18T08:09:39.000Z</time>
      </trkpt>
      <trkpt lat="47.45309" lon="6.72613">
        <ele>461.8</ele>
        <time>2014-05-18T08:09:40.000Z</time>
      </trkpt>
      <trkpt lat="47.45304" lon="6.7261">
        <ele>462.2</ele>
        <time>2014-05-18T08:09:41.000Z</time>
      </trkpt>
      <trkpt lat="47.45299" lon="6.72606">
        <ele>461.8</ele>
        <time>2014-05-18T08:09:42.000Z</time>
      </trkpt>
      <trkpt lat="47.45294" lon="6.72601">
        <ele>461.2</ele>
        <time>2014-05-18T08:09:43.000Z</time>
      </trkpt>
      <trkpt lat="47.45288" lon="6.72597">
        <ele>461.7</ele>
        <time>2014-05-18T08:09:44.000Z</time>
      </trkpt>
      <trkpt lat="47.45283" lon="6.72594">
        <ele>461.2</ele>
        <time>2014-05-18T08:09:45.000Z</time>
      </trkpt>
      <trkpt lat="47.45279" lon="6.72591">
        <ele>461.6</ele>
        <time>2014-05-18T08:09:46.000Z</time>
      </trkpt>
      <trkpt lat="47.45236" lon="6.7256">
        <ele>460.1</ele>
        <time>2014-05-18T08:09:54.000Z</time>
      </trkpt>
      <trkpt lat="47.45231" lon="6.72557">
        <ele>459.1</ele>
        <time>2014-05-18T08:09:55.000Z</time>
      </trkpt>
      <trkpt lat="47.45226" lon="6.72555">
        <ele>459.1</ele>
        <time>2014-05-18T08:09:56.000Z</time>
      </trkpt>
      <trkpt lat="47.4522" lon="6.72549">
        <ele>458.4</ele>
        <time>2014-05-18T08:09:57.000Z</time>
      </trkpt>
      <trkpt lat="47.45214" lon="6.72545">
        <ele>458.6</ele>
        <time>2014-05-18T08:09:58.000Z</time>
      </trkpt>
      <trkpt lat="47.45208" lon="6.72541">
        <ele>458.6</ele>
        <time>2014-05-18T08:09:59.000Z</time>
      </trkpt>
      <trkpt lat="47.45202" lon="6.72537">
        <ele>457.9</ele>
        <time>2014-05-18T08:10:00.000Z</time>
      </trkpt>
      <trkpt lat="47.45196" lon="6.72533">
        <ele>457.6</ele>
        <time>2014-05-18T08:10:01.000Z</time>
      </trkpt>
      <trkpt lat="47.4519" lon="6.72529">
        <ele>457.2</ele>
        <time>2014-05-18T08:10:02.000Z</time>
      </trkpt>
      <trkpt lat="47.45184" lon="6.72524">
        <ele>457</ele>
        <time>2014-05-18T08:10:03.000Z</time>
      </trkpt>
      <trkpt lat="47.45178" lon="6.7252">
        <ele>457.5</ele>
        <time>2014-05-18T08:10:04.000Z</time>
      </trkpt>
      <trkpt lat="47.45172" lon="6.72515">
        <ele>456.6</ele>
        <time>2014-05-18T08:10:05.000Z</time>
      </trkpt>
      <trkpt lat="47.45165" lon="6.7251">
        <ele>456.9</ele>
        <time>2014-05-18T08:10:06.000Z</time>
      </trkpt>
      <trkpt lat="47.45159" lon="6.72506">
        <ele>456.8</ele>
        <time>2014-05-18T08:10:07.000Z</time>
      </trkpt>
      <trkpt lat="47.45153" lon="6.72502">
        <ele>454.6</ele>
        <time>2014-05-18T08:10:08.000Z</time>
      </trkpt>
      <trkpt lat="47.45147" lon="6.72497">
        <ele>454.3</ele>
        <time>2014-05-18T08:10:09.000Z</time>
      </trkpt>
      <trkpt lat="47.45141" lon="6.72493">
        <ele>454</ele>
        <time>2014-05-18T08:10:10.000Z</time>
      </trkpt>
      <trkpt lat="47.45135" lon="6.72488">
        <ele>454</ele>
        <time>2014-05-18T08:10:11.000Z</time>
      </trkpt>
      <trkpt lat="47.45129" lon="6.72483">
        <ele>453.8</ele>
        <time>2014-05-18T08:10:12.000Z</time>
      </trkpt>
      <trkpt lat="47.45122" lon="6.72479">
        <ele>453.7</ele>
        <time>2014-05-18T08:10:13.000Z</time>
      </trkpt>
      <trkpt lat="47.45117" lon="6.72474">
        <ele>453.7</ele>
        <time>2014-05-18T08:10:14.000Z</time>
      </trkpt>
      <trkpt lat="47.45109" lon="6.7247">
        <ele>453</ele>
        <time>2014-05-18T08:10:15.000Z</time>
      </trkpt>
      <trkpt lat="47.45103" lon="6.72467">
        <ele>453.1</ele>
        <time>2014-05-18T08:10:16.000Z</time>
      </trkpt>
      <trkpt lat="47.45097" lon="6.72463">
        <ele>453.9</ele>
        <time>2014-05-18T08:10:17.000Z</time>
      </trkpt>
      <trkpt lat="47.45092" lon="6.72458">
        <ele>454.3</ele>
        <time>2014-05-18T08:10:18.000Z</time>
      </trkpt>
      <trkpt lat="47.45086" lon="6.72455">
        <ele>453.8</ele>
        <time>2014-05-18T08:10:19.000Z</time>
      </trkpt>
      <trkpt lat="47.45082" lon="6.72451">
        <ele>453.6</ele>
        <time>2014-05-18T08:10:20.000Z</time>
      </trkpt>
      <trkpt lat="47.45076" lon="6.72446">
        <ele>454</ele>
        <time>2014-05-18T08:10:21.000Z</time>
      </trkpt>
      <trkpt lat="47.45071" lon="6.72443">
        <ele>454.1</ele>
        <time>2014-05-18T08:10:22.000Z</time>
      </trkpt>
      <trkpt lat="47.45065" lon="6.72439">
        <ele>454</ele>
        <time>2014-05-18T08:10:23.000Z</time>
      </trkpt>
      <trkpt lat="47.45059" lon="6.72436">
        <ele>452.4</ele>
        <time>2014-05-18T08:10:24.000Z</time>
      </trkpt>
      <trkpt lat="47.45053" lon="6.72432">
        <ele>451.9</ele>
        <time>2014-05-18T08:10:25.000Z</time>
      </trkpt>
      <trkpt lat="47.45048" lon="6.72429">
        <ele>452.4</ele>
        <time>2014-05-18T08:10:26.000Z</time>
      </trkpt>
      <trkpt lat="47.45042" lon="6.72424">
        <ele>452.5</ele>
        <time>2014-05-18T08:10:27.000Z</time>
      </trkpt>
      <trkpt lat="47.45037" lon="6.72421">
        <ele>452.1</ele>
        <time>2014-05-18T08:10:28.000Z</time>
      </trkpt>
      <trkpt lat="47.45033" lon="6.72417">
        <ele>450.9</ele>
        <time>2014-05-18T08:10:29.000Z</time>
      </trkpt>
      <trkpt lat="47.45029" lon="6.72414">
        <ele>450.6</ele>
        <time>2014-05-18T08:10:30.000Z</time>
      </trkpt>
      <trkpt lat="47.45024" lon="6.72411">
        <ele>451.5</ele>
        <time>2014-05-18T08:10:31.000Z</time>
      </trkpt>
      <trkpt lat="47.4502" lon="6.72408">
        <ele>452.6</ele>
        <time>2014-05-18T08:10:32.000Z</time>
      </trkpt>
      <trkpt lat="47.45016" lon="6.72406">
        <ele>452.1</ele>
        <time>2014-05-18T08:10:33.000Z</time>
      </trkpt>
      <trkpt lat="47.45011" lon="6.72402">
        <ele>452.1</ele>
        <time>2014-05-18T08:10:34.000Z</time>
      </trkpt>
      <trkpt lat="47.45007" lon="6.72397">
        <ele>450.6</ele>
        <time>2014-05-18T08:10:35.000Z</time>
      </trkpt>
      <trkpt lat="47.45002" lon="6.72394">
        <ele>450.6</ele>
        <time>2014-05-18T08:10:36.000Z</time>
      </trkpt>
      <trkpt lat="47.44997" lon="6.72389">
        <ele>452</ele>
        <time>2014-05-18T08:10:37.000Z</time>
      </trkpt>
      <trkpt lat="47.44991" lon="6.72384">
        <ele>452.7</ele>
        <time>2014-05-18T08:10:38.000Z</time>
      </trkpt>
      <trkpt lat="47.44986" lon="6.72379">
        <ele>452.5</ele>
        <time>2014-05-18T08:10:39.000Z</time>
      </trkpt>
      <trkpt lat="47.44981" lon="6.72375">
        <ele>452.8</ele>
        <time>2014-05-18T08:10:40.000Z</time>
      </trkpt>
      <trkpt lat="47.44975" lon="6.7237">
        <ele>454.2</ele>
        <time>2014-05-18T08:10:41.000Z</time>
      </trkpt>
      <trkpt lat="47.4497" lon="6.72365">
        <ele>455.5</ele>
        <time>2014-05-18T08:10:42.000Z</time>
      </trkpt>
      <trkpt lat="47.44965" lon="6.7236">
        <ele>455.5</ele>
        <time>2014-05-18T08:10:43.000Z</time>
      </trkpt>
      <trkpt lat="47.4496" lon="6.72354">
        <ele>456.2</ele>
        <time>2014-05-18T08:10:44.000Z</time>
      </trkpt>
      <trkpt lat="47.44955" lon="6.7235">
        <ele>456.9</ele>
        <time>2014-05-18T08:10:45.000Z</time>
      </trkpt>
      <trkpt lat="47.4495" lon="6.72345">
        <ele>457.4</ele>
        <time>2014-05-18T08:10:46.000Z</time>
      </trkpt>
      <trkpt lat="47.44919" lon="6.72319">
        <ele>461.7</ele>
        <time>2014-05-18T08:10:54.000Z</time>
      </trkpt>
      <trkpt lat="47.44914" lon="6.72315">
        <ele>463.2</ele>
        <time>2014-05-18T08:10:55.000Z</time>
      </trkpt>
      <trkpt lat="47.44911" lon="6.72312">
        <ele>464.4</ele>
        <time>2014-05-18T08:10:57.000Z</time>
      </trkpt>
      <trkpt lat="47.44908" lon="6.7231">
        <ele>465.6</ele>
        <time>2014-05-18T08:10:58.000Z</time>
      </trkpt>
      <trkpt lat="47.44906" lon="6.72308">
        <ele>465.2</ele>
        <time>2014-05-18T08:10:59.000Z</time>
      </trkpt>
      <trkpt lat="47.44903" lon="6.72306">
        <ele>464.9</ele>
        <time>2014-05-18T08:11:00.000Z</time>
      </trkpt>
      <trkpt lat="47.44901" lon="6.72304">
        <ele>465.1</ele>
        <time>2014-05-18T08:11:01.000Z</time>
      </trkpt>
      <trkpt lat="47.44899" lon="6.72303">
        <ele>465.3</ele>
        <time>2014-05-18T08:11:02.000Z</time>
      </trkpt>
      <trkpt lat="47.44895" lon="6.723">
        <ele>463.5</ele>
        <time>2014-05-18T08:11:04.000Z</time>
      </trkpt>
      <trkpt lat="47.44893" lon="6.72298">
        <ele>463.2</ele>
        <time>2014-05-18T08:11:05.000Z</time>
      </trkpt>
      <trkpt lat="47.4489" lon="6.72297">
        <ele>463.1</ele>
        <time>2014-05-18T08:11:06.000Z</time>
      </trkpt>
      <trkpt lat="47.44887" lon="6.72295">
        <ele>462.7</ele>
        <time>2014-05-18T08:11:07.000Z</time>
      </trkpt>
      <trkpt lat="47.44884" lon="6.72294">
        <ele>462.4</ele>
        <time>2014-05-18T08:11:08.000Z</time>
      </trkpt>
      <trkpt lat="47.44881" lon="6.72292">
        <ele>462</ele>
        <time>2014-05-18T08:11:09.000Z</time>
      </trkpt>
      <trkpt lat="47.44878" lon="6.7229">
        <ele>462.7</ele>
        <time>2014-05-18T08:11:10.000Z</time>
      </trkpt>
      <trkpt lat="47.44875" lon="6.72288">
        <ele>462.6</ele>
        <time>2014-05-18T08:11:11.000Z</time>
      </trkpt>
      <trkpt lat="47.44872" lon="6.72286">
        <ele>462.9</ele>
        <time>2014-05-18T08:11:12.000Z</time>
      </trkpt>
      <trkpt lat="47.44869" lon="6.72284">
        <ele>463.7</ele>
        <time>2014-05-18T08:11:13.000Z</time>
      </trkpt>
      <trkpt lat="47.44866" lon="6.72281">
        <ele>464.2</ele>
        <time>2014-05-18T08:11:14.000Z</time>
      </trkpt>
      <trkpt lat="47.44863" lon="6.72279">
        <ele>464.5</ele>
        <time>2014-05-18T08:11:15.000Z</time>
      </trkpt>
      <trkpt lat="47.4486" lon="6.72277">
        <ele>464.5</ele>
        <time>2014-05-18T08:11:16.000Z</time>
      </trkpt>
      <trkpt lat="47.44858" lon="6.72274">
        <ele>465.1</ele>
        <time>2014-05-18T08:11:17.000Z</time>
      </trkpt>
      <trkpt lat="47.44855" lon="6.72273">
        <ele>465.2</ele>
        <time>2014-05-18T08:11:18.000Z</time>
      </trkpt>
      <trkpt lat="47.44852" lon="6.72271">
        <ele>465.5</ele>
        <time>2014-05-18T08:11:19.000Z</time>
      </trkpt>
      <trkpt lat="47.44849" lon="6.7227">
        <ele>465.2</ele>
        <time>2014-05-18T08:11:20.000Z</time>
      </trkpt>
      <trkpt lat="47.44847" lon="6.72269">
        <ele>465.2</ele>
        <time>2014-05-18T08:11:21.000Z</time>
      </trkpt>
      <trkpt lat="47.44844" lon="6.72268">
        <ele>465.3</ele>
        <time>2014-05-18T08:11:22.000Z</time>
      </trkpt>
      <trkpt lat="47.44842" lon="6.72267">
        <ele>465.2</ele>
        <time>2014-05-18T08:11:23.000Z</time>
      </trkpt>
      <trkpt lat="47.44839" lon="6.72267">
        <ele>465.8</ele>
        <time>2014-05-18T08:11:24.000Z</time>
      </trkpt>
      <trkpt lat="47.44836" lon="6.72266">
        <ele>466.2</ele>
        <time>2014-05-18T08:11:25.000Z</time>
      </trkpt>
      <trkpt lat="47.44833" lon="6.72266">
        <ele>467.1</ele>
        <time>2014-05-18T08:11:26.000Z</time>
      </trkpt>
      <trkpt lat="47.4483" lon="6.72265">
        <ele>467.7</ele>
        <time>2014-05-18T08:11:27.000Z</time>
      </trkpt>
      <trkpt lat="47.44827" lon="6.72265">
        <ele>468.1</ele>
        <time>2014-05-18T08:11:28.000Z</time>
      </trkpt>
      <trkpt lat="47.44824" lon="6.72265">
        <ele>467.9</ele>
        <time>2014-05-18T08:11:29.000Z</time>
      </trkpt>
      <trkpt lat="47.44821" lon="6.72264">
        <ele>468.2</ele>
        <time>2014-05-18T08:11:30.000Z</time>
      </trkpt>
      <trkpt lat="47.44819" lon="6.72264">
        <ele>468.7</ele>
        <time>2014-05-18T08:11:31.000Z</time>
      </trkpt>
      <trkpt lat="47.44815" lon="6.72265">
        <ele>471.5</ele>
        <time>2014-05-18T08:11:33.000Z</time>
      </trkpt>
      <trkpt lat="47.44812" lon="6.72266">
        <ele>472.2</ele>
        <time>2014-05-18T08:11:34.000Z</time>
      </trkpt>
      <trkpt lat="47.44809" lon="6.72266">
        <ele>473</ele>
        <time>2014-05-18T08:11:35.000Z</time>
      </trkpt>
      <trkpt lat="47.44806" lon="6.72267">
        <ele>472</ele>
        <time>2014-05-18T08:11:36.000Z</time>
      </trkpt>
      <trkpt lat="47.44803" lon="6.72268">
        <ele>470</ele>
        <time>2014-05-18T08:11:37.000Z</time>
      </trkpt>
      <trkpt lat="47.44801" lon="6.72269">
        <ele>468</ele>
        <time>2014-05-18T08:11:38.000Z</time>
      </trkpt>
      <trkpt lat="47.44798" lon="6.7227">
        <ele>466.7</ele>
        <time>2014-05-18T08:11:39.000Z</time>
      </trkpt>
      <trkpt lat="47.44795" lon="6.72271">
        <ele>466.8</ele>
        <time>2014-05-18T08:11:40.000Z</time>
      </trkpt>
      <trkpt lat="47.44792" lon="6.72272">
        <ele>467.5</ele>
        <time>2014-05-18T08:11:41.000Z</time>
      </trkpt>
      <trkpt lat="47.44788" lon="6.72273">
        <ele>467.8</ele>
        <time>2014-05-18T08:11:42.000Z</time>
      </trkpt>
      <trkpt lat="47.44785" lon="6.72274">
        <ele>468.2</ele>
        <time>2014-05-18T08:11:43.000Z</time>
      </trkpt>
      <trkpt lat="47.44782" lon="6.72275">
        <ele>469.6</ele>
        <time>2014-05-18T08:11:44.000Z</time>
      </trkpt>
      <trkpt lat="47.44779" lon="6.72276">
        <ele>469.3</ele>
        <time>2014-05-18T08:11:45.000Z</time>
      </trkpt>
      <trkpt lat="47.44776" lon="6.72278">
        <ele>468.4</ele>
        <time>2014-05-18T08:11:46.000Z</time>
      </trkpt>
      <trkpt lat="47.44751" lon="6.72287">
        <ele>471.9</ele>
        <time>2014-05-18T08:11:54.000Z</time>
      </trkpt>
      <trkpt lat="47.44747" lon="6.72288">
        <ele>471.5</ele>
        <time>2014-05-18T08:11:55.000Z</time>
      </trkpt>
      <trkpt lat="47.44743" lon="6.72289">
        <ele>470.9</ele>
        <time>2014-05-18T08:11:56.000Z</time>
      </trkpt>
      <trkpt lat="47.4474" lon="6.72291">
        <ele>470.4</ele>
        <time>2014-05-18T08:11:57.000Z</time>
      </trkpt>
      <trkpt lat="47.44737" lon="6.72293">
        <ele>470</ele>
        <time>2014-05-18T08:11:58.000Z</time>
      </trkpt>
      <trkpt lat="47.44733" lon="6.72294">
        <ele>470.1</ele>
        <time>2014-05-18T08:11:59.000Z</time>
      </trkpt>
      <trkpt lat="47.4473" lon="6.72296">
        <ele>469.9</ele>
        <time>2014-05-18T08:12:00.000Z</time>
      </trkpt>
      <trkpt lat="47.44726" lon="6.72297">
        <ele>470.2</ele>
        <time>2014-05-18T08:12:01.000Z</time>
      </trkpt>
      <trkpt lat="47.44723" lon="6.72299">
        <ele>470.1</ele>
        <time>2014-05-18T08:12:02.000Z</time>
      </trkpt>
      <trkpt lat="47.44719" lon="6.72301">
        <ele>471.2</ele>
        <time>2014-05-18T08:12:03.000Z</time>
      </trkpt>
      <trkpt lat="47.44715" lon="6.72302">
        <ele>471.3</ele>
        <time>2014-05-18T08:12:04.000Z</time>
      </trkpt>
      <trkpt lat="47.44711" lon="6.72304">
        <ele>471.5</ele>
        <time>2014-05-18T08:12:05.000Z</time>
      </trkpt>
      <trkpt lat="47.44707" lon="6.72305">
        <ele>470.8</ele>
        <time>2014-05-18T08:12:06.000Z</time>
      </trkpt>
      <trkpt lat="47.44704" lon="6.72306">
        <ele>471.7</ele>
        <time>2014-05-18T08:12:07.000Z</time>
      </trkpt>
      <trkpt lat="47.447" lon="6.72307">
        <ele>471.7</ele>
        <time>2014-05-18T08:12:08.000Z</time>
      </trkpt>
      <trkpt lat="47.44696" lon="6.72309">
        <ele>471.3</ele>
        <time>2014-05-18T08:12:09.000Z</time>
      </trkpt>
      <trkpt lat="47.44693" lon="6.7231">
        <ele>470.7</ele>
        <time>2014-05-18T08:12:10.000Z</time>
      </trkpt>
      <trkpt lat="47.44689" lon="6.72312">
        <ele>471.7</ele>
        <time>2014-05-18T08:12:11.000Z</time>
      </trkpt>
      <trkpt lat="47.44685" lon="6.72313">
        <ele>473.1</ele>
        <time>2014-05-18T08:12:12.000Z</time>
      </trkpt>
      <trkpt lat="47.44679" lon="6.72314">
        <ele>473.3</ele>
        <time>2014-05-18T08:12:13.000Z</time>
      </trkpt>
      <trkpt lat="47.44675" lon="6.72316">
        <ele>473.1</ele>
        <time>2014-05-18T08:12:14.000Z</time>
      </trkpt>
      <trkpt lat="47.4467" lon="6.72317">
        <ele>474.9</ele>
        <time>2014-05-18T08:12:15.000Z</time>
      </trkpt>
      <trkpt lat="47.44666" lon="6.72317">
        <ele>475</ele>
        <time>2014-05-18T08:12:16.000Z</time>
      </trkpt>
      <trkpt lat="47.44661" lon="6.72317">
        <ele>474.4</ele>
        <time>2014-05-18T08:12:17.000Z</time>
      </trkpt>
      <trkpt lat="47.44655" lon="6.72317">
        <ele>472.7</ele>
        <time>2014-05-18T08:12:18.000Z</time>
      </trkpt>
      <trkpt lat="47.44649" lon="6.72318">
        <ele>472.6</ele>
        <time>2014-05-18T08:12:19.000Z</time>
      </trkpt>
      <trkpt lat="47.44644" lon="6.72318">
        <ele>473</ele>
        <time>2014-05-18T08:12:20.000Z</time>
      </trkpt>
      <trkpt lat="47.44639" lon="6.72318">
        <ele>474</ele>
        <time>2014-05-18T08:12:21.000Z</time>
      </trkpt>
      <trkpt lat="47.44634" lon="6.72318">
        <ele>474.8</ele>
        <time>2014-05-18T08:12:22.000Z</time>
      </trkpt>
      <trkpt lat="47.44628" lon="6.72318">
        <ele>474.8</ele>
        <time>2014-05-18T08:12:23.000Z</time>
      </trkpt>
      <trkpt lat="47.44623" lon="6.72318">
        <ele>475</ele>
        <time>2014-05-18T08:12:24.000Z</time>
      </trkpt>
      <trkpt lat="47.44616" lon="6.7232">
        <ele>474.3</ele>
        <time>2014-05-18T08:12:25.000Z</time>
      </trkpt>
      <trkpt lat="47.44611" lon="6.72321">
        <ele>473.9</ele>
        <time>2014-05-18T08:12:26.000Z</time>
      </trkpt>
      <trkpt lat="47.44605" lon="6.72322">
        <ele>474.2</ele>
        <time>2014-05-18T08:12:27.000Z</time>
      </trkpt>
      <trkpt lat="47.446" lon="6.72322">
        <ele>474.7</ele>
        <time>2014-05-18T08:12:28.000Z</time>
      </trkpt>
      <trkpt lat="47.44595" lon="6.72322">
        <ele>475</ele>
        <time>2014-05-18T08:12:29.000Z</time>
      </trkpt>
      <trkpt lat="47.44588" lon="6.72324">
        <ele>475.3</ele>
        <time>2014-05-18T08:12:30.000Z</time>
      </trkpt>
      <trkpt lat="47.44581" lon="6.72326">
        <ele>474.8</ele>
        <time>2014-05-18T08:12:31.000Z</time>
      </trkpt>
      <trkpt lat="47.44573" lon="6.72328">
        <ele>474.4</ele>
        <time>2014-05-18T08:12:32.000Z</time>
      </trkpt>
      <trkpt lat="47.44568" lon="6.72329">
        <ele>474.1</ele>
        <time>2014-05-18T08:12:33.000Z</time>
      </trkpt>
      <trkpt lat="47.44562" lon="6.72328">
        <ele>474.1</ele>
        <time>2014-05-18T08:12:34.000Z</time>
      </trkpt>
      <trkpt lat="47.44557" lon="6.72329">
        <ele>474.5</ele>
        <time>2014-05-18T08:12:35.000Z</time>
      </trkpt>
      <trkpt lat="47.44551" lon="6.7233">
        <ele>475.7</ele>
        <time>2014-05-18T08:12:36.000Z</time>
      </trkpt>
      <trkpt lat="47.44544" lon="6.72331">
        <ele>475.6</ele>
        <time>2014-05-18T08:12:37.000Z</time>
      </trkpt>
      <trkpt lat="47.44538" lon="6.72335">
        <ele>476</ele>
        <time>2014-05-18T08:12:38.000Z</time>
      </trkpt>
      <trkpt lat="47.44532" lon="6.72337">
        <ele>477</ele>
        <time>2014-05-18T08:12:39.000Z</time>
      </trkpt>
      <trkpt lat="47.44523" lon="6.72336">
        <ele>478.8</ele>
        <time>2014-05-18T08:12:40.000Z</time>
      </trkpt>
      <trkpt lat="47.44517" lon="6.72336">
        <ele>481.7</ele>
        <time>2014-05-18T08:12:41.000Z</time>
      </trkpt>
      <trkpt lat="47.44511" lon="6.72337">
        <ele>481.6</ele>
        <time>2014-05-18T08:12:42.000Z</time>
      </trkpt>
      <trkpt lat="47.44506" lon="6.72338">
        <ele>480.3</ele>
        <time>2014-05-18T08:12:43.000Z</time>
      </trkpt>
      <trkpt lat="47.44501" lon="6.72339">
        <ele>480.4</ele>
        <time>2014-05-18T08:12:44.000Z</time>
      </trkpt>
      <trkpt lat="47.44496" lon="6.72341">
        <ele>480.3</ele>
        <time>2014-05-18T08:12:45.000Z</time>
      </trkpt>
      <trkpt lat="47.44491" lon="6.72342">
        <ele>480.6</ele>
        <time>2014-05-18T08:12:46.000Z</time>
      </trkpt>
      <trkpt lat="47.44447" lon="6.72361">
        <ele>474.9</ele>
        <time>2014-05-18T08:12:54.000Z</time>
      </trkpt>
      <trkpt lat="47.44441" lon="6.72359">
        <ele>473</ele>
        <time>2014-05-18T08:12:55.000Z</time>
      </trkpt>
      <trkpt lat="47.44435" lon="6.72358">
        <ele>473.7</ele>
        <time>2014-05-18T08:12:56.000Z</time>
      </trkpt>
      <trkpt lat="47.44429" lon="6.72357">
        <ele>475.3</ele>
        <time>2014-05-18T08:12:57.000Z</time>
      </trkpt>
      <trkpt lat="47.44422" lon="6.72357">
        <ele>476.4</ele>
        <time>2014-05-18T08:12:58.000Z</time>
      </trkpt>
      <trkpt lat="47.44416" lon="6.72358">
        <ele>476.9</ele>
        <time>2014-05-18T08:12:59.000Z</time>
      </trkpt>
      <trkpt lat="47.44411" lon="6.72359">
        <ele>477.1</ele>
        <time>2014-05-18T08:13:00.000Z</time>
      </trkpt>
      <trkpt lat="47.44405" lon="6.7236">
        <ele>477.6</ele>
        <time>2014-05-18T08:13:01.000Z</time>
      </trkpt>
      <trkpt lat="47.44401" lon="6.72362">
        <ele>477.2</ele>
        <time>2014-05-18T08:13:02.000Z</time>
      </trkpt>
      <trkpt lat="47.44395" lon="6.72363">
        <ele>477.4</ele>
        <time>2014-05-18T08:13:03.000Z</time>
      </trkpt>
      <trkpt lat="47.4439" lon="6.72364">
        <ele>477.7</ele>
        <time>2014-05-18T08:13:04.000Z</time>
      </trkpt>
      <trkpt lat="47.44383" lon="6.72366">
        <ele>477.8</ele>
        <time>2014-05-18T08:13:05.000Z</time>
      </trkpt>
      <trkpt lat="47.44377" lon="6.72367">
        <ele>478.4</ele>
        <time>2014-05-18T08:13:06.000Z</time>
      </trkpt>
      <trkpt lat="47.44372" lon="6.72369">
        <ele>479</ele>
        <time>2014-05-18T08:13:07.000Z</time>
      </trkpt>
      <trkpt lat="47.44367" lon="6.7237">
        <ele>478.7</ele>
        <time>2014-05-18T08:13:08.000Z</time>
      </trkpt>
      <trkpt lat="47.44361" lon="6.72372">
        <ele>479.3</ele>
        <time>2014-05-18T08:13:09.000Z</time>
      </trkpt>
      <trkpt lat="47.44354" lon="6.72373">
        <ele>479.5</ele>
        <time>2014-05-18T08:13:10.000Z</time>
      </trkpt>
      <trkpt lat="47.44348" lon="6.72375">
        <ele>479.9</ele>
        <time>2014-05-18T08:13:11.000Z</time>
      </trkpt>
      <trkpt lat="47.44344" lon="6.72376">
        <ele>479.8</ele>
        <time>2014-05-18T08:13:12.000Z</time>
      </trkpt>
      <trkpt lat="47.44339" lon="6.72377">
        <ele>480</ele>
        <time>2014-05-18T08:13:13.000Z</time>
      </trkpt>
      <trkpt lat="47.44334" lon="6.72379">
        <ele>480.3</ele>
        <time>2014-05-18T08:13:14.000Z</time>
      </trkpt>
      <trkpt lat="47.44329" lon="6.7238">
        <ele>483.3</ele>
        <time>2014-05-18T08:13:15.000Z</time>
      </trkpt>
      <trkpt lat="47.44326" lon="6.72379">
        <ele>484.8</ele>
        <time>2014-05-18T08:13:16.000Z</time>
      </trkpt>
      <trkpt lat="47.44321" lon="6.7238">
        <ele>485.2</ele>
        <time>2014-05-18T08:13:17.000Z</time>
      </trkpt>
      <trkpt lat="47.44316" lon="6.72381">
        <ele>485.6</ele>
        <time>2014-05-18T08:13:18.000Z</time>
      </trkpt>
      <trkpt lat="47.44311" lon="6.72382">
        <ele>485.7</ele>
        <time>2014-05-18T08:13:19.000Z</time>
      </trkpt>
      <trkpt lat="47.44305" lon="6.72384">
        <ele>486.3</ele>
        <time>2014-05-18T08:13:20.000Z</time>
      </trkpt>
      <trkpt lat="47.44298" lon="6.72388">
        <ele>486.5</ele>
        <time>2014-05-18T08:13:21.000Z</time>
      </trkpt>
      <trkpt lat="47.44293" lon="6.7239">
        <ele>486.1</ele>
        <time>2014-05-18T08:13:22.000Z</time>
      </trkpt>
      <trkpt lat="47.44285" lon="6.72391">
        <ele>485</ele>
        <time>2014-05-18T08:13:23.000Z</time>
      </trkpt>
      <trkpt lat="47.44281" lon="6.72392">
        <ele>485.4</ele>
        <time>2014-05-18T08:13:24.000Z</time>
      </trkpt>
      <trkpt lat="47.44275" lon="6.72393">
        <ele>484.5</ele>
        <time>2014-05-18T08:13:25.000Z</time>
      </trkpt>
      <trkpt lat="47.44269" lon="6.72396">
        <ele>484.1</ele>
        <time>2014-05-18T08:13:26.000Z</time>
      </trkpt>
      <trkpt lat="47.44266" lon="6.72397">
        <ele>481.2</ele>
        <time>2014-05-18T08:13:27.000Z</time>
      </trkpt>
      <trkpt lat="47.4426" lon="6.724">
        <ele>480.7</ele>
        <time>2014-05-18T08:13:28.000Z</time>
      </trkpt>
      <trkpt lat="47.44257" lon="6.72402">
        <ele>479.7</ele>
        <time>2014-05-18T08:13:29.000Z</time>
      </trkpt>
      <trkpt lat="47.4425" lon="6.72403">
        <ele>481</ele>
        <time>2014-05-18T08:13:30.000Z</time>
      </trkpt>
      <trkpt lat="47.44245" lon="6.72404">
        <ele>479.7</ele>
        <time>2014-05-18T08:13:31.000Z</time>
      </trkpt>
      <trkpt lat="47.44239" lon="6.72407">
        <ele>480.6</ele>
        <time>2014-05-18T08:13:32.000Z</time>
      </trkpt>
      <trkpt lat="47.44234" lon="6.72406">
        <ele>481.1</ele>
        <time>2014-05-18T08:13:33.000Z</time>
      </trkpt>
      <trkpt lat="47.44229" lon="6.72406">
        <ele>480.7</ele>
        <time>2014-05-18T08:13:34.000Z</time>
      </trkpt>
      <trkpt lat="47.44222" lon="6.72407">
        <ele>481.7</ele>
        <time>2014-05-18T08:13:35.000Z</time>
      </trkpt>
      <trkpt lat="47.44217" lon="6.72408">
        <ele>482.2</ele>
        <time>2014-05-18T08:13:36.000Z</time>
      </trkpt>
      <trkpt lat="47.4421" lon="6.72411">
        <ele>483.5</ele>
        <time>2014-05-18T08:13:37.000Z</time>
      </trkpt>
      <trkpt lat="47.44206" lon="6.72414">
        <ele>483.9</ele>
        <time>2014-05-18T08:13:38.000Z</time>
      </trkpt>
      <trkpt lat="47.44201" lon="6.72414">
        <ele>483.8</ele>
        <time>2014-05-18T08:13:39.000Z</time>
      </trkpt>
      <trkpt lat="47.44197" lon="6.72411">
        <ele>483.6</ele>
        <time>2014-05-18T08:13:40.000Z</time>
      </trkpt>
      <trkpt lat="47.44191" lon="6.72415">
        <ele>484.4</ele>
        <time>2014-05-18T08:13:41.000Z</time>
      </trkpt>
      <trkpt lat="47.44183" lon="6.72417">
        <ele>484.8</ele>
        <time>2014-05-18T08:13:42.000Z</time>
      </trkpt>
      <trkpt lat="47.44173" lon="6.72423">
        <ele>483.7</ele>
        <time>2014-05-18T08:13:43.000Z</time>
      </trkpt>
      <trkpt lat="47.44166" lon="6.72426">
        <ele>482.3</ele>
        <time>2014-05-18T08:13:44.000Z</time>
      </trkpt>
      <trkpt lat="47.4416" lon="6.72425">
        <ele>480.1</ele>
        <time>2014-05-18T08:13:45.000Z</time>
      </trkpt>
      <trkpt lat="47.44153" lon="6.72427">
        <ele>478.9</ele>
        <time>2014-05-18T08:13:46.000Z</time>
      </trkpt>
      <trkpt lat="47.44108" lon="6.72442">
        <ele>476.9</ele>
        <time>2014-05-18T08:13:54.000Z</time>
      </trkpt>
      <trkpt lat="47.44105" lon="6.72446">
        <ele>476.9</ele>
        <time>2014-05-18T08:13:55.000Z</time>
      </trkpt>
      <trkpt lat="47.44098" lon="6.72448">
        <ele>477</ele>
        <time>2014-05-18T08:13:56.000Z</time>
      </trkpt>
      <trkpt lat="47.44088" lon="6.72449">
        <ele>477.1</ele>
        <time>2014-05-18T08:13:57.000Z</time>
      </trkpt>
      <trkpt lat="47.44079" lon="6.72453">
        <ele>476.6</ele>
        <time>2014-05-18T08:13:58.000Z</time>
      </trkpt>
      <trkpt lat="47.44069" lon="6.72457">
        <ele>477.2</ele>
        <time>2014-05-18T08:13:59.000Z</time>
      </trkpt>
      <trkpt lat="47.44061" lon="6.72459">
        <ele>475.6</ele>
        <time>2014-05-18T08:14:00.000Z</time>
      </trkpt>
      <trkpt lat="47.44053" lon="6.72461">
        <ele>474.7</ele>
        <time>2014-05-18T08:14:01.000Z</time>
      </trkpt>
      <trkpt lat="47.44044" lon="6.72464">
        <ele>474.3</ele>
        <time>2014-05-18T08:14:02.000Z</time>
      </trkpt>
      <trkpt lat="47.44037" lon="6.72466">
        <ele>474.6</ele>
        <time>2014-05-18T08:14:03.000Z</time>
      </trkpt>
      <trkpt lat="47.44028" lon="6.72469">
        <ele>474.9</ele>
        <time>2014-05-18T08:14:04.000Z</time>
      </trkpt>
      <trkpt lat="47.4402" lon="6.72473">
        <ele>473.9</ele>
        <time>2014-05-18T08:14:05.000Z</time>
      </trkpt>
      <trkpt lat="47.44012" lon="6.72476">
        <ele>473.7</ele>
        <time>2014-05-18T08:14:06.000Z</time>
      </trkpt>
      <trkpt lat="47.44006" lon="6.72478">
        <ele>474.1</ele>
        <time>2014-05-18T08:14:07.000Z</time>
      </trkpt>
      <trkpt lat="47.43999" lon="6.72481">
        <ele>473.7</ele>
        <time>2014-05-18T08:14:08.000Z</time>
      </trkpt>
      <trkpt lat="47.43992" lon="6.72483">
        <ele>473.5</ele>
        <time>2014-05-18T08:14:09.000Z</time>
      </trkpt>
      <trkpt lat="47.43985" lon="6.72485">
        <ele>474.1</ele>
        <time>2014-05-18T08:14:10.000Z</time>
      </trkpt>
      <trkpt lat="47.43979" lon="6.72487">
        <ele>474.6</ele>
        <time>2014-05-18T08:14:11.000Z</time>
      </trkpt>
      <trkpt lat="47.43973" lon="6.72489">
        <ele>474.9</ele>
        <time>2014-05-18T08:14:12.000Z</time>
      </trkpt>
      <trkpt lat="47.43966" lon="6.72491">
        <ele>474.9</ele>
        <time>2014-05-18T08:14:13.000Z</time>
      </trkpt>
      <trkpt lat="47.4396" lon="6.72494">
        <ele>474.7</ele>
        <time>2014-05-18T08:14:14.000Z</time>
      </trkpt>
      <trkpt lat="47.43954" lon="6.72495">
        <ele>474.1</ele>
        <time>2014-05-18T08:14:15.000Z</time>
      </trkpt>
      <trkpt lat="47.43948" lon="6.72498">
        <ele>474.1</ele>
        <time>2014-05-18T08:14:16.000Z</time>
      </trkpt>
      <trkpt lat="47.43942" lon="6.72499">
        <ele>474.4</ele>
        <time>2014-05-18T08:14:17.000Z</time>
      </trkpt>
      <trkpt lat="47.43935" lon="6.72499">
        <ele>474.4</ele>
        <time>2014-05-18T08:14:18.000Z</time>
      </trkpt>
      <trkpt lat="47.4393" lon="6.72497">
        <ele>474</ele>
        <time>2014-05-18T08:14:19.000Z</time>
      </trkpt>
      <trkpt lat="47.43924" lon="6.72493">
        <ele>473.8</ele>
        <time>2014-05-18T08:14:20.000Z</time>
      </trkpt>
      <trkpt lat="47.43918" lon="6.72491">
        <ele>473.5</ele>
        <time>2014-05-18T08:14:21.000Z</time>
      </trkpt>
      <trkpt lat="47.43913" lon="6.72486">
        <ele>472.9</ele>
        <time>2014-05-18T08:14:22.000Z</time>
      </trkpt>
      <trkpt lat="47.43907" lon="6.72482">
        <ele>472</ele>
        <time>2014-05-18T08:14:23.000Z</time>
      </trkpt>
      <trkpt lat="47.43901" lon="6.72477">
        <ele>471.4</ele>
        <time>2014-05-18T08:14:24.000Z</time>
      </trkpt>
      <trkpt lat="47.43895" lon="6.72472">
        <ele>471.8</ele>
        <time>2014-05-18T08:14:25.000Z</time>
      </trkpt>
      <trkpt lat="47.43889" lon="6.72465">
        <ele>471.2</ele>
        <time>2014-05-18T08:14:26.000Z</time>
      </trkpt>
      <trkpt lat="47.43882" lon="6.72461">
        <ele>471.3</ele>
        <time>2014-05-18T08:14:27.000Z</time>
      </trkpt>
      <trkpt lat="47.43876" lon="6.72456">
        <ele>471.2</ele>
        <time>2014-05-18T08:14:28.000Z</time>
      </trkpt>
      <trkpt lat="47.4387" lon="6.72451">
        <ele>471.5</ele>
        <time>2014-05-18T08:14:29.000Z</time>
      </trkpt>
      <trkpt lat="47.43865" lon="6.72445">
        <ele>471.9</ele>
        <time>2014-05-18T08:14:30.000Z</time>
      </trkpt>
      <trkpt lat="47.43859" lon="6.7244">
        <ele>471.9</ele>
        <time>2014-05-18T08:14:31.000Z</time>
      </trkpt>
      <trkpt lat="47.43854" lon="6.72435">
        <ele>472.3</ele>
        <time>2014-05-18T08:14:32.000Z</time>
      </trkpt>
      <trkpt lat="47.43848" lon="6.7243">
        <ele>472.4</ele>
        <time>2014-05-18T08:14:33.000Z</time>
      </trkpt>
      <trkpt lat="47.43843" lon="6.72425">
        <ele>472.3</ele>
        <time>2014-05-18T08:14:34.000Z</time>
      </trkpt>
      <trkpt lat="47.43837" lon="6.7242">
        <ele>472.5</ele>
        <time>2014-05-18T08:14:35.000Z</time>
      </trkpt>
      <trkpt lat="47.43832" lon="6.72414">
        <ele>472</ele>
        <time>2014-05-18T08:14:36.000Z</time>
      </trkpt>
      <trkpt lat="47.43827" lon="6.72409">
        <ele>472.1</ele>
        <time>2014-05-18T08:14:37.000Z</time>
      </trkpt>
      <trkpt lat="47.43821" lon="6.72403">
        <ele>472.3</ele>
        <time>2014-05-18T08:14:38.000Z</time>
      </trkpt>
      <trkpt lat="47.43816" lon="6.72399">
        <ele>472.6</ele>
        <time>2014-05-18T08:14:39.000Z</time>
      </trkpt>
      <trkpt lat="47.43811" lon="6.72393">
        <ele>473</ele>
        <time>2014-05-18T08:14:40.000Z</time>
      </trkpt>
      <trkpt lat="47.43807" lon="6.72386">
        <ele>471.6</ele>
        <time>2014-05-18T08:14:41.000Z</time>
      </trkpt>
      <trkpt lat="47.43802" lon="6.7238">
        <ele>471.3</ele>
        <time>2014-05-18T08:14:42.000Z</time>
      </trkpt>
      <trkpt lat="47.43797" lon="6.72374">
        <ele>471.4</ele>
        <time>2014-05-18T08:14:43.000Z</time>
      </trkpt>
      <trkpt lat="47.43792" lon="6.72368">
        <ele>469.7</ele>
        <time>2014-05-18T08:14:44.000Z</time>
      </trkpt>
      <trkpt lat="47.43787" lon="6.72362">
        <ele>467.8</ele>
        <time>2014-05-18T08:14:45.000Z</time>
      </trkpt>
      <trkpt lat="47.43782" lon="6.72355">
        <ele>467.9</ele>
        <time>2014-05-18T08:14:46.000Z</time>
      </trkpt>
      <trkpt lat="47.43749" lon="6.72308">
        <ele>466.2</ele>
        <time>2014-05-18T08:14:54.000Z</time>
      </trkpt>
      <trkpt lat="47.43745" lon="6.72301">
        <ele>466.7</ele>
        <time>2014-05-18T08:14:55.000Z</time>
      </trkpt>
      <trkpt lat="47.43739" lon="6.72299">
        <ele>467.6</ele>
        <time>2014-05-18T08:14:56.000Z</time>
      </trkpt>
      <trkpt lat="47.43733" lon="6.72298">
        <ele>468.4</ele>
        <time>2014-05-18T08:14:57.000Z</time>
      </trkpt>
      <trkpt lat="47.43727" lon="6.72301">
        <ele>467.7</ele>
        <time>2014-05-18T08:14:58.000Z</time>
      </trkpt>
      <trkpt lat="47.43721" lon="6.72305">
        <ele>468.4</ele>
        <time>2014-05-18T08:14:59.000Z</time>
      </trkpt>
      <trkpt lat="47.43715" lon="6.72309">
        <ele>469.8</ele>
        <time>2014-05-18T08:15:00.000Z</time>
      </trkpt>
      <trkpt lat="47.4371" lon="6.72313">
        <ele>470.4</ele>
        <time>2014-05-18T08:15:01.000Z</time>
      </trkpt>
      <trkpt lat="47.43704" lon="6.72318">
        <ele>470.6</ele>
        <time>2014-05-18T08:15:02.000Z</time>
      </trkpt>
      <trkpt lat="47.43699" lon="6.72322">
        <ele>470.3</ele>
        <time>2014-05-18T08:15:03.000Z</time>
      </trkpt>
      <trkpt lat="47.43694" lon="6.72326">
        <ele>470.2</ele>
        <time>2014-05-18T08:15:04.000Z</time>
      </trkpt>
      <trkpt lat="47.43689" lon="6.7233">
        <ele>470.4</ele>
        <time>2014-05-18T08:15:05.000Z</time>
      </trkpt>
      <trkpt lat="47.43683" lon="6.72334">
        <ele>470.6</ele>
        <time>2014-05-18T08:15:06.000Z</time>
      </trkpt>
      <trkpt lat="47.43679" lon="6.72338">
        <ele>471.4</ele>
        <time>2014-05-18T08:15:07.000Z</time>
      </trkpt>
      <trkpt lat="47.43674" lon="6.72341">
        <ele>472.4</ele>
        <time>2014-05-18T08:15:08.000Z</time>
      </trkpt>
      <trkpt lat="47.4367" lon="6.72346">
        <ele>472.7</ele>
        <time>2014-05-18T08:15:09.000Z</time>
      </trkpt>
      <trkpt lat="47.43664" lon="6.7235">
        <ele>472.5</ele>
        <time>2014-05-18T08:15:10.000Z</time>
      </trkpt>
      <trkpt lat="47.4366" lon="6.72352">
        <ele>472.1</ele>
        <time>2014-05-18T08:15:11.000Z</time>
      </trkpt>
      <trkpt lat="47.43655" lon="6.72355">
        <ele>472</ele>
        <time>2014-05-18T08:15:12.000Z</time>
      </trkpt>
      <trkpt lat="47.4365" lon="6.72358">
        <ele>471.7</ele>
        <time>2014-05-18T08:15:13.000Z</time>
      </trkpt>
      <trkpt lat="47.43645" lon="6.72361">
        <ele>472.1</ele>
        <time>2014-05-18T08:15:14.000Z</time>
      </trkpt>
      <trkpt lat="47.43639" lon="6.72364">
        <ele>472.4</ele>
        <time>2014-05-18T08:15:15.000Z</time>
      </trkpt>
      <trkpt lat="47.43635" lon="6.72365">
        <ele>472.6</ele>
        <time>2014-05-18T08:15:16.000Z</time>
      </trkpt>
      <trkpt lat="47.43631" lon="6.72369">
        <ele>472.9</ele>
        <time>2014-05-18T08:15:17.000Z</time>
      </trkpt>
      <trkpt lat="47.43626" lon="6.7237">
        <ele>472.4</ele>
        <time>2014-05-18T08:15:18.000Z</time>
      </trkpt>
      <trkpt lat="47.43622" lon="6.72372">
        <ele>472.5</ele>
        <time>2014-05-18T08:15:19.000Z</time>
      </trkpt>
      <trkpt lat="47.43618" lon="6.72374">
        <ele>473.1</ele>
        <time>2014-05-18T08:15:20.000Z</time>
      </trkpt>
      <trkpt lat="47.43614" lon="6.72376">
        <ele>472.5</ele>
        <time>2014-05-18T08:15:21.000Z</time>
      </trkpt>
      <trkpt lat="47.43609" lon="6.72378">
        <ele>472.9</ele>
        <time>2014-05-18T08:15:22.000Z</time>
      </trkpt>
      <trkpt lat="47.43605" lon="6.72379">
        <ele>473.1</ele>
        <time>2014-05-18T08:15:23.000Z</time>
      </trkpt>
      <trkpt lat="47.43601" lon="6.72381">
        <ele>473.5</ele>
        <time>2014-05-18T08:15:24.000Z</time>
      </trkpt>
      <trkpt lat="47.43597" lon="6.72383">
        <ele>473.2</ele>
        <time>2014-05-18T08:15:25.000Z</time>
      </trkpt>
      <trkpt lat="47.43593" lon="6.72385">
        <ele>472.2</ele>
        <time>2014-05-18T08:15:26.000Z</time>
      </trkpt>
      <trkpt lat="47.4359" lon="6.72388">
        <ele>472.2</ele>
        <time>2014-05-18T08:15:27.000Z</time>
      </trkpt>
      <trkpt lat="47.43586" lon="6.72391">
        <ele>472.3</ele>
        <time>2014-05-18T08:15:28.000Z</time>
      </trkpt>
      <trkpt lat="47.43583" lon="6.72391">
        <ele>472</ele>
        <time>2014-05-18T08:15:29.000Z</time>
      </trkpt>
      <trkpt lat="47.43579" lon="6.72393">
        <ele>471.8</ele>
        <time>2014-05-18T08:15:30.000Z</time>
      </trkpt>
      <trkpt lat="47.43576" lon="6.72394">
        <ele>471.2</ele>
        <time>2014-05-18T08:15:31.000Z</time>
      </trkpt>
      <trkpt lat="47.43572" lon="6.72396">
        <ele>471.9</ele>
        <time>2014-05-18T08:15:32.000Z</time>
      </trkpt>
      <trkpt lat="47.43568" lon="6.72399">
        <ele>472.5</ele>
        <time>2014-05-18T08:15:33.000Z</time>
      </trkpt>
      <trkpt lat="47.43564" lon="6.72401">
        <ele>472.5</ele>
        <time>2014-05-18T08:15:34.000Z</time>
      </trkpt>
      <trkpt lat="47.4356" lon="6.72402">
        <ele>473.1</ele>
        <time>2014-05-18T08:15:35.000Z</time>
      </trkpt>
      <trkpt lat="47.43557" lon="6.72404">
        <ele>472.7</ele>
        <time>2014-05-18T08:15:36.000Z</time>
      </trkpt>
      <trkpt lat="47.43553" lon="6.72406">
        <ele>473.1</ele>
        <time>2014-05-18T08:15:37.000Z</time>
      </trkpt>
      <trkpt lat="47.4355" lon="6.72408">
        <ele>473.4</ele>
        <time>2014-05-18T08:15:38.000Z</time>
      </trkpt>
      <trkpt lat="47.43546" lon="6.72409">
        <ele>473.7</ele>
        <time>2014-05-18T08:15:39.000Z</time>
      </trkpt>
      <trkpt lat="47.43543" lon="6.72411">
        <ele>474</ele>
        <time>2014-05-18T08:15:40.000Z</time>
      </trkpt>
      <trkpt lat="47.4354" lon="6.72413">
        <ele>474.2</ele>
        <time>2014-05-18T08:15:41.000Z</time>
      </trkpt>
      <trkpt lat="47.43537" lon="6.72415">
        <ele>474.8</ele>
        <time>2014-05-18T08:15:42.000Z</time>
      </trkpt>
      <trkpt lat="47.43534" lon="6.72417">
        <ele>475.7</ele>
        <time>2014-05-18T08:15:43.000Z</time>
      </trkpt>
      <trkpt lat="47.4353" lon="6.72418">
        <ele>475.7</ele>
        <time>2014-05-18T08:15:44.000Z</time>
      </trkpt>
      <trkpt lat="47.43527" lon="6.7242">
        <ele>475.7</ele>
        <time>2014-05-18T08:15:45.000Z</time>
      </trkpt>
      <trkpt lat="47.43524" lon="6.72421">
        <ele>475.7</ele>
        <time>2014-05-18T08:15:46.000Z</time>
      </trkpt>
      <trkpt lat="47.43503" lon="6.72404">
        <ele>474.7</ele>
        <time>2014-05-18T08:15:54.000Z</time>
      </trkpt>
      <trkpt lat="47.435" lon="6.72399">
        <ele>475.1</ele>
        <time>2014-05-18T08:15:55.000Z</time>
      </trkpt>
      <trkpt lat="47.43497" lon="6.72393">
        <ele>474.2</ele>
        <time>2014-05-18T08:15:56.000Z</time>
      </trkpt>
      <trkpt lat="47.43494" lon="6.72388">
        <ele>473.8</ele>
        <time>2014-05-18T08:15:57.000Z</time>
      </trkpt>
      <trkpt lat="47.43491" lon="6.72383">
        <ele>473.8</ele>
        <time>2014-05-18T08:15:58.000Z</time>
      </trkpt>
      <trkpt lat="47.43488" lon="6.72378">
        <ele>473.6</ele>
        <time>2014-05-18T08:15:59.000Z</time>
      </trkpt>
      <trkpt lat="47.43485" lon="6.72373">
        <ele>473.2</ele>
        <time>2014-05-18T08:16:00.000Z</time>
      </trkpt>
      <trkpt lat="47.43482" lon="6.72368">
        <ele>472.8</ele>
        <time>2014-05-18T08:16:01.000Z</time>
      </trkpt>
      <trkpt lat="47.43479" lon="6.72362">
        <ele>472.5</ele>
        <time>2014-05-18T08:16:02.000Z</time>
      </trkpt>
      <trkpt lat="47.43476" lon="6.72357">
        <ele>471.7</ele>
        <time>2014-05-18T08:16:03.000Z</time>
      </trkpt>
      <trkpt lat="47.43472" lon="6.72351">
        <ele>472.1</ele>
        <time>2014-05-18T08:16:04.000Z</time>
      </trkpt>
      <trkpt lat="47.43468" lon="6.72346">
        <ele>472.3</ele>
        <time>2014-05-18T08:16:05.000Z</time>
      </trkpt>
      <trkpt lat="47.43465" lon="6.72341">
        <ele>472.1</ele>
        <time>2014-05-18T08:16:06.000Z</time>
      </trkpt>
      <trkpt lat="47.43462" lon="6.72337">
        <ele>471.7</ele>
        <time>2014-05-18T08:16:07.000Z</time>
      </trkpt>
      <trkpt lat="47.43458" lon="6.72332">
        <ele>471.9</ele>
        <time>2014-05-18T08:16:08.000Z</time>
      </trkpt>
      <trkpt lat="47.43455" lon="6.72326">
        <ele>471.3</ele>
        <time>2014-05-18T08:16:09.000Z</time>
      </trkpt>
      <trkpt lat="47.43452" lon="6.72322">
        <ele>471.2</ele>
        <time>2014-05-18T08:16:10.000Z</time>
      </trkpt>
      <trkpt lat="47.43449" lon="6.72314">
        <ele>470.9</ele>
        <time>2014-05-18T08:16:11.000Z</time>
      </trkpt>
      <trkpt lat="47.43445" lon="6.7231">
        <ele>471.3</ele>
        <time>2014-05-18T08:16:12.000Z</time>
      </trkpt>
      <trkpt lat="47.43441" lon="6.72304">
        <ele>471.8</ele>
        <time>2014-05-18T08:16:13.000Z</time>
      </trkpt>
      <trkpt lat="47.43437" lon="6.72298">
        <ele>472.9</ele>
        <time>2014-05-18T08:16:14.000Z</time>
      </trkpt>
      <trkpt lat="47.43433" lon="6.72292">
        <ele>472.3</ele>
        <time>2014-05-18T08:16:15.000Z</time>
      </trkpt>
      <trkpt lat="47.4343" lon="6.72287">
        <ele>472.6</ele>
        <time>2014-05-18T08:16:16.000Z</time>
      </trkpt>
      <trkpt lat="47.43426" lon="6.72282">
        <ele>472.4</ele>
        <time>2014-05-18T08:16:17.000Z</time>
      </trkpt>
      <trkpt lat="47.43423" lon="6.72277">
        <ele>472.7</ele>
        <time>2014-05-18T08:16:18.000Z</time>
      </trkpt>
      <trkpt lat="47.4342" lon="6.72272">
        <ele>473.2</ele>
        <time>2014-05-18T08:16:19.000Z</time>
      </trkpt>
      <trkpt lat="47.43417" lon="6.72266">
        <ele>473.5</ele>
        <time>2014-05-18T08:16:20.000Z</time>
      </trkpt>
      <trkpt lat="47.43414" lon="6.72263">
        <ele>472.8</ele>
        <time>2014-05-18T08:16:21.000Z</time>
      </trkpt>
      <trkpt lat="47.4341" lon="6.72257">
        <ele>472</ele>
        <time>2014-05-18T08:16:22.000Z</time>
      </trkpt>
      <trkpt lat="47.43407" lon="6.72252">
        <ele>471.4</ele>
        <time>2014-05-18T08:16:23.000Z</time>
      </trkpt>
      <trkpt lat="47.43403" lon="6.72247">
        <ele>471.7</ele>
        <time>2014-05-18T08:16:24.000Z</time>
      </trkpt>
      <trkpt lat="47.43401" lon="6.72243">
        <ele>471.4</ele>
        <time>2014-05-18T08:16:25.000Z</time>
      </trkpt>
      <trkpt lat="47.43397" lon="6.72238">
        <ele>471.5</ele>
        <time>2014-05-18T08:16:26.000Z</time>
      </trkpt>
      <trkpt lat="47.43394" lon="6.72233">
        <ele>472.1</ele>
        <time>2014-05-18T08:16:27.000Z</time>
      </trkpt>
      <trkpt lat="47.4339" lon="6.72228">
        <ele>472.6</ele>
        <time>2014-05-18T08:16:28.000Z</time>
      </trkpt>
      <trkpt lat="47.43386" lon="6.72223">
        <ele>472.8</ele>
        <time>2014-05-18T08:16:29.000Z</time>
      </trkpt>
      <trkpt lat="47.43382" lon="6.72217">
        <ele>472.2</ele>
        <time>2014-05-18T08:16:30.000Z</time>
      </trkpt>
      <trkpt lat="47.43379" lon="6.72212">
        <ele>471.9</ele>
        <time>2014-05-18T08:16:31.000Z</time>
      </trkpt>
      <trkpt lat="47.43376" lon="6.72206">
        <ele>472.2</ele>
        <time>2014-05-18T08:16:32.000Z</time>
      </trkpt>
      <trkpt lat="47.43372" lon="6.722">
        <ele>471.8</ele>
        <time>2014-05-18T08:16:33.000Z</time>
      </trkpt>
      <trkpt lat="47.43368" lon="6.72195">
        <ele>471.7</ele>
        <time>2014-05-18T08:16:34.000Z</time>
      </trkpt>
      <trkpt lat="47.43364" lon="6.72189">
        <ele>471.3</ele>
        <time>2014-05-18T08:16:35.000Z</time>
      </trkpt>
      <trkpt lat="47.4336" lon="6.72185">
        <ele>471.3</ele>
        <time>2014-05-18T08:16:36.000Z</time>
      </trkpt>
      <trkpt lat="47.43356" lon="6.7218">
        <ele>470.1</ele>
        <time>2014-05-18T08:16:37.000Z</time>
      </trkpt>
      <trkpt lat="47.43352" lon="6.72173">
        <ele>470.4</ele>
        <time>2014-05-18T08:16:38.000Z</time>
      </trkpt>
      <trkpt lat="47.43349" lon="6.72166">
        <ele>471.3</ele>
        <time>2014-05-18T08:16:39.000Z</time>
      </trkpt>
      <trkpt lat="47.43345" lon="6.7216">
        <ele>471.7</ele>
        <time>2014-05-18T08:16:40.000Z</time>
      </trkpt>
      <trkpt lat="47.43342" lon="6.72155">
        <ele>471.6</ele>
        <time>2014-05-18T08:16:41.000Z</time>
      </trkpt>
      <trkpt lat="47.43338" lon="6.7215">
        <ele>471.4</ele>
        <time>2014-05-18T08:16:42.000Z</time>
      </trkpt>
      <trkpt lat="47.43334" lon="6.72146">
        <ele>470.8</ele>
        <time>2014-05-18T08:16:43.000Z</time>
      </trkpt>
      <trkpt lat="47.43329" lon="6.72142">
        <ele>470.5</ele>
        <time>2014-05-18T08:16:44.000Z</time>
      </trkpt>
      <trkpt lat="47.43326" lon="6.72136">
        <ele>470.5</ele>
        <time>2014-05-18T08:16:45.000Z</time>
      </trkpt>
      <trkpt lat="47.43322" lon="6.72131">
        <ele>470.9</ele>
        <time>2014-05-18T08:16:46.000Z</time>
      </trkpt>
      <trkpt lat="47.43294" lon="6.72084">
        <ele>473.9</ele>
        <time>2014-05-18T08:16:54.000Z</time>
      </trkpt>
      <trkpt lat="47.4329" lon="6.72078">
        <ele>474.5</ele>
        <time>2014-05-18T08:16:55.000Z</time>
      </trkpt>
      <trkpt lat="47.43287" lon="6.72073">
        <ele>474</ele>
        <time>2014-05-18T08:16:56.000Z</time>
      </trkpt>
      <trkpt lat="47.43284" lon="6.72067">
        <ele>474.2</ele>
        <time>2014-05-18T08:16:57.000Z</time>
      </trkpt>
      <trkpt lat="47.43281" lon="6.72062">
        <ele>474.8</ele>
        <time>2014-05-18T08:16:58.000Z</time>
      </trkpt>
      <trkpt lat="47.43278" lon="6.72055">
        <ele>474.2</ele>
        <time>2014-05-18T08:16:59.000Z</time>
      </trkpt>
      <trkpt lat="47.43275" lon="6.7205">
        <ele>474.2</ele>
        <time>2014-05-18T08:17:00.000Z</time>
      </trkpt>
      <trkpt lat="47.43272" lon="6.72044">
        <ele>474.1</ele>
        <time>2014-05-18T08:17:01.000Z</time>
      </trkpt>
      <trkpt lat="47.43269" lon="6.72037">
        <ele>473.9</ele>
        <time>2014-05-18T08:17:02.000Z</time>
      </trkpt>
      <trkpt lat="47.43265" lon="6.72031">
        <ele>474</ele>
        <time>2014-05-18T08:17:03.000Z</time>
      </trkpt>
      <trkpt lat="47.43262" lon="6.72026">
        <ele>474.3</ele>
        <time>2014-05-18T08:17:04.000Z</time>
      </trkpt>
      <trkpt lat="47.43258" lon="6.7202">
        <ele>474.5</ele>
        <time>2014-05-18T08:17:05.000Z</time>
      </trkpt>
      <trkpt lat="47.43255" lon="6.72016">
        <ele>474.9</ele>
        <time>2014-05-18T08:17:06.000Z</time>
      </trkpt>
      <trkpt lat="47.43252" lon="6.7201">
        <ele>474.6</ele>
        <time>2014-05-18T08:17:07.000Z</time>
      </trkpt>
      <trkpt lat="47.43249" lon="6.72005">
        <ele>474.3</ele>
        <time>2014-05-18T08:17:08.000Z</time>
      </trkpt>
      <trkpt lat="47.43246" lon="6.72">
        <ele>474.3</ele>
        <time>2014-05-18T08:17:09.000Z</time>
      </trkpt>
      <trkpt lat="47.43243" lon="6.71995">
        <ele>474.1</ele>
        <time>2014-05-18T08:17:10.000Z</time>
      </trkpt>
      <trkpt lat="47.4324" lon="6.71989">
        <ele>473.9</ele>
        <time>2014-05-18T08:17:11.000Z</time>
      </trkpt>
      <trkpt lat="47.43237" lon="6.71984">
        <ele>473.8</ele>
        <time>2014-05-18T08:17:12.000Z</time>
      </trkpt>
      <trkpt lat="47.43234" lon="6.71979">
        <ele>474.5</ele>
        <time>2014-05-18T08:17:13.000Z</time>
      </trkpt>
      <trkpt lat="47.4323" lon="6.71974">
        <ele>475</ele>
        <time>2014-05-18T08:17:14.000Z</time>
      </trkpt>
      <trkpt lat="47.43227" lon="6.71969">
        <ele>474.3</ele>
        <time>2014-05-18T08:17:15.000Z</time>
      </trkpt>
      <trkpt lat="47.43225" lon="6.71965">
        <ele>474.7</ele>
        <time>2014-05-18T08:17:16.000Z</time>
      </trkpt>
      <trkpt lat="47.43222" lon="6.71961">
        <ele>474.6</ele>
        <time>2014-05-18T08:17:17.000Z</time>
      </trkpt>
      <trkpt lat="47.4322" lon="6.71957">
        <ele>475.1</ele>
        <time>2014-05-18T08:17:18.000Z</time>
      </trkpt>
      <trkpt lat="47.43218" lon="6.71954">
        <ele>475.7</ele>
        <time>2014-05-18T08:17:19.000Z</time>
      </trkpt>
      <trkpt lat="47.43215" lon="6.71949">
        <ele>476.2</ele>
        <time>2014-05-18T08:17:20.000Z</time>
      </trkpt>
      <trkpt lat="47.43212" lon="6.71945">
        <ele>475.2</ele>
        <time>2014-05-18T08:17:21.000Z</time>
      </trkpt>
      <trkpt lat="47.43209" lon="6.7194">
        <ele>475.4</ele>
        <time>2014-05-18T08:17:22.000Z</time>
      </trkpt>
      <trkpt lat="47.43206" lon="6.71934">
        <ele>475.6</ele>
        <time>2014-05-18T08:17:23.000Z</time>
      </trkpt>
      <trkpt lat="47.43204" lon="6.71929">
        <ele>474.7</ele>
        <time>2014-05-18T08:17:24.000Z</time>
      </trkpt>
      <trkpt lat="47.43201" lon="6.71925">
        <ele>473.8</ele>
        <time>2014-05-18T08:17:25.000Z</time>
      </trkpt>
      <trkpt lat="47.43199" lon="6.7192">
        <ele>474.2</ele>
        <time>2014-05-18T08:17:26.000Z</time>
      </trkpt>
      <trkpt lat="47.43196" lon="6.71915">
        <ele>474.2</ele>
        <time>2014-05-18T08:17:27.000Z</time>
      </trkpt>
      <trkpt lat="47.43194" lon="6.71911">
        <ele>474.6</ele>
        <time>2014-05-18T08:17:28.000Z</time>
      </trkpt>
      <trkpt lat="47.43191" lon="6.71907">
        <ele>475.4</ele>
        <time>2014-05-18T08:17:29.000Z</time>
      </trkpt>
      <trkpt lat="47.43188" lon="6.71903">
        <ele>475.4</ele>
        <time>2014-05-18T08:17:30.000Z</time>
      </trkpt>
      <trkpt lat="47.43185" lon="6.719">
        <ele>476</ele>
        <time>2014-05-18T08:17:31.000Z</time>
      </trkpt>
      <trkpt lat="47.43183" lon="6.71898">
        <ele>476.2</ele>
        <time>2014-05-18T08:17:32.000Z</time>
      </trkpt>
      <trkpt lat="47.4318" lon="6.71898">
        <ele>476.6</ele>
        <time>2014-05-18T08:17:33.000Z</time>
      </trkpt>
      <trkpt lat="47.43177" lon="6.71898">
        <ele>477.5</ele>
        <time>2014-05-18T08:17:34.000Z</time>
      </trkpt>
      <trkpt lat="47.43174" lon="6.71899">
        <ele>478.3</ele>
        <time>2014-05-18T08:17:35.000Z</time>
      </trkpt>
      <trkpt lat="47.43172" lon="6.71901">
        <ele>479.1</ele>
        <time>2014-05-18T08:17:36.000Z</time>
      </trkpt>
      <trkpt lat="47.4317" lon="6.71903">
        <ele>479.9</ele>
        <time>2014-05-18T08:17:37.000Z</time>
      </trkpt>
      <trkpt lat="47.43167" lon="6.71908">
        <ele>480.5</ele>
        <time>2014-05-18T08:17:39.000Z</time>
      </trkpt>
      <trkpt lat="47.43165" lon="6.7191">
        <ele>481</ele>
        <time>2014-05-18T08:17:40.000Z</time>
      </trkpt>
      <trkpt lat="47.43162" lon="6.71915">
        <ele>481.2</ele>
        <time>2014-05-18T08:17:42.000Z</time>
      </trkpt>
      <trkpt lat="47.43161" lon="6.71917">
        <ele>481.3</ele>
        <time>2014-05-18T08:17:43.000Z</time>
      </trkpt>
      <trkpt lat="47.43158" lon="6.71922">
        <ele>482.3</ele>
        <time>2014-05-18T08:17:45.000Z</time>
      </trkpt>
      <trkpt lat="47.43157" lon="6.71923">
        <ele>482.9</ele>
        <time>2014-05-18T08:17:46.000Z</time>
      </trkpt>
      <trkpt lat="47.43148" lon="6.71931">
        <ele>487.2</ele>
        <time>2014-05-18T08:17:54.000Z</time>
      </trkpt>
      <trkpt lat="47.43145" lon="6.71932">
        <ele>487</ele>
        <time>2014-05-18T08:17:56.000Z</time>
      </trkpt>
      <trkpt lat="47.43143" lon="6.71933">
        <ele>486.6</ele>
        <time>2014-05-18T08:17:57.000Z</time>
      </trkpt>
      <trkpt lat="47.4314" lon="6.71935">
        <ele>487.7</ele>
        <time>2014-05-18T08:17:59.000Z</time>
      </trkpt>
      <trkpt lat="47.43139" lon="6.71936">
        <ele>488.3</ele>
        <time>2014-05-18T08:18:00.000Z</time>
      </trkpt>
      <trkpt lat="47.43136" lon="6.71938">
        <ele>489.4</ele>
        <time>2014-05-18T08:18:02.000Z</time>
      </trkpt>
      <trkpt lat="47.43134" lon="6.7194">
        <ele>489.5</ele>
        <time>2014-05-18T08:18:03.000Z</time>
      </trkpt>
      <trkpt lat="47.43131" lon="6.71942">
        <ele>489.4</ele>
        <time>2014-05-18T08:18:05.000Z</time>
      </trkpt>
      <trkpt lat="47.4313" lon="6.71944">
        <ele>489.9</ele>
        <time>2014-05-18T08:18:06.000Z</time>
      </trkpt>
      <trkpt lat="47.43127" lon="6.71947">
        <ele>490.8</ele>
        <time>2014-05-18T08:18:09.000Z</time>
      </trkpt>
      <trkpt lat="47.43126" lon="6.71948">
        <ele>491</ele>
        <time>2014-05-18T08:18:10.000Z</time>
      </trkpt>
      <trkpt lat="47.43122" lon="6.71951">
        <ele>492.1</ele>
        <time>2014-05-18T08:18:13.000Z</time>
      </trkpt>
      <trkpt lat="47.43121" lon="6.71952">
        <ele>491.6</ele>
        <time>2014-05-18T08:18:14.000Z</time>
      </trkpt>
      <trkpt lat="47.43118" lon="6.71955">
        <ele>491.4</ele>
        <time>2014-05-18T08:18:17.000Z</time>
      </trkpt>
      <trkpt lat="47.43116" lon="6.71956">
        <ele>491.5</ele>
        <time>2014-05-18T08:18:18.000Z</time>
      </trkpt>
      <trkpt lat="47.43113" lon="6.71958">
        <ele>493.2</ele>
        <time>2014-05-18T08:18:20.000Z</time>
      </trkpt>
      <trkpt lat="47.43112" lon="6.7196">
        <ele>494</ele>
        <time>2014-05-18T08:18:21.000Z</time>
      </trkpt>
      <trkpt lat="47.43109" lon="6.71962">
        <ele>495.3</ele>
        <time>2014-05-18T08:18:23.000Z</time>
      </trkpt>
      <trkpt lat="47.43108" lon="6.71964">
        <ele>495.2</ele>
        <time>2014-05-18T08:18:24.000Z</time>
      </trkpt>
      <trkpt lat="47.43104" lon="6.71966">
        <ele>495.6</ele>
        <time>2014-05-18T08:18:27.000Z</time>
      </trkpt>
      <trkpt lat="47.43102" lon="6.71967">
        <ele>495.8</ele>
        <time>2014-05-18T08:18:28.000Z</time>
      </trkpt>
      <trkpt lat="47.43099" lon="6.71969">
        <ele>496</ele>
        <time>2014-05-18T08:18:30.000Z</time>
      </trkpt>
      <trkpt lat="47.43098" lon="6.7197">
        <ele>496.9</ele>
        <time>2014-05-18T08:18:31.000Z</time>
      </trkpt>
      <trkpt lat="47.43095" lon="6.71973">
        <ele>497.4</ele>
        <time>2014-05-18T08:18:33.000Z</time>
      </trkpt>
      <trkpt lat="47.43093" lon="6.71974">
        <ele>497.6</ele>
        <time>2014-05-18T08:18:34.000Z</time>
      </trkpt>
      <trkpt lat="47.4309" lon="6.71976">
        <ele>498.1</ele>
        <time>2014-05-18T08:18:36.000Z</time>
      </trkpt>
      <trkpt lat="47.43088" lon="6.71978">
        <ele>498.3</ele>
        <time>2014-05-18T08:18:37.000Z</time>
      </trkpt>
      <trkpt lat="47.43086" lon="6.7198">
        <ele>498.2</ele>
        <time>2014-05-18T08:18:39.000Z</time>
      </trkpt>
      <trkpt lat="47.43084" lon="6.71981">
        <ele>498.8</ele>
        <time>2014-05-18T08:18:40.000Z</time>
      </trkpt>
      <trkpt lat="47.43081" lon="6.71984">
        <ele>499.7</ele>
        <time>2014-05-18T08:18:42.000Z</time>
      </trkpt>
      <trkpt lat="47.4308" lon="6.71985">
        <ele>500.1</ele>
        <time>2014-05-18T08:18:43.000Z</time>
      </trkpt>
      <trkpt lat="47.43077" lon="6.71988">
        <ele>499.7</ele>
        <time>2014-05-18T08:18:45.000Z</time>
      </trkpt>
      <trkpt lat="47.43075" lon="6.71989">
        <ele>499.5</ele>
        <time>2014-05-18T08:18:46.000Z</time>
      </trkpt>
      <trkpt lat="47.43062" lon="6.71999">
        <ele>498.8</ele>
        <time>2014-05-18T08:18:54.000Z</time>
      </trkpt>
      <trkpt lat="47.43058" lon="6.72001">
        <ele>497.9</ele>
        <time>2014-05-18T08:18:57.000Z</time>
      </trkpt>
      <trkpt lat="47.43057" lon="6.72002">
        <ele>498.1</ele>
        <time>2014-05-18T08:18:58.000Z</time>
      </trkpt>
      <trkpt lat="47.43054" lon="6.72004">
        <ele>499.1</ele>
        <time>2014-05-18T08:19:00.000Z</time>
      </trkpt>
      <trkpt lat="47.43052" lon="6.72005">
        <ele>500</ele>
        <time>2014-05-18T08:19:01.000Z</time>
      </trkpt>
      <trkpt lat="47.43049" lon="6.72008">
        <ele>499.9</ele>
        <time>2014-05-18T08:19:03.000Z</time>
      </trkpt>
      <trkpt lat="47.43047" lon="6.7201">
        <ele>500.2</ele>
        <time>2014-05-18T08:19:04.000Z</time>
      </trkpt>
      <trkpt lat="47.43044" lon="6.72012">
        <ele>500.1</ele>
        <time>2014-05-18T08:19:06.000Z</time>
      </trkpt>
      <trkpt lat="47.43042" lon="6.72013">
        <ele>499.1</ele>
        <time>2014-05-18T08:19:07.000Z</time>
      </trkpt>
      <trkpt lat="47.43039" lon="6.72016">
        <ele>499.8</ele>
        <time>2014-05-18T08:19:09.000Z</time>
      </trkpt>
      <trkpt lat="47.43038" lon="6.72017">
        <ele>499.7</ele>
        <time>2014-05-18T08:19:10.000Z</time>
      </trkpt>
      <trkpt lat="47.43035" lon="6.72019">
        <ele>500.5</ele>
        <time>2014-05-18T08:19:12.000Z</time>
      </trkpt>
      <trkpt lat="47.43034" lon="6.72021">
        <ele>500.8</ele>
        <time>2014-05-18T08:19:13.000Z</time>
      </trkpt>
      <trkpt lat="47.43031" lon="6.72023">
        <ele>500.9</ele>
        <time>2014-05-18T08:19:15.000Z</time>
      </trkpt>
      <trkpt lat="47.43029" lon="6.72025">
        <ele>501.1</ele>
        <time>2014-05-18T08:19:16.000Z</time>
      </trkpt>
      <trkpt lat="47.43026" lon="6.72027">
        <ele>501.6</ele>
        <time>2014-05-18T08:19:18.000Z</time>
      </trkpt>
      <trkpt lat="47.43025" lon="6.72029">
        <ele>502.1</ele>
        <time>2014-05-18T08:19:19.000Z</time>
      </trkpt>
      <trkpt lat="47.43022" lon="6.72031">
        <ele>502.3</ele>
        <time>2014-05-18T08:19:21.000Z</time>
      </trkpt>
      <trkpt lat="47.43021" lon="6.72032">
        <ele>502.4</ele>
        <time>2014-05-18T08:19:22.000Z</time>
      </trkpt>
      <trkpt lat="47.43018" lon="6.72034">
        <ele>504</ele>
        <time>2014-05-18T08:19:24.000Z</time>
      </trkpt>
      <trkpt lat="47.43017" lon="6.72036">
        <ele>504.5</ele>
        <time>2014-05-18T08:19:25.000Z</time>
      </trkpt>
      <trkpt lat="47.43014" lon="6.72038">
        <ele>505.4</ele>
        <time>2014-05-18T08:19:27.000Z</time>
      </trkpt>
      <trkpt lat="47.43013" lon="6.72039">
        <ele>505.5</ele>
        <time>2014-05-18T08:19:28.000Z</time>
      </trkpt>
      <trkpt lat="47.43009" lon="6.72042">
        <ele>505.5</ele>
        <time>2014-05-18T08:19:32.000Z</time>
      </trkpt>
      <trkpt lat="47.43008" lon="6.72043">
        <ele>505.6</ele>
        <time>2014-05-18T08:19:33.000Z</time>
      </trkpt>
      <trkpt lat="47.43006" lon="6.72045">
        <ele>506.4</ele>
        <time>2014-05-18T08:19:35.000Z</time>
      </trkpt>
      <trkpt lat="47.43004" lon="6.72047">
        <ele>506.6</ele>
        <time>2014-05-18T08:19:36.000Z</time>
      </trkpt>
      <trkpt lat="47.43" lon="6.7205">
        <ele>507.3</ele>
        <time>2014-05-18T08:19:39.000Z</time>
      </trkpt>
      <trkpt lat="47.42999" lon="6.72049">
        <ele>507.1</ele>
        <time>2014-05-18T08:19:40.000Z</time>
      </trkpt>
      <trkpt lat="47.42996" lon="6.72044">
        <ele>506.9</ele>
        <time>2014-05-18T08:19:42.000Z</time>
      </trkpt>
      <trkpt lat="47.42994" lon="6.72041">
        <ele>506.7</ele>
        <time>2014-05-18T08:19:43.000Z</time>
      </trkpt>
      <trkpt lat="47.42993" lon="6.72037">
        <ele>506.4</ele>
        <time>2014-05-18T08:19:44.000Z</time>
      </trkpt>
      <trkpt lat="47.42991" lon="6.72033">
        <ele>506.4</ele>
        <time>2014-05-18T08:19:45.000Z</time>
      </trkpt>
      <trkpt lat="47.4299" lon="6.72029">
        <ele>506.4</ele>
        <time>2014-05-18T08:19:46.000Z</time>
      </trkpt>
      <trkpt lat="47.42973" lon="6.71995">
        <ele>505.6</ele>
        <time>2014-05-18T08:19:54.000Z</time>
      </trkpt>
      <trkpt lat="47.42971" lon="6.71991">
        <ele>505.5</ele>
        <time>2014-05-18T08:19:55.000Z</time>
      </trkpt>
      <trkpt lat="47.42968" lon="6.71985">
        <ele>505.2</ele>
        <time>2014-05-18T08:19:56.000Z</time>
      </trkpt>
      <trkpt lat="47.42966" lon="6.7198">
        <ele>505</ele>
        <time>2014-05-18T08:19:57.000Z</time>
      </trkpt>
      <trkpt lat="47.42963" lon="6.71975">
        <ele>504.9</ele>
        <time>2014-05-18T08:19:58.000Z</time>
      </trkpt>
      <trkpt lat="47.42961" lon="6.71969">
        <ele>504.7</ele>
        <time>2014-05-18T08:19:59.000Z</time>
      </trkpt>
      <trkpt lat="47.42958" lon="6.71964">
        <ele>504.8</ele>
        <time>2014-05-18T08:20:00.000Z</time>
      </trkpt>
      <trkpt lat="47.42956" lon="6.71959">
        <ele>504.5</ele>
        <time>2014-05-18T08:20:01.000Z</time>
      </trkpt>
      <trkpt lat="47.42954" lon="6.71954">
        <ele>504.4</ele>
        <time>2014-05-18T08:20:02.000Z</time>
      </trkpt>
      <trkpt lat="47.42951" lon="6.71948">
        <ele>504.5</ele>
        <time>2014-05-18T08:20:03.000Z</time>
      </trkpt>
      <trkpt lat="47.42949" lon="6.71943">
        <ele>504.7</ele>
        <time>2014-05-18T08:20:04.000Z</time>
      </trkpt>
      <trkpt lat="47.42946" lon="6.71938">
        <ele>504.6</ele>
        <time>2014-05-18T08:20:05.000Z</time>
      </trkpt>
      <trkpt lat="47.42944" lon="6.71933">
        <ele>504.4</ele>
        <time>2014-05-18T08:20:06.000Z</time>
      </trkpt>
      <trkpt lat="47.42942" lon="6.71929">
        <ele>504.4</ele>
        <time>2014-05-18T08:20:07.000Z</time>
      </trkpt>
      <trkpt lat="47.4294" lon="6.71924">
        <ele>504.3</ele>
        <time>2014-05-18T08:20:08.000Z</time>
      </trkpt>
      <trkpt lat="47.42937" lon="6.71919">
        <ele>504.4</ele>
        <time>2014-05-18T08:20:09.000Z</time>
      </trkpt>
      <trkpt lat="47.42935" lon="6.71914">
        <ele>504.3</ele>
        <time>2014-05-18T08:20:10.000Z</time>
      </trkpt>
      <trkpt lat="47.42933" lon="6.71909">
        <ele>504.4</ele>
        <time>2014-05-18T08:20:11.000Z</time>
      </trkpt>
      <trkpt lat="47.4293" lon="6.71904">
        <ele>504.4</ele>
        <time>2014-05-18T08:20:12.000Z</time>
      </trkpt>
      <trkpt lat="47.42928" lon="6.719">
        <ele>504.4</ele>
        <time>2014-05-18T08:20:13.000Z</time>
      </trkpt>
      <trkpt lat="47.42926" lon="6.71895">
        <ele>504.4</ele>
        <time>2014-05-18T08:20:14.000Z</time>
      </trkpt>
      <trkpt lat="47.42923" lon="6.7189">
        <ele>504.3</ele>
        <time>2014-05-18T08:20:15.000Z</time>
      </trkpt>
      <trkpt lat="47.42921" lon="6.71885">
        <ele>504.1</ele>
        <time>2014-05-18T08:20:16.000Z</time>
      </trkpt>
      <trkpt lat="47.42918" lon="6.7188">
        <ele>504.1</ele>
        <time>2014-05-18T08:20:17.000Z</time>
      </trkpt>
      <trkpt lat="47.42916" lon="6.71874">
        <ele>504</ele>
        <time>2014-05-18T08:20:18.000Z</time>
      </trkpt>
      <trkpt lat="47.42914" lon="6.71868">
        <ele>504</ele>
        <time>2014-05-18T08:20:19.000Z</time>
      </trkpt>
      <trkpt lat="47.42912" lon="6.71863">
        <ele>503.7</ele>
        <time>2014-05-18T08:20:20.000Z</time>
      </trkpt>
      <trkpt lat="47.4291" lon="6.71857">
        <ele>503.7</ele>
        <time>2014-05-18T08:20:21.000Z</time>
      </trkpt>
      <trkpt lat="47.42909" lon="6.7185">
        <ele>503.6</ele>
        <time>2014-05-18T08:20:22.000Z</time>
      </trkpt>
      <trkpt lat="47.42908" lon="6.71843">
        <ele>503.7</ele>
        <time>2014-05-18T08:20:23.000Z</time>
      </trkpt>
      <trkpt lat="47.42907" lon="6.71836">
        <ele>503.4</ele>
        <time>2014-05-18T08:20:24.000Z</time>
      </trkpt>
      <trkpt lat="47.42906" lon="6.71829">
        <ele>503.3</ele>
        <time>2014-05-18T08:20:25.000Z</time>
      </trkpt>
      <trkpt lat="47.42905" lon="6.71821">
        <ele>503.3</ele>
        <time>2014-05-18T08:20:26.000Z</time>
      </trkpt>
      <trkpt lat="47.42904" lon="6.71815">
        <ele>503.3</ele>
        <time>2014-05-18T08:20:27.000Z</time>
      </trkpt>
      <trkpt lat="47.42902" lon="6.71807">
        <ele>503.1</ele>
        <time>2014-05-18T08:20:28.000Z</time>
      </trkpt>
      <trkpt lat="47.429" lon="6.718">
        <ele>502.8</ele>
        <time>2014-05-18T08:20:29.000Z</time>
      </trkpt>
      <trkpt lat="47.42897" lon="6.71791">
        <ele>502.1</ele>
        <time>2014-05-18T08:20:30.000Z</time>
      </trkpt>
      <trkpt lat="47.42894" lon="6.71785">
        <ele>501.5</ele>
        <time>2014-05-18T08:20:31.000Z</time>
      </trkpt>
      <trkpt lat="47.42891" lon="6.71777">
        <ele>501.2</ele>
        <time>2014-05-18T08:20:32.000Z</time>
      </trkpt>
      <trkpt lat="47.42888" lon="6.7177">
        <ele>501</ele>
        <time>2014-05-18T08:20:33.000Z</time>
      </trkpt>
      <trkpt lat="47.42884" lon="6.71764">
        <ele>501.2</ele>
        <time>2014-05-18T08:20:34.000Z</time>
      </trkpt>
      <trkpt lat="47.42881" lon="6.71757">
        <ele>500.9</ele>
        <time>2014-05-18T08:20:35.000Z</time>
      </trkpt>
      <trkpt lat="47.42878" lon="6.71749">
        <ele>500.7</ele>
        <time>2014-05-18T08:20:36.000Z</time>
      </trkpt>
      <trkpt lat="47.42875" lon="6.71741">
        <ele>500.3</ele>
        <time>2014-05-18T08:20:37.000Z</time>
      </trkpt>
      <trkpt lat="47.42873" lon="6.71734">
        <ele>499.6</ele>
        <time>2014-05-18T08:20:38.000Z</time>
      </trkpt>
      <trkpt lat="47.4287" lon="6.71726">
        <ele>499.4</ele>
        <time>2014-05-18T08:20:39.000Z</time>
      </trkpt>
      <trkpt lat="47.42867" lon="6.71718">
        <ele>499</ele>
        <time>2014-05-18T08:20:40.000Z</time>
      </trkpt>
      <trkpt lat="47.42864" lon="6.71711">
        <ele>498.7</ele>
        <time>2014-05-18T08:20:41.000Z</time>
      </trkpt>
      <trkpt lat="47.42861" lon="6.71703">
        <ele>498.3</ele>
        <time>2014-05-18T08:20:42.000Z</time>
      </trkpt>
      <trkpt lat="47.42858" lon="6.71696">
        <ele>498</ele>
        <time>2014-05-18T08:20:43.000Z</time>
      </trkpt>
      <trkpt lat="47.42854" lon="6.71689">
        <ele>497.7</ele>
        <time>2014-05-18T08:20:44.000Z</time>
      </trkpt>
      <trkpt lat="47.42851" lon="6.71682">
        <ele>497.6</ele>
        <time>2014-05-18T08:20:45.000Z</time>
      </trkpt>
      <trkpt lat="47.42848" lon="6.71675">
        <ele>497.5</ele>
        <time>2014-05-18T08:20:46.000Z</time>
      </trkpt>
      <trkpt lat="47.42815" lon="6.71625">
        <ele>497.2</ele>
        <time>2014-05-18T08:20:54.000Z</time>
      </trkpt>
      <trkpt lat="47.42811" lon="6.7162">
        <ele>497.7</ele>
        <time>2014-05-18T08:20:55.000Z</time>
      </trkpt>
      <trkpt lat="47.42807" lon="6.71615">
        <ele>496.8</ele>
        <time>2014-05-18T08:20:56.000Z</time>
      </trkpt>
      <trkpt lat="47.42805" lon="6.71611">
        <ele>496.9</ele>
        <time>2014-05-18T08:20:57.000Z</time>
      </trkpt>
      <trkpt lat="47.42802" lon="6.71609">
        <ele>496.9</ele>
        <time>2014-05-18T08:20:58.000Z</time>
      </trkpt>
      <trkpt lat="47.42799" lon="6.71605">
        <ele>497</ele>
        <time>2014-05-18T08:20:59.000Z</time>
      </trkpt>
      <trkpt lat="47.42797" lon="6.716">
        <ele>496.9</ele>
        <time>2014-05-18T08:21:00.000Z</time>
      </trkpt>
      <trkpt lat="47.42793" lon="6.71596">
        <ele>496.3</ele>
        <time>2014-05-18T08:21:01.000Z</time>
      </trkpt>
      <trkpt lat="47.4279" lon="6.71591">
        <ele>496.3</ele>
        <time>2014-05-18T08:21:02.000Z</time>
      </trkpt>
      <trkpt lat="47.42786" lon="6.71586">
        <ele>496.6</ele>
        <time>2014-05-18T08:21:03.000Z</time>
      </trkpt>
      <trkpt lat="47.42782" lon="6.71582">
        <ele>496.8</ele>
        <time>2014-05-18T08:21:04.000Z</time>
      </trkpt>
      <trkpt lat="47.42778" lon="6.71578">
        <ele>496.8</ele>
        <time>2014-05-18T08:21:05.000Z</time>
      </trkpt>
      <trkpt lat="47.42775" lon="6.71575">
        <ele>496.9</ele>
        <time>2014-05-18T08:21:06.000Z</time>
      </trkpt>
      <trkpt lat="47.42771" lon="6.71571">
        <ele>496.6</ele>
        <time>2014-05-18T08:21:07.000Z</time>
      </trkpt>
      <trkpt lat="47.42768" lon="6.71567">
        <ele>496.5</ele>
        <time>2014-05-18T08:21:08.000Z</time>
      </trkpt>
      <trkpt lat="47.42764" lon="6.71562">
        <ele>496.8</ele>
        <time>2014-05-18T08:21:09.000Z</time>
      </trkpt>
      <trkpt lat="47.42761" lon="6.71558">
        <ele>496.8</ele>
        <time>2014-05-18T08:21:10.000Z</time>
      </trkpt>
      <trkpt lat="47.42758" lon="6.71554">
        <ele>496.9</ele>
        <time>2014-05-18T08:21:11.000Z</time>
      </trkpt>
      <trkpt lat="47.42756" lon="6.71547">
        <ele>497</ele>
        <time>2014-05-18T08:21:12.000Z</time>
      </trkpt>
      <trkpt lat="47.42753" lon="6.7154">
        <ele>497.2</ele>
        <time>2014-05-18T08:21:13.000Z</time>
      </trkpt>
      <trkpt lat="47.4275" lon="6.71533">
        <ele>497</ele>
        <time>2014-05-18T08:21:14.000Z</time>
      </trkpt>
      <trkpt lat="47.42747" lon="6.71526">
        <ele>497.4</ele>
        <time>2014-05-18T08:21:15.000Z</time>
      </trkpt>
      <trkpt lat="47.42743" lon="6.71517">
        <ele>497.5</ele>
        <time>2014-05-18T08:21:16.000Z</time>
      </trkpt>
      <trkpt lat="47.42741" lon="6.71509">
        <ele>497.2</ele>
        <time>2014-05-18T08:21:17.000Z</time>
      </trkpt>
      <trkpt lat="47.42737" lon="6.71501">
        <ele>495.8</ele>
        <time>2014-05-18T08:21:18.000Z</time>
      </trkpt>
      <trkpt lat="47.42734" lon="6.71493">
        <ele>495.3</ele>
        <time>2014-05-18T08:21:19.000Z</time>
      </trkpt>
      <trkpt lat="47.4273" lon="6.71486">
        <ele>494.9</ele>
        <time>2014-05-18T08:21:20.000Z</time>
      </trkpt>
      <trkpt lat="47.42727" lon="6.71478">
        <ele>493.3</ele>
        <time>2014-05-18T08:21:21.000Z</time>
      </trkpt>
      <trkpt lat="47.42724" lon="6.7147">
        <ele>493.1</ele>
        <time>2014-05-18T08:21:22.000Z</time>
      </trkpt>
      <trkpt lat="47.42721" lon="6.71462">
        <ele>492.5</ele>
        <time>2014-05-18T08:21:23.000Z</time>
      </trkpt>
      <trkpt lat="47.42718" lon="6.71453">
        <ele>491.7</ele>
        <time>2014-05-18T08:21:24.000Z</time>
      </trkpt>
      <trkpt lat="47.42716" lon="6.71445">
        <ele>491.3</ele>
        <time>2014-05-18T08:21:25.000Z</time>
      </trkpt>
      <trkpt lat="47.42713" lon="6.71437">
        <ele>491.4</ele>
        <time>2014-05-18T08:21:26.000Z</time>
      </trkpt>
      <trkpt lat="47.4271" lon="6.71427">
        <ele>491.7</ele>
        <time>2014-05-18T08:21:27.000Z</time>
      </trkpt>
      <trkpt lat="47.42707" lon="6.71418">
        <ele>491.5</ele>
        <time>2014-05-18T08:21:28.000Z</time>
      </trkpt>
      <trkpt lat="47.42704" lon="6.71408">
        <ele>490.8</ele>
        <time>2014-05-18T08:21:29.000Z</time>
      </trkpt>
      <trkpt lat="47.42701" lon="6.71399">
        <ele>490.3</ele>
        <time>2014-05-18T08:21:30.000Z</time>
      </trkpt>
      <trkpt lat="47.42698" lon="6.7139">
        <ele>489.7</ele>
        <time>2014-05-18T08:21:31.000Z</time>
      </trkpt>
      <trkpt lat="47.42695" lon="6.71382">
        <ele>489.3</ele>
        <time>2014-05-18T08:21:32.000Z</time>
      </trkpt>
      <trkpt lat="47.42692" lon="6.71373">
        <ele>489.3</ele>
        <time>2014-05-18T08:21:33.000Z</time>
      </trkpt>
      <trkpt lat="47.42689" lon="6.71365">
        <ele>488.8</ele>
        <time>2014-05-18T08:21:34.000Z</time>
      </trkpt>
      <trkpt lat="47.42686" lon="6.71356">
        <ele>488.5</ele>
        <time>2014-05-18T08:21:35.000Z</time>
      </trkpt>
      <trkpt lat="47.42681" lon="6.71349">
        <ele>486.9</ele>
        <time>2014-05-18T08:21:36.000Z</time>
      </trkpt>
      <trkpt lat="47.42678" lon="6.71341">
        <ele>485.5</ele>
        <time>2014-05-18T08:21:37.000Z</time>
      </trkpt>
      <trkpt lat="47.42675" lon="6.71333">
        <ele>484</ele>
        <time>2014-05-18T08:21:38.000Z</time>
      </trkpt>
      <trkpt lat="47.42673" lon="6.71325">
        <ele>482.8</ele>
        <time>2014-05-18T08:21:39.000Z</time>
      </trkpt>
      <trkpt lat="47.4267" lon="6.71316">
        <ele>482.4</ele>
        <time>2014-05-18T08:21:40.000Z</time>
      </trkpt>
      <trkpt lat="47.42668" lon="6.71307">
        <ele>482.2</ele>
        <time>2014-05-18T08:21:41.000Z</time>
      </trkpt>
      <trkpt lat="47.42664" lon="6.71298">
        <ele>480.6</ele>
        <time>2014-05-18T08:21:42.000Z</time>
      </trkpt>
      <trkpt lat="47.42662" lon="6.71289">
        <ele>479.9</ele>
        <time>2014-05-18T08:21:43.000Z</time>
      </trkpt>
      <trkpt lat="47.42659" lon="6.71281">
        <ele>479.7</ele>
        <time>2014-05-18T08:21:44.000Z</time>
      </trkpt>
      <trkpt lat="47.42657" lon="6.71275">
        <ele>479.6</ele>
        <time>2014-05-18T08:21:45.000Z</time>
      </trkpt>
      <trkpt lat="47.42656" lon="6.7127">
        <ele>479.2</ele>
        <time>2014-05-18T08:21:46.000Z</time>
      </trkpt>
      <trkpt lat="47.42638" lon="6.7128">
        <ele>479.1</ele>
        <time>2014-05-18T08:21:54.000Z</time>
      </trkpt>
      <trkpt lat="47.42635" lon="6.71282">
        <ele>480.3</ele>
        <time>2014-05-18T08:21:55.000Z</time>
      </trkpt>
      <trkpt lat="47.42634" lon="6.71286">
        <ele>479.9</ele>
        <time>2014-05-18T08:21:56.000Z</time>
      </trkpt>
      <trkpt lat="47.42631" lon="6.7129">
        <ele>480.2</ele>
        <time>2014-05-18T08:21:57.000Z</time>
      </trkpt>
      <trkpt lat="47.42629" lon="6.71293">
        <ele>479.4</ele>
        <time>2014-05-18T08:21:58.000Z</time>
      </trkpt>
      <trkpt lat="47.42626" lon="6.71296">
        <ele>480.2</ele>
        <time>2014-05-18T08:21:59.000Z</time>
      </trkpt>
      <trkpt lat="47.42623" lon="6.71298">
        <ele>479.8</ele>
        <time>2014-05-18T08:22:00.000Z</time>
      </trkpt>
      <trkpt lat="47.4262" lon="6.71301">
        <ele>480</ele>
        <time>2014-05-18T08:22:01.000Z</time>
      </trkpt>
      <trkpt lat="47.42618" lon="6.71304">
        <ele>481.3</ele>
        <time>2014-05-18T08:22:02.000Z</time>
      </trkpt>
      <trkpt lat="47.42615" lon="6.71306">
        <ele>481.8</ele>
        <time>2014-05-18T08:22:03.000Z</time>
      </trkpt>
      <trkpt lat="47.42612" lon="6.71308">
        <ele>481.4</ele>
        <time>2014-05-18T08:22:04.000Z</time>
      </trkpt>
      <trkpt lat="47.42609" lon="6.7131">
        <ele>481.3</ele>
        <time>2014-05-18T08:22:05.000Z</time>
      </trkpt>
      <trkpt lat="47.42606" lon="6.71312">
        <ele>482.2</ele>
        <time>2014-05-18T08:22:06.000Z</time>
      </trkpt>
      <trkpt lat="47.42603" lon="6.71313">
        <ele>481.3</ele>
        <time>2014-05-18T08:22:07.000Z</time>
      </trkpt>
      <trkpt lat="47.42601" lon="6.71315">
        <ele>481</ele>
        <time>2014-05-18T08:22:08.000Z</time>
      </trkpt>
      <trkpt lat="47.42598" lon="6.71315">
        <ele>481.2</ele>
        <time>2014-05-18T08:22:09.000Z</time>
      </trkpt>
      <trkpt lat="47.42595" lon="6.71317">
        <ele>482.4</ele>
        <time>2014-05-18T08:22:10.000Z</time>
      </trkpt>
      <trkpt lat="47.42592" lon="6.71318">
        <ele>482.7</ele>
        <time>2014-05-18T08:22:11.000Z</time>
      </trkpt>
      <trkpt lat="47.42589" lon="6.71319">
        <ele>483.7</ele>
        <time>2014-05-18T08:22:12.000Z</time>
      </trkpt>
      <trkpt lat="47.42586" lon="6.71321">
        <ele>484.4</ele>
        <time>2014-05-18T08:22:13.000Z</time>
      </trkpt>
      <trkpt lat="47.42583" lon="6.71322">
        <ele>485.1</ele>
        <time>2014-05-18T08:22:14.000Z</time>
      </trkpt>
      <trkpt lat="47.42579" lon="6.71324">
        <ele>485.4</ele>
        <time>2014-05-18T08:22:15.000Z</time>
      </trkpt>
      <trkpt lat="47.42576" lon="6.71325">
        <ele>485.6</ele>
        <time>2014-05-18T08:22:16.000Z</time>
      </trkpt>
      <trkpt lat="47.42572" lon="6.71327">
        <ele>486.3</ele>
        <time>2014-05-18T08:22:17.000Z</time>
      </trkpt>
      <trkpt lat="47.42569" lon="6.71329">
        <ele>486.8</ele>
        <time>2014-05-18T08:22:18.000Z</time>
      </trkpt>
      <trkpt lat="47.42565" lon="6.7133">
        <ele>487.5</ele>
        <time>2014-05-18T08:22:19.000Z</time>
      </trkpt>
      <trkpt lat="47.42561" lon="6.71332">
        <ele>488.3</ele>
        <time>2014-05-18T08:22:20.000Z</time>
      </trkpt>
      <trkpt lat="47.42557" lon="6.71334">
        <ele>488.9</ele>
        <time>2014-05-18T08:22:21.000Z</time>
      </trkpt>
      <trkpt lat="47.42554" lon="6.71335">
        <ele>488.8</ele>
        <time>2014-05-18T08:22:22.000Z</time>
      </trkpt>
      <trkpt lat="47.4255" lon="6.71337">
        <ele>489.2</ele>
        <time>2014-05-18T08:22:23.000Z</time>
      </trkpt>
      <trkpt lat="47.42546" lon="6.71339">
        <ele>489.6</ele>
        <time>2014-05-18T08:22:24.000Z</time>
      </trkpt>
      <trkpt lat="47.42543" lon="6.71341">
        <ele>489.3</ele>
        <time>2014-05-18T08:22:25.000Z</time>
      </trkpt>
      <trkpt lat="47.42539" lon="6.71343">
        <ele>488.1</ele>
        <time>2014-05-18T08:22:26.000Z</time>
      </trkpt>
      <trkpt lat="47.42536" lon="6.71345">
        <ele>488.6</ele>
        <time>2014-05-18T08:22:27.000Z</time>
      </trkpt>
      <trkpt lat="47.42532" lon="6.71347">
        <ele>488</ele>
        <time>2014-05-18T08:22:28.000Z</time>
      </trkpt>
      <trkpt lat="47.42529" lon="6.71349">
        <ele>487.7</ele>
        <time>2014-05-18T08:22:29.000Z</time>
      </trkpt>
      <trkpt lat="47.42526" lon="6.7135">
        <ele>487.7</ele>
        <time>2014-05-18T08:22:30.000Z</time>
      </trkpt>
      <trkpt lat="47.42522" lon="6.71352">
        <ele>487.9</ele>
        <time>2014-05-18T08:22:31.000Z</time>
      </trkpt>
      <trkpt lat="47.42519" lon="6.71353">
        <ele>487.8</ele>
        <time>2014-05-18T08:22:32.000Z</time>
      </trkpt>
      <trkpt lat="47.42516" lon="6.71355">
        <ele>487.5</ele>
        <time>2014-05-18T08:22:33.000Z</time>
      </trkpt>
      <trkpt lat="47.42512" lon="6.71356">
        <ele>487.7</ele>
        <time>2014-05-18T08:22:34.000Z</time>
      </trkpt>
      <trkpt lat="47.42509" lon="6.71358">
        <ele>488</ele>
        <time>2014-05-18T08:22:35.000Z</time>
      </trkpt>
      <trkpt lat="47.42506" lon="6.71359">
        <ele>488</ele>
        <time>2014-05-18T08:22:36.000Z</time>
      </trkpt>
      <trkpt lat="47.42503" lon="6.7136">
        <ele>488.6</ele>
        <time>2014-05-18T08:22:37.000Z</time>
      </trkpt>
      <trkpt lat="47.42501" lon="6.71362">
        <ele>488.5</ele>
        <time>2014-05-18T08:22:38.000Z</time>
      </trkpt>
      <trkpt lat="47.42498" lon="6.71363">
        <ele>488.5</ele>
        <time>2014-05-18T08:22:39.000Z</time>
      </trkpt>
      <trkpt lat="47.42495" lon="6.71364">
        <ele>488</ele>
        <time>2014-05-18T08:22:40.000Z</time>
      </trkpt>
      <trkpt lat="47.42491" lon="6.71363">
        <ele>486.9</ele>
        <time>2014-05-18T08:22:42.000Z</time>
      </trkpt>
      <trkpt lat="47.42489" lon="6.71361">
        <ele>486.2</ele>
        <time>2014-05-18T08:22:43.000Z</time>
      </trkpt>
      <trkpt lat="47.42489" lon="6.71357">
        <ele>486.6</ele>
        <time>2014-05-18T08:22:44.000Z</time>
      </trkpt>
      <trkpt lat="47.42488" lon="6.71351">
        <ele>486.6</ele>
        <time>2014-05-18T08:22:45.000Z</time>
      </trkpt>
      <trkpt lat="47.4249" lon="6.71336">
        <ele>486</ele>
        <time>2014-05-18T08:22:46.000Z</time>
      </trkpt>
      <trkpt lat="47.42486" lon="6.71253">
        <ele>482</ele>
        <time>2014-05-18T08:22:54.000Z</time>
      </trkpt>
      <trkpt lat="47.42485" lon="6.71241">
        <ele>482.1</ele>
        <time>2014-05-18T08:22:55.000Z</time>
      </trkpt>
      <trkpt lat="47.42484" lon="6.71227">
        <ele>481.7</ele>
        <time>2014-05-18T08:22:56.000Z</time>
      </trkpt>
      <trkpt lat="47.42484" lon="6.71214">
        <ele>480.9</ele>
        <time>2014-05-18T08:22:57.000Z</time>
      </trkpt>
      <trkpt lat="47.42483" lon="6.71202">
        <ele>480.8</ele>
        <time>2014-05-18T08:22:58.000Z</time>
      </trkpt>
      <trkpt lat="47.42483" lon="6.71186">
        <ele>480.6</ele>
        <time>2014-05-18T08:22:59.000Z</time>
      </trkpt>
      <trkpt lat="47.42482" lon="6.71173">
        <ele>480.6</ele>
        <time>2014-05-18T08:22:59.999Z</time>
      </trkpt>
      <trkpt lat="47.42482" lon="6.71159">
        <ele>478.5</ele>
        <time>2014-05-18T08:23:01.000Z</time>
      </trkpt>
      <trkpt lat="47.42481" lon="6.71149">
        <ele>477.2</ele>
        <time>2014-05-18T08:23:02.000Z</time>
      </trkpt>
      <trkpt lat="47.42478" lon="6.71136">
        <ele>477.1</ele>
        <time>2014-05-18T08:23:03.000Z</time>
      </trkpt>
      <trkpt lat="47.42476" lon="6.71123">
        <ele>475.6</ele>
        <time>2014-05-18T08:23:04.000Z</time>
      </trkpt>
      <trkpt lat="47.42474" lon="6.7111">
        <ele>474.7</ele>
        <time>2014-05-18T08:23:05.000Z</time>
      </trkpt>
      <trkpt lat="47.42472" lon="6.71098">
        <ele>474.5</ele>
        <time>2014-05-18T08:23:06.000Z</time>
      </trkpt>
      <trkpt lat="47.42468" lon="6.7109">
        <ele>474.8</ele>
        <time>2014-05-18T08:23:07.000Z</time>
      </trkpt>
      <trkpt lat="47.42465" lon="6.71078">
        <ele>474.1</ele>
        <time>2014-05-18T08:23:08.000Z</time>
      </trkpt>
      <trkpt lat="47.4246" lon="6.71065">
        <ele>473.1</ele>
        <time>2014-05-18T08:23:09.000Z</time>
      </trkpt>
      <trkpt lat="47.42456" lon="6.71055">
        <ele>473</ele>
        <time>2014-05-18T08:23:10.000Z</time>
      </trkpt>
      <trkpt lat="47.42451" lon="6.71039">
        <ele>470.8</ele>
        <time>2014-05-18T08:23:10.999Z</time>
      </trkpt>
      <trkpt lat="47.42451" lon="6.71035">
        <ele>464.3</ele>
        <time>2014-05-18T08:23:12.000Z</time>
      </trkpt>
      <trkpt lat="47.42446" lon="6.71026">
        <ele>462.1</ele>
        <time>2014-05-18T08:23:13.000Z</time>
      </trkpt>
      <trkpt lat="47.4244" lon="6.71015">
        <ele>461.9</ele>
        <time>2014-05-18T08:23:14.000Z</time>
      </trkpt>
      <trkpt lat="47.42434" lon="6.71003">
        <ele>461.1</ele>
        <time>2014-05-18T08:23:15.000Z</time>
      </trkpt>
      <trkpt lat="47.42425" lon="6.70993">
        <ele>461</ele>
        <time>2014-05-18T08:23:16.000Z</time>
      </trkpt>
      <trkpt lat="47.42418" lon="6.70987">
        <ele>456.3</ele>
        <time>2014-05-18T08:23:17.000Z</time>
      </trkpt>
      <trkpt lat="47.4241" lon="6.70979">
        <ele>454</ele>
        <time>2014-05-18T08:23:18.000Z</time>
      </trkpt>
      <trkpt lat="47.42403" lon="6.7097">
        <ele>452.9</ele>
        <time>2014-05-18T08:23:19.001Z</time>
      </trkpt>
      <trkpt lat="47.42397" lon="6.70965">
        <ele>450.4</ele>
        <time>2014-05-18T08:23:20.000Z</time>
      </trkpt>
      <trkpt lat="47.42393" lon="6.70956">
        <ele>449.3</ele>
        <time>2014-05-18T08:23:21.000Z</time>
      </trkpt>
      <trkpt lat="47.4239" lon="6.70947">
        <ele>447.8</ele>
        <time>2014-05-18T08:23:22.000Z</time>
      </trkpt>
      <trkpt lat="47.42385" lon="6.70937">
        <ele>445.8</ele>
        <time>2014-05-18T08:23:23.000Z</time>
      </trkpt>
      <trkpt lat="47.42382" lon="6.70928">
        <ele>444.8</ele>
        <time>2014-05-18T08:23:24.000Z</time>
      </trkpt>
      <trkpt lat="47.42379" lon="6.70916">
        <ele>443.7</ele>
        <time>2014-05-18T08:23:25.000Z</time>
      </trkpt>
      <trkpt lat="47.42377" lon="6.70907">
        <ele>443</ele>
        <time>2014-05-18T08:23:26.000Z</time>
      </trkpt>
      <trkpt lat="47.42373" lon="6.70895">
        <ele>439.2</ele>
        <time>2014-05-18T08:23:27.000Z</time>
      </trkpt>
      <trkpt lat="47.42368" lon="6.70884">
        <ele>436.3</ele>
        <time>2014-05-18T08:23:28.000Z</time>
      </trkpt>
      <trkpt lat="47.42365" lon="6.70871">
        <ele>434.9</ele>
        <time>2014-05-18T08:23:29.000Z</time>
      </trkpt>
      <trkpt lat="47.42359" lon="6.7086">
        <ele>435.1</ele>
        <time>2014-05-18T08:23:30.000Z</time>
      </trkpt>
      <trkpt lat="47.42353" lon="6.70848">
        <ele>435.7</ele>
        <time>2014-05-18T08:23:31.000Z</time>
      </trkpt>
      <trkpt lat="47.42348" lon="6.70836">
        <ele>435.6</ele>
        <time>2014-05-18T08:23:32.000Z</time>
      </trkpt>
      <trkpt lat="47.42344" lon="6.70825">
        <ele>436.2</ele>
        <time>2014-05-18T08:23:33.000Z</time>
      </trkpt>
      <trkpt lat="47.42339" lon="6.70811">
        <ele>434.5</ele>
        <time>2014-05-18T08:23:34.000Z</time>
      </trkpt>
      <trkpt lat="47.42332" lon="6.70799">
        <ele>432</ele>
        <time>2014-05-18T08:23:35.000Z</time>
      </trkpt>
      <trkpt lat="47.42326" lon="6.70787">
        <ele>430.9</ele>
        <time>2014-05-18T08:23:36.000Z</time>
      </trkpt>
      <trkpt lat="47.42319" lon="6.70774">
        <ele>430.1</ele>
        <time>2014-05-18T08:23:37.000Z</time>
      </trkpt>
      <trkpt lat="47.42314" lon="6.70763">
        <ele>427.9</ele>
        <time>2014-05-18T08:23:38.000Z</time>
      </trkpt>
      <trkpt lat="47.42306" lon="6.70751">
        <ele>426.6</ele>
        <time>2014-05-18T08:23:39.000Z</time>
      </trkpt>
      <trkpt lat="47.42299" lon="6.70739">
        <ele>426.2</ele>
        <time>2014-05-18T08:23:40.000Z</time>
      </trkpt>
      <trkpt lat="47.42294" lon="6.70727">
        <ele>423.4</ele>
        <time>2014-05-18T08:23:41.000Z</time>
      </trkpt>
      <trkpt lat="47.42289" lon="6.70715">
        <ele>421</ele>
        <time>2014-05-18T08:23:42.000Z</time>
      </trkpt>
      <trkpt lat="47.42283" lon="6.70703">
        <ele>417.4</ele>
        <time>2014-05-18T08:23:43.000Z</time>
      </trkpt>
      <trkpt lat="47.42278" lon="6.70692">
        <ele>414.5</ele>
        <time>2014-05-18T08:23:44.000Z</time>
      </trkpt>
      <trkpt lat="47.42272" lon="6.70682">
        <ele>414.5</ele>
        <time>2014-05-18T08:23:45.000Z</time>
      </trkpt>
      <trkpt lat="47.42266" lon="6.70673">
        <ele>414.4</ele>
        <time>2014-05-18T08:23:46.000Z</time>
      </trkpt>
      <trkpt lat="47.42252" lon="6.70647">
        <ele>418</ele>
        <time>2014-05-18T08:23:54.000Z</time>
      </trkpt>
      <trkpt lat="47.4225" lon="6.70643">
        <ele>418.3</ele>
        <time>2014-05-18T08:23:55.000Z</time>
      </trkpt>
      <trkpt lat="47.42249" lon="6.70638">
        <ele>419.8</ele>
        <time>2014-05-18T08:23:56.000Z</time>
      </trkpt>
      <trkpt lat="47.42248" lon="6.70634">
        <ele>419.9</ele>
        <time>2014-05-18T08:23:57.000Z</time>
      </trkpt>
      <trkpt lat="47.42246" lon="6.70629">
        <ele>420.3</ele>
        <time>2014-05-18T08:23:58.000Z</time>
      </trkpt>
      <trkpt lat="47.42245" lon="6.70625">
        <ele>420.6</ele>
        <time>2014-05-18T08:23:59.000Z</time>
      </trkpt>
      <trkpt lat="47.42243" lon="6.7062">
        <ele>420.4</ele>
        <time>2014-05-18T08:24:00.000Z</time>
      </trkpt>
      <trkpt lat="47.4224" lon="6.70613">
        <ele>419.9</ele>
        <time>2014-05-18T08:24:01.000Z</time>
      </trkpt>
      <trkpt lat="47.42238" lon="6.70607">
        <ele>419.9</ele>
        <time>2014-05-18T08:24:02.000Z</time>
      </trkpt>
      <trkpt lat="47.42236" lon="6.70601">
        <ele>420.1</ele>
        <time>2014-05-18T08:24:03.000Z</time>
      </trkpt>
      <trkpt lat="47.42234" lon="6.70592">
        <ele>418.9</ele>
        <time>2014-05-18T08:24:04.000Z</time>
      </trkpt>
      <trkpt lat="47.42232" lon="6.70582">
        <ele>417.7</ele>
        <time>2014-05-18T08:24:05.000Z</time>
      </trkpt>
      <trkpt lat="47.42229" lon="6.70574">
        <ele>418.2</ele>
        <time>2014-05-18T08:24:06.000Z</time>
      </trkpt>
      <trkpt lat="47.42226" lon="6.70563">
        <ele>417.2</ele>
        <time>2014-05-18T08:24:07.000Z</time>
      </trkpt>
      <trkpt lat="47.42225" lon="6.70553">
        <ele>417.1</ele>
        <time>2014-05-18T08:24:08.000Z</time>
      </trkpt>
      <trkpt lat="47.42224" lon="6.70544">
        <ele>416.8</ele>
        <time>2014-05-18T08:24:09.000Z</time>
      </trkpt>
      <trkpt lat="47.42223" lon="6.70534">
        <ele>416.9</ele>
        <time>2014-05-18T08:24:10.000Z</time>
      </trkpt>
      <trkpt lat="47.42221" lon="6.70523">
        <ele>417.6</ele>
        <time>2014-05-18T08:24:11.000Z</time>
      </trkpt>
      <trkpt lat="47.42221" lon="6.70512">
        <ele>417.5</ele>
        <time>2014-05-18T08:24:12.000Z</time>
      </trkpt>
      <trkpt lat="47.42221" lon="6.70503">
        <ele>417.2</ele>
        <time>2014-05-18T08:24:13.000Z</time>
      </trkpt>
      <trkpt lat="47.4222" lon="6.70492">
        <ele>417</ele>
        <time>2014-05-18T08:24:14.000Z</time>
      </trkpt>
      <trkpt lat="47.4222" lon="6.70481">
        <ele>416.4</ele>
        <time>2014-05-18T08:24:15.000Z</time>
      </trkpt>
      <trkpt lat="47.42219" lon="6.70471">
        <ele>416.5</ele>
        <time>2014-05-18T08:24:16.000Z</time>
      </trkpt>
      <trkpt lat="47.42217" lon="6.70461">
        <ele>416.5</ele>
        <time>2014-05-18T08:24:17.000Z</time>
      </trkpt>
      <trkpt lat="47.42218" lon="6.70449">
        <ele>416.1</ele>
        <time>2014-05-18T08:24:18.000Z</time>
      </trkpt>
      <trkpt lat="47.42218" lon="6.70438">
        <ele>415.1</ele>
        <time>2014-05-18T08:24:19.000Z</time>
      </trkpt>
      <trkpt lat="47.42217" lon="6.70426">
        <ele>414.6</ele>
        <time>2014-05-18T08:24:20.000Z</time>
      </trkpt>
      <trkpt lat="47.42216" lon="6.70413">
        <ele>414.3</ele>
        <time>2014-05-18T08:24:21.000Z</time>
      </trkpt>
      <trkpt lat="47.42217" lon="6.70403">
        <ele>414.7</ele>
        <time>2014-05-18T08:24:22.000Z</time>
      </trkpt>
      <trkpt lat="47.42214" lon="6.70391">
        <ele>414.6</ele>
        <time>2014-05-18T08:24:23.000Z</time>
      </trkpt>
      <trkpt lat="47.42215" lon="6.70378">
        <ele>413.3</ele>
        <time>2014-05-18T08:24:24.000Z</time>
      </trkpt>
      <trkpt lat="47.42215" lon="6.70366">
        <ele>411.9</ele>
        <time>2014-05-18T08:24:25.000Z</time>
      </trkpt>
      <trkpt lat="47.42215" lon="6.70354">
        <ele>411.6</ele>
        <time>2014-05-18T08:24:26.000Z</time>
      </trkpt>
      <trkpt lat="47.42215" lon="6.70341">
        <ele>411.2</ele>
        <time>2014-05-18T08:24:27.000Z</time>
      </trkpt>
      <trkpt lat="47.42215" lon="6.70328">
        <ele>410.6</ele>
        <time>2014-05-18T08:24:28.000Z</time>
      </trkpt>
      <trkpt lat="47.42216" lon="6.70317">
        <ele>410</ele>
        <time>2014-05-18T08:24:29.000Z</time>
      </trkpt>
      <trkpt lat="47.42217" lon="6.70305">
        <ele>409.5</ele>
        <time>2014-05-18T08:24:30.000Z</time>
      </trkpt>
      <trkpt lat="47.42218" lon="6.70293">
        <ele>409.1</ele>
        <time>2014-05-18T08:24:31.000Z</time>
      </trkpt>
      <trkpt lat="47.4222" lon="6.70281">
        <ele>408.3</ele>
        <time>2014-05-18T08:24:32.000Z</time>
      </trkpt>
      <trkpt lat="47.4222" lon="6.70268">
        <ele>407</ele>
        <time>2014-05-18T08:24:33.000Z</time>
      </trkpt>
      <trkpt lat="47.42221" lon="6.70255">
        <ele>405.1</ele>
        <time>2014-05-18T08:24:34.000Z</time>
      </trkpt>
      <trkpt lat="47.42221" lon="6.70242">
        <ele>404.7</ele>
        <time>2014-05-18T08:24:35.000Z</time>
      </trkpt>
      <trkpt lat="47.4222" lon="6.70228">
        <ele>403.9</ele>
        <time>2014-05-18T08:24:36.000Z</time>
      </trkpt>
      <trkpt lat="47.42221" lon="6.70214">
        <ele>402.3</ele>
        <time>2014-05-18T08:24:37.000Z</time>
      </trkpt>
      <trkpt lat="47.42222" lon="6.702">
        <ele>400.8</ele>
        <time>2014-05-18T08:24:38.000Z</time>
      </trkpt>
      <trkpt lat="47.42224" lon="6.70187">
        <ele>399.7</ele>
        <time>2014-05-18T08:24:39.000Z</time>
      </trkpt>
      <trkpt lat="47.42228" lon="6.70173">
        <ele>397.8</ele>
        <time>2014-05-18T08:24:40.000Z</time>
      </trkpt>
      <trkpt lat="47.42231" lon="6.7016">
        <ele>396.5</ele>
        <time>2014-05-18T08:24:41.000Z</time>
      </trkpt>
      <trkpt lat="47.42234" lon="6.70145">
        <ele>394.7</ele>
        <time>2014-05-18T08:24:42.000Z</time>
      </trkpt>
      <trkpt lat="47.42237" lon="6.70132">
        <ele>393.1</ele>
        <time>2014-05-18T08:24:43.000Z</time>
      </trkpt>
      <trkpt lat="47.4224" lon="6.70117">
        <ele>391.1</ele>
        <time>2014-05-18T08:24:44.000Z</time>
      </trkpt>
      <trkpt lat="47.42245" lon="6.70101">
        <ele>389.3</ele>
        <time>2014-05-18T08:24:45.000Z</time>
      </trkpt>
      <trkpt lat="47.42249" lon="6.70085">
        <ele>389.1</ele>
        <time>2014-05-18T08:24:46.000Z</time>
      </trkpt>
      <trkpt lat="47.42263" lon="6.70009">
        <ele>383.2</ele>
        <time>2014-05-18T08:24:54.000Z</time>
      </trkpt>
      <trkpt lat="47.42262" lon="6.69998">
        <ele>382.3</ele>
        <time>2014-05-18T08:24:55.000Z</time>
      </trkpt>
      <trkpt lat="47.42262" lon="6.69988">
        <ele>382.1</ele>
        <time>2014-05-18T08:24:56.000Z</time>
      </trkpt>
      <trkpt lat="47.42262" lon="6.69977">
        <ele>382.4</ele>
        <time>2014-05-18T08:24:57.000Z</time>
      </trkpt>
      <trkpt lat="47.42262" lon="6.69965">
        <ele>381.7</ele>
        <time>2014-05-18T08:24:58.000Z</time>
      </trkpt>
      <trkpt lat="47.42261" lon="6.69955">
        <ele>380.7</ele>
        <time>2014-05-18T08:24:59.000Z</time>
      </trkpt>
      <trkpt lat="47.4226" lon="6.69943">
        <ele>378.5</ele>
        <time>2014-05-18T08:25:00.000Z</time>
      </trkpt>
      <trkpt lat="47.4226" lon="6.69933">
        <ele>378.2</ele>
        <time>2014-05-18T08:25:01.000Z</time>
      </trkpt>
      <trkpt lat="47.4226" lon="6.69926">
        <ele>378.7</ele>
        <time>2014-05-18T08:25:02.000Z</time>
      </trkpt>
      <trkpt lat="47.42261" lon="6.69921">
        <ele>378.6</ele>
        <time>2014-05-18T08:25:03.000Z</time>
      </trkpt>
      <trkpt lat="47.42258" lon="6.69913">
        <ele>377.7</ele>
        <time>2014-05-18T08:25:04.000Z</time>
      </trkpt>
      <trkpt lat="47.42256" lon="6.69906">
        <ele>376.9</ele>
        <time>2014-05-18T08:25:05.000Z</time>
      </trkpt>
      <trkpt lat="47.42253" lon="6.69897">
        <ele>375.8</ele>
        <time>2014-05-18T08:25:06.000Z</time>
      </trkpt>
      <trkpt lat="47.42249" lon="6.69888">
        <ele>375.7</ele>
        <time>2014-05-18T08:25:07.000Z</time>
      </trkpt>
      <trkpt lat="47.42247" lon="6.69879">
        <ele>376.5</ele>
        <time>2014-05-18T08:25:08.000Z</time>
      </trkpt>
      <trkpt lat="47.42245" lon="6.69872">
        <ele>375.4</ele>
        <time>2014-05-18T08:25:09.000Z</time>
      </trkpt>
      <trkpt lat="47.42243" lon="6.69865">
        <ele>375.4</ele>
        <time>2014-05-18T08:25:10.000Z</time>
      </trkpt>
      <trkpt lat="47.4224" lon="6.6986">
        <ele>374.6</ele>
        <time>2014-05-18T08:25:11.000Z</time>
      </trkpt>
      <trkpt lat="47.42237" lon="6.69854">
        <ele>374.9</ele>
        <time>2014-05-18T08:25:12.000Z</time>
      </trkpt>
      <trkpt lat="47.42234" lon="6.69848">
        <ele>374.5</ele>
        <time>2014-05-18T08:25:13.000Z</time>
      </trkpt>
      <trkpt lat="47.42231" lon="6.69844">
        <ele>374.4</ele>
        <time>2014-05-18T08:25:14.000Z</time>
      </trkpt>
      <trkpt lat="47.42229" lon="6.69839">
        <ele>373.8</ele>
        <time>2014-05-18T08:25:15.000Z</time>
      </trkpt>
      <trkpt lat="47.42227" lon="6.69835">
        <ele>372.7</ele>
        <time>2014-05-18T08:25:16.000Z</time>
      </trkpt>
      <trkpt lat="47.42225" lon="6.69831">
        <ele>370.9</ele>
        <time>2014-05-18T08:25:17.000Z</time>
      </trkpt>
      <trkpt lat="47.42221" lon="6.69831">
        <ele>370.7</ele>
        <time>2014-05-18T08:25:18.000Z</time>
      </trkpt>
      <trkpt lat="47.42217" lon="6.69832">
        <ele>366.5</ele>
        <time>2014-05-18T08:25:19.000Z</time>
      </trkpt>
      <trkpt lat="47.42215" lon="6.69834">
        <ele>363.9</ele>
        <time>2014-05-18T08:25:20.000Z</time>
      </trkpt>
      <trkpt lat="47.42211" lon="6.69836">
        <ele>363.8</ele>
        <time>2014-05-18T08:25:21.000Z</time>
      </trkpt>
      <trkpt lat="47.42208" lon="6.69838">
        <ele>364.1</ele>
        <time>2014-05-18T08:25:22.000Z</time>
      </trkpt>
      <trkpt lat="47.42205" lon="6.69842">
        <ele>364.3</ele>
        <time>2014-05-18T08:25:23.000Z</time>
      </trkpt>
      <trkpt lat="47.42201" lon="6.69843">
        <ele>364.1</ele>
        <time>2014-05-18T08:25:24.000Z</time>
      </trkpt>
      <trkpt lat="47.42197" lon="6.69844">
        <ele>363.8</ele>
        <time>2014-05-18T08:25:25.000Z</time>
      </trkpt>
      <trkpt lat="47.42192" lon="6.69846">
        <ele>363.9</ele>
        <time>2014-05-18T08:25:26.000Z</time>
      </trkpt>
      <trkpt lat="47.42189" lon="6.69848">
        <ele>362.8</ele>
        <time>2014-05-18T08:25:27.000Z</time>
      </trkpt>
      <trkpt lat="47.42184" lon="6.69852">
        <ele>361.9</ele>
        <time>2014-05-18T08:25:28.000Z</time>
      </trkpt>
      <trkpt lat="47.42181" lon="6.69855">
        <ele>360.9</ele>
        <time>2014-05-18T08:25:29.000Z</time>
      </trkpt>
      <trkpt lat="47.42177" lon="6.69857">
        <ele>359.6</ele>
        <time>2014-05-18T08:25:30.000Z</time>
      </trkpt>
      <trkpt lat="47.42173" lon="6.69861">
        <ele>359.8</ele>
        <time>2014-05-18T08:25:31.000Z</time>
      </trkpt>
      <trkpt lat="47.42169" lon="6.69864">
        <ele>360</ele>
        <time>2014-05-18T08:25:32.000Z</time>
      </trkpt>
      <trkpt lat="47.42165" lon="6.69865">
        <ele>358.9</ele>
        <time>2014-05-18T08:25:33.000Z</time>
      </trkpt>
      <trkpt lat="47.42162" lon="6.69866">
        <ele>358.3</ele>
        <time>2014-05-18T08:25:34.000Z</time>
      </trkpt>
      <trkpt lat="47.42158" lon="6.69872">
        <ele>359.3</ele>
        <time>2014-05-18T08:25:35.000Z</time>
      </trkpt>
      <trkpt lat="47.42154" lon="6.69875">
        <ele>359</ele>
        <time>2014-05-18T08:25:36.000Z</time>
      </trkpt>
      <trkpt lat="47.4215" lon="6.69879">
        <ele>360</ele>
        <time>2014-05-18T08:25:37.000Z</time>
      </trkpt>
      <trkpt lat="47.42146" lon="6.69883">
        <ele>360.3</ele>
        <time>2014-05-18T08:25:38.000Z</time>
      </trkpt>
      <trkpt lat="47.42141" lon="6.69886">
        <ele>360.7</ele>
        <time>2014-05-18T08:25:39.000Z</time>
      </trkpt>
      <trkpt lat="47.42138" lon="6.69889">
        <ele>360.2</ele>
        <time>2014-05-18T08:25:40.000Z</time>
      </trkpt>
      <trkpt lat="47.42134" lon="6.69892">
        <ele>360.5</ele>
        <time>2014-05-18T08:25:41.000Z</time>
      </trkpt>
      <trkpt lat="47.42131" lon="6.69895">
        <ele>360.7</ele>
        <time>2014-05-18T08:25:42.000Z</time>
      </trkpt>
      <trkpt lat="47.42128" lon="6.69897">
        <ele>360.9</ele>
        <time>2014-05-18T08:25:43.000Z</time>
      </trkpt>
      <trkpt lat="47.42125" lon="6.699">
        <ele>360.4</ele>
        <time>2014-05-18T08:25:44.000Z</time>
      </trkpt>
      <trkpt lat="47.42123" lon="6.69901">
        <ele>360.5</ele>
        <time>2014-05-18T08:25:45.000Z</time>
      </trkpt>
      <trkpt lat="47.4212" lon="6.69905">
        <ele>360.7</ele>
        <time>2014-05-18T08:25:46.000Z</time>
      </trkpt>
      <trkpt lat="47.42098" lon="6.69919">
        <ele>364.2</ele>
        <time>2014-05-18T08:25:54.000Z</time>
      </trkpt>
      <trkpt lat="47.42095" lon="6.6992">
        <ele>365.3</ele>
        <time>2014-05-18T08:25:55.000Z</time>
      </trkpt>
      <trkpt lat="47.42092" lon="6.6992">
        <ele>364.2</ele>
        <time>2014-05-18T08:25:56.000Z</time>
      </trkpt>
      <trkpt lat="47.42089" lon="6.6992">
        <ele>363.1</ele>
        <time>2014-05-18T08:25:57.000Z</time>
      </trkpt>
      <trkpt lat="47.42086" lon="6.69921">
        <ele>362.8</ele>
        <time>2014-05-18T08:25:58.000Z</time>
      </trkpt>
      <trkpt lat="47.42083" lon="6.69921">
        <ele>362.7</ele>
        <time>2014-05-18T08:25:59.000Z</time>
      </trkpt>
      <trkpt lat="47.4208" lon="6.69922">
        <ele>364</ele>
        <time>2014-05-18T08:26:00.000Z</time>
      </trkpt>
      <trkpt lat="47.42077" lon="6.69921">
        <ele>365.9</ele>
        <time>2014-05-18T08:26:01.000Z</time>
      </trkpt>
      <trkpt lat="47.42075" lon="6.69922">
        <ele>365.8</ele>
        <time>2014-05-18T08:26:02.000Z</time>
      </trkpt>
      <trkpt lat="47.42072" lon="6.69922">
        <ele>365.8</ele>
        <time>2014-05-18T08:26:03.000Z</time>
      </trkpt>
      <trkpt lat="47.42069" lon="6.69922">
        <ele>365.9</ele>
        <time>2014-05-18T08:26:04.000Z</time>
      </trkpt>
      <trkpt lat="47.42066" lon="6.69923">
        <ele>366.7</ele>
        <time>2014-05-18T08:26:05.000Z</time>
      </trkpt>
      <trkpt lat="47.42063" lon="6.69924">
        <ele>366.2</ele>
        <time>2014-05-18T08:26:06.000Z</time>
      </trkpt>
      <trkpt lat="47.4206" lon="6.69925">
        <ele>365.3</ele>
        <time>2014-05-18T08:26:07.000Z</time>
      </trkpt>
      <trkpt lat="47.42057" lon="6.69925">
        <ele>365.7</ele>
        <time>2014-05-18T08:26:08.000Z</time>
      </trkpt>
      <trkpt lat="47.42054" lon="6.69926">
        <ele>365.6</ele>
        <time>2014-05-18T08:26:09.000Z</time>
      </trkpt>
      <trkpt lat="47.4205" lon="6.69926">
        <ele>366</ele>
        <time>2014-05-18T08:26:10.000Z</time>
      </trkpt>
      <trkpt lat="47.42046" lon="6.69927">
        <ele>364.9</ele>
        <time>2014-05-18T08:26:11.000Z</time>
      </trkpt>
      <trkpt lat="47.42042" lon="6.69927">
        <ele>364.8</ele>
        <time>2014-05-18T08:26:12.000Z</time>
      </trkpt>
      <trkpt lat="47.42039" lon="6.69928">
        <ele>364.8</ele>
        <time>2014-05-18T08:26:13.000Z</time>
      </trkpt>
      <trkpt lat="47.42034" lon="6.69928">
        <ele>364.3</ele>
        <time>2014-05-18T08:26:14.000Z</time>
      </trkpt>
      <trkpt lat="47.4203" lon="6.69928">
        <ele>364.9</ele>
        <time>2014-05-18T08:26:15.000Z</time>
      </trkpt>
      <trkpt lat="47.42026" lon="6.69928">
        <ele>365</ele>
        <time>2014-05-18T08:26:16.000Z</time>
      </trkpt>
      <trkpt lat="47.42021" lon="6.69929">
        <ele>364.9</ele>
        <time>2014-05-18T08:26:17.000Z</time>
      </trkpt>
      <trkpt lat="47.42017" lon="6.69929">
        <ele>365.1</ele>
        <time>2014-05-18T08:26:18.000Z</time>
      </trkpt>
      <trkpt lat="47.42011" lon="6.69929">
        <ele>365.6</ele>
        <time>2014-05-18T08:26:19.000Z</time>
      </trkpt>
      <trkpt lat="47.42007" lon="6.6993">
        <ele>365.6</ele>
        <time>2014-05-18T08:26:20.000Z</time>
      </trkpt>
      <trkpt lat="47.42002" lon="6.6993">
        <ele>366</ele>
        <time>2014-05-18T08:26:21.000Z</time>
      </trkpt>
      <trkpt lat="47.41997" lon="6.69931">
        <ele>366.3</ele>
        <time>2014-05-18T08:26:22.000Z</time>
      </trkpt>
      <trkpt lat="47.41992" lon="6.69932">
        <ele>365.9</ele>
        <time>2014-05-18T08:26:23.000Z</time>
      </trkpt>
      <trkpt lat="47.41987" lon="6.69934">
        <ele>365.5</ele>
        <time>2014-05-18T08:26:24.000Z</time>
      </trkpt>
      <trkpt lat="47.41982" lon="6.69935">
        <ele>365.5</ele>
        <time>2014-05-18T08:26:25.000Z</time>
      </trkpt>
      <trkpt lat="47.41977" lon="6.69936">
        <ele>365.8</ele>
        <time>2014-05-18T08:26:26.000Z</time>
      </trkpt>
      <trkpt lat="47.41971" lon="6.69936">
        <ele>365.2</ele>
        <time>2014-05-18T08:26:27.000Z</time>
      </trkpt>
      <trkpt lat="47.41966" lon="6.69938">
        <ele>365.5</ele>
        <time>2014-05-18T08:26:28.000Z</time>
      </trkpt>
      <trkpt lat="47.41961" lon="6.69938">
        <ele>365</ele>
        <time>2014-05-18T08:26:29.000Z</time>
      </trkpt>
      <trkpt lat="47.41956" lon="6.6994">
        <ele>364.9</ele>
        <time>2014-05-18T08:26:30.000Z</time>
      </trkpt>
      <trkpt lat="47.4195" lon="6.69943">
        <ele>364.9</ele>
        <time>2014-05-18T08:26:31.000Z</time>
      </trkpt>
      <trkpt lat="47.41944" lon="6.69944">
        <ele>365.4</ele>
        <time>2014-05-18T08:26:32.000Z</time>
      </trkpt>
      <trkpt lat="47.4194" lon="6.69945">
        <ele>364.2</ele>
        <time>2014-05-18T08:26:33.000Z</time>
      </trkpt>
      <trkpt lat="47.41933" lon="6.69945">
        <ele>363.6</ele>
        <time>2014-05-18T08:26:34.000Z</time>
      </trkpt>
      <trkpt lat="47.41927" lon="6.69946">
        <ele>364.1</ele>
        <time>2014-05-18T08:26:35.000Z</time>
      </trkpt>
      <trkpt lat="47.41922" lon="6.69948">
        <ele>364.2</ele>
        <time>2014-05-18T08:26:36.000Z</time>
      </trkpt>
      <trkpt lat="47.41917" lon="6.6995">
        <ele>364.1</ele>
        <time>2014-05-18T08:26:37.000Z</time>
      </trkpt>
      <trkpt lat="47.41911" lon="6.69952">
        <ele>363.6</ele>
        <time>2014-05-18T08:26:38.000Z</time>
      </trkpt>
      <trkpt lat="47.41907" lon="6.69955">
        <ele>362.8</ele>
        <time>2014-05-18T08:26:39.000Z</time>
      </trkpt>
      <trkpt lat="47.41901" lon="6.69957">
        <ele>363</ele>
        <time>2014-05-18T08:26:40.000Z</time>
      </trkpt>
      <trkpt lat="47.41895" lon="6.6996">
        <ele>363.3</ele>
        <time>2014-05-18T08:26:41.000Z</time>
      </trkpt>
      <trkpt lat="47.4189" lon="6.69961">
        <ele>362.7</ele>
        <time>2014-05-18T08:26:42.000Z</time>
      </trkpt>
      <trkpt lat="47.41885" lon="6.69965">
        <ele>362.9</ele>
        <time>2014-05-18T08:26:43.000Z</time>
      </trkpt>
      <trkpt lat="47.4188" lon="6.69967">
        <ele>362</ele>
        <time>2014-05-18T08:26:44.000Z</time>
      </trkpt>
      <trkpt lat="47.41874" lon="6.69971">
        <ele>360.7</ele>
        <time>2014-05-18T08:26:45.000Z</time>
      </trkpt>
      <trkpt lat="47.41869" lon="6.69973">
        <ele>360.9</ele>
        <time>2014-05-18T08:26:46.000Z</time>
      </trkpt>
      <trkpt lat="47.41819" lon="6.69988">
        <ele>360.6</ele>
        <time>2014-05-18T08:26:54.000Z</time>
      </trkpt>
      <trkpt lat="47.41813" lon="6.69989">
        <ele>361.4</ele>
        <time>2014-05-18T08:26:55.000Z</time>
      </trkpt>
      <trkpt lat="47.41807" lon="6.69989">
        <ele>362.6</ele>
        <time>2014-05-18T08:26:56.000Z</time>
      </trkpt>
      <trkpt lat="47.41802" lon="6.69989">
        <ele>363.2</ele>
        <time>2014-05-18T08:26:57.000Z</time>
      </trkpt>
      <trkpt lat="47.41796" lon="6.69989">
        <ele>363.2</ele>
        <time>2014-05-18T08:26:58.000Z</time>
      </trkpt>
      <trkpt lat="47.4179" lon="6.69989">
        <ele>363.7</ele>
        <time>2014-05-18T08:26:59.000Z</time>
      </trkpt>
      <trkpt lat="47.41784" lon="6.6999">
        <ele>364.8</ele>
        <time>2014-05-18T08:27:00.000Z</time>
      </trkpt>
      <trkpt lat="47.41779" lon="6.69991">
        <ele>364.8</ele>
        <time>2014-05-18T08:27:01.000Z</time>
      </trkpt>
      <trkpt lat="47.41773" lon="6.69992">
        <ele>364.3</ele>
        <time>2014-05-18T08:27:02.000Z</time>
      </trkpt>
      <trkpt lat="47.41767" lon="6.69992">
        <ele>364.3</ele>
        <time>2014-05-18T08:27:03.000Z</time>
      </trkpt>
      <trkpt lat="47.41762" lon="6.69992">
        <ele>364.4</ele>
        <time>2014-05-18T08:27:04.000Z</time>
      </trkpt>
      <trkpt lat="47.41756" lon="6.69993">
        <ele>365.1</ele>
        <time>2014-05-18T08:27:05.000Z</time>
      </trkpt>
      <trkpt lat="47.4175" lon="6.69994">
        <ele>364.6</ele>
        <time>2014-05-18T08:27:06.000Z</time>
      </trkpt>
      <trkpt lat="47.41744" lon="6.69995">
        <ele>363.8</ele>
        <time>2014-05-18T08:27:07.000Z</time>
      </trkpt>
      <trkpt lat="47.41738" lon="6.69994">
        <ele>363.7</ele>
        <time>2014-05-18T08:27:08.000Z</time>
      </trkpt>
      <trkpt lat="47.41731" lon="6.69996">
        <ele>364.4</ele>
        <time>2014-05-18T08:27:09.000Z</time>
      </trkpt>
      <trkpt lat="47.41726" lon="6.69995">
        <ele>365.1</ele>
        <time>2014-05-18T08:27:10.000Z</time>
      </trkpt>
      <trkpt lat="47.4172" lon="6.69996">
        <ele>365.8</ele>
        <time>2014-05-18T08:27:11.000Z</time>
      </trkpt>
      <trkpt lat="47.41715" lon="6.69997">
        <ele>365.1</ele>
        <time>2014-05-18T08:27:12.000Z</time>
      </trkpt>
      <trkpt lat="47.41709" lon="6.69998">
        <ele>364.5</ele>
        <time>2014-05-18T08:27:13.000Z</time>
      </trkpt>
      <trkpt lat="47.41705" lon="6.70001">
        <ele>364.1</ele>
        <time>2014-05-18T08:27:14.000Z</time>
      </trkpt>
      <trkpt lat="47.417" lon="6.70005">
        <ele>364.2</ele>
        <time>2014-05-18T08:27:15.000Z</time>
      </trkpt>
      <trkpt lat="47.41695" lon="6.70009">
        <ele>364.4</ele>
        <time>2014-05-18T08:27:16.000Z</time>
      </trkpt>
      <trkpt lat="47.4169" lon="6.70013">
        <ele>364.7</ele>
        <time>2014-05-18T08:27:17.000Z</time>
      </trkpt>
      <trkpt lat="47.41686" lon="6.70016">
        <ele>364.9</ele>
        <time>2014-05-18T08:27:18.000Z</time>
      </trkpt>
      <trkpt lat="47.41682" lon="6.70021">
        <ele>365.2</ele>
        <time>2014-05-18T08:27:19.000Z</time>
      </trkpt>
      <trkpt lat="47.41677" lon="6.70025">
        <ele>365.7</ele>
        <time>2014-05-18T08:27:20.000Z</time>
      </trkpt>
      <trkpt lat="47.41674" lon="6.70029">
        <ele>366.4</ele>
        <time>2014-05-18T08:27:21.000Z</time>
      </trkpt>
      <trkpt lat="47.4167" lon="6.70032">
        <ele>366.8</ele>
        <time>2014-05-18T08:27:22.000Z</time>
      </trkpt>
      <trkpt lat="47.41667" lon="6.70034">
        <ele>365.7</ele>
        <time>2014-05-18T08:27:23.000Z</time>
      </trkpt>
      <trkpt lat="47.41663" lon="6.70037">
        <ele>365.6</ele>
        <time>2014-05-18T08:27:24.000Z</time>
      </trkpt>
      <trkpt lat="47.41659" lon="6.7004">
        <ele>366</ele>
        <time>2014-05-18T08:27:25.000Z</time>
      </trkpt>
      <trkpt lat="47.41656" lon="6.70042">
        <ele>364</ele>
        <time>2014-05-18T08:27:26.000Z</time>
      </trkpt>
      <trkpt lat="47.41652" lon="6.70044">
        <ele>363.6</ele>
        <time>2014-05-18T08:27:27.000Z</time>
      </trkpt>
      <trkpt lat="47.41648" lon="6.70045">
        <ele>364.3</ele>
        <time>2014-05-18T08:27:28.000Z</time>
      </trkpt>
      <trkpt lat="47.41645" lon="6.70046">
        <ele>363.6</ele>
        <time>2014-05-18T08:27:29.000Z</time>
      </trkpt>
      <trkpt lat="47.4164" lon="6.70048">
        <ele>364.2</ele>
        <time>2014-05-18T08:27:30.000Z</time>
      </trkpt>
      <trkpt lat="47.41636" lon="6.7005">
        <ele>365.3</ele>
        <time>2014-05-18T08:27:31.000Z</time>
      </trkpt>
      <trkpt lat="47.41632" lon="6.70053">
        <ele>364</ele>
        <time>2014-05-18T08:27:32.000Z</time>
      </trkpt>
      <trkpt lat="47.41628" lon="6.70056">
        <ele>363.1</ele>
        <time>2014-05-18T08:27:33.000Z</time>
      </trkpt>
      <trkpt lat="47.41625" lon="6.70057">
        <ele>363</ele>
        <time>2014-05-18T08:27:34.000Z</time>
      </trkpt>
      <trkpt lat="47.41622" lon="6.7006">
        <ele>362.7</ele>
        <time>2014-05-18T08:27:35.000Z</time>
      </trkpt>
      <trkpt lat="47.41619" lon="6.70063">
        <ele>364</ele>
        <time>2014-05-18T08:27:36.000Z</time>
      </trkpt>
      <trkpt lat="47.41615" lon="6.70066">
        <ele>364.7</ele>
        <time>2014-05-18T08:27:37.000Z</time>
      </trkpt>
      <trkpt lat="47.41612" lon="6.70068">
        <ele>365.2</ele>
        <time>2014-05-18T08:27:38.000Z</time>
      </trkpt>
      <trkpt lat="47.41608" lon="6.70071">
        <ele>366.9</ele>
        <time>2014-05-18T08:27:39.000Z</time>
      </trkpt>
      <trkpt lat="47.41605" lon="6.70075">
        <ele>366.2</ele>
        <time>2014-05-18T08:27:40.000Z</time>
      </trkpt>
      <trkpt lat="47.41601" lon="6.70079">
        <ele>367.4</ele>
        <time>2014-05-18T08:27:41.000Z</time>
      </trkpt>
      <trkpt lat="47.41598" lon="6.70082">
        <ele>367.3</ele>
        <time>2014-05-18T08:27:42.000Z</time>
      </trkpt>
      <trkpt lat="47.41595" lon="6.70085">
        <ele>367.8</ele>
        <time>2014-05-18T08:27:43.000Z</time>
      </trkpt>
      <trkpt lat="47.41593" lon="6.70088">
        <ele>365</ele>
        <time>2014-05-18T08:27:44.000Z</time>
      </trkpt>
      <trkpt lat="47.4159" lon="6.70091">
        <ele>364.5</ele>
        <time>2014-05-18T08:27:45.000Z</time>
      </trkpt>
      <trkpt lat="47.41588" lon="6.70094">
        <ele>362</ele>
        <time>2014-05-18T08:27:46.000Z</time>
      </trkpt>
      <trkpt lat="47.41567" lon="6.70124">
        <ele>360.9</ele>
        <time>2014-05-18T08:27:54.000Z</time>
      </trkpt>
      <trkpt lat="47.41563" lon="6.70128">
        <ele>361.7</ele>
        <time>2014-05-18T08:27:55.000Z</time>
      </trkpt>
      <trkpt lat="47.4156" lon="6.70133">
        <ele>358.8</ele>
        <time>2014-05-18T08:27:56.000Z</time>
      </trkpt>
      <trkpt lat="47.41556" lon="6.70137">
        <ele>359.5</ele>
        <time>2014-05-18T08:27:57.000Z</time>
      </trkpt>
      <trkpt lat="47.41551" lon="6.70141">
        <ele>360.7</ele>
        <time>2014-05-18T08:27:58.000Z</time>
      </trkpt>
      <trkpt lat="47.41547" lon="6.70144">
        <ele>360.7</ele>
        <time>2014-05-18T08:27:59.000Z</time>
      </trkpt>
      <trkpt lat="47.41542" lon="6.70147">
        <ele>360</ele>
        <time>2014-05-18T08:28:00.000Z</time>
      </trkpt>
      <trkpt lat="47.41537" lon="6.70151">
        <ele>361.5</ele>
        <time>2014-05-18T08:28:01.000Z</time>
      </trkpt>
      <trkpt lat="47.41531" lon="6.70156">
        <ele>365.8</ele>
        <time>2014-05-18T08:28:02.000Z</time>
      </trkpt>
      <trkpt lat="47.41526" lon="6.70161">
        <ele>368.7</ele>
        <time>2014-05-18T08:28:03.000Z</time>
      </trkpt>
      <trkpt lat="47.41521" lon="6.70163">
        <ele>370.6</ele>
        <time>2014-05-18T08:28:04.000Z</time>
      </trkpt>
      <trkpt lat="47.41516" lon="6.70165">
        <ele>371.2</ele>
        <time>2014-05-18T08:28:05.000Z</time>
      </trkpt>
      <trkpt lat="47.41512" lon="6.70166">
        <ele>370.8</ele>
        <time>2014-05-18T08:28:06.000Z</time>
      </trkpt>
      <trkpt lat="47.41507" lon="6.70167">
        <ele>371.3</ele>
        <time>2014-05-18T08:28:07.000Z</time>
      </trkpt>
      <trkpt lat="47.41503" lon="6.70169">
        <ele>372.3</ele>
        <time>2014-05-18T08:28:08.000Z</time>
      </trkpt>
      <trkpt lat="47.41499" lon="6.70171">
        <ele>372.2</ele>
        <time>2014-05-18T08:28:09.000Z</time>
      </trkpt>
      <trkpt lat="47.41494" lon="6.70174">
        <ele>372.8</ele>
        <time>2014-05-18T08:28:10.000Z</time>
      </trkpt>
      <trkpt lat="47.41489" lon="6.70177">
        <ele>374.5</ele>
        <time>2014-05-18T08:28:11.000Z</time>
      </trkpt>
      <trkpt lat="47.41483" lon="6.70179">
        <ele>375.7</ele>
        <time>2014-05-18T08:28:12.000Z</time>
      </trkpt>
      <trkpt lat="47.41478" lon="6.70181">
        <ele>376.5</ele>
        <time>2014-05-18T08:28:13.000Z</time>
      </trkpt>
      <trkpt lat="47.41474" lon="6.70181">
        <ele>377.1</ele>
        <time>2014-05-18T08:28:14.000Z</time>
      </trkpt>
      <trkpt lat="47.4147" lon="6.70185">
        <ele>373.8</ele>
        <time>2014-05-18T08:28:15.000Z</time>
      </trkpt>
      <trkpt lat="47.41466" lon="6.70187">
        <ele>372</ele>
        <time>2014-05-18T08:28:16.000Z</time>
      </trkpt>
      <trkpt lat="47.4146" lon="6.70191">
        <ele>371.3</ele>
        <time>2014-05-18T08:28:17.000Z</time>
      </trkpt>
      <trkpt lat="47.41455" lon="6.70195">
        <ele>369.6</ele>
        <time>2014-05-18T08:28:18.000Z</time>
      </trkpt>
      <trkpt lat="47.41449" lon="6.70197">
        <ele>369.7</ele>
        <time>2014-05-18T08:28:19.000Z</time>
      </trkpt>
      <trkpt lat="47.41444" lon="6.70201">
        <ele>369.8</ele>
        <time>2014-05-18T08:28:20.000Z</time>
      </trkpt>
      <trkpt lat="47.41439" lon="6.70207">
        <ele>370</ele>
        <time>2014-05-18T08:28:21.000Z</time>
      </trkpt>
      <trkpt lat="47.41433" lon="6.70217">
        <ele>370.4</ele>
        <time>2014-05-18T08:28:22.000Z</time>
      </trkpt>
      <trkpt lat="47.41428" lon="6.70225">
        <ele>370.4</ele>
        <time>2014-05-18T08:28:23.000Z</time>
      </trkpt>
      <trkpt lat="47.41422" lon="6.70237">
        <ele>369.9</ele>
        <time>2014-05-18T08:28:24.000Z</time>
      </trkpt>
      <trkpt lat="47.41413" lon="6.70249">
        <ele>369.4</ele>
        <time>2014-05-18T08:28:25.000Z</time>
      </trkpt>
      <trkpt lat="47.41409" lon="6.70258">
        <ele>369.1</ele>
        <time>2014-05-18T08:28:26.000Z</time>
      </trkpt>
      <trkpt lat="47.41405" lon="6.70266">
        <ele>368.2</ele>
        <time>2014-05-18T08:28:27.000Z</time>
      </trkpt>
      <trkpt lat="47.41401" lon="6.70277">
        <ele>367.6</ele>
        <time>2014-05-18T08:28:28.000Z</time>
      </trkpt>
      <trkpt lat="47.41399" lon="6.70287">
        <ele>368.5</ele>
        <time>2014-05-18T08:28:29.000Z</time>
      </trkpt>
      <trkpt lat="47.41395" lon="6.70295">
        <ele>367.9</ele>
        <time>2014-05-18T08:28:30.000Z</time>
      </trkpt>
      <trkpt lat="47.4139" lon="6.70302">
        <ele>367.4</ele>
        <time>2014-05-18T08:28:31.000Z</time>
      </trkpt>
      <trkpt lat="47.41386" lon="6.70309">
        <ele>366.5</ele>
        <time>2014-05-18T08:28:32.000Z</time>
      </trkpt>
      <trkpt lat="47.4138" lon="6.70315">
        <ele>367.9</ele>
        <time>2014-05-18T08:28:33.000Z</time>
      </trkpt>
      <trkpt lat="47.41375" lon="6.70321">
        <ele>367.5</ele>
        <time>2014-05-18T08:28:34.000Z</time>
      </trkpt>
      <trkpt lat="47.41369" lon="6.70326">
        <ele>369.5</ele>
        <time>2014-05-18T08:28:35.000Z</time>
      </trkpt>
      <trkpt lat="47.41364" lon="6.70332">
        <ele>370.7</ele>
        <time>2014-05-18T08:28:36.000Z</time>
      </trkpt>
      <trkpt lat="47.4136" lon="6.70337">
        <ele>371.1</ele>
        <time>2014-05-18T08:28:37.000Z</time>
      </trkpt>
      <trkpt lat="47.41356" lon="6.70343">
        <ele>371.2</ele>
        <time>2014-05-18T08:28:38.000Z</time>
      </trkpt>
      <trkpt lat="47.41353" lon="6.70347">
        <ele>371.4</ele>
        <time>2014-05-18T08:28:39.000Z</time>
      </trkpt>
      <trkpt lat="47.41351" lon="6.70352">
        <ele>371.4</ele>
        <time>2014-05-18T08:28:40.000Z</time>
      </trkpt>
      <trkpt lat="47.41347" lon="6.70355">
        <ele>372.2</ele>
        <time>2014-05-18T08:28:41.000Z</time>
      </trkpt>
      <trkpt lat="47.41345" lon="6.70357">
        <ele>371.9</ele>
        <time>2014-05-18T08:28:42.000Z</time>
      </trkpt>
      <trkpt lat="47.41342" lon="6.7036">
        <ele>372.3</ele>
        <time>2014-05-18T08:28:43.000Z</time>
      </trkpt>
      <trkpt lat="47.41342" lon="6.70367">
        <ele>372.7</ele>
        <time>2014-05-18T08:28:44.000Z</time>
      </trkpt>
      <trkpt lat="47.41336" lon="6.70369">
        <ele>372.4</ele>
        <time>2014-05-18T08:28:45.000Z</time>
      </trkpt>
      <trkpt lat="47.41334" lon="6.70371">
        <ele>371.3</ele>
        <time>2014-05-18T08:28:46.000Z</time>
      </trkpt>
      <trkpt lat="47.41328" lon="6.70376">
        <ele>371.8</ele>
        <time>2014-05-18T08:28:49.000Z</time>
      </trkpt>
      <trkpt lat="47.41326" lon="6.70379">
        <ele>372</ele>
        <time>2014-05-18T08:28:50.000Z</time>
      </trkpt>
      <trkpt lat="47.41323" lon="6.70381">
        <ele>373.2</ele>
        <time>2014-05-18T08:28:51.000Z</time>
      </trkpt>
      <trkpt lat="47.41322" lon="6.70384">
        <ele>373</ele>
        <time>2014-05-18T08:28:52.000Z</time>
      </trkpt>
      <trkpt lat="47.4132" lon="6.70388">
        <ele>373.8</ele>
        <time>2014-05-18T08:28:53.000Z</time>
      </trkpt>
      <trkpt lat="47.41318" lon="6.70392">
        <ele>374.3</ele>
        <time>2014-05-18T08:28:54.000Z</time>
      </trkpt>
      <trkpt lat="47.41316" lon="6.70396">
        <ele>374.7</ele>
        <time>2014-05-18T08:28:55.000Z</time>
      </trkpt>
      <trkpt lat="47.41314" lon="6.70399">
        <ele>374.6</ele>
        <time>2014-05-18T08:28:56.000Z</time>
      </trkpt>
      <trkpt lat="47.41312" lon="6.70402">
        <ele>374.3</ele>
        <time>2014-05-18T08:28:56.999Z</time>
      </trkpt>
      <trkpt lat="47.41309" lon="6.70408">
        <ele>378.5</ele>
        <time>2014-05-18T08:28:58.000Z</time>
      </trkpt>
      <trkpt lat="47.41306" lon="6.70412">
        <ele>382.4</ele>
        <time>2014-05-18T08:28:59.000Z</time>
      </trkpt>
      <trkpt lat="47.41303" lon="6.70415">
        <ele>384.3</ele>
        <time>2014-05-18T08:29:00.000Z</time>
      </trkpt>
      <trkpt lat="47.41301" lon="6.70418">
        <ele>385.1</ele>
        <time>2014-05-18T08:29:01.000Z</time>
      </trkpt>
      <trkpt lat="47.41298" lon="6.70421">
        <ele>384.4</ele>
        <time>2014-05-18T08:29:02.000Z</time>
      </trkpt>
      <trkpt lat="47.41296" lon="6.70424">
        <ele>382.5</ele>
        <time>2014-05-18T08:29:03.000Z</time>
      </trkpt>
      <trkpt lat="47.41294" lon="6.70427">
        <ele>382.1</ele>
        <time>2014-05-18T08:29:04.000Z</time>
      </trkpt>
      <trkpt lat="47.41292" lon="6.70431">
        <ele>381.9</ele>
        <time>2014-05-18T08:29:05.000Z</time>
      </trkpt>
      <trkpt lat="47.41289" lon="6.70434">
        <ele>381.9</ele>
        <time>2014-05-18T08:29:06.000Z</time>
      </trkpt>
      <trkpt lat="47.41286" lon="6.70438">
        <ele>382.7</ele>
        <time>2014-05-18T08:29:07.000Z</time>
      </trkpt>
      <trkpt lat="47.41283" lon="6.70442">
        <ele>381.3</ele>
        <time>2014-05-18T08:29:08.000Z</time>
      </trkpt>
      <trkpt lat="47.41281" lon="6.70445">
        <ele>381.1</ele>
        <time>2014-05-18T08:29:09.000Z</time>
      </trkpt>
      <trkpt lat="47.41277" lon="6.70448">
        <ele>380.9</ele>
        <time>2014-05-18T08:29:10.000Z</time>
      </trkpt>
      <trkpt lat="47.41274" lon="6.7045">
        <ele>381.2</ele>
        <time>2014-05-18T08:29:11.000Z</time>
      </trkpt>
      <trkpt lat="47.41271" lon="6.70454">
        <ele>380.2</ele>
        <time>2014-05-18T08:29:12.000Z</time>
      </trkpt>
      <trkpt lat="47.41267" lon="6.70457">
        <ele>378.9</ele>
        <time>2014-05-18T08:29:13.000Z</time>
      </trkpt>
      <trkpt lat="47.41265" lon="6.70459">
        <ele>380.2</ele>
        <time>2014-05-18T08:29:14.000Z</time>
      </trkpt>
      <trkpt lat="47.41262" lon="6.70462">
        <ele>380.6</ele>
        <time>2014-05-18T08:29:15.000Z</time>
      </trkpt>
      <trkpt lat="47.41259" lon="6.70465">
        <ele>378.9</ele>
        <time>2014-05-18T08:29:16.000Z</time>
      </trkpt>
      <trkpt lat="47.41257" lon="6.70468">
        <ele>377.2</ele>
        <time>2014-05-18T08:29:17.000Z</time>
      </trkpt>
      <trkpt lat="47.41255" lon="6.70472">
        <ele>376.2</ele>
        <time>2014-05-18T08:29:18.000Z</time>
      </trkpt>
      <trkpt lat="47.41253" lon="6.70475">
        <ele>376.7</ele>
        <time>2014-05-18T08:29:19.000Z</time>
      </trkpt>
      <trkpt lat="47.41251" lon="6.70479">
        <ele>377</ele>
        <time>2014-05-18T08:29:20.000Z</time>
      </trkpt>
      <trkpt lat="47.41249" lon="6.70482">
        <ele>377.8</ele>
        <time>2014-05-18T08:29:21.000Z</time>
      </trkpt>
      <trkpt lat="47.41247" lon="6.70484">
        <ele>378.3</ele>
        <time>2014-05-18T08:29:22.000Z</time>
      </trkpt>
      <trkpt lat="47.41245" lon="6.70486">
        <ele>376.6</ele>
        <time>2014-05-18T08:29:23.000Z</time>
      </trkpt>
      <trkpt lat="47.41242" lon="6.70488">
        <ele>376.9</ele>
        <time>2014-05-18T08:29:24.000Z</time>
      </trkpt>
      <trkpt lat="47.41239" lon="6.7049">
        <ele>378.2</ele>
        <time>2014-05-18T08:29:25.000Z</time>
      </trkpt>
      <trkpt lat="47.41237" lon="6.70493">
        <ele>378.6</ele>
        <time>2014-05-18T08:29:26.000Z</time>
      </trkpt>
      <trkpt lat="47.41235" lon="6.70496">
        <ele>378.9</ele>
        <time>2014-05-18T08:29:27.000Z</time>
      </trkpt>
      <trkpt lat="47.41233" lon="6.705">
        <ele>380.3</ele>
        <time>2014-05-18T08:29:28.000Z</time>
      </trkpt>
      <trkpt lat="47.41232" lon="6.70504">
        <ele>380.6</ele>
        <time>2014-05-18T08:29:29.000Z</time>
      </trkpt>
      <trkpt lat="47.41231" lon="6.70508">
        <ele>381.2</ele>
        <time>2014-05-18T08:29:30.000Z</time>
      </trkpt>
      <trkpt lat="47.4123" lon="6.70512">
        <ele>381.8</ele>
        <time>2014-05-18T08:29:31.000Z</time>
      </trkpt>
      <trkpt lat="47.4123" lon="6.70516">
        <ele>382.5</ele>
        <time>2014-05-18T08:29:32.000Z</time>
      </trkpt>
      <trkpt lat="47.41229" lon="6.70519">
        <ele>383.9</ele>
        <time>2014-05-18T08:29:33.000Z</time>
      </trkpt>
      <trkpt lat="47.41228" lon="6.70523">
        <ele>383.6</ele>
        <time>2014-05-18T08:29:34.000Z</time>
      </trkpt>
      <trkpt lat="47.41227" lon="6.70526">
        <ele>382.9</ele>
        <time>2014-05-18T08:29:35.000Z</time>
      </trkpt>
      <trkpt lat="47.41226" lon="6.70528">
        <ele>382.6</ele>
        <time>2014-05-18T08:29:35.999Z</time>
      </trkpt>
      <trkpt lat="47.41223" lon="6.70534">
        <ele>380.5</ele>
        <time>2014-05-18T08:29:37.000Z</time>
      </trkpt>
      <trkpt lat="47.4122" lon="6.70538">
        <ele>380.1</ele>
        <time>2014-05-18T08:29:38.000Z</time>
      </trkpt>
      <trkpt lat="47.41217" lon="6.70543">
        <ele>380.9</ele>
        <time>2014-05-18T08:29:39.000Z</time>
      </trkpt>
      <trkpt lat="47.41214" lon="6.70547">
        <ele>381.1</ele>
        <time>2014-05-18T08:29:40.000Z</time>
      </trkpt>
      <trkpt lat="47.41211" lon="6.70552">
        <ele>383.1</ele>
        <time>2014-05-18T08:29:41.000Z</time>
      </trkpt>
      <trkpt lat="47.41208" lon="6.70556">
        <ele>383.8</ele>
        <time>2014-05-18T08:29:42.000Z</time>
      </trkpt>
      <trkpt lat="47.41205" lon="6.7056">
        <ele>384.6</ele>
        <time>2014-05-18T08:29:43.000Z</time>
      </trkpt>
      <trkpt lat="47.41202" lon="6.70563">
        <ele>385.1</ele>
        <time>2014-05-18T08:29:44.000Z</time>
      </trkpt>
      <trkpt lat="47.41201" lon="6.70567">
        <ele>385.1</ele>
        <time>2014-05-18T08:29:45.000Z</time>
      </trkpt>
      <trkpt lat="47.412" lon="6.70572">
        <ele>384.1</ele>
        <time>2014-05-18T08:29:46.000Z</time>
      </trkpt>
      <trkpt lat="47.412" lon="6.70576">
        <ele>385.7</ele>
        <time>2014-05-18T08:29:47.000Z</time>
      </trkpt>
      <trkpt lat="47.41191" lon="6.70611">
        <ele>384.4</ele>
        <time>2014-05-18T08:29:55.000Z</time>
      </trkpt>
      <trkpt lat="47.41189" lon="6.70616">
        <ele>384.4</ele>
        <time>2014-05-18T08:29:56.000Z</time>
      </trkpt>
      <trkpt lat="47.41188" lon="6.7062">
        <ele>381.8</ele>
        <time>2014-05-18T08:29:57.000Z</time>
      </trkpt>
      <trkpt lat="47.41187" lon="6.70624">
        <ele>381.1</ele>
        <time>2014-05-18T08:29:58.000Z</time>
      </trkpt>
      <trkpt lat="47.41186" lon="6.70628">
        <ele>380.3</ele>
        <time>2014-05-18T08:29:59.000Z</time>
      </trkpt>
      <trkpt lat="47.41184" lon="6.70632">
        <ele>379.2</ele>
        <time>2014-05-18T08:30:00.000Z</time>
      </trkpt>
      <trkpt lat="47.41182" lon="6.70636">
        <ele>374.5</ele>
        <time>2014-05-18T08:30:01.000Z</time>
      </trkpt>
      <trkpt lat="47.41181" lon="6.70641">
        <ele>375.4</ele>
        <time>2014-05-18T08:30:02.000Z</time>
      </trkpt>
      <trkpt lat="47.41179" lon="6.70644">
        <ele>374.7</ele>
        <time>2014-05-18T08:30:03.000Z</time>
      </trkpt>
      <trkpt lat="47.41177" lon="6.70649">
        <ele>373</ele>
        <time>2014-05-18T08:30:04.000Z</time>
      </trkpt>
      <trkpt lat="47.41174" lon="6.70653">
        <ele>374.8</ele>
        <time>2014-05-18T08:30:05.000Z</time>
      </trkpt>
      <trkpt lat="47.41172" lon="6.70658">
        <ele>376.5</ele>
        <time>2014-05-18T08:30:06.000Z</time>
      </trkpt>
      <trkpt lat="47.4117" lon="6.70663">
        <ele>377.2</ele>
        <time>2014-05-18T08:30:07.000Z</time>
      </trkpt>
      <trkpt lat="47.41168" lon="6.70668">
        <ele>379.6</ele>
        <time>2014-05-18T08:30:08.000Z</time>
      </trkpt>
      <trkpt lat="47.41166" lon="6.70673">
        <ele>378.4</ele>
        <time>2014-05-18T08:30:09.000Z</time>
      </trkpt>
      <trkpt lat="47.41163" lon="6.70679">
        <ele>380.1</ele>
        <time>2014-05-18T08:30:10.000Z</time>
      </trkpt>
      <trkpt lat="47.41161" lon="6.70684">
        <ele>380.5</ele>
        <time>2014-05-18T08:30:11.000Z</time>
      </trkpt>
      <trkpt lat="47.41159" lon="6.70689">
        <ele>379.7</ele>
        <time>2014-05-18T08:30:12.000Z</time>
      </trkpt>
      <trkpt lat="47.41157" lon="6.70693">
        <ele>380</ele>
        <time>2014-05-18T08:30:13.000Z</time>
      </trkpt>
      <trkpt lat="47.41155" lon="6.70697">
        <ele>378.2</ele>
        <time>2014-05-18T08:30:14.000Z</time>
      </trkpt>
      <trkpt lat="47.41154" lon="6.70701">
        <ele>378</ele>
        <time>2014-05-18T08:30:15.000Z</time>
      </trkpt>
      <trkpt lat="47.41152" lon="6.70705">
        <ele>377.3</ele>
        <time>2014-05-18T08:30:16.000Z</time>
      </trkpt>
      <trkpt lat="47.41151" lon="6.70708">
        <ele>378.3</ele>
        <time>2014-05-18T08:30:17.000Z</time>
      </trkpt>
      <trkpt lat="47.4115" lon="6.70713">
        <ele>377.4</ele>
        <time>2014-05-18T08:30:18.000Z</time>
      </trkpt>
      <trkpt lat="47.41149" lon="6.70716">
        <ele>379.8</ele>
        <time>2014-05-18T08:30:19.000Z</time>
      </trkpt>
      <trkpt lat="47.41148" lon="6.7072">
        <ele>381.7</ele>
        <time>2014-05-18T08:30:20.000Z</time>
      </trkpt>
      <trkpt lat="47.41148" lon="6.70723">
        <ele>381.5</ele>
        <time>2014-05-18T08:30:21.000Z</time>
      </trkpt>
      <trkpt lat="47.41148" lon="6.70729">
        <ele>379.3</ele>
        <time>2014-05-18T08:30:23.000Z</time>
      </trkpt>
      <trkpt lat="47.41148" lon="6.70732">
        <ele>377.1</ele>
        <time>2014-05-18T08:30:24.000Z</time>
      </trkpt>
      <trkpt lat="47.41146" lon="6.70737">
        <ele>378.5</ele>
        <time>2014-05-18T08:30:27.000Z</time>
      </trkpt>
      <trkpt lat="47.41145" lon="6.7074">
        <ele>377.7</ele>
        <time>2014-05-18T08:30:28.000Z</time>
      </trkpt>
      <trkpt lat="47.41143" lon="6.70746">
        <ele>379.1</ele>
        <time>2014-05-18T08:30:30.000Z</time>
      </trkpt>
      <trkpt lat="47.41142" lon="6.70748">
        <ele>376.9</ele>
        <time>2014-05-18T08:30:31.000Z</time>
      </trkpt>
      <trkpt lat="47.4114" lon="6.70752">
        <ele>375.6</ele>
        <time>2014-05-18T08:30:33.000Z</time>
      </trkpt>
      <trkpt lat="47.41138" lon="6.70755">
        <ele>374.6</ele>
        <time>2014-05-18T08:30:34.000Z</time>
      </trkpt>
      <trkpt lat="47.41137" lon="6.70758">
        <ele>375.9</ele>
        <time>2014-05-18T08:30:35.000Z</time>
      </trkpt>
      <trkpt lat="47.41134" lon="6.70762">
        <ele>375.8</ele>
        <time>2014-05-18T08:30:36.000Z</time>
      </trkpt>
      <trkpt lat="47.41132" lon="6.70767">
        <ele>376</ele>
        <time>2014-05-18T08:30:37.000Z</time>
      </trkpt>
      <trkpt lat="47.41129" lon="6.70772">
        <ele>376.2</ele>
        <time>2014-05-18T08:30:38.000Z</time>
      </trkpt>
      <trkpt lat="47.41126" lon="6.70776">
        <ele>377.3</ele>
        <time>2014-05-18T08:30:39.000Z</time>
      </trkpt>
      <trkpt lat="47.41123" lon="6.70781">
        <ele>376.6</ele>
        <time>2014-05-18T08:30:40.000Z</time>
      </trkpt>
      <trkpt lat="47.41121" lon="6.70786">
        <ele>377.1</ele>
        <time>2014-05-18T08:30:41.000Z</time>
      </trkpt>
      <trkpt lat="47.41119" lon="6.7079">
        <ele>377.3</ele>
        <time>2014-05-18T08:30:42.000Z</time>
      </trkpt>
      <trkpt lat="47.41117" lon="6.70794">
        <ele>377.1</ele>
        <time>2014-05-18T08:30:43.000Z</time>
      </trkpt>
      <trkpt lat="47.41114" lon="6.70799">
        <ele>377.2</ele>
        <time>2014-05-18T08:30:44.000Z</time>
      </trkpt>
      <trkpt lat="47.41112" lon="6.70803">
        <ele>377.8</ele>
        <time>2014-05-18T08:30:45.000Z</time>
      </trkpt>
      <trkpt lat="47.4111" lon="6.70808">
        <ele>377.5</ele>
        <time>2014-05-18T08:30:46.000Z</time>
      </trkpt>
      <trkpt lat="47.41098" lon="6.70847">
        <ele>375</ele>
        <time>2014-05-18T08:30:54.000Z</time>
      </trkpt>
      <trkpt lat="47.41097" lon="6.70852">
        <ele>376.7</ele>
        <time>2014-05-18T08:30:55.000Z</time>
      </trkpt>
      <trkpt lat="47.41095" lon="6.70858">
        <ele>378.1</ele>
        <time>2014-05-18T08:30:56.000Z</time>
      </trkpt>
      <trkpt lat="47.41093" lon="6.70864">
        <ele>377.7</ele>
        <time>2014-05-18T08:30:57.000Z</time>
      </trkpt>
      <trkpt lat="47.41092" lon="6.7087">
        <ele>377.2</ele>
        <time>2014-05-18T08:30:58.000Z</time>
      </trkpt>
      <trkpt lat="47.4109" lon="6.70875">
        <ele>377.4</ele>
        <time>2014-05-18T08:30:59.000Z</time>
      </trkpt>
      <trkpt lat="47.41089" lon="6.70881">
        <ele>377.8</ele>
        <time>2014-05-18T08:31:00.000Z</time>
      </trkpt>
      <trkpt lat="47.41088" lon="6.70886">
        <ele>378</ele>
        <time>2014-05-18T08:31:01.000Z</time>
      </trkpt>
      <trkpt lat="47.41087" lon="6.7089">
        <ele>377.8</ele>
        <time>2014-05-18T08:31:02.000Z</time>
      </trkpt>
      <trkpt lat="47.41086" lon="6.70894">
        <ele>378.5</ele>
        <time>2014-05-18T08:31:03.000Z</time>
      </trkpt>
      <trkpt lat="47.41085" lon="6.70898">
        <ele>379.5</ele>
        <time>2014-05-18T08:31:04.000Z</time>
      </trkpt>
      <trkpt lat="47.41084" lon="6.70901">
        <ele>380.9</ele>
        <time>2014-05-18T08:31:05.000Z</time>
      </trkpt>
      <trkpt lat="47.41082" lon="6.70905">
        <ele>382.2</ele>
        <time>2014-05-18T08:31:06.000Z</time>
      </trkpt>
      <trkpt lat="47.4108" lon="6.70909">
        <ele>383.1</ele>
        <time>2014-05-18T08:31:07.000Z</time>
      </trkpt>
      <trkpt lat="47.41078" lon="6.70914">
        <ele>382.1</ele>
        <time>2014-05-18T08:31:08.000Z</time>
      </trkpt>
      <trkpt lat="47.41077" lon="6.70919">
        <ele>382.5</ele>
        <time>2014-05-18T08:31:09.000Z</time>
      </trkpt>
      <trkpt lat="47.41076" lon="6.70924">
        <ele>383.2</ele>
        <time>2014-05-18T08:31:10.000Z</time>
      </trkpt>
      <trkpt lat="47.41074" lon="6.70928">
        <ele>384.5</ele>
        <time>2014-05-18T08:31:11.000Z</time>
      </trkpt>
      <trkpt lat="47.41074" lon="6.70931">
        <ele>381</ele>
        <time>2014-05-18T08:31:12.000Z</time>
      </trkpt>
      <trkpt lat="47.41074" lon="6.70935">
        <ele>379.9</ele>
        <time>2014-05-18T08:31:13.000Z</time>
      </trkpt>
      <trkpt lat="47.41074" lon="6.70938">
        <ele>380.3</ele>
        <time>2014-05-18T08:31:14.000Z</time>
      </trkpt>
      <trkpt lat="47.41074" lon="6.70942">
        <ele>381.1</ele>
        <time>2014-05-18T08:31:15.000Z</time>
      </trkpt>
      <trkpt lat="47.41074" lon="6.70945">
        <ele>383.8</ele>
        <time>2014-05-18T08:31:16.000Z</time>
      </trkpt>
      <trkpt lat="47.41074" lon="6.70949">
        <ele>384.8</ele>
        <time>2014-05-18T08:31:17.000Z</time>
      </trkpt>
      <trkpt lat="47.41073" lon="6.70953">
        <ele>385.1</ele>
        <time>2014-05-18T08:31:18.000Z</time>
      </trkpt>
      <trkpt lat="47.41072" lon="6.70957">
        <ele>385.8</ele>
        <time>2014-05-18T08:31:19.000Z</time>
      </trkpt>
      <trkpt lat="47.4107" lon="6.7096">
        <ele>387.4</ele>
        <time>2014-05-18T08:31:20.000Z</time>
      </trkpt>
      <trkpt lat="47.4107" lon="6.70964">
        <ele>389.5</ele>
        <time>2014-05-18T08:31:21.000Z</time>
      </trkpt>
      <trkpt lat="47.41069" lon="6.70967">
        <ele>390.8</ele>
        <time>2014-05-18T08:31:22.000Z</time>
      </trkpt>
      <trkpt lat="47.41069" lon="6.70971">
        <ele>391.7</ele>
        <time>2014-05-18T08:31:23.000Z</time>
      </trkpt>
      <trkpt lat="47.4107" lon="6.70976">
        <ele>392.7</ele>
        <time>2014-05-18T08:31:24.000Z</time>
      </trkpt>
      <trkpt lat="47.4107" lon="6.7098">
        <ele>393.6</ele>
        <time>2014-05-18T08:31:25.000Z</time>
      </trkpt>
      <trkpt lat="47.4107" lon="6.70985">
        <ele>393.8</ele>
        <time>2014-05-18T08:31:26.000Z</time>
      </trkpt>
      <trkpt lat="47.41069" lon="6.70989">
        <ele>394</ele>
        <time>2014-05-18T08:31:27.000Z</time>
      </trkpt>
      <trkpt lat="47.41068" lon="6.70993">
        <ele>396.2</ele>
        <time>2014-05-18T08:31:28.000Z</time>
      </trkpt>
      <trkpt lat="47.41066" lon="6.70997">
        <ele>396.6</ele>
        <time>2014-05-18T08:31:29.000Z</time>
      </trkpt>
      <trkpt lat="47.41064" lon="6.71001">
        <ele>397.2</ele>
        <time>2014-05-18T08:31:30.000Z</time>
      </trkpt>
      <trkpt lat="47.41063" lon="6.71005">
        <ele>397.6</ele>
        <time>2014-05-18T08:31:31.000Z</time>
      </trkpt>
      <trkpt lat="47.41061" lon="6.71009">
        <ele>397.7</ele>
        <time>2014-05-18T08:31:32.000Z</time>
      </trkpt>
      <trkpt lat="47.41059" lon="6.71013">
        <ele>396.4</ele>
        <time>2014-05-18T08:31:33.000Z</time>
      </trkpt>
      <trkpt lat="47.41057" lon="6.71018">
        <ele>395.3</ele>
        <time>2014-05-18T08:31:34.000Z</time>
      </trkpt>
      <trkpt lat="47.41055" lon="6.71023">
        <ele>396</ele>
        <time>2014-05-18T08:31:35.000Z</time>
      </trkpt>
      <trkpt lat="47.41053" lon="6.71028">
        <ele>394.2</ele>
        <time>2014-05-18T08:31:36.000Z</time>
      </trkpt>
      <trkpt lat="47.41051" lon="6.71033">
        <ele>393.1</ele>
        <time>2014-05-18T08:31:37.000Z</time>
      </trkpt>
      <trkpt lat="47.41049" lon="6.71039">
        <ele>392.8</ele>
        <time>2014-05-18T08:31:38.000Z</time>
      </trkpt>
      <trkpt lat="47.41046" lon="6.71044">
        <ele>392.4</ele>
        <time>2014-05-18T08:31:39.000Z</time>
      </trkpt>
      <trkpt lat="47.41044" lon="6.7105">
        <ele>392.5</ele>
        <time>2014-05-18T08:31:40.000Z</time>
      </trkpt>
      <trkpt lat="47.41041" lon="6.71054">
        <ele>393.1</ele>
        <time>2014-05-18T08:31:41.000Z</time>
      </trkpt>
      <trkpt lat="47.41039" lon="6.71059">
        <ele>392.1</ele>
        <time>2014-05-18T08:31:42.000Z</time>
      </trkpt>
      <trkpt lat="47.41036" lon="6.71064">
        <ele>392.6</ele>
        <time>2014-05-18T08:31:43.000Z</time>
      </trkpt>
      <trkpt lat="47.41034" lon="6.71069">
        <ele>392.9</ele>
        <time>2014-05-18T08:31:44.000Z</time>
      </trkpt>
      <trkpt lat="47.41031" lon="6.71074">
        <ele>393.5</ele>
        <time>2014-05-18T08:31:45.000Z</time>
      </trkpt>
      <trkpt lat="47.41029" lon="6.71079">
        <ele>393.4</ele>
        <time>2014-05-18T08:31:46.000Z</time>
      </trkpt>
      <trkpt lat="47.41016" lon="6.71138">
        <ele>389.8</ele>
        <time>2014-05-18T08:31:54.000Z</time>
      </trkpt>
      <trkpt lat="47.41014" lon="6.71145">
        <ele>389.7</ele>
        <time>2014-05-18T08:31:55.000Z</time>
      </trkpt>
      <trkpt lat="47.41013" lon="6.71154">
        <ele>388.9</ele>
        <time>2014-05-18T08:31:56.000Z</time>
      </trkpt>
      <trkpt lat="47.41011" lon="6.71163">
        <ele>388.3</ele>
        <time>2014-05-18T08:31:57.000Z</time>
      </trkpt>
      <trkpt lat="47.4101" lon="6.71172">
        <ele>388.4</ele>
        <time>2014-05-18T08:31:58.000Z</time>
      </trkpt>
      <trkpt lat="47.41009" lon="6.71178">
        <ele>388.6</ele>
        <time>2014-05-18T08:31:59.000Z</time>
      </trkpt>
      <trkpt lat="47.4101" lon="6.71188">
        <ele>388.7</ele>
        <time>2014-05-18T08:32:00.000Z</time>
      </trkpt>
      <trkpt lat="47.41008" lon="6.71195">
        <ele>389</ele>
        <time>2014-05-18T08:32:01.000Z</time>
      </trkpt>
      <trkpt lat="47.41007" lon="6.71203">
        <ele>388.2</ele>
        <time>2014-05-18T08:32:02.000Z</time>
      </trkpt>
      <trkpt lat="47.41005" lon="6.71209">
        <ele>386.9</ele>
        <time>2014-05-18T08:32:03.000Z</time>
      </trkpt>
      <trkpt lat="47.41005" lon="6.71217">
        <ele>385.1</ele>
        <time>2014-05-18T08:32:04.000Z</time>
      </trkpt>
      <trkpt lat="47.41004" lon="6.71222">
        <ele>385.2</ele>
        <time>2014-05-18T08:32:05.000Z</time>
      </trkpt>
      <trkpt lat="47.41002" lon="6.71229">
        <ele>385.5</ele>
        <time>2014-05-18T08:32:06.000Z</time>
      </trkpt>
      <trkpt lat="47.41001" lon="6.71234">
        <ele>386.3</ele>
        <time>2014-05-18T08:32:07.000Z</time>
      </trkpt>
      <trkpt lat="47.40999" lon="6.7124">
        <ele>385.9</ele>
        <time>2014-05-18T08:32:08.000Z</time>
      </trkpt>
      <trkpt lat="47.40997" lon="6.71245">
        <ele>386.3</ele>
        <time>2014-05-18T08:32:09.000Z</time>
      </trkpt>
      <trkpt lat="47.40995" lon="6.71252">
        <ele>386.6</ele>
        <time>2014-05-18T08:32:10.000Z</time>
      </trkpt>
      <trkpt lat="47.40994" lon="6.71258">
        <ele>386.5</ele>
        <time>2014-05-18T08:32:11.000Z</time>
      </trkpt>
      <trkpt lat="47.40992" lon="6.71263">
        <ele>386.7</ele>
        <time>2014-05-18T08:32:12.000Z</time>
      </trkpt>
      <trkpt lat="47.40991" lon="6.71267">
        <ele>388.3</ele>
        <time>2014-05-18T08:32:13.000Z</time>
      </trkpt>
      <trkpt lat="47.4099" lon="6.71272">
        <ele>388.4</ele>
        <time>2014-05-18T08:32:14.000Z</time>
      </trkpt>
      <trkpt lat="47.40988" lon="6.71278">
        <ele>388.7</ele>
        <time>2014-05-18T08:32:15.000Z</time>
      </trkpt>
      <trkpt lat="47.40986" lon="6.71282">
        <ele>389.8</ele>
        <time>2014-05-18T08:32:16.000Z</time>
      </trkpt>
      <trkpt lat="47.40985" lon="6.71287">
        <ele>390.7</ele>
        <time>2014-05-18T08:32:17.000Z</time>
      </trkpt>
      <trkpt lat="47.40984" lon="6.71291">
        <ele>390.1</ele>
        <time>2014-05-18T08:32:18.000Z</time>
      </trkpt>
      <trkpt lat="47.40983" lon="6.71294">
        <ele>389.7</ele>
        <time>2014-05-18T08:32:19.000Z</time>
      </trkpt>
      <trkpt lat="47.40981" lon="6.713">
        <ele>390.8</ele>
        <time>2014-05-18T08:32:22.000Z</time>
      </trkpt>
      <trkpt lat="47.40981" lon="6.71302">
        <ele>390.6</ele>
        <time>2014-05-18T08:32:23.000Z</time>
      </trkpt>
      <trkpt lat="47.40979" lon="6.71306">
        <ele>387.8</ele>
        <time>2014-05-18T08:32:26.000Z</time>
      </trkpt>
      <trkpt lat="47.40978" lon="6.71309">
        <ele>387.6</ele>
        <time>2014-05-18T08:32:27.000Z</time>
      </trkpt>
      <trkpt lat="47.40976" lon="6.71314">
        <ele>388.8</ele>
        <time>2014-05-18T08:32:29.000Z</time>
      </trkpt>
      <trkpt lat="47.40975" lon="6.71317">
        <ele>388</ele>
        <time>2014-05-18T08:32:30.000Z</time>
      </trkpt>
      <trkpt lat="47.40974" lon="6.7132">
        <ele>388.9</ele>
        <time>2014-05-18T08:32:31.000Z</time>
      </trkpt>
      <trkpt lat="47.40972" lon="6.71323">
        <ele>388.1</ele>
        <time>2014-05-18T08:32:32.000Z</time>
      </trkpt>
      <trkpt lat="47.40971" lon="6.71326">
        <ele>389.4</ele>
        <time>2014-05-18T08:32:33.000Z</time>
      </trkpt>
      <trkpt lat="47.4097" lon="6.7133">
        <ele>387.8</ele>
        <time>2014-05-18T08:32:34.000Z</time>
      </trkpt>
      <trkpt lat="47.40968" lon="6.71334">
        <ele>387.6</ele>
        <time>2014-05-18T08:32:35.000Z</time>
      </trkpt>
      <trkpt lat="47.40967" lon="6.71339">
        <ele>389</ele>
        <time>2014-05-18T08:32:36.000Z</time>
      </trkpt>
      <trkpt lat="47.40967" lon="6.71343">
        <ele>388.8</ele>
        <time>2014-05-18T08:32:37.000Z</time>
      </trkpt>
      <trkpt lat="47.40966" lon="6.71347">
        <ele>388.8</ele>
        <time>2014-05-18T08:32:38.000Z</time>
      </trkpt>
      <trkpt lat="47.40967" lon="6.71351">
        <ele>388.7</ele>
        <time>2014-05-18T08:32:39.000Z</time>
      </trkpt>
      <trkpt lat="47.40968" lon="6.71356">
        <ele>389.5</ele>
        <time>2014-05-18T08:32:40.000Z</time>
      </trkpt>
      <trkpt lat="47.40969" lon="6.71361">
        <ele>389</ele>
        <time>2014-05-18T08:32:41.000Z</time>
      </trkpt>
      <trkpt lat="47.40971" lon="6.71365">
        <ele>390.1</ele>
        <time>2014-05-18T08:32:42.000Z</time>
      </trkpt>
      <trkpt lat="47.40972" lon="6.71369">
        <ele>389.6</ele>
        <time>2014-05-18T08:32:43.000Z</time>
      </trkpt>
      <trkpt lat="47.40972" lon="6.71374">
        <ele>389.1</ele>
        <time>2014-05-18T08:32:44.000Z</time>
      </trkpt>
      <trkpt lat="47.40973" lon="6.71379">
        <ele>385.7</ele>
        <time>2014-05-18T08:32:46.001Z</time>
      </trkpt>
      <trkpt lat="47.40974" lon="6.7139">
        <ele>377.5</ele>
        <time>2014-05-18T08:32:54.000Z</time>
      </trkpt>
      <trkpt lat="47.40974" lon="6.71393">
        <ele>378.8</ele>
        <time>2014-05-18T08:32:55.000Z</time>
      </trkpt>
      <trkpt lat="47.40973" lon="6.71398">
        <ele>377.4</ele>
        <time>2014-05-18T08:32:56.000Z</time>
      </trkpt>
      <trkpt lat="47.40973" lon="6.71402">
        <ele>377.4</ele>
        <time>2014-05-18T08:32:57.000Z</time>
      </trkpt>
      <trkpt lat="47.40974" lon="6.71405">
        <ele>376.3</ele>
        <time>2014-05-18T08:32:58.000Z</time>
      </trkpt>
      <trkpt lat="47.40974" lon="6.71408">
        <ele>376.3</ele>
        <time>2014-05-18T08:32:59.000Z</time>
      </trkpt>
      <trkpt lat="47.40975" lon="6.71412">
        <ele>377.3</ele>
        <time>2014-05-18T08:33:00.000Z</time>
      </trkpt>
      <trkpt lat="47.40976" lon="6.71416">
        <ele>375.3</ele>
        <time>2014-05-18T08:33:01.000Z</time>
      </trkpt>
      <trkpt lat="47.40976" lon="6.71421">
        <ele>375</ele>
        <time>2014-05-18T08:33:02.000Z</time>
      </trkpt>
      <trkpt lat="47.40977" lon="6.71426">
        <ele>374.7</ele>
        <time>2014-05-18T08:33:03.000Z</time>
      </trkpt>
      <trkpt lat="47.40978" lon="6.71431">
        <ele>376.4</ele>
        <time>2014-05-18T08:33:04.000Z</time>
      </trkpt>
      <trkpt lat="47.40979" lon="6.71436">
        <ele>377.9</ele>
        <time>2014-05-18T08:33:05.000Z</time>
      </trkpt>
      <trkpt lat="47.40979" lon="6.71442">
        <ele>378.6</ele>
        <time>2014-05-18T08:33:06.000Z</time>
      </trkpt>
      <trkpt lat="47.4098" lon="6.71447">
        <ele>379.6</ele>
        <time>2014-05-18T08:33:07.000Z</time>
      </trkpt>
      <trkpt lat="47.4098" lon="6.71452">
        <ele>379.9</ele>
        <time>2014-05-18T08:33:08.000Z</time>
      </trkpt>
      <trkpt lat="47.4098" lon="6.71458">
        <ele>382</ele>
        <time>2014-05-18T08:33:09.000Z</time>
      </trkpt>
      <trkpt lat="47.4098" lon="6.71463">
        <ele>383.1</ele>
        <time>2014-05-18T08:33:10.000Z</time>
      </trkpt>
      <trkpt lat="47.4098" lon="6.71468">
        <ele>385.4</ele>
        <time>2014-05-18T08:33:11.000Z</time>
      </trkpt>
      <trkpt lat="47.4098" lon="6.71473">
        <ele>387.3</ele>
        <time>2014-05-18T08:33:12.000Z</time>
      </trkpt>
      <trkpt lat="47.40981" lon="6.71477">
        <ele>388</ele>
        <time>2014-05-18T08:33:13.000Z</time>
      </trkpt>
      <trkpt lat="47.40982" lon="6.71483">
        <ele>389.3</ele>
        <time>2014-05-18T08:33:14.000Z</time>
      </trkpt>
      <trkpt lat="47.40985" lon="6.71487">
        <ele>391.4</ele>
        <time>2014-05-18T08:33:15.000Z</time>
      </trkpt>
      <trkpt lat="47.40988" lon="6.71491">
        <ele>394.4</ele>
        <time>2014-05-18T08:33:16.000Z</time>
      </trkpt>
      <trkpt lat="47.4099" lon="6.71493">
        <ele>395.7</ele>
        <time>2014-05-18T08:33:17.000Z</time>
      </trkpt>
      <trkpt lat="47.40992" lon="6.71497">
        <ele>395.7</ele>
        <time>2014-05-18T08:33:18.000Z</time>
      </trkpt>
      <trkpt lat="47.40993" lon="6.71501">
        <ele>393.5</ele>
        <time>2014-05-18T08:33:19.000Z</time>
      </trkpt>
      <trkpt lat="47.40992" lon="6.71505">
        <ele>391.7</ele>
        <time>2014-05-18T08:33:20.000Z</time>
      </trkpt>
      <trkpt lat="47.40992" lon="6.7151">
        <ele>391.4</ele>
        <time>2014-05-18T08:33:21.000Z</time>
      </trkpt>
      <trkpt lat="47.40991" lon="6.71515">
        <ele>391.4</ele>
        <time>2014-05-18T08:33:22.000Z</time>
      </trkpt>
      <trkpt lat="47.4099" lon="6.71518">
        <ele>391.4</ele>
        <time>2014-05-18T08:33:23.000Z</time>
      </trkpt>
      <trkpt lat="47.40989" lon="6.71522">
        <ele>393.5</ele>
        <time>2014-05-18T08:33:24.000Z</time>
      </trkpt>
      <trkpt lat="47.40987" lon="6.71524">
        <ele>392.5</ele>
        <time>2014-05-18T08:33:25.000Z</time>
      </trkpt>
      <trkpt lat="47.40984" lon="6.71527">
        <ele>393.3</ele>
        <time>2014-05-18T08:33:26.000Z</time>
      </trkpt>
      <trkpt lat="47.40982" lon="6.71531">
        <ele>394.9</ele>
        <time>2014-05-18T08:33:29.000Z</time>
      </trkpt>
      <trkpt lat="47.40981" lon="6.71533">
        <ele>396.1</ele>
        <time>2014-05-18T08:33:30.000Z</time>
      </trkpt>
      <trkpt lat="47.40981" lon="6.71538">
        <ele>396.6</ele>
        <time>2014-05-18T08:33:33.000Z</time>
      </trkpt>
      <trkpt lat="47.4098" lon="6.7154">
        <ele>397.1</ele>
        <time>2014-05-18T08:33:34.000Z</time>
      </trkpt>
      <trkpt lat="47.40978" lon="6.71546">
        <ele>398.8</ele>
        <time>2014-05-18T08:33:39.000Z</time>
      </trkpt>
      <trkpt lat="47.40977" lon="6.71548">
        <ele>398.1</ele>
        <time>2014-05-18T08:33:40.000Z</time>
      </trkpt>
      <trkpt lat="47.40976" lon="6.71551">
        <ele>398.2</ele>
        <time>2014-05-18T08:33:41.000Z</time>
      </trkpt>
      <trkpt lat="47.40975" lon="6.71554">
        <ele>397.6</ele>
        <time>2014-05-18T08:33:42.000Z</time>
      </trkpt>
      <trkpt lat="47.40974" lon="6.71558">
        <ele>397.9</ele>
        <time>2014-05-18T08:33:43.000Z</time>
      </trkpt>
      <trkpt lat="47.40972" lon="6.71561">
        <ele>398.3</ele>
        <time>2014-05-18T08:33:44.000Z</time>
      </trkpt>
      <trkpt lat="47.40971" lon="6.71565">
        <ele>398.6</ele>
        <time>2014-05-18T08:33:45.000Z</time>
      </trkpt>
      <trkpt lat="47.40969" lon="6.71569">
        <ele>398.2</ele>
        <time>2014-05-18T08:33:46.000Z</time>
      </trkpt>
      <trkpt lat="47.40965" lon="6.71601">
        <ele>393</ele>
        <time>2014-05-18T08:33:54.000Z</time>
      </trkpt>
      <trkpt lat="47.40963" lon="6.71604">
        <ele>393.7</ele>
        <time>2014-05-18T08:33:55.000Z</time>
      </trkpt>
      <trkpt lat="47.40959" lon="6.71609">
        <ele>396.5</ele>
        <time>2014-05-18T08:33:56.000Z</time>
      </trkpt>
      <trkpt lat="47.40955" lon="6.71614">
        <ele>396.7</ele>
        <time>2014-05-18T08:33:57.000Z</time>
      </trkpt>
      <trkpt lat="47.40952" lon="6.71619">
        <ele>397.2</ele>
        <time>2014-05-18T08:33:58.000Z</time>
      </trkpt>
      <trkpt lat="47.40949" lon="6.71623">
        <ele>397.6</ele>
        <time>2014-05-18T08:33:59.000Z</time>
      </trkpt>
      <trkpt lat="47.40945" lon="6.71626">
        <ele>397</ele>
        <time>2014-05-18T08:34:00.000Z</time>
      </trkpt>
      <trkpt lat="47.40943" lon="6.71629">
        <ele>396.9</ele>
        <time>2014-05-18T08:34:00.999Z</time>
      </trkpt>
      <trkpt lat="47.40938" lon="6.71633">
        <ele>397.3</ele>
        <time>2014-05-18T08:34:02.000Z</time>
      </trkpt>
      <trkpt lat="47.40936" lon="6.71637">
        <ele>397.4</ele>
        <time>2014-05-18T08:34:03.000Z</time>
      </trkpt>
      <trkpt lat="47.40934" lon="6.71641">
        <ele>397.6</ele>
        <time>2014-05-18T08:34:04.000Z</time>
      </trkpt>
      <trkpt lat="47.40933" lon="6.71645">
        <ele>397.4</ele>
        <time>2014-05-18T08:34:05.000Z</time>
      </trkpt>
      <trkpt lat="47.40932" lon="6.71648">
        <ele>399.5</ele>
        <time>2014-05-18T08:34:06.000Z</time>
      </trkpt>
      <trkpt lat="47.40931" lon="6.71652">
        <ele>400.5</ele>
        <time>2014-05-18T08:34:07.000Z</time>
      </trkpt>
      <trkpt lat="47.4093" lon="6.71655">
        <ele>400.1</ele>
        <time>2014-05-18T08:34:08.000Z</time>
      </trkpt>
      <trkpt lat="47.40928" lon="6.71659">
        <ele>400.2</ele>
        <time>2014-05-18T08:34:09.000Z</time>
      </trkpt>
      <trkpt lat="47.40927" lon="6.71663">
        <ele>399.7</ele>
        <time>2014-05-18T08:34:10.000Z</time>
      </trkpt>
      <trkpt lat="47.40926" lon="6.71666">
        <ele>400</ele>
        <time>2014-05-18T08:34:11.000Z</time>
      </trkpt>
      <trkpt lat="47.40923" lon="6.71669">
        <ele>396.4</ele>
        <time>2014-05-18T08:34:12.000Z</time>
      </trkpt>
      <trkpt lat="47.40921" lon="6.71671">
        <ele>396.5</ele>
        <time>2014-05-18T08:34:13.000Z</time>
      </trkpt>
      <trkpt lat="47.40919" lon="6.71673">
        <ele>395.9</ele>
        <time>2014-05-18T08:34:14.000Z</time>
      </trkpt>
      <trkpt lat="47.40916" lon="6.71675">
        <ele>396.7</ele>
        <time>2014-05-18T08:34:15.000Z</time>
      </trkpt>
      <trkpt lat="47.40914" lon="6.71677">
        <ele>396.9</ele>
        <time>2014-05-18T08:34:16.000Z</time>
      </trkpt>
      <trkpt lat="47.40912" lon="6.71678">
        <ele>396.7</ele>
        <time>2014-05-18T08:34:17.000Z</time>
      </trkpt>
      <trkpt lat="47.40909" lon="6.71682">
        <ele>391</ele>
        <time>2014-05-18T08:34:18.000Z</time>
      </trkpt>
      <trkpt lat="47.40907" lon="6.71684">
        <ele>388.4</ele>
        <time>2014-05-18T08:34:19.000Z</time>
      </trkpt>
      <trkpt lat="47.40905" lon="6.71687">
        <ele>387.6</ele>
        <time>2014-05-18T08:34:20.000Z</time>
      </trkpt>
      <trkpt lat="47.40904" lon="6.7169">
        <ele>387.8</ele>
        <time>2014-05-18T08:34:21.000Z</time>
      </trkpt>
      <trkpt lat="47.40902" lon="6.71693">
        <ele>388.9</ele>
        <time>2014-05-18T08:34:22.000Z</time>
      </trkpt>
      <trkpt lat="47.409" lon="6.71696">
        <ele>389.2</ele>
        <time>2014-05-18T08:34:23.000Z</time>
      </trkpt>
      <trkpt lat="47.40898" lon="6.71699">
        <ele>391</ele>
        <time>2014-05-18T08:34:24.000Z</time>
      </trkpt>
      <trkpt lat="47.40897" lon="6.71703">
        <ele>390.6</ele>
        <time>2014-05-18T08:34:25.000Z</time>
      </trkpt>
      <trkpt lat="47.40895" lon="6.71708">
        <ele>391.8</ele>
        <time>2014-05-18T08:34:26.000Z</time>
      </trkpt>
      <trkpt lat="47.40893" lon="6.71712">
        <ele>393.1</ele>
        <time>2014-05-18T08:34:27.000Z</time>
      </trkpt>
      <trkpt lat="47.40891" lon="6.71717">
        <ele>394.2</ele>
        <time>2014-05-18T08:34:28.000Z</time>
      </trkpt>
      <trkpt lat="47.40889" lon="6.71721">
        <ele>394.1</ele>
        <time>2014-05-18T08:34:29.000Z</time>
      </trkpt>
      <trkpt lat="47.40887" lon="6.71725">
        <ele>395.6</ele>
        <time>2014-05-18T08:34:30.000Z</time>
      </trkpt>
      <trkpt lat="47.40886" lon="6.71729">
        <ele>395.9</ele>
        <time>2014-05-18T08:34:31.000Z</time>
      </trkpt>
      <trkpt lat="47.40883" lon="6.71734">
        <ele>397.1</ele>
        <time>2014-05-18T08:34:32.000Z</time>
      </trkpt>
      <trkpt lat="47.40881" lon="6.71739">
        <ele>398.3</ele>
        <time>2014-05-18T08:34:33.000Z</time>
      </trkpt>
      <trkpt lat="47.4088" lon="6.71744">
        <ele>399.1</ele>
        <time>2014-05-18T08:34:34.000Z</time>
      </trkpt>
      <trkpt lat="47.40878" lon="6.7175">
        <ele>399.4</ele>
        <time>2014-05-18T08:34:35.000Z</time>
      </trkpt>
      <trkpt lat="47.40877" lon="6.71755">
        <ele>400</ele>
        <time>2014-05-18T08:34:36.000Z</time>
      </trkpt>
      <trkpt lat="47.40876" lon="6.7176">
        <ele>400.1</ele>
        <time>2014-05-18T08:34:37.000Z</time>
      </trkpt>
      <trkpt lat="47.40875" lon="6.71765">
        <ele>400.8</ele>
        <time>2014-05-18T08:34:38.000Z</time>
      </trkpt>
      <trkpt lat="47.40874" lon="6.7177">
        <ele>401.2</ele>
        <time>2014-05-18T08:34:39.000Z</time>
      </trkpt>
      <trkpt lat="47.40874" lon="6.71774">
        <ele>401.1</ele>
        <time>2014-05-18T08:34:40.000Z</time>
      </trkpt>
      <trkpt lat="47.40873" lon="6.71778">
        <ele>401.6</ele>
        <time>2014-05-18T08:34:41.000Z</time>
      </trkpt>
      <trkpt lat="47.40872" lon="6.71782">
        <ele>399.9</ele>
        <time>2014-05-18T08:34:42.000Z</time>
      </trkpt>
      <trkpt lat="47.40871" lon="6.71785">
        <ele>399.8</ele>
        <time>2014-05-18T08:34:43.000Z</time>
      </trkpt>
      <trkpt lat="47.40869" lon="6.71789">
        <ele>399</ele>
        <time>2014-05-18T08:34:44.000Z</time>
      </trkpt>
      <trkpt lat="47.40867" lon="6.71791">
        <ele>399.4</ele>
        <time>2014-05-18T08:34:45.000Z</time>
      </trkpt>
      <trkpt lat="47.40864" lon="6.71793">
        <ele>400.3</ele>
        <time>2014-05-18T08:34:46.000Z</time>
      </trkpt>
      <trkpt lat="47.40844" lon="6.7182">
        <ele>403.6</ele>
        <time>2014-05-18T08:34:54.000Z</time>
      </trkpt>
      <trkpt lat="47.40842" lon="6.71823">
        <ele>403.5</ele>
        <time>2014-05-18T08:34:55.000Z</time>
      </trkpt>
      <trkpt lat="47.4084" lon="6.71826">
        <ele>403.6</ele>
        <time>2014-05-18T08:34:56.000Z</time>
      </trkpt>
      <trkpt lat="47.40838" lon="6.71829">
        <ele>403.5</ele>
        <time>2014-05-18T08:34:57.000Z</time>
      </trkpt>
      <trkpt lat="47.40836" lon="6.71832">
        <ele>403.7</ele>
        <time>2014-05-18T08:34:58.000Z</time>
      </trkpt>
      <trkpt lat="47.40834" lon="6.71836">
        <ele>401.4</ele>
        <time>2014-05-18T08:34:59.000Z</time>
      </trkpt>
      <trkpt lat="47.40832" lon="6.71839">
        <ele>401.9</ele>
        <time>2014-05-18T08:35:00.000Z</time>
      </trkpt>
      <trkpt lat="47.4083" lon="6.71842">
        <ele>401.6</ele>
        <time>2014-05-18T08:35:01.000Z</time>
      </trkpt>
      <trkpt lat="47.40828" lon="6.71844">
        <ele>401.7</ele>
        <time>2014-05-18T08:35:02.000Z</time>
      </trkpt>
      <trkpt lat="47.40826" lon="6.71848">
        <ele>401.2</ele>
        <time>2014-05-18T08:35:03.000Z</time>
      </trkpt>
      <trkpt lat="47.40825" lon="6.71851">
        <ele>400.8</ele>
        <time>2014-05-18T08:35:04.000Z</time>
      </trkpt>
      <trkpt lat="47.40823" lon="6.71855">
        <ele>399.8</ele>
        <time>2014-05-18T08:35:05.000Z</time>
      </trkpt>
      <trkpt lat="47.40821" lon="6.71859">
        <ele>400.8</ele>
        <time>2014-05-18T08:35:06.000Z</time>
      </trkpt>
      <trkpt lat="47.40819" lon="6.71862">
        <ele>401.4</ele>
        <time>2014-05-18T08:35:07.000Z</time>
      </trkpt>
      <trkpt lat="47.40817" lon="6.71866">
        <ele>401.9</ele>
        <time>2014-05-18T08:35:08.000Z</time>
      </trkpt>
      <trkpt lat="47.40815" lon="6.71869">
        <ele>402.4</ele>
        <time>2014-05-18T08:35:09.000Z</time>
      </trkpt>
      <trkpt lat="47.40813" lon="6.71872">
        <ele>401.4</ele>
        <time>2014-05-18T08:35:10.000Z</time>
      </trkpt>
      <trkpt lat="47.40811" lon="6.71875">
        <ele>402.1</ele>
        <time>2014-05-18T08:35:11.000Z</time>
      </trkpt>
      <trkpt lat="47.40809" lon="6.71878">
        <ele>402.2</ele>
        <time>2014-05-18T08:35:12.000Z</time>
      </trkpt>
      <trkpt lat="47.40807" lon="6.71881">
        <ele>402.3</ele>
        <time>2014-05-18T08:35:13.000Z</time>
      </trkpt>
      <trkpt lat="47.40804" lon="6.71883">
        <ele>404.6</ele>
        <time>2014-05-18T08:35:14.000Z</time>
      </trkpt>
      <trkpt lat="47.40802" lon="6.71885">
        <ele>401.5</ele>
        <time>2014-05-18T08:35:15.000Z</time>
      </trkpt>
      <trkpt lat="47.40799" lon="6.71887">
        <ele>401.3</ele>
        <time>2014-05-18T08:35:16.000Z</time>
      </trkpt>
      <trkpt lat="47.40797" lon="6.7189">
        <ele>401.2</ele>
        <time>2014-05-18T08:35:17.000Z</time>
      </trkpt>
      <trkpt lat="47.40796" lon="6.71893">
        <ele>401.9</ele>
        <time>2014-05-18T08:35:18.000Z</time>
      </trkpt>
      <trkpt lat="47.40794" lon="6.71896">
        <ele>402.2</ele>
        <time>2014-05-18T08:35:19.000Z</time>
      </trkpt>
      <trkpt lat="47.40792" lon="6.71899">
        <ele>403</ele>
        <time>2014-05-18T08:35:20.000Z</time>
      </trkpt>
      <trkpt lat="47.4079" lon="6.71902">
        <ele>403.5</ele>
        <time>2014-05-18T08:35:21.000Z</time>
      </trkpt>
      <trkpt lat="47.40788" lon="6.71905">
        <ele>402.6</ele>
        <time>2014-05-18T08:35:22.000Z</time>
      </trkpt>
      <trkpt lat="47.40786" lon="6.71909">
        <ele>402.7</ele>
        <time>2014-05-18T08:35:23.000Z</time>
      </trkpt>
      <trkpt lat="47.40783" lon="6.71913">
        <ele>402.7</ele>
        <time>2014-05-18T08:35:24.000Z</time>
      </trkpt>
      <trkpt lat="47.4078" lon="6.71917">
        <ele>402.9</ele>
        <time>2014-05-18T08:35:25.000Z</time>
      </trkpt>
      <trkpt lat="47.40778" lon="6.71921">
        <ele>402.3</ele>
        <time>2014-05-18T08:35:26.000Z</time>
      </trkpt>
      <trkpt lat="47.40775" lon="6.71925">
        <ele>402.7</ele>
        <time>2014-05-18T08:35:27.000Z</time>
      </trkpt>
      <trkpt lat="47.40772" lon="6.71929">
        <ele>403.1</ele>
        <time>2014-05-18T08:35:28.000Z</time>
      </trkpt>
      <trkpt lat="47.4077" lon="6.71933">
        <ele>404.2</ele>
        <time>2014-05-18T08:35:29.000Z</time>
      </trkpt>
      <trkpt lat="47.40767" lon="6.71936">
        <ele>403.1</ele>
        <time>2014-05-18T08:35:30.000Z</time>
      </trkpt>
      <trkpt lat="47.40765" lon="6.7194">
        <ele>402.3</ele>
        <time>2014-05-18T08:35:31.000Z</time>
      </trkpt>
      <trkpt lat="47.40762" lon="6.71944">
        <ele>402.2</ele>
        <time>2014-05-18T08:35:32.000Z</time>
      </trkpt>
      <trkpt lat="47.4076" lon="6.71948">
        <ele>402.2</ele>
        <time>2014-05-18T08:35:33.000Z</time>
      </trkpt>
      <trkpt lat="47.40758" lon="6.71951">
        <ele>401.5</ele>
        <time>2014-05-18T08:35:34.000Z</time>
      </trkpt>
      <trkpt lat="47.40756" lon="6.71954">
        <ele>398.9</ele>
        <time>2014-05-18T08:35:35.000Z</time>
      </trkpt>
      <trkpt lat="47.40754" lon="6.71957">
        <ele>399.1</ele>
        <time>2014-05-18T08:35:36.000Z</time>
      </trkpt>
      <trkpt lat="47.40752" lon="6.7196">
        <ele>401.8</ele>
        <time>2014-05-18T08:35:37.000Z</time>
      </trkpt>
      <trkpt lat="47.4075" lon="6.71963">
        <ele>402.9</ele>
        <time>2014-05-18T08:35:38.000Z</time>
      </trkpt>
      <trkpt lat="47.40748" lon="6.71966">
        <ele>403.3</ele>
        <time>2014-05-18T08:35:39.000Z</time>
      </trkpt>
      <trkpt lat="47.40747" lon="6.71969">
        <ele>401.8</ele>
        <time>2014-05-18T08:35:40.000Z</time>
      </trkpt>
      <trkpt lat="47.40745" lon="6.71974">
        <ele>400.4</ele>
        <time>2014-05-18T08:35:42.000Z</time>
      </trkpt>
      <trkpt lat="47.40743" lon="6.71976">
        <ele>400.2</ele>
        <time>2014-05-18T08:35:43.000Z</time>
      </trkpt>
      <trkpt lat="47.40741" lon="6.71979">
        <ele>400.4</ele>
        <time>2014-05-18T08:35:44.000Z</time>
      </trkpt>
      <trkpt lat="47.40739" lon="6.71983">
        <ele>401.3</ele>
        <time>2014-05-18T08:35:45.000Z</time>
      </trkpt>
      <trkpt lat="47.40737" lon="6.71986">
        <ele>400.3</ele>
        <time>2014-05-18T08:35:46.000Z</time>
      </trkpt>
      <trkpt lat="47.4072" lon="6.72004">
        <ele>400.5</ele>
        <time>2014-05-18T08:35:54.000Z</time>
      </trkpt>
      <trkpt lat="47.40717" lon="6.72008">
        <ele>402.5</ele>
        <time>2014-05-18T08:35:55.000Z</time>
      </trkpt>
      <trkpt lat="47.40715" lon="6.72011">
        <ele>402.6</ele>
        <time>2014-05-18T08:35:56.000Z</time>
      </trkpt>
      <trkpt lat="47.40713" lon="6.72014">
        <ele>403.5</ele>
        <time>2014-05-18T08:35:57.000Z</time>
      </trkpt>
      <trkpt lat="47.40711" lon="6.72017">
        <ele>404.2</ele>
        <time>2014-05-18T08:35:58.000Z</time>
      </trkpt>
      <trkpt lat="47.40708" lon="6.7202">
        <ele>405.3</ele>
        <time>2014-05-18T08:35:59.000Z</time>
      </trkpt>
      <trkpt lat="47.40706" lon="6.72023">
        <ele>405</ele>
        <time>2014-05-18T08:36:00.000Z</time>
      </trkpt>
      <trkpt lat="47.40704" lon="6.72027">
        <ele>405.6</ele>
        <time>2014-05-18T08:36:01.000Z</time>
      </trkpt>
      <trkpt lat="47.40703" lon="6.72029">
        <ele>406.2</ele>
        <time>2014-05-18T08:36:02.000Z</time>
      </trkpt>
      <trkpt lat="47.40701" lon="6.72033">
        <ele>407.1</ele>
        <time>2014-05-18T08:36:04.000Z</time>
      </trkpt>
      <trkpt lat="47.407" lon="6.72034">
        <ele>407</ele>
        <time>2014-05-18T08:36:05.000Z</time>
      </trkpt>
      <trkpt lat="47.40699" lon="6.7204">
        <ele>404.4</ele>
        <time>2014-05-18T08:36:09.000Z</time>
      </trkpt>
      <trkpt lat="47.40699" lon="6.72042">
        <ele>404.4</ele>
        <time>2014-05-18T08:36:10.000Z</time>
      </trkpt>
      <trkpt lat="47.40698" lon="6.72048">
        <ele>403.7</ele>
        <time>2014-05-18T08:36:13.000Z</time>
      </trkpt>
      <trkpt lat="47.40697" lon="6.72049">
        <ele>406.1</ele>
        <time>2014-05-18T08:36:14.000Z</time>
      </trkpt>
      <trkpt lat="47.40694" lon="6.7205">
        <ele>402.2</ele>
        <time>2014-05-18T08:36:16.000Z</time>
      </trkpt>
      <trkpt lat="47.40692" lon="6.72051">
        <ele>402.5</ele>
        <time>2014-05-18T08:36:17.000Z</time>
      </trkpt>
      <trkpt lat="47.4069" lon="6.72054">
        <ele>402</ele>
        <time>2014-05-18T08:36:19.000Z</time>
      </trkpt>
      <trkpt lat="47.40689" lon="6.72056">
        <ele>402.4</ele>
        <time>2014-05-18T08:36:20.000Z</time>
      </trkpt>
      <trkpt lat="47.40686" lon="6.72061">
        <ele>406.8</ele>
        <time>2014-05-18T08:36:23.000Z</time>
      </trkpt>
      <trkpt lat="47.40686" lon="6.72062">
        <ele>407.4</ele>
        <time>2014-05-18T08:36:24.000Z</time>
      </trkpt>
      <trkpt lat="47.40685" lon="6.72068">
        <ele>406.5</ele>
        <time>2014-05-18T08:36:28.000Z</time>
      </trkpt>
      <trkpt lat="47.40685" lon="6.7207">
        <ele>406.8</ele>
        <time>2014-05-18T08:36:29.000Z</time>
      </trkpt>
      <trkpt lat="47.40683" lon="6.72074">
        <ele>406.9</ele>
        <time>2014-05-18T08:36:31.000Z</time>
      </trkpt>
      <trkpt lat="47.40681" lon="6.72076">
        <ele>407.3</ele>
        <time>2014-05-18T08:36:32.000Z</time>
      </trkpt>
      <trkpt lat="47.40679" lon="6.72078">
        <ele>407.2</ele>
        <time>2014-05-18T08:36:33.000Z</time>
      </trkpt>
      <trkpt lat="47.40677" lon="6.7208">
        <ele>408.8</ele>
        <time>2014-05-18T08:36:34.000Z</time>
      </trkpt>
      <trkpt lat="47.40674" lon="6.72083">
        <ele>410</ele>
        <time>2014-05-18T08:36:35.000Z</time>
      </trkpt>
      <trkpt lat="47.40672" lon="6.72084">
        <ele>409.8</ele>
        <time>2014-05-18T08:36:36.000Z</time>
      </trkpt>
      <trkpt lat="47.40669" lon="6.72087">
        <ele>411.4</ele>
        <time>2014-05-18T08:36:39.000Z</time>
      </trkpt>
      <trkpt lat="47.40668" lon="6.72087">
        <ele>411.1</ele>
        <time>2014-05-18T08:36:40.000Z</time>
      </trkpt>
      <trkpt lat="47.40666" lon="6.72086">
        <ele>411.7</ele>
        <time>2014-05-18T08:36:46.000Z</time>
      </trkpt>
      <trkpt lat="47.40662" lon="6.72095">
        <ele>407.5</ele>
        <time>2014-05-18T08:36:54.000Z</time>
      </trkpt>
      <trkpt lat="47.40663" lon="6.72101">
        <ele>410.9</ele>
        <time>2014-05-18T08:36:56.000Z</time>
      </trkpt>
      <trkpt lat="47.40663" lon="6.72104">
        <ele>412.1</ele>
        <time>2014-05-18T08:36:57.000Z</time>
      </trkpt>
      <trkpt lat="47.40663" lon="6.72108">
        <ele>415.5</ele>
        <time>2014-05-18T08:36:59.000Z</time>
      </trkpt>
      <trkpt lat="47.40663" lon="6.72111">
        <ele>416.1</ele>
        <time>2014-05-18T08:37:00.000Z</time>
      </trkpt>
      <trkpt lat="47.40662" lon="6.72114">
        <ele>416.9</ele>
        <time>2014-05-18T08:37:01.000Z</time>
      </trkpt>
      <trkpt lat="47.4066" lon="6.72117">
        <ele>416.7</ele>
        <time>2014-05-18T08:37:02.000Z</time>
      </trkpt>
      <trkpt lat="47.40659" lon="6.7212">
        <ele>416.4</ele>
        <time>2014-05-18T08:37:03.000Z</time>
      </trkpt>
      <trkpt lat="47.40657" lon="6.72123">
        <ele>417.1</ele>
        <time>2014-05-18T08:37:04.000Z</time>
      </trkpt>
      <trkpt lat="47.40655" lon="6.72127">
        <ele>419.7</ele>
        <time>2014-05-18T08:37:06.000Z</time>
      </trkpt>
      <trkpt lat="47.40655" lon="6.7213">
        <ele>419.7</ele>
        <time>2014-05-18T08:37:07.000Z</time>
      </trkpt>
      <trkpt lat="47.40655" lon="6.72136">
        <ele>421.7</ele>
        <time>2014-05-18T08:37:09.000Z</time>
      </trkpt>
      <trkpt lat="47.40655" lon="6.72139">
        <ele>424</ele>
        <time>2014-05-18T08:37:10.000Z</time>
      </trkpt>
      <trkpt lat="47.40657" lon="6.72145">
        <ele>425.4</ele>
        <time>2014-05-18T08:37:12.000Z</time>
      </trkpt>
      <trkpt lat="47.40658" lon="6.72148">
        <ele>425.6</ele>
        <time>2014-05-18T08:37:13.000Z</time>
      </trkpt>
      <trkpt lat="47.40659" lon="6.72153">
        <ele>425</ele>
        <time>2014-05-18T08:37:15.000Z</time>
      </trkpt>
      <trkpt lat="47.40659" lon="6.72156">
        <ele>425.8</ele>
        <time>2014-05-18T08:37:16.000Z</time>
      </trkpt>
      <trkpt lat="47.40658" lon="6.72162">
        <ele>423.4</ele>
        <time>2014-05-18T08:37:19.000Z</time>
      </trkpt>
      <trkpt lat="47.40657" lon="6.72164">
        <ele>422.9</ele>
        <time>2014-05-18T08:37:20.000Z</time>
      </trkpt>
      <trkpt lat="47.40656" lon="6.72167">
        <ele>421.5</ele>
        <time>2014-05-18T08:37:21.000Z</time>
      </trkpt>
      <trkpt lat="47.40656" lon="6.72171">
        <ele>419.8</ele>
        <time>2014-05-18T08:37:22.000Z</time>
      </trkpt>
      <trkpt lat="47.40655" lon="6.72174">
        <ele>420.1</ele>
        <time>2014-05-18T08:37:23.000Z</time>
      </trkpt>
      <trkpt lat="47.40654" lon="6.72177">
        <ele>420.5</ele>
        <time>2014-05-18T08:37:24.000Z</time>
      </trkpt>
      <trkpt lat="47.40653" lon="6.72182">
        <ele>418.9</ele>
        <time>2014-05-18T08:37:26.000Z</time>
      </trkpt>
      <trkpt lat="47.40652" lon="6.72184">
        <ele>419.4</ele>
        <time>2014-05-18T08:37:27.000Z</time>
      </trkpt>
      <trkpt lat="47.40652" lon="6.72189">
        <ele>418.7</ele>
        <time>2014-05-18T08:37:29.000Z</time>
      </trkpt>
      <trkpt lat="47.40653" lon="6.72192">
        <ele>416.5</ele>
        <time>2014-05-18T08:37:30.000Z</time>
      </trkpt>
      <trkpt lat="47.40652" lon="6.72197">
        <ele>413.3</ele>
        <time>2014-05-18T08:37:32.000Z</time>
      </trkpt>
      <trkpt lat="47.40652" lon="6.722">
        <ele>413</ele>
        <time>2014-05-18T08:37:33.000Z</time>
      </trkpt>
      <trkpt lat="47.40651" lon="6.72203">
        <ele>410</ele>
        <time>2014-05-18T08:37:34.000Z</time>
      </trkpt>
      <trkpt lat="47.40651" lon="6.72207">
        <ele>407.9</ele>
        <time>2014-05-18T08:37:35.000Z</time>
      </trkpt>
      <trkpt lat="47.40651" lon="6.72213">
        <ele>406.6</ele>
        <time>2014-05-18T08:37:37.000Z</time>
      </trkpt>
      <trkpt lat="47.40651" lon="6.72216">
        <ele>408.4</ele>
        <time>2014-05-18T08:37:38.000Z</time>
      </trkpt>
      <trkpt lat="47.4065" lon="6.72221">
        <ele>411.4</ele>
        <time>2014-05-18T08:37:40.000Z</time>
      </trkpt>
      <trkpt lat="47.40649" lon="6.72224">
        <ele>412</ele>
        <time>2014-05-18T08:37:41.000Z</time>
      </trkpt>
      <trkpt lat="47.40649" lon="6.72228">
        <ele>413.1</ele>
        <time>2014-05-18T08:37:42.000Z</time>
      </trkpt>
      <trkpt lat="47.40647" lon="6.72232">
        <ele>414.2</ele>
        <time>2014-05-18T08:37:43.000Z</time>
      </trkpt>
      <trkpt lat="47.40646" lon="6.72235">
        <ele>410.7</ele>
        <time>2014-05-18T08:37:44.000Z</time>
      </trkpt>
      <trkpt lat="47.40644" lon="6.72239">
        <ele>410.2</ele>
        <time>2014-05-18T08:37:45.000Z</time>
      </trkpt>
      <trkpt lat="47.40642" lon="6.72242">
        <ele>409.8</ele>
        <time>2014-05-18T08:37:46.000Z</time>
      </trkpt>
      <trkpt lat="47.40632" lon="6.72268">
        <ele>416.1</ele>
        <time>2014-05-18T08:37:54.000Z</time>
      </trkpt>
      <trkpt lat="47.40631" lon="6.72272">
        <ele>417.2</ele>
        <time>2014-05-18T08:37:55.000Z</time>
      </trkpt>
      <trkpt lat="47.4063" lon="6.72276">
        <ele>410.6</ele>
        <time>2014-05-18T08:37:56.000Z</time>
      </trkpt>
      <trkpt lat="47.4063" lon="6.72279">
        <ele>410.5</ele>
        <time>2014-05-18T08:37:57.000Z</time>
      </trkpt>
      <trkpt lat="47.40629" lon="6.72283">
        <ele>411.4</ele>
        <time>2014-05-18T08:37:58.000Z</time>
      </trkpt>
      <trkpt lat="47.40629" lon="6.72288">
        <ele>412</ele>
        <time>2014-05-18T08:37:59.000Z</time>
      </trkpt>
      <trkpt lat="47.40628" lon="6.72291">
        <ele>416</ele>
        <time>2014-05-18T08:38:00.000Z</time>
      </trkpt>
      <trkpt lat="47.40627" lon="6.72297">
        <ele>416.1</ele>
        <time>2014-05-18T08:38:02.000Z</time>
      </trkpt>
      <trkpt lat="47.40626" lon="6.723">
        <ele>417.4</ele>
        <time>2014-05-18T08:38:03.000Z</time>
      </trkpt>
      <trkpt lat="47.40625" lon="6.72303">
        <ele>416.8</ele>
        <time>2014-05-18T08:38:04.000Z</time>
      </trkpt>
      <trkpt lat="47.40623" lon="6.72307">
        <ele>415.7</ele>
        <time>2014-05-18T08:38:05.000Z</time>
      </trkpt>
      <trkpt lat="47.40622" lon="6.72311">
        <ele>413.7</ele>
        <time>2014-05-18T08:38:06.000Z</time>
      </trkpt>
      <trkpt lat="47.40621" lon="6.72314">
        <ele>413.6</ele>
        <time>2014-05-18T08:38:07.000Z</time>
      </trkpt>
      <trkpt lat="47.40619" lon="6.72316">
        <ele>412.7</ele>
        <time>2014-05-18T08:38:08.000Z</time>
      </trkpt>
      <trkpt lat="47.40618" lon="6.72319">
        <ele>411.4</ele>
        <time>2014-05-18T08:38:09.000Z</time>
      </trkpt>
      <trkpt lat="47.40617" lon="6.72323">
        <ele>411.3</ele>
        <time>2014-05-18T08:38:10.000Z</time>
      </trkpt>
      <trkpt lat="47.40615" lon="6.72326">
        <ele>412.4</ele>
        <time>2014-05-18T08:38:11.000Z</time>
      </trkpt>
      <trkpt lat="47.40613" lon="6.7233">
        <ele>412.9</ele>
        <time>2014-05-18T08:38:12.000Z</time>
      </trkpt>
      <trkpt lat="47.40612" lon="6.72334">
        <ele>412.8</ele>
        <time>2014-05-18T08:38:13.000Z</time>
      </trkpt>
      <trkpt lat="47.4061" lon="6.72337">
        <ele>413.5</ele>
        <time>2014-05-18T08:38:14.000Z</time>
      </trkpt>
      <trkpt lat="47.40609" lon="6.72341">
        <ele>412.9</ele>
        <time>2014-05-18T08:38:15.000Z</time>
      </trkpt>
      <trkpt lat="47.40607" lon="6.72344">
        <ele>412</ele>
        <time>2014-05-18T08:38:16.000Z</time>
      </trkpt>
      <trkpt lat="47.40606" lon="6.72347">
        <ele>409.2</ele>
        <time>2014-05-18T08:38:17.000Z</time>
      </trkpt>
      <trkpt lat="47.40606" lon="6.7235">
        <ele>407.2</ele>
        <time>2014-05-18T08:38:18.000Z</time>
      </trkpt>
      <trkpt lat="47.40605" lon="6.72354">
        <ele>406.5</ele>
        <time>2014-05-18T08:38:19.000Z</time>
      </trkpt>
      <trkpt lat="47.40604" lon="6.72358">
        <ele>406.5</ele>
        <time>2014-05-18T08:38:20.000Z</time>
      </trkpt>
      <trkpt lat="47.40603" lon="6.72362">
        <ele>409.5</ele>
        <time>2014-05-18T08:38:21.000Z</time>
      </trkpt>
      <trkpt lat="47.40602" lon="6.72366">
        <ele>410.8</ele>
        <time>2014-05-18T08:38:22.000Z</time>
      </trkpt>
      <trkpt lat="47.40601" lon="6.7237">
        <ele>411.3</ele>
        <time>2014-05-18T08:38:23.000Z</time>
      </trkpt>
      <trkpt lat="47.406" lon="6.72373">
        <ele>411.3</ele>
        <time>2014-05-18T08:38:24.000Z</time>
      </trkpt>
      <trkpt lat="47.40599" lon="6.72376">
        <ele>411.9</ele>
        <time>2014-05-18T08:38:25.000Z</time>
      </trkpt>
      <trkpt lat="47.40597" lon="6.72382">
        <ele>412.3</ele>
        <time>2014-05-18T08:38:27.000Z</time>
      </trkpt>
      <trkpt lat="47.40596" lon="6.72385">
        <ele>412.5</ele>
        <time>2014-05-18T08:38:28.000Z</time>
      </trkpt>
      <trkpt lat="47.40597" lon="6.72391">
        <ele>413</ele>
        <time>2014-05-18T08:38:30.000Z</time>
      </trkpt>
      <trkpt lat="47.40597" lon="6.72394">
        <ele>413.5</ele>
        <time>2014-05-18T08:38:31.000Z</time>
      </trkpt>
      <trkpt lat="47.40596" lon="6.72397">
        <ele>414</ele>
        <time>2014-05-18T08:38:32.000Z</time>
      </trkpt>
      <trkpt lat="47.40595" lon="6.72401">
        <ele>414.8</ele>
        <time>2014-05-18T08:38:33.000Z</time>
      </trkpt>
      <trkpt lat="47.40594" lon="6.72405">
        <ele>415.4</ele>
        <time>2014-05-18T08:38:34.000Z</time>
      </trkpt>
      <trkpt lat="47.40593" lon="6.72408">
        <ele>412.6</ele>
        <time>2014-05-18T08:38:35.000Z</time>
      </trkpt>
      <trkpt lat="47.40594" lon="6.72412">
        <ele>411.7</ele>
        <time>2014-05-18T08:38:36.000Z</time>
      </trkpt>
      <trkpt lat="47.40595" lon="6.72415">
        <ele>412.2</ele>
        <time>2014-05-18T08:38:37.000Z</time>
      </trkpt>
      <trkpt lat="47.40596" lon="6.72419">
        <ele>413.1</ele>
        <time>2014-05-18T08:38:38.000Z</time>
      </trkpt>
      <trkpt lat="47.40596" lon="6.72423">
        <ele>412.4</ele>
        <time>2014-05-18T08:38:39.000Z</time>
      </trkpt>
      <trkpt lat="47.40595" lon="6.72427">
        <ele>412.9</ele>
        <time>2014-05-18T08:38:40.000Z</time>
      </trkpt>
      <trkpt lat="47.40594" lon="6.72431">
        <ele>412.5</ele>
        <time>2014-05-18T08:38:41.000Z</time>
      </trkpt>
      <trkpt lat="47.40593" lon="6.72434">
        <ele>412.4</ele>
        <time>2014-05-18T08:38:42.000Z</time>
      </trkpt>
      <trkpt lat="47.40591" lon="6.72436">
        <ele>411.1</ele>
        <time>2014-05-18T08:38:43.000Z</time>
      </trkpt>
      <trkpt lat="47.40589" lon="6.72441">
        <ele>407.5</ele>
        <time>2014-05-18T08:38:46.000Z</time>
      </trkpt>
      <trkpt lat="47.40588" lon="6.72469">
        <ele>404.3</ele>
        <time>2014-05-18T08:38:56.000Z</time>
      </trkpt>
      <trkpt lat="47.40588" lon="6.72471">
        <ele>404.7</ele>
        <time>2014-05-18T08:38:57.000Z</time>
      </trkpt>
      <trkpt lat="47.40587" lon="6.72476">
        <ele>404.8</ele>
        <time>2014-05-18T08:38:58.000Z</time>
      </trkpt>
      <trkpt lat="47.40586" lon="6.72481">
        <ele>405.5</ele>
        <time>2014-05-18T08:38:59.000Z</time>
      </trkpt>
      <trkpt lat="47.40585" lon="6.72487">
        <ele>400.5</ele>
        <time>2014-05-18T08:39:00.000Z</time>
      </trkpt>
      <trkpt lat="47.40584" lon="6.72493">
        <ele>401.5</ele>
        <time>2014-05-18T08:39:01.000Z</time>
      </trkpt>
      <trkpt lat="47.40582" lon="6.72502">
        <ele>402.6</ele>
        <time>2014-05-18T08:39:02.000Z</time>
      </trkpt>
      <trkpt lat="47.40582" lon="6.72507">
        <ele>404.8</ele>
        <time>2014-05-18T08:39:03.000Z</time>
      </trkpt>
      <trkpt lat="47.40583" lon="6.72512">
        <ele>406.2</ele>
        <time>2014-05-18T08:39:04.000Z</time>
      </trkpt>
      <trkpt lat="47.40583" lon="6.72516">
        <ele>407</ele>
        <time>2014-05-18T08:39:05.000Z</time>
      </trkpt>
      <trkpt lat="47.40584" lon="6.72519">
        <ele>406.9</ele>
        <time>2014-05-18T08:39:05.999Z</time>
      </trkpt>
      <trkpt lat="47.40584" lon="6.72525">
        <ele>409.8</ele>
        <time>2014-05-18T08:39:07.000Z</time>
      </trkpt>
      <trkpt lat="47.40584" lon="6.72529">
        <ele>410.8</ele>
        <time>2014-05-18T08:39:08.000Z</time>
      </trkpt>
      <trkpt lat="47.40583" lon="6.72534">
        <ele>412.2</ele>
        <time>2014-05-18T08:39:09.000Z</time>
      </trkpt>
      <trkpt lat="47.40582" lon="6.72539">
        <ele>414</ele>
        <time>2014-05-18T08:39:10.000Z</time>
      </trkpt>
      <trkpt lat="47.40581" lon="6.72544">
        <ele>415.7</ele>
        <time>2014-05-18T08:39:11.000Z</time>
      </trkpt>
      <trkpt lat="47.40581" lon="6.72548">
        <ele>415.9</ele>
        <time>2014-05-18T08:39:12.000Z</time>
      </trkpt>
      <trkpt lat="47.4058" lon="6.72552">
        <ele>416.7</ele>
        <time>2014-05-18T08:39:13.000Z</time>
      </trkpt>
      <trkpt lat="47.4058" lon="6.72557">
        <ele>417.7</ele>
        <time>2014-05-18T08:39:14.000Z</time>
      </trkpt>
      <trkpt lat="47.4058" lon="6.72561">
        <ele>419.2</ele>
        <time>2014-05-18T08:39:15.000Z</time>
      </trkpt>
      <trkpt lat="47.4058" lon="6.72565">
        <ele>420.2</ele>
        <time>2014-05-18T08:39:16.000Z</time>
      </trkpt>
      <trkpt lat="47.4058" lon="6.72569">
        <ele>420.5</ele>
        <time>2014-05-18T08:39:17.000Z</time>
      </trkpt>
      <trkpt lat="47.40579" lon="6.72573">
        <ele>424.7</ele>
        <time>2014-05-18T08:39:18.000Z</time>
      </trkpt>
      <trkpt lat="47.40579" lon="6.72577">
        <ele>425.6</ele>
        <time>2014-05-18T08:39:19.000Z</time>
      </trkpt>
      <trkpt lat="47.40578" lon="6.72581">
        <ele>426.6</ele>
        <time>2014-05-18T08:39:20.000Z</time>
      </trkpt>
      <trkpt lat="47.40578" lon="6.72584">
        <ele>429.8</ele>
        <time>2014-05-18T08:39:21.000Z</time>
      </trkpt>
      <trkpt lat="47.40577" lon="6.72588">
        <ele>431.1</ele>
        <time>2014-05-18T08:39:22.000Z</time>
      </trkpt>
      <trkpt lat="47.40576" lon="6.72591">
        <ele>433</ele>
        <time>2014-05-18T08:39:23.000Z</time>
      </trkpt>
      <trkpt lat="47.40575" lon="6.72595">
        <ele>433.6</ele>
        <time>2014-05-18T08:39:24.000Z</time>
      </trkpt>
      <trkpt lat="47.40574" lon="6.72598">
        <ele>434.5</ele>
        <time>2014-05-18T08:39:25.000Z</time>
      </trkpt>
      <trkpt lat="47.40574" lon="6.72602">
        <ele>434.5</ele>
        <time>2014-05-18T08:39:26.000Z</time>
      </trkpt>
      <trkpt lat="47.40574" lon="6.72606">
        <ele>434.8</ele>
        <time>2014-05-18T08:39:27.000Z</time>
      </trkpt>
      <trkpt lat="47.40573" lon="6.7261">
        <ele>435.4</ele>
        <time>2014-05-18T08:39:28.000Z</time>
      </trkpt>
      <trkpt lat="47.40574" lon="6.72614">
        <ele>435.8</ele>
        <time>2014-05-18T08:39:29.000Z</time>
      </trkpt>
      <trkpt lat="47.40575" lon="6.72617">
        <ele>435.3</ele>
        <time>2014-05-18T08:39:30.000Z</time>
      </trkpt>
      <trkpt lat="47.40576" lon="6.72622">
        <ele>441</ele>
        <time>2014-05-18T08:39:32.000Z</time>
      </trkpt>
      <trkpt lat="47.40577" lon="6.72624">
        <ele>442</ele>
        <time>2014-05-18T08:39:33.000Z</time>
      </trkpt>
      <trkpt lat="47.40577" lon="6.72629">
        <ele>442.1</ele>
        <time>2014-05-18T08:39:35.000Z</time>
      </trkpt>
      <trkpt lat="47.40577" lon="6.72632">
        <ele>442.5</ele>
        <time>2014-05-18T08:39:36.000Z</time>
      </trkpt>
      <trkpt lat="47.40577" lon="6.72636">
        <ele>443.2</ele>
        <time>2014-05-18T08:39:37.000Z</time>
      </trkpt>
      <trkpt lat="47.40578" lon="6.7264">
        <ele>441.8</ele>
        <time>2014-05-18T08:39:38.000Z</time>
      </trkpt>
      <trkpt lat="47.4058" lon="6.72644">
        <ele>440.1</ele>
        <time>2014-05-18T08:39:39.000Z</time>
      </trkpt>
      <trkpt lat="47.40581" lon="6.72648">
        <ele>440.8</ele>
        <time>2014-05-18T08:39:40.000Z</time>
      </trkpt>
      <trkpt lat="47.40582" lon="6.72652">
        <ele>438.7</ele>
        <time>2014-05-18T08:39:41.000Z</time>
      </trkpt>
      <trkpt lat="47.40583" lon="6.72657">
        <ele>442.1</ele>
        <time>2014-05-18T08:39:42.000Z</time>
      </trkpt>
      <trkpt lat="47.40583" lon="6.7266">
        <ele>442.5</ele>
        <time>2014-05-18T08:39:43.000Z</time>
      </trkpt>
      <trkpt lat="47.40584" lon="6.72664">
        <ele>442.5</ele>
        <time>2014-05-18T08:39:44.000Z</time>
      </trkpt>
      <trkpt lat="47.40584" lon="6.72669">
        <ele>444.9</ele>
        <time>2014-05-18T08:39:46.000Z</time>
      </trkpt>
      <trkpt lat="47.40582" lon="6.72687">
        <ele>442.3</ele>
        <time>2014-05-18T08:39:54.000Z</time>
      </trkpt>
      <trkpt lat="47.40582" lon="6.72691">
        <ele>441.8</ele>
        <time>2014-05-18T08:39:55.000Z</time>
      </trkpt>
      <trkpt lat="47.40581" lon="6.72695">
        <ele>437.4</ele>
        <time>2014-05-18T08:39:56.000Z</time>
      </trkpt>
      <trkpt lat="47.4058" lon="6.72698">
        <ele>436.6</ele>
        <time>2014-05-18T08:39:57.000Z</time>
      </trkpt>
      <trkpt lat="47.40579" lon="6.72701">
        <ele>436.7</ele>
        <time>2014-05-18T08:39:58.000Z</time>
      </trkpt>
      <trkpt lat="47.40578" lon="6.72705">
        <ele>436.7</ele>
        <time>2014-05-18T08:39:59.000Z</time>
      </trkpt>
      <trkpt lat="47.40577" lon="6.7271">
        <ele>436.8</ele>
        <time>2014-05-18T08:40:00.000Z</time>
      </trkpt>
      <trkpt lat="47.40576" lon="6.72715">
        <ele>435.9</ele>
        <time>2014-05-18T08:40:01.000Z</time>
      </trkpt>
      <trkpt lat="47.40575" lon="6.7272">
        <ele>436</ele>
        <time>2014-05-18T08:40:02.000Z</time>
      </trkpt>
      <trkpt lat="47.40574" lon="6.72724">
        <ele>436.1</ele>
        <time>2014-05-18T08:40:03.000Z</time>
      </trkpt>
      <trkpt lat="47.40573" lon="6.72727">
        <ele>435.6</ele>
        <time>2014-05-18T08:40:04.000Z</time>
      </trkpt>
      <trkpt lat="47.4057" lon="6.7273">
        <ele>436.6</ele>
        <time>2014-05-18T08:40:06.000Z</time>
      </trkpt>
      <trkpt lat="47.40568" lon="6.72729">
        <ele>436.6</ele>
        <time>2014-05-18T08:40:07.000Z</time>
      </trkpt>
      <trkpt lat="47.40564" lon="6.72726">
        <ele>437.5</ele>
        <time>2014-05-18T08:40:09.000Z</time>
      </trkpt>
      <trkpt lat="47.40562" lon="6.72724">
        <ele>438.5</ele>
        <time>2014-05-18T08:40:10.000Z</time>
      </trkpt>
      <trkpt lat="47.40558" lon="6.72722">
        <ele>438.5</ele>
        <time>2014-05-18T08:40:11.000Z</time>
      </trkpt>
      <trkpt lat="47.40555" lon="6.7272">
        <ele>437</ele>
        <time>2014-05-18T08:40:12.000Z</time>
      </trkpt>
      <trkpt lat="47.40552" lon="6.72718">
        <ele>436.5</ele>
        <time>2014-05-18T08:40:13.000Z</time>
      </trkpt>
      <trkpt lat="47.40549" lon="6.72716">
        <ele>436.4</ele>
        <time>2014-05-18T08:40:14.000Z</time>
      </trkpt>
      <trkpt lat="47.40547" lon="6.72713">
        <ele>436.3</ele>
        <time>2014-05-18T08:40:15.000Z</time>
      </trkpt>
      <trkpt lat="47.40544" lon="6.72711">
        <ele>436.4</ele>
        <time>2014-05-18T08:40:16.000Z</time>
      </trkpt>
      <trkpt lat="47.40542" lon="6.72708">
        <ele>436.7</ele>
        <time>2014-05-18T08:40:17.000Z</time>
      </trkpt>
      <trkpt lat="47.40539" lon="6.72705">
        <ele>437.5</ele>
        <time>2014-05-18T08:40:18.000Z</time>
      </trkpt>
      <trkpt lat="47.40538" lon="6.72702">
        <ele>434.4</ele>
        <time>2014-05-18T08:40:19.000Z</time>
      </trkpt>
      <trkpt lat="47.40536" lon="6.72697">
        <ele>434.6</ele>
        <time>2014-05-18T08:40:20.000Z</time>
      </trkpt>
      <trkpt lat="47.40535" lon="6.72693">
        <ele>432.6</ele>
        <time>2014-05-18T08:40:21.000Z</time>
      </trkpt>
      <trkpt lat="47.40533" lon="6.7269">
        <ele>430.8</ele>
        <time>2014-05-18T08:40:22.000Z</time>
      </trkpt>
      <trkpt lat="47.40532" lon="6.72687">
        <ele>430.8</ele>
        <time>2014-05-18T08:40:23.000Z</time>
      </trkpt>
      <trkpt lat="47.4053" lon="6.72683">
        <ele>427.7</ele>
        <time>2014-05-18T08:40:24.000Z</time>
      </trkpt>
      <trkpt lat="47.40529" lon="6.72678">
        <ele>425.9</ele>
        <time>2014-05-18T08:40:25.000Z</time>
      </trkpt>
      <trkpt lat="47.40529" lon="6.72674">
        <ele>423</ele>
        <time>2014-05-18T08:40:26.000Z</time>
      </trkpt>
      <trkpt lat="47.40528" lon="6.72668">
        <ele>420.9</ele>
        <time>2014-05-18T08:40:27.000Z</time>
      </trkpt>
      <trkpt lat="47.40528" lon="6.7266">
        <ele>416.7</ele>
        <time>2014-05-18T08:40:28.000Z</time>
      </trkpt>
      <trkpt lat="47.40528" lon="6.72656">
        <ele>413.7</ele>
        <time>2014-05-18T08:40:29.000Z</time>
      </trkpt>
      <trkpt lat="47.40527" lon="6.72651">
        <ele>412.4</ele>
        <time>2014-05-18T08:40:30.000Z</time>
      </trkpt>
      <trkpt lat="47.40527" lon="6.72646">
        <ele>411.7</ele>
        <time>2014-05-18T08:40:31.000Z</time>
      </trkpt>
      <trkpt lat="47.40526" lon="6.72643">
        <ele>411.3</ele>
        <time>2014-05-18T08:40:32.000Z</time>
      </trkpt>
      <trkpt lat="47.40525" lon="6.72639">
        <ele>404.4</ele>
        <time>2014-05-18T08:40:33.000Z</time>
      </trkpt>
      <trkpt lat="47.40523" lon="6.72635">
        <ele>401.2</ele>
        <time>2014-05-18T08:40:34.000Z</time>
      </trkpt>
      <trkpt lat="47.40523" lon="6.72631">
        <ele>400</ele>
        <time>2014-05-18T08:40:35.000Z</time>
      </trkpt>
      <trkpt lat="47.40522" lon="6.72627">
        <ele>399.6</ele>
        <time>2014-05-18T08:40:36.000Z</time>
      </trkpt>
      <trkpt lat="47.40522" lon="6.72619">
        <ele>394.4</ele>
        <time>2014-05-18T08:40:37.000Z</time>
      </trkpt>
      <trkpt lat="47.40522" lon="6.72613">
        <ele>392.4</ele>
        <time>2014-05-18T08:40:38.000Z</time>
      </trkpt>
      <trkpt lat="47.4052" lon="6.72609">
        <ele>391.3</ele>
        <time>2014-05-18T08:40:39.000Z</time>
      </trkpt>
      <trkpt lat="47.4052" lon="6.72604">
        <ele>391.4</ele>
        <time>2014-05-18T08:40:40.000Z</time>
      </trkpt>
      <trkpt lat="47.40519" lon="6.72599">
        <ele>390.2</ele>
        <time>2014-05-18T08:40:41.001Z</time>
      </trkpt>
      <trkpt lat="47.4052" lon="6.72591">
        <ele>392.1</ele>
        <time>2014-05-18T08:40:42.000Z</time>
      </trkpt>
      <trkpt lat="47.40521" lon="6.72583">
        <ele>386.5</ele>
        <time>2014-05-18T08:40:43.000Z</time>
      </trkpt>
      <trkpt lat="47.40523" lon="6.72578">
        <ele>389.2</ele>
        <time>2014-05-18T08:40:44.000Z</time>
      </trkpt>
      <trkpt lat="47.40523" lon="6.72571">
        <ele>390.4</ele>
        <time>2014-05-18T08:40:45.000Z</time>
      </trkpt>
      <trkpt lat="47.40524" lon="6.72565">
        <ele>391.4</ele>
        <time>2014-05-18T08:40:46.000Z</time>
      </trkpt>
      <trkpt lat="47.40523" lon="6.72522">
        <ele>392.2</ele>
        <time>2014-05-18T08:40:54.000Z</time>
      </trkpt>
      <trkpt lat="47.40524" lon="6.72506">
        <ele>393.6</ele>
        <time>2014-05-18T08:40:55.000Z</time>
      </trkpt>
      <trkpt lat="47.40524" lon="6.72494">
        <ele>395.1</ele>
        <time>2014-05-18T08:40:56.000Z</time>
      </trkpt>
      <trkpt lat="47.40522" lon="6.72485">
        <ele>396.3</ele>
        <time>2014-05-18T08:40:57.000Z</time>
      </trkpt>
      <trkpt lat="47.40521" lon="6.72475">
        <ele>398.7</ele>
        <time>2014-05-18T08:40:58.000Z</time>
      </trkpt>
      <trkpt lat="47.4052" lon="6.72467">
        <ele>401.7</ele>
        <time>2014-05-18T08:40:59.000Z</time>
      </trkpt>
      <trkpt lat="47.40516" lon="6.72463">
        <ele>404.5</ele>
        <time>2014-05-18T08:41:00.000Z</time>
      </trkpt>
      <trkpt lat="47.40515" lon="6.72456">
        <ele>407.8</ele>
        <time>2014-05-18T08:41:01.000Z</time>
      </trkpt>
      <trkpt lat="47.40513" lon="6.7245">
        <ele>410.4</ele>
        <time>2014-05-18T08:41:02.000Z</time>
      </trkpt>
      <trkpt lat="47.40507" lon="6.72449">
        <ele>409.1</ele>
        <time>2014-05-18T08:41:03.000Z</time>
      </trkpt>
      <trkpt lat="47.40505" lon="6.72444">
        <ele>408.7</ele>
        <time>2014-05-18T08:41:04.000Z</time>
      </trkpt>
      <trkpt lat="47.40501" lon="6.72441">
        <ele>409.6</ele>
        <time>2014-05-18T08:41:05.000Z</time>
      </trkpt>
      <trkpt lat="47.40498" lon="6.72439">
        <ele>409.4</ele>
        <time>2014-05-18T08:41:05.999Z</time>
      </trkpt>
      <trkpt lat="47.40498" lon="6.72431">
        <ele>410.6</ele>
        <time>2014-05-18T08:41:07.000Z</time>
      </trkpt>
      <trkpt lat="47.40497" lon="6.72428">
        <ele>412.1</ele>
        <time>2014-05-18T08:41:08.000Z</time>
      </trkpt>
      <trkpt lat="47.40493" lon="6.72426">
        <ele>413.4</ele>
        <time>2014-05-18T08:41:09.000Z</time>
      </trkpt>
      <trkpt lat="47.40489" lon="6.72426">
        <ele>418.7</ele>
        <time>2014-05-18T08:41:10.000Z</time>
      </trkpt>
      <trkpt lat="47.40486" lon="6.72423">
        <ele>419.2</ele>
        <time>2014-05-18T08:41:11.000Z</time>
      </trkpt>
      <trkpt lat="47.40482" lon="6.7242">
        <ele>419.5</ele>
        <time>2014-05-18T08:41:12.000Z</time>
      </trkpt>
      <trkpt lat="47.40479" lon="6.72419">
        <ele>419.9</ele>
        <time>2014-05-18T08:41:13.000Z</time>
      </trkpt>
      <trkpt lat="47.40475" lon="6.72417">
        <ele>420.3</ele>
        <time>2014-05-18T08:41:14.000Z</time>
      </trkpt>
      <trkpt lat="47.40471" lon="6.72415">
        <ele>421</ele>
        <time>2014-05-18T08:41:15.000Z</time>
      </trkpt>
      <trkpt lat="47.40467" lon="6.72414">
        <ele>421.7</ele>
        <time>2014-05-18T08:41:16.000Z</time>
      </trkpt>
      <trkpt lat="47.40464" lon="6.72412">
        <ele>423.5</ele>
        <time>2014-05-18T08:41:17.000Z</time>
      </trkpt>
      <trkpt lat="47.4046" lon="6.72411">
        <ele>425</ele>
        <time>2014-05-18T08:41:18.000Z</time>
      </trkpt>
      <trkpt lat="47.40457" lon="6.72409">
        <ele>425.2</ele>
        <time>2014-05-18T08:41:19.000Z</time>
      </trkpt>
      <trkpt lat="47.40454" lon="6.72408">
        <ele>423.2</ele>
        <time>2014-05-18T08:41:20.000Z</time>
      </trkpt>
      <trkpt lat="47.40451" lon="6.72406">
        <ele>424.1</ele>
        <time>2014-05-18T08:41:21.000Z</time>
      </trkpt>
      <trkpt lat="47.40449" lon="6.72404">
        <ele>424.4</ele>
        <time>2014-05-18T08:41:22.000Z</time>
      </trkpt>
      <trkpt lat="47.40446" lon="6.72402">
        <ele>425.3</ele>
        <time>2014-05-18T08:41:23.000Z</time>
      </trkpt>
      <trkpt lat="47.40442" lon="6.724">
        <ele>424.9</ele>
        <time>2014-05-18T08:41:24.000Z</time>
      </trkpt>
      <trkpt lat="47.40439" lon="6.72399">
        <ele>428.3</ele>
        <time>2014-05-18T08:41:25.000Z</time>
      </trkpt>
      <trkpt lat="47.40435" lon="6.72399">
        <ele>429.1</ele>
        <time>2014-05-18T08:41:26.000Z</time>
      </trkpt>
      <trkpt lat="47.40432" lon="6.72399">
        <ele>428.1</ele>
        <time>2014-05-18T08:41:27.000Z</time>
      </trkpt>
      <trkpt lat="47.40429" lon="6.72398">
        <ele>428.1</ele>
        <time>2014-05-18T08:41:28.000Z</time>
      </trkpt>
      <trkpt lat="47.40425" lon="6.72397">
        <ele>427.8</ele>
        <time>2014-05-18T08:41:29.000Z</time>
      </trkpt>
      <trkpt lat="47.40422" lon="6.72396">
        <ele>428.3</ele>
        <time>2014-05-18T08:41:30.000Z</time>
      </trkpt>
      <trkpt lat="47.40419" lon="6.72395">
        <ele>429.8</ele>
        <time>2014-05-18T08:41:31.000Z</time>
      </trkpt>
      <trkpt lat="47.40416" lon="6.72395">
        <ele>430.1</ele>
        <time>2014-05-18T08:41:32.000Z</time>
      </trkpt>
      <trkpt lat="47.40412" lon="6.72395">
        <ele>429.3</ele>
        <time>2014-05-18T08:41:33.000Z</time>
      </trkpt>
      <trkpt lat="47.40409" lon="6.72394">
        <ele>430.9</ele>
        <time>2014-05-18T08:41:34.000Z</time>
      </trkpt>
      <trkpt lat="47.40405" lon="6.72393">
        <ele>432.2</ele>
        <time>2014-05-18T08:41:35.000Z</time>
      </trkpt>
      <trkpt lat="47.40402" lon="6.72392">
        <ele>432.7</ele>
        <time>2014-05-18T08:41:36.000Z</time>
      </trkpt>
      <trkpt lat="47.40398" lon="6.72391">
        <ele>433.4</ele>
        <time>2014-05-18T08:41:37.000Z</time>
      </trkpt>
      <trkpt lat="47.40395" lon="6.7239">
        <ele>433.6</ele>
        <time>2014-05-18T08:41:38.000Z</time>
      </trkpt>
      <trkpt lat="47.40391" lon="6.7239">
        <ele>434.6</ele>
        <time>2014-05-18T08:41:39.000Z</time>
      </trkpt>
      <trkpt lat="47.40388" lon="6.72388">
        <ele>434.9</ele>
        <time>2014-05-18T08:41:40.000Z</time>
      </trkpt>
      <trkpt lat="47.40386" lon="6.72387">
        <ele>435.8</ele>
        <time>2014-05-18T08:41:41.000Z</time>
      </trkpt>
      <trkpt lat="47.40383" lon="6.72385">
        <ele>439</ele>
        <time>2014-05-18T08:41:42.000Z</time>
      </trkpt>
      <trkpt lat="47.4038" lon="6.72383">
        <ele>440.8</ele>
        <time>2014-05-18T08:41:43.000Z</time>
      </trkpt>
      <trkpt lat="47.40376" lon="6.72382">
        <ele>439.5</ele>
        <time>2014-05-18T08:41:44.000Z</time>
      </trkpt>
      <trkpt lat="47.40372" lon="6.7238">
        <ele>439.8</ele>
        <time>2014-05-18T08:41:45.000Z</time>
      </trkpt>
      <trkpt lat="47.40367" lon="6.72378">
        <ele>440.2</ele>
        <time>2014-05-18T08:41:46.000Z</time>
      </trkpt>
      <trkpt lat="47.40356" lon="6.72373">
        <ele>439.9</ele>
        <time>2014-05-18T08:41:49.000Z</time>
      </trkpt>
      <trkpt lat="47.40353" lon="6.72371">
        <ele>440.8</ele>
        <time>2014-05-18T08:41:50.000Z</time>
      </trkpt>
      <trkpt lat="47.4035" lon="6.72367">
        <ele>441.4</ele>
        <time>2014-05-18T08:41:51.000Z</time>
      </trkpt>
      <trkpt lat="47.40346" lon="6.72364">
        <ele>443.1</ele>
        <time>2014-05-18T08:41:52.000Z</time>
      </trkpt>
      <trkpt lat="47.40343" lon="6.72361">
        <ele>443.8</ele>
        <time>2014-05-18T08:41:53.000Z</time>
      </trkpt>
      <trkpt lat="47.4034" lon="6.72359">
        <ele>444.4</ele>
        <time>2014-05-18T08:41:54.000Z</time>
      </trkpt>
      <trkpt lat="47.40334" lon="6.72356">
        <ele>442.4</ele>
        <time>2014-05-18T08:41:55.000Z</time>
      </trkpt>
      <trkpt lat="47.4033" lon="6.72353">
        <ele>442.7</ele>
        <time>2014-05-18T08:41:56.000Z</time>
      </trkpt>
      <trkpt lat="47.40327" lon="6.72352">
        <ele>441.9</ele>
        <time>2014-05-18T08:41:57.000Z</time>
      </trkpt>
      <trkpt lat="47.40323" lon="6.72349">
        <ele>441.8</ele>
        <time>2014-05-18T08:41:58.000Z</time>
      </trkpt>
      <trkpt lat="47.40319" lon="6.72348">
        <ele>440.3</ele>
        <time>2014-05-18T08:41:59.000Z</time>
      </trkpt>
      <trkpt lat="47.40315" lon="6.72345">
        <ele>438.3</ele>
        <time>2014-05-18T08:42:00.000Z</time>
      </trkpt>
      <trkpt lat="47.40311" lon="6.72343">
        <ele>434.7</ele>
        <time>2014-05-18T08:42:01.000Z</time>
      </trkpt>
      <trkpt lat="47.40307" lon="6.7234">
        <ele>433.3</ele>
        <time>2014-05-18T08:42:02.000Z</time>
      </trkpt>
      <trkpt lat="47.40304" lon="6.72336">
        <ele>434</ele>
        <time>2014-05-18T08:42:03.000Z</time>
      </trkpt>
      <trkpt lat="47.40301" lon="6.72334">
        <ele>433.6</ele>
        <time>2014-05-18T08:42:04.000Z</time>
      </trkpt>
      <trkpt lat="47.40299" lon="6.7233">
        <ele>434</ele>
        <time>2014-05-18T08:42:06.000Z</time>
      </trkpt>
      <trkpt lat="47.40297" lon="6.72325">
        <ele>434.2</ele>
        <time>2014-05-18T08:42:07.000Z</time>
      </trkpt>
      <trkpt lat="47.4029" lon="6.72325">
        <ele>433.4</ele>
        <time>2014-05-18T08:42:08.000Z</time>
      </trkpt>
      <trkpt lat="47.40286" lon="6.72322">
        <ele>434.7</ele>
        <time>2014-05-18T08:42:10.000Z</time>
      </trkpt>
      <trkpt lat="47.40283" lon="6.7232">
        <ele>432.5</ele>
        <time>2014-05-18T08:42:11.000Z</time>
      </trkpt>
      <trkpt lat="47.4028" lon="6.72318">
        <ele>431.2</ele>
        <time>2014-05-18T08:42:12.000Z</time>
      </trkpt>
      <trkpt lat="47.40277" lon="6.72317">
        <ele>430.8</ele>
        <time>2014-05-18T08:42:13.000Z</time>
      </trkpt>
      <trkpt lat="47.40274" lon="6.72315">
        <ele>432.6</ele>
        <time>2014-05-18T08:42:14.000Z</time>
      </trkpt>
      <trkpt lat="47.40271" lon="6.72314">
        <ele>437.2</ele>
        <time>2014-05-18T08:42:15.000Z</time>
      </trkpt>
      <trkpt lat="47.40268" lon="6.72314">
        <ele>438.6</ele>
        <time>2014-05-18T08:42:16.000Z</time>
      </trkpt>
      <trkpt lat="47.40266" lon="6.72314">
        <ele>440</ele>
        <time>2014-05-18T08:42:17.000Z</time>
      </trkpt>
      <trkpt lat="47.40263" lon="6.72313">
        <ele>440.4</ele>
        <time>2014-05-18T08:42:18.000Z</time>
      </trkpt>
      <trkpt lat="47.4026" lon="6.72311">
        <ele>441.4</ele>
        <time>2014-05-18T08:42:19.000Z</time>
      </trkpt>
      <trkpt lat="47.40258" lon="6.72309">
        <ele>441.1</ele>
        <time>2014-05-18T08:42:20.000Z</time>
      </trkpt>
      <trkpt lat="47.40255" lon="6.72307">
        <ele>441</ele>
        <time>2014-05-18T08:42:21.000Z</time>
      </trkpt>
      <trkpt lat="47.40252" lon="6.72306">
        <ele>439.6</ele>
        <time>2014-05-18T08:42:22.000Z</time>
      </trkpt>
      <trkpt lat="47.40249" lon="6.72304">
        <ele>438.9</ele>
        <time>2014-05-18T08:42:23.000Z</time>
      </trkpt>
      <trkpt lat="47.40246" lon="6.72303">
        <ele>438.6</ele>
        <time>2014-05-18T08:42:24.000Z</time>
      </trkpt>
      <trkpt lat="47.40243" lon="6.72301">
        <ele>439.6</ele>
        <time>2014-05-18T08:42:25.000Z</time>
      </trkpt>
      <trkpt lat="47.4024" lon="6.723">
        <ele>439.2</ele>
        <time>2014-05-18T08:42:26.000Z</time>
      </trkpt>
      <trkpt lat="47.40239" lon="6.72299">
        <ele>440.1</ele>
        <time>2014-05-18T08:42:27.000Z</time>
      </trkpt>
      <trkpt lat="47.40236" lon="6.72298">
        <ele>438.4</ele>
        <time>2014-05-18T08:42:29.000Z</time>
      </trkpt>
      <trkpt lat="47.40234" lon="6.72298">
        <ele>435.2</ele>
        <time>2014-05-18T08:42:30.000Z</time>
      </trkpt>
      <trkpt lat="47.40233" lon="6.72297">
        <ele>431.9</ele>
        <time>2014-05-18T08:42:30.999Z</time>
      </trkpt>
      <trkpt lat="47.40229" lon="6.72298">
        <ele>432.3</ele>
        <time>2014-05-18T08:42:32.000Z</time>
      </trkpt>
      <trkpt lat="47.40226" lon="6.72298">
        <ele>431.7</ele>
        <time>2014-05-18T08:42:33.000Z</time>
      </trkpt>
      <trkpt lat="47.40224" lon="6.72297">
        <ele>431.9</ele>
        <time>2014-05-18T08:42:34.000Z</time>
      </trkpt>
      <trkpt lat="47.4022" lon="6.72294">
        <ele>433.3</ele>
        <time>2014-05-18T08:42:36.000Z</time>
      </trkpt>
      <trkpt lat="47.40218" lon="6.72293">
        <ele>433.5</ele>
        <time>2014-05-18T08:42:37.000Z</time>
      </trkpt>
      <trkpt lat="47.40215" lon="6.72288">
        <ele>436.2</ele>
        <time>2014-05-18T08:42:40.000Z</time>
      </trkpt>
      <trkpt lat="47.40214" lon="6.72286">
        <ele>436.8</ele>
        <time>2014-05-18T08:42:41.000Z</time>
      </trkpt>
      <trkpt lat="47.40211" lon="6.72282">
        <ele>436.5</ele>
        <time>2014-05-18T08:42:43.000Z</time>
      </trkpt>
      <trkpt lat="47.40209" lon="6.72282">
        <ele>440.8</ele>
        <time>2014-05-18T08:42:44.000Z</time>
      </trkpt>
      <trkpt lat="47.40206" lon="6.72281">
        <ele>443.9</ele>
        <time>2014-05-18T08:42:46.000Z</time>
      </trkpt>
      <trkpt lat="47.4019" lon="6.72278">
        <ele>447.4</ele>
        <time>2014-05-18T08:42:54.000Z</time>
      </trkpt>
      <trkpt lat="47.40186" lon="6.72279">
        <ele>447.3</ele>
        <time>2014-05-18T08:42:56.000Z</time>
      </trkpt>
      <trkpt lat="47.40184" lon="6.72278">
        <ele>450.1</ele>
        <time>2014-05-18T08:42:57.000Z</time>
      </trkpt>
      <trkpt lat="47.4018" lon="6.72277">
        <ele>452.9</ele>
        <time>2014-05-18T08:42:59.000Z</time>
      </trkpt>
      <trkpt lat="47.40178" lon="6.72277">
        <ele>451.4</ele>
        <time>2014-05-18T08:42:59.999Z</time>
      </trkpt>
      <trkpt lat="47.40176" lon="6.72277">
        <ele>452.9</ele>
        <time>2014-05-18T08:43:01.000Z</time>
      </trkpt>
      <trkpt lat="47.40174" lon="6.72277">
        <ele>454.4</ele>
        <time>2014-05-18T08:43:02.000Z</time>
      </trkpt>
      <trkpt lat="47.40169" lon="6.72277">
        <ele>456</ele>
        <time>2014-05-18T08:43:04.000Z</time>
      </trkpt>
      <trkpt lat="47.40167" lon="6.72277">
        <ele>454.3</ele>
        <time>2014-05-18T08:43:05.000Z</time>
      </trkpt>
      <trkpt lat="47.40163" lon="6.72278">
        <ele>454.7</ele>
        <time>2014-05-18T08:43:07.000Z</time>
      </trkpt>
      <trkpt lat="47.40161" lon="6.72278">
        <ele>454.7</ele>
        <time>2014-05-18T08:43:08.000Z</time>
      </trkpt>
      <trkpt lat="47.40157" lon="6.72278">
        <ele>450.7</ele>
        <time>2014-05-18T08:43:10.000Z</time>
      </trkpt>
      <trkpt lat="47.40154" lon="6.72278">
        <ele>451</ele>
        <time>2014-05-18T08:43:11.000Z</time>
      </trkpt>
      <trkpt lat="47.40152" lon="6.72278">
        <ele>451.5</ele>
        <time>2014-05-18T08:43:12.000Z</time>
      </trkpt>
      <trkpt lat="47.40149" lon="6.72277">
        <ele>452.3</ele>
        <time>2014-05-18T08:43:13.000Z</time>
      </trkpt>
      <trkpt lat="47.40147" lon="6.72277">
        <ele>453.4</ele>
        <time>2014-05-18T08:43:14.000Z</time>
      </trkpt>
      <trkpt lat="47.40144" lon="6.72276">
        <ele>453.6</ele>
        <time>2014-05-18T08:43:15.000Z</time>
      </trkpt>
      <trkpt lat="47.40141" lon="6.72276">
        <ele>456.4</ele>
        <time>2014-05-18T08:43:17.000Z</time>
      </trkpt>
      <trkpt lat="47.40139" lon="6.72277">
        <ele>455.7</ele>
        <time>2014-05-18T08:43:18.000Z</time>
      </trkpt>
      <trkpt lat="47.40135" lon="6.72279">
        <ele>456.1</ele>
        <time>2014-05-18T08:43:20.000Z</time>
      </trkpt>
      <trkpt lat="47.40134" lon="6.7228">
        <ele>458.1</ele>
        <time>2014-05-18T08:43:21.000Z</time>
      </trkpt>
      <trkpt lat="47.4013" lon="6.7228">
        <ele>456.2</ele>
        <time>2014-05-18T08:43:23.000Z</time>
      </trkpt>
      <trkpt lat="47.40127" lon="6.72278">
        <ele>455.3</ele>
        <time>2014-05-18T08:43:24.000Z</time>
      </trkpt>
      <trkpt lat="47.40126" lon="6.72278">
        <ele>454.8</ele>
        <time>2014-05-18T08:43:24.999Z</time>
      </trkpt>
      <trkpt lat="47.40122" lon="6.72275">
        <ele>454.7</ele>
        <time>2014-05-18T08:43:26.000Z</time>
      </trkpt>
      <trkpt lat="47.4012" lon="6.72273">
        <ele>455.6</ele>
        <time>2014-05-18T08:43:27.000Z</time>
      </trkpt>
      <trkpt lat="47.40117" lon="6.72272">
        <ele>452.1</ele>
        <time>2014-05-18T08:43:28.000Z</time>
      </trkpt>
      <trkpt lat="47.40115" lon="6.72272">
        <ele>450</ele>
        <time>2014-05-18T08:43:29.000Z</time>
      </trkpt>
      <trkpt lat="47.4011" lon="6.7227">
        <ele>450.3</ele>
        <time>2014-05-18T08:43:30.000Z</time>
      </trkpt>
      <trkpt lat="47.40108" lon="6.7227">
        <ele>451.4</ele>
        <time>2014-05-18T08:43:31.000Z</time>
      </trkpt>
      <trkpt lat="47.40105" lon="6.72268">
        <ele>453.7</ele>
        <time>2014-05-18T08:43:32.000Z</time>
      </trkpt>
      <trkpt lat="47.40103" lon="6.72266">
        <ele>455.8</ele>
        <time>2014-05-18T08:43:33.000Z</time>
      </trkpt>
      <trkpt lat="47.40101" lon="6.72264">
        <ele>457.7</ele>
        <time>2014-05-18T08:43:34.000Z</time>
      </trkpt>
      <trkpt lat="47.40098" lon="6.72261">
        <ele>458.9</ele>
        <time>2014-05-18T08:43:36.000Z</time>
      </trkpt>
      <trkpt lat="47.40096" lon="6.72259">
        <ele>458.1</ele>
        <time>2014-05-18T08:43:37.000Z</time>
      </trkpt>
      <trkpt lat="47.40093" lon="6.72258">
        <ele>458.5</ele>
        <time>2014-05-18T08:43:38.000Z</time>
      </trkpt>
      <trkpt lat="47.40091" lon="6.72256">
        <ele>459.9</ele>
        <time>2014-05-18T08:43:39.000Z</time>
      </trkpt>
      <trkpt lat="47.40089" lon="6.72255">
        <ele>459.5</ele>
        <time>2014-05-18T08:43:40.000Z</time>
      </trkpt>
      <trkpt lat="47.40087" lon="6.72253">
        <ele>459.3</ele>
        <time>2014-05-18T08:43:41.000Z</time>
      </trkpt>
      <trkpt lat="47.40083" lon="6.7225">
        <ele>459.3</ele>
        <time>2014-05-18T08:43:43.000Z</time>
      </trkpt>
      <trkpt lat="47.40081" lon="6.72248">
        <ele>459.3</ele>
        <time>2014-05-18T08:43:44.000Z</time>
      </trkpt>
      <trkpt lat="47.40079" lon="6.72245">
        <ele>459.5</ele>
        <time>2014-05-18T08:43:45.000Z</time>
      </trkpt>
      <trkpt lat="47.40078" lon="6.72243">
        <ele>459.8</ele>
        <time>2014-05-18T08:43:46.000Z</time>
      </trkpt>
      <trkpt lat="47.40065" lon="6.72236">
        <ele>460.8</ele>
        <time>2014-05-18T08:43:54.000Z</time>
      </trkpt>
      <trkpt lat="47.40063" lon="6.72232">
        <ele>462.7</ele>
        <time>2014-05-18T08:43:56.000Z</time>
      </trkpt>
      <trkpt lat="47.40062" lon="6.7223">
        <ele>462.6</ele>
        <time>2014-05-18T08:43:57.000Z</time>
      </trkpt>
      <trkpt lat="47.4006" lon="6.72226">
        <ele>462</ele>
        <time>2014-05-18T08:44:00.001Z</time>
      </trkpt>
      <trkpt lat="47.40058" lon="6.72224">
        <ele>462.4</ele>
        <time>2014-05-18T08:44:01.000Z</time>
      </trkpt>
      <trkpt lat="47.40054" lon="6.7222">
        <ele>461</ele>
        <time>2014-05-18T08:44:03.000Z</time>
      </trkpt>
      <trkpt lat="47.40053" lon="6.72218">
        <ele>459.1</ele>
        <time>2014-05-18T08:44:03.999Z</time>
      </trkpt>
      <trkpt lat="47.4005" lon="6.72215">
        <ele>458.7</ele>
        <time>2014-05-18T08:44:06.000Z</time>
      </trkpt>
      <trkpt lat="47.40049" lon="6.72213">
        <ele>459.1</ele>
        <time>2014-05-18T08:44:07.000Z</time>
      </trkpt>
      <trkpt lat="47.40046" lon="6.72209">
        <ele>458.2</ele>
        <time>2014-05-18T08:44:09.000Z</time>
      </trkpt>
      <trkpt lat="47.40045" lon="6.72207">
        <ele>458.2</ele>
        <time>2014-05-18T08:44:10.000Z</time>
      </trkpt>
      <trkpt lat="47.40042" lon="6.72204">
        <ele>456.8</ele>
        <time>2014-05-18T08:44:12.000Z</time>
      </trkpt>
      <trkpt lat="47.40041" lon="6.72203">
        <ele>456</ele>
        <time>2014-05-18T08:44:13.000Z</time>
      </trkpt>
      <trkpt lat="47.4004" lon="6.72198">
        <ele>456.5</ele>
        <time>2014-05-18T08:44:15.000Z</time>
      </trkpt>
      <trkpt lat="47.40039" lon="6.72196">
        <ele>459.3</ele>
        <time>2014-05-18T08:44:16.000Z</time>
      </trkpt>
      <trkpt lat="47.40036" lon="6.72192">
        <ele>464.4</ele>
        <time>2014-05-18T08:44:19.000Z</time>
      </trkpt>
      <trkpt lat="47.40035" lon="6.72191">
        <ele>465.2</ele>
        <time>2014-05-18T08:44:20.000Z</time>
      </trkpt>
      <trkpt lat="47.40032" lon="6.72188">
        <ele>469</ele>
        <time>2014-05-18T08:44:22.000Z</time>
      </trkpt>
      <trkpt lat="47.40031" lon="6.72187">
        <ele>469.9</ele>
        <time>2014-05-18T08:44:23.000Z</time>
      </trkpt>
      <trkpt lat="47.40028" lon="6.72184">
        <ele>471.4</ele>
        <time>2014-05-18T08:44:25.000Z</time>
      </trkpt>
      <trkpt lat="47.40026" lon="6.72183">
        <ele>472.1</ele>
        <time>2014-05-18T08:44:26.000Z</time>
      </trkpt>
      <trkpt lat="47.40022" lon="6.72181">
        <ele>471.8</ele>
        <time>2014-05-18T08:44:28.000Z</time>
      </trkpt>
      <trkpt lat="47.4002" lon="6.72181">
        <ele>471.9</ele>
        <time>2014-05-18T08:44:29.000Z</time>
      </trkpt>
      <trkpt lat="47.40017" lon="6.7218">
        <ele>472.6</ele>
        <time>2014-05-18T08:44:30.000Z</time>
      </trkpt>
      <trkpt lat="47.40014" lon="6.72179">
        <ele>473.4</ele>
        <time>2014-05-18T08:44:31.000Z</time>
      </trkpt>
      <trkpt lat="47.40012" lon="6.72179">
        <ele>471.7</ele>
        <time>2014-05-18T08:44:32.000Z</time>
      </trkpt>
      <trkpt lat="47.4001" lon="6.72178">
        <ele>470.3</ele>
        <time>2014-05-18T08:44:33.000Z</time>
      </trkpt>
      <trkpt lat="47.40006" lon="6.72177">
        <ele>469</ele>
        <time>2014-05-18T08:44:35.000Z</time>
      </trkpt>
      <trkpt lat="47.40005" lon="6.72176">
        <ele>469.2</ele>
        <time>2014-05-18T08:44:35.999Z</time>
      </trkpt>
      <trkpt lat="47.40001" lon="6.72174">
        <ele>466.8</ele>
        <time>2014-05-18T08:44:38.000Z</time>
      </trkpt>
      <trkpt lat="47.39999" lon="6.72173">
        <ele>466.3</ele>
        <time>2014-05-18T08:44:39.000Z</time>
      </trkpt>
      <trkpt lat="47.39996" lon="6.72171">
        <ele>463.3</ele>
        <time>2014-05-18T08:44:41.000Z</time>
      </trkpt>
      <trkpt lat="47.39995" lon="6.72169">
        <ele>462.5</ele>
        <time>2014-05-18T08:44:42.000Z</time>
      </trkpt>
      <trkpt lat="47.39992" lon="6.72166">
        <ele>460.7</ele>
        <time>2014-05-18T08:44:43.999Z</time>
      </trkpt>
      <trkpt lat="47.39991" lon="6.72164">
        <ele>465.5</ele>
        <time>2014-05-18T08:44:45.000Z</time>
      </trkpt>
      <trkpt lat="47.3999" lon="6.72162">
        <ele>465.9</ele>
        <time>2014-05-18T08:44:46.000Z</time>
      </trkpt>
      <trkpt lat="47.39982" lon="6.72141">
        <ele>461</ele>
        <time>2014-05-18T08:44:55.000Z</time>
      </trkpt>
      <trkpt lat="47.39979" lon="6.72137">
        <ele>463.3</ele>
        <time>2014-05-18T08:44:58.000Z</time>
      </trkpt>
      <trkpt lat="47.39977" lon="6.72136">
        <ele>465.9</ele>
        <time>2014-05-18T08:44:59.000Z</time>
      </trkpt>
      <trkpt lat="47.39974" lon="6.72133">
        <ele>469</ele>
        <time>2014-05-18T08:45:01.000Z</time>
      </trkpt>
      <trkpt lat="47.39973" lon="6.72132">
        <ele>469.6</ele>
        <time>2014-05-18T08:45:02.000Z</time>
      </trkpt>
      <trkpt lat="47.3997" lon="6.72129">
        <ele>470.6</ele>
        <time>2014-05-18T08:45:04.000Z</time>
      </trkpt>
      <trkpt lat="47.39969" lon="6.72127">
        <ele>470.3</ele>
        <time>2014-05-18T08:45:05.000Z</time>
      </trkpt>
      <trkpt lat="47.39966" lon="6.72123">
        <ele>473.7</ele>
        <time>2014-05-18T08:45:07.000Z</time>
      </trkpt>
      <trkpt lat="47.39965" lon="6.72121">
        <ele>472.2</ele>
        <time>2014-05-18T08:45:08.000Z</time>
      </trkpt>
      <trkpt lat="47.39963" lon="6.72116">
        <ele>471</ele>
        <time>2014-05-18T08:45:10.000Z</time>
      </trkpt>
      <trkpt lat="47.39963" lon="6.72114">
        <ele>470.2</ele>
        <time>2014-05-18T08:45:11.000Z</time>
      </trkpt>
      <trkpt lat="47.39962" lon="6.72109">
        <ele>469.8</ele>
        <time>2014-05-18T08:45:13.000Z</time>
      </trkpt>
      <trkpt lat="47.39961" lon="6.72107">
        <ele>469.6</ele>
        <time>2014-05-18T08:45:14.000Z</time>
      </trkpt>
      <trkpt lat="47.3996" lon="6.72102">
        <ele>468.6</ele>
        <time>2014-05-18T08:45:16.000Z</time>
      </trkpt>
      <trkpt lat="47.39959" lon="6.721">
        <ele>469.7</ele>
        <time>2014-05-18T08:45:17.000Z</time>
      </trkpt>
      <trkpt lat="47.39957" lon="6.72096">
        <ele>471.4</ele>
        <time>2014-05-18T08:45:19.000Z</time>
      </trkpt>
      <trkpt lat="47.39955" lon="6.72095">
        <ele>471.4</ele>
        <time>2014-05-18T08:45:20.000Z</time>
      </trkpt>
      <trkpt lat="47.39953" lon="6.72091">
        <ele>468.6</ele>
        <time>2014-05-18T08:45:22.000Z</time>
      </trkpt>
      <trkpt lat="47.39952" lon="6.72089">
        <ele>468.6</ele>
        <time>2014-05-18T08:45:23.000Z</time>
      </trkpt>
      <trkpt lat="47.39951" lon="6.72086">
        <ele>466.4</ele>
        <time>2014-05-18T08:45:24.000Z</time>
      </trkpt>
      <trkpt lat="47.3995" lon="6.72083">
        <ele>467</ele>
        <time>2014-05-18T08:45:25.000Z</time>
      </trkpt>
      <trkpt lat="47.3995" lon="6.72079">
        <ele>467.2</ele>
        <time>2014-05-18T08:45:26.000Z</time>
      </trkpt>
      <trkpt lat="47.39951" lon="6.72075">
        <ele>467.8</ele>
        <time>2014-05-18T08:45:27.000Z</time>
      </trkpt>
      <trkpt lat="47.39952" lon="6.72071">
        <ele>468.6</ele>
        <time>2014-05-18T08:45:28.000Z</time>
      </trkpt>
      <trkpt lat="47.39954" lon="6.72068">
        <ele>468.9</ele>
        <time>2014-05-18T08:45:29.000Z</time>
      </trkpt>
      <trkpt lat="47.39957" lon="6.72066">
        <ele>469.5</ele>
        <time>2014-05-18T08:45:30.000Z</time>
      </trkpt>
      <trkpt lat="47.3996" lon="6.72065">
        <ele>470.8</ele>
        <time>2014-05-18T08:45:31.000Z</time>
      </trkpt>
      <trkpt lat="47.39963" lon="6.72064">
        <ele>472.5</ele>
        <time>2014-05-18T08:45:32.000Z</time>
      </trkpt>
      <trkpt lat="47.39967" lon="6.72065">
        <ele>472.5</ele>
        <time>2014-05-18T08:45:33.000Z</time>
      </trkpt>
      <trkpt lat="47.3997" lon="6.72066">
        <ele>473.6</ele>
        <time>2014-05-18T08:45:34.000Z</time>
      </trkpt>
      <trkpt lat="47.39972" lon="6.72068">
        <ele>475.2</ele>
        <time>2014-05-18T08:45:35.000Z</time>
      </trkpt>
      <trkpt lat="47.39975" lon="6.72069">
        <ele>474.6</ele>
        <time>2014-05-18T08:45:36.000Z</time>
      </trkpt>
      <trkpt lat="47.39977" lon="6.72071">
        <ele>476.1</ele>
        <time>2014-05-18T08:45:37.000Z</time>
      </trkpt>
      <trkpt lat="47.39979" lon="6.72072">
        <ele>476.1</ele>
        <time>2014-05-18T08:45:38.000Z</time>
      </trkpt>
      <trkpt lat="47.39981" lon="6.72073">
        <ele>477.1</ele>
        <time>2014-05-18T08:45:39.000Z</time>
      </trkpt>
      <trkpt lat="47.39984" lon="6.72075">
        <ele>478.7</ele>
        <time>2014-05-18T08:45:41.000Z</time>
      </trkpt>
      <trkpt lat="47.39985" lon="6.72076">
        <ele>479.9</ele>
        <time>2014-05-18T08:45:42.000Z</time>
      </trkpt>
      <trkpt lat="47.39989" lon="6.72078">
        <ele>480.8</ele>
        <time>2014-05-18T08:45:45.000Z</time>
      </trkpt>
      <trkpt lat="47.39991" lon="6.72079">
        <ele>482.1</ele>
        <time>2014-05-18T08:45:46.000Z</time>
      </trkpt>
      <trkpt lat="47.40006" lon="6.72085">
        <ele>483.2</ele>
        <time>2014-05-18T08:45:54.000Z</time>
      </trkpt>
      <trkpt lat="47.40008" lon="6.72086">
        <ele>483.7</ele>
        <time>2014-05-18T08:45:55.000Z</time>
      </trkpt>
      <trkpt lat="47.4001" lon="6.72087">
        <ele>485.3</ele>
        <time>2014-05-18T08:45:56.000Z</time>
      </trkpt>
      <trkpt lat="47.40014" lon="6.72089">
        <ele>488.6</ele>
        <time>2014-05-18T08:45:59.000Z</time>
      </trkpt>
      <trkpt lat="47.40015" lon="6.72089">
        <ele>491.9</ele>
        <time>2014-05-18T08:46:00.000Z</time>
      </trkpt>
      <trkpt lat="47.40017" lon="6.72091">
        <ele>496.7</ele>
        <time>2014-05-18T08:46:02.000Z</time>
      </trkpt>
      <trkpt lat="47.40018" lon="6.72093">
        <ele>498.5</ele>
        <time>2014-05-18T08:46:03.000Z</time>
      </trkpt>
      <trkpt lat="47.40022" lon="6.72097">
        <ele>498.6</ele>
        <time>2014-05-18T08:46:05.000Z</time>
      </trkpt>
      <trkpt lat="47.40023" lon="6.72098">
        <ele>498.1</ele>
        <time>2014-05-18T08:46:06.000Z</time>
      </trkpt>
      <trkpt lat="47.40027" lon="6.72101">
        <ele>496.6</ele>
        <time>2014-05-18T08:46:08.000Z</time>
      </trkpt>
      <trkpt lat="47.40029" lon="6.72101">
        <ele>496.4</ele>
        <time>2014-05-18T08:46:09.000Z</time>
      </trkpt>
      <trkpt lat="47.40032" lon="6.72101">
        <ele>486.4</ele>
        <time>2014-05-18T08:46:11.000Z</time>
      </trkpt>
      <trkpt lat="47.40034" lon="6.72101">
        <ele>482.8</ele>
        <time>2014-05-18T08:46:12.000Z</time>
      </trkpt>
      <trkpt lat="47.40037" lon="6.72103">
        <ele>485.5</ele>
        <time>2014-05-18T08:46:14.000Z</time>
      </trkpt>
      <trkpt lat="47.40039" lon="6.72103">
        <ele>486.6</ele>
        <time>2014-05-18T08:46:15.000Z</time>
      </trkpt>
      <trkpt lat="47.40042" lon="6.72105">
        <ele>486.5</ele>
        <time>2014-05-18T08:46:17.000Z</time>
      </trkpt>
      <trkpt lat="47.40044" lon="6.72106">
        <ele>485.4</ele>
        <time>2014-05-18T08:46:18.000Z</time>
      </trkpt>
      <trkpt lat="47.40047" lon="6.72107">
        <ele>481.4</ele>
        <time>2014-05-18T08:46:20.000Z</time>
      </trkpt>
      <trkpt lat="47.40049" lon="6.72108">
        <ele>480.1</ele>
        <time>2014-05-18T08:46:21.000Z</time>
      </trkpt>
      <trkpt lat="47.40053" lon="6.7211">
        <ele>484.2</ele>
        <time>2014-05-18T08:46:24.000Z</time>
      </trkpt>
      <trkpt lat="47.40054" lon="6.72111">
        <ele>485.3</ele>
        <time>2014-05-18T08:46:25.000Z</time>
      </trkpt>
      <trkpt lat="47.40057" lon="6.72114">
        <ele>485.6</ele>
        <time>2014-05-18T08:46:27.000Z</time>
      </trkpt>
      <trkpt lat="47.40058" lon="6.72115">
        <ele>485.7</ele>
        <time>2014-05-18T08:46:28.000Z</time>
      </trkpt>
      <trkpt lat="47.40062" lon="6.72118">
        <ele>485.8</ele>
        <time>2014-05-18T08:46:31.000Z</time>
      </trkpt>
      <trkpt lat="47.40063" lon="6.72118">
        <ele>486.4</ele>
        <time>2014-05-18T08:46:32.000Z</time>
      </trkpt>
      <trkpt lat="47.40065" lon="6.72122">
        <ele>485.9</ele>
        <time>2014-05-18T08:46:36.000Z</time>
      </trkpt>
      <trkpt lat="47.40066" lon="6.72123">
        <ele>486.2</ele>
        <time>2014-05-18T08:46:37.000Z</time>
      </trkpt>
      <trkpt lat="47.4007" lon="6.72125">
        <ele>489.6</ele>
        <time>2014-05-18T08:46:40.000Z</time>
      </trkpt>
      <trkpt lat="47.40072" lon="6.72126">
        <ele>489.7</ele>
        <time>2014-05-18T08:46:41.000Z</time>
      </trkpt>
      <trkpt lat="47.40075" lon="6.72128">
        <ele>490.5</ele>
        <time>2014-05-18T08:46:43.000Z</time>
      </trkpt>
      <trkpt lat="47.40076" lon="6.7213">
        <ele>490.8</ele>
        <time>2014-05-18T08:46:44.000Z</time>
      </trkpt>
      <trkpt lat="47.40079" lon="6.72132">
        <ele>490</ele>
        <time>2014-05-18T08:46:46.000Z</time>
      </trkpt>
      <trkpt lat="47.40084" lon="6.72135">
        <ele>488.5</ele>
        <time>2014-05-18T08:46:49.000Z</time>
      </trkpt>
      <trkpt lat="47.40086" lon="6.72136">
        <ele>488.9</ele>
        <time>2014-05-18T08:46:50.000Z</time>
      </trkpt>
      <trkpt lat="47.40089" lon="6.72136">
        <ele>490.2</ele>
        <time>2014-05-18T08:46:51.000Z</time>
      </trkpt>
      <trkpt lat="47.40093" lon="6.72136">
        <ele>491</ele>
        <time>2014-05-18T08:46:53.000Z</time>
      </trkpt>
      <trkpt lat="47.40094" lon="6.72135">
        <ele>489.9</ele>
        <time>2014-05-18T08:46:54.000Z</time>
      </trkpt>
      <trkpt lat="47.40098" lon="6.72137">
        <ele>492.8</ele>
        <time>2014-05-18T08:46:56.000Z</time>
      </trkpt>
      <trkpt lat="47.401" lon="6.72137">
        <ele>493.3</ele>
        <time>2014-05-18T08:46:57.000Z</time>
      </trkpt>
      <trkpt lat="47.40104" lon="6.72138">
        <ele>494.1</ele>
        <time>2014-05-18T08:46:59.000Z</time>
      </trkpt>
      <trkpt lat="47.40106" lon="6.72137">
        <ele>495.5</ele>
        <time>2014-05-18T08:47:00.000Z</time>
      </trkpt>
      <trkpt lat="47.40108" lon="6.72136">
        <ele>495.5</ele>
        <time>2014-05-18T08:47:01.000Z</time>
      </trkpt>
      <trkpt lat="47.40111" lon="6.72134">
        <ele>495.4</ele>
        <time>2014-05-18T08:47:02.000Z</time>
      </trkpt>
      <trkpt lat="47.40112" lon="6.72132">
        <ele>495</ele>
        <time>2014-05-18T08:47:03.000Z</time>
      </trkpt>
      <trkpt lat="47.40114" lon="6.7213">
        <ele>494.8</ele>
        <time>2014-05-18T08:47:04.000Z</time>
      </trkpt>
      <trkpt lat="47.40116" lon="6.72125">
        <ele>492.4</ele>
        <time>2014-05-18T08:47:06.000Z</time>
      </trkpt>
      <trkpt lat="47.40116" lon="6.72122">
        <ele>491.9</ele>
        <time>2014-05-18T08:47:07.000Z</time>
      </trkpt>
      <trkpt lat="47.40116" lon="6.72118">
        <ele>491.1</ele>
        <time>2014-05-18T08:47:08.000Z</time>
      </trkpt>
      <trkpt lat="47.40115" lon="6.72113">
        <ele>490.5</ele>
        <time>2014-05-18T08:47:09.000Z</time>
      </trkpt>
      <trkpt lat="47.40114" lon="6.72109">
        <ele>487.7</ele>
        <time>2014-05-18T08:47:10.000Z</time>
      </trkpt>
      <trkpt lat="47.40113" lon="6.72104">
        <ele>486.3</ele>
        <time>2014-05-18T08:47:11.000Z</time>
      </trkpt>
      <trkpt lat="47.40111" lon="6.72099">
        <ele>485.8</ele>
        <time>2014-05-18T08:47:12.000Z</time>
      </trkpt>
      <trkpt lat="47.4011" lon="6.7209">
        <ele>480.7</ele>
        <time>2014-05-18T08:47:13.000Z</time>
      </trkpt>
      <trkpt lat="47.40109" lon="6.72085">
        <ele>478.9</ele>
        <time>2014-05-18T08:47:14.000Z</time>
      </trkpt>
      <trkpt lat="47.4011" lon="6.7208">
        <ele>477.9</ele>
        <time>2014-05-18T08:47:15.000Z</time>
      </trkpt>
      <trkpt lat="47.40109" lon="6.72075">
        <ele>474.3</ele>
        <time>2014-05-18T08:47:16.000Z</time>
      </trkpt>
      <trkpt lat="47.40108" lon="6.72071">
        <ele>473.2</ele>
        <time>2014-05-18T08:47:17.000Z</time>
      </trkpt>
      <trkpt lat="47.40107" lon="6.72065">
        <ele>472.8</ele>
        <time>2014-05-18T08:47:18.000Z</time>
      </trkpt>
      <trkpt lat="47.40106" lon="6.7206">
        <ele>472.2</ele>
        <time>2014-05-18T08:47:19.000Z</time>
      </trkpt>
      <trkpt lat="47.40106" lon="6.72054">
        <ele>471.9</ele>
        <time>2014-05-18T08:47:20.000Z</time>
      </trkpt>
      <trkpt lat="47.40106" lon="6.72048">
        <ele>472.3</ele>
        <time>2014-05-18T08:47:21.000Z</time>
      </trkpt>
      <trkpt lat="47.40107" lon="6.72043">
        <ele>472.3</ele>
        <time>2014-05-18T08:47:22.000Z</time>
      </trkpt>
      <trkpt lat="47.40107" lon="6.72038">
        <ele>473.3</ele>
        <time>2014-05-18T08:47:23.000Z</time>
      </trkpt>
      <trkpt lat="47.40108" lon="6.72035">
        <ele>476</ele>
        <time>2014-05-18T08:47:24.000Z</time>
      </trkpt>
      <trkpt lat="47.40111" lon="6.72027">
        <ele>477.9</ele>
        <time>2014-05-18T08:47:25.000Z</time>
      </trkpt>
      <trkpt lat="47.40112" lon="6.72024">
        <ele>478.6</ele>
        <time>2014-05-18T08:47:26.000Z</time>
      </trkpt>
      <trkpt lat="47.40111" lon="6.7202">
        <ele>480</ele>
        <time>2014-05-18T08:47:27.000Z</time>
      </trkpt>
      <trkpt lat="47.40112" lon="6.72015">
        <ele>476.7</ele>
        <time>2014-05-18T08:47:28.000Z</time>
      </trkpt>
      <trkpt lat="47.40112" lon="6.72011">
        <ele>476.7</ele>
        <time>2014-05-18T08:47:29.000Z</time>
      </trkpt>
      <trkpt lat="47.40112" lon="6.72008">
        <ele>477.1</ele>
        <time>2014-05-18T08:47:30.000Z</time>
      </trkpt>
      <trkpt lat="47.40112" lon="6.72004">
        <ele>477.9</ele>
        <time>2014-05-18T08:47:31.000Z</time>
      </trkpt>
      <trkpt lat="47.40112" lon="6.71998">
        <ele>478.6</ele>
        <time>2014-05-18T08:47:33.000Z</time>
      </trkpt>
      <trkpt lat="47.40111" lon="6.71995">
        <ele>479.4</ele>
        <time>2014-05-18T08:47:34.000Z</time>
      </trkpt>
      <trkpt lat="47.40111" lon="6.71989">
        <ele>480.2</ele>
        <time>2014-05-18T08:47:36.000Z</time>
      </trkpt>
      <trkpt lat="47.40111" lon="6.71986">
        <ele>481.8</ele>
        <time>2014-05-18T08:47:37.000Z</time>
      </trkpt>
      <trkpt lat="47.40111" lon="6.71982">
        <ele>484.9</ele>
        <time>2014-05-18T08:47:38.000Z</time>
      </trkpt>
      <trkpt lat="47.40111" lon="6.71978">
        <ele>484.4</ele>
        <time>2014-05-18T08:47:39.000Z</time>
      </trkpt>
      <trkpt lat="47.40112" lon="6.71974">
        <ele>486.7</ele>
        <time>2014-05-18T08:47:40.000Z</time>
      </trkpt>
      <trkpt lat="47.40112" lon="6.71969">
        <ele>487.8</ele>
        <time>2014-05-18T08:47:41.000Z</time>
      </trkpt>
      <trkpt lat="47.40113" lon="6.71966">
        <ele>488.5</ele>
        <time>2014-05-18T08:47:42.000Z</time>
      </trkpt>
      <trkpt lat="47.40113" lon="6.71962">
        <ele>489.5</ele>
        <time>2014-05-18T08:47:43.000Z</time>
      </trkpt>
      <trkpt lat="47.40114" lon="6.71958">
        <ele>491.2</ele>
        <time>2014-05-18T08:47:44.000Z</time>
      </trkpt>
      <trkpt lat="47.40115" lon="6.71954">
        <ele>491.3</ele>
        <time>2014-05-18T08:47:45.000Z</time>
      </trkpt>
      <trkpt lat="47.40115" lon="6.71951">
        <ele>491.1</ele>
        <time>2014-05-18T08:47:46.000Z</time>
      </trkpt>
      <trkpt lat="47.40115" lon="6.71926">
        <ele>495.8</ele>
        <time>2014-05-18T08:47:54.000Z</time>
      </trkpt>
      <trkpt lat="47.40118" lon="6.71922">
        <ele>499.5</ele>
        <time>2014-05-18T08:48:08.000Z</time>
      </trkpt>
      <trkpt lat="47.40119" lon="6.71921">
        <ele>499.3</ele>
        <time>2014-05-18T08:48:09.000Z</time>
      </trkpt>
      <trkpt lat="47.40122" lon="6.71918">
        <ele>500.9</ele>
        <time>2014-05-18T08:48:13.000Z</time>
      </trkpt>
      <trkpt lat="47.40123" lon="6.71918">
        <ele>500.5</ele>
        <time>2014-05-18T08:48:14.000Z</time>
      </trkpt>
      <trkpt lat="47.40122" lon="6.71923">
        <ele>500</ele>
        <time>2014-05-18T08:48:18.000Z</time>
      </trkpt>
      <trkpt lat="47.40121" lon="6.71925">
        <ele>499.9</ele>
        <time>2014-05-18T08:48:19.000Z</time>
      </trkpt>
      <trkpt lat="47.40117" lon="6.71926">
        <ele>499.5</ele>
        <time>2014-05-18T08:48:22.000Z</time>
      </trkpt>
      <trkpt lat="47.40116" lon="6.71927">
        <ele>499.6</ele>
        <time>2014-05-18T08:48:23.000Z</time>
      </trkpt>
      <trkpt lat="47.40113" lon="6.71928">
        <ele>500.2</ele>
        <time>2014-05-18T08:48:26.000Z</time>
      </trkpt>
      <trkpt lat="47.40112" lon="6.71929">
        <ele>500.9</ele>
        <time>2014-05-18T08:48:27.000Z</time>
      </trkpt>
      <trkpt lat="47.40109" lon="6.7193">
        <ele>501</ele>
        <time>2014-05-18T08:48:29.000Z</time>
      </trkpt>
      <trkpt lat="47.40107" lon="6.71932">
        <ele>501.2</ele>
        <time>2014-05-18T08:48:30.000Z</time>
      </trkpt>
      <trkpt lat="47.40103" lon="6.71935">
        <ele>500</ele>
        <time>2014-05-18T08:48:32.000Z</time>
      </trkpt>
      <trkpt lat="47.40101" lon="6.71938">
        <ele>500.1</ele>
        <time>2014-05-18T08:48:33.000Z</time>
      </trkpt>
      <trkpt lat="47.40099" lon="6.7194">
        <ele>500.1</ele>
        <time>2014-05-18T08:48:34.000Z</time>
      </trkpt>
      <trkpt lat="47.40096" lon="6.71942">
        <ele>499.6</ele>
        <time>2014-05-18T08:48:35.000Z</time>
      </trkpt>
      <trkpt lat="47.40094" lon="6.71945">
        <ele>499.4</ele>
        <time>2014-05-18T08:48:36.000Z</time>
      </trkpt>
      <trkpt lat="47.40092" lon="6.71948">
        <ele>499.6</ele>
        <time>2014-05-18T08:48:37.000Z</time>
      </trkpt>
      <trkpt lat="47.40089" lon="6.7195">
        <ele>500</ele>
        <time>2014-05-18T08:48:38.000Z</time>
      </trkpt>
      <trkpt lat="47.40087" lon="6.71953">
        <ele>500</ele>
        <time>2014-05-18T08:48:39.000Z</time>
      </trkpt>
      <trkpt lat="47.40085" lon="6.71955">
        <ele>500.1</ele>
        <time>2014-05-18T08:48:40.000Z</time>
      </trkpt>
      <trkpt lat="47.40083" lon="6.71957">
        <ele>500.3</ele>
        <time>2014-05-18T08:48:41.000Z</time>
      </trkpt>
      <trkpt lat="47.40081" lon="6.71959">
        <ele>500.7</ele>
        <time>2014-05-18T08:48:42.000Z</time>
      </trkpt>
      <trkpt lat="47.40079" lon="6.7196">
        <ele>500.9</ele>
        <time>2014-05-18T08:48:43.000Z</time>
      </trkpt>
      <trkpt lat="47.40077" lon="6.71963">
        <ele>501.3</ele>
        <time>2014-05-18T08:48:44.000Z</time>
      </trkpt>
      <trkpt lat="47.40075" lon="6.71965">
        <ele>501.4</ele>
        <time>2014-05-18T08:48:45.000Z</time>
      </trkpt>
      <trkpt lat="47.40073" lon="6.71966">
        <ele>500.8</ele>
        <time>2014-05-18T08:48:46.000Z</time>
      </trkpt>
      <trkpt lat="47.40056" lon="6.71978">
        <ele>501.6</ele>
        <time>2014-05-18T08:48:54.000Z</time>
      </trkpt>
      <trkpt lat="47.40054" lon="6.71978">
        <ele>501.8</ele>
        <time>2014-05-18T08:48:55.000Z</time>
      </trkpt>
      <trkpt lat="47.40052" lon="6.71978">
        <ele>502</ele>
        <time>2014-05-18T08:48:56.000Z</time>
      </trkpt>
      <trkpt lat="47.40049" lon="6.71978">
        <ele>502.9</ele>
        <time>2014-05-18T08:48:57.000Z</time>
      </trkpt>
      <trkpt lat="47.40046" lon="6.71977">
        <ele>503.1</ele>
        <time>2014-05-18T08:48:58.000Z</time>
      </trkpt>
      <trkpt lat="47.40043" lon="6.71977">
        <ele>503.3</ele>
        <time>2014-05-18T08:49:00.000Z</time>
      </trkpt>
      <trkpt lat="47.40041" lon="6.71976">
        <ele>503.1</ele>
        <time>2014-05-18T08:49:01.000Z</time>
      </trkpt>
      <trkpt lat="47.40037" lon="6.71975">
        <ele>503</ele>
        <time>2014-05-18T08:49:03.000Z</time>
      </trkpt>
      <trkpt lat="47.40035" lon="6.71974">
        <ele>501.8</ele>
        <time>2014-05-18T08:49:04.000Z</time>
      </trkpt>
      <trkpt lat="47.40033" lon="6.71973">
        <ele>501.7</ele>
        <time>2014-05-18T08:49:05.000Z</time>
      </trkpt>
      <trkpt lat="47.40031" lon="6.71972">
        <ele>501.3</ele>
        <time>2014-05-18T08:49:06.000Z</time>
      </trkpt>
      <trkpt lat="47.40028" lon="6.71971">
        <ele>500.8</ele>
        <time>2014-05-18T08:49:07.000Z</time>
      </trkpt>
      <trkpt lat="47.40026" lon="6.7197">
        <ele>500</ele>
        <time>2014-05-18T08:49:08.000Z</time>
      </trkpt>
      <trkpt lat="47.40023" lon="6.71968">
        <ele>499.8</ele>
        <time>2014-05-18T08:49:09.000Z</time>
      </trkpt>
      <trkpt lat="47.40021" lon="6.71966">
        <ele>500.2</ele>
        <time>2014-05-18T08:49:10.000Z</time>
      </trkpt>
      <trkpt lat="47.40018" lon="6.71964">
        <ele>500.4</ele>
        <time>2014-05-18T08:49:11.000Z</time>
      </trkpt>
      <trkpt lat="47.40016" lon="6.71962">
        <ele>500.6</ele>
        <time>2014-05-18T08:49:12.000Z</time>
      </trkpt>
      <trkpt lat="47.40014" lon="6.71961">
        <ele>501.7</ele>
        <time>2014-05-18T08:49:13.000Z</time>
      </trkpt>
      <trkpt lat="47.40011" lon="6.71959">
        <ele>502</ele>
        <time>2014-05-18T08:49:14.000Z</time>
      </trkpt>
      <trkpt lat="47.40009" lon="6.71958">
        <ele>501.5</ele>
        <time>2014-05-18T08:49:15.000Z</time>
      </trkpt>
      <trkpt lat="47.40006" lon="6.71957">
        <ele>502.2</ele>
        <time>2014-05-18T08:49:16.000Z</time>
      </trkpt>
      <trkpt lat="47.40004" lon="6.71956">
        <ele>502.6</ele>
        <time>2014-05-18T08:49:17.000Z</time>
      </trkpt>
      <trkpt lat="47.40002" lon="6.71955">
        <ele>502.3</ele>
        <time>2014-05-18T08:49:18.000Z</time>
      </trkpt>
      <trkpt lat="47.4" lon="6.71953">
        <ele>501.1</ele>
        <time>2014-05-18T08:49:19.000Z</time>
      </trkpt>
      <trkpt lat="47.39997" lon="6.71952">
        <ele>501</ele>
        <time>2014-05-18T08:49:20.000Z</time>
      </trkpt>
      <trkpt lat="47.39995" lon="6.71951">
        <ele>500.8</ele>
        <time>2014-05-18T08:49:21.000Z</time>
      </trkpt>
      <trkpt lat="47.39993" lon="6.7195">
        <ele>501.3</ele>
        <time>2014-05-18T08:49:22.000Z</time>
      </trkpt>
      <trkpt lat="47.3999" lon="6.71948">
        <ele>501.7</ele>
        <time>2014-05-18T08:49:23.000Z</time>
      </trkpt>
      <trkpt lat="47.39988" lon="6.71946">
        <ele>501.5</ele>
        <time>2014-05-18T08:49:24.000Z</time>
      </trkpt>
      <trkpt lat="47.39985" lon="6.71945">
        <ele>501.6</ele>
        <time>2014-05-18T08:49:25.000Z</time>
      </trkpt>
      <trkpt lat="47.39983" lon="6.71944">
        <ele>501.5</ele>
        <time>2014-05-18T08:49:26.000Z</time>
      </trkpt>
      <trkpt lat="47.3998" lon="6.71943">
        <ele>501.8</ele>
        <time>2014-05-18T08:49:27.000Z</time>
      </trkpt>
      <trkpt lat="47.39978" lon="6.71943">
        <ele>501.3</ele>
        <time>2014-05-18T08:49:28.000Z</time>
      </trkpt>
      <trkpt lat="47.39975" lon="6.71942">
        <ele>501.4</ele>
        <time>2014-05-18T08:49:29.000Z</time>
      </trkpt>
      <trkpt lat="47.39973" lon="6.71942">
        <ele>501</ele>
        <time>2014-05-18T08:49:30.000Z</time>
      </trkpt>
      <trkpt lat="47.3997" lon="6.71941">
        <ele>502.1</ele>
        <time>2014-05-18T08:49:31.000Z</time>
      </trkpt>
      <trkpt lat="47.39968" lon="6.71941">
        <ele>502.8</ele>
        <time>2014-05-18T08:49:32.000Z</time>
      </trkpt>
      <trkpt lat="47.39964" lon="6.71939">
        <ele>503.5</ele>
        <time>2014-05-18T08:49:34.000Z</time>
      </trkpt>
      <trkpt lat="47.39962" lon="6.71937">
        <ele>504.1</ele>
        <time>2014-05-18T08:49:35.000Z</time>
      </trkpt>
      <trkpt lat="47.39959" lon="6.71936">
        <ele>503.8</ele>
        <time>2014-05-18T08:49:36.000Z</time>
      </trkpt>
      <trkpt lat="47.39957" lon="6.71935">
        <ele>503.8</ele>
        <time>2014-05-18T08:49:37.000Z</time>
      </trkpt>
      <trkpt lat="47.39955" lon="6.71934">
        <ele>504.7</ele>
        <time>2014-05-18T08:49:38.000Z</time>
      </trkpt>
      <trkpt lat="47.39952" lon="6.71933">
        <ele>504.5</ele>
        <time>2014-05-18T08:49:39.000Z</time>
      </trkpt>
      <trkpt lat="47.3995" lon="6.71932">
        <ele>504.9</ele>
        <time>2014-05-18T08:49:40.000Z</time>
      </trkpt>
      <trkpt lat="47.39948" lon="6.71932">
        <ele>505.4</ele>
        <time>2014-05-18T08:49:41.000Z</time>
      </trkpt>
      <trkpt lat="47.39945" lon="6.71931">
        <ele>505.3</ele>
        <time>2014-05-18T08:49:42.000Z</time>
      </trkpt>
      <trkpt lat="47.39942" lon="6.7193">
        <ele>504.1</ele>
        <time>2014-05-18T08:49:43.000Z</time>
      </trkpt>
      <trkpt lat="47.3994" lon="6.71929">
        <ele>503.9</ele>
        <time>2014-05-18T08:49:44.000Z</time>
      </trkpt>
      <trkpt lat="47.39938" lon="6.71929">
        <ele>503.2</ele>
        <time>2014-05-18T08:49:45.000Z</time>
      </trkpt>
      <trkpt lat="47.39935" lon="6.71928">
        <ele>502.5</ele>
        <time>2014-05-18T08:49:46.000Z</time>
      </trkpt>
      <trkpt lat="47.39927" lon="6.71926">
        <ele>502.5</ele>
        <time>2014-05-18T08:49:49.000Z</time>
      </trkpt>
      <trkpt lat="47.39925" lon="6.71925">
        <ele>504.5</ele>
        <time>2014-05-18T08:49:50.000Z</time>
      </trkpt>
      <trkpt lat="47.39922" lon="6.71925">
        <ele>505.1</ele>
        <time>2014-05-18T08:49:51.000Z</time>
      </trkpt>
      <trkpt lat="47.3992" lon="6.71924">
        <ele>505.1</ele>
        <time>2014-05-18T08:49:52.000Z</time>
      </trkpt>
      <trkpt lat="47.39917" lon="6.71924">
        <ele>505.3</ele>
        <time>2014-05-18T08:49:53.000Z</time>
      </trkpt>
      <trkpt lat="47.39915" lon="6.71924">
        <ele>505.3</ele>
        <time>2014-05-18T08:49:54.000Z</time>
      </trkpt>
      <trkpt lat="47.39912" lon="6.71924">
        <ele>505.7</ele>
        <time>2014-05-18T08:49:55.000Z</time>
      </trkpt>
      <trkpt lat="47.39909" lon="6.71925">
        <ele>506.2</ele>
        <time>2014-05-18T08:49:56.000Z</time>
      </trkpt>
      <trkpt lat="47.39907" lon="6.71925">
        <ele>504.9</ele>
        <time>2014-05-18T08:49:57.000Z</time>
      </trkpt>
      <trkpt lat="47.39904" lon="6.71925">
        <ele>504.2</ele>
        <time>2014-05-18T08:49:58.000Z</time>
      </trkpt>
      <trkpt lat="47.39902" lon="6.71924">
        <ele>504.7</ele>
        <time>2014-05-18T08:49:59.000Z</time>
      </trkpt>
      <trkpt lat="47.39897" lon="6.71922">
        <ele>505</ele>
        <time>2014-05-18T08:50:01.000Z</time>
      </trkpt>
      <trkpt lat="47.39895" lon="6.71922">
        <ele>504.9</ele>
        <time>2014-05-18T08:50:02.000Z</time>
      </trkpt>
      <trkpt lat="47.39892" lon="6.7192">
        <ele>506.6</ele>
        <time>2014-05-18T08:50:04.000Z</time>
      </trkpt>
      <trkpt lat="47.3989" lon="6.7192">
        <ele>507.6</ele>
        <time>2014-05-18T08:50:05.000Z</time>
      </trkpt>
      <trkpt lat="47.39887" lon="6.71918">
        <ele>507.5</ele>
        <time>2014-05-18T08:50:06.000Z</time>
      </trkpt>
      <trkpt lat="47.39885" lon="6.71917">
        <ele>508.5</ele>
        <time>2014-05-18T08:50:07.000Z</time>
      </trkpt>
      <trkpt lat="47.39882" lon="6.71916">
        <ele>508.3</ele>
        <time>2014-05-18T08:50:08.000Z</time>
      </trkpt>
      <trkpt lat="47.3988" lon="6.71915">
        <ele>508.6</ele>
        <time>2014-05-18T08:50:09.000Z</time>
      </trkpt>
      <trkpt lat="47.39877" lon="6.71915">
        <ele>507.6</ele>
        <time>2014-05-18T08:50:10.000Z</time>
      </trkpt>
      <trkpt lat="47.39875" lon="6.71915">
        <ele>507.8</ele>
        <time>2014-05-18T08:50:11.000Z</time>
      </trkpt>
      <trkpt lat="47.39872" lon="6.71915">
        <ele>508.8</ele>
        <time>2014-05-18T08:50:12.000Z</time>
      </trkpt>
      <trkpt lat="47.3987" lon="6.71915">
        <ele>508.9</ele>
        <time>2014-05-18T08:50:13.000Z</time>
      </trkpt>
      <trkpt lat="47.39865" lon="6.71916">
        <ele>507.6</ele>
        <time>2014-05-18T08:50:15.000Z</time>
      </trkpt>
      <trkpt lat="47.39864" lon="6.71915">
        <ele>508.5</ele>
        <time>2014-05-18T08:50:16.000Z</time>
      </trkpt>
      <trkpt lat="47.39861" lon="6.71914">
        <ele>508.9</ele>
        <time>2014-05-18T08:50:18.000Z</time>
      </trkpt>
      <trkpt lat="47.39859" lon="6.71913">
        <ele>509.6</ele>
        <time>2014-05-18T08:50:19.000Z</time>
      </trkpt>
      <trkpt lat="47.39856" lon="6.71912">
        <ele>510.8</ele>
        <time>2014-05-18T08:50:21.000Z</time>
      </trkpt>
      <trkpt lat="47.39854" lon="6.71911">
        <ele>510.9</ele>
        <time>2014-05-18T08:50:22.000Z</time>
      </trkpt>
      <trkpt lat="47.39851" lon="6.71909">
        <ele>511.7</ele>
        <time>2014-05-18T08:50:24.000Z</time>
      </trkpt>
      <trkpt lat="47.39849" lon="6.71908">
        <ele>512.6</ele>
        <time>2014-05-18T08:50:25.000Z</time>
      </trkpt>
      <trkpt lat="47.39847" lon="6.71906">
        <ele>512.7</ele>
        <time>2014-05-18T08:50:26.000Z</time>
      </trkpt>
      <trkpt lat="47.39844" lon="6.71904">
        <ele>513.4</ele>
        <time>2014-05-18T08:50:27.000Z</time>
      </trkpt>
      <trkpt lat="47.39841" lon="6.71899">
        <ele>513.9</ele>
        <time>2014-05-18T08:50:29.000Z</time>
      </trkpt>
      <trkpt lat="47.3984" lon="6.71898">
        <ele>514.9</ele>
        <time>2014-05-18T08:50:30.000Z</time>
      </trkpt>
      <trkpt lat="47.39837" lon="6.71894">
        <ele>515.9</ele>
        <time>2014-05-18T08:50:32.000Z</time>
      </trkpt>
      <trkpt lat="47.39836" lon="6.71892">
        <ele>516.7</ele>
        <time>2014-05-18T08:50:33.000Z</time>
      </trkpt>
      <trkpt lat="47.39834" lon="6.71889">
        <ele>517.8</ele>
        <time>2014-05-18T08:50:35.000Z</time>
      </trkpt>
      <trkpt lat="47.39833" lon="6.71888">
        <ele>518.6</ele>
        <time>2014-05-18T08:50:36.000Z</time>
      </trkpt>
      <trkpt lat="47.3983" lon="6.71884">
        <ele>521.6</ele>
        <time>2014-05-18T08:50:38.000Z</time>
      </trkpt>
      <trkpt lat="47.39829" lon="6.71882">
        <ele>522.5</ele>
        <time>2014-05-18T08:50:39.000Z</time>
      </trkpt>
      <trkpt lat="47.39826" lon="6.71878">
        <ele>522.7</ele>
        <time>2014-05-18T08:50:41.000Z</time>
      </trkpt>
      <trkpt lat="47.39825" lon="6.71876">
        <ele>522.8</ele>
        <time>2014-05-18T08:50:42.000Z</time>
      </trkpt>
      <trkpt lat="47.39823" lon="6.71872">
        <ele>524.8</ele>
        <time>2014-05-18T08:50:44.000Z</time>
      </trkpt>
      <trkpt lat="47.39822" lon="6.7187">
        <ele>524.5</ele>
        <time>2014-05-18T08:50:45.000Z</time>
      </trkpt>
      <trkpt lat="47.39819" lon="6.71866">
        <ele>525.8</ele>
        <time>2014-05-18T08:50:47.000Z</time>
      </trkpt>
      <trkpt lat="47.39805" lon="6.71854">
        <ele>527.2</ele>
        <time>2014-05-18T08:50:55.000Z</time>
      </trkpt>
      <trkpt lat="47.39803" lon="6.71853">
        <ele>527.2</ele>
        <time>2014-05-18T08:50:56.000Z</time>
      </trkpt>
      <trkpt lat="47.398" lon="6.71852">
        <ele>528</ele>
        <time>2014-05-18T08:50:57.000Z</time>
      </trkpt>
      <trkpt lat="47.39798" lon="6.71851">
        <ele>527.7</ele>
        <time>2014-05-18T08:50:58.000Z</time>
      </trkpt>
      <trkpt lat="47.39796" lon="6.7185">
        <ele>528.3</ele>
        <time>2014-05-18T08:50:59.000Z</time>
      </trkpt>
      <trkpt lat="47.39792" lon="6.71848">
        <ele>528.1</ele>
        <time>2014-05-18T08:51:01.000Z</time>
      </trkpt>
      <trkpt lat="47.3979" lon="6.71847">
        <ele>527.8</ele>
        <time>2014-05-18T08:51:02.000Z</time>
      </trkpt>
      <trkpt lat="47.39787" lon="6.71846">
        <ele>527.6</ele>
        <time>2014-05-18T08:51:04.000Z</time>
      </trkpt>
      <trkpt lat="47.39785" lon="6.71846">
        <ele>528.6</ele>
        <time>2014-05-18T08:51:05.000Z</time>
      </trkpt>
      <trkpt lat="47.39781" lon="6.71845">
        <ele>527.7</ele>
        <time>2014-05-18T08:51:07.000Z</time>
      </trkpt>
      <trkpt lat="47.39779" lon="6.71844">
        <ele>527.2</ele>
        <time>2014-05-18T08:51:08.000Z</time>
      </trkpt>
      <trkpt lat="47.39775" lon="6.71842">
        <ele>527</ele>
        <time>2014-05-18T08:51:10.000Z</time>
      </trkpt>
      <trkpt lat="47.39774" lon="6.71841">
        <ele>527.4</ele>
        <time>2014-05-18T08:51:11.000Z</time>
      </trkpt>
      <trkpt lat="47.3977" lon="6.7184">
        <ele>528.9</ele>
        <time>2014-05-18T08:51:13.000Z</time>
      </trkpt>
      <trkpt lat="47.39768" lon="6.71839">
        <ele>528.5</ele>
        <time>2014-05-18T08:51:14.000Z</time>
      </trkpt>
      <trkpt lat="47.39765" lon="6.71838">
        <ele>528.2</ele>
        <time>2014-05-18T08:51:15.000Z</time>
      </trkpt>
      <trkpt lat="47.39763" lon="6.71837">
        <ele>526.4</ele>
        <time>2014-05-18T08:51:16.000Z</time>
      </trkpt>
      <trkpt lat="47.3976" lon="6.71836">
        <ele>526.7</ele>
        <time>2014-05-18T08:51:17.000Z</time>
      </trkpt>
      <trkpt lat="47.39758" lon="6.71834">
        <ele>526.2</ele>
        <time>2014-05-18T08:51:18.000Z</time>
      </trkpt>
      <trkpt lat="47.39755" lon="6.71833">
        <ele>526.6</ele>
        <time>2014-05-18T08:51:19.000Z</time>
      </trkpt>
      <trkpt lat="47.39753" lon="6.71832">
        <ele>526.7</ele>
        <time>2014-05-18T08:51:20.000Z</time>
      </trkpt>
      <trkpt lat="47.39751" lon="6.7183">
        <ele>526.1</ele>
        <time>2014-05-18T08:51:21.000Z</time>
      </trkpt>
      <trkpt lat="47.39748" lon="6.71829">
        <ele>527.2</ele>
        <time>2014-05-18T08:51:22.000Z</time>
      </trkpt>
      <trkpt lat="47.39746" lon="6.71828">
        <ele>526.6</ele>
        <time>2014-05-18T08:51:23.000Z</time>
      </trkpt>
      <trkpt lat="47.39744" lon="6.71827">
        <ele>527.1</ele>
        <time>2014-05-18T08:51:24.000Z</time>
      </trkpt>
      <trkpt lat="47.39741" lon="6.71825">
        <ele>525.8</ele>
        <time>2014-05-18T08:51:25.000Z</time>
      </trkpt>
      <trkpt lat="47.39739" lon="6.71824">
        <ele>525.6</ele>
        <time>2014-05-18T08:51:26.000Z</time>
      </trkpt>
      <trkpt lat="47.39736" lon="6.71823">
        <ele>525.5</ele>
        <time>2014-05-18T08:51:27.000Z</time>
      </trkpt>
      <trkpt lat="47.39734" lon="6.71822">
        <ele>525.4</ele>
        <time>2014-05-18T08:51:28.000Z</time>
      </trkpt>
      <trkpt lat="47.39732" lon="6.7182">
        <ele>525.6</ele>
        <time>2014-05-18T08:51:29.000Z</time>
      </trkpt>
      <trkpt lat="47.39729" lon="6.71819">
        <ele>525.7</ele>
        <time>2014-05-18T08:51:30.000Z</time>
      </trkpt>
      <trkpt lat="47.39727" lon="6.71818">
        <ele>525.8</ele>
        <time>2014-05-18T08:51:31.000Z</time>
      </trkpt>
      <trkpt lat="47.39724" lon="6.71817">
        <ele>525.8</ele>
        <time>2014-05-18T08:51:32.000Z</time>
      </trkpt>
      <trkpt lat="47.39721" lon="6.71816">
        <ele>525.8</ele>
        <time>2014-05-18T08:51:33.000Z</time>
      </trkpt>
      <trkpt lat="47.39719" lon="6.71816">
        <ele>525.3</ele>
        <time>2014-05-18T08:51:34.000Z</time>
      </trkpt>
      <trkpt lat="47.39716" lon="6.71815">
        <ele>525.9</ele>
        <time>2014-05-18T08:51:35.000Z</time>
      </trkpt>
      <trkpt lat="47.39714" lon="6.71815">
        <ele>524.9</ele>
        <time>2014-05-18T08:51:36.000Z</time>
      </trkpt>
      <trkpt lat="47.39711" lon="6.71815">
        <ele>524.1</ele>
        <time>2014-05-18T08:51:37.000Z</time>
      </trkpt>
      <trkpt lat="47.39709" lon="6.71815">
        <ele>524.8</ele>
        <time>2014-05-18T08:51:38.000Z</time>
      </trkpt>
      <trkpt lat="47.39706" lon="6.71816">
        <ele>526.2</ele>
        <time>2014-05-18T08:51:39.000Z</time>
      </trkpt>
      <trkpt lat="47.39704" lon="6.71817">
        <ele>527</ele>
        <time>2014-05-18T08:51:40.000Z</time>
      </trkpt>
      <trkpt lat="47.39702" lon="6.71818">
        <ele>527.8</ele>
        <time>2014-05-18T08:51:41.000Z</time>
      </trkpt>
      <trkpt lat="47.39699" lon="6.71819">
        <ele>527.4</ele>
        <time>2014-05-18T08:51:42.000Z</time>
      </trkpt>
      <trkpt lat="47.39697" lon="6.7182">
        <ele>528.4</ele>
        <time>2014-05-18T08:51:43.000Z</time>
      </trkpt>
      <trkpt lat="47.39695" lon="6.71822">
        <ele>529.7</ele>
        <time>2014-05-18T08:51:44.000Z</time>
      </trkpt>
      <trkpt lat="47.39692" lon="6.71823">
        <ele>530</ele>
        <time>2014-05-18T08:51:45.000Z</time>
      </trkpt>
      <trkpt lat="47.3969" lon="6.71823">
        <ele>530.3</ele>
        <time>2014-05-18T08:51:46.000Z</time>
      </trkpt>
      <trkpt lat="47.39669" lon="6.71833">
        <ele>526.3</ele>
        <time>2014-05-18T08:51:54.000Z</time>
      </trkpt>
      <trkpt lat="47.39666" lon="6.71835">
        <ele>527</ele>
        <time>2014-05-18T08:51:55.000Z</time>
      </trkpt>
      <trkpt lat="47.39663" lon="6.71838">
        <ele>529.8</ele>
        <time>2014-05-18T08:51:56.000Z</time>
      </trkpt>
      <trkpt lat="47.3966" lon="6.7184">
        <ele>530.3</ele>
        <time>2014-05-18T08:51:57.000Z</time>
      </trkpt>
      <trkpt lat="47.39657" lon="6.71843">
        <ele>532.1</ele>
        <time>2014-05-18T08:51:58.000Z</time>
      </trkpt>
      <trkpt lat="47.39654" lon="6.71845">
        <ele>531</ele>
        <time>2014-05-18T08:51:59.000Z</time>
      </trkpt>
      <trkpt lat="47.39651" lon="6.71847">
        <ele>531.7</ele>
        <time>2014-05-18T08:52:00.000Z</time>
      </trkpt>
      <trkpt lat="47.39648" lon="6.71849">
        <ele>531.2</ele>
        <time>2014-05-18T08:52:01.000Z</time>
      </trkpt>
      <trkpt lat="47.39646" lon="6.7185">
        <ele>531.3</ele>
        <time>2014-05-18T08:52:02.000Z</time>
      </trkpt>
      <trkpt lat="47.39644" lon="6.71852">
        <ele>531.1</ele>
        <time>2014-05-18T08:52:03.000Z</time>
      </trkpt>
      <trkpt lat="47.39641" lon="6.71853">
        <ele>530.1</ele>
        <time>2014-05-18T08:52:04.000Z</time>
      </trkpt>
      <trkpt lat="47.39639" lon="6.71854">
        <ele>530.4</ele>
        <time>2014-05-18T08:52:05.000Z</time>
      </trkpt>
      <trkpt lat="47.39636" lon="6.71855">
        <ele>530.7</ele>
        <time>2014-05-18T08:52:06.000Z</time>
      </trkpt>
      <trkpt lat="47.39632" lon="6.71857">
        <ele>531.1</ele>
        <time>2014-05-18T08:52:08.000Z</time>
      </trkpt>
      <trkpt lat="47.3963" lon="6.71858">
        <ele>530</ele>
        <time>2014-05-18T08:52:09.000Z</time>
      </trkpt>
      <trkpt lat="47.39627" lon="6.71861">
        <ele>530.1</ele>
        <time>2014-05-18T08:52:11.000Z</time>
      </trkpt>
      <trkpt lat="47.39626" lon="6.71862">
        <ele>530.6</ele>
        <time>2014-05-18T08:52:12.000Z</time>
      </trkpt>
      <trkpt lat="47.39624" lon="6.71863">
        <ele>530.9</ele>
        <time>2014-05-18T08:52:13.000Z</time>
      </trkpt>
      <trkpt lat="47.39621" lon="6.71864">
        <ele>531.3</ele>
        <time>2014-05-18T08:52:14.000Z</time>
      </trkpt>
      <trkpt lat="47.39618" lon="6.71863">
        <ele>530</ele>
        <time>2014-05-18T08:52:15.000Z</time>
      </trkpt>
      <trkpt lat="47.39616" lon="6.71861">
        <ele>530</ele>
        <time>2014-05-18T08:52:16.000Z</time>
      </trkpt>
      <trkpt lat="47.39614" lon="6.71858">
        <ele>530.4</ele>
        <time>2014-05-18T08:52:17.000Z</time>
      </trkpt>
      <trkpt lat="47.39613" lon="6.71854">
        <ele>530.6</ele>
        <time>2014-05-18T08:52:18.000Z</time>
      </trkpt>
      <trkpt lat="47.39612" lon="6.7185">
        <ele>530.9</ele>
        <time>2014-05-18T08:52:19.000Z</time>
      </trkpt>
      <trkpt lat="47.39611" lon="6.71846">
        <ele>530.7</ele>
        <time>2014-05-18T08:52:20.000Z</time>
      </trkpt>
      <trkpt lat="47.3961" lon="6.71842">
        <ele>531.2</ele>
        <time>2014-05-18T08:52:21.000Z</time>
      </trkpt>
      <trkpt lat="47.3961" lon="6.71838">
        <ele>530.8</ele>
        <time>2014-05-18T08:52:22.000Z</time>
      </trkpt>
      <trkpt lat="47.3961" lon="6.71833">
        <ele>531.6</ele>
        <time>2014-05-18T08:52:23.000Z</time>
      </trkpt>
      <trkpt lat="47.39609" lon="6.7183">
        <ele>533.9</ele>
        <time>2014-05-18T08:52:24.000Z</time>
      </trkpt>
      <trkpt lat="47.39609" lon="6.71824">
        <ele>534.7</ele>
        <time>2014-05-18T08:52:26.000Z</time>
      </trkpt>
      <trkpt lat="47.39608" lon="6.71821">
        <ele>534.4</ele>
        <time>2014-05-18T08:52:27.000Z</time>
      </trkpt>
      <trkpt lat="47.39608" lon="6.71817">
        <ele>535.4</ele>
        <time>2014-05-18T08:52:28.000Z</time>
      </trkpt>
      <trkpt lat="47.39609" lon="6.71814">
        <ele>535.9</ele>
        <time>2014-05-18T08:52:29.000Z</time>
      </trkpt>
      <trkpt lat="47.39609" lon="6.7181">
        <ele>535.9</ele>
        <time>2014-05-18T08:52:30.000Z</time>
      </trkpt>
      <trkpt lat="47.3961" lon="6.71807">
        <ele>536.9</ele>
        <time>2014-05-18T08:52:31.000Z</time>
      </trkpt>
      <trkpt lat="47.3961" lon="6.718">
        <ele>537.7</ele>
        <time>2014-05-18T08:52:33.000Z</time>
      </trkpt>
      <trkpt lat="47.39609" lon="6.71798">
        <ele>537.4</ele>
        <time>2014-05-18T08:52:34.000Z</time>
      </trkpt>
      <trkpt lat="47.39609" lon="6.71793">
        <ele>538.6</ele>
        <time>2014-05-18T08:52:36.000Z</time>
      </trkpt>
      <trkpt lat="47.39609" lon="6.7179">
        <ele>539.5</ele>
        <time>2014-05-18T08:52:37.000Z</time>
      </trkpt>
      <trkpt lat="47.39609" lon="6.71786">
        <ele>539.1</ele>
        <time>2014-05-18T08:52:38.000Z</time>
      </trkpt>
      <trkpt lat="47.3961" lon="6.71782">
        <ele>538.4</ele>
        <time>2014-05-18T08:52:39.000Z</time>
      </trkpt>
      <trkpt lat="47.3961" lon="6.71777">
        <ele>537.8</ele>
        <time>2014-05-18T08:52:40.000Z</time>
      </trkpt>
      <trkpt lat="47.39611" lon="6.71773">
        <ele>537.8</ele>
        <time>2014-05-18T08:52:41.000Z</time>
      </trkpt>
      <trkpt lat="47.39612" lon="6.71769">
        <ele>538.3</ele>
        <time>2014-05-18T08:52:42.000Z</time>
      </trkpt>
      <trkpt lat="47.39612" lon="6.71765">
        <ele>537.6</ele>
        <time>2014-05-18T08:52:43.000Z</time>
      </trkpt>
      <trkpt lat="47.39614" lon="6.7176">
        <ele>537.5</ele>
        <time>2014-05-18T08:52:44.000Z</time>
      </trkpt>
      <trkpt lat="47.39615" lon="6.71755">
        <ele>538.1</ele>
        <time>2014-05-18T08:52:45.000Z</time>
      </trkpt>
      <trkpt lat="47.39616" lon="6.7175">
        <ele>537.5</ele>
        <time>2014-05-18T08:52:46.000Z</time>
      </trkpt>
      <trkpt lat="47.39619" lon="6.71726">
        <ele>537.6</ele>
        <time>2014-05-18T08:52:54.000Z</time>
      </trkpt>
      <trkpt lat="47.39619" lon="6.71722">
        <ele>539</ele>
        <time>2014-05-18T08:52:55.000Z</time>
      </trkpt>
      <trkpt lat="47.39619" lon="6.71717">
        <ele>541.2</ele>
        <time>2014-05-18T08:52:56.000Z</time>
      </trkpt>
      <trkpt lat="47.39619" lon="6.71714">
        <ele>542.7</ele>
        <time>2014-05-18T08:52:57.000Z</time>
      </trkpt>
      <trkpt lat="47.39619" lon="6.7171">
        <ele>542.3</ele>
        <time>2014-05-18T08:52:58.000Z</time>
      </trkpt>
      <trkpt lat="47.39619" lon="6.71704">
        <ele>543</ele>
        <time>2014-05-18T08:53:00.000Z</time>
      </trkpt>
      <trkpt lat="47.39619" lon="6.71702">
        <ele>541.1</ele>
        <time>2014-05-18T08:53:01.000Z</time>
      </trkpt>
      <trkpt lat="47.39619" lon="6.71697">
        <ele>540.1</ele>
        <time>2014-05-18T08:53:03.000Z</time>
      </trkpt>
      <trkpt lat="47.3962" lon="6.71694">
        <ele>540.9</ele>
        <time>2014-05-18T08:53:04.000Z</time>
      </trkpt>
      <trkpt lat="47.3962" lon="6.71691">
        <ele>540.9</ele>
        <time>2014-05-18T08:53:05.000Z</time>
      </trkpt>
      <trkpt lat="47.3962" lon="6.71687">
        <ele>539.8</ele>
        <time>2014-05-18T08:53:06.000Z</time>
      </trkpt>
      <trkpt lat="47.3962" lon="6.71683">
        <ele>540.2</ele>
        <time>2014-05-18T08:53:07.000Z</time>
      </trkpt>
      <trkpt lat="47.3962" lon="6.71678">
        <ele>541.3</ele>
        <time>2014-05-18T08:53:08.000Z</time>
      </trkpt>
      <trkpt lat="47.3962" lon="6.71674">
        <ele>542.1</ele>
        <time>2014-05-18T08:53:09.000Z</time>
      </trkpt>
      <trkpt lat="47.39621" lon="6.71669">
        <ele>542.4</ele>
        <time>2014-05-18T08:53:10.000Z</time>
      </trkpt>
      <trkpt lat="47.39622" lon="6.71665">
        <ele>542.5</ele>
        <time>2014-05-18T08:53:11.000Z</time>
      </trkpt>
      <trkpt lat="47.39622" lon="6.71661">
        <ele>541.9</ele>
        <time>2014-05-18T08:53:12.000Z</time>
      </trkpt>
      <trkpt lat="47.39623" lon="6.71658">
        <ele>542.4</ele>
        <time>2014-05-18T08:53:13.000Z</time>
      </trkpt>
      <trkpt lat="47.39624" lon="6.71654">
        <ele>542.3</ele>
        <time>2014-05-18T08:53:14.000Z</time>
      </trkpt>
      <trkpt lat="47.39624" lon="6.7165">
        <ele>542</ele>
        <time>2014-05-18T08:53:15.000Z</time>
      </trkpt>
      <trkpt lat="47.39624" lon="6.71645">
        <ele>541.5</ele>
        <time>2014-05-18T08:53:16.000Z</time>
      </trkpt>
      <trkpt lat="47.39625" lon="6.71641">
        <ele>541.1</ele>
        <time>2014-05-18T08:53:17.000Z</time>
      </trkpt>
      <trkpt lat="47.39625" lon="6.71636">
        <ele>540.9</ele>
        <time>2014-05-18T08:53:18.000Z</time>
      </trkpt>
      <trkpt lat="47.39625" lon="6.71632">
        <ele>540.5</ele>
        <time>2014-05-18T08:53:19.000Z</time>
      </trkpt>
      <trkpt lat="47.39625" lon="6.71628">
        <ele>539.5</ele>
        <time>2014-05-18T08:53:20.000Z</time>
      </trkpt>
      <trkpt lat="47.39625" lon="6.71624">
        <ele>538.8</ele>
        <time>2014-05-18T08:53:21.000Z</time>
      </trkpt>
      <trkpt lat="47.39624" lon="6.7162">
        <ele>538.4</ele>
        <time>2014-05-18T08:53:22.000Z</time>
      </trkpt>
      <trkpt lat="47.39624" lon="6.71615">
        <ele>537.6</ele>
        <time>2014-05-18T08:53:23.000Z</time>
      </trkpt>
      <trkpt lat="47.39624" lon="6.71611">
        <ele>537.2</ele>
        <time>2014-05-18T08:53:24.000Z</time>
      </trkpt>
      <trkpt lat="47.39624" lon="6.71607">
        <ele>537.3</ele>
        <time>2014-05-18T08:53:25.000Z</time>
      </trkpt>
      <trkpt lat="47.39625" lon="6.71602">
        <ele>537.4</ele>
        <time>2014-05-18T08:53:26.000Z</time>
      </trkpt>
      <trkpt lat="47.39625" lon="6.71598">
        <ele>537.5</ele>
        <time>2014-05-18T08:53:27.000Z</time>
      </trkpt>
      <trkpt lat="47.39626" lon="6.71593">
        <ele>537.6</ele>
        <time>2014-05-18T08:53:28.000Z</time>
      </trkpt>
      <trkpt lat="47.39627" lon="6.71589">
        <ele>536.1</ele>
        <time>2014-05-18T08:53:29.000Z</time>
      </trkpt>
      <trkpt lat="47.39627" lon="6.71584">
        <ele>535.5</ele>
        <time>2014-05-18T08:53:30.000Z</time>
      </trkpt>
      <trkpt lat="47.39627" lon="6.7158">
        <ele>535.4</ele>
        <time>2014-05-18T08:53:31.000Z</time>
      </trkpt>
      <trkpt lat="47.39627" lon="6.71576">
        <ele>535.5</ele>
        <time>2014-05-18T08:53:32.000Z</time>
      </trkpt>
      <trkpt lat="47.39627" lon="6.71572">
        <ele>535</ele>
        <time>2014-05-18T08:53:32.999Z</time>
      </trkpt>
      <trkpt lat="47.39628" lon="6.71567">
        <ele>535.9</ele>
        <time>2014-05-18T08:53:34.000Z</time>
      </trkpt>
      <trkpt lat="47.39628" lon="6.71562">
        <ele>535.3</ele>
        <time>2014-05-18T08:53:35.000Z</time>
      </trkpt>
      <trkpt lat="47.39628" lon="6.71557">
        <ele>534.6</ele>
        <time>2014-05-18T08:53:36.000Z</time>
      </trkpt>
      <trkpt lat="47.39628" lon="6.71551">
        <ele>533.4</ele>
        <time>2014-05-18T08:53:37.000Z</time>
      </trkpt>
      <trkpt lat="47.39628" lon="6.71546">
        <ele>533.4</ele>
        <time>2014-05-18T08:53:38.000Z</time>
      </trkpt>
      <trkpt lat="47.39627" lon="6.7154">
        <ele>534.7</ele>
        <time>2014-05-18T08:53:39.000Z</time>
      </trkpt>
      <trkpt lat="47.39627" lon="6.71533">
        <ele>535.1</ele>
        <time>2014-05-18T08:53:40.000Z</time>
      </trkpt>
      <trkpt lat="47.39627" lon="6.71527">
        <ele>535.1</ele>
        <time>2014-05-18T08:53:41.000Z</time>
      </trkpt>
      <trkpt lat="47.39626" lon="6.71522">
        <ele>534.6</ele>
        <time>2014-05-18T08:53:42.000Z</time>
      </trkpt>
      <trkpt lat="47.39626" lon="6.71516">
        <ele>535.1</ele>
        <time>2014-05-18T08:53:43.000Z</time>
      </trkpt>
      <trkpt lat="47.39625" lon="6.71511">
        <ele>535.6</ele>
        <time>2014-05-18T08:53:44.000Z</time>
      </trkpt>
      <trkpt lat="47.39624" lon="6.71507">
        <ele>535.8</ele>
        <time>2014-05-18T08:53:45.000Z</time>
      </trkpt>
      <trkpt lat="47.39623" lon="6.71502">
        <ele>534</ele>
        <time>2014-05-18T08:53:46.000Z</time>
      </trkpt>
      <trkpt lat="47.39629" lon="6.71474">
        <ele>535</ele>
        <time>2014-05-18T08:53:54.000Z</time>
      </trkpt>
      <trkpt lat="47.39633" lon="6.71475">
        <ele>539.3</ele>
        <time>2014-05-18T08:54:11.000Z</time>
      </trkpt>
      <trkpt lat="47.39633" lon="6.71475">
        <ele>539.1</ele>
        <time>2014-05-18T08:54:12.000Z</time>
      </trkpt>
      <trkpt lat="47.39637" lon="6.71472">
        <ele>512.8</ele>
        <time>2014-05-18T08:57:03.000Z</time>
      </trkpt>
      <trkpt lat="47.39638" lon="6.71472">
        <ele>514.2</ele>
        <time>2014-05-18T08:57:04.000Z</time>
      </trkpt>
      <trkpt lat="47.39642" lon="6.7147">
        <ele>516.1</ele>
        <time>2014-05-18T08:57:06.000Z</time>
      </trkpt>
      <trkpt lat="47.39645" lon="6.71468">
        <ele>517</ele>
        <time>2014-05-18T08:57:07.000Z</time>
      </trkpt>
      <trkpt lat="47.39649" lon="6.71466">
        <ele>517.3</ele>
        <time>2014-05-18T08:57:08.000Z</time>
      </trkpt>
      <trkpt lat="47.39655" lon="6.7146">
        <ele>518.4</ele>
        <time>2014-05-18T08:57:09.000Z</time>
      </trkpt>
      <trkpt lat="47.3966" lon="6.71458">
        <ele>518.9</ele>
        <time>2014-05-18T08:57:10.000Z</time>
      </trkpt>
      <trkpt lat="47.39665" lon="6.71455">
        <ele>517.3</ele>
        <time>2014-05-18T08:57:11.000Z</time>
      </trkpt>
      <trkpt lat="47.3967" lon="6.71453">
        <ele>515.8</ele>
        <time>2014-05-18T08:57:12.000Z</time>
      </trkpt>
      <trkpt lat="47.39676" lon="6.71452">
        <ele>514.6</ele>
        <time>2014-05-18T08:57:13.000Z</time>
      </trkpt>
      <trkpt lat="47.39681" lon="6.71451">
        <ele>514.6</ele>
        <time>2014-05-18T08:57:14.000Z</time>
      </trkpt>
      <trkpt lat="47.39686" lon="6.71448">
        <ele>515.3</ele>
        <time>2014-05-18T08:57:15.000Z</time>
      </trkpt>
      <trkpt lat="47.39692" lon="6.71444">
        <ele>515.9</ele>
        <time>2014-05-18T08:57:16.000Z</time>
      </trkpt>
      <trkpt lat="47.39698" lon="6.71441">
        <ele>516.5</ele>
        <time>2014-05-18T08:57:17.000Z</time>
      </trkpt>
      <trkpt lat="47.39704" lon="6.71437">
        <ele>517.7</ele>
        <time>2014-05-18T08:57:18.000Z</time>
      </trkpt>
      <trkpt lat="47.39708" lon="6.71433">
        <ele>518.6</ele>
        <time>2014-05-18T08:57:19.000Z</time>
      </trkpt>
      <trkpt lat="47.39714" lon="6.71429">
        <ele>519.9</ele>
        <time>2014-05-18T08:57:20.000Z</time>
      </trkpt>
      <trkpt lat="47.39719" lon="6.71425">
        <ele>519.6</ele>
        <time>2014-05-18T08:57:21.000Z</time>
      </trkpt>
      <trkpt lat="47.39726" lon="6.71422">
        <ele>519.4</ele>
        <time>2014-05-18T08:57:22.000Z</time>
      </trkpt>
      <trkpt lat="47.39731" lon="6.71418">
        <ele>518.7</ele>
        <time>2014-05-18T08:57:23.000Z</time>
      </trkpt>
      <trkpt lat="47.39737" lon="6.71414">
        <ele>518.8</ele>
        <time>2014-05-18T08:57:24.000Z</time>
      </trkpt>
      <trkpt lat="47.39744" lon="6.7141">
        <ele>518.6</ele>
        <time>2014-05-18T08:57:25.000Z</time>
      </trkpt>
      <trkpt lat="47.3975" lon="6.71405">
        <ele>519.2</ele>
        <time>2014-05-18T08:57:26.000Z</time>
      </trkpt>
      <trkpt lat="47.39755" lon="6.71399">
        <ele>519.9</ele>
        <time>2014-05-18T08:57:27.000Z</time>
      </trkpt>
      <trkpt lat="47.3976" lon="6.71393">
        <ele>520.4</ele>
        <time>2014-05-18T08:57:28.000Z</time>
      </trkpt>
      <trkpt lat="47.39766" lon="6.71388">
        <ele>520.3</ele>
        <time>2014-05-18T08:57:29.000Z</time>
      </trkpt>
      <trkpt lat="47.39772" lon="6.71382">
        <ele>520.2</ele>
        <time>2014-05-18T08:57:30.000Z</time>
      </trkpt>
      <trkpt lat="47.39778" lon="6.71378">
        <ele>520.6</ele>
        <time>2014-05-18T08:57:31.000Z</time>
      </trkpt>
      <trkpt lat="47.39785" lon="6.71371">
        <ele>521.4</ele>
        <time>2014-05-18T08:57:32.000Z</time>
      </trkpt>
      <trkpt lat="47.39792" lon="6.71366">
        <ele>521.5</ele>
        <time>2014-05-18T08:57:33.000Z</time>
      </trkpt>
      <trkpt lat="47.398" lon="6.71361">
        <ele>520.7</ele>
        <time>2014-05-18T08:57:34.000Z</time>
      </trkpt>
      <trkpt lat="47.39808" lon="6.71356">
        <ele>519.9</ele>
        <time>2014-05-18T08:57:35.000Z</time>
      </trkpt>
      <trkpt lat="47.39818" lon="6.71349">
        <ele>520</ele>
        <time>2014-05-18T08:57:36.000Z</time>
      </trkpt>
      <trkpt lat="47.39825" lon="6.7134">
        <ele>519.4</ele>
        <time>2014-05-18T08:57:37.000Z</time>
      </trkpt>
      <trkpt lat="47.39834" lon="6.71333">
        <ele>519.2</ele>
        <time>2014-05-18T08:57:38.000Z</time>
      </trkpt>
      <trkpt lat="47.39843" lon="6.71328">
        <ele>518.8</ele>
        <time>2014-05-18T08:57:39.000Z</time>
      </trkpt>
      <trkpt lat="47.39853" lon="6.71323">
        <ele>518.5</ele>
        <time>2014-05-18T08:57:40.000Z</time>
      </trkpt>
      <trkpt lat="47.39862" lon="6.71321">
        <ele>519.1</ele>
        <time>2014-05-18T08:57:41.000Z</time>
      </trkpt>
      <trkpt lat="47.39872" lon="6.7132">
        <ele>519</ele>
        <time>2014-05-18T08:57:42.000Z</time>
      </trkpt>
      <trkpt lat="47.39881" lon="6.71322">
        <ele>518.9</ele>
        <time>2014-05-18T08:57:43.000Z</time>
      </trkpt>
      <trkpt lat="47.3989" lon="6.71324">
        <ele>518.5</ele>
        <time>2014-05-18T08:57:44.000Z</time>
      </trkpt>
      <trkpt lat="47.39898" lon="6.71325">
        <ele>518.9</ele>
        <time>2014-05-18T08:57:45.000Z</time>
      </trkpt>
      <trkpt lat="47.39907" lon="6.71325">
        <ele>518.8</ele>
        <time>2014-05-18T08:57:46.000Z</time>
      </trkpt>
      <trkpt lat="47.39955" lon="6.71281">
        <ele>519.9</ele>
        <time>2014-05-18T08:57:54.000Z</time>
      </trkpt>
      <trkpt lat="47.39959" lon="6.71275">
        <ele>520.2</ele>
        <time>2014-05-18T08:57:55.000Z</time>
      </trkpt>
      <trkpt lat="47.39964" lon="6.71267">
        <ele>518.7</ele>
        <time>2014-05-18T08:57:56.000Z</time>
      </trkpt>
      <trkpt lat="47.39968" lon="6.71261">
        <ele>517.6</ele>
        <time>2014-05-18T08:57:57.000Z</time>
      </trkpt>
      <trkpt lat="47.39971" lon="6.71254">
        <ele>517.8</ele>
        <time>2014-05-18T08:57:58.000Z</time>
      </trkpt>
      <trkpt lat="47.39975" lon="6.71246">
        <ele>518.1</ele>
        <time>2014-05-18T08:57:59.000Z</time>
      </trkpt>
      <trkpt lat="47.39978" lon="6.71239">
        <ele>517.5</ele>
        <time>2014-05-18T08:58:00.000Z</time>
      </trkpt>
      <trkpt lat="47.39982" lon="6.71232">
        <ele>517.1</ele>
        <time>2014-05-18T08:58:01.000Z</time>
      </trkpt>
      <trkpt lat="47.39986" lon="6.71225">
        <ele>516.4</ele>
        <time>2014-05-18T08:58:02.000Z</time>
      </trkpt>
      <trkpt lat="47.3999" lon="6.71219">
        <ele>516.3</ele>
        <time>2014-05-18T08:58:03.000Z</time>
      </trkpt>
      <trkpt lat="47.39994" lon="6.71215">
        <ele>516.3</ele>
        <time>2014-05-18T08:58:04.000Z</time>
      </trkpt>
      <trkpt lat="47.39997" lon="6.71209">
        <ele>516.6</ele>
        <time>2014-05-18T08:58:05.000Z</time>
      </trkpt>
      <trkpt lat="47.40001" lon="6.71205">
        <ele>517.1</ele>
        <time>2014-05-18T08:58:06.000Z</time>
      </trkpt>
      <trkpt lat="47.4" lon="6.712">
        <ele>517.7</ele>
        <time>2014-05-18T08:58:07.000Z</time>
      </trkpt>
      <trkpt lat="47.40002" lon="6.71195">
        <ele>517.9</ele>
        <time>2014-05-18T08:58:08.000Z</time>
      </trkpt>
      <trkpt lat="47.40003" lon="6.7119">
        <ele>517.7</ele>
        <time>2014-05-18T08:58:09.000Z</time>
      </trkpt>
      <trkpt lat="47.40001" lon="6.71188">
        <ele>518.6</ele>
        <time>2014-05-18T08:58:10.000Z</time>
      </trkpt>
      <trkpt lat="47.39998" lon="6.71187">
        <ele>519.1</ele>
        <time>2014-05-18T08:58:12.000Z</time>
      </trkpt>
      <trkpt lat="47.39998" lon="6.71179">
        <ele>518.4</ele>
        <time>2014-05-18T08:58:13.000Z</time>
      </trkpt>
      <trkpt lat="47.39996" lon="6.71178">
        <ele>520.4</ele>
        <time>2014-05-18T08:58:14.000Z</time>
      </trkpt>
      <trkpt lat="47.39995" lon="6.71174">
        <ele>520.7</ele>
        <time>2014-05-18T08:58:15.000Z</time>
      </trkpt>
      <trkpt lat="47.39994" lon="6.71171">
        <ele>521.1</ele>
        <time>2014-05-18T08:58:16.000Z</time>
      </trkpt>
      <trkpt lat="47.39993" lon="6.71167">
        <ele>521.8</ele>
        <time>2014-05-18T08:58:17.000Z</time>
      </trkpt>
      <trkpt lat="47.39993" lon="6.71162">
        <ele>522.9</ele>
        <time>2014-05-18T08:58:18.000Z</time>
      </trkpt>
      <trkpt lat="47.39992" lon="6.71157">
        <ele>523.4</ele>
        <time>2014-05-18T08:58:19.000Z</time>
      </trkpt>
      <trkpt lat="47.3999" lon="6.71151">
        <ele>524.8</ele>
        <time>2014-05-18T08:58:20.000Z</time>
      </trkpt>
      <trkpt lat="47.3999" lon="6.71146">
        <ele>525.5</ele>
        <time>2014-05-18T08:58:21.000Z</time>
      </trkpt>
      <trkpt lat="47.39989" lon="6.71141">
        <ele>525.5</ele>
        <time>2014-05-18T08:58:22.000Z</time>
      </trkpt>
      <trkpt lat="47.39987" lon="6.71136">
        <ele>526.3</ele>
        <time>2014-05-18T08:58:23.000Z</time>
      </trkpt>
      <trkpt lat="47.39986" lon="6.71132">
        <ele>526.6</ele>
        <time>2014-05-18T08:58:24.000Z</time>
      </trkpt>
      <trkpt lat="47.39985" lon="6.71128">
        <ele>527.2</ele>
        <time>2014-05-18T08:58:25.000Z</time>
      </trkpt>
      <trkpt lat="47.39983" lon="6.71122">
        <ele>526.2</ele>
        <time>2014-05-18T08:58:26.000Z</time>
      </trkpt>
      <trkpt lat="47.39981" lon="6.71117">
        <ele>526.5</ele>
        <time>2014-05-18T08:58:27.000Z</time>
      </trkpt>
      <trkpt lat="47.3998" lon="6.71111">
        <ele>526.7</ele>
        <time>2014-05-18T08:58:28.000Z</time>
      </trkpt>
      <trkpt lat="47.3998" lon="6.71106">
        <ele>526.7</ele>
        <time>2014-05-18T08:58:29.000Z</time>
      </trkpt>
      <trkpt lat="47.39979" lon="6.71101">
        <ele>527.1</ele>
        <time>2014-05-18T08:58:30.000Z</time>
      </trkpt>
      <trkpt lat="47.39979" lon="6.71096">
        <ele>526.5</ele>
        <time>2014-05-18T08:58:31.000Z</time>
      </trkpt>
      <trkpt lat="47.39979" lon="6.71091">
        <ele>527.6</ele>
        <time>2014-05-18T08:58:32.000Z</time>
      </trkpt>
      <trkpt lat="47.39979" lon="6.71086">
        <ele>528.7</ele>
        <time>2014-05-18T08:58:33.000Z</time>
      </trkpt>
      <trkpt lat="47.39978" lon="6.71081">
        <ele>529.2</ele>
        <time>2014-05-18T08:58:34.000Z</time>
      </trkpt>
      <trkpt lat="47.39978" lon="6.71076">
        <ele>526.1</ele>
        <time>2014-05-18T08:58:35.000Z</time>
      </trkpt>
      <trkpt lat="47.39978" lon="6.71071">
        <ele>526.5</ele>
        <time>2014-05-18T08:58:36.000Z</time>
      </trkpt>
      <trkpt lat="47.39977" lon="6.71065">
        <ele>527.5</ele>
        <time>2014-05-18T08:58:37.000Z</time>
      </trkpt>
      <trkpt lat="47.39976" lon="6.7106">
        <ele>527.2</ele>
        <time>2014-05-18T08:58:38.000Z</time>
      </trkpt>
      <trkpt lat="47.39975" lon="6.71053">
        <ele>528.6</ele>
        <time>2014-05-18T08:58:39.000Z</time>
      </trkpt>
      <trkpt lat="47.39974" lon="6.71048">
        <ele>528.9</ele>
        <time>2014-05-18T08:58:40.000Z</time>
      </trkpt>
      <trkpt lat="47.39973" lon="6.71042">
        <ele>529.8</ele>
        <time>2014-05-18T08:58:41.000Z</time>
      </trkpt>
      <trkpt lat="47.39971" lon="6.71036">
        <ele>527.2</ele>
        <time>2014-05-18T08:58:42.000Z</time>
      </trkpt>
      <trkpt lat="47.3997" lon="6.7103">
        <ele>523.8</ele>
        <time>2014-05-18T08:58:43.000Z</time>
      </trkpt>
      <trkpt lat="47.39968" lon="6.71024">
        <ele>524.1</ele>
        <time>2014-05-18T08:58:44.000Z</time>
      </trkpt>
      <trkpt lat="47.39967" lon="6.7102">
        <ele>524</ele>
        <time>2014-05-18T08:58:45.000Z</time>
      </trkpt>
      <trkpt lat="47.39964" lon="6.71011">
        <ele>526.4</ele>
        <time>2014-05-18T08:58:46.000Z</time>
      </trkpt>
      <trkpt lat="47.39959" lon="6.70993">
        <ele>526.8</ele>
        <time>2014-05-18T08:58:49.000Z</time>
      </trkpt>
      <trkpt lat="47.39957" lon="6.70976">
        <ele>525</ele>
        <time>2014-05-18T08:58:50.000Z</time>
      </trkpt>
      <trkpt lat="47.39954" lon="6.70967">
        <ele>523.5</ele>
        <time>2014-05-18T08:58:51.000Z</time>
      </trkpt>
      <trkpt lat="47.39953" lon="6.70958">
        <ele>521.3</ele>
        <time>2014-05-18T08:58:52.000Z</time>
      </trkpt>
      <trkpt lat="47.39952" lon="6.70951">
        <ele>521.5</ele>
        <time>2014-05-18T08:58:53.000Z</time>
      </trkpt>
      <trkpt lat="47.3995" lon="6.70949">
        <ele>521.4</ele>
        <time>2014-05-18T08:58:54.000Z</time>
      </trkpt>
      <trkpt lat="47.39948" lon="6.70945">
        <ele>521.8</ele>
        <time>2014-05-18T08:58:55.000Z</time>
      </trkpt>
      <trkpt lat="47.39948" lon="6.70939">
        <ele>521.8</ele>
        <time>2014-05-18T08:58:56.000Z</time>
      </trkpt>
      <trkpt lat="47.3995" lon="6.70931">
        <ele>520.9</ele>
        <time>2014-05-18T08:58:57.000Z</time>
      </trkpt>
      <trkpt lat="47.39951" lon="6.70925">
        <ele>520.8</ele>
        <time>2014-05-18T08:58:58.000Z</time>
      </trkpt>
      <trkpt lat="47.39951" lon="6.70917">
        <ele>520.9</ele>
        <time>2014-05-18T08:58:59.000Z</time>
      </trkpt>
      <trkpt lat="47.39959" lon="6.70912">
        <ele>525.7</ele>
        <time>2014-05-18T08:59:00.000Z</time>
      </trkpt>
      <trkpt lat="47.39963" lon="6.70908">
        <ele>524.1</ele>
        <time>2014-05-18T08:59:01.000Z</time>
      </trkpt>
      <trkpt lat="47.39966" lon="6.70903">
        <ele>525.9</ele>
        <time>2014-05-18T08:59:02.000Z</time>
      </trkpt>
      <trkpt lat="47.3997" lon="6.70901">
        <ele>525.1</ele>
        <time>2014-05-18T08:59:03.000Z</time>
      </trkpt>
      <trkpt lat="47.39973" lon="6.70899">
        <ele>524</ele>
        <time>2014-05-18T08:59:04.000Z</time>
      </trkpt>
      <trkpt lat="47.39973" lon="6.70895">
        <ele>523.3</ele>
        <time>2014-05-18T08:59:05.000Z</time>
      </trkpt>
      <trkpt lat="47.39975" lon="6.70891">
        <ele>523.8</ele>
        <time>2014-05-18T08:59:07.000Z</time>
      </trkpt>
      <trkpt lat="47.39977" lon="6.70888">
        <ele>522.9</ele>
        <time>2014-05-18T08:59:08.000Z</time>
      </trkpt>
      <trkpt lat="47.39981" lon="6.70881">
        <ele>520.7</ele>
        <time>2014-05-18T08:59:09.000Z</time>
      </trkpt>
      <trkpt lat="47.39982" lon="6.70877">
        <ele>518.1</ele>
        <time>2014-05-18T08:59:10.000Z</time>
      </trkpt>
      <trkpt lat="47.39984" lon="6.70873">
        <ele>517.7</ele>
        <time>2014-05-18T08:59:11.000Z</time>
      </trkpt>
      <trkpt lat="47.39984" lon="6.70868">
        <ele>516.3</ele>
        <time>2014-05-18T08:59:26.000Z</time>
      </trkpt>
      <trkpt lat="47.39985" lon="6.70866">
        <ele>516.4</ele>
        <time>2014-05-18T08:59:27.000Z</time>
      </trkpt>
      <trkpt lat="47.39985" lon="6.70862">
        <ele>516.8</ele>
        <time>2014-05-18T08:59:28.000Z</time>
      </trkpt>
      <trkpt lat="47.39986" lon="6.70857">
        <ele>517.7</ele>
        <time>2014-05-18T08:59:29.000Z</time>
      </trkpt>
      <trkpt lat="47.39988" lon="6.70851">
        <ele>517.9</ele>
        <time>2014-05-18T08:59:30.000Z</time>
      </trkpt>
      <trkpt lat="47.3999" lon="6.70845">
        <ele>518</ele>
        <time>2014-05-18T08:59:31.000Z</time>
      </trkpt>
      <trkpt lat="47.39992" lon="6.70839">
        <ele>516.6</ele>
        <time>2014-05-18T08:59:32.000Z</time>
      </trkpt>
      <trkpt lat="47.39993" lon="6.70833">
        <ele>515.5</ele>
        <time>2014-05-18T08:59:33.000Z</time>
      </trkpt>
      <trkpt lat="47.39995" lon="6.70828">
        <ele>516.2</ele>
        <time>2014-05-18T08:59:34.000Z</time>
      </trkpt>
      <trkpt lat="47.39997" lon="6.70822">
        <ele>515.8</ele>
        <time>2014-05-18T08:59:35.000Z</time>
      </trkpt>
      <trkpt lat="47.39999" lon="6.70816">
        <ele>516</ele>
        <time>2014-05-18T08:59:36.000Z</time>
      </trkpt>
      <trkpt lat="47.4" lon="6.7081">
        <ele>512.9</ele>
        <time>2014-05-18T08:59:37.000Z</time>
      </trkpt>
      <trkpt lat="47.40002" lon="6.70804">
        <ele>514.7</ele>
        <time>2014-05-18T08:59:38.000Z</time>
      </trkpt>
      <trkpt lat="47.40004" lon="6.70797">
        <ele>515</ele>
        <time>2014-05-18T08:59:39.000Z</time>
      </trkpt>
      <trkpt lat="47.40009" lon="6.70781">
        <ele>514.2</ele>
        <time>2014-05-18T08:59:40.000Z</time>
      </trkpt>
      <trkpt lat="47.40012" lon="6.70774">
        <ele>515.2</ele>
        <time>2014-05-18T08:59:41.000Z</time>
      </trkpt>
      <trkpt lat="47.40011" lon="6.70764">
        <ele>514.9</ele>
        <time>2014-05-18T08:59:42.000Z</time>
      </trkpt>
      <trkpt lat="47.40013" lon="6.70757">
        <ele>515.5</ele>
        <time>2014-05-18T08:59:43.000Z</time>
      </trkpt>
      <trkpt lat="47.40014" lon="6.70751">
        <ele>515.9</ele>
        <time>2014-05-18T08:59:44.000Z</time>
      </trkpt>
      <trkpt lat="47.40016" lon="6.70745">
        <ele>515.1</ele>
        <time>2014-05-18T08:59:45.000Z</time>
      </trkpt>
      <trkpt lat="47.40019" lon="6.70738">
        <ele>515</ele>
        <time>2014-05-18T08:59:46.000Z</time>
      </trkpt>
      <trkpt lat="47.40019" lon="6.70673">
        <ele>510.3</ele>
        <time>2014-05-18T08:59:54.000Z</time>
      </trkpt>
      <trkpt lat="47.40018" lon="6.70657">
        <ele>510.6</ele>
        <time>2014-05-18T08:59:55.000Z</time>
      </trkpt>
      <trkpt lat="47.40021" lon="6.70646">
        <ele>509</ele>
        <time>2014-05-18T08:59:56.000Z</time>
      </trkpt>
      <trkpt lat="47.40021" lon="6.70637">
        <ele>510.5</ele>
        <time>2014-05-18T08:59:57.000Z</time>
      </trkpt>
      <trkpt lat="47.40019" lon="6.70628">
        <ele>510.5</ele>
        <time>2014-05-18T08:59:58.000Z</time>
      </trkpt>
      <trkpt lat="47.40018" lon="6.70619">
        <ele>510.1</ele>
        <time>2014-05-18T08:59:59.000Z</time>
      </trkpt>
      <trkpt lat="47.40017" lon="6.70605">
        <ele>509.5</ele>
        <time>2014-05-18T09:00:00.000Z</time>
      </trkpt>
      <trkpt lat="47.40016" lon="6.70595">
        <ele>508.6</ele>
        <time>2014-05-18T09:00:01.000Z</time>
      </trkpt>
      <trkpt lat="47.40016" lon="6.70589">
        <ele>505.9</ele>
        <time>2014-05-18T09:00:02.000Z</time>
      </trkpt>
      <trkpt lat="47.40014" lon="6.70585">
        <ele>506</ele>
        <time>2014-05-18T09:00:03.000Z</time>
      </trkpt>
      <trkpt lat="47.40013" lon="6.7058">
        <ele>505.5</ele>
        <time>2014-05-18T09:00:04.000Z</time>
      </trkpt>
      <trkpt lat="47.40011" lon="6.70572">
        <ele>504</ele>
        <time>2014-05-18T09:00:05.000Z</time>
      </trkpt>
      <trkpt lat="47.40011" lon="6.70559">
        <ele>507.7</ele>
        <time>2014-05-18T09:00:06.000Z</time>
      </trkpt>
      <trkpt lat="47.40008" lon="6.70548">
        <ele>509.3</ele>
        <time>2014-05-18T09:00:07.000Z</time>
      </trkpt>
      <trkpt lat="47.40007" lon="6.70535">
        <ele>507.5</ele>
        <time>2014-05-18T09:00:08.000Z</time>
      </trkpt>
      <trkpt lat="47.40004" lon="6.70525">
        <ele>506.9</ele>
        <time>2014-05-18T09:00:09.000Z</time>
      </trkpt>
      <trkpt lat="47.4" lon="6.70517">
        <ele>507.2</ele>
        <time>2014-05-18T09:00:10.000Z</time>
      </trkpt>
      <trkpt lat="47.39998" lon="6.70505">
        <ele>506</ele>
        <time>2014-05-18T09:00:11.000Z</time>
      </trkpt>
      <trkpt lat="47.39999" lon="6.70494">
        <ele>504.2</ele>
        <time>2014-05-18T09:00:12.000Z</time>
      </trkpt>
      <trkpt lat="47.39997" lon="6.70484">
        <ele>504.2</ele>
        <time>2014-05-18T09:00:13.000Z</time>
      </trkpt>
      <trkpt lat="47.39995" lon="6.70474">
        <ele>504.4</ele>
        <time>2014-05-18T09:00:14.000Z</time>
      </trkpt>
      <trkpt lat="47.39994" lon="6.70463">
        <ele>505.1</ele>
        <time>2014-05-18T09:00:15.000Z</time>
      </trkpt>
      <trkpt lat="47.39993" lon="6.70454">
        <ele>504.6</ele>
        <time>2014-05-18T09:00:16.000Z</time>
      </trkpt>
      <trkpt lat="47.39992" lon="6.70444">
        <ele>504.6</ele>
        <time>2014-05-18T09:00:17.000Z</time>
      </trkpt>
      <trkpt lat="47.3999" lon="6.70432">
        <ele>505.3</ele>
        <time>2014-05-18T09:00:18.000Z</time>
      </trkpt>
      <trkpt lat="47.39986" lon="6.7042">
        <ele>505</ele>
        <time>2014-05-18T09:00:19.000Z</time>
      </trkpt>
      <trkpt lat="47.39983" lon="6.7041">
        <ele>504.6</ele>
        <time>2014-05-18T09:00:20.000Z</time>
      </trkpt>
      <trkpt lat="47.39981" lon="6.70395">
        <ele>501.8</ele>
        <time>2014-05-18T09:00:21.000Z</time>
      </trkpt>
      <trkpt lat="47.39983" lon="6.70385">
        <ele>501.2</ele>
        <time>2014-05-18T09:00:22.000Z</time>
      </trkpt>
      <trkpt lat="47.3998" lon="6.70375">
        <ele>501.1</ele>
        <time>2014-05-18T09:00:23.000Z</time>
      </trkpt>
      <trkpt lat="47.39976" lon="6.7037">
        <ele>500.4</ele>
        <time>2014-05-18T09:00:24.000Z</time>
      </trkpt>
      <trkpt lat="47.39976" lon="6.70364">
        <ele>499.5</ele>
        <time>2014-05-18T09:00:25.000Z</time>
      </trkpt>
      <trkpt lat="47.39974" lon="6.70359">
        <ele>499.5</ele>
        <time>2014-05-18T09:00:26.000Z</time>
      </trkpt>
      <trkpt lat="47.39979" lon="6.70349">
        <ele>494.8</ele>
        <time>2014-05-18T09:00:27.000Z</time>
      </trkpt>
      <trkpt lat="47.39982" lon="6.70349">
        <ele>493.8</ele>
        <time>2014-05-18T09:00:28.000Z</time>
      </trkpt>
      <trkpt lat="47.39986" lon="6.70345">
        <ele>493.7</ele>
        <time>2014-05-18T09:00:29.000Z</time>
      </trkpt>
      <trkpt lat="47.39988" lon="6.70347">
        <ele>492.9</ele>
        <time>2014-05-18T09:00:30.000Z</time>
      </trkpt>
      <trkpt lat="47.39991" lon="6.7035">
        <ele>493.4</ele>
        <time>2014-05-18T09:00:31.000Z</time>
      </trkpt>
      <trkpt lat="47.39994" lon="6.7035">
        <ele>492.5</ele>
        <time>2014-05-18T09:00:32.000Z</time>
      </trkpt>
      <trkpt lat="47.40001" lon="6.70351">
        <ele>494.3</ele>
        <time>2014-05-18T09:00:33.000Z</time>
      </trkpt>
      <trkpt lat="47.40005" lon="6.70351">
        <ele>494.3</ele>
        <time>2014-05-18T09:00:34.000Z</time>
      </trkpt>
      <trkpt lat="47.40009" lon="6.70352">
        <ele>494.5</ele>
        <time>2014-05-18T09:00:35.000Z</time>
      </trkpt>
      <trkpt lat="47.40013" lon="6.70353">
        <ele>494.1</ele>
        <time>2014-05-18T09:00:36.000Z</time>
      </trkpt>
      <trkpt lat="47.40017" lon="6.70353">
        <ele>491.5</ele>
        <time>2014-05-18T09:00:37.000Z</time>
      </trkpt>
      <trkpt lat="47.40021" lon="6.70352">
        <ele>490.3</ele>
        <time>2014-05-18T09:00:38.000Z</time>
      </trkpt>
      <trkpt lat="47.40025" lon="6.70353">
        <ele>486</ele>
        <time>2014-05-18T09:00:39.000Z</time>
      </trkpt>
      <trkpt lat="47.4003" lon="6.70353">
        <ele>482.8</ele>
        <time>2014-05-18T09:00:40.000Z</time>
      </trkpt>
      <trkpt lat="47.40034" lon="6.70354">
        <ele>483</ele>
        <time>2014-05-18T09:00:41.000Z</time>
      </trkpt>
      <trkpt lat="47.40039" lon="6.70355">
        <ele>481.8</ele>
        <time>2014-05-18T09:00:42.000Z</time>
      </trkpt>
      <trkpt lat="47.40044" lon="6.70356">
        <ele>482.3</ele>
        <time>2014-05-18T09:00:43.000Z</time>
      </trkpt>
      <trkpt lat="47.40048" lon="6.70357">
        <ele>483.1</ele>
        <time>2014-05-18T09:00:44.000Z</time>
      </trkpt>
      <trkpt lat="47.40057" lon="6.70358">
        <ele>481.6</ele>
        <time>2014-05-18T09:00:45.000Z</time>
      </trkpt>
      <trkpt lat="47.40063" lon="6.70361">
        <ele>480.9</ele>
        <time>2014-05-18T09:00:46.000Z</time>
      </trkpt>
      <trkpt lat="47.401" lon="6.70393">
        <ele>477.6</ele>
        <time>2014-05-18T09:00:54.000Z</time>
      </trkpt>
      <trkpt lat="47.40103" lon="6.70387">
        <ele>477.9</ele>
        <time>2014-05-18T09:00:55.000Z</time>
      </trkpt>
      <trkpt lat="47.40105" lon="6.70385">
        <ele>477.6</ele>
        <time>2014-05-18T09:00:56.000Z</time>
      </trkpt>
      <trkpt lat="47.40107" lon="6.70381">
        <ele>476.6</ele>
        <time>2014-05-18T09:00:58.000Z</time>
      </trkpt>
      <trkpt lat="47.40109" lon="6.70378">
        <ele>476.1</ele>
        <time>2014-05-18T09:00:59.000Z</time>
      </trkpt>
      <trkpt lat="47.40112" lon="6.70376">
        <ele>477.6</ele>
        <time>2014-05-18T09:01:00.000Z</time>
      </trkpt>
      <trkpt lat="47.40114" lon="6.70375">
        <ele>478</ele>
        <time>2014-05-18T09:01:01.000Z</time>
      </trkpt>
      <trkpt lat="47.40117" lon="6.70374">
        <ele>478.2</ele>
        <time>2014-05-18T09:01:02.000Z</time>
      </trkpt>
      <trkpt lat="47.4012" lon="6.70374">
        <ele>479.3</ele>
        <time>2014-05-18T09:01:03.000Z</time>
      </trkpt>
      <trkpt lat="47.40124" lon="6.70374">
        <ele>479.2</ele>
        <time>2014-05-18T09:01:04.000Z</time>
      </trkpt>
      <trkpt lat="47.40128" lon="6.70376">
        <ele>479.6</ele>
        <time>2014-05-18T09:01:05.000Z</time>
      </trkpt>
      <trkpt lat="47.40132" lon="6.70378">
        <ele>479.9</ele>
        <time>2014-05-18T09:01:06.000Z</time>
      </trkpt>
      <trkpt lat="47.40144" lon="6.70379">
        <ele>476.9</ele>
        <time>2014-05-18T09:01:07.000Z</time>
      </trkpt>
      <trkpt lat="47.4015" lon="6.70379">
        <ele>476.8</ele>
        <time>2014-05-18T09:01:08.000Z</time>
      </trkpt>
      <trkpt lat="47.40156" lon="6.70379">
        <ele>477.8</ele>
        <time>2014-05-18T09:01:09.000Z</time>
      </trkpt>
      <trkpt lat="47.40161" lon="6.70378">
        <ele>478.5</ele>
        <time>2014-05-18T09:01:10.000Z</time>
      </trkpt>
      <trkpt lat="47.40167" lon="6.70378">
        <ele>478.1</ele>
        <time>2014-05-18T09:01:11.000Z</time>
      </trkpt>
      <trkpt lat="47.4017" lon="6.70383">
        <ele>478.4</ele>
        <time>2014-05-18T09:01:12.000Z</time>
      </trkpt>
      <trkpt lat="47.40175" lon="6.70386">
        <ele>478.3</ele>
        <time>2014-05-18T09:01:13.000Z</time>
      </trkpt>
      <trkpt lat="47.40177" lon="6.70389">
        <ele>478.3</ele>
        <time>2014-05-18T09:01:14.000Z</time>
      </trkpt>
      <trkpt lat="47.40181" lon="6.7039">
        <ele>478</ele>
        <time>2014-05-18T09:01:15.000Z</time>
      </trkpt>
      <trkpt lat="47.40184" lon="6.70392">
        <ele>476.8</ele>
        <time>2014-05-18T09:01:16.000Z</time>
      </trkpt>
      <trkpt lat="47.40187" lon="6.70393">
        <ele>475.8</ele>
        <time>2014-05-18T09:01:17.000Z</time>
      </trkpt>
      <trkpt lat="47.40191" lon="6.70396">
        <ele>476.1</ele>
        <time>2014-05-18T09:01:18.000Z</time>
      </trkpt>
      <trkpt lat="47.40193" lon="6.70396">
        <ele>476.6</ele>
        <time>2014-05-18T09:01:19.000Z</time>
      </trkpt>
      <trkpt lat="47.40196" lon="6.70397">
        <ele>476.6</ele>
        <time>2014-05-18T09:01:20.000Z</time>
      </trkpt>
      <trkpt lat="47.40199" lon="6.70399">
        <ele>477</ele>
        <time>2014-05-18T09:01:21.000Z</time>
      </trkpt>
      <trkpt lat="47.40204" lon="6.70402">
        <ele>475.3</ele>
        <time>2014-05-18T09:01:22.000Z</time>
      </trkpt>
      <trkpt lat="47.40208" lon="6.70405">
        <ele>475</ele>
        <time>2014-05-18T09:01:23.000Z</time>
      </trkpt>
      <trkpt lat="47.40213" lon="6.70409">
        <ele>475.7</ele>
        <time>2014-05-18T09:01:24.000Z</time>
      </trkpt>
      <trkpt lat="47.40217" lon="6.70413">
        <ele>475.9</ele>
        <time>2014-05-18T09:01:25.000Z</time>
      </trkpt>
      <trkpt lat="47.40221" lon="6.70417">
        <ele>476.6</ele>
        <time>2014-05-18T09:01:26.000Z</time>
      </trkpt>
      <trkpt lat="47.40225" lon="6.70422">
        <ele>477</ele>
        <time>2014-05-18T09:01:27.000Z</time>
      </trkpt>
      <trkpt lat="47.40229" lon="6.70427">
        <ele>477.6</ele>
        <time>2014-05-18T09:01:28.000Z</time>
      </trkpt>
      <trkpt lat="47.40233" lon="6.70433">
        <ele>477.9</ele>
        <time>2014-05-18T09:01:29.000Z</time>
      </trkpt>
      <trkpt lat="47.40237" lon="6.70438">
        <ele>476.7</ele>
        <time>2014-05-18T09:01:30.000Z</time>
      </trkpt>
      <trkpt lat="47.40241" lon="6.70442">
        <ele>477.5</ele>
        <time>2014-05-18T09:01:31.000Z</time>
      </trkpt>
      <trkpt lat="47.40244" lon="6.70445">
        <ele>476.4</ele>
        <time>2014-05-18T09:01:32.000Z</time>
      </trkpt>
      <trkpt lat="47.40247" lon="6.70449">
        <ele>477.5</ele>
        <time>2014-05-18T09:01:33.000Z</time>
      </trkpt>
      <trkpt lat="47.4025" lon="6.70451">
        <ele>478.1</ele>
        <time>2014-05-18T09:01:34.000Z</time>
      </trkpt>
      <trkpt lat="47.40252" lon="6.70452">
        <ele>478.3</ele>
        <time>2014-05-18T09:01:35.000Z</time>
      </trkpt>
      <trkpt lat="47.40256" lon="6.70454">
        <ele>481.6</ele>
        <time>2014-05-18T09:01:37.000Z</time>
      </trkpt>
      <trkpt lat="47.40258" lon="6.70456">
        <ele>481.9</ele>
        <time>2014-05-18T09:01:38.000Z</time>
      </trkpt>
      <trkpt lat="47.4026" lon="6.70457">
        <ele>481.2</ele>
        <time>2014-05-18T09:01:39.000Z</time>
      </trkpt>
      <trkpt lat="47.40262" lon="6.70458">
        <ele>479.2</ele>
        <time>2014-05-18T09:01:40.000Z</time>
      </trkpt>
      <trkpt lat="47.40266" lon="6.70459">
        <ele>479.5</ele>
        <time>2014-05-18T09:01:41.000Z</time>
      </trkpt>
      <trkpt lat="47.40269" lon="6.70461">
        <ele>479.4</ele>
        <time>2014-05-18T09:01:42.000Z</time>
      </trkpt>
      <trkpt lat="47.40273" lon="6.70463">
        <ele>478.5</ele>
        <time>2014-05-18T09:01:43.000Z</time>
      </trkpt>
      <trkpt lat="47.40276" lon="6.70467">
        <ele>480.4</ele>
        <time>2014-05-18T09:01:44.000Z</time>
      </trkpt>
      <trkpt lat="47.4028" lon="6.70471">
        <ele>479.6</ele>
        <time>2014-05-18T09:01:45.000Z</time>
      </trkpt>
      <trkpt lat="47.40283" lon="6.70477">
        <ele>479.9</ele>
        <time>2014-05-18T09:01:46.000Z</time>
      </trkpt>
      <trkpt lat="47.40329" lon="6.70525">
        <ele>470.8</ele>
        <time>2014-05-18T09:01:54.000Z</time>
      </trkpt>
      <trkpt lat="47.40338" lon="6.7053">
        <ele>469.4</ele>
        <time>2014-05-18T09:01:55.000Z</time>
      </trkpt>
      <trkpt lat="47.40346" lon="6.70539">
        <ele>469.1</ele>
        <time>2014-05-18T09:01:56.000Z</time>
      </trkpt>
      <trkpt lat="47.40354" lon="6.70546">
        <ele>469.5</ele>
        <time>2014-05-18T09:01:57.000Z</time>
      </trkpt>
      <trkpt lat="47.40361" lon="6.70553">
        <ele>469.9</ele>
        <time>2014-05-18T09:01:58.000Z</time>
      </trkpt>
      <trkpt lat="47.40369" lon="6.70562">
        <ele>468.8</ele>
        <time>2014-05-18T09:01:59.000Z</time>
      </trkpt>
      <trkpt lat="47.40374" lon="6.70569">
        <ele>468.4</ele>
        <time>2014-05-18T09:02:00.000Z</time>
      </trkpt>
      <trkpt lat="47.4038" lon="6.70575">
        <ele>468.6</ele>
        <time>2014-05-18T09:02:01.000Z</time>
      </trkpt>
      <trkpt lat="47.40381" lon="6.70581">
        <ele>466.9</ele>
        <time>2014-05-18T09:02:02.000Z</time>
      </trkpt>
      <trkpt lat="47.4039" lon="6.70588">
        <ele>467.9</ele>
        <time>2014-05-18T09:02:03.000Z</time>
      </trkpt>
      <trkpt lat="47.40398" lon="6.70592">
        <ele>467.8</ele>
        <time>2014-05-18T09:02:04.000Z</time>
      </trkpt>
      <trkpt lat="47.40404" lon="6.70599">
        <ele>468</ele>
        <time>2014-05-18T09:02:05.000Z</time>
      </trkpt>
      <trkpt lat="47.40412" lon="6.70602">
        <ele>469.5</ele>
        <time>2014-05-18T09:02:06.000Z</time>
      </trkpt>
      <trkpt lat="47.40416" lon="6.70609">
        <ele>469</ele>
        <time>2014-05-18T09:02:07.000Z</time>
      </trkpt>
      <trkpt lat="47.40421" lon="6.70618">
        <ele>467.7</ele>
        <time>2014-05-18T09:02:08.000Z</time>
      </trkpt>
      <trkpt lat="47.40427" lon="6.70626">
        <ele>467.7</ele>
        <time>2014-05-18T09:02:09.000Z</time>
      </trkpt>
      <trkpt lat="47.40437" lon="6.70632">
        <ele>466.7</ele>
        <time>2014-05-18T09:02:10.000Z</time>
      </trkpt>
      <trkpt lat="47.40445" lon="6.70637">
        <ele>467</ele>
        <time>2014-05-18T09:02:11.000Z</time>
      </trkpt>
      <trkpt lat="47.40454" lon="6.70641">
        <ele>466.1</ele>
        <time>2014-05-18T09:02:12.000Z</time>
      </trkpt>
      <trkpt lat="47.40456" lon="6.70643">
        <ele>463.5</ele>
        <time>2014-05-18T09:02:13.000Z</time>
      </trkpt>
      <trkpt lat="47.40456" lon="6.70648">
        <ele>462.2</ele>
        <time>2014-05-18T09:02:14.000Z</time>
      </trkpt>
      <trkpt lat="47.40458" lon="6.70649">
        <ele>461</ele>
        <time>2014-05-18T09:02:15.000Z</time>
      </trkpt>
      <trkpt lat="47.40461" lon="6.7065">
        <ele>460.1</ele>
        <time>2014-05-18T09:02:16.000Z</time>
      </trkpt>
      <trkpt lat="47.40463" lon="6.70649">
        <ele>460.2</ele>
        <time>2014-05-18T09:02:17.000Z</time>
      </trkpt>
      <trkpt lat="47.40475" lon="6.70649">
        <ele>461</ele>
        <time>2014-05-18T09:02:18.000Z</time>
      </trkpt>
      <trkpt lat="47.40483" lon="6.70646">
        <ele>461</ele>
        <time>2014-05-18T09:02:19.000Z</time>
      </trkpt>
      <trkpt lat="47.40491" lon="6.70646">
        <ele>461.3</ele>
        <time>2014-05-18T09:02:20.000Z</time>
      </trkpt>
      <trkpt lat="47.40496" lon="6.70643">
        <ele>462.9</ele>
        <time>2014-05-18T09:02:21.000Z</time>
      </trkpt>
      <trkpt lat="47.40501" lon="6.70641">
        <ele>463.8</ele>
        <time>2014-05-18T09:02:22.000Z</time>
      </trkpt>
      <trkpt lat="47.40507" lon="6.7064">
        <ele>464</ele>
        <time>2014-05-18T09:02:23.000Z</time>
      </trkpt>
      <trkpt lat="47.40512" lon="6.70638">
        <ele>463.2</ele>
        <time>2014-05-18T09:02:24.000Z</time>
      </trkpt>
      <trkpt lat="47.40518" lon="6.70635">
        <ele>461.4</ele>
        <time>2014-05-18T09:02:25.000Z</time>
      </trkpt>
      <trkpt lat="47.40524" lon="6.70633">
        <ele>460.9</ele>
        <time>2014-05-18T09:02:26.000Z</time>
      </trkpt>
      <trkpt lat="47.40528" lon="6.7063">
        <ele>461.1</ele>
        <time>2014-05-18T09:02:27.000Z</time>
      </trkpt>
      <trkpt lat="47.40534" lon="6.70627">
        <ele>461.4</ele>
        <time>2014-05-18T09:02:28.000Z</time>
      </trkpt>
      <trkpt lat="47.40539" lon="6.70629">
        <ele>460.5</ele>
        <time>2014-05-18T09:02:29.000Z</time>
      </trkpt>
      <trkpt lat="47.40545" lon="6.70625">
        <ele>459.6</ele>
        <time>2014-05-18T09:02:30.000Z</time>
      </trkpt>
      <trkpt lat="47.40546" lon="6.70621">
        <ele>458.8</ele>
        <time>2014-05-18T09:02:31.000Z</time>
      </trkpt>
      <trkpt lat="47.40552" lon="6.70618">
        <ele>458.2</ele>
        <time>2014-05-18T09:02:32.000Z</time>
      </trkpt>
      <trkpt lat="47.40559" lon="6.70614">
        <ele>457.3</ele>
        <time>2014-05-18T09:02:33.000Z</time>
      </trkpt>
      <trkpt lat="47.40565" lon="6.70616">
        <ele>456.1</ele>
        <time>2014-05-18T09:02:34.000Z</time>
      </trkpt>
      <trkpt lat="47.40571" lon="6.70615">
        <ele>455.7</ele>
        <time>2014-05-18T09:02:35.000Z</time>
      </trkpt>
      <trkpt lat="47.40578" lon="6.70612">
        <ele>455.7</ele>
        <time>2014-05-18T09:02:36.000Z</time>
      </trkpt>
      <trkpt lat="47.40585" lon="6.70608">
        <ele>454.5</ele>
        <time>2014-05-18T09:02:37.000Z</time>
      </trkpt>
      <trkpt lat="47.4059" lon="6.70604">
        <ele>454.1</ele>
        <time>2014-05-18T09:02:38.000Z</time>
      </trkpt>
      <trkpt lat="47.40593" lon="6.70603">
        <ele>454.5</ele>
        <time>2014-05-18T09:02:39.000Z</time>
      </trkpt>
      <trkpt lat="47.40599" lon="6.70599">
        <ele>453.2</ele>
        <time>2014-05-18T09:02:40.000Z</time>
      </trkpt>
      <trkpt lat="47.40604" lon="6.70596">
        <ele>452</ele>
        <time>2014-05-18T09:02:41.000Z</time>
      </trkpt>
      <trkpt lat="47.4061" lon="6.7059">
        <ele>451.3</ele>
        <time>2014-05-18T09:02:42.000Z</time>
      </trkpt>
      <trkpt lat="47.40616" lon="6.70587">
        <ele>451.1</ele>
        <time>2014-05-18T09:02:43.000Z</time>
      </trkpt>
      <trkpt lat="47.40622" lon="6.7058">
        <ele>452.5</ele>
        <time>2014-05-18T09:02:44.000Z</time>
      </trkpt>
      <trkpt lat="47.40628" lon="6.70576">
        <ele>454.2</ele>
        <time>2014-05-18T09:02:45.000Z</time>
      </trkpt>
      <trkpt lat="47.40632" lon="6.70571">
        <ele>456.4</ele>
        <time>2014-05-18T09:02:46.000Z</time>
      </trkpt>
      <trkpt lat="47.40662" lon="6.70524">
        <ele>463.3</ele>
        <time>2014-05-18T09:02:54.000Z</time>
      </trkpt>
      <trkpt lat="47.40664" lon="6.70519">
        <ele>464.5</ele>
        <time>2014-05-18T09:02:55.000Z</time>
      </trkpt>
      <trkpt lat="47.40667" lon="6.70513">
        <ele>460.6</ele>
        <time>2014-05-18T09:02:56.000Z</time>
      </trkpt>
      <trkpt lat="47.40669" lon="6.70511">
        <ele>455.4</ele>
        <time>2014-05-18T09:02:58.000Z</time>
      </trkpt>
      <trkpt lat="47.40671" lon="6.70507">
        <ele>453.8</ele>
        <time>2014-05-18T09:02:59.000Z</time>
      </trkpt>
      <trkpt lat="47.40671" lon="6.70502">
        <ele>453.2</ele>
        <time>2014-05-18T09:03:00.000Z</time>
      </trkpt>
      <trkpt lat="47.40671" lon="6.70497">
        <ele>452.8</ele>
        <time>2014-05-18T09:03:01.000Z</time>
      </trkpt>
      <trkpt lat="47.40672" lon="6.70491">
        <ele>451.1</ele>
        <time>2014-05-18T09:03:02.000Z</time>
      </trkpt>
      <trkpt lat="47.40673" lon="6.70486">
        <ele>449.8</ele>
        <time>2014-05-18T09:03:03.000Z</time>
      </trkpt>
      <trkpt lat="47.40674" lon="6.7048">
        <ele>449.7</ele>
        <time>2014-05-18T09:03:04.000Z</time>
      </trkpt>
      <trkpt lat="47.40675" lon="6.70476">
        <ele>449.4</ele>
        <time>2014-05-18T09:03:05.000Z</time>
      </trkpt>
      <trkpt lat="47.40675" lon="6.70472">
        <ele>450.3</ele>
        <time>2014-05-18T09:03:06.000Z</time>
      </trkpt>
      <trkpt lat="47.40676" lon="6.70469">
        <ele>450.2</ele>
        <time>2014-05-18T09:03:07.000Z</time>
      </trkpt>
      <trkpt lat="47.40677" lon="6.70466">
        <ele>450.1</ele>
        <time>2014-05-18T09:03:08.000Z</time>
      </trkpt>
      <trkpt lat="47.40677" lon="6.70462">
        <ele>449.8</ele>
        <time>2014-05-18T09:03:09.000Z</time>
      </trkpt>
      <trkpt lat="47.40678" lon="6.70457">
        <ele>448.9</ele>
        <time>2014-05-18T09:03:10.000Z</time>
      </trkpt>
      <trkpt lat="47.40678" lon="6.70451">
        <ele>447.2</ele>
        <time>2014-05-18T09:03:11.000Z</time>
      </trkpt>
      <trkpt lat="47.40676" lon="6.70432">
        <ele>446.5</ele>
        <time>2014-05-18T09:03:12.000Z</time>
      </trkpt>
      <trkpt lat="47.40681" lon="6.70425">
        <ele>446.8</ele>
        <time>2014-05-18T09:03:13.000Z</time>
      </trkpt>
      <trkpt lat="47.40684" lon="6.70417">
        <ele>446.6</ele>
        <time>2014-05-18T09:03:14.000Z</time>
      </trkpt>
      <trkpt lat="47.40689" lon="6.70419">
        <ele>443.8</ele>
        <time>2014-05-18T09:03:15.000Z</time>
      </trkpt>
      <trkpt lat="47.40691" lon="6.70416">
        <ele>440.7</ele>
        <time>2014-05-18T09:03:16.000Z</time>
      </trkpt>
      <trkpt lat="47.40693" lon="6.70413">
        <ele>440.1</ele>
        <time>2014-05-18T09:03:17.000Z</time>
      </trkpt>
      <trkpt lat="47.40697" lon="6.70413">
        <ele>438.3</ele>
        <time>2014-05-18T09:03:19.000Z</time>
      </trkpt>
      <trkpt lat="47.407" lon="6.70413">
        <ele>436.5</ele>
        <time>2014-05-18T09:03:20.000Z</time>
      </trkpt>
      <trkpt lat="47.40703" lon="6.70413">
        <ele>435.8</ele>
        <time>2014-05-18T09:03:21.000Z</time>
      </trkpt>
      <trkpt lat="47.40707" lon="6.70414">
        <ele>435.5</ele>
        <time>2014-05-18T09:03:22.000Z</time>
      </trkpt>
      <trkpt lat="47.4071" lon="6.70414">
        <ele>436.3</ele>
        <time>2014-05-18T09:03:23.000Z</time>
      </trkpt>
      <trkpt lat="47.40713" lon="6.70413">
        <ele>435.1</ele>
        <time>2014-05-18T09:03:24.000Z</time>
      </trkpt>
      <trkpt lat="47.40716" lon="6.70412">
        <ele>433.6</ele>
        <time>2014-05-18T09:03:25.000Z</time>
      </trkpt>
      <trkpt lat="47.40719" lon="6.70411">
        <ele>433.7</ele>
        <time>2014-05-18T09:03:26.000Z</time>
      </trkpt>
      <trkpt lat="47.40722" lon="6.70411">
        <ele>429</ele>
        <time>2014-05-18T09:03:27.000Z</time>
      </trkpt>
      <trkpt lat="47.40724" lon="6.70411">
        <ele>428.4</ele>
        <time>2014-05-18T09:03:28.000Z</time>
      </trkpt>
      <trkpt lat="47.40727" lon="6.70412">
        <ele>431.2</ele>
        <time>2014-05-18T09:03:29.000Z</time>
      </trkpt>
      <trkpt lat="47.40729" lon="6.70414">
        <ele>433.2</ele>
        <time>2014-05-18T09:03:30.000Z</time>
      </trkpt>
      <trkpt lat="47.40732" lon="6.70416">
        <ele>431.8</ele>
        <time>2014-05-18T09:03:31.000Z</time>
      </trkpt>
      <trkpt lat="47.40735" lon="6.70418">
        <ele>431.8</ele>
        <time>2014-05-18T09:03:32.000Z</time>
      </trkpt>
      <trkpt lat="47.40738" lon="6.70419">
        <ele>432</ele>
        <time>2014-05-18T09:03:33.000Z</time>
      </trkpt>
      <trkpt lat="47.40741" lon="6.7042">
        <ele>432.9</ele>
        <time>2014-05-18T09:03:34.000Z</time>
      </trkpt>
      <trkpt lat="47.40744" lon="6.70421">
        <ele>432.4</ele>
        <time>2014-05-18T09:03:35.000Z</time>
      </trkpt>
      <trkpt lat="47.40746" lon="6.70421">
        <ele>433.5</ele>
        <time>2014-05-18T09:03:36.000Z</time>
      </trkpt>
      <trkpt lat="47.4075" lon="6.70422">
        <ele>434</ele>
        <time>2014-05-18T09:03:38.000Z</time>
      </trkpt>
      <trkpt lat="47.40753" lon="6.70423">
        <ele>434.9</ele>
        <time>2014-05-18T09:03:39.000Z</time>
      </trkpt>
      <trkpt lat="47.40756" lon="6.70423">
        <ele>434</ele>
        <time>2014-05-18T09:03:40.000Z</time>
      </trkpt>
      <trkpt lat="47.40759" lon="6.70423">
        <ele>432.9</ele>
        <time>2014-05-18T09:03:41.000Z</time>
      </trkpt>
      <trkpt lat="47.40762" lon="6.70423">
        <ele>432.6</ele>
        <time>2014-05-18T09:03:42.000Z</time>
      </trkpt>
      <trkpt lat="47.40775" lon="6.7042">
        <ele>437.6</ele>
        <time>2014-05-18T09:03:43.000Z</time>
      </trkpt>
      <trkpt lat="47.40783" lon="6.70422">
        <ele>435.5</ele>
        <time>2014-05-18T09:03:44.000Z</time>
      </trkpt>
      <trkpt lat="47.40791" lon="6.7042">
        <ele>436</ele>
        <time>2014-05-18T09:03:45.000Z</time>
      </trkpt>
      <trkpt lat="47.40796" lon="6.7042">
        <ele>435.9</ele>
        <time>2014-05-18T09:03:46.000Z</time>
      </trkpt>
      <trkpt lat="47.40842" lon="6.70421">
        <ele>428.7</ele>
        <time>2014-05-18T09:03:54.000Z</time>
      </trkpt>
      <trkpt lat="47.40843" lon="6.70426">
        <ele>426.1</ele>
        <time>2014-05-18T09:03:55.000Z</time>
      </trkpt>
      <trkpt lat="47.40844" lon="6.70433">
        <ele>423.2</ele>
        <time>2014-05-18T09:03:56.000Z</time>
      </trkpt>
      <trkpt lat="47.4085" lon="6.70436">
        <ele>423</ele>
        <time>2014-05-18T09:03:57.000Z</time>
      </trkpt>
      <trkpt lat="47.40856" lon="6.70437">
        <ele>423.4</ele>
        <time>2014-05-18T09:03:58.000Z</time>
      </trkpt>
      <trkpt lat="47.40861" lon="6.70436">
        <ele>423.6</ele>
        <time>2014-05-18T09:03:59.000Z</time>
      </trkpt>
      <trkpt lat="47.40869" lon="6.70435">
        <ele>424.6</ele>
        <time>2014-05-18T09:04:00.000Z</time>
      </trkpt>
      <trkpt lat="47.40872" lon="6.70435">
        <ele>424.5</ele>
        <time>2014-05-18T09:04:01.000Z</time>
      </trkpt>
      <trkpt lat="47.40881" lon="6.70436">
        <ele>425</ele>
        <time>2014-05-18T09:04:02.000Z</time>
      </trkpt>
      <trkpt lat="47.40887" lon="6.70434">
        <ele>424.2</ele>
        <time>2014-05-18T09:04:03.000Z</time>
      </trkpt>
      <trkpt lat="47.40891" lon="6.7043">
        <ele>422.8</ele>
        <time>2014-05-18T09:04:04.000Z</time>
      </trkpt>
      <trkpt lat="47.40896" lon="6.70428">
        <ele>422.7</ele>
        <time>2014-05-18T09:04:05.000Z</time>
      </trkpt>
      <trkpt lat="47.40902" lon="6.70426">
        <ele>420.7</ele>
        <time>2014-05-18T09:04:06.000Z</time>
      </trkpt>
      <trkpt lat="47.40907" lon="6.70425">
        <ele>418.5</ele>
        <time>2014-05-18T09:04:07.000Z</time>
      </trkpt>
      <trkpt lat="47.40911" lon="6.70422">
        <ele>416.5</ele>
        <time>2014-05-18T09:04:08.000Z</time>
      </trkpt>
      <trkpt lat="47.40912" lon="6.70416">
        <ele>416.2</ele>
        <time>2014-05-18T09:04:09.000Z</time>
      </trkpt>
      <trkpt lat="47.40915" lon="6.70412">
        <ele>414.9</ele>
        <time>2014-05-18T09:04:10.000Z</time>
      </trkpt>
      <trkpt lat="47.40918" lon="6.70407">
        <ele>414.1</ele>
        <time>2014-05-18T09:04:11.000Z</time>
      </trkpt>
      <trkpt lat="47.40919" lon="6.70403">
        <ele>413.5</ele>
        <time>2014-05-18T09:04:12.000Z</time>
      </trkpt>
      <trkpt lat="47.40922" lon="6.704">
        <ele>413.9</ele>
        <time>2014-05-18T09:04:14.000Z</time>
      </trkpt>
      <trkpt lat="47.40923" lon="6.70399">
        <ele>414.4</ele>
        <time>2014-05-18T09:04:15.000Z</time>
      </trkpt>
      <trkpt lat="47.40926" lon="6.70397">
        <ele>415.4</ele>
        <time>2014-05-18T09:04:17.000Z</time>
      </trkpt>
      <trkpt lat="47.40928" lon="6.70396">
        <ele>413.8</ele>
        <time>2014-05-18T09:04:18.000Z</time>
      </trkpt>
      <trkpt lat="47.40931" lon="6.70395">
        <ele>415</ele>
        <time>2014-05-18T09:04:20.000Z</time>
      </trkpt>
      <trkpt lat="47.40933" lon="6.70394">
        <ele>414.1</ele>
        <time>2014-05-18T09:04:21.000Z</time>
      </trkpt>
      <trkpt lat="47.40935" lon="6.70393">
        <ele>415.9</ele>
        <time>2014-05-18T09:04:22.000Z</time>
      </trkpt>
      <trkpt lat="47.40938" lon="6.70393">
        <ele>415.4</ele>
        <time>2014-05-18T09:04:23.000Z</time>
      </trkpt>
      <trkpt lat="47.40941" lon="6.70392">
        <ele>414.8</ele>
        <time>2014-05-18T09:04:24.000Z</time>
      </trkpt>
      <trkpt lat="47.40944" lon="6.70392">
        <ele>414.9</ele>
        <time>2014-05-18T09:04:25.000Z</time>
      </trkpt>
      <trkpt lat="47.40948" lon="6.70392">
        <ele>414.5</ele>
        <time>2014-05-18T09:04:26.000Z</time>
      </trkpt>
      <trkpt lat="47.40951" lon="6.70392">
        <ele>414.4</ele>
        <time>2014-05-18T09:04:27.000Z</time>
      </trkpt>
      <trkpt lat="47.40955" lon="6.70392">
        <ele>414.3</ele>
        <time>2014-05-18T09:04:28.000Z</time>
      </trkpt>
      <trkpt lat="47.40958" lon="6.70393">
        <ele>414</ele>
        <time>2014-05-18T09:04:29.000Z</time>
      </trkpt>
      <trkpt lat="47.40962" lon="6.70394">
        <ele>413.1</ele>
        <time>2014-05-18T09:04:30.000Z</time>
      </trkpt>
      <trkpt lat="47.40965" lon="6.70395">
        <ele>412.7</ele>
        <time>2014-05-18T09:04:31.000Z</time>
      </trkpt>
      <trkpt lat="47.40968" lon="6.70395">
        <ele>413.7</ele>
        <time>2014-05-18T09:04:32.000Z</time>
      </trkpt>
      <trkpt lat="47.40972" lon="6.70396">
        <ele>414.6</ele>
        <time>2014-05-18T09:04:33.000Z</time>
      </trkpt>
      <trkpt lat="47.40975" lon="6.70397">
        <ele>414.1</ele>
        <time>2014-05-18T09:04:34.000Z</time>
      </trkpt>
      <trkpt lat="47.40979" lon="6.70398">
        <ele>414.6</ele>
        <time>2014-05-18T09:04:35.000Z</time>
      </trkpt>
      <trkpt lat="47.40984" lon="6.70401">
        <ele>415</ele>
        <time>2014-05-18T09:04:36.000Z</time>
      </trkpt>
      <trkpt lat="47.41002" lon="6.70407">
        <ele>414.2</ele>
        <time>2014-05-18T09:04:37.000Z</time>
      </trkpt>
      <trkpt lat="47.41007" lon="6.70407">
        <ele>414.2</ele>
        <time>2014-05-18T09:04:38.000Z</time>
      </trkpt>
      <trkpt lat="47.41014" lon="6.70408">
        <ele>415.1</ele>
        <time>2014-05-18T09:04:39.000Z</time>
      </trkpt>
      <trkpt lat="47.41019" lon="6.70412">
        <ele>412.4</ele>
        <time>2014-05-18T09:04:40.000Z</time>
      </trkpt>
      <trkpt lat="47.41025" lon="6.70415">
        <ele>410.7</ele>
        <time>2014-05-18T09:04:41.000Z</time>
      </trkpt>
      <trkpt lat="47.41031" lon="6.7042">
        <ele>408.5</ele>
        <time>2014-05-18T09:04:42.000Z</time>
      </trkpt>
      <trkpt lat="47.41037" lon="6.70424">
        <ele>407</ele>
        <time>2014-05-18T09:04:43.000Z</time>
      </trkpt>
      <trkpt lat="47.41044" lon="6.70428">
        <ele>406.3</ele>
        <time>2014-05-18T09:04:44.000Z</time>
      </trkpt>
      <trkpt lat="47.41048" lon="6.70431">
        <ele>404.6</ele>
        <time>2014-05-18T09:04:45.000Z</time>
      </trkpt>
      <trkpt lat="47.41051" lon="6.70433">
        <ele>404</ele>
        <time>2014-05-18T09:04:46.000Z</time>
      </trkpt>
      <trkpt lat="47.41086" lon="6.70423">
        <ele>398.6</ele>
        <time>2014-05-18T09:04:54.000Z</time>
      </trkpt>
      <trkpt lat="47.41088" lon="6.70418">
        <ele>398</ele>
        <time>2014-05-18T09:04:55.000Z</time>
      </trkpt>
      <trkpt lat="47.4109" lon="6.70413">
        <ele>396.9</ele>
        <time>2014-05-18T09:04:56.000Z</time>
      </trkpt>
      <trkpt lat="47.41092" lon="6.70408">
        <ele>397.2</ele>
        <time>2014-05-18T09:04:57.000Z</time>
      </trkpt>
      <trkpt lat="47.41093" lon="6.70402">
        <ele>396.7</ele>
        <time>2014-05-18T09:04:58.000Z</time>
      </trkpt>
      <trkpt lat="47.41094" lon="6.70396">
        <ele>397</ele>
        <time>2014-05-18T09:04:59.000Z</time>
      </trkpt>
      <trkpt lat="47.41095" lon="6.70392">
        <ele>396.3</ele>
        <time>2014-05-18T09:05:00.000Z</time>
      </trkpt>
      <trkpt lat="47.41097" lon="6.70382">
        <ele>394.2</ele>
        <time>2014-05-18T09:05:01.000Z</time>
      </trkpt>
      <trkpt lat="47.41098" lon="6.70373">
        <ele>393.9</ele>
        <time>2014-05-18T09:05:02.000Z</time>
      </trkpt>
      <trkpt lat="47.411" lon="6.70361">
        <ele>393.3</ele>
        <time>2014-05-18T09:05:03.000Z</time>
      </trkpt>
      <trkpt lat="47.41104" lon="6.70351">
        <ele>393</ele>
        <time>2014-05-18T09:05:04.000Z</time>
      </trkpt>
      <trkpt lat="47.41107" lon="6.70341">
        <ele>393.9</ele>
        <time>2014-05-18T09:05:05.000Z</time>
      </trkpt>
      <trkpt lat="47.4111" lon="6.7033">
        <ele>393.4</ele>
        <time>2014-05-18T09:05:06.000Z</time>
      </trkpt>
      <trkpt lat="47.41114" lon="6.70322">
        <ele>393.7</ele>
        <time>2014-05-18T09:05:07.000Z</time>
      </trkpt>
      <trkpt lat="47.41119" lon="6.70314">
        <ele>393.2</ele>
        <time>2014-05-18T09:05:08.000Z</time>
      </trkpt>
      <trkpt lat="47.41123" lon="6.70304">
        <ele>392.2</ele>
        <time>2014-05-18T09:05:09.000Z</time>
      </trkpt>
      <trkpt lat="47.41126" lon="6.70292">
        <ele>391.5</ele>
        <time>2014-05-18T09:05:10.000Z</time>
      </trkpt>
      <trkpt lat="47.41129" lon="6.7028">
        <ele>391.5</ele>
        <time>2014-05-18T09:05:11.000Z</time>
      </trkpt>
      <trkpt lat="47.4113" lon="6.7027">
        <ele>391</ele>
        <time>2014-05-18T09:05:12.000Z</time>
      </trkpt>
      <trkpt lat="47.4113" lon="6.70261">
        <ele>389.9</ele>
        <time>2014-05-18T09:05:13.000Z</time>
      </trkpt>
      <trkpt lat="47.4113" lon="6.70253">
        <ele>389.3</ele>
        <time>2014-05-18T09:05:14.000Z</time>
      </trkpt>
      <trkpt lat="47.41132" lon="6.70244">
        <ele>389.5</ele>
        <time>2014-05-18T09:05:15.000Z</time>
      </trkpt>
      <trkpt lat="47.41137" lon="6.70238">
        <ele>388</ele>
        <time>2014-05-18T09:05:16.000Z</time>
      </trkpt>
      <trkpt lat="47.41141" lon="6.70234">
        <ele>386.5</ele>
        <time>2014-05-18T09:05:17.000Z</time>
      </trkpt>
      <trkpt lat="47.41144" lon="6.70232">
        <ele>383.6</ele>
        <time>2014-05-18T09:05:19.000Z</time>
      </trkpt>
      <trkpt lat="47.41145" lon="6.70232">
        <ele>384</ele>
        <time>2014-05-18T09:05:20.000Z</time>
      </trkpt>
      <trkpt lat="47.41148" lon="6.70228">
        <ele>381.6</ele>
        <time>2014-05-18T09:05:22.000Z</time>
      </trkpt>
      <trkpt lat="47.41144" lon="6.70225">
        <ele>382.4</ele>
        <time>2014-05-18T09:05:23.000Z</time>
      </trkpt>
      <trkpt lat="47.41141" lon="6.70221">
        <ele>382.4</ele>
        <time>2014-05-18T09:05:24.000Z</time>
      </trkpt>
      <trkpt lat="47.4114" lon="6.70217">
        <ele>383</ele>
        <time>2014-05-18T09:05:25.000Z</time>
      </trkpt>
      <trkpt lat="47.41138" lon="6.70212">
        <ele>383.7</ele>
        <time>2014-05-18T09:05:26.000Z</time>
      </trkpt>
      <trkpt lat="47.41136" lon="6.70209">
        <ele>383.9</ele>
        <time>2014-05-18T09:05:27.000Z</time>
      </trkpt>
      <trkpt lat="47.41136" lon="6.70205">
        <ele>380.4</ele>
        <time>2014-05-18T09:05:28.000Z</time>
      </trkpt>
      <trkpt lat="47.41136" lon="6.70201">
        <ele>379.7</ele>
        <time>2014-05-18T09:05:29.000Z</time>
      </trkpt>
      <trkpt lat="47.41138" lon="6.70196">
        <ele>388.5</ele>
        <time>2014-05-18T09:05:32.000Z</time>
      </trkpt>
      <trkpt lat="47.41138" lon="6.70195">
        <ele>389.1</ele>
        <time>2014-05-18T09:05:33.000Z</time>
      </trkpt>
      <trkpt lat="47.41141" lon="6.70191">
        <ele>389</ele>
        <time>2014-05-18T09:05:36.000Z</time>
      </trkpt>
      <trkpt lat="47.41142" lon="6.70191">
        <ele>388.9</ele>
        <time>2014-05-18T09:05:37.000Z</time>
      </trkpt>
      <trkpt lat="47.41145" lon="6.70186">
        <ele>390.2</ele>
        <time>2014-05-18T09:05:40.000Z</time>
      </trkpt>
      <trkpt lat="47.41145" lon="6.70184">
        <ele>390.1</ele>
        <time>2014-05-18T09:05:41.000Z</time>
      </trkpt>
      <trkpt lat="47.41148" lon="6.70181">
        <ele>389.7</ele>
        <time>2014-05-18T09:05:44.000Z</time>
      </trkpt>
      <trkpt lat="47.41151" lon="6.7018">
        <ele>391.2</ele>
        <time>2014-05-18T09:05:45.000Z</time>
      </trkpt>
      <trkpt lat="47.41154" lon="6.7018">
        <ele>391.8</ele>
        <time>2014-05-18T09:05:46.000Z</time>
      </trkpt>
      <trkpt lat="47.41179" lon="6.70167">
        <ele>390.8</ele>
        <time>2014-05-18T09:05:54.000Z</time>
      </trkpt>
      <trkpt lat="47.41184" lon="6.70165">
        <ele>390.5</ele>
        <time>2014-05-18T09:05:55.000Z</time>
      </trkpt>
      <trkpt lat="47.4119" lon="6.70163">
        <ele>392</ele>
        <time>2014-05-18T09:05:56.000Z</time>
      </trkpt>
      <trkpt lat="47.41194" lon="6.70163">
        <ele>392.8</ele>
        <time>2014-05-18T09:05:57.001Z</time>
      </trkpt>
      <trkpt lat="47.412" lon="6.70162">
        <ele>392</ele>
        <time>2014-05-18T09:05:58.000Z</time>
      </trkpt>
      <trkpt lat="47.41205" lon="6.70162">
        <ele>392.1</ele>
        <time>2014-05-18T09:05:59.000Z</time>
      </trkpt>
      <trkpt lat="47.41209" lon="6.70161">
        <ele>391</ele>
        <time>2014-05-18T09:06:00.000Z</time>
      </trkpt>
      <trkpt lat="47.41214" lon="6.7016">
        <ele>390.5</ele>
        <time>2014-05-18T09:06:01.000Z</time>
      </trkpt>
      <trkpt lat="47.4122" lon="6.70159">
        <ele>389.6</ele>
        <time>2014-05-18T09:06:02.000Z</time>
      </trkpt>
      <trkpt lat="47.41225" lon="6.70158">
        <ele>389.8</ele>
        <time>2014-05-18T09:06:03.000Z</time>
      </trkpt>
      <trkpt lat="47.41229" lon="6.70157">
        <ele>390.4</ele>
        <time>2014-05-18T09:06:04.000Z</time>
      </trkpt>
      <trkpt lat="47.41233" lon="6.70157">
        <ele>389.5</ele>
        <time>2014-05-18T09:06:05.000Z</time>
      </trkpt>
      <trkpt lat="47.41237" lon="6.7016">
        <ele>391.9</ele>
        <time>2014-05-18T09:06:06.000Z</time>
      </trkpt>
      <trkpt lat="47.41243" lon="6.70157">
        <ele>392.7</ele>
        <time>2014-05-18T09:06:07.000Z</time>
      </trkpt>
      <trkpt lat="47.4125" lon="6.70157">
        <ele>389.6</ele>
        <time>2014-05-18T09:06:08.000Z</time>
      </trkpt>
      <trkpt lat="47.41256" lon="6.70159">
        <ele>389.2</ele>
        <time>2014-05-18T09:06:09.000Z</time>
      </trkpt>
      <trkpt lat="47.4126" lon="6.70159">
        <ele>389.1</ele>
        <time>2014-05-18T09:06:10.000Z</time>
      </trkpt>
      <trkpt lat="47.41266" lon="6.70157">
        <ele>388.6</ele>
        <time>2014-05-18T09:06:11.000Z</time>
      </trkpt>
      <trkpt lat="47.4127" lon="6.70157">
        <ele>388.4</ele>
        <time>2014-05-18T09:06:12.000Z</time>
      </trkpt>
      <trkpt lat="47.41275" lon="6.70156">
        <ele>387.8</ele>
        <time>2014-05-18T09:06:13.000Z</time>
      </trkpt>
      <trkpt lat="47.41279" lon="6.70151">
        <ele>387.9</ele>
        <time>2014-05-18T09:06:14.000Z</time>
      </trkpt>
      <trkpt lat="47.41282" lon="6.7015">
        <ele>387.7</ele>
        <time>2014-05-18T09:06:15.000Z</time>
      </trkpt>
      <trkpt lat="47.41286" lon="6.70147">
        <ele>387.5</ele>
        <time>2014-05-18T09:06:16.000Z</time>
      </trkpt>
      <trkpt lat="47.41292" lon="6.70145">
        <ele>386.4</ele>
        <time>2014-05-18T09:06:17.000Z</time>
      </trkpt>
      <trkpt lat="47.41296" lon="6.70142">
        <ele>385.8</ele>
        <time>2014-05-18T09:06:18.000Z</time>
      </trkpt>
      <trkpt lat="47.413" lon="6.70139">
        <ele>385.3</ele>
        <time>2014-05-18T09:06:19.000Z</time>
      </trkpt>
      <trkpt lat="47.41302" lon="6.70138">
        <ele>386.6</ele>
        <time>2014-05-18T09:06:20.000Z</time>
      </trkpt>
      <trkpt lat="47.41305" lon="6.70139">
        <ele>386.1</ele>
        <time>2014-05-18T09:06:21.000Z</time>
      </trkpt>
      <trkpt lat="47.41308" lon="6.70136">
        <ele>385.6</ele>
        <time>2014-05-18T09:06:22.000Z</time>
      </trkpt>
      <trkpt lat="47.4131" lon="6.70138">
        <ele>383.7</ele>
        <time>2014-05-18T09:06:23.000Z</time>
      </trkpt>
      <trkpt lat="47.41312" lon="6.70134">
        <ele>383.8</ele>
        <time>2014-05-18T09:06:24.000Z</time>
      </trkpt>
      <trkpt lat="47.41314" lon="6.70132">
        <ele>382.5</ele>
        <time>2014-05-18T09:06:25.000Z</time>
      </trkpt>
      <trkpt lat="47.41316" lon="6.70129">
        <ele>382.9</ele>
        <time>2014-05-18T09:06:26.000Z</time>
      </trkpt>
      <trkpt lat="47.41319" lon="6.70127">
        <ele>382.2</ele>
        <time>2014-05-18T09:06:27.000Z</time>
      </trkpt>
      <trkpt lat="47.41321" lon="6.70124">
        <ele>380.7</ele>
        <time>2014-05-18T09:06:28.000Z</time>
      </trkpt>
      <trkpt lat="47.41323" lon="6.70122">
        <ele>379.8</ele>
        <time>2014-05-18T09:06:29.000Z</time>
      </trkpt>
      <trkpt lat="47.41323" lon="6.70117">
        <ele>378.7</ele>
        <time>2014-05-18T09:06:30.000Z</time>
      </trkpt>
      <trkpt lat="47.41325" lon="6.70112">
        <ele>377.8</ele>
        <time>2014-05-18T09:06:31.000Z</time>
      </trkpt>
      <trkpt lat="47.41327" lon="6.70107">
        <ele>377.4</ele>
        <time>2014-05-18T09:06:32.000Z</time>
      </trkpt>
      <trkpt lat="47.41329" lon="6.70103">
        <ele>380.8</ele>
        <time>2014-05-18T09:06:33.000Z</time>
      </trkpt>
      <trkpt lat="47.41332" lon="6.70099">
        <ele>382.8</ele>
        <time>2014-05-18T09:06:34.000Z</time>
      </trkpt>
      <trkpt lat="47.41336" lon="6.70095">
        <ele>383.7</ele>
        <time>2014-05-18T09:06:35.000Z</time>
      </trkpt>
      <trkpt lat="47.41339" lon="6.70091">
        <ele>384.6</ele>
        <time>2014-05-18T09:06:36.000Z</time>
      </trkpt>
      <trkpt lat="47.41343" lon="6.70088">
        <ele>384.3</ele>
        <time>2014-05-18T09:06:37.000Z</time>
      </trkpt>
      <trkpt lat="47.41346" lon="6.70084">
        <ele>383.7</ele>
        <time>2014-05-18T09:06:38.000Z</time>
      </trkpt>
      <trkpt lat="47.4135" lon="6.70081">
        <ele>382.3</ele>
        <time>2014-05-18T09:06:39.000Z</time>
      </trkpt>
      <trkpt lat="47.41353" lon="6.70078">
        <ele>381.3</ele>
        <time>2014-05-18T09:06:40.000Z</time>
      </trkpt>
      <trkpt lat="47.41355" lon="6.70074">
        <ele>379.6</ele>
        <time>2014-05-18T09:06:41.000Z</time>
      </trkpt>
      <trkpt lat="47.41357" lon="6.70071">
        <ele>380.1</ele>
        <time>2014-05-18T09:06:42.000Z</time>
      </trkpt>
      <trkpt lat="47.41359" lon="6.70067">
        <ele>380.3</ele>
        <time>2014-05-18T09:06:43.000Z</time>
      </trkpt>
      <trkpt lat="47.41361" lon="6.70062">
        <ele>380.5</ele>
        <time>2014-05-18T09:06:44.000Z</time>
      </trkpt>
      <trkpt lat="47.41363" lon="6.70057">
        <ele>379.6</ele>
        <time>2014-05-18T09:06:45.000Z</time>
      </trkpt>
      <trkpt lat="47.41365" lon="6.70052">
        <ele>379.9</ele>
        <time>2014-05-18T09:06:46.000Z</time>
      </trkpt>
      <trkpt lat="47.41388" lon="6.70026">
        <ele>379</ele>
        <time>2014-05-18T09:06:54.000Z</time>
      </trkpt>
      <trkpt lat="47.41392" lon="6.70026">
        <ele>378.2</ele>
        <time>2014-05-18T09:06:55.000Z</time>
      </trkpt>
      <trkpt lat="47.41402" lon="6.7003">
        <ele>374.5</ele>
        <time>2014-05-18T09:06:56.000Z</time>
      </trkpt>
      <trkpt lat="47.41408" lon="6.70029">
        <ele>374.7</ele>
        <time>2014-05-18T09:06:57.000Z</time>
      </trkpt>
      <trkpt lat="47.41414" lon="6.70029">
        <ele>373.4</ele>
        <time>2014-05-18T09:06:58.000Z</time>
      </trkpt>
      <trkpt lat="47.41419" lon="6.70029">
        <ele>372.7</ele>
        <time>2014-05-18T09:06:59.000Z</time>
      </trkpt>
      <trkpt lat="47.41424" lon="6.7003">
        <ele>372.6</ele>
        <time>2014-05-18T09:07:00.000Z</time>
      </trkpt>
      <trkpt lat="47.41429" lon="6.7003">
        <ele>371.6</ele>
        <time>2014-05-18T09:07:01.000Z</time>
      </trkpt>
      <trkpt lat="47.41435" lon="6.70032">
        <ele>371.5</ele>
        <time>2014-05-18T09:07:02.000Z</time>
      </trkpt>
      <trkpt lat="47.41442" lon="6.70033">
        <ele>371.5</ele>
        <time>2014-05-18T09:07:03.000Z</time>
      </trkpt>
      <trkpt lat="47.41449" lon="6.70035">
        <ele>370.4</ele>
        <time>2014-05-18T09:07:04.000Z</time>
      </trkpt>
      <trkpt lat="47.41455" lon="6.70037">
        <ele>369.7</ele>
        <time>2014-05-18T09:07:05.000Z</time>
      </trkpt>
      <trkpt lat="47.41459" lon="6.7004">
        <ele>370.5</ele>
        <time>2014-05-18T09:07:06.000Z</time>
      </trkpt>
      <trkpt lat="47.41465" lon="6.70043">
        <ele>370.5</ele>
        <time>2014-05-18T09:07:07.000Z</time>
      </trkpt>
      <trkpt lat="47.41472" lon="6.70046">
        <ele>370.1</ele>
        <time>2014-05-18T09:07:08.000Z</time>
      </trkpt>
      <trkpt lat="47.41477" lon="6.70046">
        <ele>369.6</ele>
        <time>2014-05-18T09:07:09.000Z</time>
      </trkpt>
      <trkpt lat="47.41483" lon="6.70045">
        <ele>368.6</ele>
        <time>2014-05-18T09:07:10.000Z</time>
      </trkpt>
      <trkpt lat="47.41489" lon="6.70043">
        <ele>368.4</ele>
        <time>2014-05-18T09:07:11.000Z</time>
      </trkpt>
      <trkpt lat="47.41495" lon="6.7004">
        <ele>368.7</ele>
        <time>2014-05-18T09:07:12.000Z</time>
      </trkpt>
      <trkpt lat="47.41501" lon="6.70038">
        <ele>367.7</ele>
        <time>2014-05-18T09:07:13.000Z</time>
      </trkpt>
      <trkpt lat="47.41508" lon="6.70035">
        <ele>366.3</ele>
        <time>2014-05-18T09:07:14.000Z</time>
      </trkpt>
      <trkpt lat="47.41514" lon="6.7003">
        <ele>366.9</ele>
        <time>2014-05-18T09:07:15.000Z</time>
      </trkpt>
      <trkpt lat="47.4152" lon="6.70028">
        <ele>367.8</ele>
        <time>2014-05-18T09:07:16.000Z</time>
      </trkpt>
      <trkpt lat="47.41525" lon="6.70026">
        <ele>368</ele>
        <time>2014-05-18T09:07:17.000Z</time>
      </trkpt>
      <trkpt lat="47.41532" lon="6.70024">
        <ele>368.1</ele>
        <time>2014-05-18T09:07:18.000Z</time>
      </trkpt>
      <trkpt lat="47.41537" lon="6.70021">
        <ele>368.3</ele>
        <time>2014-05-18T09:07:19.000Z</time>
      </trkpt>
      <trkpt lat="47.41543" lon="6.7002">
        <ele>368.2</ele>
        <time>2014-05-18T09:07:20.000Z</time>
      </trkpt>
      <trkpt lat="47.41549" lon="6.70018">
        <ele>368.2</ele>
        <time>2014-05-18T09:07:21.000Z</time>
      </trkpt>
      <trkpt lat="47.41554" lon="6.70015">
        <ele>368.4</ele>
        <time>2014-05-18T09:07:22.000Z</time>
      </trkpt>
      <trkpt lat="47.41559" lon="6.70014">
        <ele>368.3</ele>
        <time>2014-05-18T09:07:23.000Z</time>
      </trkpt>
      <trkpt lat="47.41565" lon="6.70011">
        <ele>368.1</ele>
        <time>2014-05-18T09:07:24.000Z</time>
      </trkpt>
      <trkpt lat="47.41571" lon="6.70009">
        <ele>367.7</ele>
        <time>2014-05-18T09:07:25.000Z</time>
      </trkpt>
      <trkpt lat="47.41577" lon="6.70006">
        <ele>368.3</ele>
        <time>2014-05-18T09:07:26.000Z</time>
      </trkpt>
      <trkpt lat="47.41582" lon="6.70005">
        <ele>368.6</ele>
        <time>2014-05-18T09:07:27.000Z</time>
      </trkpt>
      <trkpt lat="47.41587" lon="6.70003">
        <ele>369.2</ele>
        <time>2014-05-18T09:07:28.000Z</time>
      </trkpt>
      <trkpt lat="47.41593" lon="6.70002">
        <ele>368.4</ele>
        <time>2014-05-18T09:07:29.000Z</time>
      </trkpt>
      <trkpt lat="47.41599" lon="6.7">
        <ele>368.6</ele>
        <time>2014-05-18T09:07:30.000Z</time>
      </trkpt>
      <trkpt lat="47.41605" lon="6.69999">
        <ele>368.7</ele>
        <time>2014-05-18T09:07:31.000Z</time>
      </trkpt>
      <trkpt lat="47.41612" lon="6.69996">
        <ele>368.9</ele>
        <time>2014-05-18T09:07:32.000Z</time>
      </trkpt>
      <trkpt lat="47.41619" lon="6.69995">
        <ele>368.9</ele>
        <time>2014-05-18T09:07:33.000Z</time>
      </trkpt>
      <trkpt lat="47.41625" lon="6.69993">
        <ele>368.3</ele>
        <time>2014-05-18T09:07:34.000Z</time>
      </trkpt>
      <trkpt lat="47.41631" lon="6.69992">
        <ele>368.8</ele>
        <time>2014-05-18T09:07:35.000Z</time>
      </trkpt>
      <trkpt lat="47.41637" lon="6.69991">
        <ele>370.1</ele>
        <time>2014-05-18T09:07:36.000Z</time>
      </trkpt>
      <trkpt lat="47.41643" lon="6.69991">
        <ele>369.8</ele>
        <time>2014-05-18T09:07:37.000Z</time>
      </trkpt>
      <trkpt lat="47.41648" lon="6.6999">
        <ele>370.7</ele>
        <time>2014-05-18T09:07:38.000Z</time>
      </trkpt>
      <trkpt lat="47.41654" lon="6.6999">
        <ele>371</ele>
        <time>2014-05-18T09:07:39.000Z</time>
      </trkpt>
      <trkpt lat="47.41659" lon="6.69989">
        <ele>371</ele>
        <time>2014-05-18T09:07:40.000Z</time>
      </trkpt>
      <trkpt lat="47.41664" lon="6.69989">
        <ele>371.9</ele>
        <time>2014-05-18T09:07:41.000Z</time>
      </trkpt>
      <trkpt lat="47.41669" lon="6.69989">
        <ele>372.2</ele>
        <time>2014-05-18T09:07:42.000Z</time>
      </trkpt>
      <trkpt lat="47.41675" lon="6.69989">
        <ele>372</ele>
        <time>2014-05-18T09:07:43.000Z</time>
      </trkpt>
      <trkpt lat="47.4168" lon="6.69989">
        <ele>372.3</ele>
        <time>2014-05-18T09:07:44.000Z</time>
      </trkpt>
      <trkpt lat="47.41684" lon="6.69991">
        <ele>372.8</ele>
        <time>2014-05-18T09:07:45.000Z</time>
      </trkpt>
      <trkpt lat="47.4169" lon="6.69992">
        <ele>373</ele>
        <time>2014-05-18T09:07:46.000Z</time>
      </trkpt>
      <trkpt lat="47.41726" lon="6.69998">
        <ele>373.2</ele>
        <time>2014-05-18T09:07:54.000Z</time>
      </trkpt>
      <trkpt lat="47.41732" lon="6.69998">
        <ele>373.1</ele>
        <time>2014-05-18T09:07:55.000Z</time>
      </trkpt>
      <trkpt lat="47.41735" lon="6.69997">
        <ele>373.1</ele>
        <time>2014-05-18T09:07:56.000Z</time>
      </trkpt>
      <trkpt lat="47.41741" lon="6.69997">
        <ele>372.8</ele>
        <time>2014-05-18T09:07:57.000Z</time>
      </trkpt>
      <trkpt lat="47.41748" lon="6.69997">
        <ele>372</ele>
        <time>2014-05-18T09:07:58.000Z</time>
      </trkpt>
      <trkpt lat="47.41754" lon="6.69997">
        <ele>372.3</ele>
        <time>2014-05-18T09:07:59.000Z</time>
      </trkpt>
      <trkpt lat="47.41759" lon="6.69995">
        <ele>372.3</ele>
        <time>2014-05-18T09:08:00.000Z</time>
      </trkpt>
      <trkpt lat="47.41765" lon="6.69996">
        <ele>372.7</ele>
        <time>2014-05-18T09:08:01.000Z</time>
      </trkpt>
      <trkpt lat="47.41771" lon="6.69996">
        <ele>372.3</ele>
        <time>2014-05-18T09:08:02.000Z</time>
      </trkpt>
      <trkpt lat="47.41776" lon="6.69996">
        <ele>372.2</ele>
        <time>2014-05-18T09:08:03.000Z</time>
      </trkpt>
      <trkpt lat="47.41782" lon="6.69996">
        <ele>371.9</ele>
        <time>2014-05-18T09:08:04.000Z</time>
      </trkpt>
      <trkpt lat="47.41787" lon="6.69994">
        <ele>372.2</ele>
        <time>2014-05-18T09:08:05.000Z</time>
      </trkpt>
      <trkpt lat="47.41793" lon="6.69994">
        <ele>372.3</ele>
        <time>2014-05-18T09:08:06.000Z</time>
      </trkpt>
      <trkpt lat="47.41799" lon="6.69993">
        <ele>373</ele>
        <time>2014-05-18T09:08:07.000Z</time>
      </trkpt>
      <trkpt lat="47.41806" lon="6.69993">
        <ele>371</ele>
        <time>2014-05-18T09:08:08.000Z</time>
      </trkpt>
      <trkpt lat="47.41811" lon="6.69992">
        <ele>370.7</ele>
        <time>2014-05-18T09:08:09.000Z</time>
      </trkpt>
      <trkpt lat="47.41816" lon="6.69992">
        <ele>370.7</ele>
        <time>2014-05-18T09:08:10.000Z</time>
      </trkpt>
      <trkpt lat="47.41822" lon="6.69991">
        <ele>372.3</ele>
        <time>2014-05-18T09:08:11.000Z</time>
      </trkpt>
      <trkpt lat="47.41829" lon="6.69992">
        <ele>372.2</ele>
        <time>2014-05-18T09:08:12.000Z</time>
      </trkpt>
      <trkpt lat="47.41835" lon="6.6999">
        <ele>371.3</ele>
        <time>2014-05-18T09:08:13.000Z</time>
      </trkpt>
      <trkpt lat="47.41841" lon="6.69991">
        <ele>371.3</ele>
        <time>2014-05-18T09:08:14.000Z</time>
      </trkpt>
      <trkpt lat="47.41847" lon="6.69988">
        <ele>371.5</ele>
        <time>2014-05-18T09:08:15.000Z</time>
      </trkpt>
      <trkpt lat="47.41853" lon="6.69985">
        <ele>371</ele>
        <time>2014-05-18T09:08:16.000Z</time>
      </trkpt>
      <trkpt lat="47.41859" lon="6.69981">
        <ele>371.2</ele>
        <time>2014-05-18T09:08:17.000Z</time>
      </trkpt>
      <trkpt lat="47.41865" lon="6.69979">
        <ele>371</ele>
        <time>2014-05-18T09:08:18.000Z</time>
      </trkpt>
      <trkpt lat="47.41871" lon="6.69975">
        <ele>370.9</ele>
        <time>2014-05-18T09:08:19.000Z</time>
      </trkpt>
      <trkpt lat="47.41877" lon="6.69971">
        <ele>370.8</ele>
        <time>2014-05-18T09:08:20.000Z</time>
      </trkpt>
      <trkpt lat="47.41882" lon="6.69968">
        <ele>372.1</ele>
        <time>2014-05-18T09:08:21.000Z</time>
      </trkpt>
      <trkpt lat="47.41887" lon="6.69966">
        <ele>372.8</ele>
        <time>2014-05-18T09:08:22.000Z</time>
      </trkpt>
      <trkpt lat="47.41893" lon="6.69964">
        <ele>372.8</ele>
        <time>2014-05-18T09:08:23.000Z</time>
      </trkpt>
      <trkpt lat="47.41898" lon="6.69961">
        <ele>372.9</ele>
        <time>2014-05-18T09:08:24.000Z</time>
      </trkpt>
      <trkpt lat="47.41903" lon="6.69958">
        <ele>373.5</ele>
        <time>2014-05-18T09:08:25.000Z</time>
      </trkpt>
      <trkpt lat="47.41908" lon="6.69955">
        <ele>373.2</ele>
        <time>2014-05-18T09:08:26.000Z</time>
      </trkpt>
      <trkpt lat="47.41914" lon="6.69953">
        <ele>372.3</ele>
        <time>2014-05-18T09:08:27.000Z</time>
      </trkpt>
      <trkpt lat="47.41919" lon="6.69951">
        <ele>372.1</ele>
        <time>2014-05-18T09:08:28.000Z</time>
      </trkpt>
      <trkpt lat="47.41924" lon="6.6995">
        <ele>372.4</ele>
        <time>2014-05-18T09:08:29.000Z</time>
      </trkpt>
      <trkpt lat="47.41929" lon="6.69948">
        <ele>372.6</ele>
        <time>2014-05-18T09:08:30.000Z</time>
      </trkpt>
      <trkpt lat="47.41933" lon="6.69948">
        <ele>372.2</ele>
        <time>2014-05-18T09:08:31.000Z</time>
      </trkpt>
      <trkpt lat="47.41938" lon="6.69947">
        <ele>373.2</ele>
        <time>2014-05-18T09:08:32.000Z</time>
      </trkpt>
      <trkpt lat="47.41943" lon="6.69946">
        <ele>373.4</ele>
        <time>2014-05-18T09:08:33.000Z</time>
      </trkpt>
      <trkpt lat="47.41947" lon="6.69944">
        <ele>373.5</ele>
        <time>2014-05-18T09:08:34.000Z</time>
      </trkpt>
      <trkpt lat="47.41953" lon="6.69943">
        <ele>372.3</ele>
        <time>2014-05-18T09:08:35.000Z</time>
      </trkpt>
      <trkpt lat="47.41959" lon="6.69942">
        <ele>372.4</ele>
        <time>2014-05-18T09:08:36.000Z</time>
      </trkpt>
      <trkpt lat="47.41963" lon="6.69941">
        <ele>373.3</ele>
        <time>2014-05-18T09:08:37.000Z</time>
      </trkpt>
      <trkpt lat="47.41969" lon="6.69939">
        <ele>372.8</ele>
        <time>2014-05-18T09:08:38.000Z</time>
      </trkpt>
      <trkpt lat="47.41975" lon="6.69937">
        <ele>372.8</ele>
        <time>2014-05-18T09:08:39.000Z</time>
      </trkpt>
      <trkpt lat="47.4198" lon="6.69935">
        <ele>373.3</ele>
        <time>2014-05-18T09:08:40.000Z</time>
      </trkpt>
      <trkpt lat="47.41984" lon="6.69934">
        <ele>374</ele>
        <time>2014-05-18T09:08:41.000Z</time>
      </trkpt>
      <trkpt lat="47.4199" lon="6.69934">
        <ele>373.8</ele>
        <time>2014-05-18T09:08:42.000Z</time>
      </trkpt>
      <trkpt lat="47.41994" lon="6.69933">
        <ele>373</ele>
        <time>2014-05-18T09:08:43.000Z</time>
      </trkpt>
      <trkpt lat="47.41999" lon="6.69932">
        <ele>373.5</ele>
        <time>2014-05-18T09:08:44.000Z</time>
      </trkpt>
      <trkpt lat="47.42003" lon="6.69931">
        <ele>373.9</ele>
        <time>2014-05-18T09:08:45.000Z</time>
      </trkpt>
      <trkpt lat="47.42007" lon="6.69931">
        <ele>373.5</ele>
        <time>2014-05-18T09:08:46.000Z</time>
      </trkpt>
      <trkpt lat="47.42048" lon="6.69927">
        <ele>373.6</ele>
        <time>2014-05-18T09:08:54.000Z</time>
      </trkpt>
      <trkpt lat="47.42053" lon="6.69926">
        <ele>373.7</ele>
        <time>2014-05-18T09:08:55.000Z</time>
      </trkpt>
      <trkpt lat="47.42057" lon="6.69926">
        <ele>372.7</ele>
        <time>2014-05-18T09:08:56.000Z</time>
      </trkpt>
      <trkpt lat="47.42062" lon="6.69926">
        <ele>371.5</ele>
        <time>2014-05-18T09:08:57.000Z</time>
      </trkpt>
      <trkpt lat="47.42067" lon="6.69925">
        <ele>371.1</ele>
        <time>2014-05-18T09:08:58.000Z</time>
      </trkpt>
      <trkpt lat="47.42073" lon="6.69924">
        <ele>371.1</ele>
        <time>2014-05-18T09:08:59.000Z</time>
      </trkpt>
      <trkpt lat="47.42078" lon="6.69923">
        <ele>371</ele>
        <time>2014-05-18T09:09:00.000Z</time>
      </trkpt>
      <trkpt lat="47.42086" lon="6.69921">
        <ele>370.6</ele>
        <time>2014-05-18T09:09:01.000Z</time>
      </trkpt>
      <trkpt lat="47.42092" lon="6.69919">
        <ele>369.8</ele>
        <time>2014-05-18T09:09:02.000Z</time>
      </trkpt>
      <trkpt lat="47.42098" lon="6.69915">
        <ele>369.9</ele>
        <time>2014-05-18T09:09:03.000Z</time>
      </trkpt>
      <trkpt lat="47.42105" lon="6.69911">
        <ele>369.9</ele>
        <time>2014-05-18T09:09:04.000Z</time>
      </trkpt>
      <trkpt lat="47.42111" lon="6.69906">
        <ele>369.6</ele>
        <time>2014-05-18T09:09:05.000Z</time>
      </trkpt>
      <trkpt lat="47.42119" lon="6.69902">
        <ele>368.4</ele>
        <time>2014-05-18T09:09:06.000Z</time>
      </trkpt>
      <trkpt lat="47.42126" lon="6.69897">
        <ele>367.5</ele>
        <time>2014-05-18T09:09:07.000Z</time>
      </trkpt>
      <trkpt lat="47.42134" lon="6.69893">
        <ele>367</ele>
        <time>2014-05-18T09:09:08.000Z</time>
      </trkpt>
      <trkpt lat="47.42141" lon="6.69889">
        <ele>367.6</ele>
        <time>2014-05-18T09:09:09.000Z</time>
      </trkpt>
      <trkpt lat="47.42148" lon="6.69883">
        <ele>367.4</ele>
        <time>2014-05-18T09:09:10.000Z</time>
      </trkpt>
      <trkpt lat="47.42156" lon="6.69877">
        <ele>366.2</ele>
        <time>2014-05-18T09:09:11.000Z</time>
      </trkpt>
      <trkpt lat="47.42164" lon="6.6987">
        <ele>365.8</ele>
        <time>2014-05-18T09:09:12.000Z</time>
      </trkpt>
      <trkpt lat="47.42171" lon="6.69867">
        <ele>364.4</ele>
        <time>2014-05-18T09:09:13.000Z</time>
      </trkpt>
      <trkpt lat="47.42178" lon="6.69862">
        <ele>364.4</ele>
        <time>2014-05-18T09:09:14.000Z</time>
      </trkpt>
      <trkpt lat="47.42184" lon="6.69857">
        <ele>364.8</ele>
        <time>2014-05-18T09:09:15.000Z</time>
      </trkpt>
      <trkpt lat="47.4219" lon="6.69852">
        <ele>365.4</ele>
        <time>2014-05-18T09:09:16.000Z</time>
      </trkpt>
      <trkpt lat="47.42196" lon="6.69849">
        <ele>365.7</ele>
        <time>2014-05-18T09:09:17.000Z</time>
      </trkpt>
      <trkpt lat="47.422" lon="6.69846">
        <ele>366.2</ele>
        <time>2014-05-18T09:09:18.000Z</time>
      </trkpt>
      <trkpt lat="47.42205" lon="6.69843">
        <ele>367.1</ele>
        <time>2014-05-18T09:09:19.000Z</time>
      </trkpt>
      <trkpt lat="47.4221" lon="6.6984">
        <ele>365.7</ele>
        <time>2014-05-18T09:09:20.000Z</time>
      </trkpt>
      <trkpt lat="47.42215" lon="6.69837">
        <ele>365.5</ele>
        <time>2014-05-18T09:09:21.000Z</time>
      </trkpt>
      <trkpt lat="47.42219" lon="6.69835">
        <ele>366.1</ele>
        <time>2014-05-18T09:09:22.000Z</time>
      </trkpt>
      <trkpt lat="47.42222" lon="6.69833">
        <ele>367.2</ele>
        <time>2014-05-18T09:09:23.000Z</time>
      </trkpt>
      <trkpt lat="47.42225" lon="6.69832">
        <ele>369.3</ele>
        <time>2014-05-18T09:09:24.000Z</time>
      </trkpt>
      <trkpt lat="47.42228" lon="6.69834">
        <ele>370.5</ele>
        <time>2014-05-18T09:09:25.000Z</time>
      </trkpt>
      <trkpt lat="47.42231" lon="6.69836">
        <ele>371.1</ele>
        <time>2014-05-18T09:09:26.000Z</time>
      </trkpt>
      <trkpt lat="47.42233" lon="6.69839">
        <ele>370.5</ele>
        <time>2014-05-18T09:09:27.000Z</time>
      </trkpt>
      <trkpt lat="47.42234" lon="6.69844">
        <ele>370.7</ele>
        <time>2014-05-18T09:09:28.000Z</time>
      </trkpt>
      <trkpt lat="47.42236" lon="6.69848">
        <ele>371</ele>
        <time>2014-05-18T09:09:29.000Z</time>
      </trkpt>
      <trkpt lat="47.42239" lon="6.69851">
        <ele>372</ele>
        <time>2014-05-18T09:09:29.998Z</time>
      </trkpt>
      <trkpt lat="47.42241" lon="6.69854">
        <ele>372.3</ele>
        <time>2014-05-18T09:09:31.001Z</time>
      </trkpt>
      <trkpt lat="47.42242" lon="6.69857">
        <ele>371.6</ele>
        <time>2014-05-18T09:09:32.000Z</time>
      </trkpt>
      <trkpt lat="47.42243" lon="6.6986">
        <ele>371.7</ele>
        <time>2014-05-18T09:09:33.000Z</time>
      </trkpt>
      <trkpt lat="47.42244" lon="6.69864">
        <ele>371.6</ele>
        <time>2014-05-18T09:09:34.000Z</time>
      </trkpt>
      <trkpt lat="47.42245" lon="6.69867">
        <ele>371.5</ele>
        <time>2014-05-18T09:09:35.000Z</time>
      </trkpt>
      <trkpt lat="47.42246" lon="6.69871">
        <ele>372.3</ele>
        <time>2014-05-18T09:09:36.000Z</time>
      </trkpt>
      <trkpt lat="47.42247" lon="6.69874">
        <ele>372.3</ele>
        <time>2014-05-18T09:09:37.000Z</time>
      </trkpt>
      <trkpt lat="47.4225" lon="6.69876">
        <ele>373</ele>
        <time>2014-05-18T09:09:39.000Z</time>
      </trkpt>
      <trkpt lat="47.42253" lon="6.69876">
        <ele>373.5</ele>
        <time>2014-05-18T09:09:40.000Z</time>
      </trkpt>
      <trkpt lat="47.42256" lon="6.69874">
        <ele>374.2</ele>
        <time>2014-05-18T09:09:41.000Z</time>
      </trkpt>
      <trkpt lat="47.42259" lon="6.69873">
        <ele>374.8</ele>
        <time>2014-05-18T09:09:42.000Z</time>
      </trkpt>
      <trkpt lat="47.42262" lon="6.69872">
        <ele>375.9</ele>
        <time>2014-05-18T09:09:43.000Z</time>
      </trkpt>
      <trkpt lat="47.42266" lon="6.69871">
        <ele>376.3</ele>
        <time>2014-05-18T09:09:44.000Z</time>
      </trkpt>
      <trkpt lat="47.42269" lon="6.6987">
        <ele>375.7</ele>
        <time>2014-05-18T09:09:45.000Z</time>
      </trkpt>
      <trkpt lat="47.42273" lon="6.69871">
        <ele>375.4</ele>
        <time>2014-05-18T09:09:46.000Z</time>
      </trkpt>
      <trkpt lat="47.42299" lon="6.69877">
        <ele>374.4</ele>
        <time>2014-05-18T09:09:54.000Z</time>
      </trkpt>
      <trkpt lat="47.42303" lon="6.69878">
        <ele>374.8</ele>
        <time>2014-05-18T09:09:55.000Z</time>
      </trkpt>
      <trkpt lat="47.42306" lon="6.69879">
        <ele>374</ele>
        <time>2014-05-18T09:09:56.000Z</time>
      </trkpt>
      <trkpt lat="47.42309" lon="6.6988">
        <ele>374.2</ele>
        <time>2014-05-18T09:09:57.000Z</time>
      </trkpt>
      <trkpt lat="47.42313" lon="6.69881">
        <ele>374.3</ele>
        <time>2014-05-18T09:09:58.000Z</time>
      </trkpt>
      <trkpt lat="47.42316" lon="6.69882">
        <ele>374.1</ele>
        <time>2014-05-18T09:09:59.000Z</time>
      </trkpt>
      <trkpt lat="47.42319" lon="6.69883">
        <ele>373.8</ele>
        <time>2014-05-18T09:10:00.000Z</time>
      </trkpt>
      <trkpt lat="47.42323" lon="6.69883">
        <ele>373.4</ele>
        <time>2014-05-18T09:10:01.000Z</time>
      </trkpt>
      <trkpt lat="47.42326" lon="6.69884">
        <ele>372.2</ele>
        <time>2014-05-18T09:10:02.000Z</time>
      </trkpt>
      <trkpt lat="47.42329" lon="6.69884">
        <ele>372.4</ele>
        <time>2014-05-18T09:10:03.000Z</time>
      </trkpt>
      <trkpt lat="47.42333" lon="6.69884">
        <ele>373.1</ele>
        <time>2014-05-18T09:10:04.000Z</time>
      </trkpt>
      <trkpt lat="47.42336" lon="6.69882">
        <ele>372.2</ele>
        <time>2014-05-18T09:10:05.000Z</time>
      </trkpt>
      <trkpt lat="47.42339" lon="6.6988">
        <ele>372.6</ele>
        <time>2014-05-18T09:10:06.000Z</time>
      </trkpt>
      <trkpt lat="47.42341" lon="6.69877">
        <ele>372</ele>
        <time>2014-05-18T09:10:07.000Z</time>
      </trkpt>
      <trkpt lat="47.42343" lon="6.69874">
        <ele>372.6</ele>
        <time>2014-05-18T09:10:08.000Z</time>
      </trkpt>
      <trkpt lat="47.42345" lon="6.6987">
        <ele>373.5</ele>
        <time>2014-05-18T09:10:09.000Z</time>
      </trkpt>
      <trkpt lat="47.42346" lon="6.69865">
        <ele>374.3</ele>
        <time>2014-05-18T09:10:10.000Z</time>
      </trkpt>
      <trkpt lat="47.42347" lon="6.69861">
        <ele>374.7</ele>
        <time>2014-05-18T09:10:11.000Z</time>
      </trkpt>
      <trkpt lat="47.42347" lon="6.69856">
        <ele>375</ele>
        <time>2014-05-18T09:10:12.000Z</time>
      </trkpt>
      <trkpt lat="47.42347" lon="6.6985">
        <ele>375.3</ele>
        <time>2014-05-18T09:10:13.000Z</time>
      </trkpt>
      <trkpt lat="47.42347" lon="6.69845">
        <ele>375.5</ele>
        <time>2014-05-18T09:10:14.000Z</time>
      </trkpt>
      <trkpt lat="47.42347" lon="6.6984">
        <ele>375.5</ele>
        <time>2014-05-18T09:10:15.000Z</time>
      </trkpt>
      <trkpt lat="47.42346" lon="6.69835">
        <ele>376.3</ele>
        <time>2014-05-18T09:10:16.000Z</time>
      </trkpt>
      <trkpt lat="47.42346" lon="6.6983">
        <ele>376.8</ele>
        <time>2014-05-18T09:10:17.000Z</time>
      </trkpt>
      <trkpt lat="47.42345" lon="6.69826">
        <ele>377</ele>
        <time>2014-05-18T09:10:18.000Z</time>
      </trkpt>
      <trkpt lat="47.42344" lon="6.69822">
        <ele>377.5</ele>
        <time>2014-05-18T09:10:19.000Z</time>
      </trkpt>
      <trkpt lat="47.42344" lon="6.69817">
        <ele>378.2</ele>
        <time>2014-05-18T09:10:20.000Z</time>
      </trkpt>
      <trkpt lat="47.42343" lon="6.69813">
        <ele>379</ele>
        <time>2014-05-18T09:10:21.000Z</time>
      </trkpt>
      <trkpt lat="47.42343" lon="6.69808">
        <ele>379.5</ele>
        <time>2014-05-18T09:10:22.000Z</time>
      </trkpt>
      <trkpt lat="47.42342" lon="6.69804">
        <ele>379.7</ele>
        <time>2014-05-18T09:10:23.000Z</time>
      </trkpt>
      <trkpt lat="47.42342" lon="6.69799">
        <ele>379.6</ele>
        <time>2014-05-18T09:10:24.000Z</time>
      </trkpt>
      <trkpt lat="47.42342" lon="6.69795">
        <ele>379.3</ele>
        <time>2014-05-18T09:10:25.000Z</time>
      </trkpt>
      <trkpt lat="47.42342" lon="6.6979">
        <ele>379.4</ele>
        <time>2014-05-18T09:10:26.000Z</time>
      </trkpt>
      <trkpt lat="47.42342" lon="6.69786">
        <ele>380.3</ele>
        <time>2014-05-18T09:10:27.000Z</time>
      </trkpt>
      <trkpt lat="47.42342" lon="6.69781">
        <ele>380.8</ele>
        <time>2014-05-18T09:10:28.000Z</time>
      </trkpt>
      <trkpt lat="47.42342" lon="6.69777">
        <ele>382.1</ele>
        <time>2014-05-18T09:10:29.000Z</time>
      </trkpt>
      <trkpt lat="47.42341" lon="6.69772">
        <ele>382.5</ele>
        <time>2014-05-18T09:10:30.000Z</time>
      </trkpt>
      <trkpt lat="47.42341" lon="6.69767">
        <ele>382.6</ele>
        <time>2014-05-18T09:10:31.000Z</time>
      </trkpt>
      <trkpt lat="47.42341" lon="6.69762">
        <ele>382.2</ele>
        <time>2014-05-18T09:10:32.000Z</time>
      </trkpt>
      <trkpt lat="47.42341" lon="6.69758">
        <ele>382.1</ele>
        <time>2014-05-18T09:10:33.000Z</time>
      </trkpt>
      <trkpt lat="47.42341" lon="6.69753">
        <ele>381.4</ele>
        <time>2014-05-18T09:10:34.000Z</time>
      </trkpt>
      <trkpt lat="47.42341" lon="6.69749">
        <ele>380.9</ele>
        <time>2014-05-18T09:10:35.000Z</time>
      </trkpt>
      <trkpt lat="47.42341" lon="6.69745">
        <ele>381</ele>
        <time>2014-05-18T09:10:36.000Z</time>
      </trkpt>
      <trkpt lat="47.42341" lon="6.6974">
        <ele>380.7</ele>
        <time>2014-05-18T09:10:37.000Z</time>
      </trkpt>
      <trkpt lat="47.42341" lon="6.69735">
        <ele>380.8</ele>
        <time>2014-05-18T09:10:38.000Z</time>
      </trkpt>
      <trkpt lat="47.42341" lon="6.69731">
        <ele>380.6</ele>
        <time>2014-05-18T09:10:39.000Z</time>
      </trkpt>
      <trkpt lat="47.42342" lon="6.69726">
        <ele>381</ele>
        <time>2014-05-18T09:10:40.000Z</time>
      </trkpt>
      <trkpt lat="47.42342" lon="6.69721">
        <ele>381.1</ele>
        <time>2014-05-18T09:10:41.000Z</time>
      </trkpt>
      <trkpt lat="47.42342" lon="6.69717">
        <ele>381.2</ele>
        <time>2014-05-18T09:10:42.000Z</time>
      </trkpt>
      <trkpt lat="47.42343" lon="6.69713">
        <ele>381.7</ele>
        <time>2014-05-18T09:10:43.000Z</time>
      </trkpt>
      <trkpt lat="47.42344" lon="6.69708">
        <ele>381.2</ele>
        <time>2014-05-18T09:10:44.000Z</time>
      </trkpt>
      <trkpt lat="47.42345" lon="6.69703">
        <ele>381.7</ele>
        <time>2014-05-18T09:10:45.000Z</time>
      </trkpt>
      <trkpt lat="47.42346" lon="6.69699">
        <ele>381.3</ele>
        <time>2014-05-18T09:10:46.000Z</time>
      </trkpt>
      <trkpt lat="47.4235" lon="6.69686">
        <ele>382.1</ele>
        <time>2014-05-18T09:10:49.000Z</time>
      </trkpt>
      <trkpt lat="47.42352" lon="6.69682">
        <ele>382.5</ele>
        <time>2014-05-18T09:10:50.000Z</time>
      </trkpt>
      <trkpt lat="47.42354" lon="6.69679">
        <ele>382.3</ele>
        <time>2014-05-18T09:10:51.000Z</time>
      </trkpt>
      <trkpt lat="47.42355" lon="6.69675">
        <ele>382</ele>
        <time>2014-05-18T09:10:52.000Z</time>
      </trkpt>
      <trkpt lat="47.42357" lon="6.69672">
        <ele>381.7</ele>
        <time>2014-05-18T09:10:53.000Z</time>
      </trkpt>
      <trkpt lat="47.42359" lon="6.69669">
        <ele>381.9</ele>
        <time>2014-05-18T09:10:54.000Z</time>
      </trkpt>
      <trkpt lat="47.42361" lon="6.69665">
        <ele>382</ele>
        <time>2014-05-18T09:10:55.000Z</time>
      </trkpt>
      <trkpt lat="47.42364" lon="6.69662">
        <ele>382.2</ele>
        <time>2014-05-18T09:10:56.000Z</time>
      </trkpt>
      <trkpt lat="47.42366" lon="6.69658">
        <ele>382.4</ele>
        <time>2014-05-18T09:10:57.000Z</time>
      </trkpt>
      <trkpt lat="47.42369" lon="6.69655">
        <ele>382.5</ele>
        <time>2014-05-18T09:10:58.000Z</time>
      </trkpt>
      <trkpt lat="47.42372" lon="6.69652">
        <ele>382.9</ele>
        <time>2014-05-18T09:10:59.000Z</time>
      </trkpt>
      <trkpt lat="47.42374" lon="6.69649">
        <ele>383.8</ele>
        <time>2014-05-18T09:11:00.000Z</time>
      </trkpt>
      <trkpt lat="47.42377" lon="6.69647">
        <ele>383.6</ele>
        <time>2014-05-18T09:11:01.000Z</time>
      </trkpt>
      <trkpt lat="47.4238" lon="6.69645">
        <ele>383.7</ele>
        <time>2014-05-18T09:11:02.000Z</time>
      </trkpt>
      <trkpt lat="47.42383" lon="6.69643">
        <ele>383.8</ele>
        <time>2014-05-18T09:11:03.000Z</time>
      </trkpt>
      <trkpt lat="47.42386" lon="6.69641">
        <ele>383.8</ele>
        <time>2014-05-18T09:11:04.000Z</time>
      </trkpt>
      <trkpt lat="47.42389" lon="6.69639">
        <ele>384.2</ele>
        <time>2014-05-18T09:11:05.000Z</time>
      </trkpt>
      <trkpt lat="47.42392" lon="6.69636">
        <ele>384.3</ele>
        <time>2014-05-18T09:11:06.000Z</time>
      </trkpt>
      <trkpt lat="47.42395" lon="6.69634">
        <ele>385</ele>
        <time>2014-05-18T09:11:07.000Z</time>
      </trkpt>
      <trkpt lat="47.42398" lon="6.69631">
        <ele>385.5</ele>
        <time>2014-05-18T09:11:08.000Z</time>
      </trkpt>
      <trkpt lat="47.42401" lon="6.69628">
        <ele>385.9</ele>
        <time>2014-05-18T09:11:09.000Z</time>
      </trkpt>
      <trkpt lat="47.42404" lon="6.69625">
        <ele>385.2</ele>
        <time>2014-05-18T09:11:10.000Z</time>
      </trkpt>
      <trkpt lat="47.42406" lon="6.69622">
        <ele>385.9</ele>
        <time>2014-05-18T09:11:11.000Z</time>
      </trkpt>
      <trkpt lat="47.42409" lon="6.6962">
        <ele>386</ele>
        <time>2014-05-18T09:11:12.000Z</time>
      </trkpt>
      <trkpt lat="47.42411" lon="6.69617">
        <ele>386.4</ele>
        <time>2014-05-18T09:11:13.000Z</time>
      </trkpt>
      <trkpt lat="47.42414" lon="6.69614">
        <ele>385.9</ele>
        <time>2014-05-18T09:11:14.000Z</time>
      </trkpt>
      <trkpt lat="47.42416" lon="6.69612">
        <ele>385.8</ele>
        <time>2014-05-18T09:11:15.000Z</time>
      </trkpt>
      <trkpt lat="47.42418" lon="6.69609">
        <ele>386.1</ele>
        <time>2014-05-18T09:11:16.000Z</time>
      </trkpt>
      <trkpt lat="47.42421" lon="6.69606">
        <ele>385.5</ele>
        <time>2014-05-18T09:11:17.000Z</time>
      </trkpt>
      <trkpt lat="47.42423" lon="6.69602">
        <ele>385.7</ele>
        <time>2014-05-18T09:11:18.000Z</time>
      </trkpt>
      <trkpt lat="47.42425" lon="6.69599">
        <ele>387.1</ele>
        <time>2014-05-18T09:11:19.000Z</time>
      </trkpt>
      <trkpt lat="47.42428" lon="6.69596">
        <ele>387.2</ele>
        <time>2014-05-18T09:11:20.000Z</time>
      </trkpt>
      <trkpt lat="47.4243" lon="6.69593">
        <ele>387.3</ele>
        <time>2014-05-18T09:11:21.000Z</time>
      </trkpt>
      <trkpt lat="47.42432" lon="6.6959">
        <ele>387.6</ele>
        <time>2014-05-18T09:11:22.000Z</time>
      </trkpt>
      <trkpt lat="47.42434" lon="6.69587">
        <ele>387.6</ele>
        <time>2014-05-18T09:11:23.000Z</time>
      </trkpt>
      <trkpt lat="47.42436" lon="6.69583">
        <ele>388.3</ele>
        <time>2014-05-18T09:11:24.000Z</time>
      </trkpt>
      <trkpt lat="47.42438" lon="6.6958">
        <ele>389.2</ele>
        <time>2014-05-18T09:11:25.000Z</time>
      </trkpt>
      <trkpt lat="47.4244" lon="6.69576">
        <ele>389.7</ele>
        <time>2014-05-18T09:11:26.000Z</time>
      </trkpt>
      <trkpt lat="47.42442" lon="6.69572">
        <ele>390.7</ele>
        <time>2014-05-18T09:11:27.000Z</time>
      </trkpt>
      <trkpt lat="47.42444" lon="6.6957">
        <ele>392.2</ele>
        <time>2014-05-18T09:11:28.000Z</time>
      </trkpt>
      <trkpt lat="47.42446" lon="6.69568">
        <ele>393.9</ele>
        <time>2014-05-18T09:11:29.000Z</time>
      </trkpt>
      <trkpt lat="47.42449" lon="6.69566">
        <ele>394.7</ele>
        <time>2014-05-18T09:11:30.000Z</time>
      </trkpt>
      <trkpt lat="47.42451" lon="6.69565">
        <ele>395.3</ele>
        <time>2014-05-18T09:11:31.000Z</time>
      </trkpt>
      <trkpt lat="47.42454" lon="6.69565">
        <ele>395.1</ele>
        <time>2014-05-18T09:11:32.000Z</time>
      </trkpt>
      <trkpt lat="47.42457" lon="6.69565">
        <ele>394.8</ele>
        <time>2014-05-18T09:11:33.000Z</time>
      </trkpt>
      <trkpt lat="47.42459" lon="6.69567">
        <ele>393.8</ele>
        <time>2014-05-18T09:11:34.000Z</time>
      </trkpt>
      <trkpt lat="47.42462" lon="6.6957">
        <ele>393.6</ele>
        <time>2014-05-18T09:11:35.000Z</time>
      </trkpt>
      <trkpt lat="47.42464" lon="6.69575">
        <ele>394.3</ele>
        <time>2014-05-18T09:11:36.000Z</time>
      </trkpt>
      <trkpt lat="47.42465" lon="6.69579">
        <ele>394.6</ele>
        <time>2014-05-18T09:11:37.000Z</time>
      </trkpt>
      <trkpt lat="47.42465" lon="6.69584">
        <ele>395.4</ele>
        <time>2014-05-18T09:11:38.000Z</time>
      </trkpt>
      <trkpt lat="47.42464" lon="6.69589">
        <ele>395.5</ele>
        <time>2014-05-18T09:11:39.000Z</time>
      </trkpt>
      <trkpt lat="47.42463" lon="6.69594">
        <ele>395.6</ele>
        <time>2014-05-18T09:11:40.000Z</time>
      </trkpt>
      <trkpt lat="47.42461" lon="6.69599">
        <ele>396.1</ele>
        <time>2014-05-18T09:11:41.000Z</time>
      </trkpt>
      <trkpt lat="47.42459" lon="6.69603">
        <ele>395.3</ele>
        <time>2014-05-18T09:11:42.000Z</time>
      </trkpt>
      <trkpt lat="47.42456" lon="6.69607">
        <ele>394</ele>
        <time>2014-05-18T09:11:43.000Z</time>
      </trkpt>
      <trkpt lat="47.42453" lon="6.6961">
        <ele>393.8</ele>
        <time>2014-05-18T09:11:44.000Z</time>
      </trkpt>
      <trkpt lat="47.4245" lon="6.69613">
        <ele>394.3</ele>
        <time>2014-05-18T09:11:45.000Z</time>
      </trkpt>
      <trkpt lat="47.42448" lon="6.69616">
        <ele>394.3</ele>
        <time>2014-05-18T09:11:46.000Z</time>
      </trkpt>
      <trkpt lat="47.42431" lon="6.69642">
        <ele>395.1</ele>
        <time>2014-05-18T09:11:54.000Z</time>
      </trkpt>
      <trkpt lat="47.42429" lon="6.69646">
        <ele>394.8</ele>
        <time>2014-05-18T09:11:55.000Z</time>
      </trkpt>
      <trkpt lat="47.42428" lon="6.6965">
        <ele>395</ele>
        <time>2014-05-18T09:11:56.000Z</time>
      </trkpt>
      <trkpt lat="47.42427" lon="6.69654">
        <ele>394.8</ele>
        <time>2014-05-18T09:11:57.000Z</time>
      </trkpt>
      <trkpt lat="47.42425" lon="6.69658">
        <ele>395.2</ele>
        <time>2014-05-18T09:11:58.000Z</time>
      </trkpt>
      <trkpt lat="47.42424" lon="6.69662">
        <ele>395.1</ele>
        <time>2014-05-18T09:11:59.000Z</time>
      </trkpt>
      <trkpt lat="47.42423" lon="6.69666">
        <ele>395.9</ele>
        <time>2014-05-18T09:12:00.000Z</time>
      </trkpt>
      <trkpt lat="47.42422" lon="6.6967">
        <ele>396.1</ele>
        <time>2014-05-18T09:12:01.000Z</time>
      </trkpt>
      <trkpt lat="47.42421" lon="6.69675">
        <ele>396.3</ele>
        <time>2014-05-18T09:12:02.000Z</time>
      </trkpt>
      <trkpt lat="47.4242" lon="6.69679">
        <ele>396.3</ele>
        <time>2014-05-18T09:12:03.000Z</time>
      </trkpt>
      <trkpt lat="47.4242" lon="6.69683">
        <ele>396.7</ele>
        <time>2014-05-18T09:12:04.000Z</time>
      </trkpt>
      <trkpt lat="47.42419" lon="6.69687">
        <ele>397</ele>
        <time>2014-05-18T09:12:05.000Z</time>
      </trkpt>
      <trkpt lat="47.42418" lon="6.69691">
        <ele>397.3</ele>
        <time>2014-05-18T09:12:06.000Z</time>
      </trkpt>
      <trkpt lat="47.42418" lon="6.69695">
        <ele>397.8</ele>
        <time>2014-05-18T09:12:07.000Z</time>
      </trkpt>
      <trkpt lat="47.42418" lon="6.697">
        <ele>397.9</ele>
        <time>2014-05-18T09:12:08.000Z</time>
      </trkpt>
      <trkpt lat="47.42418" lon="6.69704">
        <ele>397.6</ele>
        <time>2014-05-18T09:12:09.000Z</time>
      </trkpt>
      <trkpt lat="47.42418" lon="6.69708">
        <ele>398.1</ele>
        <time>2014-05-18T09:12:10.000Z</time>
      </trkpt>
      <trkpt lat="47.42418" lon="6.69713">
        <ele>398.9</ele>
        <time>2014-05-18T09:12:11.000Z</time>
      </trkpt>
      <trkpt lat="47.42417" lon="6.69717">
        <ele>399.5</ele>
        <time>2014-05-18T09:12:12.000Z</time>
      </trkpt>
      <trkpt lat="47.42417" lon="6.69722">
        <ele>400.1</ele>
        <time>2014-05-18T09:12:13.000Z</time>
      </trkpt>
      <trkpt lat="47.42416" lon="6.69726">
        <ele>400</ele>
        <time>2014-05-18T09:12:14.000Z</time>
      </trkpt>
      <trkpt lat="47.42416" lon="6.69731">
        <ele>400.5</ele>
        <time>2014-05-18T09:12:15.000Z</time>
      </trkpt>
      <trkpt lat="47.42415" lon="6.69736">
        <ele>400.3</ele>
        <time>2014-05-18T09:12:16.000Z</time>
      </trkpt>
      <trkpt lat="47.42415" lon="6.6974">
        <ele>400</ele>
        <time>2014-05-18T09:12:17.000Z</time>
      </trkpt>
      <trkpt lat="47.42414" lon="6.69745">
        <ele>400.4</ele>
        <time>2014-05-18T09:12:18.000Z</time>
      </trkpt>
      <trkpt lat="47.42414" lon="6.69749">
        <ele>400.9</ele>
        <time>2014-05-18T09:12:19.000Z</time>
      </trkpt>
      <trkpt lat="47.42413" lon="6.69753">
        <ele>400.8</ele>
        <time>2014-05-18T09:12:20.000Z</time>
      </trkpt>
      <trkpt lat="47.42412" lon="6.69757">
        <ele>400.8</ele>
        <time>2014-05-18T09:12:21.000Z</time>
      </trkpt>
      <trkpt lat="47.42411" lon="6.69761">
        <ele>401</ele>
        <time>2014-05-18T09:12:22.000Z</time>
      </trkpt>
      <trkpt lat="47.4241" lon="6.69765">
        <ele>400.6</ele>
        <time>2014-05-18T09:12:23.000Z</time>
      </trkpt>
      <trkpt lat="47.42409" lon="6.69769">
        <ele>401</ele>
        <time>2014-05-18T09:12:24.000Z</time>
      </trkpt>
      <trkpt lat="47.42409" lon="6.69774">
        <ele>401.1</ele>
        <time>2014-05-18T09:12:25.000Z</time>
      </trkpt>
      <trkpt lat="47.42408" lon="6.69778">
        <ele>401</ele>
        <time>2014-05-18T09:12:26.000Z</time>
      </trkpt>
      <trkpt lat="47.42407" lon="6.69782">
        <ele>400.8</ele>
        <time>2014-05-18T09:12:27.000Z</time>
      </trkpt>
      <trkpt lat="47.42407" lon="6.69786">
        <ele>400.9</ele>
        <time>2014-05-18T09:12:28.000Z</time>
      </trkpt>
      <trkpt lat="47.42406" lon="6.6979">
        <ele>401.7</ele>
        <time>2014-05-18T09:12:29.000Z</time>
      </trkpt>
      <trkpt lat="47.42406" lon="6.69794">
        <ele>402.4</ele>
        <time>2014-05-18T09:12:30.000Z</time>
      </trkpt>
      <trkpt lat="47.42406" lon="6.69798">
        <ele>402</ele>
        <time>2014-05-18T09:12:31.000Z</time>
      </trkpt>
      <trkpt lat="47.42406" lon="6.69803">
        <ele>401.8</ele>
        <time>2014-05-18T09:12:32.000Z</time>
      </trkpt>
      <trkpt lat="47.42406" lon="6.69807">
        <ele>402.5</ele>
        <time>2014-05-18T09:12:33.000Z</time>
      </trkpt>
      <trkpt lat="47.42406" lon="6.69812">
        <ele>402.2</ele>
        <time>2014-05-18T09:12:34.000Z</time>
      </trkpt>
      <trkpt lat="47.42406" lon="6.69816">
        <ele>402.3</ele>
        <time>2014-05-18T09:12:35.000Z</time>
      </trkpt>
      <trkpt lat="47.42406" lon="6.6982">
        <ele>403</ele>
        <time>2014-05-18T09:12:36.000Z</time>
      </trkpt>
      <trkpt lat="47.42406" lon="6.69824">
        <ele>403.4</ele>
        <time>2014-05-18T09:12:37.000Z</time>
      </trkpt>
      <trkpt lat="47.42406" lon="6.69827">
        <ele>403.2</ele>
        <time>2014-05-18T09:12:38.000Z</time>
      </trkpt>
      <trkpt lat="47.42406" lon="6.6983">
        <ele>403.3</ele>
        <time>2014-05-18T09:12:39.000Z</time>
      </trkpt>
      <trkpt lat="47.42407" lon="6.69834">
        <ele>403.4</ele>
        <time>2014-05-18T09:12:40.000Z</time>
      </trkpt>
      <trkpt lat="47.42407" lon="6.69838">
        <ele>403.3</ele>
        <time>2014-05-18T09:12:41.000Z</time>
      </trkpt>
      <trkpt lat="47.42407" lon="6.69842">
        <ele>403.5</ele>
        <time>2014-05-18T09:12:42.000Z</time>
      </trkpt>
      <trkpt lat="47.42407" lon="6.69846">
        <ele>403.4</ele>
        <time>2014-05-18T09:12:43.000Z</time>
      </trkpt>
      <trkpt lat="47.42408" lon="6.69851">
        <ele>403</ele>
        <time>2014-05-18T09:12:44.000Z</time>
      </trkpt>
      <trkpt lat="47.42408" lon="6.69856">
        <ele>402.9</ele>
        <time>2014-05-18T09:12:45.000Z</time>
      </trkpt>
      <trkpt lat="47.42408" lon="6.69861">
        <ele>404.9</ele>
        <time>2014-05-18T09:12:46.000Z</time>
      </trkpt>
      <trkpt lat="47.42408" lon="6.69875">
        <ele>400.3</ele>
        <time>2014-05-18T09:12:50.000Z</time>
      </trkpt>
      <trkpt lat="47.42409" lon="6.69879">
        <ele>401.2</ele>
        <time>2014-05-18T09:12:51.000Z</time>
      </trkpt>
      <trkpt lat="47.42409" lon="6.69883">
        <ele>401</ele>
        <time>2014-05-18T09:12:52.000Z</time>
      </trkpt>
      <trkpt lat="47.4241" lon="6.69887">
        <ele>401.6</ele>
        <time>2014-05-18T09:12:53.000Z</time>
      </trkpt>
      <trkpt lat="47.42411" lon="6.69891">
        <ele>403.2</ele>
        <time>2014-05-18T09:12:54.000Z</time>
      </trkpt>
      <trkpt lat="47.42413" lon="6.69896">
        <ele>403.7</ele>
        <time>2014-05-18T09:12:55.000Z</time>
      </trkpt>
      <trkpt lat="47.42415" lon="6.699">
        <ele>404.5</ele>
        <time>2014-05-18T09:12:56.000Z</time>
      </trkpt>
      <trkpt lat="47.42417" lon="6.69904">
        <ele>405.2</ele>
        <time>2014-05-18T09:12:57.000Z</time>
      </trkpt>
      <trkpt lat="47.4242" lon="6.69908">
        <ele>406.7</ele>
        <time>2014-05-18T09:12:58.000Z</time>
      </trkpt>
      <trkpt lat="47.42422" lon="6.69911">
        <ele>407.3</ele>
        <time>2014-05-18T09:12:59.000Z</time>
      </trkpt>
      <trkpt lat="47.42424" lon="6.69915">
        <ele>408.4</ele>
        <time>2014-05-18T09:13:00.000Z</time>
      </trkpt>
      <trkpt lat="47.42426" lon="6.69918">
        <ele>409.5</ele>
        <time>2014-05-18T09:13:01.000Z</time>
      </trkpt>
      <trkpt lat="47.42427" lon="6.69922">
        <ele>409.5</ele>
        <time>2014-05-18T09:13:02.000Z</time>
      </trkpt>
      <trkpt lat="47.42428" lon="6.69925">
        <ele>407.8</ele>
        <time>2014-05-18T09:13:03.000Z</time>
      </trkpt>
      <trkpt lat="47.42429" lon="6.69929">
        <ele>407.9</ele>
        <time>2014-05-18T09:13:04.000Z</time>
      </trkpt>
      <trkpt lat="47.4243" lon="6.69932">
        <ele>408.9</ele>
        <time>2014-05-18T09:13:05.000Z</time>
      </trkpt>
      <trkpt lat="47.42431" lon="6.69936">
        <ele>409.3</ele>
        <time>2014-05-18T09:13:06.000Z</time>
      </trkpt>
      <trkpt lat="47.42432" lon="6.69939">
        <ele>410.1</ele>
        <time>2014-05-18T09:13:07.000Z</time>
      </trkpt>
      <trkpt lat="47.42433" lon="6.69942">
        <ele>410.4</ele>
        <time>2014-05-18T09:13:08.000Z</time>
      </trkpt>
      <trkpt lat="47.42434" lon="6.69945">
        <ele>411.3</ele>
        <time>2014-05-18T09:13:09.000Z</time>
      </trkpt>
      <trkpt lat="47.42436" lon="6.69948">
        <ele>411.4</ele>
        <time>2014-05-18T09:13:10.000Z</time>
      </trkpt>
      <trkpt lat="47.42439" lon="6.69951">
        <ele>404.8</ele>
        <time>2014-05-18T09:13:11.000Z</time>
      </trkpt>
      <trkpt lat="47.42442" lon="6.69953">
        <ele>402.1</ele>
        <time>2014-05-18T09:13:12.000Z</time>
      </trkpt>
      <trkpt lat="47.42444" lon="6.69956">
        <ele>401.1</ele>
        <time>2014-05-18T09:13:13.000Z</time>
      </trkpt>
      <trkpt lat="47.42447" lon="6.69959">
        <ele>399.9</ele>
        <time>2014-05-18T09:13:14.000Z</time>
      </trkpt>
      <trkpt lat="47.4245" lon="6.69962">
        <ele>402.9</ele>
        <time>2014-05-18T09:13:15.000Z</time>
      </trkpt>
      <trkpt lat="47.42451" lon="6.69966">
        <ele>403.8</ele>
        <time>2014-05-18T09:13:16.000Z</time>
      </trkpt>
      <trkpt lat="47.42453" lon="6.69969">
        <ele>404.6</ele>
        <time>2014-05-18T09:13:17.000Z</time>
      </trkpt>
      <trkpt lat="47.42453" lon="6.69971">
        <ele>405</ele>
        <time>2014-05-18T09:13:18.000Z</time>
      </trkpt>
      <trkpt lat="47.42455" lon="6.69977">
        <ele>406.3</ele>
        <time>2014-05-18T09:13:20.000Z</time>
      </trkpt>
      <trkpt lat="47.42456" lon="6.69979">
        <ele>406.6</ele>
        <time>2014-05-18T09:13:21.000Z</time>
      </trkpt>
      <trkpt lat="47.42456" lon="6.69982">
        <ele>407.9</ele>
        <time>2014-05-18T09:13:22.000Z</time>
      </trkpt>
      <trkpt lat="47.42458" lon="6.69986">
        <ele>407.7</ele>
        <time>2014-05-18T09:13:23.000Z</time>
      </trkpt>
      <trkpt lat="47.4246" lon="6.69988">
        <ele>407.3</ele>
        <time>2014-05-18T09:13:24.000Z</time>
      </trkpt>
      <trkpt lat="47.42461" lon="6.69991">
        <ele>405</ele>
        <time>2014-05-18T09:13:25.000Z</time>
      </trkpt>
      <trkpt lat="47.42463" lon="6.69994">
        <ele>405.7</ele>
        <time>2014-05-18T09:13:26.000Z</time>
      </trkpt>
      <trkpt lat="47.42465" lon="6.69996">
        <ele>405.6</ele>
        <time>2014-05-18T09:13:27.000Z</time>
      </trkpt>
      <trkpt lat="47.42467" lon="6.70001">
        <ele>410.8</ele>
        <time>2014-05-18T09:13:29.000Z</time>
      </trkpt>
      <trkpt lat="47.42468" lon="6.70003">
        <ele>413.4</ele>
        <time>2014-05-18T09:13:30.000Z</time>
      </trkpt>
      <trkpt lat="47.42472" lon="6.70005">
        <ele>413</ele>
        <time>2014-05-18T09:13:32.000Z</time>
      </trkpt>
      <trkpt lat="47.42474" lon="6.70007">
        <ele>414.3</ele>
        <time>2014-05-18T09:13:33.000Z</time>
      </trkpt>
      <trkpt lat="47.42476" lon="6.70009">
        <ele>413.7</ele>
        <time>2014-05-18T09:13:34.000Z</time>
      </trkpt>
      <trkpt lat="47.42479" lon="6.70011">
        <ele>413.2</ele>
        <time>2014-05-18T09:13:35.000Z</time>
      </trkpt>
      <trkpt lat="47.42482" lon="6.70012">
        <ele>414.1</ele>
        <time>2014-05-18T09:13:36.000Z</time>
      </trkpt>
      <trkpt lat="47.42485" lon="6.70014">
        <ele>415.3</ele>
        <time>2014-05-18T09:13:37.000Z</time>
      </trkpt>
      <trkpt lat="47.42488" lon="6.70015">
        <ele>413.6</ele>
        <time>2014-05-18T09:13:38.000Z</time>
      </trkpt>
      <trkpt lat="47.42491" lon="6.70017">
        <ele>412.7</ele>
        <time>2014-05-18T09:13:39.000Z</time>
      </trkpt>
      <trkpt lat="47.42495" lon="6.70018">
        <ele>412.7</ele>
        <time>2014-05-18T09:13:40.000Z</time>
      </trkpt>
      <trkpt lat="47.42498" lon="6.70019">
        <ele>413.1</ele>
        <time>2014-05-18T09:13:41.000Z</time>
      </trkpt>
      <trkpt lat="47.42501" lon="6.70021">
        <ele>412</ele>
        <time>2014-05-18T09:13:42.000Z</time>
      </trkpt>
      <trkpt lat="47.42504" lon="6.70022">
        <ele>411.2</ele>
        <time>2014-05-18T09:13:43.000Z</time>
      </trkpt>
      <trkpt lat="47.42506" lon="6.70024">
        <ele>411.5</ele>
        <time>2014-05-18T09:13:44.000Z</time>
      </trkpt>
      <trkpt lat="47.4251" lon="6.70026">
        <ele>414.7</ele>
        <time>2014-05-18T09:13:45.000Z</time>
      </trkpt>
      <trkpt lat="47.42513" lon="6.70028">
        <ele>416</ele>
        <time>2014-05-18T09:13:46.000Z</time>
      </trkpt>
      <trkpt lat="47.42536" lon="6.70039">
        <ele>414.7</ele>
        <time>2014-05-18T09:13:54.000Z</time>
      </trkpt>
      <trkpt lat="47.42539" lon="6.7004">
        <ele>416.1</ele>
        <time>2014-05-18T09:13:55.000Z</time>
      </trkpt>
      <trkpt lat="47.42542" lon="6.70042">
        <ele>415.3</ele>
        <time>2014-05-18T09:13:56.000Z</time>
      </trkpt>
      <trkpt lat="47.42544" lon="6.70043">
        <ele>418.4</ele>
        <time>2014-05-18T09:13:57.000Z</time>
      </trkpt>
      <trkpt lat="47.42546" lon="6.70045">
        <ele>418.6</ele>
        <time>2014-05-18T09:13:58.000Z</time>
      </trkpt>
      <trkpt lat="47.42548" lon="6.70047">
        <ele>421</ele>
        <time>2014-05-18T09:13:59.000Z</time>
      </trkpt>
      <trkpt lat="47.4255" lon="6.70049">
        <ele>421</ele>
        <time>2014-05-18T09:14:00.000Z</time>
      </trkpt>
      <trkpt lat="47.42552" lon="6.70051">
        <ele>421.7</ele>
        <time>2014-05-18T09:14:01.000Z</time>
      </trkpt>
      <trkpt lat="47.42554" lon="6.70052">
        <ele>422.7</ele>
        <time>2014-05-18T09:14:02.000Z</time>
      </trkpt>
      <trkpt lat="47.42556" lon="6.70054">
        <ele>424</ele>
        <time>2014-05-18T09:14:03.000Z</time>
      </trkpt>
      <trkpt lat="47.42559" lon="6.70055">
        <ele>424.7</ele>
        <time>2014-05-18T09:14:04.000Z</time>
      </trkpt>
      <trkpt lat="47.42561" lon="6.70057">
        <ele>425.3</ele>
        <time>2014-05-18T09:14:05.000Z</time>
      </trkpt>
      <trkpt lat="47.42563" lon="6.70059">
        <ele>424.9</ele>
        <time>2014-05-18T09:14:06.000Z</time>
      </trkpt>
      <trkpt lat="47.42565" lon="6.70061">
        <ele>425.3</ele>
        <time>2014-05-18T09:14:07.000Z</time>
      </trkpt>
      <trkpt lat="47.42567" lon="6.70064">
        <ele>426.1</ele>
        <time>2014-05-18T09:14:08.000Z</time>
      </trkpt>
      <trkpt lat="47.42569" lon="6.70066">
        <ele>427.2</ele>
        <time>2014-05-18T09:14:09.000Z</time>
      </trkpt>
      <trkpt lat="47.42572" lon="6.70068">
        <ele>427.7</ele>
        <time>2014-05-18T09:14:10.000Z</time>
      </trkpt>
      <trkpt lat="47.42574" lon="6.7007">
        <ele>426.6</ele>
        <time>2014-05-18T09:14:11.000Z</time>
      </trkpt>
      <trkpt lat="47.42577" lon="6.70071">
        <ele>426.3</ele>
        <time>2014-05-18T09:14:12.000Z</time>
      </trkpt>
      <trkpt lat="47.42579" lon="6.70074">
        <ele>427.9</ele>
        <time>2014-05-18T09:14:13.000Z</time>
      </trkpt>
      <trkpt lat="47.42581" lon="6.70076">
        <ele>425.2</ele>
        <time>2014-05-18T09:14:14.000Z</time>
      </trkpt>
      <trkpt lat="47.42583" lon="6.70077">
        <ele>423.9</ele>
        <time>2014-05-18T09:14:15.000Z</time>
      </trkpt>
      <trkpt lat="47.42585" lon="6.70079">
        <ele>423.6</ele>
        <time>2014-05-18T09:14:16.000Z</time>
      </trkpt>
      <trkpt lat="47.42588" lon="6.70081">
        <ele>418.6</ele>
        <time>2014-05-18T09:14:17.000Z</time>
      </trkpt>
      <trkpt lat="47.4259" lon="6.70084">
        <ele>416.7</ele>
        <time>2014-05-18T09:14:18.000Z</time>
      </trkpt>
      <trkpt lat="47.42592" lon="6.70086">
        <ele>416</ele>
        <time>2014-05-18T09:14:19.000Z</time>
      </trkpt>
      <trkpt lat="47.42595" lon="6.70088">
        <ele>417.2</ele>
        <time>2014-05-18T09:14:20.000Z</time>
      </trkpt>
      <trkpt lat="47.42598" lon="6.7009">
        <ele>419.4</ele>
        <time>2014-05-18T09:14:21.000Z</time>
      </trkpt>
      <trkpt lat="47.426" lon="6.70092">
        <ele>420.5</ele>
        <time>2014-05-18T09:14:22.000Z</time>
      </trkpt>
      <trkpt lat="47.42602" lon="6.70094">
        <ele>421.6</ele>
        <time>2014-05-18T09:14:23.000Z</time>
      </trkpt>
      <trkpt lat="47.42605" lon="6.70096">
        <ele>421</ele>
        <time>2014-05-18T09:14:24.000Z</time>
      </trkpt>
      <trkpt lat="47.42607" lon="6.70097">
        <ele>418.7</ele>
        <time>2014-05-18T09:14:25.000Z</time>
      </trkpt>
      <trkpt lat="47.4261" lon="6.70099">
        <ele>416</ele>
        <time>2014-05-18T09:14:26.000Z</time>
      </trkpt>
      <trkpt lat="47.42613" lon="6.70101">
        <ele>416.2</ele>
        <time>2014-05-18T09:14:27.000Z</time>
      </trkpt>
      <trkpt lat="47.42615" lon="6.70102">
        <ele>417.1</ele>
        <time>2014-05-18T09:14:28.000Z</time>
      </trkpt>
      <trkpt lat="47.42618" lon="6.70106">
        <ele>416.8</ele>
        <time>2014-05-18T09:14:30.000Z</time>
      </trkpt>
      <trkpt lat="47.4262" lon="6.70108">
        <ele>417.4</ele>
        <time>2014-05-18T09:14:31.000Z</time>
      </trkpt>
      <trkpt lat="47.42622" lon="6.7011">
        <ele>418.7</ele>
        <time>2014-05-18T09:14:32.000Z</time>
      </trkpt>
      <trkpt lat="47.42624" lon="6.70112">
        <ele>420</ele>
        <time>2014-05-18T09:14:33.000Z</time>
      </trkpt>
      <trkpt lat="47.42627" lon="6.70114">
        <ele>419.9</ele>
        <time>2014-05-18T09:14:34.000Z</time>
      </trkpt>
      <trkpt lat="47.42629" lon="6.70117">
        <ele>419.6</ele>
        <time>2014-05-18T09:14:35.000Z</time>
      </trkpt>
      <trkpt lat="47.42631" lon="6.70119">
        <ele>419.6</ele>
        <time>2014-05-18T09:14:36.000Z</time>
      </trkpt>
      <trkpt lat="47.42633" lon="6.70123">
        <ele>422.4</ele>
        <time>2014-05-18T09:14:37.000Z</time>
      </trkpt>
      <trkpt lat="47.42636" lon="6.70126">
        <ele>424.5</ele>
        <time>2014-05-18T09:14:38.000Z</time>
      </trkpt>
      <trkpt lat="47.42638" lon="6.70129">
        <ele>425.1</ele>
        <time>2014-05-18T09:14:39.000Z</time>
      </trkpt>
      <trkpt lat="47.4264" lon="6.70132">
        <ele>424.7</ele>
        <time>2014-05-18T09:14:40.000Z</time>
      </trkpt>
      <trkpt lat="47.42643" lon="6.70135">
        <ele>425.7</ele>
        <time>2014-05-18T09:14:41.000Z</time>
      </trkpt>
      <trkpt lat="47.42645" lon="6.70137">
        <ele>426.4</ele>
        <time>2014-05-18T09:14:42.000Z</time>
      </trkpt>
      <trkpt lat="47.42647" lon="6.7014">
        <ele>427.1</ele>
        <time>2014-05-18T09:14:43.000Z</time>
      </trkpt>
      <trkpt lat="47.42649" lon="6.70143">
        <ele>427.9</ele>
        <time>2014-05-18T09:14:44.000Z</time>
      </trkpt>
      <trkpt lat="47.42651" lon="6.70146">
        <ele>427.5</ele>
        <time>2014-05-18T09:14:45.000Z</time>
      </trkpt>
      <trkpt lat="47.42654" lon="6.70149">
        <ele>427.6</ele>
        <time>2014-05-18T09:14:46.000Z</time>
      </trkpt>
      <trkpt lat="47.42671" lon="6.70169">
        <ele>431.8</ele>
        <time>2014-05-18T09:14:53.755Z</time>
      </trkpt>
      <trkpt lat="47.42673" lon="6.70172">
        <ele>432.1</ele>
        <time>2014-05-18T09:14:55.000Z</time>
      </trkpt>
      <trkpt lat="47.42675" lon="6.70174">
        <ele>431.5</ele>
        <time>2014-05-18T09:14:56.000Z</time>
      </trkpt>
      <trkpt lat="47.42677" lon="6.70176">
        <ele>431.7</ele>
        <time>2014-05-18T09:14:57.000Z</time>
      </trkpt>
      <trkpt lat="47.4268" lon="6.70179">
        <ele>432.1</ele>
        <time>2014-05-18T09:14:58.000Z</time>
      </trkpt>
      <trkpt lat="47.42682" lon="6.70182">
        <ele>430.7</ele>
        <time>2014-05-18T09:14:59.000Z</time>
      </trkpt>
      <trkpt lat="47.42684" lon="6.70185">
        <ele>431.9</ele>
        <time>2014-05-18T09:15:00.000Z</time>
      </trkpt>
      <trkpt lat="47.42686" lon="6.70187">
        <ele>433</ele>
        <time>2014-05-18T09:15:01.000Z</time>
      </trkpt>
      <trkpt lat="47.42688" lon="6.7019">
        <ele>433</ele>
        <time>2014-05-18T09:15:02.000Z</time>
      </trkpt>
      <trkpt lat="47.4269" lon="6.70193">
        <ele>432.4</ele>
        <time>2014-05-18T09:15:03.000Z</time>
      </trkpt>
      <trkpt lat="47.42692" lon="6.70196">
        <ele>431.8</ele>
        <time>2014-05-18T09:15:04.000Z</time>
      </trkpt>
      <trkpt lat="47.42695" lon="6.70199">
        <ele>431.5</ele>
        <time>2014-05-18T09:15:05.000Z</time>
      </trkpt>
      <trkpt lat="47.42697" lon="6.70201">
        <ele>431.3</ele>
        <time>2014-05-18T09:15:06.000Z</time>
      </trkpt>
      <trkpt lat="47.42699" lon="6.70204">
        <ele>434</ele>
        <time>2014-05-18T09:15:07.000Z</time>
      </trkpt>
      <trkpt lat="47.42702" lon="6.70206">
        <ele>434.6</ele>
        <time>2014-05-18T09:15:08.000Z</time>
      </trkpt>
      <trkpt lat="47.42704" lon="6.70208">
        <ele>434.9</ele>
        <time>2014-05-18T09:15:09.000Z</time>
      </trkpt>
      <trkpt lat="47.42707" lon="6.7021">
        <ele>435.1</ele>
        <time>2014-05-18T09:15:10.000Z</time>
      </trkpt>
      <trkpt lat="47.42709" lon="6.70212">
        <ele>436.3</ele>
        <time>2014-05-18T09:15:11.000Z</time>
      </trkpt>
      <trkpt lat="47.42711" lon="6.70215">
        <ele>437.3</ele>
        <time>2014-05-18T09:15:12.000Z</time>
      </trkpt>
      <trkpt lat="47.42713" lon="6.70217">
        <ele>438.3</ele>
        <time>2014-05-18T09:15:13.000Z</time>
      </trkpt>
      <trkpt lat="47.42715" lon="6.7022">
        <ele>439.6</ele>
        <time>2014-05-18T09:15:14.000Z</time>
      </trkpt>
      <trkpt lat="47.42717" lon="6.70223">
        <ele>440.8</ele>
        <time>2014-05-18T09:15:15.000Z</time>
      </trkpt>
      <trkpt lat="47.42719" lon="6.70226">
        <ele>440.8</ele>
        <time>2014-05-18T09:15:16.000Z</time>
      </trkpt>
      <trkpt lat="47.42721" lon="6.70229">
        <ele>443.4</ele>
        <time>2014-05-18T09:15:17.000Z</time>
      </trkpt>
      <trkpt lat="47.42723" lon="6.70232">
        <ele>443.3</ele>
        <time>2014-05-18T09:15:18.000Z</time>
      </trkpt>
      <trkpt lat="47.42725" lon="6.70235">
        <ele>444.1</ele>
        <time>2014-05-18T09:15:19.000Z</time>
      </trkpt>
      <trkpt lat="47.42727" lon="6.70237">
        <ele>444.6</ele>
        <time>2014-05-18T09:15:20.000Z</time>
      </trkpt>
      <trkpt lat="47.42729" lon="6.7024">
        <ele>445</ele>
        <time>2014-05-18T09:15:21.000Z</time>
      </trkpt>
      <trkpt lat="47.4273" lon="6.70241">
        <ele>442.7</ele>
        <time>2014-05-18T09:15:22.000Z</time>
      </trkpt>
      <trkpt lat="47.42733" lon="6.70245">
        <ele>438.4</ele>
        <time>2014-05-18T09:15:24.000Z</time>
      </trkpt>
      <trkpt lat="47.42735" lon="6.70246">
        <ele>437.4</ele>
        <time>2014-05-18T09:15:25.000Z</time>
      </trkpt>
      <trkpt lat="47.42737" lon="6.70248">
        <ele>437.2</ele>
        <time>2014-05-18T09:15:26.000Z</time>
      </trkpt>
      <trkpt lat="47.42739" lon="6.7025">
        <ele>437.4</ele>
        <time>2014-05-18T09:15:27.000Z</time>
      </trkpt>
      <trkpt lat="47.42742" lon="6.70252">
        <ele>437.1</ele>
        <time>2014-05-18T09:15:28.000Z</time>
      </trkpt>
      <trkpt lat="47.42744" lon="6.70254">
        <ele>437.5</ele>
        <time>2014-05-18T09:15:29.000Z</time>
      </trkpt>
      <trkpt lat="47.42747" lon="6.70256">
        <ele>438.1</ele>
        <time>2014-05-18T09:15:30.000Z</time>
      </trkpt>
      <trkpt lat="47.4275" lon="6.70259">
        <ele>438.3</ele>
        <time>2014-05-18T09:15:31.000Z</time>
      </trkpt>
      <trkpt lat="47.42752" lon="6.7026">
        <ele>438.4</ele>
        <time>2014-05-18T09:15:32.000Z</time>
      </trkpt>
      <trkpt lat="47.42755" lon="6.70261">
        <ele>439.1</ele>
        <time>2014-05-18T09:15:33.000Z</time>
      </trkpt>
      <trkpt lat="47.42758" lon="6.70262">
        <ele>439.5</ele>
        <time>2014-05-18T09:15:34.000Z</time>
      </trkpt>
      <trkpt lat="47.4276" lon="6.70263">
        <ele>439.8</ele>
        <time>2014-05-18T09:15:35.000Z</time>
      </trkpt>
      <trkpt lat="47.42762" lon="6.70263">
        <ele>440.5</ele>
        <time>2014-05-18T09:15:36.000Z</time>
      </trkpt>
      <trkpt lat="47.42764" lon="6.70264">
        <ele>440.6</ele>
        <time>2014-05-18T09:15:37.000Z</time>
      </trkpt>
      <trkpt lat="47.42766" lon="6.70265">
        <ele>441.5</ele>
        <time>2014-05-18T09:15:38.000Z</time>
      </trkpt>
      <trkpt lat="47.42769" lon="6.70266">
        <ele>441.3</ele>
        <time>2014-05-18T09:15:39.000Z</time>
      </trkpt>
      <trkpt lat="47.42772" lon="6.70267">
        <ele>442</ele>
        <time>2014-05-18T09:15:40.000Z</time>
      </trkpt>
      <trkpt lat="47.42775" lon="6.70268">
        <ele>441.7</ele>
        <time>2014-05-18T09:15:41.000Z</time>
      </trkpt>
      <trkpt lat="47.42778" lon="6.70269">
        <ele>441.4</ele>
        <time>2014-05-18T09:15:42.000Z</time>
      </trkpt>
      <trkpt lat="47.42781" lon="6.7027">
        <ele>446.9</ele>
        <time>2014-05-18T09:15:43.000Z</time>
      </trkpt>
      <trkpt lat="47.42784" lon="6.70272">
        <ele>449</ele>
        <time>2014-05-18T09:15:44.000Z</time>
      </trkpt>
      <trkpt lat="47.42787" lon="6.70274">
        <ele>451.1</ele>
        <time>2014-05-18T09:15:45.000Z</time>
      </trkpt>
      <trkpt lat="47.42789" lon="6.70277">
        <ele>451.6</ele>
        <time>2014-05-18T09:15:46.000Z</time>
      </trkpt>
      <trkpt lat="47.42796" lon="6.70283">
        <ele>447.8</ele>
        <time>2014-05-18T09:15:49.000Z</time>
      </trkpt>
      <trkpt lat="47.42799" lon="6.70286">
        <ele>448.1</ele>
        <time>2014-05-18T09:15:50.000Z</time>
      </trkpt>
      <trkpt lat="47.42802" lon="6.70289">
        <ele>447.9</ele>
        <time>2014-05-18T09:15:51.000Z</time>
      </trkpt>
      <trkpt lat="47.42804" lon="6.70292">
        <ele>448.3</ele>
        <time>2014-05-18T09:15:52.000Z</time>
      </trkpt>
      <trkpt lat="47.42807" lon="6.70295">
        <ele>449.2</ele>
        <time>2014-05-18T09:15:53.000Z</time>
      </trkpt>
      <trkpt lat="47.4281" lon="6.70298">
        <ele>449.5</ele>
        <time>2014-05-18T09:15:54.000Z</time>
      </trkpt>
      <trkpt lat="47.42811" lon="6.70301">
        <ele>448.7</ele>
        <time>2014-05-18T09:15:55.000Z</time>
      </trkpt>
      <trkpt lat="47.42813" lon="6.70304">
        <ele>448.8</ele>
        <time>2014-05-18T09:15:56.000Z</time>
      </trkpt>
      <trkpt lat="47.42814" lon="6.70307">
        <ele>448.5</ele>
        <time>2014-05-18T09:15:57.000Z</time>
      </trkpt>
      <trkpt lat="47.42815" lon="6.7031">
        <ele>448.5</ele>
        <time>2014-05-18T09:15:58.000Z</time>
      </trkpt>
      <trkpt lat="47.42816" lon="6.70313">
        <ele>447.6</ele>
        <time>2014-05-18T09:15:59.000Z</time>
      </trkpt>
      <trkpt lat="47.42818" lon="6.70318">
        <ele>447.4</ele>
        <time>2014-05-18T09:16:01.000Z</time>
      </trkpt>
      <trkpt lat="47.4282" lon="6.7032">
        <ele>447.6</ele>
        <time>2014-05-18T09:16:02.000Z</time>
      </trkpt>
      <trkpt lat="47.42822" lon="6.70322">
        <ele>447.9</ele>
        <time>2014-05-18T09:16:03.000Z</time>
      </trkpt>
      <trkpt lat="47.42825" lon="6.70324">
        <ele>446.2</ele>
        <time>2014-05-18T09:16:04.000Z</time>
      </trkpt>
      <trkpt lat="47.42828" lon="6.70326">
        <ele>445.8</ele>
        <time>2014-05-18T09:16:05.000Z</time>
      </trkpt>
      <trkpt lat="47.4283" lon="6.7033">
        <ele>446.7</ele>
        <time>2014-05-18T09:16:06.000Z</time>
      </trkpt>
      <trkpt lat="47.42832" lon="6.70334">
        <ele>447.3</ele>
        <time>2014-05-18T09:16:07.000Z</time>
      </trkpt>
      <trkpt lat="47.42834" lon="6.70338">
        <ele>447.4</ele>
        <time>2014-05-18T09:16:08.000Z</time>
      </trkpt>
      <trkpt lat="47.42836" lon="6.70342">
        <ele>449.5</ele>
        <time>2014-05-18T09:16:09.000Z</time>
      </trkpt>
      <trkpt lat="47.42837" lon="6.70346">
        <ele>450.5</ele>
        <time>2014-05-18T09:16:10.000Z</time>
      </trkpt>
      <trkpt lat="47.42839" lon="6.7035">
        <ele>450.5</ele>
        <time>2014-05-18T09:16:11.000Z</time>
      </trkpt>
      <trkpt lat="47.42841" lon="6.70354">
        <ele>451</ele>
        <time>2014-05-18T09:16:12.000Z</time>
      </trkpt>
      <trkpt lat="47.42842" lon="6.70358">
        <ele>451.5</ele>
        <time>2014-05-18T09:16:13.000Z</time>
      </trkpt>
      <trkpt lat="47.42844" lon="6.70362">
        <ele>451</ele>
        <time>2014-05-18T09:16:14.000Z</time>
      </trkpt>
      <trkpt lat="47.42845" lon="6.70365">
        <ele>451.5</ele>
        <time>2014-05-18T09:16:15.000Z</time>
      </trkpt>
      <trkpt lat="47.42847" lon="6.70369">
        <ele>452.2</ele>
        <time>2014-05-18T09:16:16.000Z</time>
      </trkpt>
      <trkpt lat="47.42849" lon="6.70372">
        <ele>452.6</ele>
        <time>2014-05-18T09:16:17.000Z</time>
      </trkpt>
      <trkpt lat="47.42851" lon="6.70376">
        <ele>454</ele>
        <time>2014-05-18T09:16:18.000Z</time>
      </trkpt>
      <trkpt lat="47.42853" lon="6.70379">
        <ele>452</ele>
        <time>2014-05-18T09:16:19.000Z</time>
      </trkpt>
      <trkpt lat="47.42855" lon="6.70383">
        <ele>451.1</ele>
        <time>2014-05-18T09:16:20.000Z</time>
      </trkpt>
      <trkpt lat="47.42856" lon="6.70386">
        <ele>450.8</ele>
        <time>2014-05-18T09:16:21.000Z</time>
      </trkpt>
      <trkpt lat="47.42857" lon="6.70389">
        <ele>449.8</ele>
        <time>2014-05-18T09:16:22.000Z</time>
      </trkpt>
      <trkpt lat="47.42859" lon="6.70394">
        <ele>451.6</ele>
        <time>2014-05-18T09:16:24.000Z</time>
      </trkpt>
      <trkpt lat="47.4286" lon="6.70397">
        <ele>453.5</ele>
        <time>2014-05-18T09:16:25.000Z</time>
      </trkpt>
      <trkpt lat="47.42862" lon="6.70401">
        <ele>454</ele>
        <time>2014-05-18T09:16:26.000Z</time>
      </trkpt>
      <trkpt lat="47.42863" lon="6.70406">
        <ele>454.7</ele>
        <time>2014-05-18T09:16:27.000Z</time>
      </trkpt>
      <trkpt lat="47.42864" lon="6.70411">
        <ele>454.1</ele>
        <time>2014-05-18T09:16:28.000Z</time>
      </trkpt>
      <trkpt lat="47.42865" lon="6.70415">
        <ele>454.6</ele>
        <time>2014-05-18T09:16:29.000Z</time>
      </trkpt>
      <trkpt lat="47.42866" lon="6.7042">
        <ele>455</ele>
        <time>2014-05-18T09:16:30.000Z</time>
      </trkpt>
      <trkpt lat="47.42866" lon="6.70424">
        <ele>454.1</ele>
        <time>2014-05-18T09:16:31.000Z</time>
      </trkpt>
      <trkpt lat="47.42867" lon="6.70428">
        <ele>454.6</ele>
        <time>2014-05-18T09:16:32.000Z</time>
      </trkpt>
      <trkpt lat="47.42867" lon="6.70432">
        <ele>454.1</ele>
        <time>2014-05-18T09:16:33.000Z</time>
      </trkpt>
      <trkpt lat="47.42867" lon="6.70436">
        <ele>454.2</ele>
        <time>2014-05-18T09:16:34.000Z</time>
      </trkpt>
      <trkpt lat="47.42868" lon="6.70442">
        <ele>454.8</ele>
        <time>2014-05-18T09:16:35.000Z</time>
      </trkpt>
      <trkpt lat="47.42868" lon="6.70447">
        <ele>454.2</ele>
        <time>2014-05-18T09:16:36.000Z</time>
      </trkpt>
      <trkpt lat="47.42868" lon="6.70452">
        <ele>454.1</ele>
        <time>2014-05-18T09:16:37.000Z</time>
      </trkpt>
      <trkpt lat="47.42867" lon="6.70457">
        <ele>455.1</ele>
        <time>2014-05-18T09:16:38.000Z</time>
      </trkpt>
      <trkpt lat="47.42867" lon="6.70461">
        <ele>454.9</ele>
        <time>2014-05-18T09:16:39.000Z</time>
      </trkpt>
      <trkpt lat="47.42866" lon="6.70466">
        <ele>455.5</ele>
        <time>2014-05-18T09:16:40.000Z</time>
      </trkpt>
      <trkpt lat="47.42865" lon="6.70469">
        <ele>453.3</ele>
        <time>2014-05-18T09:16:41.000Z</time>
      </trkpt>
      <trkpt lat="47.42864" lon="6.70473">
        <ele>451.6</ele>
        <time>2014-05-18T09:16:42.000Z</time>
      </trkpt>
      <trkpt lat="47.42863" lon="6.70476">
        <ele>450.9</ele>
        <time>2014-05-18T09:16:43.000Z</time>
      </trkpt>
      <trkpt lat="47.42862" lon="6.70479">
        <ele>450.4</ele>
        <time>2014-05-18T09:16:44.000Z</time>
      </trkpt>
      <trkpt lat="47.4286" lon="6.70481">
        <ele>450.3</ele>
        <time>2014-05-18T09:16:45.000Z</time>
      </trkpt>
      <trkpt lat="47.42859" lon="6.70484">
        <ele>449.9</ele>
        <time>2014-05-18T09:16:46.000Z</time>
      </trkpt>
      <trkpt lat="47.42854" lon="6.70492">
        <ele>449.5</ele>
        <time>2014-05-18T09:16:49.000Z</time>
      </trkpt>
      <trkpt lat="47.42852" lon="6.70495">
        <ele>449.5</ele>
        <time>2014-05-18T09:16:50.000Z</time>
      </trkpt>
      <trkpt lat="47.4285" lon="6.70498">
        <ele>450.3</ele>
        <time>2014-05-18T09:16:51.000Z</time>
      </trkpt>
      <trkpt lat="47.42847" lon="6.70502">
        <ele>449.2</ele>
        <time>2014-05-18T09:16:53.000Z</time>
      </trkpt>
      <trkpt lat="47.42846" lon="6.70504">
        <ele>448.9</ele>
        <time>2014-05-18T09:16:54.000Z</time>
      </trkpt>
      <trkpt lat="47.42843" lon="6.70507">
        <ele>449.3</ele>
        <time>2014-05-18T09:16:56.000Z</time>
      </trkpt>
      <trkpt lat="47.42841" lon="6.70509">
        <ele>449</ele>
        <time>2014-05-18T09:16:57.000Z</time>
      </trkpt>
      <trkpt lat="47.42838" lon="6.70513">
        <ele>447.7</ele>
        <time>2014-05-18T09:16:59.000Z</time>
      </trkpt>
      <trkpt lat="47.42837" lon="6.70516">
        <ele>447</ele>
        <time>2014-05-18T09:17:00.000Z</time>
      </trkpt>
      <trkpt lat="47.42835" lon="6.70518">
        <ele>447.9</ele>
        <time>2014-05-18T09:17:01.000Z</time>
      </trkpt>
      <trkpt lat="47.42833" lon="6.70521">
        <ele>447</ele>
        <time>2014-05-18T09:17:02.000Z</time>
      </trkpt>
      <trkpt lat="47.42832" lon="6.70524">
        <ele>447.2</ele>
        <time>2014-05-18T09:17:03.000Z</time>
      </trkpt>
      <trkpt lat="47.4283" lon="6.70528">
        <ele>446.8</ele>
        <time>2014-05-18T09:17:04.000Z</time>
      </trkpt>
      <trkpt lat="47.42828" lon="6.70531">
        <ele>446.7</ele>
        <time>2014-05-18T09:17:05.000Z</time>
      </trkpt>
      <trkpt lat="47.42827" lon="6.70534">
        <ele>446.7</ele>
        <time>2014-05-18T09:17:06.000Z</time>
      </trkpt>
      <trkpt lat="47.42825" lon="6.70537">
        <ele>446.5</ele>
        <time>2014-05-18T09:17:07.000Z</time>
      </trkpt>
      <trkpt lat="47.42824" lon="6.70539">
        <ele>446.7</ele>
        <time>2014-05-18T09:17:08.000Z</time>
      </trkpt>
      <trkpt lat="47.42823" lon="6.70546">
        <ele>447.6</ele>
        <time>2014-05-18T09:17:10.000Z</time>
      </trkpt>
      <trkpt lat="47.42823" lon="6.70549">
        <ele>447.8</ele>
        <time>2014-05-18T09:17:11.000Z</time>
      </trkpt>
      <trkpt lat="47.42824" lon="6.70552">
        <ele>447.4</ele>
        <time>2014-05-18T09:17:12.000Z</time>
      </trkpt>
      <trkpt lat="47.42825" lon="6.70555">
        <ele>447.5</ele>
        <time>2014-05-18T09:17:13.000Z</time>
      </trkpt>
      <trkpt lat="47.42826" lon="6.70559">
        <ele>447.6</ele>
        <time>2014-05-18T09:17:14.000Z</time>
      </trkpt>
      <trkpt lat="47.42828" lon="6.70561">
        <ele>447.6</ele>
        <time>2014-05-18T09:17:15.000Z</time>
      </trkpt>
      <trkpt lat="47.42829" lon="6.70564">
        <ele>446.6</ele>
        <time>2014-05-18T09:17:16.000Z</time>
      </trkpt>
      <trkpt lat="47.42831" lon="6.70567">
        <ele>446.1</ele>
        <time>2014-05-18T09:17:17.000Z</time>
      </trkpt>
      <trkpt lat="47.42833" lon="6.70569">
        <ele>445.9</ele>
        <time>2014-05-18T09:17:18.000Z</time>
      </trkpt>
      <trkpt lat="47.42834" lon="6.70572">
        <ele>444.8</ele>
        <time>2014-05-18T09:17:19.000Z</time>
      </trkpt>
      <trkpt lat="47.42836" lon="6.70574">
        <ele>445.1</ele>
        <time>2014-05-18T09:17:20.000Z</time>
      </trkpt>
      <trkpt lat="47.42837" lon="6.70577">
        <ele>444.6</ele>
        <time>2014-05-18T09:17:21.000Z</time>
      </trkpt>
      <trkpt lat="47.42838" lon="6.7058">
        <ele>444</ele>
        <time>2014-05-18T09:17:22.000Z</time>
      </trkpt>
      <trkpt lat="47.42839" lon="6.70583">
        <ele>443.4</ele>
        <time>2014-05-18T09:17:23.000Z</time>
      </trkpt>
      <trkpt lat="47.42841" lon="6.70586">
        <ele>443</ele>
        <time>2014-05-18T09:17:24.000Z</time>
      </trkpt>
      <trkpt lat="47.42842" lon="6.70589">
        <ele>443</ele>
        <time>2014-05-18T09:17:25.000Z</time>
      </trkpt>
      <trkpt lat="47.42844" lon="6.70591">
        <ele>443.1</ele>
        <time>2014-05-18T09:17:26.000Z</time>
      </trkpt>
      <trkpt lat="47.42846" lon="6.70594">
        <ele>443.1</ele>
        <time>2014-05-18T09:17:27.000Z</time>
      </trkpt>
      <trkpt lat="47.42847" lon="6.70597">
        <ele>443.3</ele>
        <time>2014-05-18T09:17:28.000Z</time>
      </trkpt>
      <trkpt lat="47.42849" lon="6.70599">
        <ele>443.8</ele>
        <time>2014-05-18T09:17:29.000Z</time>
      </trkpt>
      <trkpt lat="47.42851" lon="6.70602">
        <ele>443.9</ele>
        <time>2014-05-18T09:17:30.000Z</time>
      </trkpt>
      <trkpt lat="47.42852" lon="6.70604">
        <ele>443.3</ele>
        <time>2014-05-18T09:17:31.000Z</time>
      </trkpt>
      <trkpt lat="47.42854" lon="6.70607">
        <ele>443.6</ele>
        <time>2014-05-18T09:17:32.000Z</time>
      </trkpt>
      <trkpt lat="47.42855" lon="6.7061">
        <ele>443.9</ele>
        <time>2014-05-18T09:17:33.000Z</time>
      </trkpt>
      <trkpt lat="47.42857" lon="6.70613">
        <ele>444.4</ele>
        <time>2014-05-18T09:17:34.000Z</time>
      </trkpt>
      <trkpt lat="47.42858" lon="6.70616">
        <ele>445</ele>
        <time>2014-05-18T09:17:35.000Z</time>
      </trkpt>
      <trkpt lat="47.4286" lon="6.70619">
        <ele>445.5</ele>
        <time>2014-05-18T09:17:36.000Z</time>
      </trkpt>
      <trkpt lat="47.42862" lon="6.70622">
        <ele>445.6</ele>
        <time>2014-05-18T09:17:37.000Z</time>
      </trkpt>
      <trkpt lat="47.42863" lon="6.70625">
        <ele>445.3</ele>
        <time>2014-05-18T09:17:38.000Z</time>
      </trkpt>
      <trkpt lat="47.42864" lon="6.70628">
        <ele>445.2</ele>
        <time>2014-05-18T09:17:39.000Z</time>
      </trkpt>
      <trkpt lat="47.42866" lon="6.70631">
        <ele>445.8</ele>
        <time>2014-05-18T09:17:40.000Z</time>
      </trkpt>
      <trkpt lat="47.42867" lon="6.70635">
        <ele>446</ele>
        <time>2014-05-18T09:17:41.000Z</time>
      </trkpt>
      <trkpt lat="47.42868" lon="6.70638">
        <ele>447</ele>
        <time>2014-05-18T09:17:42.000Z</time>
      </trkpt>
      <trkpt lat="47.4287" lon="6.70641">
        <ele>447.2</ele>
        <time>2014-05-18T09:17:43.000Z</time>
      </trkpt>
      <trkpt lat="47.42871" lon="6.70643">
        <ele>446.4</ele>
        <time>2014-05-18T09:17:44.000Z</time>
      </trkpt>
      <trkpt lat="47.42873" lon="6.70646">
        <ele>446.3</ele>
        <time>2014-05-18T09:17:45.000Z</time>
      </trkpt>
      <trkpt lat="47.42874" lon="6.70649">
        <ele>446.4</ele>
        <time>2014-05-18T09:17:46.000Z</time>
      </trkpt>
      <trkpt lat="47.42883" lon="6.70674">
        <ele>449</ele>
        <time>2014-05-18T09:17:54.000Z</time>
      </trkpt>
      <trkpt lat="47.42884" lon="6.70677">
        <ele>449.3</ele>
        <time>2014-05-18T09:17:55.000Z</time>
      </trkpt>
      <trkpt lat="47.42885" lon="6.7068">
        <ele>449.6</ele>
        <time>2014-05-18T09:17:56.000Z</time>
      </trkpt>
      <trkpt lat="47.42886" lon="6.70683">
        <ele>449.9</ele>
        <time>2014-05-18T09:17:57.000Z</time>
      </trkpt>
      <trkpt lat="47.42887" lon="6.70686">
        <ele>450.2</ele>
        <time>2014-05-18T09:17:58.000Z</time>
      </trkpt>
      <trkpt lat="47.42887" lon="6.7069">
        <ele>450.4</ele>
        <time>2014-05-18T09:17:59.000Z</time>
      </trkpt>
      <trkpt lat="47.42888" lon="6.70693">
        <ele>450.9</ele>
        <time>2014-05-18T09:18:00.000Z</time>
      </trkpt>
      <trkpt lat="47.42889" lon="6.70696">
        <ele>451.1</ele>
        <time>2014-05-18T09:18:01.000Z</time>
      </trkpt>
      <trkpt lat="47.4289" lon="6.70699">
        <ele>451.6</ele>
        <time>2014-05-18T09:18:02.000Z</time>
      </trkpt>
      <trkpt lat="47.42891" lon="6.70703">
        <ele>451.8</ele>
        <time>2014-05-18T09:18:03.000Z</time>
      </trkpt>
      <trkpt lat="47.42892" lon="6.70706">
        <ele>451.9</ele>
        <time>2014-05-18T09:18:04.000Z</time>
      </trkpt>
      <trkpt lat="47.42893" lon="6.70709">
        <ele>452.1</ele>
        <time>2014-05-18T09:18:05.000Z</time>
      </trkpt>
      <trkpt lat="47.42894" lon="6.70712">
        <ele>452.4</ele>
        <time>2014-05-18T09:18:06.000Z</time>
      </trkpt>
      <trkpt lat="47.42896" lon="6.70715">
        <ele>452.6</ele>
        <time>2014-05-18T09:18:07.000Z</time>
      </trkpt>
      <trkpt lat="47.42897" lon="6.70718">
        <ele>453</ele>
        <time>2014-05-18T09:18:08.000Z</time>
      </trkpt>
      <trkpt lat="47.42898" lon="6.70721">
        <ele>453.1</ele>
        <time>2014-05-18T09:18:09.000Z</time>
      </trkpt>
      <trkpt lat="47.429" lon="6.70724">
        <ele>453.3</ele>
        <time>2014-05-18T09:18:10.000Z</time>
      </trkpt>
      <trkpt lat="47.42902" lon="6.70726">
        <ele>454</ele>
        <time>2014-05-18T09:18:11.000Z</time>
      </trkpt>
      <trkpt lat="47.42903" lon="6.70729">
        <ele>454.5</ele>
        <time>2014-05-18T09:18:12.000Z</time>
      </trkpt>
      <trkpt lat="47.42905" lon="6.70732">
        <ele>454.7</ele>
        <time>2014-05-18T09:18:13.000Z</time>
      </trkpt>
      <trkpt lat="47.42906" lon="6.70734">
        <ele>454.9</ele>
        <time>2014-05-18T09:18:14.000Z</time>
      </trkpt>
      <trkpt lat="47.42908" lon="6.70737">
        <ele>454.9</ele>
        <time>2014-05-18T09:18:15.000Z</time>
      </trkpt>
      <trkpt lat="47.4291" lon="6.7074">
        <ele>455.1</ele>
        <time>2014-05-18T09:18:16.000Z</time>
      </trkpt>
      <trkpt lat="47.42912" lon="6.70743">
        <ele>454.6</ele>
        <time>2014-05-18T09:18:17.000Z</time>
      </trkpt>
      <trkpt lat="47.42914" lon="6.70746">
        <ele>454.2</ele>
        <time>2014-05-18T09:18:18.000Z</time>
      </trkpt>
      <trkpt lat="47.42916" lon="6.70749">
        <ele>454.3</ele>
        <time>2014-05-18T09:18:19.000Z</time>
      </trkpt>
      <trkpt lat="47.42918" lon="6.70752">
        <ele>454.1</ele>
        <time>2014-05-18T09:18:20.000Z</time>
      </trkpt>
      <trkpt lat="47.4292" lon="6.70755">
        <ele>453.9</ele>
        <time>2014-05-18T09:18:21.000Z</time>
      </trkpt>
      <trkpt lat="47.42921" lon="6.70758">
        <ele>453.5</ele>
        <time>2014-05-18T09:18:22.000Z</time>
      </trkpt>
      <trkpt lat="47.42923" lon="6.70761">
        <ele>453.7</ele>
        <time>2014-05-18T09:18:23.000Z</time>
      </trkpt>
      <trkpt lat="47.42925" lon="6.70764">
        <ele>453.5</ele>
        <time>2014-05-18T09:18:24.000Z</time>
      </trkpt>
      <trkpt lat="47.42927" lon="6.70767">
        <ele>453.5</ele>
        <time>2014-05-18T09:18:25.000Z</time>
      </trkpt>
      <trkpt lat="47.42929" lon="6.7077">
        <ele>453.2</ele>
        <time>2014-05-18T09:18:26.000Z</time>
      </trkpt>
      <trkpt lat="47.4293" lon="6.70773">
        <ele>453.4</ele>
        <time>2014-05-18T09:18:27.000Z</time>
      </trkpt>
      <trkpt lat="47.42931" lon="6.70776">
        <ele>453.7</ele>
        <time>2014-05-18T09:18:28.000Z</time>
      </trkpt>
      <trkpt lat="47.42933" lon="6.70779">
        <ele>453.6</ele>
        <time>2014-05-18T09:18:29.000Z</time>
      </trkpt>
      <trkpt lat="47.42934" lon="6.70782">
        <ele>453.9</ele>
        <time>2014-05-18T09:18:30.000Z</time>
      </trkpt>
      <trkpt lat="47.42935" lon="6.70785">
        <ele>454.3</ele>
        <time>2014-05-18T09:18:31.000Z</time>
      </trkpt>
      <trkpt lat="47.42937" lon="6.70788">
        <ele>454.4</ele>
        <time>2014-05-18T09:18:32.000Z</time>
      </trkpt>
      <trkpt lat="47.42938" lon="6.70791">
        <ele>454.7</ele>
        <time>2014-05-18T09:18:33.000Z</time>
      </trkpt>
      <trkpt lat="47.42939" lon="6.70794">
        <ele>454.8</ele>
        <time>2014-05-18T09:18:34.000Z</time>
      </trkpt>
      <trkpt lat="47.4294" lon="6.70798">
        <ele>454.6</ele>
        <time>2014-05-18T09:18:35.000Z</time>
      </trkpt>
      <trkpt lat="47.42941" lon="6.70801">
        <ele>455.6</ele>
        <time>2014-05-18T09:18:36.000Z</time>
      </trkpt>
      <trkpt lat="47.42943" lon="6.70804">
        <ele>455.1</ele>
        <time>2014-05-18T09:18:37.000Z</time>
      </trkpt>
      <trkpt lat="47.42944" lon="6.70808">
        <ele>454.5</ele>
        <time>2014-05-18T09:18:38.000Z</time>
      </trkpt>
      <trkpt lat="47.42945" lon="6.70811">
        <ele>454.2</ele>
        <time>2014-05-18T09:18:39.000Z</time>
      </trkpt>
      <trkpt lat="47.42946" lon="6.70815">
        <ele>454.5</ele>
        <time>2014-05-18T09:18:40.000Z</time>
      </trkpt>
      <trkpt lat="47.42947" lon="6.70819">
        <ele>454.6</ele>
        <time>2014-05-18T09:18:41.000Z</time>
      </trkpt>
      <trkpt lat="47.42948" lon="6.70822">
        <ele>455.1</ele>
        <time>2014-05-18T09:18:42.000Z</time>
      </trkpt>
      <trkpt lat="47.42949" lon="6.70826">
        <ele>456</ele>
        <time>2014-05-18T09:18:43.000Z</time>
      </trkpt>
      <trkpt lat="47.4295" lon="6.7083">
        <ele>456</ele>
        <time>2014-05-18T09:18:44.000Z</time>
      </trkpt>
      <trkpt lat="47.42951" lon="6.70834">
        <ele>455.5</ele>
        <time>2014-05-18T09:18:45.000Z</time>
      </trkpt>
      <trkpt lat="47.42952" lon="6.70837">
        <ele>455.7</ele>
        <time>2014-05-18T09:18:46.000Z</time>
      </trkpt>
      <trkpt lat="47.42956" lon="6.70867">
        <ele>456.2</ele>
        <time>2014-05-18T09:18:54.000Z</time>
      </trkpt>
      <trkpt lat="47.42956" lon="6.70871">
        <ele>456.3</ele>
        <time>2014-05-18T09:18:55.000Z</time>
      </trkpt>
      <trkpt lat="47.42957" lon="6.70875">
        <ele>456.4</ele>
        <time>2014-05-18T09:18:56.000Z</time>
      </trkpt>
      <trkpt lat="47.42958" lon="6.7088">
        <ele>456.8</ele>
        <time>2014-05-18T09:18:57.000Z</time>
      </trkpt>
      <trkpt lat="47.42959" lon="6.70884">
        <ele>456.8</ele>
        <time>2014-05-18T09:18:58.000Z</time>
      </trkpt>
      <trkpt lat="47.4296" lon="6.70889">
        <ele>456.9</ele>
        <time>2014-05-18T09:18:59.000Z</time>
      </trkpt>
      <trkpt lat="47.42961" lon="6.70893">
        <ele>456.7</ele>
        <time>2014-05-18T09:19:00.000Z</time>
      </trkpt>
      <trkpt lat="47.42962" lon="6.70898">
        <ele>456.6</ele>
        <time>2014-05-18T09:19:01.000Z</time>
      </trkpt>
      <trkpt lat="47.42963" lon="6.70902">
        <ele>456.5</ele>
        <time>2014-05-18T09:19:02.000Z</time>
      </trkpt>
      <trkpt lat="47.42964" lon="6.70907">
        <ele>456</ele>
        <time>2014-05-18T09:19:03.000Z</time>
      </trkpt>
      <trkpt lat="47.42965" lon="6.70911">
        <ele>456</ele>
        <time>2014-05-18T09:19:04.000Z</time>
      </trkpt>
      <trkpt lat="47.42966" lon="6.70916">
        <ele>455.9</ele>
        <time>2014-05-18T09:19:05.000Z</time>
      </trkpt>
      <trkpt lat="47.42967" lon="6.7092">
        <ele>455.8</ele>
        <time>2014-05-18T09:19:06.000Z</time>
      </trkpt>
      <trkpt lat="47.42969" lon="6.70924">
        <ele>455.9</ele>
        <time>2014-05-18T09:19:07.000Z</time>
      </trkpt>
      <trkpt lat="47.4297" lon="6.70929">
        <ele>455.6</ele>
        <time>2014-05-18T09:19:08.000Z</time>
      </trkpt>
      <trkpt lat="47.42972" lon="6.70934">
        <ele>455.3</ele>
        <time>2014-05-18T09:19:09.000Z</time>
      </trkpt>
      <trkpt lat="47.42974" lon="6.70939">
        <ele>455</ele>
        <time>2014-05-18T09:19:10.000Z</time>
      </trkpt>
      <trkpt lat="47.42976" lon="6.70946">
        <ele>454.6</ele>
        <time>2014-05-18T09:19:11.000Z</time>
      </trkpt>
      <trkpt lat="47.42979" lon="6.70953">
        <ele>454.2</ele>
        <time>2014-05-18T09:19:12.000Z</time>
      </trkpt>
      <trkpt lat="47.42981" lon="6.70959">
        <ele>453.9</ele>
        <time>2014-05-18T09:19:13.000Z</time>
      </trkpt>
      <trkpt lat="47.42984" lon="6.70966">
        <ele>453.7</ele>
        <time>2014-05-18T09:19:14.000Z</time>
      </trkpt>
      <trkpt lat="47.42986" lon="6.70973">
        <ele>453.6</ele>
        <time>2014-05-18T09:19:15.000Z</time>
      </trkpt>
      <trkpt lat="47.42989" lon="6.7098">
        <ele>453.5</ele>
        <time>2014-05-18T09:19:16.000Z</time>
      </trkpt>
      <trkpt lat="47.42991" lon="6.70987">
        <ele>453.5</ele>
        <time>2014-05-18T09:19:17.000Z</time>
      </trkpt>
      <trkpt lat="47.42994" lon="6.70993">
        <ele>453.3</ele>
        <time>2014-05-18T09:19:18.000Z</time>
      </trkpt>
      <trkpt lat="47.42996" lon="6.71">
        <ele>453.1</ele>
        <time>2014-05-18T09:19:19.000Z</time>
      </trkpt>
      <trkpt lat="47.42998" lon="6.71007">
        <ele>452.9</ele>
        <time>2014-05-18T09:19:20.000Z</time>
      </trkpt>
      <trkpt lat="47.43" lon="6.71014">
        <ele>453.5</ele>
        <time>2014-05-18T09:19:21.000Z</time>
      </trkpt>
      <trkpt lat="47.43003" lon="6.7102">
        <ele>453.6</ele>
        <time>2014-05-18T09:19:22.000Z</time>
      </trkpt>
      <trkpt lat="47.43005" lon="6.71025">
        <ele>453.4</ele>
        <time>2014-05-18T09:19:23.000Z</time>
      </trkpt>
      <trkpt lat="47.43007" lon="6.71031">
        <ele>452.8</ele>
        <time>2014-05-18T09:19:24.000Z</time>
      </trkpt>
      <trkpt lat="47.4301" lon="6.71038">
        <ele>453</ele>
        <time>2014-05-18T09:19:25.000Z</time>
      </trkpt>
      <trkpt lat="47.43013" lon="6.71043">
        <ele>452.9</ele>
        <time>2014-05-18T09:19:26.000Z</time>
      </trkpt>
      <trkpt lat="47.43015" lon="6.71049">
        <ele>451.9</ele>
        <time>2014-05-18T09:19:27.000Z</time>
      </trkpt>
      <trkpt lat="47.43018" lon="6.71055">
        <ele>451.8</ele>
        <time>2014-05-18T09:19:28.000Z</time>
      </trkpt>
      <trkpt lat="47.43019" lon="6.71062">
        <ele>451.5</ele>
        <time>2014-05-18T09:19:29.000Z</time>
      </trkpt>
      <trkpt lat="47.43021" lon="6.71068">
        <ele>452.4</ele>
        <time>2014-05-18T09:19:30.000Z</time>
      </trkpt>
      <trkpt lat="47.43024" lon="6.71073">
        <ele>452.2</ele>
        <time>2014-05-18T09:19:31.000Z</time>
      </trkpt>
      <trkpt lat="47.43027" lon="6.71079">
        <ele>451.2</ele>
        <time>2014-05-18T09:19:32.000Z</time>
      </trkpt>
      <trkpt lat="47.43029" lon="6.71085">
        <ele>450.8</ele>
        <time>2014-05-18T09:19:33.000Z</time>
      </trkpt>
      <trkpt lat="47.43031" lon="6.7109">
        <ele>450.3</ele>
        <time>2014-05-18T09:19:34.000Z</time>
      </trkpt>
      <trkpt lat="47.43033" lon="6.71095">
        <ele>450.4</ele>
        <time>2014-05-18T09:19:35.000Z</time>
      </trkpt>
      <trkpt lat="47.43035" lon="6.711">
        <ele>450.8</ele>
        <time>2014-05-18T09:19:36.000Z</time>
      </trkpt>
      <trkpt lat="47.43039" lon="6.71104">
        <ele>451.1</ele>
        <time>2014-05-18T09:19:37.000Z</time>
      </trkpt>
      <trkpt lat="47.43042" lon="6.7111">
        <ele>451.4</ele>
        <time>2014-05-18T09:19:38.000Z</time>
      </trkpt>
      <trkpt lat="47.43045" lon="6.71114">
        <ele>451.3</ele>
        <time>2014-05-18T09:19:39.000Z</time>
      </trkpt>
      <trkpt lat="47.43048" lon="6.71118">
        <ele>451.4</ele>
        <time>2014-05-18T09:19:40.000Z</time>
      </trkpt>
      <trkpt lat="47.43051" lon="6.71123">
        <ele>451.7</ele>
        <time>2014-05-18T09:19:41.000Z</time>
      </trkpt>
      <trkpt lat="47.43054" lon="6.71127">
        <ele>452</ele>
        <time>2014-05-18T09:19:42.000Z</time>
      </trkpt>
      <trkpt lat="47.43058" lon="6.71131">
        <ele>452.3</ele>
        <time>2014-05-18T09:19:43.000Z</time>
      </trkpt>
      <trkpt lat="47.43061" lon="6.71135">
        <ele>452.4</ele>
        <time>2014-05-18T09:19:44.000Z</time>
      </trkpt>
      <trkpt lat="47.43064" lon="6.71139">
        <ele>452.2</ele>
        <time>2014-05-18T09:19:45.000Z</time>
      </trkpt>
      <trkpt lat="47.43067" lon="6.71143">
        <ele>452.6</ele>
        <time>2014-05-18T09:19:46.000Z</time>
      </trkpt>
      <trkpt lat="47.43088" lon="6.71172">
        <ele>452.7</ele>
        <time>2014-05-18T09:19:54.000Z</time>
      </trkpt>
      <trkpt lat="47.4309" lon="6.71176">
        <ele>453</ele>
        <time>2014-05-18T09:19:55.000Z</time>
      </trkpt>
      <trkpt lat="47.43092" lon="6.71179">
        <ele>455.3</ele>
        <time>2014-05-18T09:19:56.000Z</time>
      </trkpt>
      <trkpt lat="47.43094" lon="6.71182">
        <ele>455.3</ele>
        <time>2014-05-18T09:19:57.000Z</time>
      </trkpt>
      <trkpt lat="47.43095" lon="6.71185">
        <ele>455.6</ele>
        <time>2014-05-18T09:19:58.000Z</time>
      </trkpt>
      <trkpt lat="47.43097" lon="6.7119">
        <ele>456.3</ele>
        <time>2014-05-18T09:20:01.000Z</time>
      </trkpt>
      <trkpt lat="47.43097" lon="6.71191">
        <ele>457.2</ele>
        <time>2014-05-18T09:20:02.000Z</time>
      </trkpt>
      <trkpt lat="47.431" lon="6.71195">
        <ele>456.3</ele>
        <time>2014-05-18T09:20:11.000Z</time>
      </trkpt>
      <trkpt lat="47.43101" lon="6.71197">
        <ele>456.6</ele>
        <time>2014-05-18T09:20:12.000Z</time>
      </trkpt>
      <trkpt lat="47.43103" lon="6.712">
        <ele>457.8</ele>
        <time>2014-05-18T09:20:13.000Z</time>
      </trkpt>
      <trkpt lat="47.43105" lon="6.71202">
        <ele>458.1</ele>
        <time>2014-05-18T09:20:14.000Z</time>
      </trkpt>
      <trkpt lat="47.43107" lon="6.71205">
        <ele>458.1</ele>
        <time>2014-05-18T09:20:15.000Z</time>
      </trkpt>
      <trkpt lat="47.43108" lon="6.71207">
        <ele>458.4</ele>
        <time>2014-05-18T09:20:16.000Z</time>
      </trkpt>
      <trkpt lat="47.4311" lon="6.71209">
        <ele>458.6</ele>
        <time>2014-05-18T09:20:17.000Z</time>
      </trkpt>
      <trkpt lat="47.43112" lon="6.71212">
        <ele>459.5</ele>
        <time>2014-05-18T09:20:18.000Z</time>
      </trkpt>
      <trkpt lat="47.43113" lon="6.71214">
        <ele>460.7</ele>
        <time>2014-05-18T09:20:19.000Z</time>
      </trkpt>
      <trkpt lat="47.43115" lon="6.71216">
        <ele>461.1</ele>
        <time>2014-05-18T09:20:20.000Z</time>
      </trkpt>
      <trkpt lat="47.43117" lon="6.71219">
        <ele>461.8</ele>
        <time>2014-05-18T09:20:21.000Z</time>
      </trkpt>
      <trkpt lat="47.43119" lon="6.71222">
        <ele>462.9</ele>
        <time>2014-05-18T09:20:22.000Z</time>
      </trkpt>
      <trkpt lat="47.43121" lon="6.71226">
        <ele>464</ele>
        <time>2014-05-18T09:20:23.000Z</time>
      </trkpt>
      <trkpt lat="47.43123" lon="6.71229">
        <ele>465</ele>
        <time>2014-05-18T09:20:24.000Z</time>
      </trkpt>
      <trkpt lat="47.43125" lon="6.71233">
        <ele>466</ele>
        <time>2014-05-18T09:20:25.000Z</time>
      </trkpt>
      <trkpt lat="47.43127" lon="6.71236">
        <ele>465.7</ele>
        <time>2014-05-18T09:20:26.000Z</time>
      </trkpt>
      <trkpt lat="47.43129" lon="6.71239">
        <ele>466.8</ele>
        <time>2014-05-18T09:20:27.000Z</time>
      </trkpt>
      <trkpt lat="47.43131" lon="6.71242">
        <ele>466.7</ele>
        <time>2014-05-18T09:20:28.000Z</time>
      </trkpt>
      <trkpt lat="47.43133" lon="6.71245">
        <ele>466.7</ele>
        <time>2014-05-18T09:20:29.000Z</time>
      </trkpt>
      <trkpt lat="47.43135" lon="6.71247">
        <ele>465.1</ele>
        <time>2014-05-18T09:20:30.000Z</time>
      </trkpt>
      <trkpt lat="47.43137" lon="6.71249">
        <ele>466.5</ele>
        <time>2014-05-18T09:20:31.000Z</time>
      </trkpt>
      <trkpt lat="47.43139" lon="6.71252">
        <ele>467.3</ele>
        <time>2014-05-18T09:20:32.000Z</time>
      </trkpt>
      <trkpt lat="47.43142" lon="6.71254">
        <ele>465.1</ele>
        <time>2014-05-18T09:20:33.000Z</time>
      </trkpt>
      <trkpt lat="47.43144" lon="6.71257">
        <ele>465.4</ele>
        <time>2014-05-18T09:20:34.000Z</time>
      </trkpt>
      <trkpt lat="47.43147" lon="6.71259">
        <ele>465.7</ele>
        <time>2014-05-18T09:20:35.000Z</time>
      </trkpt>
      <trkpt lat="47.4315" lon="6.71261">
        <ele>465.2</ele>
        <time>2014-05-18T09:20:36.000Z</time>
      </trkpt>
      <trkpt lat="47.43152" lon="6.71263">
        <ele>464.3</ele>
        <time>2014-05-18T09:20:37.000Z</time>
      </trkpt>
      <trkpt lat="47.43154" lon="6.71266">
        <ele>463.3</ele>
        <time>2014-05-18T09:20:38.000Z</time>
      </trkpt>
      <trkpt lat="47.43156" lon="6.7127">
        <ele>464.2</ele>
        <time>2014-05-18T09:20:39.000Z</time>
      </trkpt>
      <trkpt lat="47.43158" lon="6.71274">
        <ele>463.6</ele>
        <time>2014-05-18T09:20:40.000Z</time>
      </trkpt>
      <trkpt lat="47.4316" lon="6.71278">
        <ele>462.5</ele>
        <time>2014-05-18T09:20:41.000Z</time>
      </trkpt>
      <trkpt lat="47.43162" lon="6.71283">
        <ele>461.6</ele>
        <time>2014-05-18T09:20:42.000Z</time>
      </trkpt>
      <trkpt lat="47.43165" lon="6.71287">
        <ele>460.6</ele>
        <time>2014-05-18T09:20:43.000Z</time>
      </trkpt>
      <trkpt lat="47.43167" lon="6.71291">
        <ele>459.6</ele>
        <time>2014-05-18T09:20:44.000Z</time>
      </trkpt>
      <trkpt lat="47.43168" lon="6.71296">
        <ele>461.2</ele>
        <time>2014-05-18T09:20:45.000Z</time>
      </trkpt>
      <trkpt lat="47.4317" lon="6.713">
        <ele>460.2</ele>
        <time>2014-05-18T09:20:46.000Z</time>
      </trkpt>
      <trkpt lat="47.43186" lon="6.71339">
        <ele>454.4</ele>
        <time>2014-05-18T09:20:54.000Z</time>
      </trkpt>
      <trkpt lat="47.43188" lon="6.71343">
        <ele>454.9</ele>
        <time>2014-05-18T09:20:55.000Z</time>
      </trkpt>
      <trkpt lat="47.4319" lon="6.71348">
        <ele>453.9</ele>
        <time>2014-05-18T09:20:56.000Z</time>
      </trkpt>
      <trkpt lat="47.43193" lon="6.71352">
        <ele>454.4</ele>
        <time>2014-05-18T09:20:57.000Z</time>
      </trkpt>
      <trkpt lat="47.43195" lon="6.71357">
        <ele>453.6</ele>
        <time>2014-05-18T09:20:58.000Z</time>
      </trkpt>
      <trkpt lat="47.43197" lon="6.71361">
        <ele>454.9</ele>
        <time>2014-05-18T09:20:59.000Z</time>
      </trkpt>
      <trkpt lat="47.43199" lon="6.71366">
        <ele>454.4</ele>
        <time>2014-05-18T09:21:00.000Z</time>
      </trkpt>
      <trkpt lat="47.43202" lon="6.71371">
        <ele>454.7</ele>
        <time>2014-05-18T09:21:01.000Z</time>
      </trkpt>
      <trkpt lat="47.43204" lon="6.71376">
        <ele>455</ele>
        <time>2014-05-18T09:21:02.000Z</time>
      </trkpt>
      <trkpt lat="47.43206" lon="6.71381">
        <ele>455.6</ele>
        <time>2014-05-18T09:21:03.000Z</time>
      </trkpt>
      <trkpt lat="47.43208" lon="6.71386">
        <ele>456</ele>
        <time>2014-05-18T09:21:04.000Z</time>
      </trkpt>
      <trkpt lat="47.43211" lon="6.71391">
        <ele>456.3</ele>
        <time>2014-05-18T09:21:05.000Z</time>
      </trkpt>
      <trkpt lat="47.43213" lon="6.71396">
        <ele>456.8</ele>
        <time>2014-05-18T09:21:06.000Z</time>
      </trkpt>
      <trkpt lat="47.43215" lon="6.71401">
        <ele>456.5</ele>
        <time>2014-05-18T09:21:07.000Z</time>
      </trkpt>
      <trkpt lat="47.43217" lon="6.71406">
        <ele>456.9</ele>
        <time>2014-05-18T09:21:08.000Z</time>
      </trkpt>
      <trkpt lat="47.43219" lon="6.7141">
        <ele>457.1</ele>
        <time>2014-05-18T09:21:09.000Z</time>
      </trkpt>
      <trkpt lat="47.43221" lon="6.71415">
        <ele>457.3</ele>
        <time>2014-05-18T09:21:10.000Z</time>
      </trkpt>
      <trkpt lat="47.43223" lon="6.7142">
        <ele>458.2</ele>
        <time>2014-05-18T09:21:11.000Z</time>
      </trkpt>
      <trkpt lat="47.43225" lon="6.71425">
        <ele>458.5</ele>
        <time>2014-05-18T09:21:12.000Z</time>
      </trkpt>
      <trkpt lat="47.43227" lon="6.71429">
        <ele>458.8</ele>
        <time>2014-05-18T09:21:13.000Z</time>
      </trkpt>
      <trkpt lat="47.4323" lon="6.71434">
        <ele>459.4</ele>
        <time>2014-05-18T09:21:14.000Z</time>
      </trkpt>
      <trkpt lat="47.43232" lon="6.71438">
        <ele>459.2</ele>
        <time>2014-05-18T09:21:15.000Z</time>
      </trkpt>
      <trkpt lat="47.43234" lon="6.71442">
        <ele>459.6</ele>
        <time>2014-05-18T09:21:16.000Z</time>
      </trkpt>
      <trkpt lat="47.43237" lon="6.71446">
        <ele>460.1</ele>
        <time>2014-05-18T09:21:17.000Z</time>
      </trkpt>
      <trkpt lat="47.43239" lon="6.7145">
        <ele>460.8</ele>
        <time>2014-05-18T09:21:18.000Z</time>
      </trkpt>
      <trkpt lat="47.43242" lon="6.71455">
        <ele>460.9</ele>
        <time>2014-05-18T09:21:19.000Z</time>
      </trkpt>
      <trkpt lat="47.43245" lon="6.71459">
        <ele>460.7</ele>
        <time>2014-05-18T09:21:20.000Z</time>
      </trkpt>
      <trkpt lat="47.43248" lon="6.71463">
        <ele>460.6</ele>
        <time>2014-05-18T09:21:21.000Z</time>
      </trkpt>
      <trkpt lat="47.43251" lon="6.71466">
        <ele>460.3</ele>
        <time>2014-05-18T09:21:22.000Z</time>
      </trkpt>
      <trkpt lat="47.43253" lon="6.7147">
        <ele>460.4</ele>
        <time>2014-05-18T09:21:23.000Z</time>
      </trkpt>
      <trkpt lat="47.43256" lon="6.71473">
        <ele>460.5</ele>
        <time>2014-05-18T09:21:24.000Z</time>
      </trkpt>
      <trkpt lat="47.43259" lon="6.71477">
        <ele>460.3</ele>
        <time>2014-05-18T09:21:25.000Z</time>
      </trkpt>
      <trkpt lat="47.43262" lon="6.71481">
        <ele>459.8</ele>
        <time>2014-05-18T09:21:26.000Z</time>
      </trkpt>
      <trkpt lat="47.43267" lon="6.71485">
        <ele>459.6</ele>
        <time>2014-05-18T09:21:27.000Z</time>
      </trkpt>
      <trkpt lat="47.43271" lon="6.71489">
        <ele>459</ele>
        <time>2014-05-18T09:21:28.000Z</time>
      </trkpt>
      <trkpt lat="47.43275" lon="6.71494">
        <ele>458.7</ele>
        <time>2014-05-18T09:21:29.000Z</time>
      </trkpt>
      <trkpt lat="47.43279" lon="6.715">
        <ele>458.4</ele>
        <time>2014-05-18T09:21:30.000Z</time>
      </trkpt>
      <trkpt lat="47.43283" lon="6.71508">
        <ele>458.1</ele>
        <time>2014-05-18T09:21:31.000Z</time>
      </trkpt>
      <trkpt lat="47.4329" lon="6.71514">
        <ele>457.4</ele>
        <time>2014-05-18T09:21:32.000Z</time>
      </trkpt>
      <trkpt lat="47.43294" lon="6.7152">
        <ele>457.3</ele>
        <time>2014-05-18T09:21:33.000Z</time>
      </trkpt>
      <trkpt lat="47.43299" lon="6.71527">
        <ele>456.8</ele>
        <time>2014-05-18T09:21:34.000Z</time>
      </trkpt>
      <trkpt lat="47.43304" lon="6.71534">
        <ele>455.9</ele>
        <time>2014-05-18T09:21:35.000Z</time>
      </trkpt>
      <trkpt lat="47.43309" lon="6.71541">
        <ele>455.4</ele>
        <time>2014-05-18T09:21:36.000Z</time>
      </trkpt>
      <trkpt lat="47.43315" lon="6.71548">
        <ele>454.4</ele>
        <time>2014-05-18T09:21:37.000Z</time>
      </trkpt>
      <trkpt lat="47.4332" lon="6.71555">
        <ele>454</ele>
        <time>2014-05-18T09:21:38.000Z</time>
      </trkpt>
      <trkpt lat="47.43326" lon="6.71563">
        <ele>453.9</ele>
        <time>2014-05-18T09:21:39.000Z</time>
      </trkpt>
      <trkpt lat="47.43331" lon="6.7157">
        <ele>454.5</ele>
        <time>2014-05-18T09:21:40.000Z</time>
      </trkpt>
      <trkpt lat="47.43335" lon="6.71576">
        <ele>453.7</ele>
        <time>2014-05-18T09:21:41.000Z</time>
      </trkpt>
      <trkpt lat="47.43339" lon="6.71583">
        <ele>453.4</ele>
        <time>2014-05-18T09:21:42.000Z</time>
      </trkpt>
      <trkpt lat="47.43344" lon="6.71589">
        <ele>453.2</ele>
        <time>2014-05-18T09:21:43.000Z</time>
      </trkpt>
      <trkpt lat="47.43349" lon="6.71596">
        <ele>453.6</ele>
        <time>2014-05-18T09:21:44.000Z</time>
      </trkpt>
      <trkpt lat="47.43353" lon="6.71604">
        <ele>453.7</ele>
        <time>2014-05-18T09:21:45.000Z</time>
      </trkpt>
      <trkpt lat="47.43357" lon="6.7161">
        <ele>453.6</ele>
        <time>2014-05-18T09:21:46.000Z</time>
      </trkpt>
      <trkpt lat="47.43391" lon="6.71664">
        <ele>454.5</ele>
        <time>2014-05-18T09:21:54.000Z</time>
      </trkpt>
      <trkpt lat="47.43397" lon="6.71669">
        <ele>453.7</ele>
        <time>2014-05-18T09:21:55.000Z</time>
      </trkpt>
      <trkpt lat="47.43401" lon="6.71678">
        <ele>453.1</ele>
        <time>2014-05-18T09:21:56.000Z</time>
      </trkpt>
      <trkpt lat="47.43406" lon="6.71686">
        <ele>452.5</ele>
        <time>2014-05-18T09:21:57.000Z</time>
      </trkpt>
      <trkpt lat="47.43411" lon="6.71695">
        <ele>451.9</ele>
        <time>2014-05-18T09:21:58.000Z</time>
      </trkpt>
      <trkpt lat="47.43415" lon="6.71704">
        <ele>452</ele>
        <time>2014-05-18T09:21:59.000Z</time>
      </trkpt>
      <trkpt lat="47.43421" lon="6.71712">
        <ele>451.7</ele>
        <time>2014-05-18T09:22:00.000Z</time>
      </trkpt>
      <trkpt lat="47.43425" lon="6.71721">
        <ele>451.9</ele>
        <time>2014-05-18T09:22:01.000Z</time>
      </trkpt>
      <trkpt lat="47.43429" lon="6.71729">
        <ele>451.8</ele>
        <time>2014-05-18T09:22:02.000Z</time>
      </trkpt>
      <trkpt lat="47.43432" lon="6.71737">
        <ele>451.6</ele>
        <time>2014-05-18T09:22:03.000Z</time>
      </trkpt>
      <trkpt lat="47.43435" lon="6.71744">
        <ele>452.1</ele>
        <time>2014-05-18T09:22:04.000Z</time>
      </trkpt>
      <trkpt lat="47.43439" lon="6.71753">
        <ele>452.2</ele>
        <time>2014-05-18T09:22:05.000Z</time>
      </trkpt>
      <trkpt lat="47.43442" lon="6.71761">
        <ele>452.4</ele>
        <time>2014-05-18T09:22:06.000Z</time>
      </trkpt>
      <trkpt lat="47.43444" lon="6.71769">
        <ele>452.8</ele>
        <time>2014-05-18T09:22:07.000Z</time>
      </trkpt>
      <trkpt lat="47.43447" lon="6.71777">
        <ele>453</ele>
        <time>2014-05-18T09:22:08.000Z</time>
      </trkpt>
      <trkpt lat="47.4345" lon="6.71785">
        <ele>453.1</ele>
        <time>2014-05-18T09:22:09.000Z</time>
      </trkpt>
      <trkpt lat="47.43452" lon="6.71794">
        <ele>453.4</ele>
        <time>2014-05-18T09:22:10.000Z</time>
      </trkpt>
      <trkpt lat="47.43454" lon="6.71801">
        <ele>453.7</ele>
        <time>2014-05-18T09:22:11.000Z</time>
      </trkpt>
      <trkpt lat="47.43456" lon="6.71808">
        <ele>454</ele>
        <time>2014-05-18T09:22:12.000Z</time>
      </trkpt>
      <trkpt lat="47.43458" lon="6.71816">
        <ele>454.3</ele>
        <time>2014-05-18T09:22:13.000Z</time>
      </trkpt>
      <trkpt lat="47.4346" lon="6.71824">
        <ele>454.4</ele>
        <time>2014-05-18T09:22:14.000Z</time>
      </trkpt>
      <trkpt lat="47.43462" lon="6.71831">
        <ele>454.8</ele>
        <time>2014-05-18T09:22:15.000Z</time>
      </trkpt>
      <trkpt lat="47.43463" lon="6.71838">
        <ele>455</ele>
        <time>2014-05-18T09:22:16.000Z</time>
      </trkpt>
      <trkpt lat="47.43465" lon="6.71845">
        <ele>455.3</ele>
        <time>2014-05-18T09:22:17.000Z</time>
      </trkpt>
      <trkpt lat="47.43467" lon="6.71853">
        <ele>455.7</ele>
        <time>2014-05-18T09:22:18.000Z</time>
      </trkpt>
      <trkpt lat="47.43468" lon="6.71859">
        <ele>455.7</ele>
        <time>2014-05-18T09:22:19.000Z</time>
      </trkpt>
      <trkpt lat="47.4347" lon="6.71866">
        <ele>455.9</ele>
        <time>2014-05-18T09:22:20.000Z</time>
      </trkpt>
      <trkpt lat="47.43472" lon="6.71873">
        <ele>456.3</ele>
        <time>2014-05-18T09:22:21.000Z</time>
      </trkpt>
      <trkpt lat="47.43474" lon="6.71881">
        <ele>456.3</ele>
        <time>2014-05-18T09:22:22.000Z</time>
      </trkpt>
      <trkpt lat="47.43475" lon="6.71889">
        <ele>456.6</ele>
        <time>2014-05-18T09:22:23.000Z</time>
      </trkpt>
      <trkpt lat="47.43477" lon="6.71897">
        <ele>456.4</ele>
        <time>2014-05-18T09:22:24.000Z</time>
      </trkpt>
      <trkpt lat="47.43479" lon="6.71906">
        <ele>456.5</ele>
        <time>2014-05-18T09:22:25.000Z</time>
      </trkpt>
      <trkpt lat="47.43481" lon="6.71913">
        <ele>455.3</ele>
        <time>2014-05-18T09:22:26.000Z</time>
      </trkpt>
      <trkpt lat="47.43483" lon="6.7192">
        <ele>455.1</ele>
        <time>2014-05-18T09:22:27.000Z</time>
      </trkpt>
      <trkpt lat="47.43484" lon="6.71926">
        <ele>455.7</ele>
        <time>2014-05-18T09:22:28.000Z</time>
      </trkpt>
      <trkpt lat="47.43486" lon="6.71933">
        <ele>455</ele>
        <time>2014-05-18T09:22:29.000Z</time>
      </trkpt>
      <trkpt lat="47.43488" lon="6.71938">
        <ele>455</ele>
        <time>2014-05-18T09:22:30.000Z</time>
      </trkpt>
      <trkpt lat="47.4349" lon="6.71943">
        <ele>455</ele>
        <time>2014-05-18T09:22:31.000Z</time>
      </trkpt>
      <trkpt lat="47.43492" lon="6.71948">
        <ele>454.9</ele>
        <time>2014-05-18T09:22:32.000Z</time>
      </trkpt>
      <trkpt lat="47.43494" lon="6.71953">
        <ele>454.7</ele>
        <time>2014-05-18T09:22:33.000Z</time>
      </trkpt>
      <trkpt lat="47.43495" lon="6.71958">
        <ele>454.4</ele>
        <time>2014-05-18T09:22:34.000Z</time>
      </trkpt>
      <trkpt lat="47.43497" lon="6.71963">
        <ele>454.2</ele>
        <time>2014-05-18T09:22:35.000Z</time>
      </trkpt>
      <trkpt lat="47.43498" lon="6.71968">
        <ele>454.2</ele>
        <time>2014-05-18T09:22:36.000Z</time>
      </trkpt>
      <trkpt lat="47.43499" lon="6.71974">
        <ele>454.6</ele>
        <time>2014-05-18T09:22:37.000Z</time>
      </trkpt>
      <trkpt lat="47.435" lon="6.71979">
        <ele>455.4</ele>
        <time>2014-05-18T09:22:38.000Z</time>
      </trkpt>
      <trkpt lat="47.43501" lon="6.71984">
        <ele>456.6</ele>
        <time>2014-05-18T09:22:39.000Z</time>
      </trkpt>
      <trkpt lat="47.43502" lon="6.71989">
        <ele>456.3</ele>
        <time>2014-05-18T09:22:40.000Z</time>
      </trkpt>
      <trkpt lat="47.43503" lon="6.71994">
        <ele>455.6</ele>
        <time>2014-05-18T09:22:41.000Z</time>
      </trkpt>
      <trkpt lat="47.43503" lon="6.71999">
        <ele>456.2</ele>
        <time>2014-05-18T09:22:42.000Z</time>
      </trkpt>
      <trkpt lat="47.43504" lon="6.72004">
        <ele>456.9</ele>
        <time>2014-05-18T09:22:43.000Z</time>
      </trkpt>
      <trkpt lat="47.43505" lon="6.72009">
        <ele>457.3</ele>
        <time>2014-05-18T09:22:44.000Z</time>
      </trkpt>
      <trkpt lat="47.43506" lon="6.72014">
        <ele>456.6</ele>
        <time>2014-05-18T09:22:45.000Z</time>
      </trkpt>
      <trkpt lat="47.43507" lon="6.72018">
        <ele>456.1</ele>
        <time>2014-05-18T09:22:46.000Z</time>
      </trkpt>
      <trkpt lat="47.43517" lon="6.72054">
        <ele>457.7</ele>
        <time>2014-05-18T09:22:54.000Z</time>
      </trkpt>
      <trkpt lat="47.43518" lon="6.72059">
        <ele>458.3</ele>
        <time>2014-05-18T09:22:55.000Z</time>
      </trkpt>
      <trkpt lat="47.4352" lon="6.72063">
        <ele>458.3</ele>
        <time>2014-05-18T09:22:56.000Z</time>
      </trkpt>
      <trkpt lat="47.43522" lon="6.72067">
        <ele>458.7</ele>
        <time>2014-05-18T09:22:57.000Z</time>
      </trkpt>
      <trkpt lat="47.43524" lon="6.72072">
        <ele>459.2</ele>
        <time>2014-05-18T09:22:58.000Z</time>
      </trkpt>
      <trkpt lat="47.43525" lon="6.72076">
        <ele>459.1</ele>
        <time>2014-05-18T09:22:59.000Z</time>
      </trkpt>
      <trkpt lat="47.43527" lon="6.7208">
        <ele>459.1</ele>
        <time>2014-05-18T09:23:00.000Z</time>
      </trkpt>
      <trkpt lat="47.43529" lon="6.72085">
        <ele>457.7</ele>
        <time>2014-05-18T09:23:01.000Z</time>
      </trkpt>
      <trkpt lat="47.43531" lon="6.7209">
        <ele>457.3</ele>
        <time>2014-05-18T09:23:02.000Z</time>
      </trkpt>
      <trkpt lat="47.43533" lon="6.72095">
        <ele>457.8</ele>
        <time>2014-05-18T09:23:03.000Z</time>
      </trkpt>
      <trkpt lat="47.43535" lon="6.72099">
        <ele>458</ele>
        <time>2014-05-18T09:23:04.000Z</time>
      </trkpt>
      <trkpt lat="47.43537" lon="6.72104">
        <ele>459.1</ele>
        <time>2014-05-18T09:23:05.000Z</time>
      </trkpt>
      <trkpt lat="47.43538" lon="6.72109">
        <ele>459.2</ele>
        <time>2014-05-18T09:23:06.000Z</time>
      </trkpt>
      <trkpt lat="47.4354" lon="6.72113">
        <ele>459.7</ele>
        <time>2014-05-18T09:23:07.000Z</time>
      </trkpt>
      <trkpt lat="47.43541" lon="6.72118">
        <ele>460.5</ele>
        <time>2014-05-18T09:23:08.000Z</time>
      </trkpt>
      <trkpt lat="47.43543" lon="6.72122">
        <ele>460.4</ele>
        <time>2014-05-18T09:23:09.000Z</time>
      </trkpt>
      <trkpt lat="47.43545" lon="6.72126">
        <ele>460.4</ele>
        <time>2014-05-18T09:23:10.000Z</time>
      </trkpt>
      <trkpt lat="47.43546" lon="6.72131">
        <ele>461.9</ele>
        <time>2014-05-18T09:23:11.000Z</time>
      </trkpt>
      <trkpt lat="47.43548" lon="6.72135">
        <ele>462.6</ele>
        <time>2014-05-18T09:23:12.000Z</time>
      </trkpt>
      <trkpt lat="47.4355" lon="6.72139">
        <ele>463.6</ele>
        <time>2014-05-18T09:23:13.000Z</time>
      </trkpt>
      <trkpt lat="47.43552" lon="6.72144">
        <ele>463</ele>
        <time>2014-05-18T09:23:14.000Z</time>
      </trkpt>
      <trkpt lat="47.43554" lon="6.72149">
        <ele>463.2</ele>
        <time>2014-05-18T09:23:15.000Z</time>
      </trkpt>
      <trkpt lat="47.43556" lon="6.72154">
        <ele>463.8</ele>
        <time>2014-05-18T09:23:16.000Z</time>
      </trkpt>
      <trkpt lat="47.43558" lon="6.72158">
        <ele>463</ele>
        <time>2014-05-18T09:23:17.000Z</time>
      </trkpt>
      <trkpt lat="47.4356" lon="6.72162">
        <ele>462.9</ele>
        <time>2014-05-18T09:23:18.000Z</time>
      </trkpt>
      <trkpt lat="47.43562" lon="6.72166">
        <ele>463.3</ele>
        <time>2014-05-18T09:23:19.000Z</time>
      </trkpt>
      <trkpt lat="47.43563" lon="6.72171">
        <ele>463.8</ele>
        <time>2014-05-18T09:23:20.000Z</time>
      </trkpt>
      <trkpt lat="47.43565" lon="6.72175">
        <ele>464.3</ele>
        <time>2014-05-18T09:23:21.000Z</time>
      </trkpt>
      <trkpt lat="47.43567" lon="6.7218">
        <ele>465.2</ele>
        <time>2014-05-18T09:23:22.000Z</time>
      </trkpt>
      <trkpt lat="47.43569" lon="6.72184">
        <ele>465</ele>
        <time>2014-05-18T09:23:23.000Z</time>
      </trkpt>
      <trkpt lat="47.4357" lon="6.72188">
        <ele>465.1</ele>
        <time>2014-05-18T09:23:24.000Z</time>
      </trkpt>
      <trkpt lat="47.43572" lon="6.72193">
        <ele>465.1</ele>
        <time>2014-05-18T09:23:25.000Z</time>
      </trkpt>
      <trkpt lat="47.43574" lon="6.72198">
        <ele>465</ele>
        <time>2014-05-18T09:23:26.000Z</time>
      </trkpt>
      <trkpt lat="47.43576" lon="6.72203">
        <ele>466.2</ele>
        <time>2014-05-18T09:23:27.000Z</time>
      </trkpt>
      <trkpt lat="47.43579" lon="6.72208">
        <ele>466</ele>
        <time>2014-05-18T09:23:28.000Z</time>
      </trkpt>
      <trkpt lat="47.43583" lon="6.72212">
        <ele>466.2</ele>
        <time>2014-05-18T09:23:29.000Z</time>
      </trkpt>
      <trkpt lat="47.43586" lon="6.72217">
        <ele>466.8</ele>
        <time>2014-05-18T09:23:30.000Z</time>
      </trkpt>
      <trkpt lat="47.43588" lon="6.72223">
        <ele>467.3</ele>
        <time>2014-05-18T09:23:31.000Z</time>
      </trkpt>
      <trkpt lat="47.4359" lon="6.72229">
        <ele>468</ele>
        <time>2014-05-18T09:23:32.000Z</time>
      </trkpt>
      <trkpt lat="47.43593" lon="6.72236">
        <ele>468.1</ele>
        <time>2014-05-18T09:23:33.000Z</time>
      </trkpt>
      <trkpt lat="47.43597" lon="6.72241">
        <ele>467.4</ele>
        <time>2014-05-18T09:23:34.000Z</time>
      </trkpt>
      <trkpt lat="47.436" lon="6.72245">
        <ele>467.5</ele>
        <time>2014-05-18T09:23:35.000Z</time>
      </trkpt>
      <trkpt lat="47.43603" lon="6.7225">
        <ele>467.5</ele>
        <time>2014-05-18T09:23:36.000Z</time>
      </trkpt>
      <trkpt lat="47.43604" lon="6.72253">
        <ele>467.2</ele>
        <time>2014-05-18T09:23:37.000Z</time>
      </trkpt>
      <trkpt lat="47.43607" lon="6.72258">
        <ele>467.7</ele>
        <time>2014-05-18T09:23:38.000Z</time>
      </trkpt>
      <trkpt lat="47.43609" lon="6.72262">
        <ele>468.1</ele>
        <time>2014-05-18T09:23:39.000Z</time>
      </trkpt>
      <trkpt lat="47.43611" lon="6.72267">
        <ele>468.4</ele>
        <time>2014-05-18T09:23:40.000Z</time>
      </trkpt>
      <trkpt lat="47.43614" lon="6.72273">
        <ele>468.4</ele>
        <time>2014-05-18T09:23:41.000Z</time>
      </trkpt>
      <trkpt lat="47.43617" lon="6.72277">
        <ele>469.1</ele>
        <time>2014-05-18T09:23:42.000Z</time>
      </trkpt>
      <trkpt lat="47.4362" lon="6.72282">
        <ele>469.7</ele>
        <time>2014-05-18T09:23:43.000Z</time>
      </trkpt>
      <trkpt lat="47.43623" lon="6.72286">
        <ele>470.3</ele>
        <time>2014-05-18T09:23:44.000Z</time>
      </trkpt>
      <trkpt lat="47.43626" lon="6.72291">
        <ele>470.8</ele>
        <time>2014-05-18T09:23:45.000Z</time>
      </trkpt>
      <trkpt lat="47.43629" lon="6.72295">
        <ele>470.6</ele>
        <time>2014-05-18T09:23:46.000Z</time>
      </trkpt>
      <trkpt lat="47.43651" lon="6.72332">
        <ele>470</ele>
        <time>2014-05-18T09:23:54.000Z</time>
      </trkpt>
      <trkpt lat="47.43654" lon="6.72337">
        <ele>470.4</ele>
        <time>2014-05-18T09:23:55.000Z</time>
      </trkpt>
      <trkpt lat="47.43656" lon="6.72342">
        <ele>470.8</ele>
        <time>2014-05-18T09:23:56.000Z</time>
      </trkpt>
      <trkpt lat="47.43659" lon="6.72346">
        <ele>471</ele>
        <time>2014-05-18T09:23:58.000Z</time>
      </trkpt>
      <trkpt lat="47.43661" lon="6.72349">
        <ele>471.4</ele>
        <time>2014-05-18T09:23:59.000Z</time>
      </trkpt>
      <trkpt lat="47.43664" lon="6.72353">
        <ele>471.6</ele>
        <time>2014-05-18T09:24:01.000Z</time>
      </trkpt>
      <trkpt lat="47.43666" lon="6.72354">
        <ele>471.7</ele>
        <time>2014-05-18T09:24:02.000Z</time>
      </trkpt>
      <trkpt lat="47.43669" lon="6.72355">
        <ele>471.5</ele>
        <time>2014-05-18T09:24:03.000Z</time>
      </trkpt>
      <trkpt lat="47.43671" lon="6.72354">
        <ele>471.1</ele>
        <time>2014-05-18T09:24:04.000Z</time>
      </trkpt>
      <trkpt lat="47.43674" lon="6.72353">
        <ele>471</ele>
        <time>2014-05-18T09:24:05.000Z</time>
      </trkpt>
      <trkpt lat="47.43677" lon="6.72351">
        <ele>470.8</ele>
        <time>2014-05-18T09:24:06.000Z</time>
      </trkpt>
      <trkpt lat="47.4368" lon="6.72348">
        <ele>470.9</ele>
        <time>2014-05-18T09:24:07.000Z</time>
      </trkpt>
      <trkpt lat="47.43682" lon="6.72346">
        <ele>470.8</ele>
        <time>2014-05-18T09:24:08.000Z</time>
      </trkpt>
      <trkpt lat="47.43685" lon="6.72343">
        <ele>470.3</ele>
        <time>2014-05-18T09:24:09.000Z</time>
      </trkpt>
      <trkpt lat="47.43687" lon="6.7234">
        <ele>470</ele>
        <time>2014-05-18T09:24:10.000Z</time>
      </trkpt>
      <trkpt lat="47.4369" lon="6.72338">
        <ele>469.5</ele>
        <time>2014-05-18T09:24:11.000Z</time>
      </trkpt>
      <trkpt lat="47.43692" lon="6.72335">
        <ele>469.4</ele>
        <time>2014-05-18T09:24:12.000Z</time>
      </trkpt>
      <trkpt lat="47.43694" lon="6.72333">
        <ele>469.4</ele>
        <time>2014-05-18T09:24:13.000Z</time>
      </trkpt>
      <trkpt lat="47.43697" lon="6.72331">
        <ele>469.5</ele>
        <time>2014-05-18T09:24:14.000Z</time>
      </trkpt>
      <trkpt lat="47.437" lon="6.72329">
        <ele>469.9</ele>
        <time>2014-05-18T09:24:15.000Z</time>
      </trkpt>
      <trkpt lat="47.43702" lon="6.72327">
        <ele>470.6</ele>
        <time>2014-05-18T09:24:16.000Z</time>
      </trkpt>
      <trkpt lat="47.43705" lon="6.72324">
        <ele>471</ele>
        <time>2014-05-18T09:24:17.000Z</time>
      </trkpt>
      <trkpt lat="47.43707" lon="6.72322">
        <ele>471.2</ele>
        <time>2014-05-18T09:24:18.000Z</time>
      </trkpt>
      <trkpt lat="47.4371" lon="6.7232">
        <ele>470.9</ele>
        <time>2014-05-18T09:24:19.000Z</time>
      </trkpt>
      <trkpt lat="47.43712" lon="6.72317">
        <ele>471.2</ele>
        <time>2014-05-18T09:24:20.000Z</time>
      </trkpt>
      <trkpt lat="47.43716" lon="6.72315">
        <ele>470.7</ele>
        <time>2014-05-18T09:24:21.000Z</time>
      </trkpt>
      <trkpt lat="47.43719" lon="6.72313">
        <ele>470.8</ele>
        <time>2014-05-18T09:24:22.000Z</time>
      </trkpt>
      <trkpt lat="47.43723" lon="6.7231">
        <ele>470.6</ele>
        <time>2014-05-18T09:24:23.000Z</time>
      </trkpt>
      <trkpt lat="47.43726" lon="6.72308">
        <ele>470.6</ele>
        <time>2014-05-18T09:24:24.000Z</time>
      </trkpt>
      <trkpt lat="47.4373" lon="6.72305">
        <ele>470.7</ele>
        <time>2014-05-18T09:24:25.000Z</time>
      </trkpt>
      <trkpt lat="47.43734" lon="6.72303">
        <ele>470.9</ele>
        <time>2014-05-18T09:24:26.000Z</time>
      </trkpt>
      <trkpt lat="47.43738" lon="6.72302">
        <ele>471</ele>
        <time>2014-05-18T09:24:27.000Z</time>
      </trkpt>
      <trkpt lat="47.43742" lon="6.72302">
        <ele>471.1</ele>
        <time>2014-05-18T09:24:28.000Z</time>
      </trkpt>
      <trkpt lat="47.43745" lon="6.72303">
        <ele>471.2</ele>
        <time>2014-05-18T09:24:29.000Z</time>
      </trkpt>
      <trkpt lat="47.43748" lon="6.72306">
        <ele>471.4</ele>
        <time>2014-05-18T09:24:30.000Z</time>
      </trkpt>
      <trkpt lat="47.43751" lon="6.72309">
        <ele>471</ele>
        <time>2014-05-18T09:24:31.000Z</time>
      </trkpt>
      <trkpt lat="47.43752" lon="6.72313">
        <ele>471.5</ele>
        <time>2014-05-18T09:24:32.000Z</time>
      </trkpt>
      <trkpt lat="47.43754" lon="6.72317">
        <ele>472.2</ele>
        <time>2014-05-18T09:24:33.000Z</time>
      </trkpt>
      <trkpt lat="47.43755" lon="6.7232">
        <ele>472.3</ele>
        <time>2014-05-18T09:24:34.000Z</time>
      </trkpt>
      <trkpt lat="47.43757" lon="6.72323">
        <ele>472.5</ele>
        <time>2014-05-18T09:24:35.000Z</time>
      </trkpt>
      <trkpt lat="47.43759" lon="6.72327">
        <ele>472.5</ele>
        <time>2014-05-18T09:24:36.000Z</time>
      </trkpt>
      <trkpt lat="47.43761" lon="6.7233">
        <ele>472</ele>
        <time>2014-05-18T09:24:37.000Z</time>
      </trkpt>
      <trkpt lat="47.43763" lon="6.72333">
        <ele>471.8</ele>
        <time>2014-05-18T09:24:38.000Z</time>
      </trkpt>
      <trkpt lat="47.43765" lon="6.72337">
        <ele>471.2</ele>
        <time>2014-05-18T09:24:39.000Z</time>
      </trkpt>
      <trkpt lat="47.43767" lon="6.7234">
        <ele>471.4</ele>
        <time>2014-05-18T09:24:40.000Z</time>
      </trkpt>
      <trkpt lat="47.4377" lon="6.72344">
        <ele>471.3</ele>
        <time>2014-05-18T09:24:41.000Z</time>
      </trkpt>
      <trkpt lat="47.43773" lon="6.72348">
        <ele>471</ele>
        <time>2014-05-18T09:24:42.000Z</time>
      </trkpt>
      <trkpt lat="47.43776" lon="6.72351">
        <ele>471.7</ele>
        <time>2014-05-18T09:24:43.000Z</time>
      </trkpt>
      <trkpt lat="47.4378" lon="6.72357">
        <ele>470.1</ele>
        <time>2014-05-18T09:24:44.000Z</time>
      </trkpt>
      <trkpt lat="47.43783" lon="6.72361">
        <ele>469.9</ele>
        <time>2014-05-18T09:24:45.000Z</time>
      </trkpt>
      <trkpt lat="47.43786" lon="6.72365">
        <ele>469.7</ele>
        <time>2014-05-18T09:24:46.000Z</time>
      </trkpt>
      <trkpt lat="47.4381" lon="6.72395">
        <ele>471.3</ele>
        <time>2014-05-18T09:24:54.000Z</time>
      </trkpt>
      <trkpt lat="47.43813" lon="6.72399">
        <ele>471.6</ele>
        <time>2014-05-18T09:24:55.000Z</time>
      </trkpt>
      <trkpt lat="47.43817" lon="6.72403">
        <ele>471.1</ele>
        <time>2014-05-18T09:24:56.000Z</time>
      </trkpt>
      <trkpt lat="47.4382" lon="6.72407">
        <ele>471.5</ele>
        <time>2014-05-18T09:24:57.000Z</time>
      </trkpt>
      <trkpt lat="47.43823" lon="6.72412">
        <ele>471.1</ele>
        <time>2014-05-18T09:24:58.000Z</time>
      </trkpt>
      <trkpt lat="47.43827" lon="6.72416">
        <ele>470.5</ele>
        <time>2014-05-18T09:24:59.000Z</time>
      </trkpt>
      <trkpt lat="47.43831" lon="6.7242">
        <ele>470.1</ele>
        <time>2014-05-18T09:25:00.000Z</time>
      </trkpt>
      <trkpt lat="47.43835" lon="6.72424">
        <ele>469.7</ele>
        <time>2014-05-18T09:25:01.000Z</time>
      </trkpt>
      <trkpt lat="47.43838" lon="6.72428">
        <ele>469.6</ele>
        <time>2014-05-18T09:25:02.000Z</time>
      </trkpt>
      <trkpt lat="47.43843" lon="6.72432">
        <ele>468.6</ele>
        <time>2014-05-18T09:25:03.000Z</time>
      </trkpt>
      <trkpt lat="47.43847" lon="6.72436">
        <ele>468.3</ele>
        <time>2014-05-18T09:25:04.000Z</time>
      </trkpt>
      <trkpt lat="47.43851" lon="6.72441">
        <ele>468.4</ele>
        <time>2014-05-18T09:25:05.000Z</time>
      </trkpt>
      <trkpt lat="47.43855" lon="6.72445">
        <ele>468.3</ele>
        <time>2014-05-18T09:25:06.000Z</time>
      </trkpt>
      <trkpt lat="47.43859" lon="6.7245">
        <ele>467.9</ele>
        <time>2014-05-18T09:25:07.000Z</time>
      </trkpt>
      <trkpt lat="47.43862" lon="6.72454">
        <ele>467.3</ele>
        <time>2014-05-18T09:25:08.000Z</time>
      </trkpt>
      <trkpt lat="47.43868" lon="6.72458">
        <ele>467.5</ele>
        <time>2014-05-18T09:25:09.000Z</time>
      </trkpt>
      <trkpt lat="47.43872" lon="6.72462">
        <ele>467.7</ele>
        <time>2014-05-18T09:25:10.000Z</time>
      </trkpt>
      <trkpt lat="47.43876" lon="6.72467">
        <ele>467.6</ele>
        <time>2014-05-18T09:25:11.000Z</time>
      </trkpt>
      <trkpt lat="47.4388" lon="6.72471">
        <ele>467.7</ele>
        <time>2014-05-18T09:25:12.000Z</time>
      </trkpt>
      <trkpt lat="47.43885" lon="6.72475">
        <ele>467.7</ele>
        <time>2014-05-18T09:25:13.000Z</time>
      </trkpt>
      <trkpt lat="47.43889" lon="6.72477">
        <ele>468.7</ele>
        <time>2014-05-18T09:25:14.000Z</time>
      </trkpt>
      <trkpt lat="47.43892" lon="6.72482">
        <ele>469</ele>
        <time>2014-05-18T09:25:15.000Z</time>
      </trkpt>
      <trkpt lat="47.43896" lon="6.72485">
        <ele>469.4</ele>
        <time>2014-05-18T09:25:16.000Z</time>
      </trkpt>
      <trkpt lat="47.43901" lon="6.72488">
        <ele>469.9</ele>
        <time>2014-05-18T09:25:17.000Z</time>
      </trkpt>
      <trkpt lat="47.43905" lon="6.72493">
        <ele>469.8</ele>
        <time>2014-05-18T09:25:18.000Z</time>
      </trkpt>
      <trkpt lat="47.43909" lon="6.72496">
        <ele>470.1</ele>
        <time>2014-05-18T09:25:19.000Z</time>
      </trkpt>
      <trkpt lat="47.43912" lon="6.725">
        <ele>469.5</ele>
        <time>2014-05-18T09:25:20.000Z</time>
      </trkpt>
      <trkpt lat="47.43916" lon="6.72503">
        <ele>468.9</ele>
        <time>2014-05-18T09:25:21.000Z</time>
      </trkpt>
      <trkpt lat="47.43921" lon="6.72505">
        <ele>469.1</ele>
        <time>2014-05-18T09:25:22.000Z</time>
      </trkpt>
      <trkpt lat="47.43925" lon="6.72507">
        <ele>469.3</ele>
        <time>2014-05-18T09:25:23.000Z</time>
      </trkpt>
      <trkpt lat="47.43931" lon="6.72507">
        <ele>469.4</ele>
        <time>2014-05-18T09:25:24.000Z</time>
      </trkpt>
      <trkpt lat="47.43937" lon="6.72507">
        <ele>468.4</ele>
        <time>2014-05-18T09:25:25.000Z</time>
      </trkpt>
      <trkpt lat="47.43942" lon="6.72506">
        <ele>469</ele>
        <time>2014-05-18T09:25:26.000Z</time>
      </trkpt>
      <trkpt lat="47.43947" lon="6.72505">
        <ele>469.5</ele>
        <time>2014-05-18T09:25:27.000Z</time>
      </trkpt>
      <trkpt lat="47.43953" lon="6.72502">
        <ele>469.5</ele>
        <time>2014-05-18T09:25:28.000Z</time>
      </trkpt>
      <trkpt lat="47.43959" lon="6.72499">
        <ele>469.7</ele>
        <time>2014-05-18T09:25:29.000Z</time>
      </trkpt>
      <trkpt lat="47.43966" lon="6.72495">
        <ele>469.6</ele>
        <time>2014-05-18T09:25:30.000Z</time>
      </trkpt>
      <trkpt lat="47.43972" lon="6.72491">
        <ele>469.7</ele>
        <time>2014-05-18T09:25:31.000Z</time>
      </trkpt>
      <trkpt lat="47.4398" lon="6.7249">
        <ele>471.3</ele>
        <time>2014-05-18T09:25:32.000Z</time>
      </trkpt>
      <trkpt lat="47.43988" lon="6.72488">
        <ele>471.7</ele>
        <time>2014-05-18T09:25:33.000Z</time>
      </trkpt>
      <trkpt lat="47.43996" lon="6.72486">
        <ele>471.2</ele>
        <time>2014-05-18T09:25:34.000Z</time>
      </trkpt>
      <trkpt lat="47.44003" lon="6.72483">
        <ele>472.3</ele>
        <time>2014-05-18T09:25:35.000Z</time>
      </trkpt>
      <trkpt lat="47.44011" lon="6.7248">
        <ele>473.8</ele>
        <time>2014-05-18T09:25:36.000Z</time>
      </trkpt>
      <trkpt lat="47.44018" lon="6.72478">
        <ele>474</ele>
        <time>2014-05-18T09:25:37.000Z</time>
      </trkpt>
      <trkpt lat="47.44025" lon="6.72475">
        <ele>474.1</ele>
        <time>2014-05-18T09:25:38.000Z</time>
      </trkpt>
      <trkpt lat="47.44033" lon="6.72472">
        <ele>474.2</ele>
        <time>2014-05-18T09:25:39.000Z</time>
      </trkpt>
      <trkpt lat="47.4404" lon="6.72469">
        <ele>474.4</ele>
        <time>2014-05-18T09:25:40.000Z</time>
      </trkpt>
      <trkpt lat="47.44046" lon="6.72466">
        <ele>474.3</ele>
        <time>2014-05-18T09:25:41.000Z</time>
      </trkpt>
      <trkpt lat="47.44052" lon="6.72465">
        <ele>473.5</ele>
        <time>2014-05-18T09:25:42.000Z</time>
      </trkpt>
      <trkpt lat="47.4406" lon="6.72462">
        <ele>474.5</ele>
        <time>2014-05-18T09:25:43.000Z</time>
      </trkpt>
      <trkpt lat="47.44067" lon="6.72461">
        <ele>475</ele>
        <time>2014-05-18T09:25:44.000Z</time>
      </trkpt>
      <trkpt lat="47.44074" lon="6.72458">
        <ele>474.4</ele>
        <time>2014-05-18T09:25:45.000Z</time>
      </trkpt>
      <trkpt lat="47.44081" lon="6.72455">
        <ele>473.7</ele>
        <time>2014-05-18T09:25:46.000Z</time>
      </trkpt>
      <trkpt lat="47.44113" lon="6.7244">
        <ele>478.5</ele>
        <time>2014-05-18T09:25:54.000Z</time>
      </trkpt>
      <trkpt lat="47.44118" lon="6.72439">
        <ele>479.5</ele>
        <time>2014-05-18T09:25:55.000Z</time>
      </trkpt>
      <trkpt lat="47.44123" lon="6.72439">
        <ele>480.3</ele>
        <time>2014-05-18T09:25:56.000Z</time>
      </trkpt>
      <trkpt lat="47.44126" lon="6.72436">
        <ele>479.7</ele>
        <time>2014-05-18T09:25:57.000Z</time>
      </trkpt>
      <trkpt lat="47.44129" lon="6.72435">
        <ele>478.6</ele>
        <time>2014-05-18T09:25:58.000Z</time>
      </trkpt>
      <trkpt lat="47.44133" lon="6.72433">
        <ele>478.5</ele>
        <time>2014-05-18T09:25:59.000Z</time>
      </trkpt>
      <trkpt lat="47.44136" lon="6.72432">
        <ele>478.9</ele>
        <time>2014-05-18T09:26:00.000Z</time>
      </trkpt>
      <trkpt lat="47.4414" lon="6.72431">
        <ele>478.7</ele>
        <time>2014-05-18T09:26:01.000Z</time>
      </trkpt>
      <trkpt lat="47.44144" lon="6.72429">
        <ele>478.3</ele>
        <time>2014-05-18T09:26:02.000Z</time>
      </trkpt>
      <trkpt lat="47.44148" lon="6.72426">
        <ele>477.1</ele>
        <time>2014-05-18T09:26:03.000Z</time>
      </trkpt>
      <trkpt lat="47.44152" lon="6.72425">
        <ele>476.5</ele>
        <time>2014-05-18T09:26:04.000Z</time>
      </trkpt>
      <trkpt lat="47.44156" lon="6.72423">
        <ele>475.5</ele>
        <time>2014-05-18T09:26:05.000Z</time>
      </trkpt>
      <trkpt lat="47.4416" lon="6.72421">
        <ele>474</ele>
        <time>2014-05-18T09:26:06.000Z</time>
      </trkpt>
      <trkpt lat="47.44164" lon="6.72419">
        <ele>474.1</ele>
        <time>2014-05-18T09:26:07.000Z</time>
      </trkpt>
      <trkpt lat="47.44168" lon="6.72417">
        <ele>475.7</ele>
        <time>2014-05-18T09:26:08.000Z</time>
      </trkpt>
      <trkpt lat="47.44172" lon="6.72415">
        <ele>478.1</ele>
        <time>2014-05-18T09:26:09.000Z</time>
      </trkpt>
      <trkpt lat="47.44184" lon="6.72415">
        <ele>478.4</ele>
        <time>2014-05-18T09:26:10.000Z</time>
      </trkpt>
      <trkpt lat="47.44193" lon="6.72416">
        <ele>479.5</ele>
        <time>2014-05-18T09:26:11.000Z</time>
      </trkpt>
      <trkpt lat="47.44198" lon="6.72414">
        <ele>479.4</ele>
        <time>2014-05-18T09:26:12.000Z</time>
      </trkpt>
      <trkpt lat="47.44203" lon="6.72413">
        <ele>477.5</ele>
        <time>2014-05-18T09:26:13.000Z</time>
      </trkpt>
      <trkpt lat="47.44208" lon="6.72411">
        <ele>476.7</ele>
        <time>2014-05-18T09:26:14.000Z</time>
      </trkpt>
      <trkpt lat="47.44212" lon="6.72409">
        <ele>476.2</ele>
        <time>2014-05-18T09:26:15.000Z</time>
      </trkpt>
      <trkpt lat="47.44217" lon="6.72405">
        <ele>475.2</ele>
        <time>2014-05-18T09:26:16.000Z</time>
      </trkpt>
      <trkpt lat="47.44221" lon="6.72406">
        <ele>478.4</ele>
        <time>2014-05-18T09:26:17.000Z</time>
      </trkpt>
      <trkpt lat="47.44227" lon="6.72407">
        <ele>478.4</ele>
        <time>2014-05-18T09:26:18.000Z</time>
      </trkpt>
      <trkpt lat="47.44232" lon="6.72403">
        <ele>478.7</ele>
        <time>2014-05-18T09:26:19.000Z</time>
      </trkpt>
      <trkpt lat="47.44237" lon="6.72402">
        <ele>478.7</ele>
        <time>2014-05-18T09:26:20.000Z</time>
      </trkpt>
      <trkpt lat="47.44246" lon="6.72404">
        <ele>478</ele>
        <time>2014-05-18T09:26:21.000Z</time>
      </trkpt>
      <trkpt lat="47.44254" lon="6.72406">
        <ele>476.9</ele>
        <time>2014-05-18T09:26:22.000Z</time>
      </trkpt>
      <trkpt lat="47.44263" lon="6.72404">
        <ele>476</ele>
        <time>2014-05-18T09:26:23.000Z</time>
      </trkpt>
      <trkpt lat="47.4427" lon="6.72403">
        <ele>476.5</ele>
        <time>2014-05-18T09:26:24.000Z</time>
      </trkpt>
      <trkpt lat="47.44276" lon="6.72401">
        <ele>476.6</ele>
        <time>2014-05-18T09:26:25.000Z</time>
      </trkpt>
      <trkpt lat="47.44284" lon="6.72401">
        <ele>476.7</ele>
        <time>2014-05-18T09:26:26.000Z</time>
      </trkpt>
      <trkpt lat="47.44291" lon="6.72396">
        <ele>476.6</ele>
        <time>2014-05-18T09:26:27.000Z</time>
      </trkpt>
      <trkpt lat="47.44294" lon="6.72393">
        <ele>477.8</ele>
        <time>2014-05-18T09:26:28.000Z</time>
      </trkpt>
      <trkpt lat="47.44303" lon="6.7239">
        <ele>478.5</ele>
        <time>2014-05-18T09:26:29.000Z</time>
      </trkpt>
      <trkpt lat="47.44307" lon="6.72386">
        <ele>478.3</ele>
        <time>2014-05-18T09:26:30.000Z</time>
      </trkpt>
      <trkpt lat="47.44313" lon="6.7238">
        <ele>477.5</ele>
        <time>2014-05-18T09:26:31.000Z</time>
      </trkpt>
      <trkpt lat="47.44321" lon="6.72379">
        <ele>477</ele>
        <time>2014-05-18T09:26:32.000Z</time>
      </trkpt>
      <trkpt lat="47.44328" lon="6.72376">
        <ele>477.2</ele>
        <time>2014-05-18T09:26:33.000Z</time>
      </trkpt>
      <trkpt lat="47.44339" lon="6.72374">
        <ele>478.1</ele>
        <time>2014-05-18T09:26:34.000Z</time>
      </trkpt>
      <trkpt lat="47.44347" lon="6.7237">
        <ele>479</ele>
        <time>2014-05-18T09:26:35.000Z</time>
      </trkpt>
      <trkpt lat="47.44357" lon="6.72371">
        <ele>478.6</ele>
        <time>2014-05-18T09:26:36.000Z</time>
      </trkpt>
      <trkpt lat="47.44365" lon="6.72372">
        <ele>475.8</ele>
        <time>2014-05-18T09:26:37.000Z</time>
      </trkpt>
      <trkpt lat="47.4437" lon="6.72373">
        <ele>474.1</ele>
        <time>2014-05-18T09:26:38.000Z</time>
      </trkpt>
      <trkpt lat="47.44377" lon="6.72372">
        <ele>472.7</ele>
        <time>2014-05-18T09:26:39.000Z</time>
      </trkpt>
      <trkpt lat="47.44383" lon="6.72371">
        <ele>472.1</ele>
        <time>2014-05-18T09:26:40.000Z</time>
      </trkpt>
      <trkpt lat="47.44387" lon="6.72368">
        <ele>474</ele>
        <time>2014-05-18T09:26:41.000Z</time>
      </trkpt>
      <trkpt lat="47.44393" lon="6.72365">
        <ele>474.6</ele>
        <time>2014-05-18T09:26:42.000Z</time>
      </trkpt>
      <trkpt lat="47.44399" lon="6.72363">
        <ele>473.7</ele>
        <time>2014-05-18T09:26:43.000Z</time>
      </trkpt>
      <trkpt lat="47.44406" lon="6.72361">
        <ele>473.3</ele>
        <time>2014-05-18T09:26:44.000Z</time>
      </trkpt>
      <trkpt lat="47.44413" lon="6.7236">
        <ele>473.8</ele>
        <time>2014-05-18T09:26:45.000Z</time>
      </trkpt>
      <trkpt lat="47.4442" lon="6.72359">
        <ele>472.7</ele>
        <time>2014-05-18T09:26:46.000Z</time>
      </trkpt>
      <trkpt lat="47.44474" lon="6.72352">
        <ele>477.6</ele>
        <time>2014-05-18T09:26:54.000Z</time>
      </trkpt>
      <trkpt lat="47.44482" lon="6.72352">
        <ele>477.5</ele>
        <time>2014-05-18T09:26:55.000Z</time>
      </trkpt>
      <trkpt lat="47.4449" lon="6.72348">
        <ele>477.3</ele>
        <time>2014-05-18T09:26:56.000Z</time>
      </trkpt>
      <trkpt lat="47.44496" lon="6.72346">
        <ele>477.9</ele>
        <time>2014-05-18T09:26:57.000Z</time>
      </trkpt>
      <trkpt lat="47.44502" lon="6.72345">
        <ele>478.1</ele>
        <time>2014-05-18T09:26:58.000Z</time>
      </trkpt>
      <trkpt lat="47.44509" lon="6.72343">
        <ele>477.8</ele>
        <time>2014-05-18T09:26:59.000Z</time>
      </trkpt>
      <trkpt lat="47.44513" lon="6.72343">
        <ele>475.9</ele>
        <time>2014-05-18T09:27:00.000Z</time>
      </trkpt>
      <trkpt lat="47.44518" lon="6.72343">
        <ele>475.1</ele>
        <time>2014-05-18T09:27:01.000Z</time>
      </trkpt>
      <trkpt lat="47.44524" lon="6.72342">
        <ele>474.5</ele>
        <time>2014-05-18T09:27:02.000Z</time>
      </trkpt>
      <trkpt lat="47.44531" lon="6.72338">
        <ele>474.7</ele>
        <time>2014-05-18T09:27:03.000Z</time>
      </trkpt>
      <trkpt lat="47.44537" lon="6.72335">
        <ele>474.7</ele>
        <time>2014-05-18T09:27:04.000Z</time>
      </trkpt>
      <trkpt lat="47.44544" lon="6.72334">
        <ele>474.3</ele>
        <time>2014-05-18T09:27:05.000Z</time>
      </trkpt>
      <trkpt lat="47.44552" lon="6.7233">
        <ele>474.2</ele>
        <time>2014-05-18T09:27:06.000Z</time>
      </trkpt>
      <trkpt lat="47.44557" lon="6.72327">
        <ele>474.4</ele>
        <time>2014-05-18T09:27:07.000Z</time>
      </trkpt>
      <trkpt lat="47.44561" lon="6.72325">
        <ele>474.6</ele>
        <time>2014-05-18T09:27:08.000Z</time>
      </trkpt>
      <trkpt lat="47.44565" lon="6.72322">
        <ele>474.6</ele>
        <time>2014-05-18T09:27:09.001Z</time>
      </trkpt>
      <trkpt lat="47.4457" lon="6.7232">
        <ele>474.6</ele>
        <time>2014-05-18T09:27:10.000Z</time>
      </trkpt>
      <trkpt lat="47.44576" lon="6.72317">
        <ele>474.7</ele>
        <time>2014-05-18T09:27:11.000Z</time>
      </trkpt>
      <trkpt lat="47.44581" lon="6.72317">
        <ele>474.5</ele>
        <time>2014-05-18T09:27:12.000Z</time>
      </trkpt>
      <trkpt lat="47.44594" lon="6.72321">
        <ele>474.5</ele>
        <time>2014-05-18T09:27:13.000Z</time>
      </trkpt>
      <trkpt lat="47.44598" lon="6.72323">
        <ele>475.1</ele>
        <time>2014-05-18T09:27:14.000Z</time>
      </trkpt>
      <trkpt lat="47.44603" lon="6.72323">
        <ele>476.3</ele>
        <time>2014-05-18T09:27:15.000Z</time>
      </trkpt>
      <trkpt lat="47.44607" lon="6.72323">
        <ele>477</ele>
        <time>2014-05-18T09:27:16.000Z</time>
      </trkpt>
      <trkpt lat="47.44611" lon="6.7232">
        <ele>477.1</ele>
        <time>2014-05-18T09:27:17.000Z</time>
      </trkpt>
      <trkpt lat="47.44615" lon="6.7232">
        <ele>477.3</ele>
        <time>2014-05-18T09:27:18.000Z</time>
      </trkpt>
      <trkpt lat="47.44621" lon="6.7232">
        <ele>476.9</ele>
        <time>2014-05-18T09:27:19.000Z</time>
      </trkpt>
      <trkpt lat="47.44626" lon="6.72323">
        <ele>477.5</ele>
        <time>2014-05-18T09:27:20.000Z</time>
      </trkpt>
      <trkpt lat="47.44632" lon="6.72321">
        <ele>478.5</ele>
        <time>2014-05-18T09:27:21.000Z</time>
      </trkpt>
      <trkpt lat="47.44637" lon="6.72322">
        <ele>478.8</ele>
        <time>2014-05-18T09:27:22.000Z</time>
      </trkpt>
      <trkpt lat="47.44642" lon="6.7232">
        <ele>478.6</ele>
        <time>2014-05-18T09:27:23.000Z</time>
      </trkpt>
      <trkpt lat="47.44645" lon="6.72319">
        <ele>478.5</ele>
        <time>2014-05-18T09:27:24.000Z</time>
      </trkpt>
      <trkpt lat="47.44651" lon="6.72319">
        <ele>479</ele>
        <time>2014-05-18T09:27:25.000Z</time>
      </trkpt>
      <trkpt lat="47.44657" lon="6.72318">
        <ele>480.2</ele>
        <time>2014-05-18T09:27:26.000Z</time>
      </trkpt>
      <trkpt lat="47.44664" lon="6.72318">
        <ele>480.4</ele>
        <time>2014-05-18T09:27:27.000Z</time>
      </trkpt>
      <trkpt lat="47.44668" lon="6.72318">
        <ele>480.9</ele>
        <time>2014-05-18T09:27:28.000Z</time>
      </trkpt>
      <trkpt lat="47.44672" lon="6.72315">
        <ele>479.8</ele>
        <time>2014-05-18T09:27:29.000Z</time>
      </trkpt>
      <trkpt lat="47.44677" lon="6.72314">
        <ele>477.3</ele>
        <time>2014-05-18T09:27:30.000Z</time>
      </trkpt>
      <trkpt lat="47.44681" lon="6.72313">
        <ele>475.3</ele>
        <time>2014-05-18T09:27:31.000Z</time>
      </trkpt>
      <trkpt lat="47.44686" lon="6.72313">
        <ele>474.8</ele>
        <time>2014-05-18T09:27:32.000Z</time>
      </trkpt>
      <trkpt lat="47.44691" lon="6.72311">
        <ele>474.7</ele>
        <time>2014-05-18T09:27:33.000Z</time>
      </trkpt>
      <trkpt lat="47.44694" lon="6.72309">
        <ele>473.4</ele>
        <time>2014-05-18T09:27:34.000Z</time>
      </trkpt>
      <trkpt lat="47.44697" lon="6.72306">
        <ele>472.3</ele>
        <time>2014-05-18T09:27:35.000Z</time>
      </trkpt>
      <trkpt lat="47.44703" lon="6.72305">
        <ele>472</ele>
        <time>2014-05-18T09:27:36.000Z</time>
      </trkpt>
      <trkpt lat="47.44707" lon="6.72303">
        <ele>472.4</ele>
        <time>2014-05-18T09:27:37.000Z</time>
      </trkpt>
      <trkpt lat="47.44713" lon="6.72299">
        <ele>473.4</ele>
        <time>2014-05-18T09:27:38.000Z</time>
      </trkpt>
      <trkpt lat="47.44718" lon="6.72297">
        <ele>474</ele>
        <time>2014-05-18T09:27:39.000Z</time>
      </trkpt>
      <trkpt lat="47.44723" lon="6.72294">
        <ele>474.1</ele>
        <time>2014-05-18T09:27:40.000Z</time>
      </trkpt>
      <trkpt lat="47.44728" lon="6.72293">
        <ele>473</ele>
        <time>2014-05-18T09:27:41.000Z</time>
      </trkpt>
      <trkpt lat="47.44734" lon="6.72289">
        <ele>473.6</ele>
        <time>2014-05-18T09:27:42.000Z</time>
      </trkpt>
      <trkpt lat="47.44739" lon="6.72285">
        <ele>473.9</ele>
        <time>2014-05-18T09:27:43.000Z</time>
      </trkpt>
      <trkpt lat="47.44746" lon="6.7228">
        <ele>473.8</ele>
        <time>2014-05-18T09:27:44.000Z</time>
      </trkpt>
      <trkpt lat="47.44753" lon="6.72279">
        <ele>474.3</ele>
        <time>2014-05-18T09:27:45.000Z</time>
      </trkpt>
      <trkpt lat="47.44761" lon="6.72277">
        <ele>473.7</ele>
        <time>2014-05-18T09:27:46.000Z</time>
      </trkpt>
      <trkpt lat="47.44779" lon="6.72272">
        <ele>474.7</ele>
        <time>2014-05-18T09:27:49.000Z</time>
      </trkpt>
      <trkpt lat="47.44787" lon="6.72269">
        <ele>473.7</ele>
        <time>2014-05-18T09:27:50.000Z</time>
      </trkpt>
      <trkpt lat="47.44794" lon="6.72267">
        <ele>472.9</ele>
        <time>2014-05-18T09:27:51.000Z</time>
      </trkpt>
      <trkpt lat="47.44802" lon="6.72265">
        <ele>472.4</ele>
        <time>2014-05-18T09:27:52.000Z</time>
      </trkpt>
      <trkpt lat="47.4481" lon="6.72262">
        <ele>472</ele>
        <time>2014-05-18T09:27:53.000Z</time>
      </trkpt>
      <trkpt lat="47.44818" lon="6.72261">
        <ele>471.8</ele>
        <time>2014-05-18T09:27:54.000Z</time>
      </trkpt>
      <trkpt lat="47.44826" lon="6.7226">
        <ele>471.8</ele>
        <time>2014-05-18T09:27:55.000Z</time>
      </trkpt>
      <trkpt lat="47.44834" lon="6.72261">
        <ele>471.7</ele>
        <time>2014-05-18T09:27:56.000Z</time>
      </trkpt>
      <trkpt lat="47.44841" lon="6.72264">
        <ele>471.5</ele>
        <time>2014-05-18T09:27:57.000Z</time>
      </trkpt>
      <trkpt lat="47.44847" lon="6.72269">
        <ele>471.6</ele>
        <time>2014-05-18T09:27:58.000Z</time>
      </trkpt>
      <trkpt lat="47.44857" lon="6.72277">
        <ele>470.6</ele>
        <time>2014-05-18T09:27:59.000Z</time>
      </trkpt>
      <trkpt lat="47.44865" lon="6.72283">
        <ele>469.6</ele>
        <time>2014-05-18T09:28:00.000Z</time>
      </trkpt>
      <trkpt lat="47.44871" lon="6.72289">
        <ele>468.9</ele>
        <time>2014-05-18T09:28:01.000Z</time>
      </trkpt>
      <trkpt lat="47.44882" lon="6.72296">
        <ele>469.3</ele>
        <time>2014-05-18T09:28:02.000Z</time>
      </trkpt>
      <trkpt lat="47.4489" lon="6.72304">
        <ele>468.7</ele>
        <time>2014-05-18T09:28:03.000Z</time>
      </trkpt>
      <trkpt lat="47.44901" lon="6.7231">
        <ele>466.9</ele>
        <time>2014-05-18T09:28:04.000Z</time>
      </trkpt>
      <trkpt lat="47.44912" lon="6.72319">
        <ele>466.2</ele>
        <time>2014-05-18T09:28:05.000Z</time>
      </trkpt>
      <trkpt lat="47.44922" lon="6.72328">
        <ele>465.8</ele>
        <time>2014-05-18T09:28:06.000Z</time>
      </trkpt>
      <trkpt lat="47.44932" lon="6.72336">
        <ele>463.9</ele>
        <time>2014-05-18T09:28:07.000Z</time>
      </trkpt>
      <trkpt lat="47.4494" lon="6.72344">
        <ele>463.1</ele>
        <time>2014-05-18T09:28:08.000Z</time>
      </trkpt>
      <trkpt lat="47.4495" lon="6.7235">
        <ele>464.4</ele>
        <time>2014-05-18T09:28:09.000Z</time>
      </trkpt>
      <trkpt lat="47.44959" lon="6.72359">
        <ele>464.1</ele>
        <time>2014-05-18T09:28:10.000Z</time>
      </trkpt>
      <trkpt lat="47.44967" lon="6.72368">
        <ele>463.1</ele>
        <time>2014-05-18T09:28:11.000Z</time>
      </trkpt>
      <trkpt lat="47.44975" lon="6.72376">
        <ele>462.6</ele>
        <time>2014-05-18T09:28:12.000Z</time>
      </trkpt>
      <trkpt lat="47.44982" lon="6.72383">
        <ele>462</ele>
        <time>2014-05-18T09:28:13.000Z</time>
      </trkpt>
      <trkpt lat="47.44989" lon="6.72392">
        <ele>460.5</ele>
        <time>2014-05-18T09:28:14.000Z</time>
      </trkpt>
      <trkpt lat="47.44998" lon="6.72399">
        <ele>460.8</ele>
        <time>2014-05-18T09:28:15.000Z</time>
      </trkpt>
      <trkpt lat="47.45006" lon="6.72406">
        <ele>460.6</ele>
        <time>2014-05-18T09:28:16.000Z</time>
      </trkpt>
      <trkpt lat="47.45014" lon="6.72411">
        <ele>460.3</ele>
        <time>2014-05-18T09:28:17.000Z</time>
      </trkpt>
      <trkpt lat="47.45022" lon="6.72417">
        <ele>460.6</ele>
        <time>2014-05-18T09:28:18.000Z</time>
      </trkpt>
      <trkpt lat="47.4503" lon="6.72423">
        <ele>460.7</ele>
        <time>2014-05-18T09:28:19.000Z</time>
      </trkpt>
      <trkpt lat="47.45038" lon="6.72427">
        <ele>460.2</ele>
        <time>2014-05-18T09:28:20.000Z</time>
      </trkpt>
      <trkpt lat="47.45045" lon="6.72432">
        <ele>459.8</ele>
        <time>2014-05-18T09:28:21.000Z</time>
      </trkpt>
      <trkpt lat="47.45053" lon="6.72438">
        <ele>458.1</ele>
        <time>2014-05-18T09:28:22.000Z</time>
      </trkpt>
      <trkpt lat="47.4506" lon="6.72443">
        <ele>458.2</ele>
        <time>2014-05-18T09:28:23.000Z</time>
      </trkpt>
      <trkpt lat="47.45067" lon="6.72448">
        <ele>457.7</ele>
        <time>2014-05-18T09:28:24.000Z</time>
      </trkpt>
      <trkpt lat="47.45074" lon="6.72453">
        <ele>457.4</ele>
        <time>2014-05-18T09:28:25.000Z</time>
      </trkpt>
      <trkpt lat="47.45082" lon="6.72458">
        <ele>457</ele>
        <time>2014-05-18T09:28:26.000Z</time>
      </trkpt>
      <trkpt lat="47.45088" lon="6.72464">
        <ele>457</ele>
        <time>2014-05-18T09:28:27.000Z</time>
      </trkpt>
      <trkpt lat="47.45096" lon="6.72469">
        <ele>456.6</ele>
        <time>2014-05-18T09:28:28.000Z</time>
      </trkpt>
      <trkpt lat="47.45102" lon="6.72473">
        <ele>456.3</ele>
        <time>2014-05-18T09:28:29.000Z</time>
      </trkpt>
      <trkpt lat="47.45109" lon="6.72478">
        <ele>456.4</ele>
        <time>2014-05-18T09:28:30.000Z</time>
      </trkpt>
      <trkpt lat="47.45115" lon="6.72482">
        <ele>455.4</ele>
        <time>2014-05-18T09:28:31.000Z</time>
      </trkpt>
      <trkpt lat="47.45122" lon="6.72487">
        <ele>455.5</ele>
        <time>2014-05-18T09:28:32.000Z</time>
      </trkpt>
      <trkpt lat="47.45128" lon="6.72492">
        <ele>454.8</ele>
        <time>2014-05-18T09:28:33.000Z</time>
      </trkpt>
      <trkpt lat="47.45134" lon="6.72496">
        <ele>454.9</ele>
        <time>2014-05-18T09:28:34.000Z</time>
      </trkpt>
      <trkpt lat="47.45141" lon="6.725">
        <ele>453.8</ele>
        <time>2014-05-18T09:28:35.000Z</time>
      </trkpt>
      <trkpt lat="47.45147" lon="6.72505">
        <ele>453.5</ele>
        <time>2014-05-18T09:28:36.000Z</time>
      </trkpt>
      <trkpt lat="47.45155" lon="6.7251">
        <ele>454.7</ele>
        <time>2014-05-18T09:28:37.000Z</time>
      </trkpt>
      <trkpt lat="47.4516" lon="6.72516">
        <ele>453.9</ele>
        <time>2014-05-18T09:28:38.000Z</time>
      </trkpt>
      <trkpt lat="47.45165" lon="6.7252">
        <ele>454.7</ele>
        <time>2014-05-18T09:28:39.000Z</time>
      </trkpt>
      <trkpt lat="47.45171" lon="6.72525">
        <ele>453.9</ele>
        <time>2014-05-18T09:28:40.000Z</time>
      </trkpt>
      <trkpt lat="47.45177" lon="6.72528">
        <ele>454.3</ele>
        <time>2014-05-18T09:28:41.000Z</time>
      </trkpt>
      <trkpt lat="47.45182" lon="6.72533">
        <ele>454.9</ele>
        <time>2014-05-18T09:28:42.000Z</time>
      </trkpt>
      <trkpt lat="47.45187" lon="6.72537">
        <ele>454.8</ele>
        <time>2014-05-18T09:28:43.000Z</time>
      </trkpt>
      <trkpt lat="47.45193" lon="6.72541">
        <ele>455</ele>
        <time>2014-05-18T09:28:44.000Z</time>
      </trkpt>
      <trkpt lat="47.45199" lon="6.72545">
        <ele>455.1</ele>
        <time>2014-05-18T09:28:45.000Z</time>
      </trkpt>
      <trkpt lat="47.45204" lon="6.72549">
        <ele>455</ele>
        <time>2014-05-18T09:28:46.000Z</time>
      </trkpt>
      <trkpt lat="47.45244" lon="6.72574">
        <ele>455.6</ele>
        <time>2014-05-18T09:28:54.000Z</time>
      </trkpt>
      <trkpt lat="47.45249" lon="6.72578">
        <ele>456.4</ele>
        <time>2014-05-18T09:28:55.000Z</time>
      </trkpt>
      <trkpt lat="47.45255" lon="6.72581">
        <ele>455.6</ele>
        <time>2014-05-18T09:28:56.000Z</time>
      </trkpt>
      <trkpt lat="47.45259" lon="6.72584">
        <ele>455.3</ele>
        <time>2014-05-18T09:28:57.000Z</time>
      </trkpt>
      <trkpt lat="47.45265" lon="6.72587">
        <ele>455.4</ele>
        <time>2014-05-18T09:28:58.000Z</time>
      </trkpt>
      <trkpt lat="47.4527" lon="6.7259">
        <ele>456</ele>
        <time>2014-05-18T09:28:59.000Z</time>
      </trkpt>
      <trkpt lat="47.45273" lon="6.72593">
        <ele>456.2</ele>
        <time>2014-05-18T09:29:00.000Z</time>
      </trkpt>
      <trkpt lat="47.45278" lon="6.72596">
        <ele>456.9</ele>
        <time>2014-05-18T09:29:01.000Z</time>
      </trkpt>
      <trkpt lat="47.45282" lon="6.726">
        <ele>457</ele>
        <time>2014-05-18T09:29:02.000Z</time>
      </trkpt>
      <trkpt lat="47.45286" lon="6.72603">
        <ele>457.8</ele>
        <time>2014-05-18T09:29:03.000Z</time>
      </trkpt>
      <trkpt lat="47.45289" lon="6.72606">
        <ele>458.8</ele>
        <time>2014-05-18T09:29:04.000Z</time>
      </trkpt>
      <trkpt lat="47.45294" lon="6.72609">
        <ele>458.6</ele>
        <time>2014-05-18T09:29:05.000Z</time>
      </trkpt>
      <trkpt lat="47.45298" lon="6.72613">
        <ele>458.7</ele>
        <time>2014-05-18T09:29:06.000Z</time>
      </trkpt>
      <trkpt lat="47.45303" lon="6.72617">
        <ele>457.2</ele>
        <time>2014-05-18T09:29:07.000Z</time>
      </trkpt>
      <trkpt lat="47.45307" lon="6.7262">
        <ele>457.9</ele>
        <time>2014-05-18T09:29:08.000Z</time>
      </trkpt>
      <trkpt lat="47.45311" lon="6.72622">
        <ele>458.6</ele>
        <time>2014-05-18T09:29:09.000Z</time>
      </trkpt>
      <trkpt lat="47.45315" lon="6.72625">
        <ele>459.7</ele>
        <time>2014-05-18T09:29:10.000Z</time>
      </trkpt>
      <trkpt lat="47.45319" lon="6.72628">
        <ele>460.4</ele>
        <time>2014-05-18T09:29:11.000Z</time>
      </trkpt>
      <trkpt lat="47.45323" lon="6.72633">
        <ele>460.1</ele>
        <time>2014-05-18T09:29:12.000Z</time>
      </trkpt>
      <trkpt lat="47.45327" lon="6.72637">
        <ele>459.5</ele>
        <time>2014-05-18T09:29:13.000Z</time>
      </trkpt>
      <trkpt lat="47.45331" lon="6.72642">
        <ele>459.6</ele>
        <time>2014-05-18T09:29:14.000Z</time>
      </trkpt>
      <trkpt lat="47.45334" lon="6.72648">
        <ele>459.7</ele>
        <time>2014-05-18T09:29:15.000Z</time>
      </trkpt>
      <trkpt lat="47.45339" lon="6.72653">
        <ele>459.5</ele>
        <time>2014-05-18T09:29:16.000Z</time>
      </trkpt>
      <trkpt lat="47.45343" lon="6.72657">
        <ele>460.1</ele>
        <time>2014-05-18T09:29:17.000Z</time>
      </trkpt>
      <trkpt lat="47.45348" lon="6.72662">
        <ele>461</ele>
        <time>2014-05-18T09:29:18.000Z</time>
      </trkpt>
      <trkpt lat="47.45352" lon="6.72667">
        <ele>460.8</ele>
        <time>2014-05-18T09:29:19.000Z</time>
      </trkpt>
      <trkpt lat="47.45356" lon="6.72671">
        <ele>461</ele>
        <time>2014-05-18T09:29:20.000Z</time>
      </trkpt>
      <trkpt lat="47.45361" lon="6.72676">
        <ele>460.6</ele>
        <time>2014-05-18T09:29:21.000Z</time>
      </trkpt>
      <trkpt lat="47.45366" lon="6.72682">
        <ele>460.5</ele>
        <time>2014-05-18T09:29:22.000Z</time>
      </trkpt>
      <trkpt lat="47.4537" lon="6.72686">
        <ele>460.7</ele>
        <time>2014-05-18T09:29:23.000Z</time>
      </trkpt>
      <trkpt lat="47.45374" lon="6.72691">
        <ele>460.7</ele>
        <time>2014-05-18T09:29:24.000Z</time>
      </trkpt>
      <trkpt lat="47.45378" lon="6.72697">
        <ele>461</ele>
        <time>2014-05-18T09:29:25.000Z</time>
      </trkpt>
      <trkpt lat="47.45382" lon="6.72701">
        <ele>461.1</ele>
        <time>2014-05-18T09:29:26.000Z</time>
      </trkpt>
      <trkpt lat="47.45386" lon="6.72704">
        <ele>461.1</ele>
        <time>2014-05-18T09:29:27.000Z</time>
      </trkpt>
      <trkpt lat="47.45391" lon="6.72708">
        <ele>461.7</ele>
        <time>2014-05-18T09:29:28.000Z</time>
      </trkpt>
      <trkpt lat="47.45395" lon="6.72713">
        <ele>462.4</ele>
        <time>2014-05-18T09:29:29.000Z</time>
      </trkpt>
      <trkpt lat="47.45398" lon="6.72718">
        <ele>462</ele>
        <time>2014-05-18T09:29:30.000Z</time>
      </trkpt>
      <trkpt lat="47.45402" lon="6.72721">
        <ele>461.9</ele>
        <time>2014-05-18T09:29:31.000Z</time>
      </trkpt>
      <trkpt lat="47.45406" lon="6.72724">
        <ele>462.2</ele>
        <time>2014-05-18T09:29:32.000Z</time>
      </trkpt>
      <trkpt lat="47.45411" lon="6.72726">
        <ele>462</ele>
        <time>2014-05-18T09:29:33.000Z</time>
      </trkpt>
      <trkpt lat="47.45415" lon="6.72727">
        <ele>461.2</ele>
        <time>2014-05-18T09:29:34.000Z</time>
      </trkpt>
      <trkpt lat="47.45419" lon="6.72729">
        <ele>461.5</ele>
        <time>2014-05-18T09:29:35.000Z</time>
      </trkpt>
      <trkpt lat="47.45424" lon="6.72731">
        <ele>462.6</ele>
        <time>2014-05-18T09:29:36.000Z</time>
      </trkpt>
      <trkpt lat="47.45428" lon="6.72733">
        <ele>463.8</ele>
        <time>2014-05-18T09:29:37.000Z</time>
      </trkpt>
      <trkpt lat="47.45432" lon="6.72735">
        <ele>463.3</ele>
        <time>2014-05-18T09:29:38.000Z</time>
      </trkpt>
      <trkpt lat="47.45434" lon="6.72736">
        <ele>462.7</ele>
        <time>2014-05-18T09:29:39.000Z</time>
      </trkpt>
      <trkpt lat="47.45437" lon="6.72737">
        <ele>462.7</ele>
        <time>2014-05-18T09:29:40.000Z</time>
      </trkpt>
      <trkpt lat="47.4544" lon="6.72741">
        <ele>462.2</ele>
        <time>2014-05-18T09:29:42.000Z</time>
      </trkpt>
      <trkpt lat="47.45441" lon="6.72743">
        <ele>462.2</ele>
        <time>2014-05-18T09:29:43.000Z</time>
      </trkpt>
      <trkpt lat="47.45441" lon="6.72749">
        <ele>463.3</ele>
        <time>2014-05-18T09:29:46.000Z</time>
      </trkpt>
      <trkpt lat="47.45441" lon="6.72751">
        <ele>464.2</ele>
        <time>2014-05-18T09:29:54.000Z</time>
      </trkpt>
      <trkpt lat="47.4544" lon="6.72755">
        <ele>465.1</ele>
        <time>2014-05-18T09:30:18.000Z</time>
      </trkpt>
      <trkpt lat="47.4544" lon="6.72757">
        <ele>464.7</ele>
        <time>2014-05-18T09:30:19.000Z</time>
      </trkpt>
      <trkpt lat="47.45439" lon="6.72761">
        <ele>464.1</ele>
        <time>2014-05-18T09:30:20.000Z</time>
      </trkpt>
      <trkpt lat="47.4544" lon="6.72765">
        <ele>464.4</ele>
        <time>2014-05-18T09:30:21.000Z</time>
      </trkpt>
      <trkpt lat="47.45441" lon="6.72769">
        <ele>464.9</ele>
        <time>2014-05-18T09:30:22.000Z</time>
      </trkpt>
      <trkpt lat="47.45442" lon="6.72772">
        <ele>465.1</ele>
        <time>2014-05-18T09:30:23.000Z</time>
      </trkpt>
      <trkpt lat="47.45443" lon="6.72776">
        <ele>464.9</ele>
        <time>2014-05-18T09:30:24.000Z</time>
      </trkpt>
      <trkpt lat="47.45445" lon="6.7278">
        <ele>464.6</ele>
        <time>2014-05-18T09:30:25.000Z</time>
      </trkpt>
      <trkpt lat="47.45447" lon="6.72784">
        <ele>464.6</ele>
        <time>2014-05-18T09:30:26.000Z</time>
      </trkpt>
      <trkpt lat="47.45449" lon="6.72788">
        <ele>462.4</ele>
        <time>2014-05-18T09:30:27.000Z</time>
      </trkpt>
      <trkpt lat="47.4545" lon="6.72792">
        <ele>462</ele>
        <time>2014-05-18T09:30:28.000Z</time>
      </trkpt>
      <trkpt lat="47.45452" lon="6.72795">
        <ele>461.8</ele>
        <time>2014-05-18T09:30:29.000Z</time>
      </trkpt>
      <trkpt lat="47.45454" lon="6.72799">
        <ele>461.4</ele>
        <time>2014-05-18T09:30:30.000Z</time>
      </trkpt>
      <trkpt lat="47.45455" lon="6.72802">
        <ele>460.9</ele>
        <time>2014-05-18T09:30:31.000Z</time>
      </trkpt>
      <trkpt lat="47.45457" lon="6.72806">
        <ele>464.7</ele>
        <time>2014-05-18T09:30:32.000Z</time>
      </trkpt>
      <trkpt lat="47.45458" lon="6.7281">
        <ele>465.7</ele>
        <time>2014-05-18T09:30:33.000Z</time>
      </trkpt>
      <trkpt lat="47.4546" lon="6.72813">
        <ele>466.3</ele>
        <time>2014-05-18T09:30:34.000Z</time>
      </trkpt>
      <trkpt lat="47.45462" lon="6.72818">
        <ele>464.3</ele>
        <time>2014-05-18T09:30:35.000Z</time>
      </trkpt>
      <trkpt lat="47.45464" lon="6.72822">
        <ele>464.4</ele>
        <time>2014-05-18T09:30:36.000Z</time>
      </trkpt>
      <trkpt lat="47.45465" lon="6.72827">
        <ele>461.8</ele>
        <time>2014-05-18T09:30:37.000Z</time>
      </trkpt>
      <trkpt lat="47.45466" lon="6.72831">
        <ele>461.1</ele>
        <time>2014-05-18T09:30:38.000Z</time>
      </trkpt>
      <trkpt lat="47.45466" lon="6.72835">
        <ele>460.2</ele>
        <time>2014-05-18T09:30:39.000Z</time>
      </trkpt>
      <trkpt lat="47.45467" lon="6.72838">
        <ele>460</ele>
        <time>2014-05-18T09:30:40.000Z</time>
      </trkpt>
      <trkpt lat="47.45468" lon="6.72842">
        <ele>455.7</ele>
        <time>2014-05-18T09:30:41.000Z</time>
      </trkpt>
      <trkpt lat="47.45469" lon="6.72847">
        <ele>455.8</ele>
        <time>2014-05-18T09:30:42.000Z</time>
      </trkpt>
      <trkpt lat="47.45469" lon="6.72852">
        <ele>458.3</ele>
        <time>2014-05-18T09:30:43.000Z</time>
      </trkpt>
      <trkpt lat="47.4547" lon="6.72858">
        <ele>459.9</ele>
        <time>2014-05-18T09:30:44.000Z</time>
      </trkpt>
      <trkpt lat="47.45471" lon="6.72863">
        <ele>458.7</ele>
        <time>2014-05-18T09:30:45.000Z</time>
      </trkpt>
      <trkpt lat="47.45473" lon="6.72868">
        <ele>458.5</ele>
        <time>2014-05-18T09:30:46.000Z</time>
      </trkpt>
      <trkpt lat="47.45477" lon="6.7288">
        <ele>457.1</ele>
        <time>2014-05-18T09:30:49.000Z</time>
      </trkpt>
      <trkpt lat="47.45479" lon="6.72884">
        <ele>457.1</ele>
        <time>2014-05-18T09:30:50.000Z</time>
      </trkpt>
      <trkpt lat="47.45483" lon="6.7289">
        <ele>457.9</ele>
        <time>2014-05-18T09:30:51.000Z</time>
      </trkpt>
      <trkpt lat="47.45486" lon="6.72894">
        <ele>457.8</ele>
        <time>2014-05-18T09:30:52.000Z</time>
      </trkpt>
      <trkpt lat="47.45488" lon="6.72899">
        <ele>460.2</ele>
        <time>2014-05-18T09:30:53.000Z</time>
      </trkpt>
      <trkpt lat="47.45489" lon="6.72904">
        <ele>462</ele>
        <time>2014-05-18T09:30:54.000Z</time>
      </trkpt>
      <trkpt lat="47.4549" lon="6.72909">
        <ele>463</ele>
        <time>2014-05-18T09:30:55.000Z</time>
      </trkpt>
      <trkpt lat="47.45491" lon="6.72915">
        <ele>463.7</ele>
        <time>2014-05-18T09:30:56.000Z</time>
      </trkpt>
      <trkpt lat="47.45491" lon="6.72921">
        <ele>464</ele>
        <time>2014-05-18T09:30:57.000Z</time>
      </trkpt>
      <trkpt lat="47.45493" lon="6.72926">
        <ele>464.3</ele>
        <time>2014-05-18T09:30:58.000Z</time>
      </trkpt>
      <trkpt lat="47.45495" lon="6.72932">
        <ele>464.5</ele>
        <time>2014-05-18T09:30:59.000Z</time>
      </trkpt>
      <trkpt lat="47.45498" lon="6.72939">
        <ele>464.2</ele>
        <time>2014-05-18T09:31:00.000Z</time>
      </trkpt>
      <trkpt lat="47.45501" lon="6.72946">
        <ele>464.1</ele>
        <time>2014-05-18T09:31:01.000Z</time>
      </trkpt>
      <trkpt lat="47.45516" lon="6.7296">
        <ele>462.1</ele>
        <time>2014-05-18T09:31:02.000Z</time>
      </trkpt>
      <trkpt lat="47.45519" lon="6.72965">
        <ele>462.3</ele>
        <time>2014-05-18T09:31:03.000Z</time>
      </trkpt>
      <trkpt lat="47.4552" lon="6.72971">
        <ele>462.7</ele>
        <time>2014-05-18T09:31:04.000Z</time>
      </trkpt>
      <trkpt lat="47.45523" lon="6.72975">
        <ele>464.1</ele>
        <time>2014-05-18T09:31:05.000Z</time>
      </trkpt>
      <trkpt lat="47.45524" lon="6.72984">
        <ele>464.1</ele>
        <time>2014-05-18T09:31:06.000Z</time>
      </trkpt>
      <trkpt lat="47.45529" lon="6.72994">
        <ele>465</ele>
        <time>2014-05-18T09:31:07.000Z</time>
      </trkpt>
      <trkpt lat="47.45534" lon="6.73">
        <ele>466.3</ele>
        <time>2014-05-18T09:31:08.000Z</time>
      </trkpt>
      <trkpt lat="47.45535" lon="6.73004">
        <ele>463.2</ele>
        <time>2014-05-18T09:31:10.000Z</time>
      </trkpt>
      <trkpt lat="47.45537" lon="6.73008">
        <ele>459.6</ele>
        <time>2014-05-18T09:31:11.000Z</time>
      </trkpt>
      <trkpt lat="47.45537" lon="6.73011">
        <ele>459.5</ele>
        <time>2014-05-18T09:31:12.000Z</time>
      </trkpt>
      <trkpt lat="47.4554" lon="6.73016">
        <ele>459.6</ele>
        <time>2014-05-18T09:31:13.000Z</time>
      </trkpt>
      <trkpt lat="47.45542" lon="6.73021">
        <ele>460</ele>
        <time>2014-05-18T09:31:14.000Z</time>
      </trkpt>
      <trkpt lat="47.45544" lon="6.73029">
        <ele>459.6</ele>
        <time>2014-05-18T09:31:15.000Z</time>
      </trkpt>
      <trkpt lat="47.45547" lon="6.73033">
        <ele>460.8</ele>
        <time>2014-05-18T09:31:16.000Z</time>
      </trkpt>
      <trkpt lat="47.45548" lon="6.73037">
        <ele>460.9</ele>
        <time>2014-05-18T09:31:17.000Z</time>
      </trkpt>
      <trkpt lat="47.45553" lon="6.73044">
        <ele>460.2</ele>
        <time>2014-05-18T09:31:18.000Z</time>
      </trkpt>
      <trkpt lat="47.45555" lon="6.73051">
        <ele>459.7</ele>
        <time>2014-05-18T09:31:19.000Z</time>
      </trkpt>
      <trkpt lat="47.45558" lon="6.73058">
        <ele>461.5</ele>
        <time>2014-05-18T09:31:20.000Z</time>
      </trkpt>
      <trkpt lat="47.45561" lon="6.73066">
        <ele>462.8</ele>
        <time>2014-05-18T09:31:21.000Z</time>
      </trkpt>
      <trkpt lat="47.45563" lon="6.73073">
        <ele>463.7</ele>
        <time>2014-05-18T09:31:22.000Z</time>
      </trkpt>
      <trkpt lat="47.45566" lon="6.7308">
        <ele>463.7</ele>
        <time>2014-05-18T09:31:23.000Z</time>
      </trkpt>
      <trkpt lat="47.45568" lon="6.73086">
        <ele>465</ele>
        <time>2014-05-18T09:31:24.000Z</time>
      </trkpt>
      <trkpt lat="47.4557" lon="6.73092">
        <ele>466.7</ele>
        <time>2014-05-18T09:31:25.000Z</time>
      </trkpt>
      <trkpt lat="47.45573" lon="6.73099">
        <ele>466.9</ele>
        <time>2014-05-18T09:31:26.000Z</time>
      </trkpt>
      <trkpt lat="47.45575" lon="6.73105">
        <ele>467.8</ele>
        <time>2014-05-18T09:31:27.000Z</time>
      </trkpt>
      <trkpt lat="47.45578" lon="6.73112">
        <ele>468.4</ele>
        <time>2014-05-18T09:31:28.000Z</time>
      </trkpt>
      <trkpt lat="47.4558" lon="6.73119">
        <ele>468.9</ele>
        <time>2014-05-18T09:31:29.000Z</time>
      </trkpt>
      <trkpt lat="47.45582" lon="6.73125">
        <ele>468.6</ele>
        <time>2014-05-18T09:31:30.000Z</time>
      </trkpt>
      <trkpt lat="47.45584" lon="6.73131">
        <ele>468</ele>
        <time>2014-05-18T09:31:31.000Z</time>
      </trkpt>
      <trkpt lat="47.45586" lon="6.73137">
        <ele>469.4</ele>
        <time>2014-05-18T09:31:32.000Z</time>
      </trkpt>
      <trkpt lat="47.45586" lon="6.73144">
        <ele>470.6</ele>
        <time>2014-05-18T09:31:33.000Z</time>
      </trkpt>
      <trkpt lat="47.45587" lon="6.73151">
        <ele>470.7</ele>
        <time>2014-05-18T09:31:34.000Z</time>
      </trkpt>
      <trkpt lat="47.45587" lon="6.73158">
        <ele>470.5</ele>
        <time>2014-05-18T09:31:35.000Z</time>
      </trkpt>
      <trkpt lat="47.45588" lon="6.73164">
        <ele>468</ele>
        <time>2014-05-18T09:31:36.000Z</time>
      </trkpt>
      <trkpt lat="47.45589" lon="6.7317">
        <ele>467</ele>
        <time>2014-05-18T09:31:37.000Z</time>
      </trkpt>
      <trkpt lat="47.4559" lon="6.73177">
        <ele>468.5</ele>
        <time>2014-05-18T09:31:38.000Z</time>
      </trkpt>
      <trkpt lat="47.45591" lon="6.73183">
        <ele>468.7</ele>
        <time>2014-05-18T09:31:39.000Z</time>
      </trkpt>
      <trkpt lat="47.45591" lon="6.73188">
        <ele>468.5</ele>
        <time>2014-05-18T09:31:40.000Z</time>
      </trkpt>
      <trkpt lat="47.45592" lon="6.73195">
        <ele>468.3</ele>
        <time>2014-05-18T09:31:41.000Z</time>
      </trkpt>
      <trkpt lat="47.45592" lon="6.73201">
        <ele>468.7</ele>
        <time>2014-05-18T09:31:42.000Z</time>
      </trkpt>
      <trkpt lat="47.45593" lon="6.73207">
        <ele>468.7</ele>
        <time>2014-05-18T09:31:43.000Z</time>
      </trkpt>
      <trkpt lat="47.45593" lon="6.73214">
        <ele>468.9</ele>
        <time>2014-05-18T09:31:44.000Z</time>
      </trkpt>
      <trkpt lat="47.45592" lon="6.73233">
        <ele>469.3</ele>
        <time>2014-05-18T09:31:45.000Z</time>
      </trkpt>
      <trkpt lat="47.45589" lon="6.7324">
        <ele>468.9</ele>
        <time>2014-05-18T09:31:46.000Z</time>
      </trkpt>
      <trkpt lat="47.45585" lon="6.73261">
        <ele>469.1</ele>
        <time>2014-05-18T09:31:50.000Z</time>
      </trkpt>
      <trkpt lat="47.45534" lon="6.73307">
        <ele>469.9</ele>
        <time>2014-05-18T09:31:55.000Z</time>
      </trkpt>
      <trkpt lat="47.45523" lon="6.73307">
        <ele>466.4</ele>
        <time>2014-05-18T09:31:56.000Z</time>
      </trkpt>
      <trkpt lat="47.45516" lon="6.7331">
        <ele>466.8</ele>
        <time>2014-05-18T09:31:57.000Z</time>
      </trkpt>
      <trkpt lat="47.45511" lon="6.73312">
        <ele>466.2</ele>
        <time>2014-05-18T09:31:58.000Z</time>
      </trkpt>
      <trkpt lat="47.45505" lon="6.73319">
        <ele>465.4</ele>
        <time>2014-05-18T09:31:58.999Z</time>
      </trkpt>
      <trkpt lat="47.455" lon="6.73326">
        <ele>464.8</ele>
        <time>2014-05-18T09:32:00.000Z</time>
      </trkpt>
      <trkpt lat="47.45496" lon="6.73332">
        <ele>464.4</ele>
        <time>2014-05-18T09:32:01.000Z</time>
      </trkpt>
      <trkpt lat="47.4549" lon="6.7334">
        <ele>463.5</ele>
        <time>2014-05-18T09:32:02.000Z</time>
      </trkpt>
      <trkpt lat="47.45484" lon="6.73346">
        <ele>461.8</ele>
        <time>2014-05-18T09:32:03.000Z</time>
      </trkpt>
      <trkpt lat="47.45479" lon="6.73346">
        <ele>461.3</ele>
        <time>2014-05-18T09:32:04.000Z</time>
      </trkpt>
      <trkpt lat="47.45474" lon="6.73347">
        <ele>460.8</ele>
        <time>2014-05-18T09:32:05.000Z</time>
      </trkpt>
      <trkpt lat="47.4547" lon="6.73348">
        <ele>459.5</ele>
        <time>2014-05-18T09:32:06.000Z</time>
      </trkpt>
      <trkpt lat="47.45467" lon="6.7335">
        <ele>460.1</ele>
        <time>2014-05-18T09:32:07.008Z</time>
      </trkpt>
      <trkpt lat="47.45463" lon="6.73353">
        <ele>459.7</ele>
        <time>2014-05-18T09:32:08.000Z</time>
      </trkpt>
      <trkpt lat="47.45458" lon="6.73358">
        <ele>458.3</ele>
        <time>2014-05-18T09:32:09.000Z</time>
      </trkpt>
      <trkpt lat="47.45456" lon="6.73363">
        <ele>457.8</ele>
        <time>2014-05-18T09:32:10.000Z</time>
      </trkpt>
      <trkpt lat="47.45451" lon="6.73369">
        <ele>456.6</ele>
        <time>2014-05-18T09:32:11.000Z</time>
      </trkpt>
      <trkpt lat="47.45448" lon="6.73375">
        <ele>454.4</ele>
        <time>2014-05-18T09:32:12.000Z</time>
      </trkpt>
      <trkpt lat="47.45444" lon="6.73381">
        <ele>455.3</ele>
        <time>2014-05-18T09:32:13.000Z</time>
      </trkpt>
      <trkpt lat="47.45443" lon="6.73387">
        <ele>454.7</ele>
        <time>2014-05-18T09:32:14.000Z</time>
      </trkpt>
      <trkpt lat="47.45441" lon="6.73397">
        <ele>454.1</ele>
        <time>2014-05-18T09:32:15.000Z</time>
      </trkpt>
      <trkpt lat="47.45439" lon="6.73406">
        <ele>454.5</ele>
        <time>2014-05-18T09:32:16.000Z</time>
      </trkpt>
      <trkpt lat="47.45437" lon="6.73413">
        <ele>454</ele>
        <time>2014-05-18T09:32:17.000Z</time>
      </trkpt>
      <trkpt lat="47.45435" lon="6.73424">
        <ele>456.3</ele>
        <time>2014-05-18T09:32:18.000Z</time>
      </trkpt>
      <trkpt lat="47.45432" lon="6.73431">
        <ele>456.6</ele>
        <time>2014-05-18T09:32:19.000Z</time>
      </trkpt>
      <trkpt lat="47.45431" lon="6.73438">
        <ele>458.3</ele>
        <time>2014-05-18T09:32:20.000Z</time>
      </trkpt>
      <trkpt lat="47.45431" lon="6.73446">
        <ele>459.6</ele>
        <time>2014-05-18T09:32:21.000Z</time>
      </trkpt>
      <trkpt lat="47.4543" lon="6.73454">
        <ele>460.2</ele>
        <time>2014-05-18T09:32:22.000Z</time>
      </trkpt>
      <trkpt lat="47.4543" lon="6.73461">
        <ele>460.3</ele>
        <time>2014-05-18T09:32:23.000Z</time>
      </trkpt>
      <trkpt lat="47.4543" lon="6.7347">
        <ele>460.8</ele>
        <time>2014-05-18T09:32:24.000Z</time>
      </trkpt>
      <trkpt lat="47.45431" lon="6.73476">
        <ele>460.9</ele>
        <time>2014-05-18T09:32:25.000Z</time>
      </trkpt>
      <trkpt lat="47.45431" lon="6.73491">
        <ele>460.3</ele>
        <time>2014-05-18T09:32:26.000Z</time>
      </trkpt>
      <trkpt lat="47.45432" lon="6.73502">
        <ele>460.9</ele>
        <time>2014-05-18T09:32:27.000Z</time>
      </trkpt>
      <trkpt lat="47.45432" lon="6.73512">
        <ele>461.3</ele>
        <time>2014-05-18T09:32:28.000Z</time>
      </trkpt>
      <trkpt lat="47.45435" lon="6.73522">
        <ele>462.5</ele>
        <time>2014-05-18T09:32:29.000Z</time>
      </trkpt>
      <trkpt lat="47.45441" lon="6.73529">
        <ele>461.2</ele>
        <time>2014-05-18T09:32:30.000Z</time>
      </trkpt>
      <trkpt lat="47.45443" lon="6.73538">
        <ele>460.3</ele>
        <time>2014-05-18T09:32:31.000Z</time>
      </trkpt>
      <trkpt lat="47.45445" lon="6.73549">
        <ele>459.5</ele>
        <time>2014-05-18T09:32:32.000Z</time>
      </trkpt>
      <trkpt lat="47.45446" lon="6.73558">
        <ele>459.1</ele>
        <time>2014-05-18T09:32:33.000Z</time>
      </trkpt>
      <trkpt lat="47.45449" lon="6.73569">
        <ele>459.1</ele>
        <time>2014-05-18T09:32:34.000Z</time>
      </trkpt>
      <trkpt lat="47.45449" lon="6.73579">
        <ele>458.8</ele>
        <time>2014-05-18T09:32:35.000Z</time>
      </trkpt>
      <trkpt lat="47.45449" lon="6.73591">
        <ele>459.1</ele>
        <time>2014-05-18T09:32:36.000Z</time>
      </trkpt>
      <trkpt lat="47.45451" lon="6.73598">
        <ele>457.6</ele>
        <time>2014-05-18T09:32:37.000Z</time>
      </trkpt>
      <trkpt lat="47.45454" lon="6.73608">
        <ele>457.7</ele>
        <time>2014-05-18T09:32:38.000Z</time>
      </trkpt>
      <trkpt lat="47.45457" lon="6.73608">
        <ele>457.8</ele>
        <time>2014-05-18T09:32:40.000Z</time>
      </trkpt>
      <trkpt lat="47.45465" lon="6.73609">
        <ele>457.1</ele>
        <time>2014-05-18T09:32:41.000Z</time>
      </trkpt>
      <trkpt lat="47.45469" lon="6.73612">
        <ele>456.7</ele>
        <time>2014-05-18T09:32:42.000Z</time>
      </trkpt>
      <trkpt lat="47.45475" lon="6.73615">
        <ele>456.8</ele>
        <time>2014-05-18T09:32:43.000Z</time>
      </trkpt>
      <trkpt lat="47.45477" lon="6.73617">
        <ele>457</ele>
        <time>2014-05-18T09:32:44.000Z</time>
      </trkpt>
      <trkpt lat="47.45481" lon="6.73621">
        <ele>455.7</ele>
        <time>2014-05-18T09:32:45.000Z</time>
      </trkpt>
      <trkpt lat="47.45484" lon="6.73624">
        <ele>455.6</ele>
        <time>2014-05-18T09:32:46.000Z</time>
      </trkpt>
      <trkpt lat="47.45493" lon="6.73633">
        <ele>456</ele>
        <time>2014-05-18T09:32:49.000Z</time>
      </trkpt>
      <trkpt lat="47.45497" lon="6.7364">
        <ele>455.6</ele>
        <time>2014-05-18T09:32:50.000Z</time>
      </trkpt>
      <trkpt lat="47.45502" lon="6.73646">
        <ele>457.3</ele>
        <time>2014-05-18T09:32:51.000Z</time>
      </trkpt>
      <trkpt lat="47.45503" lon="6.7365">
        <ele>457.4</ele>
        <time>2014-05-18T09:32:52.000Z</time>
      </trkpt>
      <trkpt lat="47.45506" lon="6.73653">
        <ele>457.9</ele>
        <time>2014-05-18T09:32:53.000Z</time>
      </trkpt>
      <trkpt lat="47.45509" lon="6.73656">
        <ele>456.8</ele>
        <time>2014-05-18T09:32:54.000Z</time>
      </trkpt>
      <trkpt lat="47.45512" lon="6.73658">
        <ele>457.2</ele>
        <time>2014-05-18T09:32:55.000Z</time>
      </trkpt>
      <trkpt lat="47.45515" lon="6.73661">
        <ele>456.2</ele>
        <time>2014-05-18T09:32:56.000Z</time>
      </trkpt>
      <trkpt lat="47.45518" lon="6.73663">
        <ele>456.1</ele>
        <time>2014-05-18T09:32:56.999Z</time>
      </trkpt>
      <trkpt lat="47.4553" lon="6.73665">
        <ele>458.5</ele>
        <time>2014-05-18T09:32:58.001Z</time>
      </trkpt>
      <trkpt lat="47.45534" lon="6.73666">
        <ele>458.8</ele>
        <time>2014-05-18T09:32:59.000Z</time>
      </trkpt>
      <trkpt lat="47.45538" lon="6.73667">
        <ele>458.8</ele>
        <time>2014-05-18T09:33:00.000Z</time>
      </trkpt>
      <trkpt lat="47.45543" lon="6.73668">
        <ele>459.4</ele>
        <time>2014-05-18T09:33:01.000Z</time>
      </trkpt>
      <trkpt lat="47.45548" lon="6.73668">
        <ele>459.9</ele>
        <time>2014-05-18T09:33:02.000Z</time>
      </trkpt>
      <trkpt lat="47.45552" lon="6.73669">
        <ele>460.5</ele>
        <time>2014-05-18T09:33:03.000Z</time>
      </trkpt>
      <trkpt lat="47.45556" lon="6.7367">
        <ele>460.6</ele>
        <time>2014-05-18T09:33:04.000Z</time>
      </trkpt>
      <trkpt lat="47.4556" lon="6.73671">
        <ele>460.7</ele>
        <time>2014-05-18T09:33:05.000Z</time>
      </trkpt>
      <trkpt lat="47.45564" lon="6.73671">
        <ele>460.6</ele>
        <time>2014-05-18T09:33:06.000Z</time>
      </trkpt>
      <trkpt lat="47.45569" lon="6.73668">
        <ele>462.6</ele>
        <time>2014-05-18T09:33:07.000Z</time>
      </trkpt>
      <trkpt lat="47.45573" lon="6.73668">
        <ele>462.5</ele>
        <time>2014-05-18T09:33:08.000Z</time>
      </trkpt>
      <trkpt lat="47.45575" lon="6.73668">
        <ele>462.3</ele>
        <time>2014-05-18T09:33:09.000Z</time>
      </trkpt>
      <trkpt lat="47.45578" lon="6.73667">
        <ele>462</ele>
        <time>2014-05-18T09:33:10.000Z</time>
      </trkpt>
      <trkpt lat="47.45582" lon="6.73667">
        <ele>462.4</ele>
        <time>2014-05-18T09:33:11.000Z</time>
      </trkpt>
      <trkpt lat="47.45586" lon="6.73665">
        <ele>463.2</ele>
        <time>2014-05-18T09:33:12.000Z</time>
      </trkpt>
      <trkpt lat="47.4559" lon="6.73666">
        <ele>463.1</ele>
        <time>2014-05-18T09:33:13.000Z</time>
      </trkpt>
      <trkpt lat="47.45594" lon="6.73667">
        <ele>463.2</ele>
        <time>2014-05-18T09:33:14.000Z</time>
      </trkpt>
      <trkpt lat="47.45597" lon="6.73667">
        <ele>463.2</ele>
        <time>2014-05-18T09:33:15.000Z</time>
      </trkpt>
      <trkpt lat="47.456" lon="6.73668">
        <ele>463.1</ele>
        <time>2014-05-18T09:33:16.000Z</time>
      </trkpt>
      <trkpt lat="47.45603" lon="6.73669">
        <ele>463.4</ele>
        <time>2014-05-18T09:33:17.000Z</time>
      </trkpt>
      <trkpt lat="47.45606" lon="6.73669">
        <ele>463</ele>
        <time>2014-05-18T09:33:18.000Z</time>
      </trkpt>
      <trkpt lat="47.45609" lon="6.7367">
        <ele>462.8</ele>
        <time>2014-05-18T09:33:19.000Z</time>
      </trkpt>
      <trkpt lat="47.45612" lon="6.7367">
        <ele>462.8</ele>
        <time>2014-05-18T09:33:20.000Z</time>
      </trkpt>
      <trkpt lat="47.45614" lon="6.73671">
        <ele>462.3</ele>
        <time>2014-05-18T09:33:21.000Z</time>
      </trkpt>
      <trkpt lat="47.45616" lon="6.73671">
        <ele>462</ele>
        <time>2014-05-18T09:33:22.000Z</time>
      </trkpt>
      <trkpt lat="47.45621" lon="6.73672">
        <ele>462.8</ele>
        <time>2014-05-18T09:33:25.000Z</time>
      </trkpt>
      <trkpt lat="47.45622" lon="6.73672">
        <ele>462</ele>
        <time>2014-05-18T09:33:26.000Z</time>
      </trkpt>
      <trkpt lat="47.45625" lon="6.73673">
        <ele>462.1</ele>
        <time>2014-05-18T09:33:28.000Z</time>
      </trkpt>
      <trkpt lat="47.45627" lon="6.73673">
        <ele>462.6</ele>
        <time>2014-05-18T09:33:29.000Z</time>
      </trkpt>
      <trkpt lat="47.45632" lon="6.73673">
        <ele>461.8</ele>
        <time>2014-05-18T09:33:31.000Z</time>
      </trkpt>
      <trkpt lat="47.45633" lon="6.73673">
        <ele>462.3</ele>
        <time>2014-05-18T09:33:32.000Z</time>
      </trkpt>
      <trkpt lat="47.45637" lon="6.73675">
        <ele>463.6</ele>
        <time>2014-05-18T09:33:34.000Z</time>
      </trkpt>
      <trkpt lat="47.45638" lon="6.73676">
        <ele>462.8</ele>
        <time>2014-05-18T09:33:35.000Z</time>
      </trkpt>
      <trkpt lat="47.45641" lon="6.73679">
        <ele>461.6</ele>
        <time>2014-05-18T09:33:38.000Z</time>
      </trkpt>
      <trkpt lat="47.45641" lon="6.73681">
        <ele>461.8</ele>
        <time>2014-05-18T09:33:39.000Z</time>
      </trkpt>
      <trkpt lat="47.45642" lon="6.73687">
        <ele>461.2</ele>
        <time>2014-05-18T09:33:41.000Z</time>
      </trkpt>
      <trkpt lat="47.45642" lon="6.7369">
        <ele>461.4</ele>
        <time>2014-05-18T09:33:42.000Z</time>
      </trkpt>
      <trkpt lat="47.45641" lon="6.73694">
        <ele>460.8</ele>
        <time>2014-05-18T09:33:43.000Z</time>
      </trkpt>
      <trkpt lat="47.4564" lon="6.73698">
        <ele>459.6</ele>
        <time>2014-05-18T09:33:44.000Z</time>
      </trkpt>
      <trkpt lat="47.45639" lon="6.73702">
        <ele>458.8</ele>
        <time>2014-05-18T09:33:45.000Z</time>
      </trkpt>
      <trkpt lat="47.45638" lon="6.73707">
        <ele>458.8</ele>
        <time>2014-05-18T09:33:46.000Z</time>
      </trkpt>
      <trkpt lat="47.45637" lon="6.73712">
        <ele>458.7</ele>
        <time>2014-05-18T09:33:47.000Z</time>
      </trkpt>
      <trkpt lat="47.4562" lon="6.73755">
        <ele>456</ele>
        <time>2014-05-18T09:33:55.000Z</time>
      </trkpt>
      <trkpt lat="47.45618" lon="6.73761">
        <ele>454.5</ele>
        <time>2014-05-18T09:33:56.000Z</time>
      </trkpt>
      <trkpt lat="47.45616" lon="6.73769">
        <ele>453.7</ele>
        <time>2014-05-18T09:33:57.000Z</time>
      </trkpt>
      <trkpt lat="47.45614" lon="6.73775">
        <ele>453.7</ele>
        <time>2014-05-18T09:33:58.000Z</time>
      </trkpt>
      <trkpt lat="47.45613" lon="6.7378">
        <ele>453.9</ele>
        <time>2014-05-18T09:33:59.000Z</time>
      </trkpt>
      <trkpt lat="47.4561" lon="6.73791">
        <ele>453.6</ele>
        <time>2014-05-18T09:34:00.000Z</time>
      </trkpt>
      <trkpt lat="47.45608" lon="6.73798">
        <ele>453.4</ele>
        <time>2014-05-18T09:34:01.000Z</time>
      </trkpt>
      <trkpt lat="47.45607" lon="6.73805">
        <ele>453.7</ele>
        <time>2014-05-18T09:34:02.000Z</time>
      </trkpt>
      <trkpt lat="47.45607" lon="6.73813">
        <ele>452.4</ele>
        <time>2014-05-18T09:34:03.000Z</time>
      </trkpt>
      <trkpt lat="47.45605" lon="6.73822">
        <ele>451.4</ele>
        <time>2014-05-18T09:34:04.000Z</time>
      </trkpt>
      <trkpt lat="47.45606" lon="6.73829">
        <ele>451.4</ele>
        <time>2014-05-18T09:34:05.000Z</time>
      </trkpt>
      <trkpt lat="47.45608" lon="6.73838">
        <ele>450.4</ele>
        <time>2014-05-18T09:34:06.000Z</time>
      </trkpt>
      <trkpt lat="47.45608" lon="6.73847">
        <ele>450.7</ele>
        <time>2014-05-18T09:34:07.000Z</time>
      </trkpt>
      <trkpt lat="47.45606" lon="6.73857">
        <ele>450.4</ele>
        <time>2014-05-18T09:34:08.000Z</time>
      </trkpt>
      <trkpt lat="47.45606" lon="6.73866">
        <ele>450.5</ele>
        <time>2014-05-18T09:34:09.000Z</time>
      </trkpt>
      <trkpt lat="47.45604" lon="6.73878">
        <ele>450.3</ele>
        <time>2014-05-18T09:34:10.000Z</time>
      </trkpt>
      <trkpt lat="47.45606" lon="6.73888">
        <ele>449.9</ele>
        <time>2014-05-18T09:34:11.000Z</time>
      </trkpt>
      <trkpt lat="47.45608" lon="6.73897">
        <ele>449.6</ele>
        <time>2014-05-18T09:34:12.000Z</time>
      </trkpt>
      <trkpt lat="47.45613" lon="6.73903">
        <ele>450</ele>
        <time>2014-05-18T09:34:13.000Z</time>
      </trkpt>
      <trkpt lat="47.45617" lon="6.73909">
        <ele>450</ele>
        <time>2014-05-18T09:34:14.000Z</time>
      </trkpt>
      <trkpt lat="47.45622" lon="6.73915">
        <ele>449.5</ele>
        <time>2014-05-18T09:34:15.000Z</time>
      </trkpt>
      <trkpt lat="47.45631" lon="6.73919">
        <ele>449.4</ele>
        <time>2014-05-18T09:34:16.000Z</time>
      </trkpt>
      <trkpt lat="47.45637" lon="6.7393">
        <ele>449.6</ele>
        <time>2014-05-18T09:34:17.000Z</time>
      </trkpt>
      <trkpt lat="47.45643" lon="6.73939">
        <ele>449.9</ele>
        <time>2014-05-18T09:34:18.000Z</time>
      </trkpt>
      <trkpt lat="47.45649" lon="6.73948">
        <ele>450.2</ele>
        <time>2014-05-18T09:34:19.000Z</time>
      </trkpt>
      <trkpt lat="47.45659" lon="6.73959">
        <ele>449.9</ele>
        <time>2014-05-18T09:34:20.000Z</time>
      </trkpt>
      <trkpt lat="47.45666" lon="6.73965">
        <ele>448.5</ele>
        <time>2014-05-18T09:34:21.000Z</time>
      </trkpt>
      <trkpt lat="47.45674" lon="6.73975">
        <ele>447.6</ele>
        <time>2014-05-18T09:34:22.000Z</time>
      </trkpt>
      <trkpt lat="47.45679" lon="6.73983">
        <ele>448.1</ele>
        <time>2014-05-18T09:34:23.000Z</time>
      </trkpt>
      <trkpt lat="47.45684" lon="6.73989">
        <ele>448.7</ele>
        <time>2014-05-18T09:34:24.000Z</time>
      </trkpt>
      <trkpt lat="47.45689" lon="6.73998">
        <ele>448.4</ele>
        <time>2014-05-18T09:34:25.000Z</time>
      </trkpt>
      <trkpt lat="47.45694" lon="6.74005">
        <ele>448.1</ele>
        <time>2014-05-18T09:34:26.000Z</time>
      </trkpt>
      <trkpt lat="47.457" lon="6.74015">
        <ele>447.6</ele>
        <time>2014-05-18T09:34:27.000Z</time>
      </trkpt>
      <trkpt lat="47.45704" lon="6.7402">
        <ele>447.2</ele>
        <time>2014-05-18T09:34:28.000Z</time>
      </trkpt>
      <trkpt lat="47.4571" lon="6.74025">
        <ele>447.2</ele>
        <time>2014-05-18T09:34:29.000Z</time>
      </trkpt>
      <trkpt lat="47.45716" lon="6.7403">
        <ele>446.4</ele>
        <time>2014-05-18T09:34:30.000Z</time>
      </trkpt>
      <trkpt lat="47.4572" lon="6.74036">
        <ele>444.3</ele>
        <time>2014-05-18T09:34:31.000Z</time>
      </trkpt>
      <trkpt lat="47.45725" lon="6.74043">
        <ele>442.3</ele>
        <time>2014-05-18T09:34:32.000Z</time>
      </trkpt>
      <trkpt lat="47.45731" lon="6.74047">
        <ele>442.1</ele>
        <time>2014-05-18T09:34:33.000Z</time>
      </trkpt>
      <trkpt lat="47.45736" lon="6.74051">
        <ele>441.8</ele>
        <time>2014-05-18T09:34:34.000Z</time>
      </trkpt>
      <trkpt lat="47.45739" lon="6.74057">
        <ele>442</ele>
        <time>2014-05-18T09:34:35.000Z</time>
      </trkpt>
      <trkpt lat="47.45746" lon="6.74064">
        <ele>441.9</ele>
        <time>2014-05-18T09:34:36.000Z</time>
      </trkpt>
      <trkpt lat="47.45745" lon="6.74069">
        <ele>441.3</ele>
        <time>2014-05-18T09:34:37.000Z</time>
      </trkpt>
      <trkpt lat="47.4575" lon="6.74073">
        <ele>441.4</ele>
        <time>2014-05-18T09:34:38.000Z</time>
      </trkpt>
      <trkpt lat="47.45755" lon="6.74084">
        <ele>441.5</ele>
        <time>2014-05-18T09:34:39.000Z</time>
      </trkpt>
      <trkpt lat="47.45762" lon="6.74093">
        <ele>441.3</ele>
        <time>2014-05-18T09:34:40.000Z</time>
      </trkpt>
      <trkpt lat="47.45765" lon="6.74102">
        <ele>441.7</ele>
        <time>2014-05-18T09:34:41.000Z</time>
      </trkpt>
      <trkpt lat="47.4577" lon="6.74114">
        <ele>442.1</ele>
        <time>2014-05-18T09:34:42.000Z</time>
      </trkpt>
      <trkpt lat="47.45772" lon="6.74122">
        <ele>442.8</ele>
        <time>2014-05-18T09:34:43.000Z</time>
      </trkpt>
      <trkpt lat="47.45777" lon="6.7413">
        <ele>441.8</ele>
        <time>2014-05-18T09:34:44.000Z</time>
      </trkpt>
      <trkpt lat="47.45779" lon="6.74138">
        <ele>441.3</ele>
        <time>2014-05-18T09:34:45.000Z</time>
      </trkpt>
      <trkpt lat="47.45784" lon="6.74146">
        <ele>441.5</ele>
        <time>2014-05-18T09:34:46.000Z</time>
      </trkpt>
      <trkpt lat="47.45791" lon="6.74154">
        <ele>441</ele>
        <time>2014-05-18T09:34:47.000Z</time>
      </trkpt>
      <trkpt lat="47.45797" lon="6.74161">
        <ele>439.4</ele>
        <time>2014-05-18T09:34:48.000Z</time>
      </trkpt>
      <trkpt lat="47.45811" lon="6.74174">
        <ele>423.8</ele>
        <time>2014-05-18T09:34:56.000Z</time>
      </trkpt>
      <trkpt lat="47.45816" lon="6.74176">
        <ele>422.5</ele>
        <time>2014-05-18T09:34:57.000Z</time>
      </trkpt>
      <trkpt lat="47.4582" lon="6.7418">
        <ele>422.1</ele>
        <time>2014-05-18T09:34:58.000Z</time>
      </trkpt>
      <trkpt lat="47.45823" lon="6.74181">
        <ele>422.1</ele>
        <time>2014-05-18T09:34:59.000Z</time>
      </trkpt>
      <trkpt lat="47.45826" lon="6.74182">
        <ele>421.2</ele>
        <time>2014-05-18T09:35:00.000Z</time>
      </trkpt>
      <trkpt lat="47.45829" lon="6.74183">
        <ele>421.3</ele>
        <time>2014-05-18T09:35:01.000Z</time>
      </trkpt>
      <trkpt lat="47.45833" lon="6.74184">
        <ele>422.3</ele>
        <time>2014-05-18T09:35:02.000Z</time>
      </trkpt>
      <trkpt lat="47.45836" lon="6.74185">
        <ele>419.5</ele>
        <time>2014-05-18T09:35:03.000Z</time>
      </trkpt>
      <trkpt lat="47.4584" lon="6.74186">
        <ele>420</ele>
        <time>2014-05-18T09:35:04.000Z</time>
      </trkpt>
      <trkpt lat="47.45845" lon="6.74187">
        <ele>420.2</ele>
        <time>2014-05-18T09:35:05.000Z</time>
      </trkpt>
      <trkpt lat="47.4585" lon="6.74188">
        <ele>419</ele>
        <time>2014-05-18T09:35:06.000Z</time>
      </trkpt>
      <trkpt lat="47.45856" lon="6.74188">
        <ele>417.3</ele>
        <time>2014-05-18T09:35:07.000Z</time>
      </trkpt>
      <trkpt lat="47.45861" lon="6.74188">
        <ele>415.6</ele>
        <time>2014-05-18T09:35:08.000Z</time>
      </trkpt>
      <trkpt lat="47.45865" lon="6.74189">
        <ele>415</ele>
        <time>2014-05-18T09:35:09.000Z</time>
      </trkpt>
      <trkpt lat="47.4587" lon="6.7419">
        <ele>414.9</ele>
        <time>2014-05-18T09:35:10.000Z</time>
      </trkpt>
      <trkpt lat="47.45874" lon="6.74191">
        <ele>415.2</ele>
        <time>2014-05-18T09:35:11.000Z</time>
      </trkpt>
      <trkpt lat="47.45879" lon="6.74192">
        <ele>415.7</ele>
        <time>2014-05-18T09:35:12.000Z</time>
      </trkpt>
      <trkpt lat="47.45883" lon="6.74192">
        <ele>415.2</ele>
        <time>2014-05-18T09:35:13.000Z</time>
      </trkpt>
      <trkpt lat="47.45887" lon="6.74192">
        <ele>415.7</ele>
        <time>2014-05-18T09:35:14.000Z</time>
      </trkpt>
      <trkpt lat="47.45891" lon="6.74193">
        <ele>416.1</ele>
        <time>2014-05-18T09:35:15.000Z</time>
      </trkpt>
      <trkpt lat="47.45896" lon="6.74194">
        <ele>416.7</ele>
        <time>2014-05-18T09:35:16.000Z</time>
      </trkpt>
      <trkpt lat="47.459" lon="6.74195">
        <ele>416.8</ele>
        <time>2014-05-18T09:35:17.000Z</time>
      </trkpt>
      <trkpt lat="47.45905" lon="6.74195">
        <ele>417.2</ele>
        <time>2014-05-18T09:35:18.000Z</time>
      </trkpt>
      <trkpt lat="47.4591" lon="6.74195">
        <ele>418.5</ele>
        <time>2014-05-18T09:35:19.000Z</time>
      </trkpt>
      <trkpt lat="47.45914" lon="6.74194">
        <ele>419.8</ele>
        <time>2014-05-18T09:35:20.000Z</time>
      </trkpt>
      <trkpt lat="47.45917" lon="6.74194">
        <ele>416.6</ele>
        <time>2014-05-18T09:35:21.000Z</time>
      </trkpt>
      <trkpt lat="47.4592" lon="6.74195">
        <ele>419.4</ele>
        <time>2014-05-18T09:35:22.000Z</time>
      </trkpt>
      <trkpt lat="47.45927" lon="6.74196">
        <ele>421.3</ele>
        <time>2014-05-18T09:35:23.000Z</time>
      </trkpt>
      <trkpt lat="47.45932" lon="6.74194">
        <ele>421.4</ele>
        <time>2014-05-18T09:35:24.000Z</time>
      </trkpt>
      <trkpt lat="47.45937" lon="6.74191">
        <ele>421.6</ele>
        <time>2014-05-18T09:35:25.000Z</time>
      </trkpt>
      <trkpt lat="47.4594" lon="6.74191">
        <ele>421.9</ele>
        <time>2014-05-18T09:35:26.000Z</time>
      </trkpt>
      <trkpt lat="47.45944" lon="6.74189">
        <ele>421.3</ele>
        <time>2014-05-18T09:35:27.000Z</time>
      </trkpt>
      <trkpt lat="47.45949" lon="6.7419">
        <ele>421.7</ele>
        <time>2014-05-18T09:35:28.000Z</time>
      </trkpt>
      <trkpt lat="47.45954" lon="6.74193">
        <ele>421.5</ele>
        <time>2014-05-18T09:35:29.000Z</time>
      </trkpt>
      <trkpt lat="47.45961" lon="6.74196">
        <ele>420.3</ele>
        <time>2014-05-18T09:35:30.000Z</time>
      </trkpt>
      <trkpt lat="47.45962" lon="6.74201">
        <ele>421.6</ele>
        <time>2014-05-18T09:35:31.000Z</time>
      </trkpt>
      <trkpt lat="47.45965" lon="6.74204">
        <ele>421.3</ele>
        <time>2014-05-18T09:35:32.000Z</time>
      </trkpt>
      <trkpt lat="47.45968" lon="6.74207">
        <ele>421.7</ele>
        <time>2014-05-18T09:35:33.000Z</time>
      </trkpt>
      <trkpt lat="47.45971" lon="6.7421">
        <ele>420.9</ele>
        <time>2014-05-18T09:35:34.000Z</time>
      </trkpt>
      <trkpt lat="47.45974" lon="6.74212">
        <ele>420.2</ele>
        <time>2014-05-18T09:35:35.000Z</time>
      </trkpt>
      <trkpt lat="47.45977" lon="6.74215">
        <ele>416.3</ele>
        <time>2014-05-18T09:35:36.000Z</time>
      </trkpt>
      <trkpt lat="47.45979" lon="6.74218">
        <ele>415.1</ele>
        <time>2014-05-18T09:35:37.000Z</time>
      </trkpt>
      <trkpt lat="47.45982" lon="6.7422">
        <ele>414.8</ele>
        <time>2014-05-18T09:35:38.000Z</time>
      </trkpt>
      <trkpt lat="47.45986" lon="6.74223">
        <ele>414.2</ele>
        <time>2014-05-18T09:35:39.000Z</time>
      </trkpt>
      <trkpt lat="47.45989" lon="6.74224">
        <ele>413.2</ele>
        <time>2014-05-18T09:35:40.000Z</time>
      </trkpt>
      <trkpt lat="47.45992" lon="6.74225">
        <ele>414</ele>
        <time>2014-05-18T09:35:41.000Z</time>
      </trkpt>
      <trkpt lat="47.45994" lon="6.74224">
        <ele>415.6</ele>
        <time>2014-05-18T09:35:42.000Z</time>
      </trkpt>
      <trkpt lat="47.45997" lon="6.74221">
        <ele>415.9</ele>
        <time>2014-05-18T09:35:44.000Z</time>
      </trkpt>
      <trkpt lat="47.45998" lon="6.74219">
        <ele>415.8</ele>
        <time>2014-05-18T09:35:45.000Z</time>
      </trkpt>
      <trkpt lat="47.46001" lon="6.74215">
        <ele>415.4</ele>
        <time>2014-05-18T09:35:47.000Z</time>
      </trkpt>
      <trkpt lat="47.46004" lon="6.74213">
        <ele>415.6</ele>
        <time>2014-05-18T09:35:48.000Z</time>
      </trkpt>
      <trkpt lat="47.4601" lon="6.7421">
        <ele>414.4</ele>
        <time>2014-05-18T09:35:51.000Z</time>
      </trkpt>
      <trkpt lat="47.46013" lon="6.7421">
        <ele>412.7</ele>
        <time>2014-05-18T09:35:52.000Z</time>
      </trkpt>
      <trkpt lat="47.46016" lon="6.7421">
        <ele>412.7</ele>
        <time>2014-05-18T09:35:53.000Z</time>
      </trkpt>
      <trkpt lat="47.4602" lon="6.7421">
        <ele>412.8</ele>
        <time>2014-05-18T09:35:55.000Z</time>
      </trkpt>
      <trkpt lat="47.46022" lon="6.7421">
        <ele>412.1</ele>
        <time>2014-05-18T09:35:56.000Z</time>
      </trkpt>
      <trkpt lat="47.46024" lon="6.7421">
        <ele>408.7</ele>
        <time>2014-05-18T09:35:57.000Z</time>
      </trkpt>
      <trkpt lat="47.46027" lon="6.74211">
        <ele>408.2</ele>
        <time>2014-05-18T09:35:58.000Z</time>
      </trkpt>
      <trkpt lat="47.46029" lon="6.74211">
        <ele>408.4</ele>
        <time>2014-05-18T09:35:59.000Z</time>
      </trkpt>
      <trkpt lat="47.46032" lon="6.74212">
        <ele>409.5</ele>
        <time>2014-05-18T09:36:00.000Z</time>
      </trkpt>
      <trkpt lat="47.46034" lon="6.74213">
        <ele>411.8</ele>
        <time>2014-05-18T09:36:01.000Z</time>
      </trkpt>
      <trkpt lat="47.46037" lon="6.74213">
        <ele>410.9</ele>
        <time>2014-05-18T09:36:02.000Z</time>
      </trkpt>
      <trkpt lat="47.46039" lon="6.74213">
        <ele>412</ele>
        <time>2014-05-18T09:36:03.000Z</time>
      </trkpt>
      <trkpt lat="47.46042" lon="6.74213">
        <ele>412.9</ele>
        <time>2014-05-18T09:36:04.000Z</time>
      </trkpt>
      <trkpt lat="47.46046" lon="6.74212">
        <ele>412.8</ele>
        <time>2014-05-18T09:36:05.000Z</time>
      </trkpt>
      <trkpt lat="47.4605" lon="6.74212">
        <ele>413.5</ele>
        <time>2014-05-18T09:36:06.000Z</time>
      </trkpt>
      <trkpt lat="47.46054" lon="6.74213">
        <ele>414.9</ele>
        <time>2014-05-18T09:36:07.000Z</time>
      </trkpt>
      <trkpt lat="47.46059" lon="6.74215">
        <ele>415.6</ele>
        <time>2014-05-18T09:36:08.000Z</time>
      </trkpt>
      <trkpt lat="47.46064" lon="6.74216">
        <ele>416.2</ele>
        <time>2014-05-18T09:36:09.000Z</time>
      </trkpt>
      <trkpt lat="47.46068" lon="6.74217">
        <ele>417.3</ele>
        <time>2014-05-18T09:36:10.000Z</time>
      </trkpt>
      <trkpt lat="47.46073" lon="6.74217">
        <ele>417.6</ele>
        <time>2014-05-18T09:36:11.000Z</time>
      </trkpt>
      <trkpt lat="47.46076" lon="6.74218">
        <ele>418.2</ele>
        <time>2014-05-18T09:36:12.000Z</time>
      </trkpt>
      <trkpt lat="47.46081" lon="6.74219">
        <ele>420</ele>
        <time>2014-05-18T09:36:13.000Z</time>
      </trkpt>
      <trkpt lat="47.46085" lon="6.74221">
        <ele>420.4</ele>
        <time>2014-05-18T09:36:14.000Z</time>
      </trkpt>
      <trkpt lat="47.46089" lon="6.74222">
        <ele>419.5</ele>
        <time>2014-05-18T09:36:15.000Z</time>
      </trkpt>
      <trkpt lat="47.46094" lon="6.74222">
        <ele>420.4</ele>
        <time>2014-05-18T09:36:16.000Z</time>
      </trkpt>
      <trkpt lat="47.46097" lon="6.74221">
        <ele>419.1</ele>
        <time>2014-05-18T09:36:17.000Z</time>
      </trkpt>
      <trkpt lat="47.461" lon="6.74221">
        <ele>418.4</ele>
        <time>2014-05-18T09:36:18.000Z</time>
      </trkpt>
      <trkpt lat="47.46103" lon="6.74221">
        <ele>417</ele>
        <time>2014-05-18T09:36:19.000Z</time>
      </trkpt>
      <trkpt lat="47.46106" lon="6.74222">
        <ele>415.9</ele>
        <time>2014-05-18T09:36:20.000Z</time>
      </trkpt>
      <trkpt lat="47.46109" lon="6.74223">
        <ele>414.8</ele>
        <time>2014-05-18T09:36:21.000Z</time>
      </trkpt>
      <trkpt lat="47.46111" lon="6.74224">
        <ele>415.1</ele>
        <time>2014-05-18T09:36:22.000Z</time>
      </trkpt>
      <trkpt lat="47.46114" lon="6.74225">
        <ele>413.4</ele>
        <time>2014-05-18T09:36:23.000Z</time>
      </trkpt>
      <trkpt lat="47.46117" lon="6.74227">
        <ele>413.2</ele>
        <time>2014-05-18T09:36:24.000Z</time>
      </trkpt>
      <trkpt lat="47.46121" lon="6.74228">
        <ele>412.4</ele>
        <time>2014-05-18T09:36:25.000Z</time>
      </trkpt>
      <trkpt lat="47.46124" lon="6.74229">
        <ele>411.9</ele>
        <time>2014-05-18T09:36:26.000Z</time>
      </trkpt>
      <trkpt lat="47.46128" lon="6.74229">
        <ele>411.3</ele>
        <time>2014-05-18T09:36:27.000Z</time>
      </trkpt>
      <trkpt lat="47.46132" lon="6.7423">
        <ele>411.1</ele>
        <time>2014-05-18T09:36:28.000Z</time>
      </trkpt>
      <trkpt lat="47.46158" lon="6.74233">
        <ele>415.7</ele>
        <time>2014-05-18T09:36:29.000Z</time>
      </trkpt>
      <trkpt lat="47.46165" lon="6.74232">
        <ele>415.7</ele>
        <time>2014-05-18T09:36:30.000Z</time>
      </trkpt>
      <trkpt lat="47.4617" lon="6.74234">
        <ele>416.8</ele>
        <time>2014-05-18T09:36:31.000Z</time>
      </trkpt>
      <trkpt lat="47.46173" lon="6.74233">
        <ele>416.7</ele>
        <time>2014-05-18T09:36:32.000Z</time>
      </trkpt>
      <trkpt lat="47.46173" lon="6.7424">
        <ele>414.9</ele>
        <time>2014-05-18T09:36:33.000Z</time>
      </trkpt>
      <trkpt lat="47.46177" lon="6.7424">
        <ele>414.9</ele>
        <time>2014-05-18T09:36:34.000Z</time>
      </trkpt>
      <trkpt lat="47.4618" lon="6.74242">
        <ele>414.3</ele>
        <time>2014-05-18T09:36:35.000Z</time>
      </trkpt>
      <trkpt lat="47.46186" lon="6.74245">
        <ele>415.7</ele>
        <time>2014-05-18T09:36:36.000Z</time>
      </trkpt>
      <trkpt lat="47.46193" lon="6.74246">
        <ele>415.9</ele>
        <time>2014-05-18T09:36:37.000Z</time>
      </trkpt>
      <trkpt lat="47.46198" lon="6.74248">
        <ele>417.9</ele>
        <time>2014-05-18T09:36:38.000Z</time>
      </trkpt>
      <trkpt lat="47.46203" lon="6.7425">
        <ele>418.5</ele>
        <time>2014-05-18T09:36:39.000Z</time>
      </trkpt>
      <trkpt lat="47.46207" lon="6.7425">
        <ele>419.6</ele>
        <time>2014-05-18T09:36:40.000Z</time>
      </trkpt>
      <trkpt lat="47.46209" lon="6.74251">
        <ele>419.7</ele>
        <time>2014-05-18T09:36:41.000Z</time>
      </trkpt>
      <trkpt lat="47.46212" lon="6.74252">
        <ele>420</ele>
        <time>2014-05-18T09:36:42.000Z</time>
      </trkpt>
      <trkpt lat="47.46214" lon="6.74253">
        <ele>421.1</ele>
        <time>2014-05-18T09:36:43.000Z</time>
      </trkpt>
      <trkpt lat="47.46216" lon="6.74256">
        <ele>419.4</ele>
        <time>2014-05-18T09:36:44.000Z</time>
      </trkpt>
      <trkpt lat="47.46219" lon="6.74258">
        <ele>418.9</ele>
        <time>2014-05-18T09:36:45.000Z</time>
      </trkpt>
      <trkpt lat="47.46221" lon="6.7426">
        <ele>417.7</ele>
        <time>2014-05-18T09:36:46.000Z</time>
      </trkpt>
      <trkpt lat="47.46225" lon="6.74262">
        <ele>418.5</ele>
        <time>2014-05-18T09:36:47.000Z</time>
      </trkpt>
      <trkpt lat="47.46229" lon="6.74264">
        <ele>419.1</ele>
        <time>2014-05-18T09:36:48.000Z</time>
      </trkpt>
      <trkpt lat="47.46233" lon="6.74266">
        <ele>419.7</ele>
        <time>2014-05-18T09:36:49.000Z</time>
      </trkpt>
      <trkpt lat="47.46241" lon="6.74269">
        <ele>419</ele>
        <time>2014-05-18T09:36:52.000Z</time>
      </trkpt>
      <trkpt lat="47.46244" lon="6.7427">
        <ele>417.9</ele>
        <time>2014-05-18T09:36:53.000Z</time>
      </trkpt>
      <trkpt lat="47.46247" lon="6.74272">
        <ele>418.9</ele>
        <time>2014-05-18T09:36:54.000Z</time>
      </trkpt>
      <trkpt lat="47.4625" lon="6.74274">
        <ele>417.5</ele>
        <time>2014-05-18T09:36:55.000Z</time>
      </trkpt>
      <trkpt lat="47.46254" lon="6.74276">
        <ele>415.3</ele>
        <time>2014-05-18T09:36:56.000Z</time>
      </trkpt>
      <trkpt lat="47.46257" lon="6.74277">
        <ele>415.8</ele>
        <time>2014-05-18T09:36:57.000Z</time>
      </trkpt>
      <trkpt lat="47.46261" lon="6.74278">
        <ele>414.9</ele>
        <time>2014-05-18T09:36:58.000Z</time>
      </trkpt>
      <trkpt lat="47.46264" lon="6.74278">
        <ele>414.2</ele>
        <time>2014-05-18T09:36:59.000Z</time>
      </trkpt>
      <trkpt lat="47.46267" lon="6.74278">
        <ele>414.8</ele>
        <time>2014-05-18T09:37:00.000Z</time>
      </trkpt>
      <trkpt lat="47.4627" lon="6.74278">
        <ele>414.8</ele>
        <time>2014-05-18T09:37:01.000Z</time>
      </trkpt>
      <trkpt lat="47.46273" lon="6.7428">
        <ele>415.2</ele>
        <time>2014-05-18T09:37:02.000Z</time>
      </trkpt>
      <trkpt lat="47.46276" lon="6.74282">
        <ele>413.7</ele>
        <time>2014-05-18T09:37:03.000Z</time>
      </trkpt>
      <trkpt lat="47.46279" lon="6.74286">
        <ele>414.6</ele>
        <time>2014-05-18T09:37:04.000Z</time>
      </trkpt>
      <trkpt lat="47.46281" lon="6.74291">
        <ele>415</ele>
        <time>2014-05-18T09:37:05.000Z</time>
      </trkpt>
      <trkpt lat="47.46284" lon="6.74294">
        <ele>415.1</ele>
        <time>2014-05-18T09:37:06.000Z</time>
      </trkpt>
      <trkpt lat="47.46287" lon="6.74297">
        <ele>415.3</ele>
        <time>2014-05-18T09:37:07.000Z</time>
      </trkpt>
      <trkpt lat="47.4629" lon="6.74298">
        <ele>415.1</ele>
        <time>2014-05-18T09:37:08.000Z</time>
      </trkpt>
      <trkpt lat="47.46293" lon="6.74299">
        <ele>415.6</ele>
        <time>2014-05-18T09:37:09.000Z</time>
      </trkpt>
      <trkpt lat="47.46297" lon="6.743">
        <ele>415.1</ele>
        <time>2014-05-18T09:37:10.000Z</time>
      </trkpt>
      <trkpt lat="47.46301" lon="6.74301">
        <ele>414.3</ele>
        <time>2014-05-18T09:37:11.000Z</time>
      </trkpt>
      <trkpt lat="47.46304" lon="6.74301">
        <ele>413.7</ele>
        <time>2014-05-18T09:37:12.000Z</time>
      </trkpt>
      <trkpt lat="47.46308" lon="6.74302">
        <ele>414</ele>
        <time>2014-05-18T09:37:13.000Z</time>
      </trkpt>
      <trkpt lat="47.4631" lon="6.74303">
        <ele>411.8</ele>
        <time>2014-05-18T09:37:14.000Z</time>
      </trkpt>
      <trkpt lat="47.46314" lon="6.74303">
        <ele>408.9</ele>
        <time>2014-05-18T09:37:15.000Z</time>
      </trkpt>
      <trkpt lat="47.46317" lon="6.74303">
        <ele>408.2</ele>
        <time>2014-05-18T09:37:16.000Z</time>
      </trkpt>
      <trkpt lat="47.46321" lon="6.74304">
        <ele>408.4</ele>
        <time>2014-05-18T09:37:17.000Z</time>
      </trkpt>
      <trkpt lat="47.46325" lon="6.74304">
        <ele>406.7</ele>
        <time>2014-05-18T09:37:18.000Z</time>
      </trkpt>
      <trkpt lat="47.46329" lon="6.74303">
        <ele>401.8</ele>
        <time>2014-05-18T09:37:20.000Z</time>
      </trkpt>
      <trkpt lat="47.4633" lon="6.74303">
        <ele>401.9</ele>
        <time>2014-05-18T09:37:21.000Z</time>
      </trkpt>
      <trkpt lat="47.46334" lon="6.74303">
        <ele>402.5</ele>
        <time>2014-05-18T09:37:24.000Z</time>
      </trkpt>
      <trkpt lat="47.46338" lon="6.74303">
        <ele>402.2</ele>
        <time>2014-05-18T09:37:25.000Z</time>
      </trkpt>
      <trkpt lat="47.46342" lon="6.74304">
        <ele>402.5</ele>
        <time>2014-05-18T09:37:26.000Z</time>
      </trkpt>
      <trkpt lat="47.46347" lon="6.74306">
        <ele>401.6</ele>
        <time>2014-05-18T09:37:27.000Z</time>
      </trkpt>
      <trkpt lat="47.4635" lon="6.74306">
        <ele>401.7</ele>
        <time>2014-05-18T09:37:28.000Z</time>
      </trkpt>
      <trkpt lat="47.46355" lon="6.74311">
        <ele>400.9</ele>
        <time>2014-05-18T09:37:29.000Z</time>
      </trkpt>
      <trkpt lat="47.46359" lon="6.74315">
        <ele>400</ele>
        <time>2014-05-18T09:37:30.000Z</time>
      </trkpt>
      <trkpt lat="47.46363" lon="6.74319">
        <ele>399.3</ele>
        <time>2014-05-18T09:37:31.000Z</time>
      </trkpt>
      <trkpt lat="47.46367" lon="6.74322">
        <ele>398.7</ele>
        <time>2014-05-18T09:37:32.000Z</time>
      </trkpt>
      <trkpt lat="47.4637" lon="6.74326">
        <ele>398.4</ele>
        <time>2014-05-18T09:37:33.000Z</time>
      </trkpt>
      <trkpt lat="47.46374" lon="6.74328">
        <ele>396.8</ele>
        <time>2014-05-18T09:37:34.000Z</time>
      </trkpt>
      <trkpt lat="47.46378" lon="6.74329">
        <ele>397.4</ele>
        <time>2014-05-18T09:37:35.000Z</time>
      </trkpt>
      <trkpt lat="47.46383" lon="6.74331">
        <ele>397.3</ele>
        <time>2014-05-18T09:37:36.000Z</time>
      </trkpt>
      <trkpt lat="47.46388" lon="6.74333">
        <ele>398.7</ele>
        <time>2014-05-18T09:37:37.000Z</time>
      </trkpt>
      <trkpt lat="47.46392" lon="6.74335">
        <ele>398</ele>
        <time>2014-05-18T09:37:38.000Z</time>
      </trkpt>
      <trkpt lat="47.46396" lon="6.74338">
        <ele>397.7</ele>
        <time>2014-05-18T09:37:39.000Z</time>
      </trkpt>
      <trkpt lat="47.464" lon="6.7434">
        <ele>395.5</ele>
        <time>2014-05-18T09:37:40.000Z</time>
      </trkpt>
      <trkpt lat="47.46405" lon="6.74342">
        <ele>394.2</ele>
        <time>2014-05-18T09:37:41.000Z</time>
      </trkpt>
      <trkpt lat="47.46409" lon="6.74343">
        <ele>393.5</ele>
        <time>2014-05-18T09:37:42.000Z</time>
      </trkpt>
      <trkpt lat="47.46414" lon="6.74344">
        <ele>393.8</ele>
        <time>2014-05-18T09:37:43.000Z</time>
      </trkpt>
      <trkpt lat="47.46418" lon="6.74347">
        <ele>393.7</ele>
        <time>2014-05-18T09:37:44.000Z</time>
      </trkpt>
      <trkpt lat="47.46422" lon="6.7435">
        <ele>392.4</ele>
        <time>2014-05-18T09:37:45.000Z</time>
      </trkpt>
      <trkpt lat="47.46425" lon="6.74354">
        <ele>394.8</ele>
        <time>2014-05-18T09:37:46.000Z</time>
      </trkpt>
      <trkpt lat="47.46428" lon="6.74359">
        <ele>394.1</ele>
        <time>2014-05-18T09:37:47.000Z</time>
      </trkpt>
      <trkpt lat="47.46432" lon="6.74364">
        <ele>394.7</ele>
        <time>2014-05-18T09:37:48.000Z</time>
      </trkpt>
      <trkpt lat="47.46442" lon="6.74379">
        <ele>393.9</ele>
        <time>2014-05-18T09:37:51.000Z</time>
      </trkpt>
      <trkpt lat="47.46446" lon="6.74384">
        <ele>393.6</ele>
        <time>2014-05-18T09:37:52.000Z</time>
      </trkpt>
      <trkpt lat="47.46459" lon="6.74396">
        <ele>392.4</ele>
        <time>2014-05-18T09:37:53.000Z</time>
      </trkpt>
      <trkpt lat="47.46466" lon="6.74402">
        <ele>394.4</ele>
        <time>2014-05-18T09:37:54.000Z</time>
      </trkpt>
      <trkpt lat="47.46472" lon="6.74406">
        <ele>394.7</ele>
        <time>2014-05-18T09:37:55.000Z</time>
      </trkpt>
      <trkpt lat="47.46474" lon="6.74412">
        <ele>394.7</ele>
        <time>2014-05-18T09:37:56.000Z</time>
      </trkpt>
      <trkpt lat="47.46478" lon="6.74416">
        <ele>394.8</ele>
        <time>2014-05-18T09:37:57.000Z</time>
      </trkpt>
      <trkpt lat="47.46483" lon="6.74422">
        <ele>394.6</ele>
        <time>2014-05-18T09:37:58.000Z</time>
      </trkpt>
      <trkpt lat="47.46487" lon="6.74426">
        <ele>394.8</ele>
        <time>2014-05-18T09:37:59.000Z</time>
      </trkpt>
      <trkpt lat="47.46491" lon="6.74432">
        <ele>394.3</ele>
        <time>2014-05-18T09:38:00.000Z</time>
      </trkpt>
      <trkpt lat="47.46496" lon="6.74438">
        <ele>394.9</ele>
        <time>2014-05-18T09:38:01.000Z</time>
      </trkpt>
      <trkpt lat="47.46503" lon="6.74446">
        <ele>394.7</ele>
        <time>2014-05-18T09:38:02.000Z</time>
      </trkpt>
      <trkpt lat="47.46508" lon="6.74453">
        <ele>394.2</ele>
        <time>2014-05-18T09:38:03.000Z</time>
      </trkpt>
      <trkpt lat="47.46511" lon="6.74459">
        <ele>393.2</ele>
        <time>2014-05-18T09:38:04.000Z</time>
      </trkpt>
      <trkpt lat="47.46516" lon="6.74469">
        <ele>392.3</ele>
        <time>2014-05-18T09:38:05.000Z</time>
      </trkpt>
      <trkpt lat="47.46521" lon="6.74476">
        <ele>393</ele>
        <time>2014-05-18T09:38:06.000Z</time>
      </trkpt>
      <trkpt lat="47.46524" lon="6.74482">
        <ele>393</ele>
        <time>2014-05-18T09:38:07.000Z</time>
      </trkpt>
      <trkpt lat="47.46526" lon="6.7449">
        <ele>392.8</ele>
        <time>2014-05-18T09:38:08.000Z</time>
      </trkpt>
      <trkpt lat="47.46528" lon="6.74495">
        <ele>392.6</ele>
        <time>2014-05-18T09:38:09.001Z</time>
      </trkpt>
      <trkpt lat="47.4654" lon="6.74506">
        <ele>393.2</ele>
        <time>2014-05-18T09:38:10.000Z</time>
      </trkpt>
      <trkpt lat="47.46545" lon="6.74514">
        <ele>393.3</ele>
        <time>2014-05-18T09:38:11.000Z</time>
      </trkpt>
      <trkpt lat="47.4655" lon="6.74523">
        <ele>392.6</ele>
        <time>2014-05-18T09:38:12.000Z</time>
      </trkpt>
      <trkpt lat="47.46556" lon="6.74529">
        <ele>392.6</ele>
        <time>2014-05-18T09:38:13.000Z</time>
      </trkpt>
      <trkpt lat="47.46561" lon="6.74536">
        <ele>394.2</ele>
        <time>2014-05-18T09:38:14.000Z</time>
      </trkpt>
      <trkpt lat="47.46566" lon="6.74542">
        <ele>394.2</ele>
        <time>2014-05-18T09:38:15.000Z</time>
      </trkpt>
      <trkpt lat="47.46573" lon="6.74547">
        <ele>394.7</ele>
        <time>2014-05-18T09:38:16.000Z</time>
      </trkpt>
      <trkpt lat="47.46578" lon="6.74557">
        <ele>396.1</ele>
        <time>2014-05-18T09:38:17.000Z</time>
      </trkpt>
      <trkpt lat="47.46584" lon="6.74566">
        <ele>395.5</ele>
        <time>2014-05-18T09:38:18.000Z</time>
      </trkpt>
      <trkpt lat="47.46588" lon="6.74573">
        <ele>394.8</ele>
        <time>2014-05-18T09:38:19.000Z</time>
      </trkpt>
      <trkpt lat="47.46595" lon="6.74582">
        <ele>394.7</ele>
        <time>2014-05-18T09:38:20.000Z</time>
      </trkpt>
      <trkpt lat="47.466" lon="6.74588">
        <ele>395.9</ele>
        <time>2014-05-18T09:38:21.000Z</time>
      </trkpt>
      <trkpt lat="47.46604" lon="6.74594">
        <ele>394.8</ele>
        <time>2014-05-18T09:38:22.000Z</time>
      </trkpt>
      <trkpt lat="47.46608" lon="6.746">
        <ele>394.5</ele>
        <time>2014-05-18T09:38:23.000Z</time>
      </trkpt>
      <trkpt lat="47.46615" lon="6.74609">
        <ele>393.1</ele>
        <time>2014-05-18T09:38:24.000Z</time>
      </trkpt>
      <trkpt lat="47.4662" lon="6.74615">
        <ele>390.6</ele>
        <time>2014-05-18T09:38:25.000Z</time>
      </trkpt>
      <trkpt lat="47.46625" lon="6.74623">
        <ele>389.5</ele>
        <time>2014-05-18T09:38:26.000Z</time>
      </trkpt>
      <trkpt lat="47.46629" lon="6.74631">
        <ele>389.4</ele>
        <time>2014-05-18T09:38:27.000Z</time>
      </trkpt>
      <trkpt lat="47.46632" lon="6.7464">
        <ele>387.9</ele>
        <time>2014-05-18T09:38:28.000Z</time>
      </trkpt>
      <trkpt lat="47.46636" lon="6.74646">
        <ele>386.2</ele>
        <time>2014-05-18T09:38:29.000Z</time>
      </trkpt>
      <trkpt lat="47.4664" lon="6.74652">
        <ele>383.5</ele>
        <time>2014-05-18T09:38:30.000Z</time>
      </trkpt>
      <trkpt lat="47.46644" lon="6.74657">
        <ele>382.9</ele>
        <time>2014-05-18T09:38:31.000Z</time>
      </trkpt>
      <trkpt lat="47.46648" lon="6.74665">
        <ele>382</ele>
        <time>2014-05-18T09:38:32.000Z</time>
      </trkpt>
      <trkpt lat="47.46656" lon="6.74668">
        <ele>381.8</ele>
        <time>2014-05-18T09:38:33.000Z</time>
      </trkpt>
      <trkpt lat="47.46657" lon="6.74676">
        <ele>380.1</ele>
        <time>2014-05-18T09:38:34.000Z</time>
      </trkpt>
      <trkpt lat="47.46666" lon="6.74682">
        <ele>377.3</ele>
        <time>2014-05-18T09:38:35.000Z</time>
      </trkpt>
      <trkpt lat="47.46675" lon="6.74684">
        <ele>373.7</ele>
        <time>2014-05-18T09:38:36.000Z</time>
      </trkpt>
      <trkpt lat="47.46678" lon="6.74684">
        <ele>371.1</ele>
        <time>2014-05-18T09:38:37.000Z</time>
      </trkpt>
      <trkpt lat="47.46678" lon="6.7469">
        <ele>371.9</ele>
        <time>2014-05-18T09:38:38.000Z</time>
      </trkpt>
      <trkpt lat="47.4668" lon="6.74695">
        <ele>373.5</ele>
        <time>2014-05-18T09:38:39.000Z</time>
      </trkpt>
      <trkpt lat="47.46681" lon="6.74697">
        <ele>374.1</ele>
        <time>2014-05-18T09:38:40.000Z</time>
      </trkpt>
      <trkpt lat="47.46677" lon="6.74702">
        <ele>372.4</ele>
        <time>2014-05-18T09:38:41.000Z</time>
      </trkpt>
      <trkpt lat="47.4668" lon="6.74705">
        <ele>372.2</ele>
        <time>2014-05-18T09:38:42.000Z</time>
      </trkpt>
      <trkpt lat="47.46684" lon="6.74705">
        <ele>372.8</ele>
        <time>2014-05-18T09:38:43.000Z</time>
      </trkpt>
      <trkpt lat="47.46689" lon="6.74701">
        <ele>373.3</ele>
        <time>2014-05-18T09:38:44.000Z</time>
      </trkpt>
      <trkpt lat="47.46692" lon="6.74704">
        <ele>374.2</ele>
        <time>2014-05-18T09:38:46.000Z</time>
      </trkpt>
      <trkpt lat="47.46694" lon="6.74704">
        <ele>373.9</ele>
        <time>2014-05-18T09:38:47.000Z</time>
      </trkpt>
      <trkpt lat="47.46695" lon="6.74704">
        <ele>373.2</ele>
        <time>2014-05-18T09:38:48.000Z</time>
      </trkpt>
      <trkpt lat="47.46699" lon="6.74704">
        <ele>374.3</ele>
        <time>2014-05-18T09:38:51.000Z</time>
      </trkpt>
      <trkpt lat="47.46702" lon="6.74708">
        <ele>362.3</ele>
        <time>2014-05-18T09:39:00.000Z</time>
      </trkpt>
      <trkpt lat="47.46702" lon="6.74709">
        <ele>361.4</ele>
        <time>2014-05-18T09:39:01.000Z</time>
      </trkpt>
      <trkpt lat="47.46705" lon="6.74707">
        <ele>357.4</ele>
        <time>2014-05-18T09:39:29.000Z</time>
      </trkpt>
      <trkpt lat="47.46709" lon="6.74707">
        <ele>356.4</ele>
        <time>2014-05-18T09:39:30.000Z</time>
      </trkpt>
      <trkpt lat="47.46713" lon="6.74707">
        <ele>353.9</ele>
        <time>2014-05-18T09:39:31.000Z</time>
      </trkpt>
      <trkpt lat="47.46718" lon="6.74707">
        <ele>353.6</ele>
        <time>2014-05-18T09:39:32.000Z</time>
      </trkpt>
      <trkpt lat="47.4673" lon="6.74703">
        <ele>352.4</ele>
        <time>2014-05-18T09:39:33.000Z</time>
      </trkpt>
      <trkpt lat="47.46736" lon="6.74698">
        <ele>350.9</ele>
        <time>2014-05-18T09:39:34.000Z</time>
      </trkpt>
      <trkpt lat="47.46738" lon="6.74695">
        <ele>349.2</ele>
        <time>2014-05-18T09:39:35.000Z</time>
      </trkpt>
      <trkpt lat="47.46743" lon="6.74691">
        <ele>347.9</ele>
        <time>2014-05-18T09:39:36.000Z</time>
      </trkpt>
      <trkpt lat="47.46746" lon="6.74686">
        <ele>346.8</ele>
        <time>2014-05-18T09:39:37.000Z</time>
      </trkpt>
      <trkpt lat="47.46752" lon="6.7468">
        <ele>346.2</ele>
        <time>2014-05-18T09:39:38.000Z</time>
      </trkpt>
      <trkpt lat="47.46756" lon="6.74676">
        <ele>345.8</ele>
        <time>2014-05-18T09:39:39.000Z</time>
      </trkpt>
      <trkpt lat="47.4676" lon="6.7467">
        <ele>344.5</ele>
        <time>2014-05-18T09:39:40.000Z</time>
      </trkpt>
      <trkpt lat="47.46765" lon="6.74666">
        <ele>344.6</ele>
        <time>2014-05-18T09:39:41.000Z</time>
      </trkpt>
      <trkpt lat="47.46771" lon="6.74662">
        <ele>345.2</ele>
        <time>2014-05-18T09:39:42.000Z</time>
      </trkpt>
      <trkpt lat="47.46776" lon="6.7466">
        <ele>345.6</ele>
        <time>2014-05-18T09:39:43.000Z</time>
      </trkpt>
      <trkpt lat="47.46782" lon="6.74658">
        <ele>344.6</ele>
        <time>2014-05-18T09:39:44.000Z</time>
      </trkpt>
      <trkpt lat="47.46788" lon="6.74656">
        <ele>345.6</ele>
        <time>2014-05-18T09:39:45.000Z</time>
      </trkpt>
      <trkpt lat="47.46793" lon="6.74654">
        <ele>346.4</ele>
        <time>2014-05-18T09:39:46.000Z</time>
      </trkpt>
      <trkpt lat="47.46799" lon="6.74653">
        <ele>346.9</ele>
        <time>2014-05-18T09:39:47.000Z</time>
      </trkpt>
      <trkpt lat="47.46805" lon="6.7465">
        <ele>347.5</ele>
        <time>2014-05-18T09:39:48.000Z</time>
      </trkpt>
      <trkpt lat="47.46811" lon="6.74646">
        <ele>347.1</ele>
        <time>2014-05-18T09:39:49.000Z</time>
      </trkpt>
      <trkpt lat="47.46851" lon="6.74612">
        <ele>343.2</ele>
        <time>2014-05-18T09:39:57.000Z</time>
      </trkpt>
      <trkpt lat="47.46856" lon="6.74608">
        <ele>344.7</ele>
        <time>2014-05-18T09:39:58.000Z</time>
      </trkpt>
      <trkpt lat="47.46863" lon="6.746">
        <ele>345.3</ele>
        <time>2014-05-18T09:39:59.000Z</time>
      </trkpt>
      <trkpt lat="47.46866" lon="6.74596">
        <ele>347</ele>
        <time>2014-05-18T09:40:00.000Z</time>
      </trkpt>
      <trkpt lat="47.4687" lon="6.74596">
        <ele>347.3</ele>
        <time>2014-05-18T09:40:01.000Z</time>
      </trkpt>
      <trkpt lat="47.46874" lon="6.74593">
        <ele>347.4</ele>
        <time>2014-05-18T09:40:02.000Z</time>
      </trkpt>
      <trkpt lat="47.46879" lon="6.74592">
        <ele>348.6</ele>
        <time>2014-05-18T09:40:03.000Z</time>
      </trkpt>
      <trkpt lat="47.46885" lon="6.74591">
        <ele>348.8</ele>
        <time>2014-05-18T09:40:04.000Z</time>
      </trkpt>
      <trkpt lat="47.46891" lon="6.7459">
        <ele>349.4</ele>
        <time>2014-05-18T09:40:05.000Z</time>
      </trkpt>
      <trkpt lat="47.46894" lon="6.74589">
        <ele>349.3</ele>
        <time>2014-05-18T09:40:06.000Z</time>
      </trkpt>
      <trkpt lat="47.46901" lon="6.74588">
        <ele>349.7</ele>
        <time>2014-05-18T09:40:07.000Z</time>
      </trkpt>
      <trkpt lat="47.46905" lon="6.74585">
        <ele>349.5</ele>
        <time>2014-05-18T09:40:08.000Z</time>
      </trkpt>
      <trkpt lat="47.46907" lon="6.74583">
        <ele>350.2</ele>
        <time>2014-05-18T09:40:09.000Z</time>
      </trkpt>
      <trkpt lat="47.46912" lon="6.74581">
        <ele>350.2</ele>
        <time>2014-05-18T09:40:10.000Z</time>
      </trkpt>
      <trkpt lat="47.46915" lon="6.74579">
        <ele>350.5</ele>
        <time>2014-05-18T09:40:11.000Z</time>
      </trkpt>
      <trkpt lat="47.46919" lon="6.74577">
        <ele>350.6</ele>
        <time>2014-05-18T09:40:12.000Z</time>
      </trkpt>
      <trkpt lat="47.46923" lon="6.74576">
        <ele>350.7</ele>
        <time>2014-05-18T09:40:13.000Z</time>
      </trkpt>
      <trkpt lat="47.46927" lon="6.74573">
        <ele>351</ele>
        <time>2014-05-18T09:40:14.000Z</time>
      </trkpt>
      <trkpt lat="47.46933" lon="6.74571">
        <ele>350.7</ele>
        <time>2014-05-18T09:40:15.000Z</time>
      </trkpt>
      <trkpt lat="47.46938" lon="6.74569">
        <ele>350.4</ele>
        <time>2014-05-18T09:40:16.000Z</time>
      </trkpt>
      <trkpt lat="47.46942" lon="6.74568">
        <ele>350.4</ele>
        <time>2014-05-18T09:40:17.000Z</time>
      </trkpt>
      <trkpt lat="47.46949" lon="6.74569">
        <ele>351.3</ele>
        <time>2014-05-18T09:40:18.000Z</time>
      </trkpt>
      <trkpt lat="47.46954" lon="6.74569">
        <ele>352</ele>
        <time>2014-05-18T09:40:19.000Z</time>
      </trkpt>
      <trkpt lat="47.46959" lon="6.74568">
        <ele>351.9</ele>
        <time>2014-05-18T09:40:20.000Z</time>
      </trkpt>
      <trkpt lat="47.46964" lon="6.74568">
        <ele>351.8</ele>
        <time>2014-05-18T09:40:21.000Z</time>
      </trkpt>
      <trkpt lat="47.46969" lon="6.74567">
        <ele>351.2</ele>
        <time>2014-05-18T09:40:22.000Z</time>
      </trkpt>
      <trkpt lat="47.46974" lon="6.74567">
        <ele>351.1</ele>
        <time>2014-05-18T09:40:23.000Z</time>
      </trkpt>
      <trkpt lat="47.46978" lon="6.74568">
        <ele>350.9</ele>
        <time>2014-05-18T09:40:24.000Z</time>
      </trkpt>
      <trkpt lat="47.46983" lon="6.74568">
        <ele>350.3</ele>
        <time>2014-05-18T09:40:25.000Z</time>
      </trkpt>
      <trkpt lat="47.46988" lon="6.74569">
        <ele>349.6</ele>
        <time>2014-05-18T09:40:26.000Z</time>
      </trkpt>
      <trkpt lat="47.46993" lon="6.74569">
        <ele>349.5</ele>
        <time>2014-05-18T09:40:27.000Z</time>
      </trkpt>
      <trkpt lat="47.46999" lon="6.7457">
        <ele>349.1</ele>
        <time>2014-05-18T09:40:28.000Z</time>
      </trkpt>
      <trkpt lat="47.47003" lon="6.7457">
        <ele>348.2</ele>
        <time>2014-05-18T09:40:29.000Z</time>
      </trkpt>
      <trkpt lat="47.47007" lon="6.7457">
        <ele>347.5</ele>
        <time>2014-05-18T09:40:30.000Z</time>
      </trkpt>
      <trkpt lat="47.47012" lon="6.74569">
        <ele>347.4</ele>
        <time>2014-05-18T09:40:31.000Z</time>
      </trkpt>
      <trkpt lat="47.47017" lon="6.74568">
        <ele>346.5</ele>
        <time>2014-05-18T09:40:32.000Z</time>
      </trkpt>
      <trkpt lat="47.47023" lon="6.74568">
        <ele>345.9</ele>
        <time>2014-05-18T09:40:33.000Z</time>
      </trkpt>
      <trkpt lat="47.47029" lon="6.74568">
        <ele>346.3</ele>
        <time>2014-05-18T09:40:34.000Z</time>
      </trkpt>
      <trkpt lat="47.47035" lon="6.74569">
        <ele>346.1</ele>
        <time>2014-05-18T09:40:35.000Z</time>
      </trkpt>
      <trkpt lat="47.4704" lon="6.74572">
        <ele>346.5</ele>
        <time>2014-05-18T09:40:36.000Z</time>
      </trkpt>
      <trkpt lat="47.47041" lon="6.74578">
        <ele>346.9</ele>
        <time>2014-05-18T09:40:37.000Z</time>
      </trkpt>
      <trkpt lat="47.4704" lon="6.74584">
        <ele>347.5</ele>
        <time>2014-05-18T09:40:38.000Z</time>
      </trkpt>
      <trkpt lat="47.47038" lon="6.74589">
        <ele>347.3</ele>
        <time>2014-05-18T09:40:39.000Z</time>
      </trkpt>
      <trkpt lat="47.47034" lon="6.74595">
        <ele>347.2</ele>
        <time>2014-05-18T09:40:40.000Z</time>
      </trkpt>
      <trkpt lat="47.47031" lon="6.74601">
        <ele>346.7</ele>
        <time>2014-05-18T09:40:41.000Z</time>
      </trkpt>
      <trkpt lat="47.47027" lon="6.74608">
        <ele>347.1</ele>
        <time>2014-05-18T09:40:42.000Z</time>
      </trkpt>
      <trkpt lat="47.47024" lon="6.74615">
        <ele>347.6</ele>
        <time>2014-05-18T09:40:43.000Z</time>
      </trkpt>
      <trkpt lat="47.47023" lon="6.74621">
        <ele>347.4</ele>
        <time>2014-05-18T09:40:44.000Z</time>
      </trkpt>
      <trkpt lat="47.47021" lon="6.74627">
        <ele>347.2</ele>
        <time>2014-05-18T09:40:45.000Z</time>
      </trkpt>
      <trkpt lat="47.47018" lon="6.74634">
        <ele>347.5</ele>
        <time>2014-05-18T09:40:46.000Z</time>
      </trkpt>
      <trkpt lat="47.47016" lon="6.74642">
        <ele>346.2</ele>
        <time>2014-05-18T09:40:47.000Z</time>
      </trkpt>
      <trkpt lat="47.47012" lon="6.7465">
        <ele>346.2</ele>
        <time>2014-05-18T09:40:48.000Z</time>
      </trkpt>
      <trkpt lat="47.47011" lon="6.74659">
        <ele>345.6</ele>
        <time>2014-05-18T09:40:49.000Z</time>
      </trkpt>
      <trkpt lat="47.46993" lon="6.74741">
        <ele>342.6</ele>
        <time>2014-05-18T09:40:57.000Z</time>
      </trkpt>
      <trkpt lat="47.46993" lon="6.74752">
        <ele>341.9</ele>
        <time>2014-05-18T09:40:58.000Z</time>
      </trkpt>
      <trkpt lat="47.46993" lon="6.74764">
        <ele>342.3</ele>
        <time>2014-05-18T09:40:59.000Z</time>
      </trkpt>
      <trkpt lat="47.46994" lon="6.74776">
        <ele>341.8</ele>
        <time>2014-05-18T09:41:00.000Z</time>
      </trkpt>
      <trkpt lat="47.46994" lon="6.74786">
        <ele>341.1</ele>
        <time>2014-05-18T09:41:01.000Z</time>
      </trkpt>
      <trkpt lat="47.46994" lon="6.74796">
        <ele>340.4</ele>
        <time>2014-05-18T09:41:02.000Z</time>
      </trkpt>
      <trkpt lat="47.46994" lon="6.74806">
        <ele>339.6</ele>
        <time>2014-05-18T09:41:03.000Z</time>
      </trkpt>
      <trkpt lat="47.46994" lon="6.74815">
        <ele>340.2</ele>
        <time>2014-05-18T09:41:04.000Z</time>
      </trkpt>
      <trkpt lat="47.46995" lon="6.74826">
        <ele>340.1</ele>
        <time>2014-05-18T09:41:05.000Z</time>
      </trkpt>
      <trkpt lat="47.46995" lon="6.74836">
        <ele>340.8</ele>
        <time>2014-05-18T09:41:06.000Z</time>
      </trkpt>
      <trkpt lat="47.46995" lon="6.74847">
        <ele>340.4</ele>
        <time>2014-05-18T09:41:07.000Z</time>
      </trkpt>
      <trkpt lat="47.46995" lon="6.74857">
        <ele>340.2</ele>
        <time>2014-05-18T09:41:08.000Z</time>
      </trkpt>
      <trkpt lat="47.46995" lon="6.74867">
        <ele>339.4</ele>
        <time>2014-05-18T09:41:09.000Z</time>
      </trkpt>
      <trkpt lat="47.46994" lon="6.74878">
        <ele>339.9</ele>
        <time>2014-05-18T09:41:10.000Z</time>
      </trkpt>
      <trkpt lat="47.46995" lon="6.74887">
        <ele>339.4</ele>
        <time>2014-05-18T09:41:11.000Z</time>
      </trkpt>
      <trkpt lat="47.46996" lon="6.74897">
        <ele>338.5</ele>
        <time>2014-05-18T09:41:12.000Z</time>
      </trkpt>
      <trkpt lat="47.46996" lon="6.74906">
        <ele>339.3</ele>
        <time>2014-05-18T09:41:13.000Z</time>
      </trkpt>
      <trkpt lat="47.46997" lon="6.74916">
        <ele>339</ele>
        <time>2014-05-18T09:41:14.000Z</time>
      </trkpt>
      <trkpt lat="47.46996" lon="6.74925">
        <ele>339</ele>
        <time>2014-05-18T09:41:15.000Z</time>
      </trkpt>
      <trkpt lat="47.46997" lon="6.74934">
        <ele>338.5</ele>
        <time>2014-05-18T09:41:16.000Z</time>
      </trkpt>
      <trkpt lat="47.46997" lon="6.74943">
        <ele>338.5</ele>
        <time>2014-05-18T09:41:17.000Z</time>
      </trkpt>
      <trkpt lat="47.46997" lon="6.74952">
        <ele>337.8</ele>
        <time>2014-05-18T09:41:18.000Z</time>
      </trkpt>
      <trkpt lat="47.46997" lon="6.74961">
        <ele>338.1</ele>
        <time>2014-05-18T09:41:19.000Z</time>
      </trkpt>
      <trkpt lat="47.46997" lon="6.7497">
        <ele>337.4</ele>
        <time>2014-05-18T09:41:20.000Z</time>
      </trkpt>
      <trkpt lat="47.46997" lon="6.74978">
        <ele>337.8</ele>
        <time>2014-05-18T09:41:21.000Z</time>
      </trkpt>
      <trkpt lat="47.46996" lon="6.74987">
        <ele>337.8</ele>
        <time>2014-05-18T09:41:22.000Z</time>
      </trkpt>
      <trkpt lat="47.46996" lon="6.74995">
        <ele>337.9</ele>
        <time>2014-05-18T09:41:23.000Z</time>
      </trkpt>
      <trkpt lat="47.46996" lon="6.75002">
        <ele>338.8</ele>
        <time>2014-05-18T09:41:24.000Z</time>
      </trkpt>
      <trkpt lat="47.46996" lon="6.7501">
        <ele>339.1</ele>
        <time>2014-05-18T09:41:25.000Z</time>
      </trkpt>
      <trkpt lat="47.46997" lon="6.75018">
        <ele>339.4</ele>
        <time>2014-05-18T09:41:26.000Z</time>
      </trkpt>
      <trkpt lat="47.46997" lon="6.75025">
        <ele>339</ele>
        <time>2014-05-18T09:41:27.000Z</time>
      </trkpt>
      <trkpt lat="47.46999" lon="6.75033">
        <ele>338.4</ele>
        <time>2014-05-18T09:41:28.000Z</time>
      </trkpt>
      <trkpt lat="47.46999" lon="6.75042">
        <ele>338.2</ele>
        <time>2014-05-18T09:41:29.000Z</time>
      </trkpt>
      <trkpt lat="47.47" lon="6.7505">
        <ele>338.1</ele>
        <time>2014-05-18T09:41:30.000Z</time>
      </trkpt>
      <trkpt lat="47.47001" lon="6.75058">
        <ele>338.9</ele>
        <time>2014-05-18T09:41:31.000Z</time>
      </trkpt>
      <trkpt lat="47.47003" lon="6.75064">
        <ele>340.1</ele>
        <time>2014-05-18T09:41:32.000Z</time>
      </trkpt>
      <trkpt lat="47.47004" lon="6.75071">
        <ele>339.3</ele>
        <time>2014-05-18T09:41:33.000Z</time>
      </trkpt>
      <trkpt lat="47.47005" lon="6.75078">
        <ele>339.1</ele>
        <time>2014-05-18T09:41:34.000Z</time>
      </trkpt>
      <trkpt lat="47.47006" lon="6.75086">
        <ele>339.5</ele>
        <time>2014-05-18T09:41:35.000Z</time>
      </trkpt>
      <trkpt lat="47.47007" lon="6.75092">
        <ele>340.1</ele>
        <time>2014-05-18T09:41:36.000Z</time>
      </trkpt>
      <trkpt lat="47.47008" lon="6.75099">
        <ele>340</ele>
        <time>2014-05-18T09:41:37.000Z</time>
      </trkpt>
      <trkpt lat="47.47009" lon="6.75107">
        <ele>340.2</ele>
        <time>2014-05-18T09:41:38.000Z</time>
      </trkpt>
      <trkpt lat="47.4701" lon="6.75114">
        <ele>339.7</ele>
        <time>2014-05-18T09:41:39.000Z</time>
      </trkpt>
      <trkpt lat="47.47012" lon="6.75121">
        <ele>339.5</ele>
        <time>2014-05-18T09:41:40.000Z</time>
      </trkpt>
      <trkpt lat="47.47013" lon="6.75127">
        <ele>339.6</ele>
        <time>2014-05-18T09:41:41.000Z</time>
      </trkpt>
      <trkpt lat="47.47014" lon="6.75135">
        <ele>339</ele>
        <time>2014-05-18T09:41:42.000Z</time>
      </trkpt>
      <trkpt lat="47.47016" lon="6.75141">
        <ele>339</ele>
        <time>2014-05-18T09:41:43.000Z</time>
      </trkpt>
      <trkpt lat="47.47017" lon="6.75147">
        <ele>339.3</ele>
        <time>2014-05-18T09:41:44.000Z</time>
      </trkpt>
      <trkpt lat="47.47019" lon="6.75154">
        <ele>338.5</ele>
        <time>2014-05-18T09:41:45.000Z</time>
      </trkpt>
      <trkpt lat="47.4702" lon="6.7516">
        <ele>338.8</ele>
        <time>2014-05-18T09:41:46.000Z</time>
      </trkpt>
      <trkpt lat="47.47022" lon="6.75167">
        <ele>338.1</ele>
        <time>2014-05-18T09:41:47.000Z</time>
      </trkpt>
      <trkpt lat="47.47023" lon="6.75173">
        <ele>338.2</ele>
        <time>2014-05-18T09:41:48.000Z</time>
      </trkpt>
      <trkpt lat="47.47026" lon="6.7518">
        <ele>338.9</ele>
        <time>2014-05-18T09:41:49.000Z</time>
      </trkpt>
      <trkpt lat="47.47039" lon="6.75237">
        <ele>337.3</ele>
        <time>2014-05-18T09:41:57.000Z</time>
      </trkpt>
      <trkpt lat="47.47041" lon="6.75245">
        <ele>336.9</ele>
        <time>2014-05-18T09:41:58.000Z</time>
      </trkpt>
      <trkpt lat="47.47041" lon="6.75254">
        <ele>335.3</ele>
        <time>2014-05-18T09:41:59.000Z</time>
      </trkpt>
      <trkpt lat="47.47043" lon="6.75262">
        <ele>334.6</ele>
        <time>2014-05-18T09:42:00.000Z</time>
      </trkpt>
      <trkpt lat="47.47044" lon="6.75271">
        <ele>334.7</ele>
        <time>2014-05-18T09:42:01.000Z</time>
      </trkpt>
      <trkpt lat="47.47045" lon="6.75281">
        <ele>333.9</ele>
        <time>2014-05-18T09:42:02.000Z</time>
      </trkpt>
      <trkpt lat="47.47047" lon="6.7529">
        <ele>332.3</ele>
        <time>2014-05-18T09:42:03.000Z</time>
      </trkpt>
      <trkpt lat="47.47048" lon="6.753">
        <ele>332.2</ele>
        <time>2014-05-18T09:42:04.000Z</time>
      </trkpt>
      <trkpt lat="47.47049" lon="6.75309">
        <ele>333.1</ele>
        <time>2014-05-18T09:42:05.000Z</time>
      </trkpt>
      <trkpt lat="47.4705" lon="6.75319">
        <ele>332.6</ele>
        <time>2014-05-18T09:42:06.000Z</time>
      </trkpt>
      <trkpt lat="47.47051" lon="6.7533">
        <ele>332.1</ele>
        <time>2014-05-18T09:42:07.000Z</time>
      </trkpt>
      <trkpt lat="47.47051" lon="6.7534">
        <ele>331.8</ele>
        <time>2014-05-18T09:42:08.000Z</time>
      </trkpt>
      <trkpt lat="47.4705" lon="6.7535">
        <ele>331.6</ele>
        <time>2014-05-18T09:42:09.000Z</time>
      </trkpt>
      <trkpt lat="47.47051" lon="6.7536">
        <ele>332</ele>
        <time>2014-05-18T09:42:10.000Z</time>
      </trkpt>
      <trkpt lat="47.4705" lon="6.75371">
        <ele>330.4</ele>
        <time>2014-05-18T09:42:11.000Z</time>
      </trkpt>
      <trkpt lat="47.4705" lon="6.75382">
        <ele>329.6</ele>
        <time>2014-05-18T09:42:12.000Z</time>
      </trkpt>
      <trkpt lat="47.4705" lon="6.75392">
        <ele>329.9</ele>
        <time>2014-05-18T09:42:13.000Z</time>
      </trkpt>
      <trkpt lat="47.47051" lon="6.75402">
        <ele>330.7</ele>
        <time>2014-05-18T09:42:14.000Z</time>
      </trkpt>
      <trkpt lat="47.47051" lon="6.75413">
        <ele>331.3</ele>
        <time>2014-05-18T09:42:15.000Z</time>
      </trkpt>
      <trkpt lat="47.47052" lon="6.7542">
        <ele>332.5</ele>
        <time>2014-05-18T09:42:16.000Z</time>
      </trkpt>
      <trkpt lat="47.47053" lon="6.75428">
        <ele>333.4</ele>
        <time>2014-05-18T09:42:17.000Z</time>
      </trkpt>
      <trkpt lat="47.47053" lon="6.75437">
        <ele>333.4</ele>
        <time>2014-05-18T09:42:18.000Z</time>
      </trkpt>
      <trkpt lat="47.47053" lon="6.75444">
        <ele>334.1</ele>
        <time>2014-05-18T09:42:19.000Z</time>
      </trkpt>
      <trkpt lat="47.47054" lon="6.75451">
        <ele>334.5</ele>
        <time>2014-05-18T09:42:20.000Z</time>
      </trkpt>
      <trkpt lat="47.47054" lon="6.75457">
        <ele>334.8</ele>
        <time>2014-05-18T09:42:21.000Z</time>
      </trkpt>
      <trkpt lat="47.47055" lon="6.75465">
        <ele>334.5</ele>
        <time>2014-05-18T09:42:22.000Z</time>
      </trkpt>
      <trkpt lat="47.47054" lon="6.75473">
        <ele>334.3</ele>
        <time>2014-05-18T09:42:23.000Z</time>
      </trkpt>
      <trkpt lat="47.47055" lon="6.75483">
        <ele>335.9</ele>
        <time>2014-05-18T09:42:24.000Z</time>
      </trkpt>
      <trkpt lat="47.47056" lon="6.7549">
        <ele>335.8</ele>
        <time>2014-05-18T09:42:25.000Z</time>
      </trkpt>
      <trkpt lat="47.47057" lon="6.75498">
        <ele>337</ele>
        <time>2014-05-18T09:42:26.000Z</time>
      </trkpt>
      <trkpt lat="47.47057" lon="6.75505">
        <ele>338.3</ele>
        <time>2014-05-18T09:42:27.000Z</time>
      </trkpt>
      <trkpt lat="47.47058" lon="6.75512">
        <ele>339.3</ele>
        <time>2014-05-18T09:42:28.000Z</time>
      </trkpt>
      <trkpt lat="47.47059" lon="6.75519">
        <ele>338.8</ele>
        <time>2014-05-18T09:42:29.000Z</time>
      </trkpt>
      <trkpt lat="47.4706" lon="6.75526">
        <ele>339.6</ele>
        <time>2014-05-18T09:42:30.000Z</time>
      </trkpt>
      <trkpt lat="47.4706" lon="6.75532">
        <ele>338.2</ele>
        <time>2014-05-18T09:42:31.000Z</time>
      </trkpt>
      <trkpt lat="47.4706" lon="6.75539">
        <ele>338.6</ele>
        <time>2014-05-18T09:42:32.000Z</time>
      </trkpt>
      <trkpt lat="47.47061" lon="6.75547">
        <ele>339</ele>
        <time>2014-05-18T09:42:33.000Z</time>
      </trkpt>
      <trkpt lat="47.47061" lon="6.75555">
        <ele>339</ele>
        <time>2014-05-18T09:42:34.000Z</time>
      </trkpt>
      <trkpt lat="47.4706" lon="6.75562">
        <ele>338.8</ele>
        <time>2014-05-18T09:42:35.000Z</time>
      </trkpt>
      <trkpt lat="47.4706" lon="6.7557">
        <ele>339</ele>
        <time>2014-05-18T09:42:36.000Z</time>
      </trkpt>
      <trkpt lat="47.47061" lon="6.75577">
        <ele>339.5</ele>
        <time>2014-05-18T09:42:37.000Z</time>
      </trkpt>
      <trkpt lat="47.47062" lon="6.75584">
        <ele>340.5</ele>
        <time>2014-05-18T09:42:38.000Z</time>
      </trkpt>
      <trkpt lat="47.47062" lon="6.7559">
        <ele>340.8</ele>
        <time>2014-05-18T09:42:39.000Z</time>
      </trkpt>
      <trkpt lat="47.47062" lon="6.75597">
        <ele>339.9</ele>
        <time>2014-05-18T09:42:40.000Z</time>
      </trkpt>
      <trkpt lat="47.47062" lon="6.75605">
        <ele>339.9</ele>
        <time>2014-05-18T09:42:41.000Z</time>
      </trkpt>
      <trkpt lat="47.47062" lon="6.75613">
        <ele>340</ele>
        <time>2014-05-18T09:42:42.000Z</time>
      </trkpt>
      <trkpt lat="47.47061" lon="6.7562">
        <ele>339.7</ele>
        <time>2014-05-18T09:42:43.000Z</time>
      </trkpt>
      <trkpt lat="47.47062" lon="6.75627">
        <ele>339.9</ele>
        <time>2014-05-18T09:42:44.000Z</time>
      </trkpt>
      <trkpt lat="47.47063" lon="6.75633">
        <ele>340.4</ele>
        <time>2014-05-18T09:42:45.000Z</time>
      </trkpt>
      <trkpt lat="47.47064" lon="6.75639">
        <ele>340.4</ele>
        <time>2014-05-18T09:42:46.000Z</time>
      </trkpt>
      <trkpt lat="47.47064" lon="6.75647">
        <ele>341.2</ele>
        <time>2014-05-18T09:42:47.000Z</time>
      </trkpt>
      <trkpt lat="47.47064" lon="6.75654">
        <ele>341.4</ele>
        <time>2014-05-18T09:42:48.000Z</time>
      </trkpt>
      <trkpt lat="47.47066" lon="6.75674">
        <ele>341.6</ele>
        <time>2014-05-18T09:42:51.000Z</time>
      </trkpt>
      <trkpt lat="47.47067" lon="6.7568">
        <ele>340.8</ele>
        <time>2014-05-18T09:42:52.000Z</time>
      </trkpt>
      <trkpt lat="47.47069" lon="6.75685">
        <ele>339.7</ele>
        <time>2014-05-18T09:42:53.000Z</time>
      </trkpt>
      <trkpt lat="47.47069" lon="6.75692">
        <ele>339.5</ele>
        <time>2014-05-18T09:42:54.000Z</time>
      </trkpt>
      <trkpt lat="47.4707" lon="6.75697">
        <ele>339.4</ele>
        <time>2014-05-18T09:42:55.000Z</time>
      </trkpt>
      <trkpt lat="47.47071" lon="6.75703">
        <ele>339.2</ele>
        <time>2014-05-18T09:42:56.000Z</time>
      </trkpt>
      <trkpt lat="47.47072" lon="6.75709">
        <ele>339</ele>
        <time>2014-05-18T09:42:57.000Z</time>
      </trkpt>
      <trkpt lat="47.47073" lon="6.75715">
        <ele>338.9</ele>
        <time>2014-05-18T09:42:58.000Z</time>
      </trkpt>
      <trkpt lat="47.47074" lon="6.7572">
        <ele>338.9</ele>
        <time>2014-05-18T09:42:59.000Z</time>
      </trkpt>
      <trkpt lat="47.47075" lon="6.75726">
        <ele>339.5</ele>
        <time>2014-05-18T09:43:00.000Z</time>
      </trkpt>
      <trkpt lat="47.47075" lon="6.75732">
        <ele>339.8</ele>
        <time>2014-05-18T09:43:01.000Z</time>
      </trkpt>
      <trkpt lat="47.47076" lon="6.75738">
        <ele>340.3</ele>
        <time>2014-05-18T09:43:02.000Z</time>
      </trkpt>
      <trkpt lat="47.47076" lon="6.75743">
        <ele>340.7</ele>
        <time>2014-05-18T09:43:03.000Z</time>
      </trkpt>
      <trkpt lat="47.47077" lon="6.75749">
        <ele>340.6</ele>
        <time>2014-05-18T09:43:04.000Z</time>
      </trkpt>
      <trkpt lat="47.47079" lon="6.75755">
        <ele>340.2</ele>
        <time>2014-05-18T09:43:05.000Z</time>
      </trkpt>
      <trkpt lat="47.47081" lon="6.7576">
        <ele>340</ele>
        <time>2014-05-18T09:43:06.000Z</time>
      </trkpt>
      <trkpt lat="47.47082" lon="6.75766">
        <ele>340.3</ele>
        <time>2014-05-18T09:43:07.000Z</time>
      </trkpt>
      <trkpt lat="47.47083" lon="6.75772">
        <ele>340.6</ele>
        <time>2014-05-18T09:43:08.000Z</time>
      </trkpt>
      <trkpt lat="47.47084" lon="6.75778">
        <ele>340.5</ele>
        <time>2014-05-18T09:43:09.000Z</time>
      </trkpt>
      <trkpt lat="47.47085" lon="6.75785">
        <ele>340.5</ele>
        <time>2014-05-18T09:43:10.000Z</time>
      </trkpt>
      <trkpt lat="47.47085" lon="6.75792">
        <ele>340.2</ele>
        <time>2014-05-18T09:43:11.000Z</time>
      </trkpt>
      <trkpt lat="47.47086" lon="6.75797">
        <ele>339.3</ele>
        <time>2014-05-18T09:43:12.000Z</time>
      </trkpt>
      <trkpt lat="47.47086" lon="6.75803">
        <ele>339.2</ele>
        <time>2014-05-18T09:43:13.000Z</time>
      </trkpt>
      <trkpt lat="47.47086" lon="6.7581">
        <ele>339.2</ele>
        <time>2014-05-18T09:43:14.000Z</time>
      </trkpt>
      <trkpt lat="47.47087" lon="6.75816">
        <ele>338.9</ele>
        <time>2014-05-18T09:43:15.000Z</time>
      </trkpt>
      <trkpt lat="47.47087" lon="6.75822">
        <ele>339</ele>
        <time>2014-05-18T09:43:16.000Z</time>
      </trkpt>
      <trkpt lat="47.47088" lon="6.75827">
        <ele>338.9</ele>
        <time>2014-05-18T09:43:17.000Z</time>
      </trkpt>
      <trkpt lat="47.47089" lon="6.75831">
        <ele>337.9</ele>
        <time>2014-05-18T09:43:18.000Z</time>
      </trkpt>
      <trkpt lat="47.4709" lon="6.75836">
        <ele>337.1</ele>
        <time>2014-05-18T09:43:19.000Z</time>
      </trkpt>
      <trkpt lat="47.47091" lon="6.75842">
        <ele>336.7</ele>
        <time>2014-05-18T09:43:20.000Z</time>
      </trkpt>
      <trkpt lat="47.47091" lon="6.75848">
        <ele>337.8</ele>
        <time>2014-05-18T09:43:21.000Z</time>
      </trkpt>
      <trkpt lat="47.47091" lon="6.75854">
        <ele>339</ele>
        <time>2014-05-18T09:43:22.000Z</time>
      </trkpt>
      <trkpt lat="47.47092" lon="6.75859">
        <ele>339.4</ele>
        <time>2014-05-18T09:43:23.000Z</time>
      </trkpt>
      <trkpt lat="47.47092" lon="6.75865">
        <ele>340.2</ele>
        <time>2014-05-18T09:43:24.000Z</time>
      </trkpt>
      <trkpt lat="47.47092" lon="6.75871">
        <ele>338.8</ele>
        <time>2014-05-18T09:43:25.000Z</time>
      </trkpt>
      <trkpt lat="47.47092" lon="6.75878">
        <ele>338.7</ele>
        <time>2014-05-18T09:43:26.000Z</time>
      </trkpt>
      <trkpt lat="47.47092" lon="6.75884">
        <ele>338.2</ele>
        <time>2014-05-18T09:43:27.000Z</time>
      </trkpt>
      <trkpt lat="47.47091" lon="6.7589">
        <ele>338.9</ele>
        <time>2014-05-18T09:43:28.000Z</time>
      </trkpt>
      <trkpt lat="47.47091" lon="6.75896">
        <ele>338.6</ele>
        <time>2014-05-18T09:43:29.000Z</time>
      </trkpt>
      <trkpt lat="47.47091" lon="6.75903">
        <ele>337.9</ele>
        <time>2014-05-18T09:43:30.000Z</time>
      </trkpt>
      <trkpt lat="47.47091" lon="6.75909">
        <ele>337.4</ele>
        <time>2014-05-18T09:43:31.000Z</time>
      </trkpt>
      <trkpt lat="47.4709" lon="6.75917">
        <ele>336.9</ele>
        <time>2014-05-18T09:43:32.000Z</time>
      </trkpt>
      <trkpt lat="47.4709" lon="6.75924">
        <ele>336.3</ele>
        <time>2014-05-18T09:43:33.000Z</time>
      </trkpt>
      <trkpt lat="47.47089" lon="6.75931">
        <ele>335.7</ele>
        <time>2014-05-18T09:43:34.000Z</time>
      </trkpt>
      <trkpt lat="47.4709" lon="6.75938">
        <ele>335.9</ele>
        <time>2014-05-18T09:43:35.000Z</time>
      </trkpt>
      <trkpt lat="47.47089" lon="6.75945">
        <ele>335.9</ele>
        <time>2014-05-18T09:43:36.000Z</time>
      </trkpt>
      <trkpt lat="47.47089" lon="6.75953">
        <ele>336</ele>
        <time>2014-05-18T09:43:37.000Z</time>
      </trkpt>
      <trkpt lat="47.47088" lon="6.75962">
        <ele>335.9</ele>
        <time>2014-05-18T09:43:38.000Z</time>
      </trkpt>
      <trkpt lat="47.47088" lon="6.75969">
        <ele>336.1</ele>
        <time>2014-05-18T09:43:39.000Z</time>
      </trkpt>
      <trkpt lat="47.47087" lon="6.75976">
        <ele>335.9</ele>
        <time>2014-05-18T09:43:40.000Z</time>
      </trkpt>
      <trkpt lat="47.47087" lon="6.75984">
        <ele>336.2</ele>
        <time>2014-05-18T09:43:41.000Z</time>
      </trkpt>
      <trkpt lat="47.47088" lon="6.7599">
        <ele>336.9</ele>
        <time>2014-05-18T09:43:42.000Z</time>
      </trkpt>
      <trkpt lat="47.4709" lon="6.75995">
        <ele>336.5</ele>
        <time>2014-05-18T09:43:43.000Z</time>
      </trkpt>
      <trkpt lat="47.47093" lon="6.76">
        <ele>336.5</ele>
        <time>2014-05-18T09:43:44.000Z</time>
      </trkpt>
      <trkpt lat="47.47096" lon="6.76001">
        <ele>337.1</ele>
        <time>2014-05-18T09:43:45.000Z</time>
      </trkpt>
      <trkpt lat="47.47101" lon="6.76001">
        <ele>338.1</ele>
        <time>2014-05-18T09:43:46.000Z</time>
      </trkpt>
      <trkpt lat="47.47107" lon="6.76004">
        <ele>337.5</ele>
        <time>2014-05-18T09:43:47.000Z</time>
      </trkpt>
      <trkpt lat="47.47112" lon="6.76006">
        <ele>337.6</ele>
        <time>2014-05-18T09:43:48.000Z</time>
      </trkpt>
      <trkpt lat="47.47117" lon="6.76008">
        <ele>337.1</ele>
        <time>2014-05-18T09:43:49.000Z</time>
      </trkpt>
      <trkpt lat="47.47158" lon="6.76022">
        <ele>336.3</ele>
        <time>2014-05-18T09:43:57.000Z</time>
      </trkpt>
      <trkpt lat="47.47164" lon="6.76024">
        <ele>337.1</ele>
        <time>2014-05-18T09:43:58.000Z</time>
      </trkpt>
      <trkpt lat="47.47167" lon="6.76026">
        <ele>337.3</ele>
        <time>2014-05-18T09:43:59.000Z</time>
      </trkpt>
      <trkpt lat="47.47173" lon="6.76028">
        <ele>336.6</ele>
        <time>2014-05-18T09:44:00.000Z</time>
      </trkpt>
      <trkpt lat="47.47178" lon="6.76031">
        <ele>336.1</ele>
        <time>2014-05-18T09:44:01.000Z</time>
      </trkpt>
      <trkpt lat="47.47184" lon="6.76032">
        <ele>336.6</ele>
        <time>2014-05-18T09:44:02.000Z</time>
      </trkpt>
      <trkpt lat="47.47188" lon="6.76033">
        <ele>336.4</ele>
        <time>2014-05-18T09:44:03.000Z</time>
      </trkpt>
      <trkpt lat="47.47193" lon="6.76035">
        <ele>336.5</ele>
        <time>2014-05-18T09:44:04.000Z</time>
      </trkpt>
      <trkpt lat="47.47199" lon="6.76037">
        <ele>335.9</ele>
        <time>2014-05-18T09:44:05.000Z</time>
      </trkpt>
      <trkpt lat="47.47206" lon="6.76039">
        <ele>336.8</ele>
        <time>2014-05-18T09:44:06.000Z</time>
      </trkpt>
      <trkpt lat="47.47211" lon="6.76041">
        <ele>337.2</ele>
        <time>2014-05-18T09:44:07.000Z</time>
      </trkpt>
      <trkpt lat="47.47217" lon="6.76043">
        <ele>338</ele>
        <time>2014-05-18T09:44:08.000Z</time>
      </trkpt>
      <trkpt lat="47.47221" lon="6.76045">
        <ele>338.3</ele>
        <time>2014-05-18T09:44:09.000Z</time>
      </trkpt>
      <trkpt lat="47.47226" lon="6.76047">
        <ele>338.1</ele>
        <time>2014-05-18T09:44:10.000Z</time>
      </trkpt>
      <trkpt lat="47.47231" lon="6.76048">
        <ele>338.1</ele>
        <time>2014-05-18T09:44:11.000Z</time>
      </trkpt>
      <trkpt lat="47.47236" lon="6.7605">
        <ele>337.9</ele>
        <time>2014-05-18T09:44:12.000Z</time>
      </trkpt>
      <trkpt lat="47.4724" lon="6.7605">
        <ele>338.4</ele>
        <time>2014-05-18T09:44:13.000Z</time>
      </trkpt>
      <trkpt lat="47.47244" lon="6.76052">
        <ele>338.4</ele>
        <time>2014-05-18T09:44:14.000Z</time>
      </trkpt>
      <trkpt lat="47.47249" lon="6.76053">
        <ele>338.3</ele>
        <time>2014-05-18T09:44:15.000Z</time>
      </trkpt>
      <trkpt lat="47.47254" lon="6.76055">
        <ele>338.3</ele>
        <time>2014-05-18T09:44:16.000Z</time>
      </trkpt>
      <trkpt lat="47.4726" lon="6.76058">
        <ele>339.2</ele>
        <time>2014-05-18T09:44:17.000Z</time>
      </trkpt>
      <trkpt lat="47.47264" lon="6.7606">
        <ele>339.4</ele>
        <time>2014-05-18T09:44:18.000Z</time>
      </trkpt>
      <trkpt lat="47.4727" lon="6.76062">
        <ele>340.1</ele>
        <time>2014-05-18T09:44:19.000Z</time>
      </trkpt>
      <trkpt lat="47.47275" lon="6.76065">
        <ele>341.7</ele>
        <time>2014-05-18T09:44:20.000Z</time>
      </trkpt>
      <trkpt lat="47.4728" lon="6.76069">
        <ele>342</ele>
        <time>2014-05-18T09:44:21.000Z</time>
      </trkpt>
      <trkpt lat="47.47284" lon="6.76072">
        <ele>343.6</ele>
        <time>2014-05-18T09:44:22.000Z</time>
      </trkpt>
      <trkpt lat="47.47289" lon="6.76078">
        <ele>343.8</ele>
        <time>2014-05-18T09:44:23.000Z</time>
      </trkpt>
      <trkpt lat="47.47295" lon="6.76083">
        <ele>343.2</ele>
        <time>2014-05-18T09:44:24.000Z</time>
      </trkpt>
      <trkpt lat="47.47299" lon="6.76087">
        <ele>342.3</ele>
        <time>2014-05-18T09:44:25.000Z</time>
      </trkpt>
      <trkpt lat="47.47303" lon="6.76094">
        <ele>342</ele>
        <time>2014-05-18T09:44:26.000Z</time>
      </trkpt>
      <trkpt lat="47.47306" lon="6.76098">
        <ele>341.3</ele>
        <time>2014-05-18T09:44:27.000Z</time>
      </trkpt>
      <trkpt lat="47.4731" lon="6.76103">
        <ele>341.6</ele>
        <time>2014-05-18T09:44:28.000Z</time>
      </trkpt>
      <trkpt lat="47.47315" lon="6.76108">
        <ele>341.2</ele>
        <time>2014-05-18T09:44:29.000Z</time>
      </trkpt>
      <trkpt lat="47.47318" lon="6.76114">
        <ele>341.4</ele>
        <time>2014-05-18T09:44:30.000Z</time>
      </trkpt>
      <trkpt lat="47.47322" lon="6.76118">
        <ele>341.3</ele>
        <time>2014-05-18T09:44:31.000Z</time>
      </trkpt>
      <trkpt lat="47.47325" lon="6.76121">
        <ele>341.8</ele>
        <time>2014-05-18T09:44:32.000Z</time>
      </trkpt>
      <trkpt lat="47.47329" lon="6.76126">
        <ele>341.5</ele>
        <time>2014-05-18T09:44:33.000Z</time>
      </trkpt>
      <trkpt lat="47.47332" lon="6.7613">
        <ele>341.4</ele>
        <time>2014-05-18T09:44:34.000Z</time>
      </trkpt>
      <trkpt lat="47.47335" lon="6.76136">
        <ele>340.9</ele>
        <time>2014-05-18T09:44:35.000Z</time>
      </trkpt>
      <trkpt lat="47.47339" lon="6.7614">
        <ele>339.9</ele>
        <time>2014-05-18T09:44:36.000Z</time>
      </trkpt>
      <trkpt lat="47.47342" lon="6.76145">
        <ele>340.4</ele>
        <time>2014-05-18T09:44:37.000Z</time>
      </trkpt>
      <trkpt lat="47.47345" lon="6.76149">
        <ele>339.8</ele>
        <time>2014-05-18T09:44:38.000Z</time>
      </trkpt>
      <trkpt lat="47.47349" lon="6.76155">
        <ele>339.3</ele>
        <time>2014-05-18T09:44:39.000Z</time>
      </trkpt>
      <trkpt lat="47.47353" lon="6.76159">
        <ele>340</ele>
        <time>2014-05-18T09:44:40.000Z</time>
      </trkpt>
      <trkpt lat="47.47357" lon="6.76164">
        <ele>339.9</ele>
        <time>2014-05-18T09:44:41.000Z</time>
      </trkpt>
      <trkpt lat="47.47361" lon="6.7617">
        <ele>340</ele>
        <time>2014-05-18T09:44:42.000Z</time>
      </trkpt>
      <trkpt lat="47.47364" lon="6.76175">
        <ele>339.5</ele>
        <time>2014-05-18T09:44:43.000Z</time>
      </trkpt>
      <trkpt lat="47.47369" lon="6.7618">
        <ele>339.1</ele>
        <time>2014-05-18T09:44:44.000Z</time>
      </trkpt>
      <trkpt lat="47.47371" lon="6.76186">
        <ele>339.2</ele>
        <time>2014-05-18T09:44:45.000Z</time>
      </trkpt>
      <trkpt lat="47.47373" lon="6.76191">
        <ele>339.5</ele>
        <time>2014-05-18T09:44:46.000Z</time>
      </trkpt>
      <trkpt lat="47.47376" lon="6.76198">
        <ele>339</ele>
        <time>2014-05-18T09:44:47.000Z</time>
      </trkpt>
      <trkpt lat="47.47378" lon="6.76204">
        <ele>338.8</ele>
        <time>2014-05-18T09:44:48.000Z</time>
      </trkpt>
      <trkpt lat="47.47386" lon="6.76216">
        <ele>338.6</ele>
        <time>2014-05-18T09:44:51.000Z</time>
      </trkpt>
      <trkpt lat="47.47391" lon="6.76218">
        <ele>338.9</ele>
        <time>2014-05-18T09:44:52.000Z</time>
      </trkpt>
      <trkpt lat="47.47396" lon="6.76221">
        <ele>339.4</ele>
        <time>2014-05-18T09:44:53.000Z</time>
      </trkpt>
      <trkpt lat="47.47402" lon="6.76223">
        <ele>338.6</ele>
        <time>2014-05-18T09:44:54.000Z</time>
      </trkpt>
      <trkpt lat="47.47406" lon="6.76228">
        <ele>338.8</ele>
        <time>2014-05-18T09:44:55.000Z</time>
      </trkpt>
      <trkpt lat="47.47409" lon="6.76231">
        <ele>337.5</ele>
        <time>2014-05-18T09:44:56.000Z</time>
      </trkpt>
      <trkpt lat="47.47413" lon="6.76238">
        <ele>337.8</ele>
        <time>2014-05-18T09:44:57.000Z</time>
      </trkpt>
      <trkpt lat="47.47415" lon="6.76244">
        <ele>337.3</ele>
        <time>2014-05-18T09:44:58.000Z</time>
      </trkpt>
      <trkpt lat="47.47417" lon="6.76251">
        <ele>336.9</ele>
        <time>2014-05-18T09:44:59.000Z</time>
      </trkpt>
      <trkpt lat="47.47417" lon="6.76257">
        <ele>336.7</ele>
        <time>2014-05-18T09:45:00.000Z</time>
      </trkpt>
      <trkpt lat="47.47416" lon="6.76262">
        <ele>336.5</ele>
        <time>2014-05-18T09:45:01.000Z</time>
      </trkpt>
      <trkpt lat="47.47416" lon="6.76268">
        <ele>336.9</ele>
        <time>2014-05-18T09:45:02.000Z</time>
      </trkpt>
      <trkpt lat="47.47417" lon="6.76275">
        <ele>336</ele>
        <time>2014-05-18T09:45:03.000Z</time>
      </trkpt>
      <trkpt lat="47.47418" lon="6.76283">
        <ele>336.3</ele>
        <time>2014-05-18T09:45:04.000Z</time>
      </trkpt>
      <trkpt lat="47.4742" lon="6.76292">
        <ele>335.2</ele>
        <time>2014-05-18T09:45:05.000Z</time>
      </trkpt>
      <trkpt lat="47.47421" lon="6.76301">
        <ele>335</ele>
        <time>2014-05-18T09:45:06.000Z</time>
      </trkpt>
      <trkpt lat="47.4742" lon="6.76311">
        <ele>333.6</ele>
        <time>2014-05-18T09:45:07.000Z</time>
      </trkpt>
      <trkpt lat="47.47419" lon="6.7632">
        <ele>332.8</ele>
        <time>2014-05-18T09:45:08.000Z</time>
      </trkpt>
      <trkpt lat="47.47416" lon="6.76328">
        <ele>332.4</ele>
        <time>2014-05-18T09:45:09.000Z</time>
      </trkpt>
      <trkpt lat="47.47413" lon="6.76336">
        <ele>332.1</ele>
        <time>2014-05-18T09:45:10.000Z</time>
      </trkpt>
      <trkpt lat="47.47409" lon="6.76343">
        <ele>331.8</ele>
        <time>2014-05-18T09:45:11.000Z</time>
      </trkpt>
      <trkpt lat="47.47404" lon="6.76349">
        <ele>331</ele>
        <time>2014-05-18T09:45:12.000Z</time>
      </trkpt>
      <trkpt lat="47.474" lon="6.76357">
        <ele>330.5</ele>
        <time>2014-05-18T09:45:13.000Z</time>
      </trkpt>
      <trkpt lat="47.47394" lon="6.76365">
        <ele>329.9</ele>
        <time>2014-05-18T09:45:14.000Z</time>
      </trkpt>
      <trkpt lat="47.47389" lon="6.76374">
        <ele>328.9</ele>
        <time>2014-05-18T09:45:15.000Z</time>
      </trkpt>
      <trkpt lat="47.47385" lon="6.76381">
        <ele>328.1</ele>
        <time>2014-05-18T09:45:16.000Z</time>
      </trkpt>
      <trkpt lat="47.47382" lon="6.76388">
        <ele>327.5</ele>
        <time>2014-05-18T09:45:17.000Z</time>
      </trkpt>
      <trkpt lat="47.4738" lon="6.76393">
        <ele>326.8</ele>
        <time>2014-05-18T09:45:18.000Z</time>
      </trkpt>
      <trkpt lat="47.47378" lon="6.76399">
        <ele>326.7</ele>
        <time>2014-05-18T09:45:19.000Z</time>
      </trkpt>
      <trkpt lat="47.47381" lon="6.76404">
        <ele>326.4</ele>
        <time>2014-05-18T09:45:20.000Z</time>
      </trkpt>
      <trkpt lat="47.47384" lon="6.76408">
        <ele>325.9</ele>
        <time>2014-05-18T09:45:21.000Z</time>
      </trkpt>
      <trkpt lat="47.47389" lon="6.76413">
        <ele>326.1</ele>
        <time>2014-05-18T09:45:22.000Z</time>
      </trkpt>
      <trkpt lat="47.47395" lon="6.76417">
        <ele>325.3</ele>
        <time>2014-05-18T09:45:23.000Z</time>
      </trkpt>
      <trkpt lat="47.474" lon="6.76421">
        <ele>324</ele>
        <time>2014-05-18T09:45:24.000Z</time>
      </trkpt>
      <trkpt lat="47.47405" lon="6.76427">
        <ele>323.1</ele>
        <time>2014-05-18T09:45:25.000Z</time>
      </trkpt>
      <trkpt lat="47.47409" lon="6.76433">
        <ele>321.7</ele>
        <time>2014-05-18T09:45:26.000Z</time>
      </trkpt>
      <trkpt lat="47.47414" lon="6.76438">
        <ele>320.5</ele>
        <time>2014-05-18T09:45:27.000Z</time>
      </trkpt>
      <trkpt lat="47.47419" lon="6.76442">
        <ele>320.1</ele>
        <time>2014-05-18T09:45:28.000Z</time>
      </trkpt>
      <trkpt lat="47.47423" lon="6.76446">
        <ele>320</ele>
        <time>2014-05-18T09:45:29.000Z</time>
      </trkpt>
      <trkpt lat="47.47427" lon="6.76448">
        <ele>317.9</ele>
        <time>2014-05-18T09:45:31.000Z</time>
      </trkpt>
      <trkpt lat="47.4743" lon="6.76448">
        <ele>317.5</ele>
        <time>2014-05-18T09:45:32.000Z</time>
      </trkpt>
      <trkpt lat="47.47433" lon="6.76449">
        <ele>317.8</ele>
        <time>2014-05-18T09:45:34.000Z</time>
      </trkpt>
      <trkpt lat="47.47435" lon="6.7645">
        <ele>317.1</ele>
        <time>2014-05-18T09:45:35.000Z</time>
      </trkpt>
      <trkpt lat="47.47438" lon="6.7645">
        <ele>316.6</ele>
        <time>2014-05-18T09:45:36.000Z</time>
      </trkpt>
      <trkpt lat="47.47442" lon="6.76448">
        <ele>317.4</ele>
        <time>2014-05-18T09:45:37.000Z</time>
      </trkpt>
      <trkpt lat="47.47447" lon="6.76446">
        <ele>317.6</ele>
        <time>2014-05-18T09:45:38.000Z</time>
      </trkpt>
      <trkpt lat="47.47451" lon="6.76443">
        <ele>316.9</ele>
        <time>2014-05-18T09:45:39.000Z</time>
      </trkpt>
      <trkpt lat="47.47456" lon="6.76443">
        <ele>317.1</ele>
        <time>2014-05-18T09:45:40.000Z</time>
      </trkpt>
      <trkpt lat="47.47461" lon="6.76443">
        <ele>317</ele>
        <time>2014-05-18T09:45:41.000Z</time>
      </trkpt>
      <trkpt lat="47.47466" lon="6.76445">
        <ele>317.2</ele>
        <time>2014-05-18T09:45:42.000Z</time>
      </trkpt>
      <trkpt lat="47.47472" lon="6.76449">
        <ele>316.9</ele>
        <time>2014-05-18T09:45:43.000Z</time>
      </trkpt>
      <trkpt lat="47.47479" lon="6.76453">
        <ele>317.1</ele>
        <time>2014-05-18T09:45:44.000Z</time>
      </trkpt>
      <trkpt lat="47.47484" lon="6.76457">
        <ele>317</ele>
        <time>2014-05-18T09:45:45.000Z</time>
      </trkpt>
      <trkpt lat="47.47489" lon="6.76462">
        <ele>317.4</ele>
        <time>2014-05-18T09:45:46.000Z</time>
      </trkpt>
      <trkpt lat="47.47496" lon="6.76466">
        <ele>317.7</ele>
        <time>2014-05-18T09:45:47.000Z</time>
      </trkpt>
      <trkpt lat="47.475" lon="6.76466">
        <ele>317.5</ele>
        <time>2014-05-18T09:45:48.000Z</time>
      </trkpt>
      <trkpt lat="47.47511" lon="6.76446">
        <ele>316.6</ele>
        <time>2014-05-18T09:45:51.000Z</time>
      </trkpt>
      <trkpt lat="47.47515" lon="6.76439">
        <ele>316.9</ele>
        <time>2014-05-18T09:45:52.000Z</time>
      </trkpt>
      <trkpt lat="47.4752" lon="6.76432">
        <ele>317.4</ele>
        <time>2014-05-18T09:45:53.000Z</time>
      </trkpt>
      <trkpt lat="47.47523" lon="6.76425">
        <ele>317.1</ele>
        <time>2014-05-18T09:45:54.000Z</time>
      </trkpt>
      <trkpt lat="47.47527" lon="6.76419">
        <ele>317.2</ele>
        <time>2014-05-18T09:45:55.000Z</time>
      </trkpt>
      <trkpt lat="47.47531" lon="6.76413">
        <ele>316.6</ele>
        <time>2014-05-18T09:45:56.000Z</time>
      </trkpt>
      <trkpt lat="47.47533" lon="6.7641">
        <ele>316.9</ele>
        <time>2014-05-18T09:45:57.000Z</time>
      </trkpt>
      <trkpt lat="47.47536" lon="6.76405">
        <ele>317</ele>
        <time>2014-05-18T09:45:58.000Z</time>
      </trkpt>
      <trkpt lat="47.4754" lon="6.76396">
        <ele>316.8</ele>
        <time>2014-05-18T09:45:59.000Z</time>
      </trkpt>
      <trkpt lat="47.47544" lon="6.76386">
        <ele>315.9</ele>
        <time>2014-05-18T09:46:00.000Z</time>
      </trkpt>
      <trkpt lat="47.47546" lon="6.76379">
        <ele>315.2</ele>
        <time>2014-05-18T09:46:01.000Z</time>
      </trkpt>
      <trkpt lat="47.47548" lon="6.76373">
        <ele>313.7</ele>
        <time>2014-05-18T09:46:02.000Z</time>
      </trkpt>
      <trkpt lat="47.47551" lon="6.76367">
        <ele>313.2</ele>
        <time>2014-05-18T09:46:03.000Z</time>
      </trkpt>
      <trkpt lat="47.47552" lon="6.76358">
        <ele>312.7</ele>
        <time>2014-05-18T09:46:04.000Z</time>
      </trkpt>
      <trkpt lat="47.47554" lon="6.76348">
        <ele>312.8</ele>
        <time>2014-05-18T09:46:05.000Z</time>
      </trkpt>
      <trkpt lat="47.47557" lon="6.7634">
        <ele>312</ele>
        <time>2014-05-18T09:46:06.000Z</time>
      </trkpt>
      <trkpt lat="47.47563" lon="6.76331">
        <ele>311.1</ele>
        <time>2014-05-18T09:46:07.000Z</time>
      </trkpt>
      <trkpt lat="47.47568" lon="6.76324">
        <ele>312</ele>
        <time>2014-05-18T09:46:08.000Z</time>
      </trkpt>
      <trkpt lat="47.47572" lon="6.76317">
        <ele>311.6</ele>
        <time>2014-05-18T09:46:09.000Z</time>
      </trkpt>
      <trkpt lat="47.47577" lon="6.7631">
        <ele>311.2</ele>
        <time>2014-05-18T09:46:10.000Z</time>
      </trkpt>
      <trkpt lat="47.47581" lon="6.76305">
        <ele>309.9</ele>
        <time>2014-05-18T09:46:11.000Z</time>
      </trkpt>
      <trkpt lat="47.47585" lon="6.76298">
        <ele>310</ele>
        <time>2014-05-18T09:46:12.000Z</time>
      </trkpt>
      <trkpt lat="47.47588" lon="6.76289">
        <ele>310.5</ele>
        <time>2014-05-18T09:46:13.000Z</time>
      </trkpt>
      <trkpt lat="47.47593" lon="6.76282">
        <ele>311.2</ele>
        <time>2014-05-18T09:46:14.000Z</time>
      </trkpt>
      <trkpt lat="47.47595" lon="6.76273">
        <ele>310.5</ele>
        <time>2014-05-18T09:46:15.000Z</time>
      </trkpt>
      <trkpt lat="47.47599" lon="6.76267">
        <ele>310.8</ele>
        <time>2014-05-18T09:46:16.000Z</time>
      </trkpt>
      <trkpt lat="47.47603" lon="6.7626">
        <ele>311</ele>
        <time>2014-05-18T09:46:17.000Z</time>
      </trkpt>
      <trkpt lat="47.47608" lon="6.76251">
        <ele>311.4</ele>
        <time>2014-05-18T09:46:18.000Z</time>
      </trkpt>
      <trkpt lat="47.47612" lon="6.76244">
        <ele>311.7</ele>
        <time>2014-05-18T09:46:19.000Z</time>
      </trkpt>
      <trkpt lat="47.47616" lon="6.76234">
        <ele>311.6</ele>
        <time>2014-05-18T09:46:20.000Z</time>
      </trkpt>
      <trkpt lat="47.4762" lon="6.76224">
        <ele>312</ele>
        <time>2014-05-18T09:46:21.000Z</time>
      </trkpt>
      <trkpt lat="47.47624" lon="6.76216">
        <ele>312.8</ele>
        <time>2014-05-18T09:46:22.000Z</time>
      </trkpt>
      <trkpt lat="47.47627" lon="6.76209">
        <ele>312.6</ele>
        <time>2014-05-18T09:46:23.000Z</time>
      </trkpt>
      <trkpt lat="47.4763" lon="6.762">
        <ele>312.2</ele>
        <time>2014-05-18T09:46:24.000Z</time>
      </trkpt>
      <trkpt lat="47.47634" lon="6.76193">
        <ele>311.5</ele>
        <time>2014-05-18T09:46:25.000Z</time>
      </trkpt>
      <trkpt lat="47.47637" lon="6.76184">
        <ele>311.4</ele>
        <time>2014-05-18T09:46:26.000Z</time>
      </trkpt>
      <trkpt lat="47.4764" lon="6.76177">
        <ele>311.8</ele>
        <time>2014-05-18T09:46:27.000Z</time>
      </trkpt>
      <trkpt lat="47.47643" lon="6.76169">
        <ele>311.3</ele>
        <time>2014-05-18T09:46:28.000Z</time>
      </trkpt>
      <trkpt lat="47.47646" lon="6.76162">
        <ele>310.4</ele>
        <time>2014-05-18T09:46:29.000Z</time>
      </trkpt>
      <trkpt lat="47.47649" lon="6.76155">
        <ele>307.2</ele>
        <time>2014-05-18T09:46:30.000Z</time>
      </trkpt>
      <trkpt lat="47.47652" lon="6.76149">
        <ele>303.6</ele>
        <time>2014-05-18T09:46:31.000Z</time>
      </trkpt>
      <trkpt lat="47.47655" lon="6.76142">
        <ele>303.1</ele>
        <time>2014-05-18T09:46:32.000Z</time>
      </trkpt>
      <trkpt lat="47.47658" lon="6.76135">
        <ele>302.9</ele>
        <time>2014-05-18T09:46:32.999Z</time>
      </trkpt>
      <trkpt lat="47.47661" lon="6.76129">
        <ele>300.1</ele>
        <time>2014-05-18T09:46:34.000Z</time>
      </trkpt>
      <trkpt lat="47.47664" lon="6.76121">
        <ele>298.5</ele>
        <time>2014-05-18T09:46:35.000Z</time>
      </trkpt>
      <trkpt lat="47.47667" lon="6.76113">
        <ele>296.5</ele>
        <time>2014-05-18T09:46:36.000Z</time>
      </trkpt>
      <trkpt lat="47.4767" lon="6.76106">
        <ele>294.1</ele>
        <time>2014-05-18T09:46:36.999Z</time>
      </trkpt>
      <trkpt lat="47.47673" lon="6.76097">
        <ele>296.5</ele>
        <time>2014-05-18T09:46:38.000Z</time>
      </trkpt>
      <trkpt lat="47.47677" lon="6.76094">
        <ele>298.5</ele>
        <time>2014-05-18T09:46:39.000Z</time>
      </trkpt>
      <trkpt lat="47.4768" lon="6.76094">
        <ele>301.4</ele>
        <time>2014-05-18T09:46:40.000Z</time>
      </trkpt>
      <trkpt lat="47.47682" lon="6.76099">
        <ele>303.2</ele>
        <time>2014-05-18T09:46:41.000Z</time>
      </trkpt>
      <trkpt lat="47.47686" lon="6.76104">
        <ele>302.8</ele>
        <time>2014-05-18T09:46:42.000Z</time>
      </trkpt>
      <trkpt lat="47.47689" lon="6.76107">
        <ele>302.8</ele>
        <time>2014-05-18T09:46:43.000Z</time>
      </trkpt>
      <trkpt lat="47.47693" lon="6.76112">
        <ele>303.9</ele>
        <time>2014-05-18T09:46:44.000Z</time>
      </trkpt>
      <trkpt lat="47.47695" lon="6.76118">
        <ele>304.9</ele>
        <time>2014-05-18T09:46:45.000Z</time>
      </trkpt>
      <trkpt lat="47.47699" lon="6.76123">
        <ele>307.4</ele>
        <time>2014-05-18T09:46:46.000Z</time>
      </trkpt>
      <trkpt lat="47.47701" lon="6.76128">
        <ele>308.5</ele>
        <time>2014-05-18T09:46:47.000Z</time>
      </trkpt>
      <trkpt lat="47.47704" lon="6.76134">
        <ele>309.3</ele>
        <time>2014-05-18T09:46:48.000Z</time>
      </trkpt>
      <trkpt lat="47.47731" lon="6.76178">
        <ele>309.7</ele>
        <time>2014-05-18T09:46:55.739Z</time>
      </trkpt>
      <trkpt lat="47.47736" lon="6.76184">
        <ele>309.8</ele>
        <time>2014-05-18T09:46:57.000Z</time>
      </trkpt>
      <trkpt lat="47.47739" lon="6.7619">
        <ele>309.8</ele>
        <time>2014-05-18T09:46:58.000Z</time>
      </trkpt>
      <trkpt lat="47.47743" lon="6.76197">
        <ele>308.6</ele>
        <time>2014-05-18T09:46:59.000Z</time>
      </trkpt>
      <trkpt lat="47.47747" lon="6.76201">
        <ele>308.5</ele>
        <time>2014-05-18T09:47:00.000Z</time>
      </trkpt>
      <trkpt lat="47.4775" lon="6.76206">
        <ele>309.2</ele>
        <time>2014-05-18T09:47:01.000Z</time>
      </trkpt>
      <trkpt lat="47.47752" lon="6.76212">
        <ele>309.5</ele>
        <time>2014-05-18T09:47:02.000Z</time>
      </trkpt>
      <trkpt lat="47.47755" lon="6.76218">
        <ele>309.4</ele>
        <time>2014-05-18T09:47:03.000Z</time>
      </trkpt>
      <trkpt lat="47.47758" lon="6.76224">
        <ele>310</ele>
        <time>2014-05-18T09:47:04.000Z</time>
      </trkpt>
      <trkpt lat="47.47761" lon="6.7623">
        <ele>309.7</ele>
        <time>2014-05-18T09:47:05.000Z</time>
      </trkpt>
      <trkpt lat="47.47766" lon="6.76235">
        <ele>309.8</ele>
        <time>2014-05-18T09:47:06.000Z</time>
      </trkpt>
      <trkpt lat="47.47768" lon="6.7624">
        <ele>309.8</ele>
        <time>2014-05-18T09:47:07.000Z</time>
      </trkpt>
      <trkpt lat="47.47772" lon="6.76245">
        <ele>310.2</ele>
        <time>2014-05-18T09:47:08.000Z</time>
      </trkpt>
      <trkpt lat="47.47776" lon="6.7625">
        <ele>310</ele>
        <time>2014-05-18T09:47:09.000Z</time>
      </trkpt>
      <trkpt lat="47.47781" lon="6.76255">
        <ele>309.9</ele>
        <time>2014-05-18T09:47:10.000Z</time>
      </trkpt>
      <trkpt lat="47.47785" lon="6.7626">
        <ele>309.7</ele>
        <time>2014-05-18T09:47:11.000Z</time>
      </trkpt>
      <trkpt lat="47.47789" lon="6.76264">
        <ele>309</ele>
        <time>2014-05-18T09:47:12.000Z</time>
      </trkpt>
      <trkpt lat="47.47795" lon="6.76267">
        <ele>309</ele>
        <time>2014-05-18T09:47:13.000Z</time>
      </trkpt>
      <trkpt lat="47.478" lon="6.76269">
        <ele>308.6</ele>
        <time>2014-05-18T09:47:14.000Z</time>
      </trkpt>
      <trkpt lat="47.47806" lon="6.76272">
        <ele>309.1</ele>
        <time>2014-05-18T09:47:15.000Z</time>
      </trkpt>
      <trkpt lat="47.47811" lon="6.76274">
        <ele>309.5</ele>
        <time>2014-05-18T09:47:16.000Z</time>
      </trkpt>
      <trkpt lat="47.47816" lon="6.76277">
        <ele>309.5</ele>
        <time>2014-05-18T09:47:17.000Z</time>
      </trkpt>
      <trkpt lat="47.47821" lon="6.76281">
        <ele>309.6</ele>
        <time>2014-05-18T09:47:18.000Z</time>
      </trkpt>
      <trkpt lat="47.47827" lon="6.76286">
        <ele>309.7</ele>
        <time>2014-05-18T09:47:19.000Z</time>
      </trkpt>
      <trkpt lat="47.47832" lon="6.76289">
        <ele>309.8</ele>
        <time>2014-05-18T09:47:20.000Z</time>
      </trkpt>
      <trkpt lat="47.47836" lon="6.76296">
        <ele>310.1</ele>
        <time>2014-05-18T09:47:21.000Z</time>
      </trkpt>
      <trkpt lat="47.47839" lon="6.76301">
        <ele>310.3</ele>
        <time>2014-05-18T09:47:22.000Z</time>
      </trkpt>
      <trkpt lat="47.47843" lon="6.76308">
        <ele>309.9</ele>
        <time>2014-05-18T09:47:23.000Z</time>
      </trkpt>
      <trkpt lat="47.47847" lon="6.76314">
        <ele>310</ele>
        <time>2014-05-18T09:47:24.000Z</time>
      </trkpt>
      <trkpt lat="47.47851" lon="6.76321">
        <ele>310</ele>
        <time>2014-05-18T09:47:25.000Z</time>
      </trkpt>
      <trkpt lat="47.47855" lon="6.76328">
        <ele>309.9</ele>
        <time>2014-05-18T09:47:26.000Z</time>
      </trkpt>
      <trkpt lat="47.47859" lon="6.76334">
        <ele>310.2</ele>
        <time>2014-05-18T09:47:27.000Z</time>
      </trkpt>
      <trkpt lat="47.47863" lon="6.7634">
        <ele>310</ele>
        <time>2014-05-18T09:47:28.000Z</time>
      </trkpt>
      <trkpt lat="47.47866" lon="6.76347">
        <ele>310.8</ele>
        <time>2014-05-18T09:47:29.000Z</time>
      </trkpt>
      <trkpt lat="47.47869" lon="6.76353">
        <ele>310.5</ele>
        <time>2014-05-18T09:47:30.000Z</time>
      </trkpt>
      <trkpt lat="47.47873" lon="6.76359">
        <ele>310.2</ele>
        <time>2014-05-18T09:47:31.000Z</time>
      </trkpt>
      <trkpt lat="47.47877" lon="6.76367">
        <ele>310.1</ele>
        <time>2014-05-18T09:47:32.000Z</time>
      </trkpt>
      <trkpt lat="47.4788" lon="6.76374">
        <ele>311.1</ele>
        <time>2014-05-18T09:47:33.000Z</time>
      </trkpt>
      <trkpt lat="47.47884" lon="6.76381">
        <ele>311.2</ele>
        <time>2014-05-18T09:47:34.000Z</time>
      </trkpt>
      <trkpt lat="47.47887" lon="6.76388">
        <ele>310.6</ele>
        <time>2014-05-18T09:47:35.000Z</time>
      </trkpt>
      <trkpt lat="47.47889" lon="6.76396">
        <ele>310.8</ele>
        <time>2014-05-18T09:47:36.000Z</time>
      </trkpt>
      <trkpt lat="47.47893" lon="6.76404">
        <ele>310.4</ele>
        <time>2014-05-18T09:47:37.000Z</time>
      </trkpt>
      <trkpt lat="47.47896" lon="6.76411">
        <ele>310.5</ele>
        <time>2014-05-18T09:47:38.000Z</time>
      </trkpt>
      <trkpt lat="47.47898" lon="6.76417">
        <ele>310.7</ele>
        <time>2014-05-18T09:47:39.000Z</time>
      </trkpt>
      <trkpt lat="47.47901" lon="6.76422">
        <ele>310.8</ele>
        <time>2014-05-18T09:47:40.000Z</time>
      </trkpt>
      <trkpt lat="47.47905" lon="6.76427">
        <ele>311</ele>
        <time>2014-05-18T09:47:41.000Z</time>
      </trkpt>
      <trkpt lat="47.47908" lon="6.76432">
        <ele>311.2</ele>
        <time>2014-05-18T09:47:42.000Z</time>
      </trkpt>
      <trkpt lat="47.47911" lon="6.76437">
        <ele>311.6</ele>
        <time>2014-05-18T09:47:43.000Z</time>
      </trkpt>
      <trkpt lat="47.47911" lon="6.7644">
        <ele>310.9</ele>
        <time>2014-05-18T09:47:44.000Z</time>
      </trkpt>
      <trkpt lat="47.47911" lon="6.76444">
        <ele>310.6</ele>
        <time>2014-05-18T09:47:45.000Z</time>
      </trkpt>
      <trkpt lat="47.47912" lon="6.76448">
        <ele>311.3</ele>
        <time>2014-05-18T09:47:46.000Z</time>
      </trkpt>
      <trkpt lat="47.47914" lon="6.76453">
        <ele>312.1</ele>
        <time>2014-05-18T09:47:47.000Z</time>
      </trkpt>
      <trkpt lat="47.47915" lon="6.76458">
        <ele>313.6</ele>
        <time>2014-05-18T09:47:48.000Z</time>
      </trkpt>
      <trkpt lat="47.47919" lon="6.76482">
        <ele>313.7</ele>
        <time>2014-05-18T09:47:51.000Z</time>
      </trkpt>
      <trkpt lat="47.47921" lon="6.7649">
        <ele>313.6</ele>
        <time>2014-05-18T09:47:52.000Z</time>
      </trkpt>
      <trkpt lat="47.47923" lon="6.76497">
        <ele>313.5</ele>
        <time>2014-05-18T09:47:53.000Z</time>
      </trkpt>
      <trkpt lat="47.47925" lon="6.76505">
        <ele>313.8</ele>
        <time>2014-05-18T09:47:54.000Z</time>
      </trkpt>
      <trkpt lat="47.47927" lon="6.76514">
        <ele>313.5</ele>
        <time>2014-05-18T09:47:55.000Z</time>
      </trkpt>
      <trkpt lat="47.47928" lon="6.76522">
        <ele>313.3</ele>
        <time>2014-05-18T09:47:56.000Z</time>
      </trkpt>
      <trkpt lat="47.4793" lon="6.76531">
        <ele>312.1</ele>
        <time>2014-05-18T09:47:57.000Z</time>
      </trkpt>
      <trkpt lat="47.47932" lon="6.76539">
        <ele>312.1</ele>
        <time>2014-05-18T09:47:58.000Z</time>
      </trkpt>
      <trkpt lat="47.47933" lon="6.76547">
        <ele>312.4</ele>
        <time>2014-05-18T09:47:59.000Z</time>
      </trkpt>
      <trkpt lat="47.47935" lon="6.76556">
        <ele>312.5</ele>
        <time>2014-05-18T09:48:00.000Z</time>
      </trkpt>
      <trkpt lat="47.47936" lon="6.76565">
        <ele>312.6</ele>
        <time>2014-05-18T09:48:01.000Z</time>
      </trkpt>
      <trkpt lat="47.47938" lon="6.76572">
        <ele>312.8</ele>
        <time>2014-05-18T09:48:02.000Z</time>
      </trkpt>
      <trkpt lat="47.47941" lon="6.7658">
        <ele>312.8</ele>
        <time>2014-05-18T09:48:03.000Z</time>
      </trkpt>
      <trkpt lat="47.47943" lon="6.76588">
        <ele>312.5</ele>
        <time>2014-05-18T09:48:04.000Z</time>
      </trkpt>
      <trkpt lat="47.47944" lon="6.76595">
        <ele>312.9</ele>
        <time>2014-05-18T09:48:05.000Z</time>
      </trkpt>
      <trkpt lat="47.47945" lon="6.76601">
        <ele>313.8</ele>
        <time>2014-05-18T09:48:06.000Z</time>
      </trkpt>
      <trkpt lat="47.47945" lon="6.76607">
        <ele>314.1</ele>
        <time>2014-05-18T09:48:07.000Z</time>
      </trkpt>
      <trkpt lat="47.47947" lon="6.76611">
        <ele>314.5</ele>
        <time>2014-05-18T09:48:08.000Z</time>
      </trkpt>
      <trkpt lat="47.47948" lon="6.76616">
        <ele>314.7</ele>
        <time>2014-05-18T09:48:14.000Z</time>
      </trkpt>
      <trkpt lat="47.47947" lon="6.76617">
        <ele>315.3</ele>
        <time>2014-05-18T09:48:15.000Z</time>
      </trkpt>
      <trkpt lat="47.47951" lon="6.76617">
        <ele>315.2</ele>
        <time>2014-05-18T09:48:22.000Z</time>
      </trkpt>
      <trkpt lat="47.47954" lon="6.76619">
        <ele>315.7</ele>
        <time>2014-05-18T09:48:23.000Z</time>
      </trkpt>
      <trkpt lat="47.47957" lon="6.76621">
        <ele>316.3</ele>
        <time>2014-05-18T09:48:24.000Z</time>
      </trkpt>
      <trkpt lat="47.47961" lon="6.76622">
        <ele>316.5</ele>
        <time>2014-05-18T09:48:25.000Z</time>
      </trkpt>
      <trkpt lat="47.47966" lon="6.76621">
        <ele>316.8</ele>
        <time>2014-05-18T09:48:26.000Z</time>
      </trkpt>
      <trkpt lat="47.4797" lon="6.76619">
        <ele>317.7</ele>
        <time>2014-05-18T09:48:27.000Z</time>
      </trkpt>
      <trkpt lat="47.47974" lon="6.76616">
        <ele>317.9</ele>
        <time>2014-05-18T09:48:28.000Z</time>
      </trkpt>
      <trkpt lat="47.47979" lon="6.76613">
        <ele>317.9</ele>
        <time>2014-05-18T09:48:29.000Z</time>
      </trkpt>
      <trkpt lat="47.47983" lon="6.76611">
        <ele>317.8</ele>
        <time>2014-05-18T09:48:30.000Z</time>
      </trkpt>
      <trkpt lat="47.47987" lon="6.76609">
        <ele>317.7</ele>
        <time>2014-05-18T09:48:31.000Z</time>
      </trkpt>
      <trkpt lat="47.47992" lon="6.76606">
        <ele>317.6</ele>
        <time>2014-05-18T09:48:32.000Z</time>
      </trkpt>
      <trkpt lat="47.47996" lon="6.76604">
        <ele>317.8</ele>
        <time>2014-05-18T09:48:33.000Z</time>
      </trkpt>
      <trkpt lat="47.48" lon="6.76602">
        <ele>317.8</ele>
        <time>2014-05-18T09:48:34.000Z</time>
      </trkpt>
      <trkpt lat="47.48004" lon="6.76599">
        <ele>318</ele>
        <time>2014-05-18T09:48:35.000Z</time>
      </trkpt>
      <trkpt lat="47.48007" lon="6.76597">
        <ele>318.2</ele>
        <time>2014-05-18T09:48:36.000Z</time>
      </trkpt>
      <trkpt lat="47.48011" lon="6.76594">
        <ele>318.3</ele>
        <time>2014-05-18T09:48:37.000Z</time>
      </trkpt>
      <trkpt lat="47.48017" lon="6.7659">
        <ele>318</ele>
        <time>2014-05-18T09:48:38.000Z</time>
      </trkpt>
      <trkpt lat="47.48022" lon="6.76587">
        <ele>317.9</ele>
        <time>2014-05-18T09:48:39.000Z</time>
      </trkpt>
      <trkpt lat="47.48027" lon="6.76585">
        <ele>316.6</ele>
        <time>2014-05-18T09:48:40.000Z</time>
      </trkpt>
      <trkpt lat="47.48032" lon="6.76582">
        <ele>316.7</ele>
        <time>2014-05-18T09:48:41.000Z</time>
      </trkpt>
      <trkpt lat="47.48036" lon="6.76578">
        <ele>317.3</ele>
        <time>2014-05-18T09:48:42.000Z</time>
      </trkpt>
      <trkpt lat="47.4804" lon="6.76574">
        <ele>317</ele>
        <time>2014-05-18T09:48:43.000Z</time>
      </trkpt>
      <trkpt lat="47.48044" lon="6.7657">
        <ele>316.8</ele>
        <time>2014-05-18T09:48:44.000Z</time>
      </trkpt>
      <trkpt lat="47.48049" lon="6.76567">
        <ele>316.6</ele>
        <time>2014-05-18T09:48:45.000Z</time>
      </trkpt>
      <trkpt lat="47.48053" lon="6.76563">
        <ele>315.5</ele>
        <time>2014-05-18T09:48:46.000Z</time>
      </trkpt>
      <trkpt lat="47.48057" lon="6.76558">
        <ele>316.4</ele>
        <time>2014-05-18T09:48:47.000Z</time>
      </trkpt>
      <trkpt lat="47.4806" lon="6.76554">
        <ele>316.5</ele>
        <time>2014-05-18T09:48:48.000Z</time>
      </trkpt>
      <trkpt lat="47.48064" lon="6.76551">
        <ele>315.7</ele>
        <time>2014-05-18T09:48:49.000Z</time>
      </trkpt>
      <trkpt lat="47.48098" lon="6.76518">
        <ele>313.6</ele>
        <time>2014-05-18T09:48:57.000Z</time>
      </trkpt>
      <trkpt lat="47.48101" lon="6.76516">
        <ele>314.5</ele>
        <time>2014-05-18T09:48:58.000Z</time>
      </trkpt>
      <trkpt lat="47.48106" lon="6.76517">
        <ele>314.6</ele>
        <time>2014-05-18T09:48:59.000Z</time>
      </trkpt>
      <trkpt lat="47.48109" lon="6.7652">
        <ele>314.9</ele>
        <time>2014-05-18T09:49:00.000Z</time>
      </trkpt>
      <trkpt lat="47.48113" lon="6.76524">
        <ele>315.4</ele>
        <time>2014-05-18T09:49:01.000Z</time>
      </trkpt>
      <trkpt lat="47.48116" lon="6.76531">
        <ele>314.8</ele>
        <time>2014-05-18T09:49:02.000Z</time>
      </trkpt>
      <trkpt lat="47.48118" lon="6.76537">
        <ele>315.5</ele>
        <time>2014-05-18T09:49:03.000Z</time>
      </trkpt>
      <trkpt lat="47.48121" lon="6.76543">
        <ele>315.7</ele>
        <time>2014-05-18T09:49:04.000Z</time>
      </trkpt>
      <trkpt lat="47.48119" lon="6.76551">
        <ele>316</ele>
        <time>2014-05-18T09:49:05.000Z</time>
      </trkpt>
      <trkpt lat="47.48117" lon="6.76557">
        <ele>316</ele>
        <time>2014-05-18T09:49:06.000Z</time>
      </trkpt>
      <trkpt lat="47.48114" lon="6.76563">
        <ele>315.3</ele>
        <time>2014-05-18T09:49:07.000Z</time>
      </trkpt>
      <trkpt lat="47.48109" lon="6.7657">
        <ele>315.3</ele>
        <time>2014-05-18T09:49:08.000Z</time>
      </trkpt>
      <trkpt lat="47.48105" lon="6.76577">
        <ele>314.3</ele>
        <time>2014-05-18T09:49:09.000Z</time>
      </trkpt>
      <trkpt lat="47.48101" lon="6.76585">
        <ele>313.4</ele>
        <time>2014-05-18T09:49:10.000Z</time>
      </trkpt>
      <trkpt lat="47.48098" lon="6.76592">
        <ele>313.6</ele>
        <time>2014-05-18T09:49:11.000Z</time>
      </trkpt>
      <trkpt lat="47.48094" lon="6.766">
        <ele>313</ele>
        <time>2014-05-18T09:49:12.000Z</time>
      </trkpt>
      <trkpt lat="47.48093" lon="6.76609">
        <ele>313.1</ele>
        <time>2014-05-18T09:49:13.000Z</time>
      </trkpt>
      <trkpt lat="47.48093" lon="6.76617">
        <ele>313.2</ele>
        <time>2014-05-18T09:49:14.000Z</time>
      </trkpt>
      <trkpt lat="47.48093" lon="6.76625">
        <ele>313.8</ele>
        <time>2014-05-18T09:49:15.000Z</time>
      </trkpt>
      <trkpt lat="47.48095" lon="6.76633">
        <ele>313.2</ele>
        <time>2014-05-18T09:49:16.000Z</time>
      </trkpt>
      <trkpt lat="47.48096" lon="6.76639">
        <ele>313.3</ele>
        <time>2014-05-18T09:49:17.000Z</time>
      </trkpt>
      <trkpt lat="47.481" lon="6.76647">
        <ele>314.6</ele>
        <time>2014-05-18T09:49:18.000Z</time>
      </trkpt>
      <trkpt lat="47.48104" lon="6.76654">
        <ele>315.5</ele>
        <time>2014-05-18T09:49:19.000Z</time>
      </trkpt>
      <trkpt lat="47.4811" lon="6.7666">
        <ele>316.3</ele>
        <time>2014-05-18T09:49:20.000Z</time>
      </trkpt>
      <trkpt lat="47.48114" lon="6.76667">
        <ele>317.6</ele>
        <time>2014-05-18T09:49:21.000Z</time>
      </trkpt>
      <trkpt lat="47.48118" lon="6.76672">
        <ele>318.5</ele>
        <time>2014-05-18T09:49:22.000Z</time>
      </trkpt>
      <trkpt lat="47.48121" lon="6.76677">
        <ele>318</ele>
        <time>2014-05-18T09:49:23.000Z</time>
      </trkpt>
      <trkpt lat="47.48125" lon="6.76683">
        <ele>317</ele>
        <time>2014-05-18T09:49:24.000Z</time>
      </trkpt>
      <trkpt lat="47.48129" lon="6.76692">
        <ele>316.7</ele>
        <time>2014-05-18T09:49:25.000Z</time>
      </trkpt>
      <trkpt lat="47.48131" lon="6.76698">
        <ele>316.1</ele>
        <time>2014-05-18T09:49:26.000Z</time>
      </trkpt>
      <trkpt lat="47.48132" lon="6.76705">
        <ele>315.5</ele>
        <time>2014-05-18T09:49:27.000Z</time>
      </trkpt>
      <trkpt lat="47.48135" lon="6.76713">
        <ele>314.8</ele>
        <time>2014-05-18T09:49:28.000Z</time>
      </trkpt>
      <trkpt lat="47.48139" lon="6.76721">
        <ele>313.1</ele>
        <time>2014-05-18T09:49:29.000Z</time>
      </trkpt>
      <trkpt lat="47.48143" lon="6.76729">
        <ele>312.9</ele>
        <time>2014-05-18T09:49:30.000Z</time>
      </trkpt>
      <trkpt lat="47.48147" lon="6.76737">
        <ele>312.6</ele>
        <time>2014-05-18T09:49:31.000Z</time>
      </trkpt>
      <trkpt lat="47.48151" lon="6.76743">
        <ele>312.6</ele>
        <time>2014-05-18T09:49:32.000Z</time>
      </trkpt>
      <trkpt lat="47.48156" lon="6.76751">
        <ele>312.9</ele>
        <time>2014-05-18T09:49:33.000Z</time>
      </trkpt>
      <trkpt lat="47.48161" lon="6.76757">
        <ele>313.3</ele>
        <time>2014-05-18T09:49:34.000Z</time>
      </trkpt>
      <trkpt lat="47.48168" lon="6.76763">
        <ele>314.3</ele>
        <time>2014-05-18T09:49:35.000Z</time>
      </trkpt>
      <trkpt lat="47.48173" lon="6.76768">
        <ele>313.5</ele>
        <time>2014-05-18T09:49:36.000Z</time>
      </trkpt>
      <trkpt lat="47.48178" lon="6.76772">
        <ele>313.8</ele>
        <time>2014-05-18T09:49:37.000Z</time>
      </trkpt>
      <trkpt lat="47.48184" lon="6.76777">
        <ele>312.6</ele>
        <time>2014-05-18T09:49:38.000Z</time>
      </trkpt>
      <trkpt lat="47.48189" lon="6.7678">
        <ele>312</ele>
        <time>2014-05-18T09:49:39.000Z</time>
      </trkpt>
      <trkpt lat="47.48193" lon="6.76783">
        <ele>312.2</ele>
        <time>2014-05-18T09:49:40.000Z</time>
      </trkpt>
      <trkpt lat="47.48199" lon="6.76785">
        <ele>312.3</ele>
        <time>2014-05-18T09:49:41.000Z</time>
      </trkpt>
      <trkpt lat="47.48204" lon="6.76788">
        <ele>312.8</ele>
        <time>2014-05-18T09:49:42.000Z</time>
      </trkpt>
      <trkpt lat="47.4821" lon="6.76791">
        <ele>313.2</ele>
        <time>2014-05-18T09:49:43.000Z</time>
      </trkpt>
      <trkpt lat="47.48216" lon="6.76793">
        <ele>313.8</ele>
        <time>2014-05-18T09:49:44.000Z</time>
      </trkpt>
      <trkpt lat="47.48222" lon="6.76796">
        <ele>313.4</ele>
        <time>2014-05-18T09:49:45.000Z</time>
      </trkpt>
      <trkpt lat="47.48228" lon="6.76798">
        <ele>313.5</ele>
        <time>2014-05-18T09:49:46.000Z</time>
      </trkpt>
      <trkpt lat="47.48233" lon="6.76801">
        <ele>314</ele>
        <time>2014-05-18T09:49:47.000Z</time>
      </trkpt>
      <trkpt lat="47.48238" lon="6.76803">
        <ele>313.9</ele>
        <time>2014-05-18T09:49:48.000Z</time>
      </trkpt>
      <trkpt lat="47.48242" lon="6.76807">
        <ele>314.1</ele>
        <time>2014-05-18T09:49:49.000Z</time>
      </trkpt>
      <trkpt lat="47.48273" lon="6.76852">
        <ele>315</ele>
        <time>2014-05-18T09:49:57.000Z</time>
      </trkpt>
      <trkpt lat="47.48277" lon="6.76858">
        <ele>314.8</ele>
        <time>2014-05-18T09:49:58.000Z</time>
      </trkpt>
      <trkpt lat="47.48281" lon="6.76865">
        <ele>314.5</ele>
        <time>2014-05-18T09:49:59.000Z</time>
      </trkpt>
      <trkpt lat="47.48285" lon="6.76871">
        <ele>314.3</ele>
        <time>2014-05-18T09:50:00.000Z</time>
      </trkpt>
      <trkpt lat="47.4829" lon="6.76877">
        <ele>313.9</ele>
        <time>2014-05-18T09:50:01.000Z</time>
      </trkpt>
      <trkpt lat="47.48294" lon="6.76881">
        <ele>313.3</ele>
        <time>2014-05-18T09:50:02.000Z</time>
      </trkpt>
      <trkpt lat="47.48299" lon="6.76885">
        <ele>313.7</ele>
        <time>2014-05-18T09:50:03.000Z</time>
      </trkpt>
      <trkpt lat="47.48304" lon="6.76889">
        <ele>312.6</ele>
        <time>2014-05-18T09:50:04.000Z</time>
      </trkpt>
      <trkpt lat="47.4831" lon="6.76894">
        <ele>313.1</ele>
        <time>2014-05-18T09:50:05.000Z</time>
      </trkpt>
      <trkpt lat="47.48315" lon="6.76898">
        <ele>312.8</ele>
        <time>2014-05-18T09:50:05.999Z</time>
      </trkpt>
      <trkpt lat="47.48321" lon="6.76903">
        <ele>315.3</ele>
        <time>2014-05-18T09:50:07.000Z</time>
      </trkpt>
      <trkpt lat="47.48327" lon="6.76908">
        <ele>315.3</ele>
        <time>2014-05-18T09:50:08.000Z</time>
      </trkpt>
      <trkpt lat="47.48332" lon="6.76912">
        <ele>313.1</ele>
        <time>2014-05-18T09:50:09.000Z</time>
      </trkpt>
      <trkpt lat="47.48336" lon="6.76916">
        <ele>312.9</ele>
        <time>2014-05-18T09:50:10.000Z</time>
      </trkpt>
      <trkpt lat="47.48342" lon="6.76919">
        <ele>311.5</ele>
        <time>2014-05-18T09:50:11.000Z</time>
      </trkpt>
      <trkpt lat="47.48348" lon="6.76923">
        <ele>310.9</ele>
        <time>2014-05-18T09:50:12.000Z</time>
      </trkpt>
      <trkpt lat="47.48356" lon="6.76927">
        <ele>311.8</ele>
        <time>2014-05-18T09:50:13.000Z</time>
      </trkpt>
      <trkpt lat="47.48363" lon="6.76931">
        <ele>312.5</ele>
        <time>2014-05-18T09:50:14.000Z</time>
      </trkpt>
      <trkpt lat="47.48371" lon="6.76935">
        <ele>313.3</ele>
        <time>2014-05-18T09:50:15.000Z</time>
      </trkpt>
      <trkpt lat="47.48378" lon="6.76939">
        <ele>313.3</ele>
        <time>2014-05-18T09:50:16.000Z</time>
      </trkpt>
      <trkpt lat="47.48385" lon="6.76944">
        <ele>313</ele>
        <time>2014-05-18T09:50:17.000Z</time>
      </trkpt>
      <trkpt lat="47.48393" lon="6.76948">
        <ele>314.8</ele>
        <time>2014-05-18T09:50:18.000Z</time>
      </trkpt>
      <trkpt lat="47.48399" lon="6.76953">
        <ele>315.6</ele>
        <time>2014-05-18T09:50:19.000Z</time>
      </trkpt>
      <trkpt lat="47.48407" lon="6.76956">
        <ele>315.7</ele>
        <time>2014-05-18T09:50:20.000Z</time>
      </trkpt>
      <trkpt lat="47.48413" lon="6.76958">
        <ele>318.4</ele>
        <time>2014-05-18T09:50:21.000Z</time>
      </trkpt>
      <trkpt lat="47.48421" lon="6.76962">
        <ele>318.6</ele>
        <time>2014-05-18T09:50:22.000Z</time>
      </trkpt>
      <trkpt lat="47.48426" lon="6.76963">
        <ele>321</ele>
        <time>2014-05-18T09:50:23.000Z</time>
      </trkpt>
      <trkpt lat="47.48432" lon="6.76966">
        <ele>320.1</ele>
        <time>2014-05-18T09:50:24.000Z</time>
      </trkpt>
      <trkpt lat="47.48439" lon="6.76971">
        <ele>319.8</ele>
        <time>2014-05-18T09:50:25.000Z</time>
      </trkpt>
      <trkpt lat="47.48444" lon="6.76975">
        <ele>319.6</ele>
        <time>2014-05-18T09:50:26.000Z</time>
      </trkpt>
      <trkpt lat="47.48451" lon="6.7698">
        <ele>320.2</ele>
        <time>2014-05-18T09:50:27.000Z</time>
      </trkpt>
      <trkpt lat="47.48457" lon="6.76985">
        <ele>320.5</ele>
        <time>2014-05-18T09:50:28.000Z</time>
      </trkpt>
      <trkpt lat="47.48463" lon="6.76988">
        <ele>324.6</ele>
        <time>2014-05-18T09:50:29.000Z</time>
      </trkpt>
      <trkpt lat="47.4847" lon="6.76991">
        <ele>328.3</ele>
        <time>2014-05-18T09:50:30.000Z</time>
      </trkpt>
      <trkpt lat="47.48476" lon="6.76996">
        <ele>327.4</ele>
        <time>2014-05-18T09:50:31.000Z</time>
      </trkpt>
      <trkpt lat="47.48483" lon="6.77">
        <ele>329.4</ele>
        <time>2014-05-18T09:50:32.000Z</time>
      </trkpt>
      <trkpt lat="47.48489" lon="6.77003">
        <ele>331.6</ele>
        <time>2014-05-18T09:50:33.000Z</time>
      </trkpt>
      <trkpt lat="47.48494" lon="6.77008">
        <ele>331.8</ele>
        <time>2014-05-18T09:50:34.000Z</time>
      </trkpt>
      <trkpt lat="47.48501" lon="6.77012">
        <ele>333.6</ele>
        <time>2014-05-18T09:50:35.000Z</time>
      </trkpt>
      <trkpt lat="47.48508" lon="6.77017">
        <ele>334.2</ele>
        <time>2014-05-18T09:50:36.000Z</time>
      </trkpt>
      <trkpt lat="47.48515" lon="6.77023">
        <ele>333.3</ele>
        <time>2014-05-18T09:50:37.000Z</time>
      </trkpt>
      <trkpt lat="47.48521" lon="6.77028">
        <ele>333.1</ele>
        <time>2014-05-18T09:50:38.000Z</time>
      </trkpt>
      <trkpt lat="47.48528" lon="6.77033">
        <ele>332.8</ele>
        <time>2014-05-18T09:50:39.000Z</time>
      </trkpt>
      <trkpt lat="47.48536" lon="6.77038">
        <ele>333</ele>
        <time>2014-05-18T09:50:40.000Z</time>
      </trkpt>
      <trkpt lat="47.48543" lon="6.77042">
        <ele>332.5</ele>
        <time>2014-05-18T09:50:41.000Z</time>
      </trkpt>
      <trkpt lat="47.48551" lon="6.77045">
        <ele>331.8</ele>
        <time>2014-05-18T09:50:42.000Z</time>
      </trkpt>
      <trkpt lat="47.48558" lon="6.77046">
        <ele>331.6</ele>
        <time>2014-05-18T09:50:43.000Z</time>
      </trkpt>
      <trkpt lat="47.48564" lon="6.77049">
        <ele>332.5</ele>
        <time>2014-05-18T09:50:44.000Z</time>
      </trkpt>
      <trkpt lat="47.4857" lon="6.77052">
        <ele>333</ele>
        <time>2014-05-18T09:50:45.000Z</time>
      </trkpt>
      <trkpt lat="47.48577" lon="6.77056">
        <ele>330.3</ele>
        <time>2014-05-18T09:50:46.000Z</time>
      </trkpt>
      <trkpt lat="47.48583" lon="6.77059">
        <ele>330.1</ele>
        <time>2014-05-18T09:50:47.000Z</time>
      </trkpt>
      <trkpt lat="47.48589" lon="6.77063">
        <ele>328.5</ele>
        <time>2014-05-18T09:50:48.000Z</time>
      </trkpt>
      <trkpt lat="47.48607" lon="6.77077">
        <ele>325.1</ele>
        <time>2014-05-18T09:50:51.000Z</time>
      </trkpt>
      <trkpt lat="47.48613" lon="6.77081">
        <ele>324.8</ele>
        <time>2014-05-18T09:50:52.000Z</time>
      </trkpt>
      <trkpt lat="47.48619" lon="6.77084">
        <ele>324.1</ele>
        <time>2014-05-18T09:50:53.000Z</time>
      </trkpt>
      <trkpt lat="47.48626" lon="6.77087">
        <ele>324</ele>
        <time>2014-05-18T09:50:54.000Z</time>
      </trkpt>
      <trkpt lat="47.48631" lon="6.77092">
        <ele>322.5</ele>
        <time>2014-05-18T09:50:55.000Z</time>
      </trkpt>
      <trkpt lat="47.48638" lon="6.77099">
        <ele>322.8</ele>
        <time>2014-05-18T09:50:56.000Z</time>
      </trkpt>
      <trkpt lat="47.48644" lon="6.77107">
        <ele>322.4</ele>
        <time>2014-05-18T09:50:57.000Z</time>
      </trkpt>
      <trkpt lat="47.4865" lon="6.77116">
        <ele>323</ele>
        <time>2014-05-18T09:50:58.000Z</time>
      </trkpt>
      <trkpt lat="47.48655" lon="6.77124">
        <ele>323</ele>
        <time>2014-05-18T09:50:59.000Z</time>
      </trkpt>
      <trkpt lat="47.48662" lon="6.77132">
        <ele>323.9</ele>
        <time>2014-05-18T09:51:00.000Z</time>
      </trkpt>
      <trkpt lat="47.48669" lon="6.77139">
        <ele>322.6</ele>
        <time>2014-05-18T09:51:01.000Z</time>
      </trkpt>
      <trkpt lat="47.48676" lon="6.77145">
        <ele>321.6</ele>
        <time>2014-05-18T09:51:02.000Z</time>
      </trkpt>
      <trkpt lat="47.48681" lon="6.77152">
        <ele>320.5</ele>
        <time>2014-05-18T09:51:03.000Z</time>
      </trkpt>
      <trkpt lat="47.48688" lon="6.77159">
        <ele>321.7</ele>
        <time>2014-05-18T09:51:04.000Z</time>
      </trkpt>
      <trkpt lat="47.48696" lon="6.77166">
        <ele>321.1</ele>
        <time>2014-05-18T09:51:05.000Z</time>
      </trkpt>
      <trkpt lat="47.48703" lon="6.77172">
        <ele>321</ele>
        <time>2014-05-18T09:51:06.000Z</time>
      </trkpt>
      <trkpt lat="47.4871" lon="6.77179">
        <ele>322.2</ele>
        <time>2014-05-18T09:51:07.000Z</time>
      </trkpt>
      <trkpt lat="47.48716" lon="6.77183">
        <ele>321.4</ele>
        <time>2014-05-18T09:51:08.000Z</time>
      </trkpt>
      <trkpt lat="47.48722" lon="6.77188">
        <ele>321.3</ele>
        <time>2014-05-18T09:51:09.000Z</time>
      </trkpt>
      <trkpt lat="47.48728" lon="6.77193">
        <ele>320.2</ele>
        <time>2014-05-18T09:51:10.000Z</time>
      </trkpt>
      <trkpt lat="47.48735" lon="6.77198">
        <ele>320.8</ele>
        <time>2014-05-18T09:51:11.000Z</time>
      </trkpt>
      <trkpt lat="47.48744" lon="6.77204">
        <ele>320.1</ele>
        <time>2014-05-18T09:51:12.000Z</time>
      </trkpt>
      <trkpt lat="47.48752" lon="6.77211">
        <ele>319.4</ele>
        <time>2014-05-18T09:51:13.000Z</time>
      </trkpt>
      <trkpt lat="47.48759" lon="6.77215">
        <ele>319.1</ele>
        <time>2014-05-18T09:51:14.000Z</time>
      </trkpt>
      <trkpt lat="47.48766" lon="6.7722">
        <ele>318.1</ele>
        <time>2014-05-18T09:51:15.000Z</time>
      </trkpt>
      <trkpt lat="47.48773" lon="6.77225">
        <ele>317.7</ele>
        <time>2014-05-18T09:51:16.000Z</time>
      </trkpt>
      <trkpt lat="47.4878" lon="6.7723">
        <ele>317.9</ele>
        <time>2014-05-18T09:51:17.000Z</time>
      </trkpt>
      <trkpt lat="47.48788" lon="6.77235">
        <ele>317.4</ele>
        <time>2014-05-18T09:51:18.000Z</time>
      </trkpt>
      <trkpt lat="47.48796" lon="6.77242">
        <ele>319.3</ele>
        <time>2014-05-18T09:51:19.000Z</time>
      </trkpt>
      <trkpt lat="47.48803" lon="6.77248">
        <ele>319.7</ele>
        <time>2014-05-18T09:51:20.000Z</time>
      </trkpt>
      <trkpt lat="47.48811" lon="6.77253">
        <ele>320.2</ele>
        <time>2014-05-18T09:51:21.000Z</time>
      </trkpt>
      <trkpt lat="47.48817" lon="6.77257">
        <ele>320.4</ele>
        <time>2014-05-18T09:51:22.000Z</time>
      </trkpt>
      <trkpt lat="47.48823" lon="6.77263">
        <ele>319.9</ele>
        <time>2014-05-18T09:51:23.000Z</time>
      </trkpt>
      <trkpt lat="47.48831" lon="6.77268">
        <ele>320.4</ele>
        <time>2014-05-18T09:51:24.000Z</time>
      </trkpt>
      <trkpt lat="47.48838" lon="6.77272">
        <ele>320.2</ele>
        <time>2014-05-18T09:51:25.000Z</time>
      </trkpt>
      <trkpt lat="47.48845" lon="6.77277">
        <ele>320</ele>
        <time>2014-05-18T09:51:26.000Z</time>
      </trkpt>
      <trkpt lat="47.48852" lon="6.77281">
        <ele>319.7</ele>
        <time>2014-05-18T09:51:27.000Z</time>
      </trkpt>
      <trkpt lat="47.48859" lon="6.77286">
        <ele>319.6</ele>
        <time>2014-05-18T09:51:28.000Z</time>
      </trkpt>
      <trkpt lat="47.48868" lon="6.77288">
        <ele>318.9</ele>
        <time>2014-05-18T09:51:29.000Z</time>
      </trkpt>
      <trkpt lat="47.48876" lon="6.77291">
        <ele>318.4</ele>
        <time>2014-05-18T09:51:30.000Z</time>
      </trkpt>
      <trkpt lat="47.48884" lon="6.77292">
        <ele>320.3</ele>
        <time>2014-05-18T09:51:31.000Z</time>
      </trkpt>
      <trkpt lat="47.48892" lon="6.77295">
        <ele>320.2</ele>
        <time>2014-05-18T09:51:32.000Z</time>
      </trkpt>
      <trkpt lat="47.489" lon="6.77298">
        <ele>320.4</ele>
        <time>2014-05-18T09:51:33.000Z</time>
      </trkpt>
      <trkpt lat="47.48907" lon="6.77301">
        <ele>320.5</ele>
        <time>2014-05-18T09:51:34.000Z</time>
      </trkpt>
      <trkpt lat="47.48913" lon="6.77305">
        <ele>320.7</ele>
        <time>2014-05-18T09:51:35.000Z</time>
      </trkpt>
      <trkpt lat="47.48921" lon="6.77307">
        <ele>321.5</ele>
        <time>2014-05-18T09:51:36.000Z</time>
      </trkpt>
      <trkpt lat="47.48928" lon="6.7731">
        <ele>321.4</ele>
        <time>2014-05-18T09:51:37.000Z</time>
      </trkpt>
      <trkpt lat="47.48935" lon="6.77312">
        <ele>320.5</ele>
        <time>2014-05-18T09:51:38.000Z</time>
      </trkpt>
      <trkpt lat="47.48942" lon="6.77314">
        <ele>320.1</ele>
        <time>2014-05-18T09:51:39.000Z</time>
      </trkpt>
      <trkpt lat="47.48947" lon="6.77317">
        <ele>319.1</ele>
        <time>2014-05-18T09:51:40.000Z</time>
      </trkpt>
      <trkpt lat="47.48954" lon="6.77319">
        <ele>318.2</ele>
        <time>2014-05-18T09:51:41.000Z</time>
      </trkpt>
      <trkpt lat="47.48962" lon="6.77321">
        <ele>317.8</ele>
        <time>2014-05-18T09:51:42.000Z</time>
      </trkpt>
      <trkpt lat="47.48969" lon="6.77321">
        <ele>317.3</ele>
        <time>2014-05-18T09:51:43.000Z</time>
      </trkpt>
      <trkpt lat="47.48977" lon="6.77323">
        <ele>317.6</ele>
        <time>2014-05-18T09:51:44.000Z</time>
      </trkpt>
      <trkpt lat="47.48983" lon="6.77323">
        <ele>317.8</ele>
        <time>2014-05-18T09:51:45.000Z</time>
      </trkpt>
      <trkpt lat="47.48991" lon="6.77324">
        <ele>317.4</ele>
        <time>2014-05-18T09:51:46.000Z</time>
      </trkpt>
      <trkpt lat="47.48998" lon="6.77326">
        <ele>317</ele>
        <time>2014-05-18T09:51:47.000Z</time>
      </trkpt>
      <trkpt lat="47.49005" lon="6.77326">
        <ele>316.9</ele>
        <time>2014-05-18T09:51:48.000Z</time>
      </trkpt>
      <trkpt lat="47.49061" lon="6.77329">
        <ele>314.8</ele>
        <time>2014-05-18T09:51:55.786Z</time>
      </trkpt>
      <trkpt lat="47.49069" lon="6.7733">
        <ele>314.6</ele>
        <time>2014-05-18T09:51:57.000Z</time>
      </trkpt>
      <trkpt lat="47.49076" lon="6.77329">
        <ele>315.2</ele>
        <time>2014-05-18T09:51:58.000Z</time>
      </trkpt>
      <trkpt lat="47.49084" lon="6.7733">
        <ele>315.4</ele>
        <time>2014-05-18T09:51:59.000Z</time>
      </trkpt>
      <trkpt lat="47.4909" lon="6.7733">
        <ele>316</ele>
        <time>2014-05-18T09:52:00.000Z</time>
      </trkpt>
      <trkpt lat="47.49096" lon="6.77329">
        <ele>315</ele>
        <time>2014-05-18T09:52:01.000Z</time>
      </trkpt>
      <trkpt lat="47.49101" lon="6.77329">
        <ele>314.9</ele>
        <time>2014-05-18T09:52:02.000Z</time>
      </trkpt>
      <trkpt lat="47.49106" lon="6.77329">
        <ele>314.5</ele>
        <time>2014-05-18T09:52:03.000Z</time>
      </trkpt>
      <trkpt lat="47.49112" lon="6.77329">
        <ele>313.8</ele>
        <time>2014-05-18T09:52:04.000Z</time>
      </trkpt>
      <trkpt lat="47.49117" lon="6.7733">
        <ele>314.2</ele>
        <time>2014-05-18T09:52:05.000Z</time>
      </trkpt>
      <trkpt lat="47.49122" lon="6.7733">
        <ele>314.9</ele>
        <time>2014-05-18T09:52:06.000Z</time>
      </trkpt>
      <trkpt lat="47.49127" lon="6.77332">
        <ele>314.8</ele>
        <time>2014-05-18T09:52:07.000Z</time>
      </trkpt>
      <trkpt lat="47.4913" lon="6.77332">
        <ele>315.5</ele>
        <time>2014-05-18T09:52:08.000Z</time>
      </trkpt>
      <trkpt lat="47.49134" lon="6.77333">
        <ele>315.5</ele>
        <time>2014-05-18T09:52:09.000Z</time>
      </trkpt>
      <trkpt lat="47.4914" lon="6.77334">
        <ele>315.4</ele>
        <time>2014-05-18T09:52:10.000Z</time>
      </trkpt>
      <trkpt lat="47.49144" lon="6.77335">
        <ele>314.3</ele>
        <time>2014-05-18T09:52:11.000Z</time>
      </trkpt>
      <trkpt lat="47.49149" lon="6.77335">
        <ele>313.8</ele>
        <time>2014-05-18T09:52:12.000Z</time>
      </trkpt>
      <trkpt lat="47.49154" lon="6.77336">
        <ele>314.7</ele>
        <time>2014-05-18T09:52:13.000Z</time>
      </trkpt>
      <trkpt lat="47.49159" lon="6.77336">
        <ele>314.4</ele>
        <time>2014-05-18T09:52:14.000Z</time>
      </trkpt>
      <trkpt lat="47.49165" lon="6.77335">
        <ele>315.5</ele>
        <time>2014-05-18T09:52:15.000Z</time>
      </trkpt>
      <trkpt lat="47.4917" lon="6.77335">
        <ele>315.4</ele>
        <time>2014-05-18T09:52:16.000Z</time>
      </trkpt>
      <trkpt lat="47.49174" lon="6.77336">
        <ele>314.6</ele>
        <time>2014-05-18T09:52:17.000Z</time>
      </trkpt>
      <trkpt lat="47.49177" lon="6.77336">
        <ele>314.2</ele>
        <time>2014-05-18T09:52:18.000Z</time>
      </trkpt>
      <trkpt lat="47.49181" lon="6.77336">
        <ele>313.6</ele>
        <time>2014-05-18T09:52:19.000Z</time>
      </trkpt>
      <trkpt lat="47.49184" lon="6.77336">
        <ele>314.4</ele>
        <time>2014-05-18T09:52:20.000Z</time>
      </trkpt>
      <trkpt lat="47.49188" lon="6.77336">
        <ele>313.9</ele>
        <time>2014-05-18T09:52:21.000Z</time>
      </trkpt>
      <trkpt lat="47.49191" lon="6.77336">
        <ele>314.8</ele>
        <time>2014-05-18T09:52:22.000Z</time>
      </trkpt>
      <trkpt lat="47.49193" lon="6.77336">
        <ele>315.4</ele>
        <time>2014-05-18T09:52:23.000Z</time>
      </trkpt>
      <trkpt lat="47.49196" lon="6.77336">
        <ele>316.2</ele>
        <time>2014-05-18T09:52:24.000Z</time>
      </trkpt>
      <trkpt lat="47.49199" lon="6.77336">
        <ele>317.2</ele>
        <time>2014-05-18T09:52:25.000Z</time>
      </trkpt>
      <trkpt lat="47.49202" lon="6.77335">
        <ele>317.9</ele>
        <time>2014-05-18T09:52:26.000Z</time>
      </trkpt>
      <trkpt lat="47.49205" lon="6.77335">
        <ele>318.1</ele>
        <time>2014-05-18T09:52:27.000Z</time>
      </trkpt>
      <trkpt lat="47.49208" lon="6.77336">
        <ele>317.8</ele>
        <time>2014-05-18T09:52:28.000Z</time>
      </trkpt>
      <trkpt lat="47.49212" lon="6.77336">
        <ele>316.6</ele>
        <time>2014-05-18T09:52:31.000Z</time>
      </trkpt>
      <trkpt lat="47.49213" lon="6.77336">
        <ele>316.4</ele>
        <time>2014-05-18T09:52:32.000Z</time>
      </trkpt>
      <trkpt lat="47.49218" lon="6.77336">
        <ele>317.7</ele>
        <time>2014-05-18T09:52:34.000Z</time>
      </trkpt>
      <trkpt lat="47.4922" lon="6.77336">
        <ele>318.2</ele>
        <time>2014-05-18T09:52:35.000Z</time>
      </trkpt>
      <trkpt lat="47.49223" lon="6.77337">
        <ele>318.7</ele>
        <time>2014-05-18T09:52:36.000Z</time>
      </trkpt>
      <trkpt lat="47.49226" lon="6.77338">
        <ele>318.5</ele>
        <time>2014-05-18T09:52:37.000Z</time>
      </trkpt>
      <trkpt lat="47.4923" lon="6.77339">
        <ele>319.2</ele>
        <time>2014-05-18T09:52:39.000Z</time>
      </trkpt>
      <trkpt lat="47.49232" lon="6.77339">
        <ele>319.2</ele>
        <time>2014-05-18T09:52:40.000Z</time>
      </trkpt>
      <trkpt lat="47.49236" lon="6.77339">
        <ele>317.9</ele>
        <time>2014-05-18T09:52:43.001Z</time>
      </trkpt>
      <trkpt lat="47.49237" lon="6.7734">
        <ele>317</ele>
        <time>2014-05-18T09:52:43.999Z</time>
      </trkpt>
      <trkpt lat="47.4924" lon="6.7734">
        <ele>317.7</ele>
        <time>2014-05-18T09:52:46.000Z</time>
      </trkpt>
      <trkpt lat="47.49242" lon="6.7734">
        <ele>317.1</ele>
        <time>2014-05-18T09:52:47.000Z</time>
      </trkpt>
      <trkpt lat="47.49244" lon="6.77339">
        <ele>316.6</ele>
        <time>2014-05-18T09:52:48.000Z</time>
      </trkpt>
      <trkpt lat="47.49247" lon="6.77338">
        <ele>316.3</ele>
        <time>2014-05-18T09:52:49.000Z</time>
      </trkpt>
      <trkpt lat="47.4929" lon="6.77329">
        <ele>314.1</ele>
        <time>2014-05-18T09:52:57.000Z</time>
      </trkpt>
      <trkpt lat="47.49296" lon="6.77332">
        <ele>313.6</ele>
        <time>2014-05-18T09:52:58.000Z</time>
      </trkpt>
      <trkpt lat="47.49302" lon="6.77332">
        <ele>314.3</ele>
        <time>2014-05-18T09:52:59.000Z</time>
      </trkpt>
      <trkpt lat="47.49309" lon="6.77333">
        <ele>314.9</ele>
        <time>2014-05-18T09:53:00.000Z</time>
      </trkpt>
      <trkpt lat="47.49316" lon="6.77333">
        <ele>315.1</ele>
        <time>2014-05-18T09:53:01.000Z</time>
      </trkpt>
      <trkpt lat="47.49322" lon="6.77334">
        <ele>314.2</ele>
        <time>2014-05-18T09:53:02.000Z</time>
      </trkpt>
      <trkpt lat="47.49326" lon="6.77337">
        <ele>314.7</ele>
        <time>2014-05-18T09:53:03.000Z</time>
      </trkpt>
      <trkpt lat="47.49331" lon="6.7734">
        <ele>314.7</ele>
        <time>2014-05-18T09:53:04.000Z</time>
      </trkpt>
      <trkpt lat="47.49335" lon="6.77345">
        <ele>314.3</ele>
        <time>2014-05-18T09:53:05.000Z</time>
      </trkpt>
      <trkpt lat="47.4934" lon="6.77349">
        <ele>314.4</ele>
        <time>2014-05-18T09:53:06.000Z</time>
      </trkpt>
      <trkpt lat="47.49344" lon="6.77349">
        <ele>314.4</ele>
        <time>2014-05-18T09:53:07.000Z</time>
      </trkpt>
      <trkpt lat="47.4935" lon="6.77349">
        <ele>313.8</ele>
        <time>2014-05-18T09:53:08.000Z</time>
      </trkpt>
      <trkpt lat="47.49356" lon="6.7735">
        <ele>314.1</ele>
        <time>2014-05-18T09:53:09.000Z</time>
      </trkpt>
      <trkpt lat="47.4936" lon="6.7735">
        <ele>314.7</ele>
        <time>2014-05-18T09:53:10.000Z</time>
      </trkpt>
      <trkpt lat="47.49365" lon="6.7735">
        <ele>317.8</ele>
        <time>2014-05-18T09:53:11.000Z</time>
      </trkpt>
      <trkpt lat="47.49369" lon="6.77351">
        <ele>319.5</ele>
        <time>2014-05-18T09:53:12.000Z</time>
      </trkpt>
      <trkpt lat="47.49374" lon="6.7735">
        <ele>318.9</ele>
        <time>2014-05-18T09:53:13.000Z</time>
      </trkpt>
      <trkpt lat="47.4938" lon="6.7735">
        <ele>319</ele>
        <time>2014-05-18T09:53:14.000Z</time>
      </trkpt>
      <trkpt lat="47.49384" lon="6.7735">
        <ele>318.6</ele>
        <time>2014-05-18T09:53:15.000Z</time>
      </trkpt>
      <trkpt lat="47.49388" lon="6.77349">
        <ele>319</ele>
        <time>2014-05-18T09:53:16.000Z</time>
      </trkpt>
      <trkpt lat="47.49393" lon="6.77349">
        <ele>318.6</ele>
        <time>2014-05-18T09:53:17.000Z</time>
      </trkpt>
      <trkpt lat="47.49396" lon="6.77349">
        <ele>317.8</ele>
        <time>2014-05-18T09:53:18.000Z</time>
      </trkpt>
      <trkpt lat="47.49401" lon="6.7735">
        <ele>317.3</ele>
        <time>2014-05-18T09:53:19.000Z</time>
      </trkpt>
      <trkpt lat="47.49406" lon="6.77349">
        <ele>317.9</ele>
        <time>2014-05-18T09:53:20.000Z</time>
      </trkpt>
      <trkpt lat="47.49411" lon="6.77349">
        <ele>318.2</ele>
        <time>2014-05-18T09:53:21.000Z</time>
      </trkpt>
      <trkpt lat="47.49416" lon="6.7735">
        <ele>318.2</ele>
        <time>2014-05-18T09:53:22.000Z</time>
      </trkpt>
      <trkpt lat="47.49419" lon="6.7735">
        <ele>317.4</ele>
        <time>2014-05-18T09:53:23.000Z</time>
      </trkpt>
      <trkpt lat="47.49424" lon="6.77351">
        <ele>317.1</ele>
        <time>2014-05-18T09:53:24.000Z</time>
      </trkpt>
      <trkpt lat="47.49428" lon="6.77352">
        <ele>317.4</ele>
        <time>2014-05-18T09:53:25.000Z</time>
      </trkpt>
      <trkpt lat="47.49432" lon="6.77352">
        <ele>316.9</ele>
        <time>2014-05-18T09:53:26.000Z</time>
      </trkpt>
      <trkpt lat="47.49437" lon="6.77352">
        <ele>317.2</ele>
        <time>2014-05-18T09:53:27.000Z</time>
      </trkpt>
      <trkpt lat="47.49442" lon="6.77353">
        <ele>317.3</ele>
        <time>2014-05-18T09:53:28.000Z</time>
      </trkpt>
      <trkpt lat="47.49446" lon="6.77353">
        <ele>316.6</ele>
        <time>2014-05-18T09:53:29.000Z</time>
      </trkpt>
      <trkpt lat="47.49451" lon="6.77355">
        <ele>316</ele>
        <time>2014-05-18T09:53:30.000Z</time>
      </trkpt>
      <trkpt lat="47.49457" lon="6.77356">
        <ele>315.6</ele>
        <time>2014-05-18T09:53:31.000Z</time>
      </trkpt>
      <trkpt lat="47.49462" lon="6.77357">
        <ele>315.3</ele>
        <time>2014-05-18T09:53:32.000Z</time>
      </trkpt>
      <trkpt lat="47.49468" lon="6.77357">
        <ele>315.1</ele>
        <time>2014-05-18T09:53:33.000Z</time>
      </trkpt>
      <trkpt lat="47.49473" lon="6.77358">
        <ele>314.8</ele>
        <time>2014-05-18T09:53:34.000Z</time>
      </trkpt>
      <trkpt lat="47.49478" lon="6.77358">
        <ele>315.5</ele>
        <time>2014-05-18T09:53:35.000Z</time>
      </trkpt>
      <trkpt lat="47.49482" lon="6.77358">
        <ele>315.4</ele>
        <time>2014-05-18T09:53:36.000Z</time>
      </trkpt>
      <trkpt lat="47.49487" lon="6.77358">
        <ele>316.6</ele>
        <time>2014-05-18T09:53:37.000Z</time>
      </trkpt>
      <trkpt lat="47.49493" lon="6.77358">
        <ele>315.7</ele>
        <time>2014-05-18T09:53:38.000Z</time>
      </trkpt>
      <trkpt lat="47.49498" lon="6.77359">
        <ele>315.3</ele>
        <time>2014-05-18T09:53:39.000Z</time>
      </trkpt>
      <trkpt lat="47.49504" lon="6.77359">
        <ele>315.6</ele>
        <time>2014-05-18T09:53:40.000Z</time>
      </trkpt>
      <trkpt lat="47.49509" lon="6.7736">
        <ele>315.6</ele>
        <time>2014-05-18T09:53:41.000Z</time>
      </trkpt>
      <trkpt lat="47.49515" lon="6.7736">
        <ele>315.9</ele>
        <time>2014-05-18T09:53:42.000Z</time>
      </trkpt>
      <trkpt lat="47.4952" lon="6.77361">
        <ele>316.6</ele>
        <time>2014-05-18T09:53:43.000Z</time>
      </trkpt>
      <trkpt lat="47.49526" lon="6.7736">
        <ele>317.5</ele>
        <time>2014-05-18T09:53:44.000Z</time>
      </trkpt>
      <trkpt lat="47.49531" lon="6.7736">
        <ele>318.7</ele>
        <time>2014-05-18T09:53:45.000Z</time>
      </trkpt>
      <trkpt lat="47.49537" lon="6.7736">
        <ele>318.3</ele>
        <time>2014-05-18T09:53:46.000Z</time>
      </trkpt>
      <trkpt lat="47.49542" lon="6.7736">
        <ele>318.5</ele>
        <time>2014-05-18T09:53:47.000Z</time>
      </trkpt>
      <trkpt lat="47.49548" lon="6.77361">
        <ele>318.7</ele>
        <time>2014-05-18T09:53:48.000Z</time>
      </trkpt>
      <trkpt lat="47.4959" lon="6.77363">
        <ele>315.4</ele>
        <time>2014-05-18T09:53:55.770Z</time>
      </trkpt>
      <trkpt lat="47.49596" lon="6.77363">
        <ele>315.6</ele>
        <time>2014-05-18T09:53:57.000Z</time>
      </trkpt>
      <trkpt lat="47.49602" lon="6.77362">
        <ele>316.3</ele>
        <time>2014-05-18T09:53:58.000Z</time>
      </trkpt>
      <trkpt lat="47.49609" lon="6.77362">
        <ele>316.4</ele>
        <time>2014-05-18T09:53:59.000Z</time>
      </trkpt>
      <trkpt lat="47.49613" lon="6.7736">
        <ele>316.5</ele>
        <time>2014-05-18T09:54:00.000Z</time>
      </trkpt>
      <trkpt lat="47.49619" lon="6.7736">
        <ele>316.2</ele>
        <time>2014-05-18T09:54:01.000Z</time>
      </trkpt>
      <trkpt lat="47.49623" lon="6.77358">
        <ele>315.8</ele>
        <time>2014-05-18T09:54:02.000Z</time>
      </trkpt>
      <trkpt lat="47.49628" lon="6.77357">
        <ele>315.9</ele>
        <time>2014-05-18T09:54:03.000Z</time>
      </trkpt>
      <trkpt lat="47.49633" lon="6.77356">
        <ele>316.8</ele>
        <time>2014-05-18T09:54:04.000Z</time>
      </trkpt>
      <trkpt lat="47.49638" lon="6.77355">
        <ele>316.2</ele>
        <time>2014-05-18T09:54:05.000Z</time>
      </trkpt>
      <trkpt lat="47.49644" lon="6.77353">
        <ele>317.1</ele>
        <time>2014-05-18T09:54:06.000Z</time>
      </trkpt>
      <trkpt lat="47.49647" lon="6.7735">
        <ele>316.9</ele>
        <time>2014-05-18T09:54:07.000Z</time>
      </trkpt>
      <trkpt lat="47.49652" lon="6.77348">
        <ele>316.4</ele>
        <time>2014-05-18T09:54:08.000Z</time>
      </trkpt>
      <trkpt lat="47.49657" lon="6.77346">
        <ele>316.6</ele>
        <time>2014-05-18T09:54:09.000Z</time>
      </trkpt>
      <trkpt lat="47.49664" lon="6.77346">
        <ele>317.5</ele>
        <time>2014-05-18T09:54:10.000Z</time>
      </trkpt>
      <trkpt lat="47.49669" lon="6.77345">
        <ele>317.7</ele>
        <time>2014-05-18T09:54:11.000Z</time>
      </trkpt>
      <trkpt lat="47.49674" lon="6.77344">
        <ele>317.4</ele>
        <time>2014-05-18T09:54:12.000Z</time>
      </trkpt>
      <trkpt lat="47.49678" lon="6.77343">
        <ele>316.2</ele>
        <time>2014-05-18T09:54:13.000Z</time>
      </trkpt>
      <trkpt lat="47.49683" lon="6.77341">
        <ele>316.3</ele>
        <time>2014-05-18T09:54:14.000Z</time>
      </trkpt>
      <trkpt lat="47.49688" lon="6.7734">
        <ele>317.7</ele>
        <time>2014-05-18T09:54:15.000Z</time>
      </trkpt>
      <trkpt lat="47.49693" lon="6.77339">
        <ele>317.8</ele>
        <time>2014-05-18T09:54:16.000Z</time>
      </trkpt>
      <trkpt lat="47.49699" lon="6.77338">
        <ele>317.9</ele>
        <time>2014-05-18T09:54:17.000Z</time>
      </trkpt>
      <trkpt lat="47.49704" lon="6.77337">
        <ele>316.7</ele>
        <time>2014-05-18T09:54:18.000Z</time>
      </trkpt>
      <trkpt lat="47.49709" lon="6.77335">
        <ele>316.9</ele>
        <time>2014-05-18T09:54:19.000Z</time>
      </trkpt>
      <trkpt lat="47.49714" lon="6.77334">
        <ele>316.6</ele>
        <time>2014-05-18T09:54:20.000Z</time>
      </trkpt>
      <trkpt lat="47.49718" lon="6.77334">
        <ele>316.6</ele>
        <time>2014-05-18T09:54:21.000Z</time>
      </trkpt>
      <trkpt lat="47.49722" lon="6.77333">
        <ele>316.8</ele>
        <time>2014-05-18T09:54:22.000Z</time>
      </trkpt>
      <trkpt lat="47.49726" lon="6.77333">
        <ele>317.3</ele>
        <time>2014-05-18T09:54:23.000Z</time>
      </trkpt>
      <trkpt lat="47.49729" lon="6.7733">
        <ele>316</ele>
        <time>2014-05-18T09:54:24.000Z</time>
      </trkpt>
      <trkpt lat="47.49732" lon="6.77328">
        <ele>314.5</ele>
        <time>2014-05-18T09:54:25.000Z</time>
      </trkpt>
      <trkpt lat="47.49735" lon="6.77326">
        <ele>314.7</ele>
        <time>2014-05-18T09:54:26.000Z</time>
      </trkpt>
      <trkpt lat="47.49738" lon="6.77327">
        <ele>322</ele>
        <time>2014-05-18T09:56:31.000Z</time>
      </trkpt>
      <trkpt lat="47.4974" lon="6.77325">
        <ele>322.4</ele>
        <time>2014-05-18T09:56:32.000Z</time>
      </trkpt>
      <trkpt lat="47.49742" lon="6.77323">
        <ele>322.3</ele>
        <time>2014-05-18T09:56:33.000Z</time>
      </trkpt>
      <trkpt lat="47.49744" lon="6.77321">
        <ele>322.3</ele>
        <time>2014-05-18T09:56:34.000Z</time>
      </trkpt>
      <trkpt lat="47.49747" lon="6.77319">
        <ele>322.4</ele>
        <time>2014-05-18T09:56:35.000Z</time>
      </trkpt>
      <trkpt lat="47.49751" lon="6.77317">
        <ele>322.4</ele>
        <time>2014-05-18T09:56:36.000Z</time>
      </trkpt>
      <trkpt lat="47.49755" lon="6.77316">
        <ele>322.3</ele>
        <time>2014-05-18T09:56:37.000Z</time>
      </trkpt>
      <trkpt lat="47.49759" lon="6.77314">
        <ele>322.5</ele>
        <time>2014-05-18T09:56:38.000Z</time>
      </trkpt>
      <trkpt lat="47.49766" lon="6.77313">
        <ele>323.3</ele>
        <time>2014-05-18T09:56:39.000Z</time>
      </trkpt>
      <trkpt lat="47.49771" lon="6.77313">
        <ele>324.1</ele>
        <time>2014-05-18T09:56:40.000Z</time>
      </trkpt>
      <trkpt lat="47.49776" lon="6.77314">
        <ele>324.2</ele>
        <time>2014-05-18T09:56:41.000Z</time>
      </trkpt>
      <trkpt lat="47.49782" lon="6.77313">
        <ele>323.7</ele>
        <time>2014-05-18T09:56:42.000Z</time>
      </trkpt>
      <trkpt lat="47.49786" lon="6.77312">
        <ele>323.5</ele>
        <time>2014-05-18T09:56:43.000Z</time>
      </trkpt>
      <trkpt lat="47.49792" lon="6.77311">
        <ele>323.7</ele>
        <time>2014-05-18T09:56:44.000Z</time>
      </trkpt>
      <trkpt lat="47.49798" lon="6.7731">
        <ele>323.4</ele>
        <time>2014-05-18T09:56:45.000Z</time>
      </trkpt>
      <trkpt lat="47.49803" lon="6.7731">
        <ele>323.6</ele>
        <time>2014-05-18T09:56:46.000Z</time>
      </trkpt>
      <trkpt lat="47.49808" lon="6.77309">
        <ele>323.4</ele>
        <time>2014-05-18T09:56:47.000Z</time>
      </trkpt>
      <trkpt lat="47.49814" lon="6.77307">
        <ele>323.3</ele>
        <time>2014-05-18T09:56:48.000Z</time>
      </trkpt>
      <trkpt lat="47.49826" lon="6.77307">
        <ele>323.6</ele>
        <time>2014-05-18T09:56:51.000Z</time>
      </trkpt>
      <trkpt lat="47.49833" lon="6.77306">
        <ele>323.7</ele>
        <time>2014-05-18T09:56:52.000Z</time>
      </trkpt>
      <trkpt lat="47.49839" lon="6.77307">
        <ele>323.2</ele>
        <time>2014-05-18T09:56:53.000Z</time>
      </trkpt>
      <trkpt lat="47.49845" lon="6.77307">
        <ele>323.5</ele>
        <time>2014-05-18T09:56:54.000Z</time>
      </trkpt>
      <trkpt lat="47.4985" lon="6.77307">
        <ele>323.6</ele>
        <time>2014-05-18T09:56:55.000Z</time>
      </trkpt>
      <trkpt lat="47.49855" lon="6.77305">
        <ele>323.7</ele>
        <time>2014-05-18T09:56:56.000Z</time>
      </trkpt>
      <trkpt lat="47.49859" lon="6.77304">
        <ele>323.2</ele>
        <time>2014-05-18T09:56:57.000Z</time>
      </trkpt>
      <trkpt lat="47.49866" lon="6.77302">
        <ele>323.4</ele>
        <time>2014-05-18T09:56:58.000Z</time>
      </trkpt>
      <trkpt lat="47.4987" lon="6.77301">
        <ele>323.4</ele>
        <time>2014-05-18T09:56:59.000Z</time>
      </trkpt>
      <trkpt lat="47.49876" lon="6.77301">
        <ele>323.5</ele>
        <time>2014-05-18T09:57:00.000Z</time>
      </trkpt>
      <trkpt lat="47.4988" lon="6.77298">
        <ele>323.2</ele>
        <time>2014-05-18T09:57:01.000Z</time>
      </trkpt>
      <trkpt lat="47.49883" lon="6.77296">
        <ele>322.6</ele>
        <time>2014-05-18T09:57:02.000Z</time>
      </trkpt>
      <trkpt lat="47.49889" lon="6.77293">
        <ele>322</ele>
        <time>2014-05-18T09:57:03.000Z</time>
      </trkpt>
      <trkpt lat="47.49894" lon="6.7729">
        <ele>322</ele>
        <time>2014-05-18T09:57:04.000Z</time>
      </trkpt>
      <trkpt lat="47.49897" lon="6.77287">
        <ele>321</ele>
        <time>2014-05-18T09:57:05.000Z</time>
      </trkpt>
      <trkpt lat="47.49901" lon="6.77283">
        <ele>320.3</ele>
        <time>2014-05-18T09:57:06.000Z</time>
      </trkpt>
      <trkpt lat="47.49905" lon="6.7728">
        <ele>319.1</ele>
        <time>2014-05-18T09:57:07.000Z</time>
      </trkpt>
      <trkpt lat="47.4991" lon="6.77277">
        <ele>318.7</ele>
        <time>2014-05-18T09:57:08.000Z</time>
      </trkpt>
      <trkpt lat="47.49913" lon="6.77272">
        <ele>318.5</ele>
        <time>2014-05-18T09:57:09.000Z</time>
      </trkpt>
      <trkpt lat="47.49918" lon="6.77269">
        <ele>317.5</ele>
        <time>2014-05-18T09:57:10.000Z</time>
      </trkpt>
      <trkpt lat="47.49923" lon="6.77265">
        <ele>317.6</ele>
        <time>2014-05-18T09:57:11.000Z</time>
      </trkpt>
      <trkpt lat="47.4993" lon="6.77263">
        <ele>318.9</ele>
        <time>2014-05-18T09:57:12.000Z</time>
      </trkpt>
      <trkpt lat="47.49935" lon="6.7726">
        <ele>319.2</ele>
        <time>2014-05-18T09:57:13.000Z</time>
      </trkpt>
      <trkpt lat="47.4994" lon="6.77256">
        <ele>319</ele>
        <time>2014-05-18T09:57:14.000Z</time>
      </trkpt>
      <trkpt lat="47.49946" lon="6.77254">
        <ele>319.5</ele>
        <time>2014-05-18T09:57:15.000Z</time>
      </trkpt>
      <trkpt lat="47.49951" lon="6.77251">
        <ele>319.5</ele>
        <time>2014-05-18T09:57:16.000Z</time>
      </trkpt>
      <trkpt lat="47.49959" lon="6.77252">
        <ele>320.7</ele>
        <time>2014-05-18T09:57:17.000Z</time>
      </trkpt>
      <trkpt lat="47.49965" lon="6.77249">
        <ele>320.1</ele>
        <time>2014-05-18T09:57:18.000Z</time>
      </trkpt>
      <trkpt lat="47.49971" lon="6.77248">
        <ele>319.9</ele>
        <time>2014-05-18T09:57:19.000Z</time>
      </trkpt>
      <trkpt lat="47.49977" lon="6.77245">
        <ele>320.4</ele>
        <time>2014-05-18T09:57:20.000Z</time>
      </trkpt>
      <trkpt lat="47.49981" lon="6.77242">
        <ele>320.6</ele>
        <time>2014-05-18T09:57:21.000Z</time>
      </trkpt>
      <trkpt lat="47.49986" lon="6.77239">
        <ele>321.6</ele>
        <time>2014-05-18T09:57:22.000Z</time>
      </trkpt>
      <trkpt lat="47.49993" lon="6.77238">
        <ele>324</ele>
        <time>2014-05-18T09:57:23.000Z</time>
      </trkpt>
      <trkpt lat="47.5" lon="6.77236">
        <ele>324.6</ele>
        <time>2014-05-18T09:57:24.000Z</time>
      </trkpt>
      <trkpt lat="47.50005" lon="6.77234">
        <ele>324.6</ele>
        <time>2014-05-18T09:57:25.000Z</time>
      </trkpt>
      <trkpt lat="47.50008" lon="6.77233">
        <ele>324.1</ele>
        <time>2014-05-18T09:57:26.000Z</time>
      </trkpt>
      <trkpt lat="47.50014" lon="6.77234">
        <ele>325.3</ele>
        <time>2014-05-18T09:57:27.000Z</time>
      </trkpt>
      <trkpt lat="47.50018" lon="6.77232">
        <ele>324.8</ele>
        <time>2014-05-18T09:57:28.000Z</time>
      </trkpt>
      <trkpt lat="47.50022" lon="6.77229">
        <ele>325.2</ele>
        <time>2014-05-18T09:57:29.000Z</time>
      </trkpt>
      <trkpt lat="47.50026" lon="6.77227">
        <ele>324.4</ele>
        <time>2014-05-18T09:57:30.000Z</time>
      </trkpt>
      <trkpt lat="47.5003" lon="6.77225">
        <ele>324.5</ele>
        <time>2014-05-18T09:57:31.000Z</time>
      </trkpt>
      <trkpt lat="47.50034" lon="6.77223">
        <ele>324.1</ele>
        <time>2014-05-18T09:57:32.000Z</time>
      </trkpt>
      <trkpt lat="47.50038" lon="6.7722">
        <ele>324.4</ele>
        <time>2014-05-18T09:57:33.000Z</time>
      </trkpt>
      <trkpt lat="47.50043" lon="6.77218">
        <ele>324.7</ele>
        <time>2014-05-18T09:57:34.000Z</time>
      </trkpt>
      <trkpt lat="47.50048" lon="6.77216">
        <ele>324.5</ele>
        <time>2014-05-18T09:57:35.000Z</time>
      </trkpt>
      <trkpt lat="47.50053" lon="6.77214">
        <ele>323.8</ele>
        <time>2014-05-18T09:57:36.000Z</time>
      </trkpt>
      <trkpt lat="47.50058" lon="6.77212">
        <ele>323.1</ele>
        <time>2014-05-18T09:57:37.000Z</time>
      </trkpt>
      <trkpt lat="47.50063" lon="6.77211">
        <ele>324.1</ele>
        <time>2014-05-18T09:57:38.000Z</time>
      </trkpt>
      <trkpt lat="47.50068" lon="6.77211">
        <ele>324.5</ele>
        <time>2014-05-18T09:57:39.000Z</time>
      </trkpt>
      <trkpt lat="47.50073" lon="6.77209">
        <ele>324.1</ele>
        <time>2014-05-18T09:57:40.000Z</time>
      </trkpt>
      <trkpt lat="47.50076" lon="6.77206">
        <ele>324</ele>
        <time>2014-05-18T09:57:41.000Z</time>
      </trkpt>
      <trkpt lat="47.50081" lon="6.77204">
        <ele>323.8</ele>
        <time>2014-05-18T09:57:42.000Z</time>
      </trkpt>
      <trkpt lat="47.50086" lon="6.77203">
        <ele>324</ele>
        <time>2014-05-18T09:57:43.000Z</time>
      </trkpt>
      <trkpt lat="47.50091" lon="6.772">
        <ele>324.4</ele>
        <time>2014-05-18T09:57:44.000Z</time>
      </trkpt>
      <trkpt lat="47.50094" lon="6.77197">
        <ele>323.8</ele>
        <time>2014-05-18T09:57:45.000Z</time>
      </trkpt>
      <trkpt lat="47.501" lon="6.77198">
        <ele>322.3</ele>
        <time>2014-05-18T09:57:46.000Z</time>
      </trkpt>
      <trkpt lat="47.50105" lon="6.77199">
        <ele>321.8</ele>
        <time>2014-05-18T09:57:47.000Z</time>
      </trkpt>
      <trkpt lat="47.50111" lon="6.772">
        <ele>321</ele>
        <time>2014-05-18T09:57:48.000Z</time>
      </trkpt>
      <trkpt lat="47.50158" lon="6.7722">
        <ele>320.7</ele>
        <time>2014-05-18T09:57:55.782Z</time>
      </trkpt>
      <trkpt lat="47.50164" lon="6.77225">
        <ele>320</ele>
        <time>2014-05-18T09:57:57.000Z</time>
      </trkpt>
      <trkpt lat="47.5017" lon="6.7723">
        <ele>319.1</ele>
        <time>2014-05-18T09:57:58.000Z</time>
      </trkpt>
      <trkpt lat="47.50176" lon="6.77232">
        <ele>317.5</ele>
        <time>2014-05-18T09:57:59.000Z</time>
      </trkpt>
      <trkpt lat="47.50181" lon="6.77237">
        <ele>317.4</ele>
        <time>2014-05-18T09:58:00.000Z</time>
      </trkpt>
      <trkpt lat="47.50186" lon="6.77242">
        <ele>317.5</ele>
        <time>2014-05-18T09:58:01.000Z</time>
      </trkpt>
      <trkpt lat="47.50191" lon="6.77246">
        <ele>317.8</ele>
        <time>2014-05-18T09:58:02.000Z</time>
      </trkpt>
      <trkpt lat="47.50196" lon="6.77251">
        <ele>318.6</ele>
        <time>2014-05-18T09:58:03.000Z</time>
      </trkpt>
      <trkpt lat="47.50201" lon="6.77255">
        <ele>319.7</ele>
        <time>2014-05-18T09:58:04.000Z</time>
      </trkpt>
      <trkpt lat="47.50206" lon="6.77259">
        <ele>320.2</ele>
        <time>2014-05-18T09:58:05.000Z</time>
      </trkpt>
      <trkpt lat="47.50211" lon="6.77263">
        <ele>320.7</ele>
        <time>2014-05-18T09:58:06.000Z</time>
      </trkpt>
      <trkpt lat="47.50215" lon="6.77268">
        <ele>321.1</ele>
        <time>2014-05-18T09:58:07.000Z</time>
      </trkpt>
      <trkpt lat="47.50221" lon="6.77271">
        <ele>320.6</ele>
        <time>2014-05-18T09:58:08.000Z</time>
      </trkpt>
      <trkpt lat="47.50226" lon="6.77274">
        <ele>320.7</ele>
        <time>2014-05-18T09:58:09.000Z</time>
      </trkpt>
      <trkpt lat="47.50231" lon="6.77278">
        <ele>320.1</ele>
        <time>2014-05-18T09:58:10.000Z</time>
      </trkpt>
      <trkpt lat="47.50235" lon="6.77281">
        <ele>319.6</ele>
        <time>2014-05-18T09:58:11.000Z</time>
      </trkpt>
      <trkpt lat="47.50239" lon="6.77285">
        <ele>319.6</ele>
        <time>2014-05-18T09:58:12.000Z</time>
      </trkpt>
      <trkpt lat="47.50244" lon="6.77288">
        <ele>319.4</ele>
        <time>2014-05-18T09:58:13.000Z</time>
      </trkpt>
      <trkpt lat="47.50249" lon="6.77292">
        <ele>318.8</ele>
        <time>2014-05-18T09:58:14.000Z</time>
      </trkpt>
      <trkpt lat="47.50254" lon="6.77295">
        <ele>318.9</ele>
        <time>2014-05-18T09:58:15.000Z</time>
      </trkpt>
      <trkpt lat="47.50259" lon="6.77298">
        <ele>320</ele>
        <time>2014-05-18T09:58:16.000Z</time>
      </trkpt>
      <trkpt lat="47.50264" lon="6.77301">
        <ele>320</ele>
        <time>2014-05-18T09:58:17.000Z</time>
      </trkpt>
      <trkpt lat="47.5027" lon="6.77304">
        <ele>319.4</ele>
        <time>2014-05-18T09:58:18.000Z</time>
      </trkpt>
      <trkpt lat="47.50275" lon="6.77307">
        <ele>318.3</ele>
        <time>2014-05-18T09:58:19.000Z</time>
      </trkpt>
      <trkpt lat="47.5028" lon="6.77311">
        <ele>317.9</ele>
        <time>2014-05-18T09:58:20.000Z</time>
      </trkpt>
      <trkpt lat="47.50286" lon="6.77314">
        <ele>317.5</ele>
        <time>2014-05-18T09:58:21.000Z</time>
      </trkpt>
      <trkpt lat="47.5029" lon="6.77318">
        <ele>316.3</ele>
        <time>2014-05-18T09:58:22.000Z</time>
      </trkpt>
      <trkpt lat="47.50295" lon="6.77321">
        <ele>316</ele>
        <time>2014-05-18T09:58:23.000Z</time>
      </trkpt>
      <trkpt lat="47.503" lon="6.77326">
        <ele>315.8</ele>
        <time>2014-05-18T09:58:24.000Z</time>
      </trkpt>
      <trkpt lat="47.50306" lon="6.7733">
        <ele>315.8</ele>
        <time>2014-05-18T09:58:25.000Z</time>
      </trkpt>
      <trkpt lat="47.5031" lon="6.77334">
        <ele>315.7</ele>
        <time>2014-05-18T09:58:26.000Z</time>
      </trkpt>
      <trkpt lat="47.50316" lon="6.77336">
        <ele>316.5</ele>
        <time>2014-05-18T09:58:27.000Z</time>
      </trkpt>
      <trkpt lat="47.50321" lon="6.77341">
        <ele>316.6</ele>
        <time>2014-05-18T09:58:28.000Z</time>
      </trkpt>
      <trkpt lat="47.50325" lon="6.77345">
        <ele>315.8</ele>
        <time>2014-05-18T09:58:29.000Z</time>
      </trkpt>
      <trkpt lat="47.5033" lon="6.7735">
        <ele>315.1</ele>
        <time>2014-05-18T09:58:30.000Z</time>
      </trkpt>
      <trkpt lat="47.50335" lon="6.77354">
        <ele>315</ele>
        <time>2014-05-18T09:58:31.000Z</time>
      </trkpt>
      <trkpt lat="47.5034" lon="6.77358">
        <ele>315.2</ele>
        <time>2014-05-18T09:58:32.000Z</time>
      </trkpt>
      <trkpt lat="47.50345" lon="6.77362">
        <ele>314.2</ele>
        <time>2014-05-18T09:58:33.000Z</time>
      </trkpt>
      <trkpt lat="47.5035" lon="6.77366">
        <ele>314.2</ele>
        <time>2014-05-18T09:58:34.000Z</time>
      </trkpt>
      <trkpt lat="47.50354" lon="6.77369">
        <ele>315.1</ele>
        <time>2014-05-18T09:58:35.000Z</time>
      </trkpt>
      <trkpt lat="47.50359" lon="6.77373">
        <ele>315.8</ele>
        <time>2014-05-18T09:58:36.000Z</time>
      </trkpt>
      <trkpt lat="47.50364" lon="6.77376">
        <ele>316.2</ele>
        <time>2014-05-18T09:58:37.000Z</time>
      </trkpt>
      <trkpt lat="47.50368" lon="6.77381">
        <ele>316.4</ele>
        <time>2014-05-18T09:58:38.000Z</time>
      </trkpt>
      <trkpt lat="47.50373" lon="6.77385">
        <ele>317</ele>
        <time>2014-05-18T09:58:39.000Z</time>
      </trkpt>
      <trkpt lat="47.50378" lon="6.77389">
        <ele>317.7</ele>
        <time>2014-05-18T09:58:40.000Z</time>
      </trkpt>
      <trkpt lat="47.50384" lon="6.77393">
        <ele>317.1</ele>
        <time>2014-05-18T09:58:41.000Z</time>
      </trkpt>
      <trkpt lat="47.50389" lon="6.77397">
        <ele>318</ele>
        <time>2014-05-18T09:58:42.000Z</time>
      </trkpt>
      <trkpt lat="47.50394" lon="6.774">
        <ele>317.6</ele>
        <time>2014-05-18T09:58:43.000Z</time>
      </trkpt>
      <trkpt lat="47.50398" lon="6.77404">
        <ele>316.7</ele>
        <time>2014-05-18T09:58:44.000Z</time>
      </trkpt>
      <trkpt lat="47.50402" lon="6.77408">
        <ele>317</ele>
        <time>2014-05-18T09:58:45.000Z</time>
      </trkpt>
      <trkpt lat="47.50405" lon="6.77413">
        <ele>316.1</ele>
        <time>2014-05-18T09:58:46.000Z</time>
      </trkpt>
      <trkpt lat="47.5041" lon="6.77417">
        <ele>314.9</ele>
        <time>2014-05-18T09:58:47.000Z</time>
      </trkpt>
      <trkpt lat="47.50414" lon="6.7742">
        <ele>314.9</ele>
        <time>2014-05-18T09:58:48.000Z</time>
      </trkpt>
      <trkpt lat="47.50426" lon="6.77432">
        <ele>315.2</ele>
        <time>2014-05-18T09:58:51.000Z</time>
      </trkpt>
      <trkpt lat="47.5043" lon="6.77436">
        <ele>314.3</ele>
        <time>2014-05-18T09:58:52.000Z</time>
      </trkpt>
      <trkpt lat="47.50434" lon="6.7744">
        <ele>314</ele>
        <time>2014-05-18T09:58:53.000Z</time>
      </trkpt>
      <trkpt lat="47.50438" lon="6.77444">
        <ele>314.2</ele>
        <time>2014-05-18T09:58:54.000Z</time>
      </trkpt>
      <trkpt lat="47.50444" lon="6.77448">
        <ele>314</ele>
        <time>2014-05-18T09:58:55.000Z</time>
      </trkpt>
      <trkpt lat="47.50449" lon="6.77451">
        <ele>315.2</ele>
        <time>2014-05-18T09:58:56.000Z</time>
      </trkpt>
      <trkpt lat="47.50454" lon="6.77456">
        <ele>315.6</ele>
        <time>2014-05-18T09:58:57.000Z</time>
      </trkpt>
      <trkpt lat="47.50459" lon="6.77461">
        <ele>315.8</ele>
        <time>2014-05-18T09:58:58.000Z</time>
      </trkpt>
      <trkpt lat="47.50464" lon="6.77466">
        <ele>316.4</ele>
        <time>2014-05-18T09:58:59.000Z</time>
      </trkpt>
      <trkpt lat="47.50469" lon="6.7747">
        <ele>317.5</ele>
        <time>2014-05-18T09:59:00.000Z</time>
      </trkpt>
      <trkpt lat="47.50475" lon="6.77472">
        <ele>317.4</ele>
        <time>2014-05-18T09:59:01.000Z</time>
      </trkpt>
      <trkpt lat="47.5048" lon="6.77477">
        <ele>317.5</ele>
        <time>2014-05-18T09:59:02.000Z</time>
      </trkpt>
      <trkpt lat="47.50484" lon="6.77481">
        <ele>317.3</ele>
        <time>2014-05-18T09:59:03.000Z</time>
      </trkpt>
      <trkpt lat="47.50489" lon="6.77486">
        <ele>317.1</ele>
        <time>2014-05-18T09:59:04.000Z</time>
      </trkpt>
      <trkpt lat="47.50494" lon="6.7749">
        <ele>316.7</ele>
        <time>2014-05-18T09:59:05.000Z</time>
      </trkpt>
      <trkpt lat="47.50501" lon="6.77494">
        <ele>318</ele>
        <time>2014-05-18T09:59:06.000Z</time>
      </trkpt>
      <trkpt lat="47.50505" lon="6.77498">
        <ele>318.4</ele>
        <time>2014-05-18T09:59:07.000Z</time>
      </trkpt>
      <trkpt lat="47.5051" lon="6.77501">
        <ele>316.7</ele>
        <time>2014-05-18T09:59:08.000Z</time>
      </trkpt>
      <trkpt lat="47.50515" lon="6.77504">
        <ele>317</ele>
        <time>2014-05-18T09:59:09.000Z</time>
      </trkpt>
      <trkpt lat="47.50521" lon="6.77506">
        <ele>316.6</ele>
        <time>2014-05-18T09:59:10.000Z</time>
      </trkpt>
      <trkpt lat="47.50527" lon="6.7751">
        <ele>316.5</ele>
        <time>2014-05-18T09:59:11.000Z</time>
      </trkpt>
      <trkpt lat="47.50532" lon="6.77513">
        <ele>316.7</ele>
        <time>2014-05-18T09:59:12.000Z</time>
      </trkpt>
      <trkpt lat="47.50537" lon="6.77516">
        <ele>316.5</ele>
        <time>2014-05-18T09:59:13.000Z</time>
      </trkpt>
      <trkpt lat="47.50541" lon="6.7752">
        <ele>316.5</ele>
        <time>2014-05-18T09:59:14.000Z</time>
      </trkpt>
      <trkpt lat="47.50546" lon="6.77524">
        <ele>316.5</ele>
        <time>2014-05-18T09:59:15.000Z</time>
      </trkpt>
      <trkpt lat="47.50549" lon="6.77529">
        <ele>315.8</ele>
        <time>2014-05-18T09:59:16.000Z</time>
      </trkpt>
      <trkpt lat="47.50551" lon="6.77536">
        <ele>315.4</ele>
        <time>2014-05-18T09:59:17.000Z</time>
      </trkpt>
      <trkpt lat="47.50555" lon="6.77542">
        <ele>315.5</ele>
        <time>2014-05-18T09:59:18.000Z</time>
      </trkpt>
      <trkpt lat="47.50558" lon="6.77547">
        <ele>314.6</ele>
        <time>2014-05-18T09:59:19.000Z</time>
      </trkpt>
      <trkpt lat="47.50561" lon="6.7755">
        <ele>314.7</ele>
        <time>2014-05-18T09:59:20.000Z</time>
      </trkpt>
      <trkpt lat="47.50565" lon="6.77552">
        <ele>314.2</ele>
        <time>2014-05-18T09:59:21.000Z</time>
      </trkpt>
      <trkpt lat="47.5057" lon="6.77553">
        <ele>314.7</ele>
        <time>2014-05-18T09:59:22.000Z</time>
      </trkpt>
      <trkpt lat="47.50574" lon="6.77553">
        <ele>315.1</ele>
        <time>2014-05-18T09:59:23.000Z</time>
      </trkpt>
      <trkpt lat="47.50578" lon="6.77549">
        <ele>315.7</ele>
        <time>2014-05-18T09:59:24.000Z</time>
      </trkpt>
      <trkpt lat="47.50582" lon="6.77543">
        <ele>314.8</ele>
        <time>2014-05-18T09:59:25.000Z</time>
      </trkpt>
      <trkpt lat="47.50584" lon="6.77538">
        <ele>314.8</ele>
        <time>2014-05-18T09:59:26.000Z</time>
      </trkpt>
      <trkpt lat="47.50586" lon="6.77534">
        <ele>315.3</ele>
        <time>2014-05-18T09:59:27.000Z</time>
      </trkpt>
      <trkpt lat="47.50591" lon="6.77531">
        <ele>315.3</ele>
        <time>2014-05-18T09:59:28.000Z</time>
      </trkpt>
      <trkpt lat="47.50598" lon="6.77531">
        <ele>314.5</ele>
        <time>2014-05-18T09:59:29.000Z</time>
      </trkpt>
      <trkpt lat="47.50603" lon="6.77531">
        <ele>314.2</ele>
        <time>2014-05-18T09:59:29.999Z</time>
      </trkpt>
      <trkpt lat="47.50608" lon="6.77531">
        <ele>315.4</ele>
        <time>2014-05-18T09:59:31.000Z</time>
      </trkpt>
      <trkpt lat="47.50613" lon="6.7753">
        <ele>315.9</ele>
        <time>2014-05-18T09:59:32.000Z</time>
      </trkpt>
      <trkpt lat="47.50618" lon="6.77529">
        <ele>316.1</ele>
        <time>2014-05-18T09:59:33.000Z</time>
      </trkpt>
      <trkpt lat="47.50623" lon="6.77528">
        <ele>316.5</ele>
        <time>2014-05-18T09:59:34.000Z</time>
      </trkpt>
      <trkpt lat="47.50628" lon="6.77527">
        <ele>316.8</ele>
        <time>2014-05-18T09:59:35.000Z</time>
      </trkpt>
      <trkpt lat="47.50632" lon="6.77528">
        <ele>317.2</ele>
        <time>2014-05-18T09:59:36.000Z</time>
      </trkpt>
      <trkpt lat="47.50636" lon="6.7753">
        <ele>316.5</ele>
        <time>2014-05-18T09:59:37.000Z</time>
      </trkpt>
      <trkpt lat="47.50642" lon="6.77532">
        <ele>315.7</ele>
        <time>2014-05-18T09:59:38.000Z</time>
      </trkpt>
      <trkpt lat="47.50648" lon="6.77534">
        <ele>316</ele>
        <time>2014-05-18T09:59:39.000Z</time>
      </trkpt>
      <trkpt lat="47.50654" lon="6.77534">
        <ele>317.3</ele>
        <time>2014-05-18T09:59:40.000Z</time>
      </trkpt>
      <trkpt lat="47.50658" lon="6.77535">
        <ele>318.1</ele>
        <time>2014-05-18T09:59:41.000Z</time>
      </trkpt>
      <trkpt lat="47.50664" lon="6.77535">
        <ele>317.8</ele>
        <time>2014-05-18T09:59:42.000Z</time>
      </trkpt>
      <trkpt lat="47.50668" lon="6.77535">
        <ele>317</ele>
        <time>2014-05-18T09:59:43.000Z</time>
      </trkpt>
      <trkpt lat="47.50673" lon="6.77534">
        <ele>316.4</ele>
        <time>2014-05-18T09:59:44.000Z</time>
      </trkpt>
      <trkpt lat="47.50679" lon="6.77533">
        <ele>316.8</ele>
        <time>2014-05-18T09:59:45.000Z</time>
      </trkpt>
      <trkpt lat="47.50684" lon="6.77532">
        <ele>317</ele>
        <time>2014-05-18T09:59:46.000Z</time>
      </trkpt>
      <trkpt lat="47.5069" lon="6.77531">
        <ele>317.1</ele>
        <time>2014-05-18T09:59:47.000Z</time>
      </trkpt>
      <trkpt lat="47.50696" lon="6.77531">
        <ele>318</ele>
        <time>2014-05-18T09:59:48.000Z</time>
      </trkpt>
      <trkpt lat="47.50711" lon="6.77533">
        <ele>317.6</ele>
        <time>2014-05-18T09:59:51.000Z</time>
      </trkpt>
      <trkpt lat="47.50717" lon="6.77537">
        <ele>317.6</ele>
        <time>2014-05-18T09:59:52.000Z</time>
      </trkpt>
      <trkpt lat="47.50723" lon="6.7754">
        <ele>317.6</ele>
        <time>2014-05-18T09:59:53.000Z</time>
      </trkpt>
      <trkpt lat="47.50729" lon="6.77544">
        <ele>317.3</ele>
        <time>2014-05-18T09:59:54.000Z</time>
      </trkpt>
      <trkpt lat="47.50734" lon="6.77547">
        <ele>317.4</ele>
        <time>2014-05-18T09:59:55.000Z</time>
      </trkpt>
      <trkpt lat="47.50739" lon="6.77551">
        <ele>317.4</ele>
        <time>2014-05-18T09:59:55.999Z</time>
      </trkpt>
      <trkpt lat="47.50745" lon="6.77556">
        <ele>317.8</ele>
        <time>2014-05-18T09:59:57.000Z</time>
      </trkpt>
      <trkpt lat="47.50751" lon="6.7756">
        <ele>317.5</ele>
        <time>2014-05-18T09:59:58.000Z</time>
      </trkpt>
      <trkpt lat="47.50756" lon="6.77564">
        <ele>316.7</ele>
        <time>2014-05-18T09:59:59.000Z</time>
      </trkpt>
      <trkpt lat="47.50762" lon="6.77569">
        <ele>315.8</ele>
        <time>2014-05-18T10:00:00.000Z</time>
      </trkpt>
      <trkpt lat="47.50767" lon="6.77571">
        <ele>315.3</ele>
        <time>2014-05-18T10:00:01.000Z</time>
      </trkpt>
      <trkpt lat="47.50772" lon="6.77575">
        <ele>314.2</ele>
        <time>2014-05-18T10:00:02.000Z</time>
      </trkpt>
      <trkpt lat="47.50777" lon="6.77579">
        <ele>315.1</ele>
        <time>2014-05-18T10:00:03.000Z</time>
      </trkpt>
      <trkpt lat="47.50784" lon="6.77582">
        <ele>316</ele>
        <time>2014-05-18T10:00:04.000Z</time>
      </trkpt>
      <trkpt lat="47.50789" lon="6.77585">
        <ele>316.6</ele>
        <time>2014-05-18T10:00:05.000Z</time>
      </trkpt>
      <trkpt lat="47.50793" lon="6.77591">
        <ele>316.5</ele>
        <time>2014-05-18T10:00:06.000Z</time>
      </trkpt>
      <trkpt lat="47.50798" lon="6.77594">
        <ele>316</ele>
        <time>2014-05-18T10:00:07.000Z</time>
      </trkpt>
      <trkpt lat="47.50802" lon="6.77597">
        <ele>315.6</ele>
        <time>2014-05-18T10:00:08.000Z</time>
      </trkpt>
      <trkpt lat="47.50806" lon="6.77602">
        <ele>315</ele>
        <time>2014-05-18T10:00:09.000Z</time>
      </trkpt>
      <trkpt lat="47.50811" lon="6.77606">
        <ele>314.7</ele>
        <time>2014-05-18T10:00:10.000Z</time>
      </trkpt>
      <trkpt lat="47.50816" lon="6.77609">
        <ele>314.9</ele>
        <time>2014-05-18T10:00:11.000Z</time>
      </trkpt>
      <trkpt lat="47.5082" lon="6.77614">
        <ele>314.2</ele>
        <time>2014-05-18T10:00:12.000Z</time>
      </trkpt>
      <trkpt lat="47.50824" lon="6.77619">
        <ele>314.1</ele>
        <time>2014-05-18T10:00:13.000Z</time>
      </trkpt>
      <trkpt lat="47.50828" lon="6.77624">
        <ele>312.6</ele>
        <time>2014-05-18T10:00:14.000Z</time>
      </trkpt>
      <trkpt lat="47.50832" lon="6.77628">
        <ele>310.9</ele>
        <time>2014-05-18T10:00:15.000Z</time>
      </trkpt>
      <trkpt lat="47.50836" lon="6.77633">
        <ele>311.8</ele>
        <time>2014-05-18T10:00:16.000Z</time>
      </trkpt>
      <trkpt lat="47.50841" lon="6.77638">
        <ele>311.6</ele>
        <time>2014-05-18T10:00:17.000Z</time>
      </trkpt>
      <trkpt lat="47.50845" lon="6.77644">
        <ele>310.3</ele>
        <time>2014-05-18T10:00:18.000Z</time>
      </trkpt>
      <trkpt lat="47.50849" lon="6.7765">
        <ele>310.6</ele>
        <time>2014-05-18T10:00:19.000Z</time>
      </trkpt>
      <trkpt lat="47.50854" lon="6.77654">
        <ele>311.3</ele>
        <time>2014-05-18T10:00:20.000Z</time>
      </trkpt>
      <trkpt lat="47.50858" lon="6.77658">
        <ele>312</ele>
        <time>2014-05-18T10:00:21.000Z</time>
      </trkpt>
      <trkpt lat="47.50862" lon="6.77662">
        <ele>312.2</ele>
        <time>2014-05-18T10:00:21.999Z</time>
      </trkpt>
      <trkpt lat="47.50864" lon="6.77667">
        <ele>312.7</ele>
        <time>2014-05-18T10:00:23.000Z</time>
      </trkpt>
      <trkpt lat="47.50867" lon="6.77673">
        <ele>313.6</ele>
        <time>2014-05-18T10:00:24.000Z</time>
      </trkpt>
      <trkpt lat="47.50869" lon="6.77676">
        <ele>314.1</ele>
        <time>2014-05-18T10:00:25.000Z</time>
      </trkpt>
      <trkpt lat="47.50873" lon="6.77682">
        <ele>314.9</ele>
        <time>2014-05-18T10:00:26.000Z</time>
      </trkpt>
      <trkpt lat="47.50875" lon="6.77686">
        <ele>315.8</ele>
        <time>2014-05-18T10:00:27.000Z</time>
      </trkpt>
      <trkpt lat="47.50877" lon="6.7769">
        <ele>316.1</ele>
        <time>2014-05-18T10:00:28.000Z</time>
      </trkpt>
      <trkpt lat="47.50878" lon="6.77696">
        <ele>314.9</ele>
        <time>2014-05-18T10:00:29.000Z</time>
      </trkpt>
      <trkpt lat="47.5088" lon="6.777">
        <ele>314.8</ele>
        <time>2014-05-18T10:00:30.000Z</time>
      </trkpt>
      <trkpt lat="47.50883" lon="6.77703">
        <ele>314.5</ele>
        <time>2014-05-18T10:00:31.000Z</time>
      </trkpt>
      <trkpt lat="47.50886" lon="6.77706">
        <ele>314.9</ele>
        <time>2014-05-18T10:00:32.000Z</time>
      </trkpt>
      <trkpt lat="47.5089" lon="6.77707">
        <ele>314.9</ele>
        <time>2014-05-18T10:00:33.000Z</time>
      </trkpt>
      <trkpt lat="47.50897" lon="6.77703">
        <ele>314.9</ele>
        <time>2014-05-18T10:00:34.000Z</time>
      </trkpt>
      <trkpt lat="47.50903" lon="6.77702">
        <ele>314.8</ele>
        <time>2014-05-18T10:00:35.000Z</time>
      </trkpt>
      <trkpt lat="47.50908" lon="6.77701">
        <ele>315.5</ele>
        <time>2014-05-18T10:00:36.000Z</time>
      </trkpt>
      <trkpt lat="47.50912" lon="6.777">
        <ele>315.6</ele>
        <time>2014-05-18T10:00:37.000Z</time>
      </trkpt>
      <trkpt lat="47.50917" lon="6.77699">
        <ele>316.2</ele>
        <time>2014-05-18T10:00:38.000Z</time>
      </trkpt>
      <trkpt lat="47.50921" lon="6.777">
        <ele>316.2</ele>
        <time>2014-05-18T10:00:39.000Z</time>
      </trkpt>
      <trkpt lat="47.50925" lon="6.77702">
        <ele>316.6</ele>
        <time>2014-05-18T10:00:40.000Z</time>
      </trkpt>
      <trkpt lat="47.50928" lon="6.77705">
        <ele>317.1</ele>
        <time>2014-05-18T10:00:41.000Z</time>
      </trkpt>
      <trkpt lat="47.50931" lon="6.77706">
        <ele>316.6</ele>
        <time>2014-05-18T10:00:42.000Z</time>
      </trkpt>
      <trkpt lat="47.50934" lon="6.77704">
        <ele>316.4</ele>
        <time>2014-05-18T10:00:43.000Z</time>
      </trkpt>
      <trkpt lat="47.50937" lon="6.77703">
        <ele>316.4</ele>
        <time>2014-05-18T10:00:44.000Z</time>
      </trkpt>
      <trkpt lat="47.50939" lon="6.77702">
        <ele>317</ele>
        <time>2014-05-18T10:00:45.000Z</time>
      </trkpt>
      <trkpt lat="47.50944" lon="6.77701">
        <ele>318.5</ele>
        <time>2014-05-18T10:00:48.000Z</time>
      </trkpt>
      <trkpt lat="47.50946" lon="6.77702">
        <ele>318</ele>
        <time>2014-05-18T10:00:51.000Z</time>
      </trkpt>
      <trkpt lat="47.50949" lon="6.77701">
        <ele>319.6</ele>
        <time>2014-05-18T10:00:53.000Z</time>
      </trkpt>
      <trkpt lat="47.50952" lon="6.777">
        <ele>319.5</ele>
        <time>2014-05-18T10:00:54.000Z</time>
      </trkpt>
      <trkpt lat="47.50955" lon="6.77699">
        <ele>319.7</ele>
        <time>2014-05-18T10:00:55.000Z</time>
      </trkpt>
      <trkpt lat="47.50958" lon="6.77696">
        <ele>319</ele>
        <time>2014-05-18T10:00:56.000Z</time>
      </trkpt>
      <trkpt lat="47.50961" lon="6.77693">
        <ele>319.4</ele>
        <time>2014-05-18T10:00:57.000Z</time>
      </trkpt>
      <trkpt lat="47.50964" lon="6.7769">
        <ele>319.4</ele>
        <time>2014-05-18T10:00:58.000Z</time>
      </trkpt>
      <trkpt lat="47.50966" lon="6.77687">
        <ele>318.5</ele>
        <time>2014-05-18T10:00:59.000Z</time>
      </trkpt>
      <trkpt lat="47.50969" lon="6.77687">
        <ele>318.1</ele>
        <time>2014-05-18T10:01:00.000Z</time>
      </trkpt>
      <trkpt lat="47.50971" lon="6.7769">
        <ele>316.6</ele>
        <time>2014-05-18T10:01:01.000Z</time>
      </trkpt>
      <trkpt lat="47.50973" lon="6.77694">
        <ele>316</ele>
        <time>2014-05-18T10:01:02.000Z</time>
      </trkpt>
      <trkpt lat="47.50975" lon="6.77699">
        <ele>315.8</ele>
        <time>2014-05-18T10:01:03.000Z</time>
      </trkpt>
      <trkpt lat="47.50977" lon="6.77703">
        <ele>315.8</ele>
        <time>2014-05-18T10:01:04.000Z</time>
      </trkpt>
      <trkpt lat="47.50981" lon="6.77707">
        <ele>316.9</ele>
        <time>2014-05-18T10:01:05.000Z</time>
      </trkpt>
      <trkpt lat="47.50984" lon="6.7771">
        <ele>316.6</ele>
        <time>2014-05-18T10:01:06.000Z</time>
      </trkpt>
      <trkpt lat="47.50988" lon="6.77713">
        <ele>316.1</ele>
        <time>2014-05-18T10:01:07.000Z</time>
      </trkpt>
      <trkpt lat="47.50992" lon="6.77716">
        <ele>315.8</ele>
        <time>2014-05-18T10:01:08.000Z</time>
      </trkpt>
      <trkpt lat="47.50995" lon="6.77719">
        <ele>316.3</ele>
        <time>2014-05-18T10:01:09.000Z</time>
      </trkpt>
      <trkpt lat="47.50999" lon="6.77722">
        <ele>316.5</ele>
        <time>2014-05-18T10:01:10.000Z</time>
      </trkpt>
      <trkpt lat="47.51003" lon="6.77725">
        <ele>316.5</ele>
        <time>2014-05-18T10:01:11.000Z</time>
      </trkpt>
      <trkpt lat="47.51006" lon="6.77728">
        <ele>316.7</ele>
        <time>2014-05-18T10:01:12.000Z</time>
      </trkpt>
      <trkpt lat="47.5101" lon="6.77731">
        <ele>315.7</ele>
        <time>2014-05-18T10:01:13.000Z</time>
      </trkpt>
      <trkpt lat="47.51013" lon="6.77734">
        <ele>315.5</ele>
        <time>2014-05-18T10:01:14.000Z</time>
      </trkpt>
      <trkpt lat="47.51017" lon="6.77737">
        <ele>315</ele>
        <time>2014-05-18T10:01:15.000Z</time>
      </trkpt>
      <trkpt lat="47.5102" lon="6.7774">
        <ele>315.7</ele>
        <time>2014-05-18T10:01:16.000Z</time>
      </trkpt>
      <trkpt lat="47.51023" lon="6.77742">
        <ele>316.4</ele>
        <time>2014-05-18T10:01:17.000Z</time>
      </trkpt>
      <trkpt lat="47.51026" lon="6.77745">
        <ele>317.2</ele>
        <time>2014-05-18T10:01:18.000Z</time>
      </trkpt>
      <trkpt lat="47.51029" lon="6.77747">
        <ele>314.5</ele>
        <time>2014-05-18T10:01:19.000Z</time>
      </trkpt>
      <trkpt lat="47.5103" lon="6.77749">
        <ele>313.7</ele>
        <time>2014-05-18T10:01:20.000Z</time>
      </trkpt>
      <trkpt lat="47.51033" lon="6.77754">
        <ele>313.7</ele>
        <time>2014-05-18T10:01:22.000Z</time>
      </trkpt>
      <trkpt lat="47.51035" lon="6.77756">
        <ele>314.2</ele>
        <time>2014-05-18T10:01:23.000Z</time>
      </trkpt>
      <trkpt lat="47.51037" lon="6.77758">
        <ele>316</ele>
        <time>2014-05-18T10:01:24.000Z</time>
      </trkpt>
      <trkpt lat="47.5104" lon="6.7776">
        <ele>316.8</ele>
        <time>2014-05-18T10:01:25.000Z</time>
      </trkpt>
      <trkpt lat="47.51042" lon="6.77765">
        <ele>310.4</ele>
        <time>2014-05-18T10:01:27.000Z</time>
      </trkpt>
      <trkpt lat="47.51044" lon="6.77767">
        <ele>311.2</ele>
        <time>2014-05-18T10:01:28.000Z</time>
      </trkpt>
      <trkpt lat="47.51047" lon="6.77771">
        <ele>310.8</ele>
        <time>2014-05-18T10:01:29.999Z</time>
      </trkpt>
      <trkpt lat="47.51052" lon="6.77772">
        <ele>312.9</ele>
        <time>2014-05-18T10:01:31.000Z</time>
      </trkpt>
      <trkpt lat="47.51054" lon="6.77773">
        <ele>313</ele>
        <time>2014-05-18T10:01:31.999Z</time>
      </trkpt>
      <trkpt lat="47.5106" lon="6.77771">
        <ele>316.1</ele>
        <time>2014-05-18T10:01:33.000Z</time>
      </trkpt>
      <trkpt lat="47.51063" lon="6.7777">
        <ele>316.7</ele>
        <time>2014-05-18T10:01:34.001Z</time>
      </trkpt>
      <trkpt lat="47.5107" lon="6.77768">
        <ele>317.7</ele>
        <time>2014-05-18T10:01:35.000Z</time>
      </trkpt>
      <trkpt lat="47.51075" lon="6.77768">
        <ele>318.2</ele>
        <time>2014-05-18T10:01:36.000Z</time>
      </trkpt>
      <trkpt lat="47.51081" lon="6.77769">
        <ele>319.2</ele>
        <time>2014-05-18T10:01:37.000Z</time>
      </trkpt>
      <trkpt lat="47.51085" lon="6.7777">
        <ele>320.6</ele>
        <time>2014-05-18T10:01:38.000Z</time>
      </trkpt>
      <trkpt lat="47.5109" lon="6.77772">
        <ele>320.2</ele>
        <time>2014-05-18T10:01:39.000Z</time>
      </trkpt>
      <trkpt lat="47.51094" lon="6.77774">
        <ele>319</ele>
        <time>2014-05-18T10:01:40.000Z</time>
      </trkpt>
      <trkpt lat="47.51098" lon="6.77776">
        <ele>319.5</ele>
        <time>2014-05-18T10:01:41.000Z</time>
      </trkpt>
      <trkpt lat="47.51103" lon="6.77777">
        <ele>319.5</ele>
        <time>2014-05-18T10:01:42.000Z</time>
      </trkpt>
      <trkpt lat="47.51107" lon="6.77779">
        <ele>319.5</ele>
        <time>2014-05-18T10:01:43.000Z</time>
      </trkpt>
      <trkpt lat="47.5111" lon="6.77781">
        <ele>320</ele>
        <time>2014-05-18T10:01:44.000Z</time>
      </trkpt>
      <trkpt lat="47.51114" lon="6.77782">
        <ele>320.8</ele>
        <time>2014-05-18T10:01:45.000Z</time>
      </trkpt>
      <trkpt lat="47.51118" lon="6.77783">
        <ele>320.9</ele>
        <time>2014-05-18T10:01:46.000Z</time>
      </trkpt>
      <trkpt lat="47.51121" lon="6.77784">
        <ele>321.1</ele>
        <time>2014-05-18T10:01:47.000Z</time>
      </trkpt>
      <trkpt lat="47.51124" lon="6.77785">
        <ele>321.7</ele>
        <time>2014-05-18T10:01:48.000Z</time>
      </trkpt>
      <trkpt lat="47.51134" lon="6.77786">
        <ele>321.2</ele>
        <time>2014-05-18T10:01:51.000Z</time>
      </trkpt>
      <trkpt lat="47.51137" lon="6.77786">
        <ele>321</ele>
        <time>2014-05-18T10:01:52.000Z</time>
      </trkpt>
      <trkpt lat="47.5114" lon="6.77786">
        <ele>321.5</ele>
        <time>2014-05-18T10:01:53.000Z</time>
      </trkpt>
      <trkpt lat="47.51143" lon="6.77786">
        <ele>321.8</ele>
        <time>2014-05-18T10:01:54.000Z</time>
      </trkpt>
      <trkpt lat="47.51147" lon="6.77786">
        <ele>321.7</ele>
        <time>2014-05-18T10:01:55.000Z</time>
      </trkpt>
      <trkpt lat="47.5115" lon="6.77787">
        <ele>322.6</ele>
        <time>2014-05-18T10:01:56.000Z</time>
      </trkpt>
      <trkpt lat="47.51153" lon="6.77787">
        <ele>323.5</ele>
        <time>2014-05-18T10:01:57.000Z</time>
      </trkpt>
      <trkpt lat="47.51156" lon="6.77787">
        <ele>323.8</ele>
        <time>2014-05-18T10:01:58.000Z</time>
      </trkpt>
      <trkpt lat="47.51159" lon="6.77787">
        <ele>323.4</ele>
        <time>2014-05-18T10:01:59.000Z</time>
      </trkpt>
      <trkpt lat="47.51162" lon="6.77787">
        <ele>324</ele>
        <time>2014-05-18T10:02:00.000Z</time>
      </trkpt>
      <trkpt lat="47.51164" lon="6.77787">
        <ele>323.6</ele>
        <time>2014-05-18T10:02:01.000Z</time>
      </trkpt>
      <trkpt lat="47.51167" lon="6.77788">
        <ele>323.3</ele>
        <time>2014-05-18T10:02:02.000Z</time>
      </trkpt>
      <trkpt lat="47.5117" lon="6.77789">
        <ele>322.6</ele>
        <time>2014-05-18T10:02:03.000Z</time>
      </trkpt>
      <trkpt lat="47.51172" lon="6.7779">
        <ele>322.3</ele>
        <time>2014-05-18T10:02:04.000Z</time>
      </trkpt>
      <trkpt lat="47.51175" lon="6.7779">
        <ele>321.7</ele>
        <time>2014-05-18T10:02:05.000Z</time>
      </trkpt>
      <trkpt lat="47.51178" lon="6.77791">
        <ele>321.4</ele>
        <time>2014-05-18T10:02:06.000Z</time>
      </trkpt>
      <trkpt lat="47.51181" lon="6.77792">
        <ele>321.5</ele>
        <time>2014-05-18T10:02:07.000Z</time>
      </trkpt>
      <trkpt lat="47.51183" lon="6.77792">
        <ele>321.1</ele>
        <time>2014-05-18T10:02:08.000Z</time>
      </trkpt>
      <trkpt lat="47.51186" lon="6.77792">
        <ele>320.8</ele>
        <time>2014-05-18T10:02:09.000Z</time>
      </trkpt>
      <trkpt lat="47.51188" lon="6.77792">
        <ele>321</ele>
        <time>2014-05-18T10:02:10.000Z</time>
      </trkpt>
      <trkpt lat="47.5119" lon="6.77791">
        <ele>321.5</ele>
        <time>2014-05-18T10:02:11.000Z</time>
      </trkpt>
      <trkpt lat="47.51193" lon="6.7779">
        <ele>321.6</ele>
        <time>2014-05-18T10:02:12.000Z</time>
      </trkpt>
      <trkpt lat="47.51195" lon="6.77789">
        <ele>321.6</ele>
        <time>2014-05-18T10:02:13.000Z</time>
      </trkpt>
      <trkpt lat="47.51198" lon="6.77789">
        <ele>321.5</ele>
        <time>2014-05-18T10:02:14.000Z</time>
      </trkpt>
      <trkpt lat="47.512" lon="6.77788">
        <ele>321.8</ele>
        <time>2014-05-18T10:02:15.000Z</time>
      </trkpt>
      <trkpt lat="47.51203" lon="6.77788">
        <ele>322.6</ele>
        <time>2014-05-18T10:02:16.000Z</time>
      </trkpt>
      <trkpt lat="47.51205" lon="6.77788">
        <ele>322.6</ele>
        <time>2014-05-18T10:02:17.000Z</time>
      </trkpt>
      <trkpt lat="47.51208" lon="6.77788">
        <ele>323.5</ele>
        <time>2014-05-18T10:02:18.000Z</time>
      </trkpt>
      <trkpt lat="47.51211" lon="6.77788">
        <ele>324.3</ele>
        <time>2014-05-18T10:02:19.000Z</time>
      </trkpt>
      <trkpt lat="47.51213" lon="6.77788">
        <ele>324.7</ele>
        <time>2014-05-18T10:02:20.000Z</time>
      </trkpt>
      <trkpt lat="47.51216" lon="6.77788">
        <ele>324.5</ele>
        <time>2014-05-18T10:02:21.000Z</time>
      </trkpt>
      <trkpt lat="47.51219" lon="6.77788">
        <ele>324.6</ele>
        <time>2014-05-18T10:02:22.000Z</time>
      </trkpt>
      <trkpt lat="47.51221" lon="6.77788">
        <ele>324.8</ele>
        <time>2014-05-18T10:02:23.000Z</time>
      </trkpt>
      <trkpt lat="47.51224" lon="6.77788">
        <ele>325.3</ele>
        <time>2014-05-18T10:02:24.000Z</time>
      </trkpt>
      <trkpt lat="47.51226" lon="6.77788">
        <ele>325.7</ele>
        <time>2014-05-18T10:02:25.000Z</time>
      </trkpt>
      <trkpt lat="47.51229" lon="6.77787">
        <ele>325.5</ele>
        <time>2014-05-18T10:02:26.000Z</time>
      </trkpt>
      <trkpt lat="47.51232" lon="6.77787">
        <ele>327.1</ele>
        <time>2014-05-18T10:02:27.000Z</time>
      </trkpt>
      <trkpt lat="47.51234" lon="6.77786">
        <ele>328.1</ele>
        <time>2014-05-18T10:02:28.000Z</time>
      </trkpt>
      <trkpt lat="47.51237" lon="6.77786">
        <ele>328.9</ele>
        <time>2014-05-18T10:02:29.000Z</time>
      </trkpt>
      <trkpt lat="47.5124" lon="6.77786">
        <ele>329.1</ele>
        <time>2014-05-18T10:02:30.000Z</time>
      </trkpt>
      <trkpt lat="47.51242" lon="6.77786">
        <ele>328.4</ele>
        <time>2014-05-18T10:02:31.000Z</time>
      </trkpt>
      <trkpt lat="47.51245" lon="6.77786">
        <ele>328.6</ele>
        <time>2014-05-18T10:02:32.000Z</time>
      </trkpt>
      <trkpt lat="47.51247" lon="6.77786">
        <ele>329</ele>
        <time>2014-05-18T10:02:33.000Z</time>
      </trkpt>
      <trkpt lat="47.51251" lon="6.77785">
        <ele>330.2</ele>
        <time>2014-05-18T10:02:35.000Z</time>
      </trkpt>
      <trkpt lat="47.51253" lon="6.77784">
        <ele>330.1</ele>
        <time>2014-05-18T10:02:36.000Z</time>
      </trkpt>
      <trkpt lat="47.51256" lon="6.77784">
        <ele>331.3</ele>
        <time>2014-05-18T10:02:37.000Z</time>
      </trkpt>
      <trkpt lat="47.51258" lon="6.77784">
        <ele>331.8</ele>
        <time>2014-05-18T10:02:38.000Z</time>
      </trkpt>
      <trkpt lat="47.51261" lon="6.77784">
        <ele>332.5</ele>
        <time>2014-05-18T10:02:39.000Z</time>
      </trkpt>
      <trkpt lat="47.51263" lon="6.77784">
        <ele>333.1</ele>
        <time>2014-05-18T10:02:40.000Z</time>
      </trkpt>
      <trkpt lat="47.51267" lon="6.77785">
        <ele>333.3</ele>
        <time>2014-05-18T10:02:42.000Z</time>
      </trkpt>
      <trkpt lat="47.51269" lon="6.77785">
        <ele>333.5</ele>
        <time>2014-05-18T10:02:43.000Z</time>
      </trkpt>
      <trkpt lat="47.51273" lon="6.77785">
        <ele>334</ele>
        <time>2014-05-18T10:02:45.000Z</time>
      </trkpt>
      <trkpt lat="47.51276" lon="6.77784">
        <ele>334.3</ele>
        <time>2014-05-18T10:02:46.000Z</time>
      </trkpt>
      <trkpt lat="47.5128" lon="6.77783">
        <ele>334.4</ele>
        <time>2014-05-18T10:02:48.000Z</time>
      </trkpt>
      <trkpt lat="47.51285" lon="6.77783">
        <ele>333.3</ele>
        <time>2014-05-18T10:02:51.000Z</time>
      </trkpt>
      <trkpt lat="47.51289" lon="6.77782">
        <ele>332.4</ele>
        <time>2014-05-18T10:02:53.000Z</time>
      </trkpt>
      <trkpt lat="47.51291" lon="6.77781">
        <ele>333.2</ele>
        <time>2014-05-18T10:02:54.000Z</time>
      </trkpt>
      <trkpt lat="47.51295" lon="6.7778">
        <ele>335.2</ele>
        <time>2014-05-18T10:02:56.000Z</time>
      </trkpt>
      <trkpt lat="47.51297" lon="6.77779">
        <ele>335.8</ele>
        <time>2014-05-18T10:02:57.000Z</time>
      </trkpt>
      <trkpt lat="47.513" lon="6.77778">
        <ele>336</ele>
        <time>2014-05-18T10:02:58.000Z</time>
      </trkpt>
      <trkpt lat="47.51302" lon="6.77777">
        <ele>336.7</ele>
        <time>2014-05-18T10:02:59.000Z</time>
      </trkpt>
      <trkpt lat="47.51305" lon="6.77776">
        <ele>337.2</ele>
        <time>2014-05-18T10:03:00.000Z</time>
      </trkpt>
      <trkpt lat="47.51307" lon="6.77775">
        <ele>338.2</ele>
        <time>2014-05-18T10:03:01.000Z</time>
      </trkpt>
      <trkpt lat="47.5131" lon="6.77775">
        <ele>338.5</ele>
        <time>2014-05-18T10:03:02.000Z</time>
      </trkpt>
      <trkpt lat="47.51312" lon="6.77775">
        <ele>339.8</ele>
        <time>2014-05-18T10:03:03.000Z</time>
      </trkpt>
      <trkpt lat="47.51315" lon="6.77775">
        <ele>341.2</ele>
        <time>2014-05-18T10:03:04.000Z</time>
      </trkpt>
      <trkpt lat="47.51317" lon="6.77775">
        <ele>341</ele>
        <time>2014-05-18T10:03:05.000Z</time>
      </trkpt>
      <trkpt lat="47.5132" lon="6.77776">
        <ele>341.1</ele>
        <time>2014-05-18T10:03:06.000Z</time>
      </trkpt>
      <trkpt lat="47.51322" lon="6.77776">
        <ele>341.6</ele>
        <time>2014-05-18T10:03:07.000Z</time>
      </trkpt>
      <trkpt lat="47.51324" lon="6.77776">
        <ele>342.2</ele>
        <time>2014-05-18T10:03:08.000Z</time>
      </trkpt>
      <trkpt lat="47.51327" lon="6.77777">
        <ele>341.7</ele>
        <time>2014-05-18T10:03:09.000Z</time>
      </trkpt>
      <trkpt lat="47.51331" lon="6.77779">
        <ele>341</ele>
        <time>2014-05-18T10:03:11.000Z</time>
      </trkpt>
      <trkpt lat="47.51333" lon="6.7778">
        <ele>341.2</ele>
        <time>2014-05-18T10:03:12.000Z</time>
      </trkpt>
      <trkpt lat="47.51336" lon="6.77783">
        <ele>341.8</ele>
        <time>2014-05-18T10:03:14.000Z</time>
      </trkpt>
      <trkpt lat="47.51338" lon="6.77783">
        <ele>342.8</ele>
        <time>2014-05-18T10:03:15.000Z</time>
      </trkpt>
      <trkpt lat="47.51342" lon="6.7778">
        <ele>344.5</ele>
        <time>2014-05-18T10:03:17.000Z</time>
      </trkpt>
      <trkpt lat="47.51344" lon="6.77778">
        <ele>344.7</ele>
        <time>2014-05-18T10:03:18.000Z</time>
      </trkpt>
      <trkpt lat="47.51348" lon="6.77775">
        <ele>344.3</ele>
        <time>2014-05-18T10:03:20.000Z</time>
      </trkpt>
      <trkpt lat="47.51349" lon="6.77774">
        <ele>344</ele>
        <time>2014-05-18T10:03:21.000Z</time>
      </trkpt>
      <trkpt lat="47.51352" lon="6.77771">
        <ele>345.3</ele>
        <time>2014-05-18T10:03:23.000Z</time>
      </trkpt>
      <trkpt lat="47.51354" lon="6.7777">
        <ele>345.3</ele>
        <time>2014-05-18T10:03:24.000Z</time>
      </trkpt>
      <trkpt lat="47.51357" lon="6.77766">
        <ele>346.2</ele>
        <time>2014-05-18T10:03:26.000Z</time>
      </trkpt>
      <trkpt lat="47.5136" lon="6.77765">
        <ele>346.2</ele>
        <time>2014-05-18T10:03:27.000Z</time>
      </trkpt>
      <trkpt lat="47.51362" lon="6.77764">
        <ele>344.7</ele>
        <time>2014-05-18T10:03:28.000Z</time>
      </trkpt>
      <trkpt lat="47.51364" lon="6.77763">
        <ele>344.4</ele>
        <time>2014-05-18T10:03:29.000Z</time>
      </trkpt>
      <trkpt lat="47.51367" lon="6.77762">
        <ele>344.6</ele>
        <time>2014-05-18T10:03:30.000Z</time>
      </trkpt>
      <trkpt lat="47.51369" lon="6.77761">
        <ele>345.5</ele>
        <time>2014-05-18T10:03:31.000Z</time>
      </trkpt>
      <trkpt lat="47.51372" lon="6.7776">
        <ele>345.6</ele>
        <time>2014-05-18T10:03:32.000Z</time>
      </trkpt>
      <trkpt lat="47.51374" lon="6.77759">
        <ele>345.1</ele>
        <time>2014-05-18T10:03:33.000Z</time>
      </trkpt>
      <trkpt lat="47.51378" lon="6.77757">
        <ele>344.2</ele>
        <time>2014-05-18T10:03:35.000Z</time>
      </trkpt>
      <trkpt lat="47.51379" lon="6.77756">
        <ele>344.1</ele>
        <time>2014-05-18T10:03:36.000Z</time>
      </trkpt>
      <trkpt lat="47.51383" lon="6.77753">
        <ele>343.7</ele>
        <time>2014-05-18T10:03:38.000Z</time>
      </trkpt>
      <trkpt lat="47.51385" lon="6.77752">
        <ele>345.3</ele>
        <time>2014-05-18T10:03:39.000Z</time>
      </trkpt>
      <trkpt lat="47.51389" lon="6.7775">
        <ele>346.4</ele>
        <time>2014-05-18T10:03:41.000Z</time>
      </trkpt>
      <trkpt lat="47.51391" lon="6.77749">
        <ele>346.4</ele>
        <time>2014-05-18T10:03:42.000Z</time>
      </trkpt>
      <trkpt lat="47.51395" lon="6.77747">
        <ele>345.6</ele>
        <time>2014-05-18T10:03:44.000Z</time>
      </trkpt>
      <trkpt lat="47.51396" lon="6.77746">
        <ele>346.1</ele>
        <time>2014-05-18T10:03:45.000Z</time>
      </trkpt>
      <trkpt lat="47.514" lon="6.77745">
        <ele>346.8</ele>
        <time>2014-05-18T10:03:47.000Z</time>
      </trkpt>
      <trkpt lat="47.51402" lon="6.77744">
        <ele>347</ele>
        <time>2014-05-18T10:03:48.000Z</time>
      </trkpt>
      <trkpt lat="47.51403" lon="6.77743">
        <ele>346.8</ele>
        <time>2014-05-18T10:03:49.000Z</time>
      </trkpt>
      <trkpt lat="47.51411" lon="6.77738">
        <ele>345.7</ele>
        <time>2014-05-18T10:03:57.000Z</time>
      </trkpt>
      <trkpt lat="47.51414" lon="6.77735">
        <ele>343.5</ele>
        <time>2014-05-18T10:03:59.000Z</time>
      </trkpt>
      <trkpt lat="47.51416" lon="6.77735">
        <ele>344.7</ele>
        <time>2014-05-18T10:04:00.000Z</time>
      </trkpt>
      <trkpt lat="47.51419" lon="6.77734">
        <ele>345</ele>
        <time>2014-05-18T10:04:01.000Z</time>
      </trkpt>
      <trkpt lat="47.51421" lon="6.77734">
        <ele>345.5</ele>
        <time>2014-05-18T10:04:02.000Z</time>
      </trkpt>
      <trkpt lat="47.51425" lon="6.77733">
        <ele>343.1</ele>
        <time>2014-05-18T10:04:05.000Z</time>
      </trkpt>
      <trkpt lat="47.51426" lon="6.77733">
        <ele>343.5</ele>
        <time>2014-05-18T10:04:06.000Z</time>
      </trkpt>
      <trkpt lat="47.5143" lon="6.77732">
        <ele>343.1</ele>
        <time>2014-05-18T10:04:09.000Z</time>
      </trkpt>
      <trkpt lat="47.51432" lon="6.77732">
        <ele>344.6</ele>
        <time>2014-05-18T10:04:10.000Z</time>
      </trkpt>
      <trkpt lat="47.51436" lon="6.7773">
        <ele>347</ele>
        <time>2014-05-18T10:04:12.000Z</time>
      </trkpt>
      <trkpt lat="47.51438" lon="6.77729">
        <ele>347.5</ele>
        <time>2014-05-18T10:04:13.000Z</time>
      </trkpt>
      <trkpt lat="47.51441" lon="6.77728">
        <ele>347.8</ele>
        <time>2014-05-18T10:04:15.000Z</time>
      </trkpt>
      <trkpt lat="47.51443" lon="6.77728">
        <ele>349.3</ele>
        <time>2014-05-18T10:04:16.000Z</time>
      </trkpt>
      <trkpt lat="47.51447" lon="6.77728">
        <ele>349.6</ele>
        <time>2014-05-18T10:04:18.000Z</time>
      </trkpt>
      <trkpt lat="47.51448" lon="6.77728">
        <ele>349.6</ele>
        <time>2014-05-18T10:04:19.000Z</time>
      </trkpt>
      <trkpt lat="47.51452" lon="6.77728">
        <ele>345.1</ele>
        <time>2014-05-18T10:04:22.000Z</time>
      </trkpt>
      <trkpt lat="47.51453" lon="6.77728">
        <ele>344.3</ele>
        <time>2014-05-18T10:04:23.000Z</time>
      </trkpt>
      <trkpt lat="47.51457" lon="6.77727">
        <ele>343.5</ele>
        <time>2014-05-18T10:04:27.000Z</time>
      </trkpt>
      <trkpt lat="47.51459" lon="6.77726">
        <ele>343.3</ele>
        <time>2014-05-18T10:04:28.000Z</time>
      </trkpt>
      <trkpt lat="47.51462" lon="6.77725">
        <ele>344</ele>
        <time>2014-05-18T10:04:30.000Z</time>
      </trkpt>
      <trkpt lat="47.51464" lon="6.77724">
        <ele>343.7</ele>
        <time>2014-05-18T10:04:31.000Z</time>
      </trkpt>
      <trkpt lat="47.51467" lon="6.77721">
        <ele>340.6</ele>
        <time>2014-05-18T10:04:35.000Z</time>
      </trkpt>
      <trkpt lat="47.51468" lon="6.7772">
        <ele>339.5</ele>
        <time>2014-05-18T10:04:36.000Z</time>
      </trkpt>
      <trkpt lat="47.51472" lon="6.7772">
        <ele>338.3</ele>
        <time>2014-05-18T10:04:40.000Z</time>
      </trkpt>
      <trkpt lat="47.51473" lon="6.7772">
        <ele>338.2</ele>
        <time>2014-05-18T10:04:41.000Z</time>
      </trkpt>
      <trkpt lat="47.51477" lon="6.77719">
        <ele>334.2</ele>
        <time>2014-05-18T10:04:47.000Z</time>
      </trkpt>
      <trkpt lat="47.51478" lon="6.77717">
        <ele>334</ele>
        <time>2014-05-18T10:04:48.000Z</time>
      </trkpt>
      <trkpt lat="47.51491" lon="6.77714">
        <ele>331.4</ele>
        <time>2014-05-18T10:04:57.000Z</time>
      </trkpt>
      <trkpt lat="47.51495" lon="6.77714">
        <ele>333.3</ele>
        <time>2014-05-18T10:04:59.000Z</time>
      </trkpt>
      <trkpt lat="47.51497" lon="6.77713">
        <ele>333.3</ele>
        <time>2014-05-18T10:05:00.000Z</time>
      </trkpt>
      <trkpt lat="47.51501" lon="6.77715">
        <ele>328.9</ele>
        <time>2014-05-18T10:05:05.000Z</time>
      </trkpt>
      <trkpt lat="47.51501" lon="6.77715">
        <ele>328.6</ele>
        <time>2014-05-18T10:05:06.000Z</time>
      </trkpt>
      <trkpt lat="47.51505" lon="6.77715">
        <ele>326.6</ele>
        <time>2014-05-18T10:05:09.000Z</time>
      </trkpt>
      <trkpt lat="47.51506" lon="6.77715">
        <ele>325.5</ele>
        <time>2014-05-18T10:05:10.000Z</time>
      </trkpt>
      <trkpt lat="47.51509" lon="6.77715">
        <ele>324.5</ele>
        <time>2014-05-18T10:05:12.999Z</time>
      </trkpt>
      <trkpt lat="47.51511" lon="6.77716">
        <ele>324.8</ele>
        <time>2014-05-18T10:05:14.000Z</time>
      </trkpt>
      <trkpt lat="47.51514" lon="6.77717">
        <ele>325.1</ele>
        <time>2014-05-18T10:05:16.000Z</time>
      </trkpt>
      <trkpt lat="47.51516" lon="6.77717">
        <ele>324.5</ele>
        <time>2014-05-18T10:05:17.000Z</time>
      </trkpt>
      <trkpt lat="47.51519" lon="6.77718">
        <ele>324</ele>
        <time>2014-05-18T10:05:19.000Z</time>
      </trkpt>
      <trkpt lat="47.5152" lon="6.77719">
        <ele>323.7</ele>
        <time>2014-05-18T10:05:20.000Z</time>
      </trkpt>
      <trkpt lat="47.51524" lon="6.77722">
        <ele>324.3</ele>
        <time>2014-05-18T10:05:23.001Z</time>
      </trkpt>
      <trkpt lat="47.51526" lon="6.77722">
        <ele>324.6</ele>
        <time>2014-05-18T10:05:24.000Z</time>
      </trkpt>
      <trkpt lat="47.51529" lon="6.77722">
        <ele>325.2</ele>
        <time>2014-05-18T10:05:26.000Z</time>
      </trkpt>
      <trkpt lat="47.51531" lon="6.77723">
        <ele>326.4</ele>
        <time>2014-05-18T10:05:27.000Z</time>
      </trkpt>
      <trkpt lat="47.51532" lon="6.77723">
        <ele>326.5</ele>
        <time>2014-05-18T10:05:27.999Z</time>
      </trkpt>
      <trkpt lat="47.51536" lon="6.77724">
        <ele>328.1</ele>
        <time>2014-05-18T10:05:29.000Z</time>
      </trkpt>
      <trkpt lat="47.51538" lon="6.77725">
        <ele>328.9</ele>
        <time>2014-05-18T10:05:30.000Z</time>
      </trkpt>
      <trkpt lat="47.5154" lon="6.77726">
        <ele>329.4</ele>
        <time>2014-05-18T10:05:31.000Z</time>
      </trkpt>
      <trkpt lat="47.51542" lon="6.77727">
        <ele>330.4</ele>
        <time>2014-05-18T10:05:32.000Z</time>
      </trkpt>
      <trkpt lat="47.51544" lon="6.77729">
        <ele>331</ele>
        <time>2014-05-18T10:05:33.000Z</time>
      </trkpt>
      <trkpt lat="47.51546" lon="6.77731">
        <ele>333.6</ele>
        <time>2014-05-18T10:05:34.000Z</time>
      </trkpt>
      <trkpt lat="47.51549" lon="6.77733">
        <ele>334.8</ele>
        <time>2014-05-18T10:05:35.000Z</time>
      </trkpt>
      <trkpt lat="47.51552" lon="6.77734">
        <ele>336.1</ele>
        <time>2014-05-18T10:05:36.000Z</time>
      </trkpt>
      <trkpt lat="47.51555" lon="6.77735">
        <ele>336.2</ele>
        <time>2014-05-18T10:05:37.000Z</time>
      </trkpt>
      <trkpt lat="47.51558" lon="6.77736">
        <ele>336.8</ele>
        <time>2014-05-18T10:05:38.000Z</time>
      </trkpt>
      <trkpt lat="47.5156" lon="6.77736">
        <ele>337.5</ele>
        <time>2014-05-18T10:05:39.000Z</time>
      </trkpt>
      <trkpt lat="47.51563" lon="6.77737">
        <ele>338.7</ele>
        <time>2014-05-18T10:05:40.000Z</time>
      </trkpt>
      <trkpt lat="47.51565" lon="6.77737">
        <ele>338.7</ele>
        <time>2014-05-18T10:05:41.000Z</time>
      </trkpt>
      <trkpt lat="47.51568" lon="6.77738">
        <ele>339.7</ele>
        <time>2014-05-18T10:05:42.000Z</time>
      </trkpt>
      <trkpt lat="47.5157" lon="6.77739">
        <ele>340.9</ele>
        <time>2014-05-18T10:05:43.000Z</time>
      </trkpt>
      <trkpt lat="47.51572" lon="6.77741">
        <ele>342.1</ele>
        <time>2014-05-18T10:05:44.000Z</time>
      </trkpt>
      <trkpt lat="47.51575" lon="6.77743">
        <ele>342.5</ele>
        <time>2014-05-18T10:05:45.000Z</time>
      </trkpt>
      <trkpt lat="47.51578" lon="6.77745">
        <ele>343.5</ele>
        <time>2014-05-18T10:05:46.000Z</time>
      </trkpt>
      <trkpt lat="47.5158" lon="6.77746">
        <ele>344.6</ele>
        <time>2014-05-18T10:05:47.000Z</time>
      </trkpt>
      <trkpt lat="47.51583" lon="6.77747">
        <ele>345.2</ele>
        <time>2014-05-18T10:05:48.000Z</time>
      </trkpt>
      <trkpt lat="47.51594" lon="6.77751">
        <ele>352.8</ele>
        <time>2014-05-18T10:05:51.000Z</time>
      </trkpt>
      <trkpt lat="47.51598" lon="6.77751">
        <ele>354.6</ele>
        <time>2014-05-18T10:05:52.000Z</time>
      </trkpt>
      <trkpt lat="47.51602" lon="6.77752">
        <ele>356.5</ele>
        <time>2014-05-18T10:05:53.000Z</time>
      </trkpt>
      <trkpt lat="47.51605" lon="6.77752">
        <ele>357.4</ele>
        <time>2014-05-18T10:05:54.000Z</time>
      </trkpt>
      <trkpt lat="47.51608" lon="6.77753">
        <ele>358.4</ele>
        <time>2014-05-18T10:05:55.000Z</time>
      </trkpt>
      <trkpt lat="47.51612" lon="6.77753">
        <ele>359.3</ele>
        <time>2014-05-18T10:05:57.000Z</time>
      </trkpt>
      <trkpt lat="47.51614" lon="6.77754">
        <ele>359.9</ele>
        <time>2014-05-18T10:05:58.000Z</time>
      </trkpt>
      <trkpt lat="47.51617" lon="6.77754">
        <ele>364</ele>
        <time>2014-05-18T10:05:59.000Z</time>
      </trkpt>
      <trkpt lat="47.5162" lon="6.77755">
        <ele>364</ele>
        <time>2014-05-18T10:06:00.000Z</time>
      </trkpt>
      <trkpt lat="47.51622" lon="6.77755">
        <ele>363.4</ele>
        <time>2014-05-18T10:06:01.001Z</time>
      </trkpt>
      <trkpt lat="47.51625" lon="6.77755">
        <ele>364.4</ele>
        <time>2014-05-18T10:06:02.000Z</time>
      </trkpt>
      <trkpt lat="47.51629" lon="6.77756">
        <ele>366.4</ele>
        <time>2014-05-18T10:06:04.000Z</time>
      </trkpt>
      <trkpt lat="47.51631" lon="6.77756">
        <ele>366.5</ele>
        <time>2014-05-18T10:06:05.000Z</time>
      </trkpt>
      <trkpt lat="47.51633" lon="6.77757">
        <ele>367.1</ele>
        <time>2014-05-18T10:06:06.000Z</time>
      </trkpt>
      <trkpt lat="47.51635" lon="6.77756">
        <ele>368.2</ele>
        <time>2014-05-18T10:06:07.000Z</time>
      </trkpt>
      <trkpt lat="47.51638" lon="6.77756">
        <ele>369</ele>
        <time>2014-05-18T10:06:08.000Z</time>
      </trkpt>
      <trkpt lat="47.5164" lon="6.77756">
        <ele>368.8</ele>
        <time>2014-05-18T10:06:09.000Z</time>
      </trkpt>
      <trkpt lat="47.51644" lon="6.77756">
        <ele>369.4</ele>
        <time>2014-05-18T10:06:11.000Z</time>
      </trkpt>
      <trkpt lat="47.51646" lon="6.77756">
        <ele>370.7</ele>
        <time>2014-05-18T10:06:12.000Z</time>
      </trkpt>
      <trkpt lat="47.51649" lon="6.77755">
        <ele>369.8</ele>
        <time>2014-05-18T10:06:14.000Z</time>
      </trkpt>
      <trkpt lat="47.51651" lon="6.77755">
        <ele>369.2</ele>
        <time>2014-05-18T10:06:15.000Z</time>
      </trkpt>
      <trkpt lat="47.51654" lon="6.77756">
        <ele>370.1</ele>
        <time>2014-05-18T10:06:17.000Z</time>
      </trkpt>
      <trkpt lat="47.51656" lon="6.77757">
        <ele>370.7</ele>
        <time>2014-05-18T10:06:18.000Z</time>
      </trkpt>
      <trkpt lat="47.5166" lon="6.77758">
        <ele>372.1</ele>
        <time>2014-05-18T10:06:21.000Z</time>
      </trkpt>
      <trkpt lat="47.51661" lon="6.77758">
        <ele>373</ele>
        <time>2014-05-18T10:06:22.000Z</time>
      </trkpt>
      <trkpt lat="47.51665" lon="6.77758">
        <ele>374.1</ele>
        <time>2014-05-18T10:06:24.000Z</time>
      </trkpt>
      <trkpt lat="47.51667" lon="6.77758">
        <ele>374.4</ele>
        <time>2014-05-18T10:06:25.000Z</time>
      </trkpt>
      <trkpt lat="47.51672" lon="6.77759">
        <ele>376.4</ele>
        <time>2014-05-18T10:06:27.000Z</time>
      </trkpt>
      <trkpt lat="47.51674" lon="6.77759">
        <ele>377</ele>
        <time>2014-05-18T10:06:28.000Z</time>
      </trkpt>
      <trkpt lat="47.51677" lon="6.77757">
        <ele>378.4</ele>
        <time>2014-05-18T10:06:30.000Z</time>
      </trkpt>
      <trkpt lat="47.51678" lon="6.77756">
        <ele>378.8</ele>
        <time>2014-05-18T10:06:31.000Z</time>
      </trkpt>
      <trkpt lat="47.51682" lon="6.77753">
        <ele>379.7</ele>
        <time>2014-05-18T10:06:33.000Z</time>
      </trkpt>
      <trkpt lat="47.51683" lon="6.77752">
        <ele>379.5</ele>
        <time>2014-05-18T10:06:34.000Z</time>
      </trkpt>
      <trkpt lat="47.51686" lon="6.77748">
        <ele>379.9</ele>
        <time>2014-05-18T10:06:36.000Z</time>
      </trkpt>
      <trkpt lat="47.51687" lon="6.77746">
        <ele>380.1</ele>
        <time>2014-05-18T10:06:37.000Z</time>
      </trkpt>
      <trkpt lat="47.51689" lon="6.77742">
        <ele>382.1</ele>
        <time>2014-05-18T10:06:39.000Z</time>
      </trkpt>
      <trkpt lat="47.5169" lon="6.7774">
        <ele>382.3</ele>
        <time>2014-05-18T10:06:40.000Z</time>
      </trkpt>
      <trkpt lat="47.51692" lon="6.77735">
        <ele>382.5</ele>
        <time>2014-05-18T10:06:42.000Z</time>
      </trkpt>
      <trkpt lat="47.51693" lon="6.77732">
        <ele>382.7</ele>
        <time>2014-05-18T10:06:43.000Z</time>
      </trkpt>
      <trkpt lat="47.51695" lon="6.77726">
        <ele>385.1</ele>
        <time>2014-05-18T10:06:45.000Z</time>
      </trkpt>
      <trkpt lat="47.51695" lon="6.77723">
        <ele>385.7</ele>
        <time>2014-05-18T10:06:46.000Z</time>
      </trkpt>
      <trkpt lat="47.51697" lon="6.77717">
        <ele>386.5</ele>
        <time>2014-05-18T10:06:48.000Z</time>
      </trkpt>
      <trkpt lat="47.51699" lon="6.77709">
        <ele>387.5</ele>
        <time>2014-05-18T10:06:51.000Z</time>
      </trkpt>
      <trkpt lat="47.517" lon="6.77705">
        <ele>389.2</ele>
        <time>2014-05-18T10:06:53.000Z</time>
      </trkpt>
      <trkpt lat="47.517" lon="6.77702">
        <ele>390.7</ele>
        <time>2014-05-18T10:06:54.000Z</time>
      </trkpt>
      <trkpt lat="47.517" lon="6.77697">
        <ele>390.2</ele>
        <time>2014-05-18T10:06:56.000Z</time>
      </trkpt>
      <trkpt lat="47.517" lon="6.77694">
        <ele>390</ele>
        <time>2014-05-18T10:06:57.000Z</time>
      </trkpt>
      <trkpt lat="47.517" lon="6.77689">
        <ele>390.5</ele>
        <time>2014-05-18T10:06:59.000Z</time>
      </trkpt>
      <trkpt lat="47.517" lon="6.77686">
        <ele>390.3</ele>
        <time>2014-05-18T10:07:00.000Z</time>
      </trkpt>
      <trkpt lat="47.51701" lon="6.7768">
        <ele>390.3</ele>
        <time>2014-05-18T10:07:02.000Z</time>
      </trkpt>
      <trkpt lat="47.51702" lon="6.77677">
        <ele>390.6</ele>
        <time>2014-05-18T10:07:03.000Z</time>
      </trkpt>
      <trkpt lat="47.51704" lon="6.77674">
        <ele>390</ele>
        <time>2014-05-18T10:07:04.000Z</time>
      </trkpt>
      <trkpt lat="47.51705" lon="6.7767">
        <ele>389.9</ele>
        <time>2014-05-18T10:07:05.000Z</time>
      </trkpt>
      <trkpt lat="47.51706" lon="6.77667">
        <ele>390</ele>
        <time>2014-05-18T10:07:06.000Z</time>
      </trkpt>
      <trkpt lat="47.51707" lon="6.77663">
        <ele>390.1</ele>
        <time>2014-05-18T10:07:07.000Z</time>
      </trkpt>
      <trkpt lat="47.51708" lon="6.77659">
        <ele>390.2</ele>
        <time>2014-05-18T10:07:08.000Z</time>
      </trkpt>
      <trkpt lat="47.51708" lon="6.77656">
        <ele>390.3</ele>
        <time>2014-05-18T10:07:09.000Z</time>
      </trkpt>
      <trkpt lat="47.51708" lon="6.77652">
        <ele>389.4</ele>
        <time>2014-05-18T10:07:10.000Z</time>
      </trkpt>
      <trkpt lat="47.51709" lon="6.77648">
        <ele>388.7</ele>
        <time>2014-05-18T10:07:11.000Z</time>
      </trkpt>
      <trkpt lat="47.51709" lon="6.77644">
        <ele>388.9</ele>
        <time>2014-05-18T10:07:12.000Z</time>
      </trkpt>
      <trkpt lat="47.51709" lon="6.77641">
        <ele>389.1</ele>
        <time>2014-05-18T10:07:13.000Z</time>
      </trkpt>
      <trkpt lat="47.51709" lon="6.77637">
        <ele>389.7</ele>
        <time>2014-05-18T10:07:14.000Z</time>
      </trkpt>
      <trkpt lat="47.5171" lon="6.77634">
        <ele>390</ele>
        <time>2014-05-18T10:07:15.000Z</time>
      </trkpt>
      <trkpt lat="47.5171" lon="6.77627">
        <ele>389.3</ele>
        <time>2014-05-18T10:07:17.000Z</time>
      </trkpt>
      <trkpt lat="47.51709" lon="6.77624">
        <ele>389.6</ele>
        <time>2014-05-18T10:07:18.000Z</time>
      </trkpt>
      <trkpt lat="47.51709" lon="6.7762">
        <ele>389.6</ele>
        <time>2014-05-18T10:07:19.000Z</time>
      </trkpt>
      <trkpt lat="47.51709" lon="6.77617">
        <ele>389.7</ele>
        <time>2014-05-18T10:07:20.000Z</time>
      </trkpt>
      <trkpt lat="47.51709" lon="6.77613">
        <ele>389.7</ele>
        <time>2014-05-18T10:07:21.000Z</time>
      </trkpt>
      <trkpt lat="47.51709" lon="6.77609">
        <ele>389</ele>
        <time>2014-05-18T10:07:22.000Z</time>
      </trkpt>
      <trkpt lat="47.5171" lon="6.77606">
        <ele>388.7</ele>
        <time>2014-05-18T10:07:23.000Z</time>
      </trkpt>
      <trkpt lat="47.5171" lon="6.77602">
        <ele>388</ele>
        <time>2014-05-18T10:07:24.000Z</time>
      </trkpt>
      <trkpt lat="47.51711" lon="6.77598">
        <ele>387.4</ele>
        <time>2014-05-18T10:07:25.000Z</time>
      </trkpt>
      <trkpt lat="47.51711" lon="6.77594">
        <ele>387.4</ele>
        <time>2014-05-18T10:07:26.000Z</time>
      </trkpt>
      <trkpt lat="47.51712" lon="6.77591">
        <ele>387.7</ele>
        <time>2014-05-18T10:07:27.000Z</time>
      </trkpt>
      <trkpt lat="47.51714" lon="6.77588">
        <ele>388.4</ele>
        <time>2014-05-18T10:07:28.000Z</time>
      </trkpt>
      <trkpt lat="47.51716" lon="6.77587">
        <ele>389.6</ele>
        <time>2014-05-18T10:07:29.000Z</time>
      </trkpt>
      <trkpt lat="47.51718" lon="6.77585">
        <ele>390.4</ele>
        <time>2014-05-18T10:07:30.000Z</time>
      </trkpt>
      <trkpt lat="47.5172" lon="6.77584">
        <ele>390.7</ele>
        <time>2014-05-18T10:07:31.000Z</time>
      </trkpt>
      <trkpt lat="47.51722" lon="6.77582">
        <ele>390.6</ele>
        <time>2014-05-18T10:07:32.000Z</time>
      </trkpt>
      <trkpt lat="47.51723" lon="6.77578">
        <ele>390.9</ele>
        <time>2014-05-18T10:07:33.000Z</time>
      </trkpt>
      <trkpt lat="47.51722" lon="6.77574">
        <ele>391.1</ele>
        <time>2014-05-18T10:07:34.000Z</time>
      </trkpt>
      <trkpt lat="47.51721" lon="6.7757">
        <ele>390.5</ele>
        <time>2014-05-18T10:07:34.999Z</time>
      </trkpt>
      <trkpt lat="47.51719" lon="6.77566">
        <ele>390.1</ele>
        <time>2014-05-18T10:07:36.000Z</time>
      </trkpt>
      <trkpt lat="47.51718" lon="6.77561">
        <ele>389.6</ele>
        <time>2014-05-18T10:07:37.000Z</time>
      </trkpt>
      <trkpt lat="47.51717" lon="6.77556">
        <ele>389.3</ele>
        <time>2014-05-18T10:07:38.000Z</time>
      </trkpt>
      <trkpt lat="47.51718" lon="6.77551">
        <ele>389.2</ele>
        <time>2014-05-18T10:07:39.000Z</time>
      </trkpt>
      <trkpt lat="47.51719" lon="6.77545">
        <ele>389.3</ele>
        <time>2014-05-18T10:07:40.000Z</time>
      </trkpt>
      <trkpt lat="47.51721" lon="6.77539">
        <ele>389.5</ele>
        <time>2014-05-18T10:07:41.000Z</time>
      </trkpt>
      <trkpt lat="47.51722" lon="6.77533">
        <ele>390.3</ele>
        <time>2014-05-18T10:07:42.000Z</time>
      </trkpt>
      <trkpt lat="47.51723" lon="6.77527">
        <ele>390.5</ele>
        <time>2014-05-18T10:07:43.000Z</time>
      </trkpt>
      <trkpt lat="47.51724" lon="6.77522">
        <ele>390.2</ele>
        <time>2014-05-18T10:07:44.000Z</time>
      </trkpt>
      <trkpt lat="47.51725" lon="6.77516">
        <ele>389.6</ele>
        <time>2014-05-18T10:07:45.000Z</time>
      </trkpt>
      <trkpt lat="47.51726" lon="6.7751">
        <ele>389.2</ele>
        <time>2014-05-18T10:07:46.000Z</time>
      </trkpt>
      <trkpt lat="47.51727" lon="6.77505">
        <ele>389</ele>
        <time>2014-05-18T10:07:47.000Z</time>
      </trkpt>
      <trkpt lat="47.51728" lon="6.775">
        <ele>389.1</ele>
        <time>2014-05-18T10:07:48.000Z</time>
      </trkpt>
      <trkpt lat="47.51728" lon="6.77495">
        <ele>388.9</ele>
        <time>2014-05-18T10:07:49.000Z</time>
      </trkpt>
      <trkpt lat="47.5175" lon="6.77482">
        <ele>389.1</ele>
        <time>2014-05-18T10:07:57.000Z</time>
      </trkpt>
      <trkpt lat="47.51754" lon="6.77483">
        <ele>389.4</ele>
        <time>2014-05-18T10:07:58.000Z</time>
      </trkpt>
      <trkpt lat="47.5176" lon="6.77487">
        <ele>389.1</ele>
        <time>2014-05-18T10:07:59.000Z</time>
      </trkpt>
      <trkpt lat="47.51764" lon="6.77487">
        <ele>388.7</ele>
        <time>2014-05-18T10:08:00.000Z</time>
      </trkpt>
      <trkpt lat="47.51768" lon="6.77488">
        <ele>388.2</ele>
        <time>2014-05-18T10:08:01.000Z</time>
      </trkpt>
      <trkpt lat="47.51773" lon="6.77489">
        <ele>388.7</ele>
        <time>2014-05-18T10:08:02.000Z</time>
      </trkpt>
      <trkpt lat="47.51779" lon="6.7749">
        <ele>388.5</ele>
        <time>2014-05-18T10:08:03.000Z</time>
      </trkpt>
      <trkpt lat="47.51783" lon="6.77493">
        <ele>389.4</ele>
        <time>2014-05-18T10:08:04.000Z</time>
      </trkpt>
      <trkpt lat="47.51788" lon="6.77496">
        <ele>389.4</ele>
        <time>2014-05-18T10:08:05.000Z</time>
      </trkpt>
      <trkpt lat="47.51793" lon="6.77497">
        <ele>388.2</ele>
        <time>2014-05-18T10:08:06.000Z</time>
      </trkpt>
      <trkpt lat="47.51798" lon="6.77499">
        <ele>388</ele>
        <time>2014-05-18T10:08:07.000Z</time>
      </trkpt>
      <trkpt lat="47.51803" lon="6.77499">
        <ele>387.7</ele>
        <time>2014-05-18T10:08:08.000Z</time>
      </trkpt>
      <trkpt lat="47.51806" lon="6.77496">
        <ele>386.9</ele>
        <time>2014-05-18T10:08:09.000Z</time>
      </trkpt>
      <trkpt lat="47.51806" lon="6.7749">
        <ele>387.1</ele>
        <time>2014-05-18T10:08:10.000Z</time>
      </trkpt>
      <trkpt lat="47.51805" lon="6.77486">
        <ele>388.1</ele>
        <time>2014-05-18T10:08:11.000Z</time>
      </trkpt>
      <trkpt lat="47.51803" lon="6.77484">
        <ele>386.1</ele>
        <time>2014-05-18T10:08:12.000Z</time>
      </trkpt>
      <trkpt lat="47.51801" lon="6.77482">
        <ele>384.7</ele>
        <time>2014-05-18T10:08:13.000Z</time>
      </trkpt>
      <trkpt lat="47.518" lon="6.77479">
        <ele>384.3</ele>
        <time>2014-05-18T10:08:14.000Z</time>
      </trkpt>
      <trkpt lat="47.51798" lon="6.77477">
        <ele>383.5</ele>
        <time>2014-05-18T10:08:15.000Z</time>
      </trkpt>
      <trkpt lat="47.51793" lon="6.77479">
        <ele>387.2</ele>
        <time>2014-05-18T10:08:19.000Z</time>
      </trkpt>
      <trkpt lat="47.51793" lon="6.77477">
        <ele>387.9</ele>
        <time>2014-05-18T10:08:20.000Z</time>
      </trkpt>
      <trkpt lat="47.5179" lon="6.77472">
        <ele>386.2</ele>
        <time>2014-05-18T10:08:25.000Z</time>
      </trkpt>
      <trkpt lat="47.5179" lon="6.77471">
        <ele>386.1</ele>
        <time>2014-05-18T10:08:26.000Z</time>
      </trkpt>
      <trkpt lat="47.51791" lon="6.77465">
        <ele>386.2</ele>
        <time>2014-05-18T10:08:35.000Z</time>
      </trkpt>
      <trkpt lat="47.51791" lon="6.77463">
        <ele>386.2</ele>
        <time>2014-05-18T10:08:36.000Z</time>
      </trkpt>
      <trkpt lat="47.51795" lon="6.77461">
        <ele>388.4</ele>
        <time>2014-05-18T10:08:48.000Z</time>
      </trkpt>
      <trkpt lat="47.51795" lon="6.77461">
        <ele>388.3</ele>
        <time>2014-05-18T10:08:51.000Z</time>
      </trkpt>
      <trkpt lat="47.51794" lon="6.77468">
        <ele>386.9</ele>
        <time>2014-05-18T10:09:16.000Z</time>
      </trkpt>
      <trkpt lat="47.51794" lon="6.77468">
        <ele>387.5</ele>
        <time>2014-05-18T10:09:17.000Z</time>
      </trkpt>
      <trkpt lat="47.51795" lon="6.77467">
        <ele>389.4</ele>
        <time>2014-05-18T10:10:43.000Z</time>
      </trkpt>
    </trkseg>
  </trk>
</gpx>